<?xml version="1.0" encoding="UTF-8" standalone="no" ?>
<gpx xmlns="http://www.topografix.com/GPX/1/1" xmlns:xsi="http://www.w3.org/2001/XMLSchema-instance" xsi:schemaLocation="http://www.topografix.com/GPX/1/1 http://www.topografix.com/GPX/1/1/gpx.xsd" version="1.1" creator="VisuGPX - https://www.visugpx.com">
  <metadata>
    <name>2014-05-01 Rando Allex</name>
    <desc><![CDATA[Beau parcours proposé cette année par le club d\'Allex. De belles drailles et un ravito central très copieux]]></desc>
  </metadata>
  <trk>
    <name><![CDATA[2014-05-01 Vtt rando Allex]]></name>
    <trkseg>
      <trkpt lat="44.76286" lon="4.92067">
        <ele>157.5</ele>
        <time>2014-05-01T05:49:26Z</time>
      </trkpt>
      <trkpt lat="44.76285" lon="4.92068">
        <ele>157.2</ele>
        <time>2014-05-01T05:49:27Z</time>
      </trkpt>
      <trkpt lat="44.76286" lon="4.92075">
        <ele>157.4</ele>
        <time>2014-05-01T05:49:32Z</time>
      </trkpt>
      <trkpt lat="44.7629" lon="4.92081">
        <ele>158.2</ele>
        <time>2014-05-01T05:49:37Z</time>
      </trkpt>
      <trkpt lat="44.7629" lon="4.92089">
        <ele>158.1</ele>
        <time>2014-05-01T05:49:42Z</time>
      </trkpt>
      <trkpt lat="44.76289" lon="4.92097">
        <ele>158</ele>
        <time>2014-05-01T05:49:45Z</time>
      </trkpt>
      <trkpt lat="44.76289" lon="4.92104">
        <ele>158.1</ele>
        <time>2014-05-01T05:49:48Z</time>
      </trkpt>
      <trkpt lat="44.76287" lon="4.92111">
        <ele>157.6</ele>
        <time>2014-05-01T05:49:52Z</time>
      </trkpt>
      <trkpt lat="44.76283" lon="4.92115">
        <ele>156.5</ele>
        <time>2014-05-01T05:49:56Z</time>
      </trkpt>
      <trkpt lat="44.76277" lon="4.92116">
        <ele>155</ele>
        <time>2014-05-01T05:50:00Z</time>
      </trkpt>
      <trkpt lat="44.76272" lon="4.92116">
        <ele>153.6</ele>
        <time>2014-05-01T05:50:03Z</time>
      </trkpt>
      <trkpt lat="44.76267" lon="4.92116">
        <ele>152.1</ele>
        <time>2014-05-01T05:50:06Z</time>
      </trkpt>
      <trkpt lat="44.76261" lon="4.92116">
        <ele>150.3</ele>
        <time>2014-05-01T05:50:09Z</time>
      </trkpt>
      <trkpt lat="44.76255" lon="4.92117">
        <ele>148.6</ele>
        <time>2014-05-01T05:50:12Z</time>
      </trkpt>
      <trkpt lat="44.76249" lon="4.92117">
        <ele>147.1</ele>
        <time>2014-05-01T05:50:15Z</time>
      </trkpt>
      <trkpt lat="44.76242" lon="4.92119">
        <ele>146.7</ele>
        <time>2014-05-01T05:50:18Z</time>
      </trkpt>
      <trkpt lat="44.76237" lon="4.9212">
        <ele>146.2</ele>
        <time>2014-05-01T05:50:20Z</time>
      </trkpt>
      <trkpt lat="44.76232" lon="4.9212">
        <ele>145.9</ele>
        <time>2014-05-01T05:50:22Z</time>
      </trkpt>
      <trkpt lat="44.76227" lon="4.9212">
        <ele>145.4</ele>
        <time>2014-05-01T05:50:24Z</time>
      </trkpt>
      <trkpt lat="44.76222" lon="4.92118">
        <ele>144.9</ele>
        <time>2014-05-01T05:50:26Z</time>
      </trkpt>
      <trkpt lat="44.76218" lon="4.92115">
        <ele>144.5</ele>
        <time>2014-05-01T05:50:28Z</time>
      </trkpt>
      <trkpt lat="44.76216" lon="4.92109">
        <ele>144.2</ele>
        <time>2014-05-01T05:50:32Z</time>
      </trkpt>
      <trkpt lat="44.76212" lon="4.92104">
        <ele>143.8</ele>
        <time>2014-05-01T05:50:37Z</time>
      </trkpt>
      <trkpt lat="44.76208" lon="4.92109">
        <ele>143.6</ele>
        <time>2014-05-01T05:50:43Z</time>
      </trkpt>
      <trkpt lat="44.76213" lon="4.92113">
        <ele>144.1</ele>
        <time>2014-05-01T05:50:46Z</time>
      </trkpt>
      <trkpt lat="44.76219" lon="4.92116">
        <ele>144.6</ele>
        <time>2014-05-01T05:50:48Z</time>
      </trkpt>
      <trkpt lat="44.76224" lon="4.9212">
        <ele>145.2</ele>
        <time>2014-05-01T05:50:50Z</time>
      </trkpt>
      <trkpt lat="44.7623" lon="4.92122">
        <ele>145.7</ele>
        <time>2014-05-01T05:50:52Z</time>
      </trkpt>
      <trkpt lat="44.76237" lon="4.92123">
        <ele>146.3</ele>
        <time>2014-05-01T05:50:54Z</time>
      </trkpt>
      <trkpt lat="44.76243" lon="4.92124">
        <ele>146.9</ele>
        <time>2014-05-01T05:50:56Z</time>
      </trkpt>
      <trkpt lat="44.76249" lon="4.92124">
        <ele>147.4</ele>
        <time>2014-05-01T05:50:58Z</time>
      </trkpt>
      <trkpt lat="44.76255" lon="4.92124">
        <ele>148.8</ele>
        <time>2014-05-01T05:51:00Z</time>
      </trkpt>
      <trkpt lat="44.7626" lon="4.92124">
        <ele>150.4</ele>
        <time>2014-05-01T05:51:02Z</time>
      </trkpt>
      <trkpt lat="44.76266" lon="4.92123">
        <ele>151.9</ele>
        <time>2014-05-01T05:51:04Z</time>
      </trkpt>
      <trkpt lat="44.76272" lon="4.92122">
        <ele>153.5</ele>
        <time>2014-05-01T05:51:06Z</time>
      </trkpt>
      <trkpt lat="44.76277" lon="4.92121">
        <ele>155.1</ele>
        <time>2014-05-01T05:51:08Z</time>
      </trkpt>
      <trkpt lat="44.76282" lon="4.9212">
        <ele>156.5</ele>
        <time>2014-05-01T05:51:10Z</time>
      </trkpt>
      <trkpt lat="44.76287" lon="4.92117">
        <ele>157.7</ele>
        <time>2014-05-01T05:51:13Z</time>
      </trkpt>
      <trkpt lat="44.7629" lon="4.92112">
        <ele>158.6</ele>
        <time>2014-05-01T05:51:17Z</time>
      </trkpt>
      <trkpt lat="44.76292" lon="4.92104">
        <ele>158.9</ele>
        <time>2014-05-01T05:51:20Z</time>
      </trkpt>
      <trkpt lat="44.76292" lon="4.92096">
        <ele>158.7</ele>
        <time>2014-05-01T05:51:22Z</time>
      </trkpt>
      <trkpt lat="44.76291" lon="4.92087">
        <ele>158.3</ele>
        <time>2014-05-01T05:51:24Z</time>
      </trkpt>
      <trkpt lat="44.7629" lon="4.92079">
        <ele>158.2</ele>
        <time>2014-05-01T05:51:26Z</time>
      </trkpt>
      <trkpt lat="44.76289" lon="4.92071">
        <ele>158.4</ele>
        <time>2014-05-01T05:51:28Z</time>
      </trkpt>
      <trkpt lat="44.76288" lon="4.92063">
        <ele>158.6</ele>
        <time>2014-05-01T05:51:30Z</time>
      </trkpt>
      <trkpt lat="44.76287" lon="4.92055">
        <ele>158.4</ele>
        <time>2014-05-01T05:51:33Z</time>
      </trkpt>
      <trkpt lat="44.76288" lon="4.92049">
        <ele>159.1</ele>
        <time>2014-05-01T05:51:38Z</time>
      </trkpt>
      <trkpt lat="44.7629" lon="4.92042">
        <ele>160.1</ele>
        <time>2014-05-01T05:51:42Z</time>
      </trkpt>
      <trkpt lat="44.76292" lon="4.92036">
        <ele>161.3</ele>
        <time>2014-05-01T05:51:45Z</time>
      </trkpt>
      <trkpt lat="44.76294" lon="4.9203">
        <ele>162.2</ele>
        <time>2014-05-01T05:51:48Z</time>
      </trkpt>
      <trkpt lat="44.76293" lon="4.92023">
        <ele>162.3</ele>
        <time>2014-05-01T05:51:51Z</time>
      </trkpt>
      <trkpt lat="44.76291" lon="4.92015">
        <ele>162</ele>
        <time>2014-05-01T05:51:54Z</time>
      </trkpt>
      <trkpt lat="44.76289" lon="4.92008">
        <ele>161.6</ele>
        <time>2014-05-01T05:51:57Z</time>
      </trkpt>
      <trkpt lat="44.76287" lon="4.91993">
        <ele>161.9</ele>
        <time>2014-05-01T05:52:01Z</time>
      </trkpt>
      <trkpt lat="44.76286" lon="4.91985">
        <ele>161.8</ele>
        <time>2014-05-01T05:52:03Z</time>
      </trkpt>
      <trkpt lat="44.76286" lon="4.91978">
        <ele>161.9</ele>
        <time>2014-05-01T05:52:05Z</time>
      </trkpt>
      <trkpt lat="44.76291" lon="4.91972">
        <ele>163.9</ele>
        <time>2014-05-01T05:52:08Z</time>
      </trkpt>
      <trkpt lat="44.76296" lon="4.91969">
        <ele>165.5</ele>
        <time>2014-05-01T05:52:10Z</time>
      </trkpt>
      <trkpt lat="44.76299" lon="4.91965">
        <ele>166.8</ele>
        <time>2014-05-01T05:52:12Z</time>
      </trkpt>
      <trkpt lat="44.76301" lon="4.91959">
        <ele>167.6</ele>
        <time>2014-05-01T05:52:14Z</time>
      </trkpt>
      <trkpt lat="44.763" lon="4.91952">
        <ele>167.6</ele>
        <time>2014-05-01T05:52:16Z</time>
      </trkpt>
      <trkpt lat="44.76299" lon="4.91945">
        <ele>167.4</ele>
        <time>2014-05-01T05:52:18Z</time>
      </trkpt>
      <trkpt lat="44.76297" lon="4.91937">
        <ele>167</ele>
        <time>2014-05-01T05:52:20Z</time>
      </trkpt>
      <trkpt lat="44.76295" lon="4.9193">
        <ele>166.5</ele>
        <time>2014-05-01T05:52:22Z</time>
      </trkpt>
      <trkpt lat="44.76292" lon="4.91922">
        <ele>166</ele>
        <time>2014-05-01T05:52:24Z</time>
      </trkpt>
      <trkpt lat="44.76289" lon="4.91915">
        <ele>165.4</ele>
        <time>2014-05-01T05:52:26Z</time>
      </trkpt>
      <trkpt lat="44.76287" lon="4.91908">
        <ele>165.1</ele>
        <time>2014-05-01T05:52:28Z</time>
      </trkpt>
      <trkpt lat="44.76285" lon="4.91901">
        <ele>165.1</ele>
        <time>2014-05-01T05:52:30Z</time>
      </trkpt>
      <trkpt lat="44.76283" lon="4.91894">
        <ele>164.8</ele>
        <time>2014-05-01T05:52:32Z</time>
      </trkpt>
      <trkpt lat="44.76281" lon="4.91888">
        <ele>164.6</ele>
        <time>2014-05-01T05:52:34Z</time>
      </trkpt>
      <trkpt lat="44.7628" lon="4.91882">
        <ele>164.5</ele>
        <time>2014-05-01T05:52:37Z</time>
      </trkpt>
      <trkpt lat="44.76282" lon="4.91876">
        <ele>165.8</ele>
        <time>2014-05-01T05:52:40Z</time>
      </trkpt>
      <trkpt lat="44.76286" lon="4.9187">
        <ele>167.4</ele>
        <time>2014-05-01T05:52:43Z</time>
      </trkpt>
      <trkpt lat="44.7629" lon="4.91865">
        <ele>169.3</ele>
        <time>2014-05-01T05:52:46Z</time>
      </trkpt>
      <trkpt lat="44.76294" lon="4.91859">
        <ele>170.9</ele>
        <time>2014-05-01T05:52:49Z</time>
      </trkpt>
      <trkpt lat="44.76297" lon="4.91853">
        <ele>172.3</ele>
        <time>2014-05-01T05:52:52Z</time>
      </trkpt>
      <trkpt lat="44.76301" lon="4.91846">
        <ele>174.1</ele>
        <time>2014-05-01T05:52:55Z</time>
      </trkpt>
      <trkpt lat="44.76305" lon="4.91842">
        <ele>175.9</ele>
        <time>2014-05-01T05:52:58Z</time>
      </trkpt>
      <trkpt lat="44.76302" lon="4.91843">
        <ele>175</ele>
        <time>2014-05-01T05:53:17Z</time>
      </trkpt>
      <trkpt lat="44.76296" lon="4.91849">
        <ele>172.3</ele>
        <time>2014-05-01T05:53:19Z</time>
      </trkpt>
      <trkpt lat="44.7629" lon="4.91859">
        <ele>169.6</ele>
        <time>2014-05-01T05:53:21Z</time>
      </trkpt>
      <trkpt lat="44.76286" lon="4.91864">
        <ele>167.9</ele>
        <time>2014-05-01T05:53:22Z</time>
      </trkpt>
      <trkpt lat="44.76282" lon="4.91871">
        <ele>166.1</ele>
        <time>2014-05-01T05:53:23Z</time>
      </trkpt>
      <trkpt lat="44.76278" lon="4.91877">
        <ele>164.3</ele>
        <time>2014-05-01T05:53:24Z</time>
      </trkpt>
      <trkpt lat="44.76273" lon="4.91883">
        <ele>162.3</ele>
        <time>2014-05-01T05:53:25Z</time>
      </trkpt>
      <trkpt lat="44.76269" lon="4.91889">
        <ele>160.3</ele>
        <time>2014-05-01T05:53:26Z</time>
      </trkpt>
      <trkpt lat="44.76264" lon="4.91895">
        <ele>158.4</ele>
        <time>2014-05-01T05:53:27Z</time>
      </trkpt>
      <trkpt lat="44.7626" lon="4.91899">
        <ele>156.7</ele>
        <time>2014-05-01T05:53:28Z</time>
      </trkpt>
      <trkpt lat="44.76255" lon="4.91904">
        <ele>154.7</ele>
        <time>2014-05-01T05:53:29Z</time>
      </trkpt>
      <trkpt lat="44.76251" lon="4.91907">
        <ele>153</ele>
        <time>2014-05-01T05:53:30Z</time>
      </trkpt>
      <trkpt lat="44.76246" lon="4.9191">
        <ele>152</ele>
        <time>2014-05-01T05:53:31Z</time>
      </trkpt>
      <trkpt lat="44.76242" lon="4.91913">
        <ele>151.2</ele>
        <time>2014-05-01T05:53:32Z</time>
      </trkpt>
      <trkpt lat="44.76238" lon="4.91916">
        <ele>150.5</ele>
        <time>2014-05-01T05:53:33Z</time>
      </trkpt>
      <trkpt lat="44.76234" lon="4.91919">
        <ele>149.8</ele>
        <time>2014-05-01T05:53:34Z</time>
      </trkpt>
      <trkpt lat="44.76226" lon="4.91923">
        <ele>148.6</ele>
        <time>2014-05-01T05:53:36Z</time>
      </trkpt>
      <trkpt lat="44.76221" lon="4.91923">
        <ele>148</ele>
        <time>2014-05-01T05:53:38Z</time>
      </trkpt>
      <trkpt lat="44.76217" lon="4.91918">
        <ele>147.6</ele>
        <time>2014-05-01T05:53:42Z</time>
      </trkpt>
      <trkpt lat="44.76214" lon="4.91909">
        <ele>147.7</ele>
        <time>2014-05-01T05:53:45Z</time>
      </trkpt>
      <trkpt lat="44.76212" lon="4.91903">
        <ele>147.7</ele>
        <time>2014-05-01T05:53:47Z</time>
      </trkpt>
      <trkpt lat="44.7621" lon="4.91895">
        <ele>147.8</ele>
        <time>2014-05-01T05:53:49Z</time>
      </trkpt>
      <trkpt lat="44.76208" lon="4.91888">
        <ele>147.8</ele>
        <time>2014-05-01T05:53:51Z</time>
      </trkpt>
      <trkpt lat="44.76205" lon="4.9188">
        <ele>147.8</ele>
        <time>2014-05-01T05:53:53Z</time>
      </trkpt>
      <trkpt lat="44.76203" lon="4.91872">
        <ele>147.9</ele>
        <time>2014-05-01T05:53:55Z</time>
      </trkpt>
      <trkpt lat="44.76201" lon="4.91865">
        <ele>147.9</ele>
        <time>2014-05-01T05:53:57Z</time>
      </trkpt>
      <trkpt lat="44.762" lon="4.91856">
        <ele>148</ele>
        <time>2014-05-01T05:53:59Z</time>
      </trkpt>
      <trkpt lat="44.76195" lon="4.91837">
        <ele>147.9</ele>
        <time>2014-05-01T05:54:03Z</time>
      </trkpt>
      <trkpt lat="44.76192" lon="4.91829">
        <ele>147.8</ele>
        <time>2014-05-01T05:54:05Z</time>
      </trkpt>
      <trkpt lat="44.7619" lon="4.9182">
        <ele>147.6</ele>
        <time>2014-05-01T05:54:07Z</time>
      </trkpt>
      <trkpt lat="44.76187" lon="4.91812">
        <ele>147.4</ele>
        <time>2014-05-01T05:54:09Z</time>
      </trkpt>
      <trkpt lat="44.76185" lon="4.91803">
        <ele>147.3</ele>
        <time>2014-05-01T05:54:11Z</time>
      </trkpt>
      <trkpt lat="44.76183" lon="4.91794">
        <ele>147.4</ele>
        <time>2014-05-01T05:54:13Z</time>
      </trkpt>
      <trkpt lat="44.76182" lon="4.91785">
        <ele>147.4</ele>
        <time>2014-05-01T05:54:15Z</time>
      </trkpt>
      <trkpt lat="44.76181" lon="4.91776">
        <ele>147.5</ele>
        <time>2014-05-01T05:54:17Z</time>
      </trkpt>
      <trkpt lat="44.76179" lon="4.91765">
        <ele>147.6</ele>
        <time>2014-05-01T05:54:19Z</time>
      </trkpt>
      <trkpt lat="44.76178" lon="4.91755">
        <ele>147.7</ele>
        <time>2014-05-01T05:54:21Z</time>
      </trkpt>
      <trkpt lat="44.76177" lon="4.91746">
        <ele>147.6</ele>
        <time>2014-05-01T05:54:23Z</time>
      </trkpt>
      <trkpt lat="44.76176" lon="4.91737">
        <ele>147.1</ele>
        <time>2014-05-01T05:54:25Z</time>
      </trkpt>
      <trkpt lat="44.76173" lon="4.91727">
        <ele>146.3</ele>
        <time>2014-05-01T05:54:27Z</time>
      </trkpt>
      <trkpt lat="44.76169" lon="4.91719">
        <ele>145.3</ele>
        <time>2014-05-01T05:54:29Z</time>
      </trkpt>
      <trkpt lat="44.76165" lon="4.91711">
        <ele>144.5</ele>
        <time>2014-05-01T05:54:31Z</time>
      </trkpt>
      <trkpt lat="44.76158" lon="4.91704">
        <ele>144</ele>
        <time>2014-05-01T05:54:33Z</time>
      </trkpt>
      <trkpt lat="44.7615" lon="4.91698">
        <ele>143.5</ele>
        <time>2014-05-01T05:54:35Z</time>
      </trkpt>
      <trkpt lat="44.76146" lon="4.91696">
        <ele>143.3</ele>
        <time>2014-05-01T05:54:36Z</time>
      </trkpt>
      <trkpt lat="44.76138" lon="4.91692">
        <ele>142.9</ele>
        <time>2014-05-01T05:54:38Z</time>
      </trkpt>
      <trkpt lat="44.7613" lon="4.91687">
        <ele>142.5</ele>
        <time>2014-05-01T05:54:40Z</time>
      </trkpt>
      <trkpt lat="44.76122" lon="4.91683">
        <ele>142.2</ele>
        <time>2014-05-01T05:54:42Z</time>
      </trkpt>
      <trkpt lat="44.76114" lon="4.91679">
        <ele>141.9</ele>
        <time>2014-05-01T05:54:44Z</time>
      </trkpt>
      <trkpt lat="44.76107" lon="4.91675">
        <ele>141.6</ele>
        <time>2014-05-01T05:54:46Z</time>
      </trkpt>
      <trkpt lat="44.76098" lon="4.91672">
        <ele>141.4</ele>
        <time>2014-05-01T05:54:48Z</time>
      </trkpt>
      <trkpt lat="44.7609" lon="4.91668">
        <ele>141.2</ele>
        <time>2014-05-01T05:54:50Z</time>
      </trkpt>
      <trkpt lat="44.76082" lon="4.91664">
        <ele>140.9</ele>
        <time>2014-05-01T05:54:52Z</time>
      </trkpt>
      <trkpt lat="44.76074" lon="4.9166">
        <ele>140.4</ele>
        <time>2014-05-01T05:54:54Z</time>
      </trkpt>
      <trkpt lat="44.7607" lon="4.91658">
        <ele>140.1</ele>
        <time>2014-05-01T05:54:55Z</time>
      </trkpt>
      <trkpt lat="44.76062" lon="4.91654">
        <ele>139.6</ele>
        <time>2014-05-01T05:54:57Z</time>
      </trkpt>
      <trkpt lat="44.76054" lon="4.9165">
        <ele>139.2</ele>
        <time>2014-05-01T05:54:59Z</time>
      </trkpt>
      <trkpt lat="44.76046" lon="4.91645">
        <ele>138.8</ele>
        <time>2014-05-01T05:55:01Z</time>
      </trkpt>
      <trkpt lat="44.76031" lon="4.91635">
        <ele>138</ele>
        <time>2014-05-01T05:55:05Z</time>
      </trkpt>
      <trkpt lat="44.76023" lon="4.9163">
        <ele>137.7</ele>
        <time>2014-05-01T05:55:07Z</time>
      </trkpt>
      <trkpt lat="44.76016" lon="4.91625">
        <ele>137.5</ele>
        <time>2014-05-01T05:55:09Z</time>
      </trkpt>
      <trkpt lat="44.76009" lon="4.91619">
        <ele>137.2</ele>
        <time>2014-05-01T05:55:11Z</time>
      </trkpt>
      <trkpt lat="44.76002" lon="4.91613">
        <ele>137.1</ele>
        <time>2014-05-01T05:55:13Z</time>
      </trkpt>
      <trkpt lat="44.75995" lon="4.91606">
        <ele>137</ele>
        <time>2014-05-01T05:55:15Z</time>
      </trkpt>
      <trkpt lat="44.75988" lon="4.916">
        <ele>137.1</ele>
        <time>2014-05-01T05:55:17Z</time>
      </trkpt>
      <trkpt lat="44.7598" lon="4.91595">
        <ele>137.2</ele>
        <time>2014-05-01T05:55:19Z</time>
      </trkpt>
      <trkpt lat="44.75972" lon="4.9159">
        <ele>137.3</ele>
        <time>2014-05-01T05:55:21Z</time>
      </trkpt>
      <trkpt lat="44.75967" lon="4.91589">
        <ele>137.3</ele>
        <time>2014-05-01T05:55:22Z</time>
      </trkpt>
      <trkpt lat="44.75963" lon="4.91587">
        <ele>137.4</ele>
        <time>2014-05-01T05:55:23Z</time>
      </trkpt>
      <trkpt lat="44.75958" lon="4.91586">
        <ele>137.5</ele>
        <time>2014-05-01T05:55:24Z</time>
      </trkpt>
      <trkpt lat="44.75953" lon="4.91584">
        <ele>137.6</ele>
        <time>2014-05-01T05:55:25Z</time>
      </trkpt>
      <trkpt lat="44.75949" lon="4.91583">
        <ele>137.6</ele>
        <time>2014-05-01T05:55:26Z</time>
      </trkpt>
      <trkpt lat="44.75944" lon="4.91583">
        <ele>137.7</ele>
        <time>2014-05-01T05:55:27Z</time>
      </trkpt>
      <trkpt lat="44.75939" lon="4.91582">
        <ele>137.7</ele>
        <time>2014-05-01T05:55:28Z</time>
      </trkpt>
      <trkpt lat="44.75935" lon="4.91583">
        <ele>137.8</ele>
        <time>2014-05-01T05:55:29Z</time>
      </trkpt>
      <trkpt lat="44.7593" lon="4.91583">
        <ele>137.8</ele>
        <time>2014-05-01T05:55:30Z</time>
      </trkpt>
      <trkpt lat="44.75925" lon="4.91583">
        <ele>137.9</ele>
        <time>2014-05-01T05:55:31Z</time>
      </trkpt>
      <trkpt lat="44.7592" lon="4.91583">
        <ele>138</ele>
        <time>2014-05-01T05:55:32Z</time>
      </trkpt>
      <trkpt lat="44.75911" lon="4.91585">
        <ele>138</ele>
        <time>2014-05-01T05:55:34Z</time>
      </trkpt>
      <trkpt lat="44.75907" lon="4.91586">
        <ele>137.9</ele>
        <time>2014-05-01T05:55:35Z</time>
      </trkpt>
      <trkpt lat="44.75902" lon="4.91587">
        <ele>137.9</ele>
        <time>2014-05-01T05:55:36Z</time>
      </trkpt>
      <trkpt lat="44.75894" lon="4.91588">
        <ele>137.9</ele>
        <time>2014-05-01T05:55:38Z</time>
      </trkpt>
      <trkpt lat="44.75885" lon="4.9159">
        <ele>137.8</ele>
        <time>2014-05-01T05:55:40Z</time>
      </trkpt>
      <trkpt lat="44.7588" lon="4.91591">
        <ele>137.8</ele>
        <time>2014-05-01T05:55:41Z</time>
      </trkpt>
      <trkpt lat="44.75875" lon="4.91591">
        <ele>137.8</ele>
        <time>2014-05-01T05:55:42Z</time>
      </trkpt>
      <trkpt lat="44.75871" lon="4.91592">
        <ele>137.8</ele>
        <time>2014-05-01T05:55:43Z</time>
      </trkpt>
      <trkpt lat="44.75866" lon="4.91593">
        <ele>137.8</ele>
        <time>2014-05-01T05:55:44Z</time>
      </trkpt>
      <trkpt lat="44.75862" lon="4.91594">
        <ele>137.8</ele>
        <time>2014-05-01T05:55:45Z</time>
      </trkpt>
      <trkpt lat="44.75857" lon="4.91595">
        <ele>137.7</ele>
        <time>2014-05-01T05:55:46Z</time>
      </trkpt>
      <trkpt lat="44.75852" lon="4.91596">
        <ele>137.7</ele>
        <time>2014-05-01T05:55:47Z</time>
      </trkpt>
      <trkpt lat="44.75848" lon="4.91597">
        <ele>137.7</ele>
        <time>2014-05-01T05:55:48Z</time>
      </trkpt>
      <trkpt lat="44.75843" lon="4.91598">
        <ele>137.7</ele>
        <time>2014-05-01T05:55:49Z</time>
      </trkpt>
      <trkpt lat="44.75838" lon="4.91599">
        <ele>137.6</ele>
        <time>2014-05-01T05:55:50Z</time>
      </trkpt>
      <trkpt lat="44.75834" lon="4.916">
        <ele>137.6</ele>
        <time>2014-05-01T05:55:51Z</time>
      </trkpt>
      <trkpt lat="44.75829" lon="4.91601">
        <ele>137.5</ele>
        <time>2014-05-01T05:55:52Z</time>
      </trkpt>
      <trkpt lat="44.75825" lon="4.91602">
        <ele>137.4</ele>
        <time>2014-05-01T05:55:53Z</time>
      </trkpt>
      <trkpt lat="44.7582" lon="4.91603">
        <ele>137.3</ele>
        <time>2014-05-01T05:55:54Z</time>
      </trkpt>
      <trkpt lat="44.75816" lon="4.91604">
        <ele>137.2</ele>
        <time>2014-05-01T05:55:55Z</time>
      </trkpt>
      <trkpt lat="44.75811" lon="4.91605">
        <ele>137.2</ele>
        <time>2014-05-01T05:55:56Z</time>
      </trkpt>
      <trkpt lat="44.75807" lon="4.91606">
        <ele>137.1</ele>
        <time>2014-05-01T05:55:57Z</time>
      </trkpt>
      <trkpt lat="44.75798" lon="4.91608">
        <ele>136.9</ele>
        <time>2014-05-01T05:55:59Z</time>
      </trkpt>
      <trkpt lat="44.75794" lon="4.91609">
        <ele>136.9</ele>
        <time>2014-05-01T05:56:00Z</time>
      </trkpt>
      <trkpt lat="44.75785" lon="4.91612">
        <ele>136.8</ele>
        <time>2014-05-01T05:56:02Z</time>
      </trkpt>
      <trkpt lat="44.75768" lon="4.91617">
        <ele>136.6</ele>
        <time>2014-05-01T05:56:06Z</time>
      </trkpt>
      <trkpt lat="44.7576" lon="4.91619">
        <ele>136.5</ele>
        <time>2014-05-01T05:56:08Z</time>
      </trkpt>
      <trkpt lat="44.75751" lon="4.91622">
        <ele>136.5</ele>
        <time>2014-05-01T05:56:10Z</time>
      </trkpt>
      <trkpt lat="44.75743" lon="4.91624">
        <ele>136.6</ele>
        <time>2014-05-01T05:56:12Z</time>
      </trkpt>
      <trkpt lat="44.75734" lon="4.91626">
        <ele>136.7</ele>
        <time>2014-05-01T05:56:14Z</time>
      </trkpt>
      <trkpt lat="44.75726" lon="4.91628">
        <ele>136.8</ele>
        <time>2014-05-01T05:56:16Z</time>
      </trkpt>
      <trkpt lat="44.75718" lon="4.91631">
        <ele>136.9</ele>
        <time>2014-05-01T05:56:18Z</time>
      </trkpt>
      <trkpt lat="44.75709" lon="4.91633">
        <ele>137</ele>
        <time>2014-05-01T05:56:20Z</time>
      </trkpt>
      <trkpt lat="44.75701" lon="4.91635">
        <ele>137.1</ele>
        <time>2014-05-01T05:56:22Z</time>
      </trkpt>
      <trkpt lat="44.75696" lon="4.91637">
        <ele>137.1</ele>
        <time>2014-05-01T05:56:23Z</time>
      </trkpt>
      <trkpt lat="44.75692" lon="4.91638">
        <ele>137.1</ele>
        <time>2014-05-01T05:56:24Z</time>
      </trkpt>
      <trkpt lat="44.75687" lon="4.91639">
        <ele>137.2</ele>
        <time>2014-05-01T05:56:25Z</time>
      </trkpt>
      <trkpt lat="44.75678" lon="4.91641">
        <ele>137.2</ele>
        <time>2014-05-01T05:56:27Z</time>
      </trkpt>
      <trkpt lat="44.7567" lon="4.91643">
        <ele>137.3</ele>
        <time>2014-05-01T05:56:29Z</time>
      </trkpt>
      <trkpt lat="44.75661" lon="4.91645">
        <ele>137.2</ele>
        <time>2014-05-01T05:56:31Z</time>
      </trkpt>
      <trkpt lat="44.75653" lon="4.91648">
        <ele>137.2</ele>
        <time>2014-05-01T05:56:33Z</time>
      </trkpt>
      <trkpt lat="44.75644" lon="4.9165">
        <ele>137.1</ele>
        <time>2014-05-01T05:56:35Z</time>
      </trkpt>
      <trkpt lat="44.75635" lon="4.91652">
        <ele>137</ele>
        <time>2014-05-01T05:56:37Z</time>
      </trkpt>
      <trkpt lat="44.75627" lon="4.91654">
        <ele>137</ele>
        <time>2014-05-01T05:56:39Z</time>
      </trkpt>
      <trkpt lat="44.75618" lon="4.91657">
        <ele>137</ele>
        <time>2014-05-01T05:56:41Z</time>
      </trkpt>
      <trkpt lat="44.7561" lon="4.91659">
        <ele>137</ele>
        <time>2014-05-01T05:56:43Z</time>
      </trkpt>
      <trkpt lat="44.75601" lon="4.91661">
        <ele>137</ele>
        <time>2014-05-01T05:56:45Z</time>
      </trkpt>
      <trkpt lat="44.75593" lon="4.91663">
        <ele>137</ele>
        <time>2014-05-01T05:56:47Z</time>
      </trkpt>
      <trkpt lat="44.75584" lon="4.91666">
        <ele>137</ele>
        <time>2014-05-01T05:56:49Z</time>
      </trkpt>
      <trkpt lat="44.75575" lon="4.91668">
        <ele>137</ele>
        <time>2014-05-01T05:56:51Z</time>
      </trkpt>
      <trkpt lat="44.75571" lon="4.9167">
        <ele>137</ele>
        <time>2014-05-01T05:56:52Z</time>
      </trkpt>
      <trkpt lat="44.75562" lon="4.91672">
        <ele>137</ele>
        <time>2014-05-01T05:56:54Z</time>
      </trkpt>
      <trkpt lat="44.75558" lon="4.91674">
        <ele>137</ele>
        <time>2014-05-01T05:56:55Z</time>
      </trkpt>
      <trkpt lat="44.75549" lon="4.91676">
        <ele>137</ele>
        <time>2014-05-01T05:56:57Z</time>
      </trkpt>
      <trkpt lat="44.7554" lon="4.91679">
        <ele>137.1</ele>
        <time>2014-05-01T05:56:59Z</time>
      </trkpt>
      <trkpt lat="44.75532" lon="4.91682">
        <ele>137.1</ele>
        <time>2014-05-01T05:57:01Z</time>
      </trkpt>
      <trkpt lat="44.75524" lon="4.91685">
        <ele>137.2</ele>
        <time>2014-05-01T05:57:03Z</time>
      </trkpt>
      <trkpt lat="44.7551" lon="4.91689">
        <ele>137.4</ele>
        <time>2014-05-01T05:57:06Z</time>
      </trkpt>
      <trkpt lat="44.75502" lon="4.91692">
        <ele>137.6</ele>
        <time>2014-05-01T05:57:08Z</time>
      </trkpt>
      <trkpt lat="44.75497" lon="4.91693">
        <ele>137.6</ele>
        <time>2014-05-01T05:57:09Z</time>
      </trkpt>
      <trkpt lat="44.75488" lon="4.91695">
        <ele>137.6</ele>
        <time>2014-05-01T05:57:11Z</time>
      </trkpt>
      <trkpt lat="44.75484" lon="4.91696">
        <ele>137.6</ele>
        <time>2014-05-01T05:57:12Z</time>
      </trkpt>
      <trkpt lat="44.75479" lon="4.91697">
        <ele>137.6</ele>
        <time>2014-05-01T05:57:13Z</time>
      </trkpt>
      <trkpt lat="44.75475" lon="4.91699">
        <ele>137.6</ele>
        <time>2014-05-01T05:57:14Z</time>
      </trkpt>
      <trkpt lat="44.7547" lon="4.917">
        <ele>137.6</ele>
        <time>2014-05-01T05:57:15Z</time>
      </trkpt>
      <trkpt lat="44.75466" lon="4.91701">
        <ele>137.6</ele>
        <time>2014-05-01T05:57:16Z</time>
      </trkpt>
      <trkpt lat="44.75461" lon="4.91703">
        <ele>137.6</ele>
        <time>2014-05-01T05:57:17Z</time>
      </trkpt>
      <trkpt lat="44.75452" lon="4.91705">
        <ele>137.6</ele>
        <time>2014-05-01T05:57:19Z</time>
      </trkpt>
      <trkpt lat="44.75444" lon="4.91706">
        <ele>137.6</ele>
        <time>2014-05-01T05:57:21Z</time>
      </trkpt>
      <trkpt lat="44.75435" lon="4.91706">
        <ele>137.6</ele>
        <time>2014-05-01T05:57:23Z</time>
      </trkpt>
      <trkpt lat="44.75426" lon="4.91706">
        <ele>137.5</ele>
        <time>2014-05-01T05:57:25Z</time>
      </trkpt>
      <trkpt lat="44.75417" lon="4.91704">
        <ele>137.4</ele>
        <time>2014-05-01T05:57:27Z</time>
      </trkpt>
      <trkpt lat="44.75412" lon="4.91703">
        <ele>137.4</ele>
        <time>2014-05-01T05:57:28Z</time>
      </trkpt>
      <trkpt lat="44.75408" lon="4.91702">
        <ele>137.4</ele>
        <time>2014-05-01T05:57:29Z</time>
      </trkpt>
      <trkpt lat="44.75403" lon="4.91701">
        <ele>137.4</ele>
        <time>2014-05-01T05:57:30Z</time>
      </trkpt>
      <trkpt lat="44.75399" lon="4.91701">
        <ele>137.4</ele>
        <time>2014-05-01T05:57:31Z</time>
      </trkpt>
      <trkpt lat="44.75394" lon="4.917">
        <ele>137.4</ele>
        <time>2014-05-01T05:57:32Z</time>
      </trkpt>
      <trkpt lat="44.7539" lon="4.91699">
        <ele>137.4</ele>
        <time>2014-05-01T05:57:33Z</time>
      </trkpt>
      <trkpt lat="44.75385" lon="4.91698">
        <ele>137.4</ele>
        <time>2014-05-01T05:57:34Z</time>
      </trkpt>
      <trkpt lat="44.75381" lon="4.91698">
        <ele>137.4</ele>
        <time>2014-05-01T05:57:35Z</time>
      </trkpt>
      <trkpt lat="44.75376" lon="4.91697">
        <ele>137.4</ele>
        <time>2014-05-01T05:57:36Z</time>
      </trkpt>
      <trkpt lat="44.75367" lon="4.91695">
        <ele>137.3</ele>
        <time>2014-05-01T05:57:38Z</time>
      </trkpt>
      <trkpt lat="44.75363" lon="4.91694">
        <ele>137.3</ele>
        <time>2014-05-01T05:57:39Z</time>
      </trkpt>
      <trkpt lat="44.75358" lon="4.91693">
        <ele>137.3</ele>
        <time>2014-05-01T05:57:40Z</time>
      </trkpt>
      <trkpt lat="44.75353" lon="4.91692">
        <ele>137.3</ele>
        <time>2014-05-01T05:57:41Z</time>
      </trkpt>
      <trkpt lat="44.75349" lon="4.91691">
        <ele>137.3</ele>
        <time>2014-05-01T05:57:42Z</time>
      </trkpt>
      <trkpt lat="44.75344" lon="4.91691">
        <ele>137.3</ele>
        <time>2014-05-01T05:57:43Z</time>
      </trkpt>
      <trkpt lat="44.75339" lon="4.9169">
        <ele>137.3</ele>
        <time>2014-05-01T05:57:44Z</time>
      </trkpt>
      <trkpt lat="44.75335" lon="4.91689">
        <ele>137.3</ele>
        <time>2014-05-01T05:57:45Z</time>
      </trkpt>
      <trkpt lat="44.7533" lon="4.91688">
        <ele>137.2</ele>
        <time>2014-05-01T05:57:46Z</time>
      </trkpt>
      <trkpt lat="44.75325" lon="4.91687">
        <ele>137.2</ele>
        <time>2014-05-01T05:57:47Z</time>
      </trkpt>
      <trkpt lat="44.75321" lon="4.91687">
        <ele>137.2</ele>
        <time>2014-05-01T05:57:48Z</time>
      </trkpt>
      <trkpt lat="44.75312" lon="4.91685">
        <ele>137.2</ele>
        <time>2014-05-01T05:57:50Z</time>
      </trkpt>
      <trkpt lat="44.75303" lon="4.91683">
        <ele>137.2</ele>
        <time>2014-05-01T05:57:52Z</time>
      </trkpt>
      <trkpt lat="44.75295" lon="4.9168">
        <ele>137.2</ele>
        <time>2014-05-01T05:57:54Z</time>
      </trkpt>
      <trkpt lat="44.75287" lon="4.91678">
        <ele>137.1</ele>
        <time>2014-05-01T05:57:56Z</time>
      </trkpt>
      <trkpt lat="44.75278" lon="4.91674">
        <ele>137.1</ele>
        <time>2014-05-01T05:57:58Z</time>
      </trkpt>
      <trkpt lat="44.7527" lon="4.9167">
        <ele>137</ele>
        <time>2014-05-01T05:58:00Z</time>
      </trkpt>
      <trkpt lat="44.75266" lon="4.91669">
        <ele>137</ele>
        <time>2014-05-01T05:58:01Z</time>
      </trkpt>
      <trkpt lat="44.75257" lon="4.91665">
        <ele>137</ele>
        <time>2014-05-01T05:58:03Z</time>
      </trkpt>
      <trkpt lat="44.75249" lon="4.91662">
        <ele>137</ele>
        <time>2014-05-01T05:58:05Z</time>
      </trkpt>
      <trkpt lat="44.75236" lon="4.91658">
        <ele>137</ele>
        <time>2014-05-01T05:58:08Z</time>
      </trkpt>
      <trkpt lat="44.75227" lon="4.91655">
        <ele>137</ele>
        <time>2014-05-01T05:58:10Z</time>
      </trkpt>
      <trkpt lat="44.75219" lon="4.91652">
        <ele>136.9</ele>
        <time>2014-05-01T05:58:12Z</time>
      </trkpt>
      <trkpt lat="44.7521" lon="4.91649">
        <ele>136.9</ele>
        <time>2014-05-01T05:58:14Z</time>
      </trkpt>
      <trkpt lat="44.75202" lon="4.91646">
        <ele>136.9</ele>
        <time>2014-05-01T05:58:16Z</time>
      </trkpt>
      <trkpt lat="44.75193" lon="4.91643">
        <ele>136.8</ele>
        <time>2014-05-01T05:58:18Z</time>
      </trkpt>
      <trkpt lat="44.75184" lon="4.91641">
        <ele>136.8</ele>
        <time>2014-05-01T05:58:20Z</time>
      </trkpt>
      <trkpt lat="44.75176" lon="4.91639">
        <ele>136.7</ele>
        <time>2014-05-01T05:58:22Z</time>
      </trkpt>
      <trkpt lat="44.75167" lon="4.91637">
        <ele>136.6</ele>
        <time>2014-05-01T05:58:24Z</time>
      </trkpt>
      <trkpt lat="44.75162" lon="4.91636">
        <ele>136.6</ele>
        <time>2014-05-01T05:58:25Z</time>
      </trkpt>
      <trkpt lat="44.75158" lon="4.91635">
        <ele>136.6</ele>
        <time>2014-05-01T05:58:26Z</time>
      </trkpt>
      <trkpt lat="44.75153" lon="4.91634">
        <ele>136.6</ele>
        <time>2014-05-01T05:58:27Z</time>
      </trkpt>
      <trkpt lat="44.75149" lon="4.91633">
        <ele>136.6</ele>
        <time>2014-05-01T05:58:28Z</time>
      </trkpt>
      <trkpt lat="44.75144" lon="4.91632">
        <ele>136.6</ele>
        <time>2014-05-01T05:58:29Z</time>
      </trkpt>
      <trkpt lat="44.75139" lon="4.91631">
        <ele>136.6</ele>
        <time>2014-05-01T05:58:30Z</time>
      </trkpt>
      <trkpt lat="44.75135" lon="4.9163">
        <ele>136.6</ele>
        <time>2014-05-01T05:58:31Z</time>
      </trkpt>
      <trkpt lat="44.7513" lon="4.91629">
        <ele>136.5</ele>
        <time>2014-05-01T05:58:32Z</time>
      </trkpt>
      <trkpt lat="44.75126" lon="4.91628">
        <ele>136.5</ele>
        <time>2014-05-01T05:58:33Z</time>
      </trkpt>
      <trkpt lat="44.75121" lon="4.91627">
        <ele>136.5</ele>
        <time>2014-05-01T05:58:34Z</time>
      </trkpt>
      <trkpt lat="44.75113" lon="4.91626">
        <ele>136.5</ele>
        <time>2014-05-01T05:58:36Z</time>
      </trkpt>
      <trkpt lat="44.75104" lon="4.91624">
        <ele>136.5</ele>
        <time>2014-05-01T05:58:38Z</time>
      </trkpt>
      <trkpt lat="44.75096" lon="4.91622">
        <ele>136.5</ele>
        <time>2014-05-01T05:58:40Z</time>
      </trkpt>
      <trkpt lat="44.75087" lon="4.9162">
        <ele>136.4</ele>
        <time>2014-05-01T05:58:42Z</time>
      </trkpt>
      <trkpt lat="44.75083" lon="4.9162">
        <ele>136.4</ele>
        <time>2014-05-01T05:58:43Z</time>
      </trkpt>
      <trkpt lat="44.75074" lon="4.91618">
        <ele>136.5</ele>
        <time>2014-05-01T05:58:45Z</time>
      </trkpt>
      <trkpt lat="44.75066" lon="4.91616">
        <ele>136.6</ele>
        <time>2014-05-01T05:58:47Z</time>
      </trkpt>
      <trkpt lat="44.75058" lon="4.91614">
        <ele>136.7</ele>
        <time>2014-05-01T05:58:49Z</time>
      </trkpt>
      <trkpt lat="44.75054" lon="4.91607">
        <ele>136.6</ele>
        <time>2014-05-01T05:58:51Z</time>
      </trkpt>
      <trkpt lat="44.75055" lon="4.91597">
        <ele>136.5</ele>
        <time>2014-05-01T05:58:53Z</time>
      </trkpt>
      <trkpt lat="44.75056" lon="4.91588">
        <ele>136.4</ele>
        <time>2014-05-01T05:58:55Z</time>
      </trkpt>
      <trkpt lat="44.75058" lon="4.91578">
        <ele>136.2</ele>
        <time>2014-05-01T05:58:57Z</time>
      </trkpt>
      <trkpt lat="44.75059" lon="4.91566">
        <ele>136.1</ele>
        <time>2014-05-01T05:58:59Z</time>
      </trkpt>
      <trkpt lat="44.75061" lon="4.91555">
        <ele>136</ele>
        <time>2014-05-01T05:59:01Z</time>
      </trkpt>
      <trkpt lat="44.75063" lon="4.91543">
        <ele>135.9</ele>
        <time>2014-05-01T05:59:03Z</time>
      </trkpt>
      <trkpt lat="44.75064" lon="4.91532">
        <ele>135.8</ele>
        <time>2014-05-01T05:59:05Z</time>
      </trkpt>
      <trkpt lat="44.75065" lon="4.9152">
        <ele>135.6</ele>
        <time>2014-05-01T05:59:07Z</time>
      </trkpt>
      <trkpt lat="44.75068" lon="4.91497">
        <ele>135.4</ele>
        <time>2014-05-01T05:59:11Z</time>
      </trkpt>
      <trkpt lat="44.75069" lon="4.91485">
        <ele>135.3</ele>
        <time>2014-05-01T05:59:13Z</time>
      </trkpt>
      <trkpt lat="44.7507" lon="4.91473">
        <ele>135.3</ele>
        <time>2014-05-01T05:59:15Z</time>
      </trkpt>
      <trkpt lat="44.75071" lon="4.91462">
        <ele>135.2</ele>
        <time>2014-05-01T05:59:17Z</time>
      </trkpt>
      <trkpt lat="44.75071" lon="4.91455">
        <ele>135.2</ele>
        <time>2014-05-01T05:59:18Z</time>
      </trkpt>
      <trkpt lat="44.75072" lon="4.91443">
        <ele>135.2</ele>
        <time>2014-05-01T05:59:20Z</time>
      </trkpt>
      <trkpt lat="44.75072" lon="4.91436">
        <ele>135.2</ele>
        <time>2014-05-01T05:59:21Z</time>
      </trkpt>
      <trkpt lat="44.75072" lon="4.91429">
        <ele>135.2</ele>
        <time>2014-05-01T05:59:22Z</time>
      </trkpt>
      <trkpt lat="44.75073" lon="4.91423">
        <ele>135.1</ele>
        <time>2014-05-01T05:59:23Z</time>
      </trkpt>
      <trkpt lat="44.75074" lon="4.91411">
        <ele>135.2</ele>
        <time>2014-05-01T05:59:25Z</time>
      </trkpt>
      <trkpt lat="44.75076" lon="4.91399">
        <ele>135.3</ele>
        <time>2014-05-01T05:59:27Z</time>
      </trkpt>
      <trkpt lat="44.75076" lon="4.91392">
        <ele>135.3</ele>
        <time>2014-05-01T05:59:28Z</time>
      </trkpt>
      <trkpt lat="44.75077" lon="4.9138">
        <ele>135.5</ele>
        <time>2014-05-01T05:59:30Z</time>
      </trkpt>
      <trkpt lat="44.75079" lon="4.91368">
        <ele>135.6</ele>
        <time>2014-05-01T05:59:32Z</time>
      </trkpt>
      <trkpt lat="44.7508" lon="4.91355">
        <ele>135.7</ele>
        <time>2014-05-01T05:59:34Z</time>
      </trkpt>
      <trkpt lat="44.75081" lon="4.91343">
        <ele>135.9</ele>
        <time>2014-05-01T05:59:36Z</time>
      </trkpt>
      <trkpt lat="44.75082" lon="4.91336">
        <ele>136</ele>
        <time>2014-05-01T05:59:37Z</time>
      </trkpt>
      <trkpt lat="44.75083" lon="4.91324">
        <ele>136</ele>
        <time>2014-05-01T05:59:39Z</time>
      </trkpt>
      <trkpt lat="44.75084" lon="4.91311">
        <ele>136</ele>
        <time>2014-05-01T05:59:41Z</time>
      </trkpt>
      <trkpt lat="44.75085" lon="4.91304">
        <ele>136</ele>
        <time>2014-05-01T05:59:42Z</time>
      </trkpt>
      <trkpt lat="44.75085" lon="4.91297">
        <ele>136</ele>
        <time>2014-05-01T05:59:43Z</time>
      </trkpt>
      <trkpt lat="44.75086" lon="4.91291">
        <ele>136</ele>
        <time>2014-05-01T05:59:44Z</time>
      </trkpt>
      <trkpt lat="44.75087" lon="4.91284">
        <ele>136</ele>
        <time>2014-05-01T05:59:45Z</time>
      </trkpt>
      <trkpt lat="44.75087" lon="4.91278">
        <ele>136</ele>
        <time>2014-05-01T05:59:46Z</time>
      </trkpt>
      <trkpt lat="44.75087" lon="4.91271">
        <ele>136</ele>
        <time>2014-05-01T05:59:47Z</time>
      </trkpt>
      <trkpt lat="44.75087" lon="4.91265">
        <ele>136</ele>
        <time>2014-05-01T05:59:48Z</time>
      </trkpt>
      <trkpt lat="44.75086" lon="4.91258">
        <ele>136</ele>
        <time>2014-05-01T05:59:49Z</time>
      </trkpt>
      <trkpt lat="44.75085" lon="4.91252">
        <ele>136</ele>
        <time>2014-05-01T05:59:50Z</time>
      </trkpt>
      <trkpt lat="44.75084" lon="4.91246">
        <ele>136</ele>
        <time>2014-05-01T05:59:51Z</time>
      </trkpt>
      <trkpt lat="44.75082" lon="4.9124">
        <ele>136</ele>
        <time>2014-05-01T05:59:52Z</time>
      </trkpt>
      <trkpt lat="44.7508" lon="4.91234">
        <ele>136</ele>
        <time>2014-05-01T05:59:53Z</time>
      </trkpt>
      <trkpt lat="44.75078" lon="4.91229">
        <ele>136</ele>
        <time>2014-05-01T05:59:54Z</time>
      </trkpt>
      <trkpt lat="44.75075" lon="4.91217">
        <ele>136.1</ele>
        <time>2014-05-01T05:59:56Z</time>
      </trkpt>
      <trkpt lat="44.75071" lon="4.91206">
        <ele>136.1</ele>
        <time>2014-05-01T05:59:58Z</time>
      </trkpt>
      <trkpt lat="44.75067" lon="4.91195">
        <ele>136.1</ele>
        <time>2014-05-01T06:00:00Z</time>
      </trkpt>
      <trkpt lat="44.75064" lon="4.91185">
        <ele>136</ele>
        <time>2014-05-01T06:00:02Z</time>
      </trkpt>
      <trkpt lat="44.7506" lon="4.91174">
        <ele>136</ele>
        <time>2014-05-01T06:00:04Z</time>
      </trkpt>
      <trkpt lat="44.75055" lon="4.91164">
        <ele>136</ele>
        <time>2014-05-01T06:00:06Z</time>
      </trkpt>
      <trkpt lat="44.75048" lon="4.91157">
        <ele>136</ele>
        <time>2014-05-01T06:00:08Z</time>
      </trkpt>
      <trkpt lat="44.75039" lon="4.91151">
        <ele>136</ele>
        <time>2014-05-01T06:00:10Z</time>
      </trkpt>
      <trkpt lat="44.75035" lon="4.91147">
        <ele>136</ele>
        <time>2014-05-01T06:00:11Z</time>
      </trkpt>
      <trkpt lat="44.75029" lon="4.91147">
        <ele>136</ele>
        <time>2014-05-01T06:00:13Z</time>
      </trkpt>
      <trkpt lat="44.75027" lon="4.91155">
        <ele>136</ele>
        <time>2014-05-01T06:00:16Z</time>
      </trkpt>
      <trkpt lat="44.75025" lon="4.91161">
        <ele>136</ele>
        <time>2014-05-01T06:00:22Z</time>
      </trkpt>
      <trkpt lat="44.75023" lon="4.91167">
        <ele>136</ele>
        <time>2014-05-01T06:00:26Z</time>
      </trkpt>
      <trkpt lat="44.75022" lon="4.91176">
        <ele>136.1</ele>
        <time>2014-05-01T06:00:29Z</time>
      </trkpt>
      <trkpt lat="44.7502" lon="4.91183">
        <ele>136.1</ele>
        <time>2014-05-01T06:00:31Z</time>
      </trkpt>
      <trkpt lat="44.75019" lon="4.91191">
        <ele>136.2</ele>
        <time>2014-05-01T06:00:33Z</time>
      </trkpt>
      <trkpt lat="44.75016" lon="4.91199">
        <ele>136.3</ele>
        <time>2014-05-01T06:00:35Z</time>
      </trkpt>
      <trkpt lat="44.75014" lon="4.91207">
        <ele>136.4</ele>
        <time>2014-05-01T06:00:37Z</time>
      </trkpt>
      <trkpt lat="44.75012" lon="4.91215">
        <ele>136.5</ele>
        <time>2014-05-01T06:00:39Z</time>
      </trkpt>
      <trkpt lat="44.7501" lon="4.91223">
        <ele>136.6</ele>
        <time>2014-05-01T06:00:41Z</time>
      </trkpt>
      <trkpt lat="44.75006" lon="4.91231">
        <ele>136.7</ele>
        <time>2014-05-01T06:00:43Z</time>
      </trkpt>
      <trkpt lat="44.75003" lon="4.91239">
        <ele>136.8</ele>
        <time>2014-05-01T06:00:45Z</time>
      </trkpt>
      <trkpt lat="44.75001" lon="4.91248">
        <ele>137</ele>
        <time>2014-05-01T06:00:47Z</time>
      </trkpt>
      <trkpt lat="44.74998" lon="4.91258">
        <ele>136.8</ele>
        <time>2014-05-01T06:00:49Z</time>
      </trkpt>
      <trkpt lat="44.74997" lon="4.91269">
        <ele>136.6</ele>
        <time>2014-05-01T06:00:51Z</time>
      </trkpt>
      <trkpt lat="44.74995" lon="4.91278">
        <ele>136.4</ele>
        <time>2014-05-01T06:00:53Z</time>
      </trkpt>
      <trkpt lat="44.74993" lon="4.91288">
        <ele>136.2</ele>
        <time>2014-05-01T06:00:55Z</time>
      </trkpt>
      <trkpt lat="44.74988" lon="4.91299">
        <ele>136</ele>
        <time>2014-05-01T06:00:57Z</time>
      </trkpt>
      <trkpt lat="44.74985" lon="4.91309">
        <ele>135.8</ele>
        <time>2014-05-01T06:00:59Z</time>
      </trkpt>
      <trkpt lat="44.74983" lon="4.9132">
        <ele>135.7</ele>
        <time>2014-05-01T06:01:01Z</time>
      </trkpt>
      <trkpt lat="44.7498" lon="4.9133">
        <ele>135.5</ele>
        <time>2014-05-01T06:01:03Z</time>
      </trkpt>
      <trkpt lat="44.74977" lon="4.91341">
        <ele>135.6</ele>
        <time>2014-05-01T06:01:05Z</time>
      </trkpt>
      <trkpt lat="44.74974" lon="4.91351">
        <ele>135.9</ele>
        <time>2014-05-01T06:01:07Z</time>
      </trkpt>
      <trkpt lat="44.74971" lon="4.91362">
        <ele>136.2</ele>
        <time>2014-05-01T06:01:09Z</time>
      </trkpt>
      <trkpt lat="44.74967" lon="4.91379">
        <ele>136.6</ele>
        <time>2014-05-01T06:01:13Z</time>
      </trkpt>
      <trkpt lat="44.74965" lon="4.91386">
        <ele>136.7</ele>
        <time>2014-05-01T06:01:15Z</time>
      </trkpt>
      <trkpt lat="44.74963" lon="4.91395">
        <ele>136.9</ele>
        <time>2014-05-01T06:01:17Z</time>
      </trkpt>
      <trkpt lat="44.74961" lon="4.91405">
        <ele>137.2</ele>
        <time>2014-05-01T06:01:19Z</time>
      </trkpt>
      <trkpt lat="44.74958" lon="4.91416">
        <ele>137.5</ele>
        <time>2014-05-01T06:01:21Z</time>
      </trkpt>
      <trkpt lat="44.74955" lon="4.91427">
        <ele>137.7</ele>
        <time>2014-05-01T06:01:23Z</time>
      </trkpt>
      <trkpt lat="44.74952" lon="4.91439">
        <ele>138</ele>
        <time>2014-05-01T06:01:25Z</time>
      </trkpt>
      <trkpt lat="44.7495" lon="4.91445">
        <ele>138.1</ele>
        <time>2014-05-01T06:01:26Z</time>
      </trkpt>
      <trkpt lat="44.74948" lon="4.91451">
        <ele>138.3</ele>
        <time>2014-05-01T06:01:27Z</time>
      </trkpt>
      <trkpt lat="44.74945" lon="4.91463">
        <ele>138.5</ele>
        <time>2014-05-01T06:01:29Z</time>
      </trkpt>
      <trkpt lat="44.74942" lon="4.91474">
        <ele>138.8</ele>
        <time>2014-05-01T06:01:31Z</time>
      </trkpt>
      <trkpt lat="44.74941" lon="4.9148">
        <ele>138.9</ele>
        <time>2014-05-01T06:01:32Z</time>
      </trkpt>
      <trkpt lat="44.74937" lon="4.91492">
        <ele>139.1</ele>
        <time>2014-05-01T06:01:34Z</time>
      </trkpt>
      <trkpt lat="44.74935" lon="4.91504">
        <ele>139.4</ele>
        <time>2014-05-01T06:01:36Z</time>
      </trkpt>
      <trkpt lat="44.74932" lon="4.91516">
        <ele>139.5</ele>
        <time>2014-05-01T06:01:38Z</time>
      </trkpt>
      <trkpt lat="44.7493" lon="4.91522">
        <ele>139.5</ele>
        <time>2014-05-01T06:01:39Z</time>
      </trkpt>
      <trkpt lat="44.74929" lon="4.91529">
        <ele>139.6</ele>
        <time>2014-05-01T06:01:40Z</time>
      </trkpt>
      <trkpt lat="44.74927" lon="4.91535">
        <ele>139.6</ele>
        <time>2014-05-01T06:01:41Z</time>
      </trkpt>
      <trkpt lat="44.74925" lon="4.91541">
        <ele>139.7</ele>
        <time>2014-05-01T06:01:42Z</time>
      </trkpt>
      <trkpt lat="44.74922" lon="4.91552">
        <ele>139.8</ele>
        <time>2014-05-01T06:01:44Z</time>
      </trkpt>
      <trkpt lat="44.7492" lon="4.91559">
        <ele>139.9</ele>
        <time>2014-05-01T06:01:45Z</time>
      </trkpt>
      <trkpt lat="44.74918" lon="4.91565">
        <ele>139.9</ele>
        <time>2014-05-01T06:01:46Z</time>
      </trkpt>
      <trkpt lat="44.74917" lon="4.91571">
        <ele>140</ele>
        <time>2014-05-01T06:01:47Z</time>
      </trkpt>
      <trkpt lat="44.74915" lon="4.91578">
        <ele>140</ele>
        <time>2014-05-01T06:01:48Z</time>
      </trkpt>
      <trkpt lat="44.74914" lon="4.91584">
        <ele>140.1</ele>
        <time>2014-05-01T06:01:49Z</time>
      </trkpt>
      <trkpt lat="44.74912" lon="4.91591">
        <ele>140.2</ele>
        <time>2014-05-01T06:01:50Z</time>
      </trkpt>
      <trkpt lat="44.7491" lon="4.91598">
        <ele>140.3</ele>
        <time>2014-05-01T06:01:51Z</time>
      </trkpt>
      <trkpt lat="44.74909" lon="4.91604">
        <ele>140.4</ele>
        <time>2014-05-01T06:01:52Z</time>
      </trkpt>
      <trkpt lat="44.74907" lon="4.9161">
        <ele>140.5</ele>
        <time>2014-05-01T06:01:53Z</time>
      </trkpt>
      <trkpt lat="44.74905" lon="4.91617">
        <ele>140.6</ele>
        <time>2014-05-01T06:01:54Z</time>
      </trkpt>
      <trkpt lat="44.74904" lon="4.91623">
        <ele>140.7</ele>
        <time>2014-05-01T06:01:55Z</time>
      </trkpt>
      <trkpt lat="44.74902" lon="4.9163">
        <ele>140.8</ele>
        <time>2014-05-01T06:01:56Z</time>
      </trkpt>
      <trkpt lat="44.749" lon="4.91636">
        <ele>140.9</ele>
        <time>2014-05-01T06:01:57Z</time>
      </trkpt>
      <trkpt lat="44.74896" lon="4.91648">
        <ele>141.1</ele>
        <time>2014-05-01T06:01:59Z</time>
      </trkpt>
      <trkpt lat="44.74894" lon="4.91655">
        <ele>141.2</ele>
        <time>2014-05-01T06:02:00Z</time>
      </trkpt>
      <trkpt lat="44.74893" lon="4.91661">
        <ele>141.2</ele>
        <time>2014-05-01T06:02:01Z</time>
      </trkpt>
      <trkpt lat="44.74891" lon="4.91668">
        <ele>141.3</ele>
        <time>2014-05-01T06:02:02Z</time>
      </trkpt>
      <trkpt lat="44.74889" lon="4.91675">
        <ele>141.3</ele>
        <time>2014-05-01T06:02:03Z</time>
      </trkpt>
      <trkpt lat="44.74888" lon="4.91681">
        <ele>141.2</ele>
        <time>2014-05-01T06:02:04Z</time>
      </trkpt>
      <trkpt lat="44.74885" lon="4.91693">
        <ele>141.1</ele>
        <time>2014-05-01T06:02:06Z</time>
      </trkpt>
      <trkpt lat="44.74882" lon="4.91705">
        <ele>141</ele>
        <time>2014-05-01T06:02:08Z</time>
      </trkpt>
      <trkpt lat="44.74881" lon="4.91711">
        <ele>141</ele>
        <time>2014-05-01T06:02:09Z</time>
      </trkpt>
      <trkpt lat="44.74879" lon="4.91717">
        <ele>140.9</ele>
        <time>2014-05-01T06:02:10Z</time>
      </trkpt>
      <trkpt lat="44.74876" lon="4.9173">
        <ele>140.8</ele>
        <time>2014-05-01T06:02:12Z</time>
      </trkpt>
      <trkpt lat="44.74875" lon="4.91736">
        <ele>140.7</ele>
        <time>2014-05-01T06:02:13Z</time>
      </trkpt>
      <trkpt lat="44.74874" lon="4.91742">
        <ele>140.6</ele>
        <time>2014-05-01T06:02:14Z</time>
      </trkpt>
      <trkpt lat="44.74872" lon="4.91749">
        <ele>140.5</ele>
        <time>2014-05-01T06:02:15Z</time>
      </trkpt>
      <trkpt lat="44.74871" lon="4.91756">
        <ele>140.4</ele>
        <time>2014-05-01T06:02:16Z</time>
      </trkpt>
      <trkpt lat="44.74869" lon="4.91763">
        <ele>140.4</ele>
        <time>2014-05-01T06:02:17Z</time>
      </trkpt>
      <trkpt lat="44.74867" lon="4.9177">
        <ele>140.4</ele>
        <time>2014-05-01T06:02:18Z</time>
      </trkpt>
      <trkpt lat="44.74865" lon="4.91777">
        <ele>140.3</ele>
        <time>2014-05-01T06:02:19Z</time>
      </trkpt>
      <trkpt lat="44.74864" lon="4.91784">
        <ele>140.3</ele>
        <time>2014-05-01T06:02:20Z</time>
      </trkpt>
      <trkpt lat="44.74862" lon="4.91791">
        <ele>140.3</ele>
        <time>2014-05-01T06:02:21Z</time>
      </trkpt>
      <trkpt lat="44.7486" lon="4.91797">
        <ele>140.3</ele>
        <time>2014-05-01T06:02:22Z</time>
      </trkpt>
      <trkpt lat="44.74859" lon="4.91804">
        <ele>140.4</ele>
        <time>2014-05-01T06:02:23Z</time>
      </trkpt>
      <trkpt lat="44.74857" lon="4.9181">
        <ele>140.4</ele>
        <time>2014-05-01T06:02:24Z</time>
      </trkpt>
      <trkpt lat="44.74855" lon="4.91817">
        <ele>140.4</ele>
        <time>2014-05-01T06:02:25Z</time>
      </trkpt>
      <trkpt lat="44.74854" lon="4.91824">
        <ele>140.5</ele>
        <time>2014-05-01T06:02:26Z</time>
      </trkpt>
      <trkpt lat="44.74852" lon="4.91831">
        <ele>140.5</ele>
        <time>2014-05-01T06:02:27Z</time>
      </trkpt>
      <trkpt lat="44.7485" lon="4.91837">
        <ele>140.6</ele>
        <time>2014-05-01T06:02:28Z</time>
      </trkpt>
      <trkpt lat="44.74848" lon="4.91843">
        <ele>140.5</ele>
        <time>2014-05-01T06:02:29Z</time>
      </trkpt>
      <trkpt lat="44.74847" lon="4.91849">
        <ele>140.5</ele>
        <time>2014-05-01T06:02:30Z</time>
      </trkpt>
      <trkpt lat="44.74847" lon="4.91856">
        <ele>140.4</ele>
        <time>2014-05-01T06:02:31Z</time>
      </trkpt>
      <trkpt lat="44.74848" lon="4.91864">
        <ele>140.2</ele>
        <time>2014-05-01T06:02:32Z</time>
      </trkpt>
      <trkpt lat="44.74848" lon="4.91873">
        <ele>140.1</ele>
        <time>2014-05-01T06:02:33Z</time>
      </trkpt>
      <trkpt lat="44.74847" lon="4.91882">
        <ele>140</ele>
        <time>2014-05-01T06:02:34Z</time>
      </trkpt>
      <trkpt lat="44.74845" lon="4.91891">
        <ele>139.9</ele>
        <time>2014-05-01T06:02:35Z</time>
      </trkpt>
      <trkpt lat="44.74842" lon="4.91899">
        <ele>139.9</ele>
        <time>2014-05-01T06:02:36Z</time>
      </trkpt>
      <trkpt lat="44.74839" lon="4.91908">
        <ele>139.9</ele>
        <time>2014-05-01T06:02:37Z</time>
      </trkpt>
      <trkpt lat="44.74837" lon="4.91917">
        <ele>139.9</ele>
        <time>2014-05-01T06:02:38Z</time>
      </trkpt>
      <trkpt lat="44.74834" lon="4.91924">
        <ele>140.1</ele>
        <time>2014-05-01T06:02:39Z</time>
      </trkpt>
      <trkpt lat="44.74832" lon="4.91931">
        <ele>140.2</ele>
        <time>2014-05-01T06:02:40Z</time>
      </trkpt>
      <trkpt lat="44.74828" lon="4.91941">
        <ele>140.3</ele>
        <time>2014-05-01T06:02:42Z</time>
      </trkpt>
      <trkpt lat="44.74825" lon="4.91947">
        <ele>140.4</ele>
        <time>2014-05-01T06:02:44Z</time>
      </trkpt>
      <trkpt lat="44.74819" lon="4.91945">
        <ele>140.4</ele>
        <time>2014-05-01T06:02:47Z</time>
      </trkpt>
      <trkpt lat="44.74815" lon="4.91944">
        <ele>140.5</ele>
        <time>2014-05-01T06:02:49Z</time>
      </trkpt>
      <trkpt lat="44.7481" lon="4.91941">
        <ele>140.5</ele>
        <time>2014-05-01T06:02:51Z</time>
      </trkpt>
      <trkpt lat="44.74805" lon="4.91939">
        <ele>140.5</ele>
        <time>2014-05-01T06:02:53Z</time>
      </trkpt>
      <trkpt lat="44.748" lon="4.91937">
        <ele>140.5</ele>
        <time>2014-05-01T06:02:55Z</time>
      </trkpt>
      <trkpt lat="44.74795" lon="4.91935">
        <ele>140.6</ele>
        <time>2014-05-01T06:02:57Z</time>
      </trkpt>
      <trkpt lat="44.74789" lon="4.91932">
        <ele>140.6</ele>
        <time>2014-05-01T06:02:59Z</time>
      </trkpt>
      <trkpt lat="44.74783" lon="4.91929">
        <ele>140.7</ele>
        <time>2014-05-01T06:03:01Z</time>
      </trkpt>
      <trkpt lat="44.74777" lon="4.91926">
        <ele>140.7</ele>
        <time>2014-05-01T06:03:03Z</time>
      </trkpt>
      <trkpt lat="44.7477" lon="4.91922">
        <ele>140.8</ele>
        <time>2014-05-01T06:03:05Z</time>
      </trkpt>
      <trkpt lat="44.74763" lon="4.91919">
        <ele>140.8</ele>
        <time>2014-05-01T06:03:07Z</time>
      </trkpt>
      <trkpt lat="44.74756" lon="4.91916">
        <ele>140.9</ele>
        <time>2014-05-01T06:03:09Z</time>
      </trkpt>
      <trkpt lat="44.74748" lon="4.91914">
        <ele>140.9</ele>
        <time>2014-05-01T06:03:11Z</time>
      </trkpt>
      <trkpt lat="44.74732" lon="4.91907">
        <ele>140.5</ele>
        <time>2014-05-01T06:03:15Z</time>
      </trkpt>
      <trkpt lat="44.74723" lon="4.91903">
        <ele>140.3</ele>
        <time>2014-05-01T06:03:17Z</time>
      </trkpt>
      <trkpt lat="44.74716" lon="4.91909">
        <ele>140.2</ele>
        <time>2014-05-01T06:03:19Z</time>
      </trkpt>
      <trkpt lat="44.74714" lon="4.9192">
        <ele>140.1</ele>
        <time>2014-05-01T06:03:21Z</time>
      </trkpt>
      <trkpt lat="44.74713" lon="4.91926">
        <ele>140.2</ele>
        <time>2014-05-01T06:03:22Z</time>
      </trkpt>
      <trkpt lat="44.74712" lon="4.91933">
        <ele>140.2</ele>
        <time>2014-05-01T06:03:23Z</time>
      </trkpt>
      <trkpt lat="44.7471" lon="4.9194">
        <ele>140.2</ele>
        <time>2014-05-01T06:03:24Z</time>
      </trkpt>
      <trkpt lat="44.74709" lon="4.91946">
        <ele>140.2</ele>
        <time>2014-05-01T06:03:25Z</time>
      </trkpt>
      <trkpt lat="44.74707" lon="4.91953">
        <ele>140.2</ele>
        <time>2014-05-01T06:03:26Z</time>
      </trkpt>
      <trkpt lat="44.74705" lon="4.9196">
        <ele>140.2</ele>
        <time>2014-05-01T06:03:27Z</time>
      </trkpt>
      <trkpt lat="44.74703" lon="4.91966">
        <ele>140.2</ele>
        <time>2014-05-01T06:03:28Z</time>
      </trkpt>
      <trkpt lat="44.74702" lon="4.91972">
        <ele>140.2</ele>
        <time>2014-05-01T06:03:29Z</time>
      </trkpt>
      <trkpt lat="44.74699" lon="4.91984">
        <ele>140.3</ele>
        <time>2014-05-01T06:03:31Z</time>
      </trkpt>
      <trkpt lat="44.74695" lon="4.91995">
        <ele>140.3</ele>
        <time>2014-05-01T06:03:33Z</time>
      </trkpt>
      <trkpt lat="44.74694" lon="4.92001">
        <ele>140.3</ele>
        <time>2014-05-01T06:03:34Z</time>
      </trkpt>
      <trkpt lat="44.74691" lon="4.92013">
        <ele>140.5</ele>
        <time>2014-05-01T06:03:36Z</time>
      </trkpt>
      <trkpt lat="44.74688" lon="4.92024">
        <ele>140.6</ele>
        <time>2014-05-01T06:03:38Z</time>
      </trkpt>
      <trkpt lat="44.74685" lon="4.92036">
        <ele>140.7</ele>
        <time>2014-05-01T06:03:40Z</time>
      </trkpt>
      <trkpt lat="44.74682" lon="4.92048">
        <ele>140.8</ele>
        <time>2014-05-01T06:03:42Z</time>
      </trkpt>
      <trkpt lat="44.74679" lon="4.9206">
        <ele>141</ele>
        <time>2014-05-01T06:03:44Z</time>
      </trkpt>
      <trkpt lat="44.74677" lon="4.92071">
        <ele>141.1</ele>
        <time>2014-05-01T06:03:46Z</time>
      </trkpt>
      <trkpt lat="44.74674" lon="4.92082">
        <ele>141.2</ele>
        <time>2014-05-01T06:03:48Z</time>
      </trkpt>
      <trkpt lat="44.74671" lon="4.92094">
        <ele>141.2</ele>
        <time>2014-05-01T06:03:50Z</time>
      </trkpt>
      <trkpt lat="44.74669" lon="4.92105">
        <ele>141.3</ele>
        <time>2014-05-01T06:03:52Z</time>
      </trkpt>
      <trkpt lat="44.74667" lon="4.92116">
        <ele>141.4</ele>
        <time>2014-05-01T06:03:54Z</time>
      </trkpt>
      <trkpt lat="44.74664" lon="4.92127">
        <ele>141.5</ele>
        <time>2014-05-01T06:03:56Z</time>
      </trkpt>
      <trkpt lat="44.74662" lon="4.92137">
        <ele>141.6</ele>
        <time>2014-05-01T06:03:58Z</time>
      </trkpt>
      <trkpt lat="44.74659" lon="4.92148">
        <ele>141.7</ele>
        <time>2014-05-01T06:04:00Z</time>
      </trkpt>
      <trkpt lat="44.74657" lon="4.92159">
        <ele>141.8</ele>
        <time>2014-05-01T06:04:02Z</time>
      </trkpt>
      <trkpt lat="44.74654" lon="4.9217">
        <ele>141.8</ele>
        <time>2014-05-01T06:04:04Z</time>
      </trkpt>
      <trkpt lat="44.74651" lon="4.92181">
        <ele>141.8</ele>
        <time>2014-05-01T06:04:06Z</time>
      </trkpt>
      <trkpt lat="44.74648" lon="4.92191">
        <ele>141.8</ele>
        <time>2014-05-01T06:04:08Z</time>
      </trkpt>
      <trkpt lat="44.74645" lon="4.92202">
        <ele>141.7</ele>
        <time>2014-05-01T06:04:10Z</time>
      </trkpt>
      <trkpt lat="44.74642" lon="4.92214">
        <ele>141.7</ele>
        <time>2014-05-01T06:04:12Z</time>
      </trkpt>
      <trkpt lat="44.74637" lon="4.92237">
        <ele>141.6</ele>
        <time>2014-05-01T06:04:16Z</time>
      </trkpt>
      <trkpt lat="44.74634" lon="4.92248">
        <ele>141.6</ele>
        <time>2014-05-01T06:04:18Z</time>
      </trkpt>
      <trkpt lat="44.74631" lon="4.9226">
        <ele>141.8</ele>
        <time>2014-05-01T06:04:20Z</time>
      </trkpt>
      <trkpt lat="44.7463" lon="4.92266">
        <ele>141.9</ele>
        <time>2014-05-01T06:04:21Z</time>
      </trkpt>
      <trkpt lat="44.74627" lon="4.92278">
        <ele>142</ele>
        <time>2014-05-01T06:04:23Z</time>
      </trkpt>
      <trkpt lat="44.74625" lon="4.92284">
        <ele>142.1</ele>
        <time>2014-05-01T06:04:24Z</time>
      </trkpt>
      <trkpt lat="44.74623" lon="4.92296">
        <ele>142.3</ele>
        <time>2014-05-01T06:04:26Z</time>
      </trkpt>
      <trkpt lat="44.74622" lon="4.92302">
        <ele>142.3</ele>
        <time>2014-05-01T06:04:27Z</time>
      </trkpt>
      <trkpt lat="44.7462" lon="4.92308">
        <ele>142.4</ele>
        <time>2014-05-01T06:04:28Z</time>
      </trkpt>
      <trkpt lat="44.74617" lon="4.9232">
        <ele>142.4</ele>
        <time>2014-05-01T06:04:30Z</time>
      </trkpt>
      <trkpt lat="44.74615" lon="4.92326">
        <ele>142.4</ele>
        <time>2014-05-01T06:04:31Z</time>
      </trkpt>
      <trkpt lat="44.74613" lon="4.92332">
        <ele>142.4</ele>
        <time>2014-05-01T06:04:32Z</time>
      </trkpt>
      <trkpt lat="44.74611" lon="4.92338">
        <ele>142.4</ele>
        <time>2014-05-01T06:04:33Z</time>
      </trkpt>
      <trkpt lat="44.7461" lon="4.92344">
        <ele>142.3</ele>
        <time>2014-05-01T06:04:34Z</time>
      </trkpt>
      <trkpt lat="44.74607" lon="4.92355">
        <ele>142.2</ele>
        <time>2014-05-01T06:04:36Z</time>
      </trkpt>
      <trkpt lat="44.74605" lon="4.92361">
        <ele>142.2</ele>
        <time>2014-05-01T06:04:37Z</time>
      </trkpt>
      <trkpt lat="44.74604" lon="4.92367">
        <ele>142.2</ele>
        <time>2014-05-01T06:04:38Z</time>
      </trkpt>
      <trkpt lat="44.74601" lon="4.92379">
        <ele>142.2</ele>
        <time>2014-05-01T06:04:40Z</time>
      </trkpt>
      <trkpt lat="44.74598" lon="4.92391">
        <ele>142.1</ele>
        <time>2014-05-01T06:04:42Z</time>
      </trkpt>
      <trkpt lat="44.74595" lon="4.92403">
        <ele>142.1</ele>
        <time>2014-05-01T06:04:44Z</time>
      </trkpt>
      <trkpt lat="44.74593" lon="4.92409">
        <ele>142.2</ele>
        <time>2014-05-01T06:04:45Z</time>
      </trkpt>
      <trkpt lat="44.74592" lon="4.92415">
        <ele>142.2</ele>
        <time>2014-05-01T06:04:46Z</time>
      </trkpt>
      <trkpt lat="44.7459" lon="4.92421">
        <ele>142.1</ele>
        <time>2014-05-01T06:04:47Z</time>
      </trkpt>
      <trkpt lat="44.74587" lon="4.92433">
        <ele>141.7</ele>
        <time>2014-05-01T06:04:49Z</time>
      </trkpt>
      <trkpt lat="44.74586" lon="4.9244">
        <ele>141.5</ele>
        <time>2014-05-01T06:04:50Z</time>
      </trkpt>
      <trkpt lat="44.74584" lon="4.92446">
        <ele>141.3</ele>
        <time>2014-05-01T06:04:51Z</time>
      </trkpt>
      <trkpt lat="44.74583" lon="4.92452">
        <ele>141.2</ele>
        <time>2014-05-01T06:04:52Z</time>
      </trkpt>
      <trkpt lat="44.74581" lon="4.92458">
        <ele>141</ele>
        <time>2014-05-01T06:04:53Z</time>
      </trkpt>
      <trkpt lat="44.74578" lon="4.9247">
        <ele>140.8</ele>
        <time>2014-05-01T06:04:55Z</time>
      </trkpt>
      <trkpt lat="44.74576" lon="4.92476">
        <ele>140.7</ele>
        <time>2014-05-01T06:04:56Z</time>
      </trkpt>
      <trkpt lat="44.74574" lon="4.92482">
        <ele>140.6</ele>
        <time>2014-05-01T06:04:57Z</time>
      </trkpt>
      <trkpt lat="44.74572" lon="4.92494">
        <ele>140.4</ele>
        <time>2014-05-01T06:04:59Z</time>
      </trkpt>
      <trkpt lat="44.7457" lon="4.925">
        <ele>140.3</ele>
        <time>2014-05-01T06:05:00Z</time>
      </trkpt>
      <trkpt lat="44.74567" lon="4.92511">
        <ele>140.4</ele>
        <time>2014-05-01T06:05:02Z</time>
      </trkpt>
      <trkpt lat="44.74564" lon="4.92523">
        <ele>140.5</ele>
        <time>2014-05-01T06:05:04Z</time>
      </trkpt>
      <trkpt lat="44.74562" lon="4.92529">
        <ele>140.6</ele>
        <time>2014-05-01T06:05:05Z</time>
      </trkpt>
      <trkpt lat="44.74561" lon="4.92535">
        <ele>140.6</ele>
        <time>2014-05-01T06:05:06Z</time>
      </trkpt>
      <trkpt lat="44.74558" lon="4.92546">
        <ele>140.7</ele>
        <time>2014-05-01T06:05:08Z</time>
      </trkpt>
      <trkpt lat="44.74556" lon="4.92558">
        <ele>140.7</ele>
        <time>2014-05-01T06:05:10Z</time>
      </trkpt>
      <trkpt lat="44.74552" lon="4.92569">
        <ele>140.6</ele>
        <time>2014-05-01T06:05:12Z</time>
      </trkpt>
      <trkpt lat="44.7455" lon="4.92581">
        <ele>140.6</ele>
        <time>2014-05-01T06:05:14Z</time>
      </trkpt>
      <trkpt lat="44.74545" lon="4.92602">
        <ele>141</ele>
        <time>2014-05-01T06:05:18Z</time>
      </trkpt>
      <trkpt lat="44.7454" lon="4.92609">
        <ele>141.1</ele>
        <time>2014-05-01T06:05:20Z</time>
      </trkpt>
      <trkpt lat="44.74534" lon="4.92609">
        <ele>141</ele>
        <time>2014-05-01T06:05:22Z</time>
      </trkpt>
      <trkpt lat="44.74527" lon="4.92607">
        <ele>140.9</ele>
        <time>2014-05-01T06:05:24Z</time>
      </trkpt>
      <trkpt lat="44.74519" lon="4.92603">
        <ele>140.7</ele>
        <time>2014-05-01T06:05:26Z</time>
      </trkpt>
      <trkpt lat="44.74515" lon="4.92601">
        <ele>140.6</ele>
        <time>2014-05-01T06:05:27Z</time>
      </trkpt>
      <trkpt lat="44.7451" lon="4.92598">
        <ele>140.5</ele>
        <time>2014-05-01T06:05:28Z</time>
      </trkpt>
      <trkpt lat="44.74506" lon="4.92595">
        <ele>140.4</ele>
        <time>2014-05-01T06:05:29Z</time>
      </trkpt>
      <trkpt lat="44.74501" lon="4.92593">
        <ele>140.2</ele>
        <time>2014-05-01T06:05:30Z</time>
      </trkpt>
      <trkpt lat="44.74496" lon="4.92591">
        <ele>140.3</ele>
        <time>2014-05-01T06:05:31Z</time>
      </trkpt>
      <trkpt lat="44.74491" lon="4.92588">
        <ele>140.5</ele>
        <time>2014-05-01T06:05:32Z</time>
      </trkpt>
      <trkpt lat="44.74486" lon="4.92586">
        <ele>140.7</ele>
        <time>2014-05-01T06:05:33Z</time>
      </trkpt>
      <trkpt lat="44.74481" lon="4.92584">
        <ele>140.9</ele>
        <time>2014-05-01T06:05:34Z</time>
      </trkpt>
      <trkpt lat="44.74476" lon="4.92581">
        <ele>141.2</ele>
        <time>2014-05-01T06:05:35Z</time>
      </trkpt>
      <trkpt lat="44.74471" lon="4.92579">
        <ele>141.4</ele>
        <time>2014-05-01T06:05:36Z</time>
      </trkpt>
      <trkpt lat="44.74466" lon="4.92577">
        <ele>141.6</ele>
        <time>2014-05-01T06:05:37Z</time>
      </trkpt>
      <trkpt lat="44.74462" lon="4.92574">
        <ele>141.9</ele>
        <time>2014-05-01T06:05:38Z</time>
      </trkpt>
      <trkpt lat="44.74457" lon="4.92572">
        <ele>142.1</ele>
        <time>2014-05-01T06:05:39Z</time>
      </trkpt>
      <trkpt lat="44.74452" lon="4.92569">
        <ele>142.2</ele>
        <time>2014-05-01T06:05:40Z</time>
      </trkpt>
      <trkpt lat="44.74447" lon="4.92567">
        <ele>142.4</ele>
        <time>2014-05-01T06:05:41Z</time>
      </trkpt>
      <trkpt lat="44.74442" lon="4.92564">
        <ele>142.6</ele>
        <time>2014-05-01T06:05:42Z</time>
      </trkpt>
      <trkpt lat="44.74438" lon="4.92562">
        <ele>142.7</ele>
        <time>2014-05-01T06:05:43Z</time>
      </trkpt>
      <trkpt lat="44.74433" lon="4.9256">
        <ele>142.9</ele>
        <time>2014-05-01T06:05:44Z</time>
      </trkpt>
      <trkpt lat="44.74428" lon="4.92558">
        <ele>143</ele>
        <time>2014-05-01T06:05:45Z</time>
      </trkpt>
      <trkpt lat="44.74423" lon="4.92555">
        <ele>143.1</ele>
        <time>2014-05-01T06:05:46Z</time>
      </trkpt>
      <trkpt lat="44.74418" lon="4.92553">
        <ele>143.2</ele>
        <time>2014-05-01T06:05:47Z</time>
      </trkpt>
      <trkpt lat="44.74413" lon="4.92551">
        <ele>143.2</ele>
        <time>2014-05-01T06:05:48Z</time>
      </trkpt>
      <trkpt lat="44.74408" lon="4.92548">
        <ele>143.1</ele>
        <time>2014-05-01T06:05:49Z</time>
      </trkpt>
      <trkpt lat="44.74404" lon="4.92546">
        <ele>143</ele>
        <time>2014-05-01T06:05:50Z</time>
      </trkpt>
      <trkpt lat="44.74399" lon="4.92543">
        <ele>142.9</ele>
        <time>2014-05-01T06:05:51Z</time>
      </trkpt>
      <trkpt lat="44.74394" lon="4.92541">
        <ele>142.8</ele>
        <time>2014-05-01T06:05:52Z</time>
      </trkpt>
      <trkpt lat="44.74389" lon="4.92539">
        <ele>142.8</ele>
        <time>2014-05-01T06:05:53Z</time>
      </trkpt>
      <trkpt lat="44.74384" lon="4.92537">
        <ele>142.7</ele>
        <time>2014-05-01T06:05:54Z</time>
      </trkpt>
      <trkpt lat="44.74379" lon="4.92534">
        <ele>142.6</ele>
        <time>2014-05-01T06:05:55Z</time>
      </trkpt>
      <trkpt lat="44.74374" lon="4.92532">
        <ele>142.6</ele>
        <time>2014-05-01T06:05:56Z</time>
      </trkpt>
      <trkpt lat="44.74369" lon="4.92529">
        <ele>142.5</ele>
        <time>2014-05-01T06:05:57Z</time>
      </trkpt>
      <trkpt lat="44.74364" lon="4.92527">
        <ele>142.4</ele>
        <time>2014-05-01T06:05:58Z</time>
      </trkpt>
      <trkpt lat="44.74359" lon="4.92524">
        <ele>142.4</ele>
        <time>2014-05-01T06:05:59Z</time>
      </trkpt>
      <trkpt lat="44.74354" lon="4.92522">
        <ele>142.3</ele>
        <time>2014-05-01T06:06:00Z</time>
      </trkpt>
      <trkpt lat="44.74349" lon="4.9252">
        <ele>142.3</ele>
        <time>2014-05-01T06:06:01Z</time>
      </trkpt>
      <trkpt lat="44.74344" lon="4.92517">
        <ele>142.2</ele>
        <time>2014-05-01T06:06:02Z</time>
      </trkpt>
      <trkpt lat="44.74339" lon="4.92515">
        <ele>142.2</ele>
        <time>2014-05-01T06:06:03Z</time>
      </trkpt>
      <trkpt lat="44.74334" lon="4.92512">
        <ele>142.1</ele>
        <time>2014-05-01T06:06:04Z</time>
      </trkpt>
      <trkpt lat="44.7433" lon="4.9251">
        <ele>142.2</ele>
        <time>2014-05-01T06:06:05Z</time>
      </trkpt>
      <trkpt lat="44.74325" lon="4.92507">
        <ele>142.2</ele>
        <time>2014-05-01T06:06:06Z</time>
      </trkpt>
      <trkpt lat="44.7432" lon="4.92505">
        <ele>142.2</ele>
        <time>2014-05-01T06:06:07Z</time>
      </trkpt>
      <trkpt lat="44.74315" lon="4.92502">
        <ele>142.2</ele>
        <time>2014-05-01T06:06:08Z</time>
      </trkpt>
      <trkpt lat="44.7431" lon="4.925">
        <ele>142.3</ele>
        <time>2014-05-01T06:06:09Z</time>
      </trkpt>
      <trkpt lat="44.74305" lon="4.92497">
        <ele>142.3</ele>
        <time>2014-05-01T06:06:10Z</time>
      </trkpt>
      <trkpt lat="44.743" lon="4.92494">
        <ele>142.4</ele>
        <time>2014-05-01T06:06:11Z</time>
      </trkpt>
      <trkpt lat="44.74295" lon="4.92492">
        <ele>142.5</ele>
        <time>2014-05-01T06:06:12Z</time>
      </trkpt>
      <trkpt lat="44.7429" lon="4.92489">
        <ele>142.5</ele>
        <time>2014-05-01T06:06:13Z</time>
      </trkpt>
      <trkpt lat="44.74284" lon="4.92487">
        <ele>142.6</ele>
        <time>2014-05-01T06:06:14Z</time>
      </trkpt>
      <trkpt lat="44.74279" lon="4.92485">
        <ele>142.6</ele>
        <time>2014-05-01T06:06:15Z</time>
      </trkpt>
      <trkpt lat="44.74274" lon="4.92482">
        <ele>142.7</ele>
        <time>2014-05-01T06:06:16Z</time>
      </trkpt>
      <trkpt lat="44.74265" lon="4.92477">
        <ele>142.8</ele>
        <time>2014-05-01T06:06:18Z</time>
      </trkpt>
      <trkpt lat="44.7426" lon="4.92475">
        <ele>142.9</ele>
        <time>2014-05-01T06:06:19Z</time>
      </trkpt>
      <trkpt lat="44.74255" lon="4.92472">
        <ele>142.9</ele>
        <time>2014-05-01T06:06:20Z</time>
      </trkpt>
      <trkpt lat="44.74249" lon="4.9247">
        <ele>143</ele>
        <time>2014-05-01T06:06:21Z</time>
      </trkpt>
      <trkpt lat="44.74244" lon="4.92468">
        <ele>143</ele>
        <time>2014-05-01T06:06:22Z</time>
      </trkpt>
      <trkpt lat="44.74239" lon="4.92466">
        <ele>143</ele>
        <time>2014-05-01T06:06:23Z</time>
      </trkpt>
      <trkpt lat="44.74234" lon="4.92464">
        <ele>143</ele>
        <time>2014-05-01T06:06:24Z</time>
      </trkpt>
      <trkpt lat="44.74229" lon="4.92463">
        <ele>143</ele>
        <time>2014-05-01T06:06:25Z</time>
      </trkpt>
      <trkpt lat="44.74223" lon="4.92462">
        <ele>143</ele>
        <time>2014-05-01T06:06:26Z</time>
      </trkpt>
      <trkpt lat="44.74218" lon="4.9246">
        <ele>143</ele>
        <time>2014-05-01T06:06:27Z</time>
      </trkpt>
      <trkpt lat="44.74213" lon="4.9246">
        <ele>143</ele>
        <time>2014-05-01T06:06:28Z</time>
      </trkpt>
      <trkpt lat="44.74207" lon="4.92459">
        <ele>143</ele>
        <time>2014-05-01T06:06:29Z</time>
      </trkpt>
      <trkpt lat="44.74202" lon="4.92459">
        <ele>143</ele>
        <time>2014-05-01T06:06:30Z</time>
      </trkpt>
      <trkpt lat="44.74197" lon="4.92459">
        <ele>143</ele>
        <time>2014-05-01T06:06:31Z</time>
      </trkpt>
      <trkpt lat="44.74191" lon="4.92459">
        <ele>143</ele>
        <time>2014-05-01T06:06:32Z</time>
      </trkpt>
      <trkpt lat="44.74186" lon="4.92459">
        <ele>143</ele>
        <time>2014-05-01T06:06:33Z</time>
      </trkpt>
      <trkpt lat="44.7418" lon="4.92459">
        <ele>143</ele>
        <time>2014-05-01T06:06:34Z</time>
      </trkpt>
      <trkpt lat="44.74175" lon="4.92459">
        <ele>143</ele>
        <time>2014-05-01T06:06:35Z</time>
      </trkpt>
      <trkpt lat="44.7417" lon="4.92459">
        <ele>143</ele>
        <time>2014-05-01T06:06:36Z</time>
      </trkpt>
      <trkpt lat="44.74164" lon="4.92459">
        <ele>143</ele>
        <time>2014-05-01T06:06:37Z</time>
      </trkpt>
      <trkpt lat="44.74159" lon="4.92459">
        <ele>143</ele>
        <time>2014-05-01T06:06:38Z</time>
      </trkpt>
      <trkpt lat="44.74154" lon="4.92459">
        <ele>143</ele>
        <time>2014-05-01T06:06:39Z</time>
      </trkpt>
      <trkpt lat="44.74148" lon="4.92459">
        <ele>143</ele>
        <time>2014-05-01T06:06:40Z</time>
      </trkpt>
      <trkpt lat="44.74143" lon="4.92459">
        <ele>143</ele>
        <time>2014-05-01T06:06:41Z</time>
      </trkpt>
      <trkpt lat="44.74138" lon="4.92458">
        <ele>143</ele>
        <time>2014-05-01T06:06:42Z</time>
      </trkpt>
      <trkpt lat="44.74132" lon="4.92458">
        <ele>143</ele>
        <time>2014-05-01T06:06:43Z</time>
      </trkpt>
      <trkpt lat="44.74127" lon="4.92458">
        <ele>143</ele>
        <time>2014-05-01T06:06:44Z</time>
      </trkpt>
      <trkpt lat="44.74121" lon="4.92458">
        <ele>143</ele>
        <time>2014-05-01T06:06:45Z</time>
      </trkpt>
      <trkpt lat="44.74116" lon="4.92458">
        <ele>143</ele>
        <time>2014-05-01T06:06:46Z</time>
      </trkpt>
      <trkpt lat="44.74111" lon="4.92458">
        <ele>143</ele>
        <time>2014-05-01T06:06:47Z</time>
      </trkpt>
      <trkpt lat="44.74106" lon="4.92458">
        <ele>143</ele>
        <time>2014-05-01T06:06:48Z</time>
      </trkpt>
      <trkpt lat="44.741" lon="4.92457">
        <ele>143</ele>
        <time>2014-05-01T06:06:49Z</time>
      </trkpt>
      <trkpt lat="44.74095" lon="4.92456">
        <ele>143</ele>
        <time>2014-05-01T06:06:50Z</time>
      </trkpt>
      <trkpt lat="44.7409" lon="4.92454">
        <ele>143</ele>
        <time>2014-05-01T06:06:51Z</time>
      </trkpt>
      <trkpt lat="44.74085" lon="4.92452">
        <ele>143</ele>
        <time>2014-05-01T06:06:52Z</time>
      </trkpt>
      <trkpt lat="44.7408" lon="4.9245">
        <ele>143</ele>
        <time>2014-05-01T06:06:53Z</time>
      </trkpt>
      <trkpt lat="44.74075" lon="4.92447">
        <ele>142.9</ele>
        <time>2014-05-01T06:06:54Z</time>
      </trkpt>
      <trkpt lat="44.74071" lon="4.92446">
        <ele>142.9</ele>
        <time>2014-05-01T06:06:55Z</time>
      </trkpt>
      <trkpt lat="44.74065" lon="4.92444">
        <ele>142.9</ele>
        <time>2014-05-01T06:06:56Z</time>
      </trkpt>
      <trkpt lat="44.7406" lon="4.92443">
        <ele>142.8</ele>
        <time>2014-05-01T06:06:57Z</time>
      </trkpt>
      <trkpt lat="44.74055" lon="4.92441">
        <ele>142.8</ele>
        <time>2014-05-01T06:06:58Z</time>
      </trkpt>
      <trkpt lat="44.7405" lon="4.92439">
        <ele>142.7</ele>
        <time>2014-05-01T06:06:59Z</time>
      </trkpt>
      <trkpt lat="44.74045" lon="4.92437">
        <ele>142.7</ele>
        <time>2014-05-01T06:07:00Z</time>
      </trkpt>
      <trkpt lat="44.74041" lon="4.92434">
        <ele>142.6</ele>
        <time>2014-05-01T06:07:01Z</time>
      </trkpt>
      <trkpt lat="44.74038" lon="4.92426">
        <ele>142.5</ele>
        <time>2014-05-01T06:07:03Z</time>
      </trkpt>
      <trkpt lat="44.74039" lon="4.92415">
        <ele>142.4</ele>
        <time>2014-05-01T06:07:05Z</time>
      </trkpt>
      <trkpt lat="44.74039" lon="4.92409">
        <ele>142.3</ele>
        <time>2014-05-01T06:07:06Z</time>
      </trkpt>
      <trkpt lat="44.7404" lon="4.92402">
        <ele>142.2</ele>
        <time>2014-05-01T06:07:07Z</time>
      </trkpt>
      <trkpt lat="44.74041" lon="4.92396">
        <ele>142.1</ele>
        <time>2014-05-01T06:07:08Z</time>
      </trkpt>
      <trkpt lat="44.74042" lon="4.92389">
        <ele>142</ele>
        <time>2014-05-01T06:07:09Z</time>
      </trkpt>
      <trkpt lat="44.74043" lon="4.92382">
        <ele>141.9</ele>
        <time>2014-05-01T06:07:10Z</time>
      </trkpt>
      <trkpt lat="44.74044" lon="4.92375">
        <ele>141.8</ele>
        <time>2014-05-01T06:07:11Z</time>
      </trkpt>
      <trkpt lat="44.74044" lon="4.92368">
        <ele>141.6</ele>
        <time>2014-05-01T06:07:12Z</time>
      </trkpt>
      <trkpt lat="44.74045" lon="4.92361">
        <ele>141.5</ele>
        <time>2014-05-01T06:07:13Z</time>
      </trkpt>
      <trkpt lat="44.74046" lon="4.92354">
        <ele>141.4</ele>
        <time>2014-05-01T06:07:14Z</time>
      </trkpt>
      <trkpt lat="44.74047" lon="4.92347">
        <ele>141.2</ele>
        <time>2014-05-01T06:07:15Z</time>
      </trkpt>
      <trkpt lat="44.74048" lon="4.9234">
        <ele>141.1</ele>
        <time>2014-05-01T06:07:16Z</time>
      </trkpt>
      <trkpt lat="44.74049" lon="4.92332">
        <ele>141</ele>
        <time>2014-05-01T06:07:17Z</time>
      </trkpt>
      <trkpt lat="44.74051" lon="4.92318">
        <ele>141</ele>
        <time>2014-05-01T06:07:19Z</time>
      </trkpt>
      <trkpt lat="44.74052" lon="4.92311">
        <ele>140.9</ele>
        <time>2014-05-01T06:07:20Z</time>
      </trkpt>
      <trkpt lat="44.74053" lon="4.92304">
        <ele>140.9</ele>
        <time>2014-05-01T06:07:21Z</time>
      </trkpt>
      <trkpt lat="44.74054" lon="4.92297">
        <ele>140.9</ele>
        <time>2014-05-01T06:07:22Z</time>
      </trkpt>
      <trkpt lat="44.74055" lon="4.92289">
        <ele>140.8</ele>
        <time>2014-05-01T06:07:23Z</time>
      </trkpt>
      <trkpt lat="44.74055" lon="4.92282">
        <ele>140.8</ele>
        <time>2014-05-01T06:07:24Z</time>
      </trkpt>
      <trkpt lat="44.74056" lon="4.92275">
        <ele>140.8</ele>
        <time>2014-05-01T06:07:25Z</time>
      </trkpt>
      <trkpt lat="44.74057" lon="4.92269">
        <ele>140.7</ele>
        <time>2014-05-01T06:07:26Z</time>
      </trkpt>
      <trkpt lat="44.74057" lon="4.92262">
        <ele>140.7</ele>
        <time>2014-05-01T06:07:27Z</time>
      </trkpt>
      <trkpt lat="44.74058" lon="4.92254">
        <ele>140.6</ele>
        <time>2014-05-01T06:07:28Z</time>
      </trkpt>
      <trkpt lat="44.74059" lon="4.92247">
        <ele>140.6</ele>
        <time>2014-05-01T06:07:29Z</time>
      </trkpt>
      <trkpt lat="44.7406" lon="4.9224">
        <ele>140.6</ele>
        <time>2014-05-01T06:07:30Z</time>
      </trkpt>
      <trkpt lat="44.7406" lon="4.92233">
        <ele>140.7</ele>
        <time>2014-05-01T06:07:31Z</time>
      </trkpt>
      <trkpt lat="44.74061" lon="4.92226">
        <ele>140.7</ele>
        <time>2014-05-01T06:07:32Z</time>
      </trkpt>
      <trkpt lat="44.74061" lon="4.92218">
        <ele>140.7</ele>
        <time>2014-05-01T06:07:33Z</time>
      </trkpt>
      <trkpt lat="44.74062" lon="4.92211">
        <ele>140.7</ele>
        <time>2014-05-01T06:07:34Z</time>
      </trkpt>
      <trkpt lat="44.74063" lon="4.92204">
        <ele>140.8</ele>
        <time>2014-05-01T06:07:35Z</time>
      </trkpt>
      <trkpt lat="44.74064" lon="4.92196">
        <ele>140.8</ele>
        <time>2014-05-01T06:07:36Z</time>
      </trkpt>
      <trkpt lat="44.74065" lon="4.92189">
        <ele>140.9</ele>
        <time>2014-05-01T06:07:37Z</time>
      </trkpt>
      <trkpt lat="44.74066" lon="4.92182">
        <ele>140.9</ele>
        <time>2014-05-01T06:07:38Z</time>
      </trkpt>
      <trkpt lat="44.74066" lon="4.92175">
        <ele>140.9</ele>
        <time>2014-05-01T06:07:39Z</time>
      </trkpt>
      <trkpt lat="44.74067" lon="4.92167">
        <ele>141</ele>
        <time>2014-05-01T06:07:40Z</time>
      </trkpt>
      <trkpt lat="44.74068" lon="4.9216">
        <ele>140.9</ele>
        <time>2014-05-01T06:07:41Z</time>
      </trkpt>
      <trkpt lat="44.74069" lon="4.92153">
        <ele>140.9</ele>
        <time>2014-05-01T06:07:42Z</time>
      </trkpt>
      <trkpt lat="44.7407" lon="4.92146">
        <ele>140.8</ele>
        <time>2014-05-01T06:07:43Z</time>
      </trkpt>
      <trkpt lat="44.74071" lon="4.92139">
        <ele>140.7</ele>
        <time>2014-05-01T06:07:44Z</time>
      </trkpt>
      <trkpt lat="44.74071" lon="4.92132">
        <ele>140.6</ele>
        <time>2014-05-01T06:07:45Z</time>
      </trkpt>
      <trkpt lat="44.74072" lon="4.92124">
        <ele>140.6</ele>
        <time>2014-05-01T06:07:46Z</time>
      </trkpt>
      <trkpt lat="44.74073" lon="4.92117">
        <ele>140.5</ele>
        <time>2014-05-01T06:07:47Z</time>
      </trkpt>
      <trkpt lat="44.74074" lon="4.9211">
        <ele>140.4</ele>
        <time>2014-05-01T06:07:48Z</time>
      </trkpt>
      <trkpt lat="44.74075" lon="4.92103">
        <ele>140.3</ele>
        <time>2014-05-01T06:07:49Z</time>
      </trkpt>
      <trkpt lat="44.74076" lon="4.92096">
        <ele>140.2</ele>
        <time>2014-05-01T06:07:50Z</time>
      </trkpt>
      <trkpt lat="44.74076" lon="4.92089">
        <ele>140.1</ele>
        <time>2014-05-01T06:07:51Z</time>
      </trkpt>
      <trkpt lat="44.74078" lon="4.92082">
        <ele>140</ele>
        <time>2014-05-01T06:07:52Z</time>
      </trkpt>
      <trkpt lat="44.74079" lon="4.92075">
        <ele>139.9</ele>
        <time>2014-05-01T06:07:53Z</time>
      </trkpt>
      <trkpt lat="44.7408" lon="4.92068">
        <ele>139.9</ele>
        <time>2014-05-01T06:07:54Z</time>
      </trkpt>
      <trkpt lat="44.74081" lon="4.92061">
        <ele>139.8</ele>
        <time>2014-05-01T06:07:55Z</time>
      </trkpt>
      <trkpt lat="44.74081" lon="4.92054">
        <ele>139.7</ele>
        <time>2014-05-01T06:07:56Z</time>
      </trkpt>
      <trkpt lat="44.74082" lon="4.92047">
        <ele>139.6</ele>
        <time>2014-05-01T06:07:57Z</time>
      </trkpt>
      <trkpt lat="44.74083" lon="4.9204">
        <ele>139.5</ele>
        <time>2014-05-01T06:07:58Z</time>
      </trkpt>
      <trkpt lat="44.74084" lon="4.92033">
        <ele>139.4</ele>
        <time>2014-05-01T06:07:59Z</time>
      </trkpt>
      <trkpt lat="44.74084" lon="4.92025">
        <ele>139.3</ele>
        <time>2014-05-01T06:08:00Z</time>
      </trkpt>
      <trkpt lat="44.74085" lon="4.92018">
        <ele>139.2</ele>
        <time>2014-05-01T06:08:01Z</time>
      </trkpt>
      <trkpt lat="44.74086" lon="4.92011">
        <ele>139.2</ele>
        <time>2014-05-01T06:08:02Z</time>
      </trkpt>
      <trkpt lat="44.74087" lon="4.92004">
        <ele>139.1</ele>
        <time>2014-05-01T06:08:03Z</time>
      </trkpt>
      <trkpt lat="44.74088" lon="4.91997">
        <ele>139</ele>
        <time>2014-05-01T06:08:04Z</time>
      </trkpt>
      <trkpt lat="44.74089" lon="4.9199">
        <ele>139</ele>
        <time>2014-05-01T06:08:05Z</time>
      </trkpt>
      <trkpt lat="44.7409" lon="4.91983">
        <ele>139</ele>
        <time>2014-05-01T06:08:06Z</time>
      </trkpt>
      <trkpt lat="44.74091" lon="4.91976">
        <ele>139</ele>
        <time>2014-05-01T06:08:07Z</time>
      </trkpt>
      <trkpt lat="44.74092" lon="4.91969">
        <ele>139</ele>
        <time>2014-05-01T06:08:08Z</time>
      </trkpt>
      <trkpt lat="44.74092" lon="4.91962">
        <ele>139</ele>
        <time>2014-05-01T06:08:09Z</time>
      </trkpt>
      <trkpt lat="44.74093" lon="4.91955">
        <ele>139</ele>
        <time>2014-05-01T06:08:10Z</time>
      </trkpt>
      <trkpt lat="44.74094" lon="4.91948">
        <ele>139</ele>
        <time>2014-05-01T06:08:11Z</time>
      </trkpt>
      <trkpt lat="44.74095" lon="4.91941">
        <ele>138.9</ele>
        <time>2014-05-01T06:08:12Z</time>
      </trkpt>
      <trkpt lat="44.74096" lon="4.91934">
        <ele>138.9</ele>
        <time>2014-05-01T06:08:13Z</time>
      </trkpt>
      <trkpt lat="44.74096" lon="4.91927">
        <ele>138.9</ele>
        <time>2014-05-01T06:08:14Z</time>
      </trkpt>
      <trkpt lat="44.74097" lon="4.9192">
        <ele>138.8</ele>
        <time>2014-05-01T06:08:15Z</time>
      </trkpt>
      <trkpt lat="44.74098" lon="4.91912">
        <ele>138.9</ele>
        <time>2014-05-01T06:08:16Z</time>
      </trkpt>
      <trkpt lat="44.74099" lon="4.91906">
        <ele>139</ele>
        <time>2014-05-01T06:08:17Z</time>
      </trkpt>
      <trkpt lat="44.741" lon="4.91899">
        <ele>139</ele>
        <time>2014-05-01T06:08:18Z</time>
      </trkpt>
      <trkpt lat="44.74103" lon="4.91886">
        <ele>139.1</ele>
        <time>2014-05-01T06:08:20Z</time>
      </trkpt>
      <trkpt lat="44.74105" lon="4.91874">
        <ele>139.3</ele>
        <time>2014-05-01T06:08:22Z</time>
      </trkpt>
      <trkpt lat="44.74107" lon="4.91863">
        <ele>139.4</ele>
        <time>2014-05-01T06:08:24Z</time>
      </trkpt>
      <trkpt lat="44.7411" lon="4.91855">
        <ele>139.4</ele>
        <time>2014-05-01T06:08:26Z</time>
      </trkpt>
      <trkpt lat="44.74113" lon="4.91846">
        <ele>139.5</ele>
        <time>2014-05-01T06:08:28Z</time>
      </trkpt>
      <trkpt lat="44.74116" lon="4.91834">
        <ele>139.6</ele>
        <time>2014-05-01T06:08:30Z</time>
      </trkpt>
      <trkpt lat="44.74117" lon="4.91827">
        <ele>139.8</ele>
        <time>2014-05-01T06:08:31Z</time>
      </trkpt>
      <trkpt lat="44.74118" lon="4.91821">
        <ele>139.9</ele>
        <time>2014-05-01T06:08:32Z</time>
      </trkpt>
      <trkpt lat="44.74119" lon="4.91815">
        <ele>140.1</ele>
        <time>2014-05-01T06:08:33Z</time>
      </trkpt>
      <trkpt lat="44.74123" lon="4.91803">
        <ele>140.3</ele>
        <time>2014-05-01T06:08:35Z</time>
      </trkpt>
      <trkpt lat="44.74124" lon="4.91797">
        <ele>140.4</ele>
        <time>2014-05-01T06:08:36Z</time>
      </trkpt>
      <trkpt lat="44.74127" lon="4.91785">
        <ele>140.6</ele>
        <time>2014-05-01T06:08:38Z</time>
      </trkpt>
      <trkpt lat="44.74128" lon="4.91779">
        <ele>140.7</ele>
        <time>2014-05-01T06:08:39Z</time>
      </trkpt>
      <trkpt lat="44.7413" lon="4.91773">
        <ele>140.8</ele>
        <time>2014-05-01T06:08:40Z</time>
      </trkpt>
      <trkpt lat="44.74131" lon="4.91767">
        <ele>140.9</ele>
        <time>2014-05-01T06:08:41Z</time>
      </trkpt>
      <trkpt lat="44.74133" lon="4.9176">
        <ele>141</ele>
        <time>2014-05-01T06:08:42Z</time>
      </trkpt>
      <trkpt lat="44.74134" lon="4.91754">
        <ele>141.1</ele>
        <time>2014-05-01T06:08:43Z</time>
      </trkpt>
      <trkpt lat="44.74135" lon="4.91748">
        <ele>141.1</ele>
        <time>2014-05-01T06:08:44Z</time>
      </trkpt>
      <trkpt lat="44.74137" lon="4.91741">
        <ele>141.1</ele>
        <time>2014-05-01T06:08:45Z</time>
      </trkpt>
      <trkpt lat="44.74138" lon="4.91734">
        <ele>141.1</ele>
        <time>2014-05-01T06:08:46Z</time>
      </trkpt>
      <trkpt lat="44.74139" lon="4.91728">
        <ele>141.1</ele>
        <time>2014-05-01T06:08:47Z</time>
      </trkpt>
      <trkpt lat="44.74141" lon="4.91721">
        <ele>141.1</ele>
        <time>2014-05-01T06:08:48Z</time>
      </trkpt>
      <trkpt lat="44.74142" lon="4.91715">
        <ele>141.1</ele>
        <time>2014-05-01T06:08:49Z</time>
      </trkpt>
      <trkpt lat="44.74144" lon="4.91708">
        <ele>141</ele>
        <time>2014-05-01T06:08:50Z</time>
      </trkpt>
      <trkpt lat="44.74146" lon="4.91702">
        <ele>141.1</ele>
        <time>2014-05-01T06:08:51Z</time>
      </trkpt>
      <trkpt lat="44.74147" lon="4.91695">
        <ele>141.1</ele>
        <time>2014-05-01T06:08:52Z</time>
      </trkpt>
      <trkpt lat="44.74149" lon="4.91688">
        <ele>141.1</ele>
        <time>2014-05-01T06:08:53Z</time>
      </trkpt>
      <trkpt lat="44.74151" lon="4.91682">
        <ele>141.1</ele>
        <time>2014-05-01T06:08:54Z</time>
      </trkpt>
      <trkpt lat="44.74152" lon="4.91676">
        <ele>141.1</ele>
        <time>2014-05-01T06:08:55Z</time>
      </trkpt>
      <trkpt lat="44.74154" lon="4.91669">
        <ele>141.1</ele>
        <time>2014-05-01T06:08:56Z</time>
      </trkpt>
      <trkpt lat="44.74156" lon="4.91663">
        <ele>141.2</ele>
        <time>2014-05-01T06:08:57Z</time>
      </trkpt>
      <trkpt lat="44.74157" lon="4.91657">
        <ele>141.2</ele>
        <time>2014-05-01T06:08:58Z</time>
      </trkpt>
      <trkpt lat="44.74159" lon="4.91651">
        <ele>141.3</ele>
        <time>2014-05-01T06:08:59Z</time>
      </trkpt>
      <trkpt lat="44.7416" lon="4.91645">
        <ele>141.3</ele>
        <time>2014-05-01T06:09:00Z</time>
      </trkpt>
      <trkpt lat="44.74162" lon="4.91634">
        <ele>141.4</ele>
        <time>2014-05-01T06:09:02Z</time>
      </trkpt>
      <trkpt lat="44.74164" lon="4.91623">
        <ele>141.5</ele>
        <time>2014-05-01T06:09:04Z</time>
      </trkpt>
      <trkpt lat="44.74166" lon="4.91613">
        <ele>141.6</ele>
        <time>2014-05-01T06:09:06Z</time>
      </trkpt>
      <trkpt lat="44.74165" lon="4.91604">
        <ele>141.8</ele>
        <time>2014-05-01T06:09:08Z</time>
      </trkpt>
      <trkpt lat="44.7416" lon="4.916">
        <ele>141.8</ele>
        <time>2014-05-01T06:09:10Z</time>
      </trkpt>
      <trkpt lat="44.74154" lon="4.91601">
        <ele>141.8</ele>
        <time>2014-05-01T06:09:12Z</time>
      </trkpt>
      <trkpt lat="44.74148" lon="4.91603">
        <ele>141.8</ele>
        <time>2014-05-01T06:09:14Z</time>
      </trkpt>
      <trkpt lat="44.74141" lon="4.91604">
        <ele>141.8</ele>
        <time>2014-05-01T06:09:16Z</time>
      </trkpt>
      <trkpt lat="44.74138" lon="4.91598">
        <ele>141.9</ele>
        <time>2014-05-01T06:09:19Z</time>
      </trkpt>
      <trkpt lat="44.74135" lon="4.91581">
        <ele>142</ele>
        <time>2014-05-01T06:09:24Z</time>
      </trkpt>
      <trkpt lat="44.74134" lon="4.91572">
        <ele>142.1</ele>
        <time>2014-05-01T06:09:26Z</time>
      </trkpt>
      <trkpt lat="44.7414" lon="4.91572">
        <ele>142</ele>
        <time>2014-05-01T06:09:34Z</time>
      </trkpt>
      <trkpt lat="44.74144" lon="4.91572">
        <ele>142</ele>
        <time>2014-05-01T06:09:36Z</time>
      </trkpt>
      <trkpt lat="44.7415" lon="4.91569">
        <ele>142</ele>
        <time>2014-05-01T06:09:38Z</time>
      </trkpt>
      <trkpt lat="44.74156" lon="4.91567">
        <ele>142</ele>
        <time>2014-05-01T06:09:40Z</time>
      </trkpt>
      <trkpt lat="44.74162" lon="4.91564">
        <ele>142</ele>
        <time>2014-05-01T06:09:42Z</time>
      </trkpt>
      <trkpt lat="44.74168" lon="4.91564">
        <ele>142.1</ele>
        <time>2014-05-01T06:09:44Z</time>
      </trkpt>
      <trkpt lat="44.74173" lon="4.91563">
        <ele>142.2</ele>
        <time>2014-05-01T06:09:46Z</time>
      </trkpt>
      <trkpt lat="44.74179" lon="4.9156">
        <ele>142.4</ele>
        <time>2014-05-01T06:09:48Z</time>
      </trkpt>
      <trkpt lat="44.74185" lon="4.91558">
        <ele>142.6</ele>
        <time>2014-05-01T06:09:50Z</time>
      </trkpt>
      <trkpt lat="44.74192" lon="4.91558">
        <ele>142.8</ele>
        <time>2014-05-01T06:09:52Z</time>
      </trkpt>
      <trkpt lat="44.74199" lon="4.91555">
        <ele>143</ele>
        <time>2014-05-01T06:09:54Z</time>
      </trkpt>
      <trkpt lat="44.74206" lon="4.91554">
        <ele>143.2</ele>
        <time>2014-05-01T06:09:56Z</time>
      </trkpt>
      <trkpt lat="44.74213" lon="4.91552">
        <ele>143.5</ele>
        <time>2014-05-01T06:09:58Z</time>
      </trkpt>
      <trkpt lat="44.7422" lon="4.91551">
        <ele>143.7</ele>
        <time>2014-05-01T06:10:00Z</time>
      </trkpt>
      <trkpt lat="44.74227" lon="4.9155">
        <ele>143.9</ele>
        <time>2014-05-01T06:10:02Z</time>
      </trkpt>
      <trkpt lat="44.74232" lon="4.91547">
        <ele>144</ele>
        <time>2014-05-01T06:10:04Z</time>
      </trkpt>
      <trkpt lat="44.74238" lon="4.91544">
        <ele>144.2</ele>
        <time>2014-05-01T06:10:06Z</time>
      </trkpt>
      <trkpt lat="44.74245" lon="4.91544">
        <ele>144.4</ele>
        <time>2014-05-01T06:10:08Z</time>
      </trkpt>
      <trkpt lat="44.74252" lon="4.91543">
        <ele>144.6</ele>
        <time>2014-05-01T06:10:10Z</time>
      </trkpt>
      <trkpt lat="44.74259" lon="4.91539">
        <ele>144.7</ele>
        <time>2014-05-01T06:10:12Z</time>
      </trkpt>
      <trkpt lat="44.74264" lon="4.91536">
        <ele>144.8</ele>
        <time>2014-05-01T06:10:14Z</time>
      </trkpt>
      <trkpt lat="44.74269" lon="4.91535">
        <ele>144.9</ele>
        <time>2014-05-01T06:10:16Z</time>
      </trkpt>
      <trkpt lat="44.74275" lon="4.91536">
        <ele>145</ele>
        <time>2014-05-01T06:10:18Z</time>
      </trkpt>
      <trkpt lat="44.7428" lon="4.91534">
        <ele>145.1</ele>
        <time>2014-05-01T06:10:20Z</time>
      </trkpt>
      <trkpt lat="44.74286" lon="4.91533">
        <ele>145.3</ele>
        <time>2014-05-01T06:10:22Z</time>
      </trkpt>
      <trkpt lat="44.74299" lon="4.91529">
        <ele>145.5</ele>
        <time>2014-05-01T06:10:26Z</time>
      </trkpt>
      <trkpt lat="44.74304" lon="4.91526">
        <ele>145.6</ele>
        <time>2014-05-01T06:10:28Z</time>
      </trkpt>
      <trkpt lat="44.74311" lon="4.91523">
        <ele>145.7</ele>
        <time>2014-05-01T06:10:30Z</time>
      </trkpt>
      <trkpt lat="44.74316" lon="4.91521">
        <ele>145.8</ele>
        <time>2014-05-01T06:10:32Z</time>
      </trkpt>
      <trkpt lat="44.74321" lon="4.9152">
        <ele>145.9</ele>
        <time>2014-05-01T06:10:34Z</time>
      </trkpt>
      <trkpt lat="44.74326" lon="4.9152">
        <ele>146.1</ele>
        <time>2014-05-01T06:10:37Z</time>
      </trkpt>
      <trkpt lat="44.74332" lon="4.91519">
        <ele>146.2</ele>
        <time>2014-05-01T06:10:40Z</time>
      </trkpt>
      <trkpt lat="44.74337" lon="4.91517">
        <ele>146</ele>
        <time>2014-05-01T06:10:42Z</time>
      </trkpt>
      <trkpt lat="44.74344" lon="4.91516">
        <ele>145.7</ele>
        <time>2014-05-01T06:10:44Z</time>
      </trkpt>
      <trkpt lat="44.7435" lon="4.91515">
        <ele>145.4</ele>
        <time>2014-05-01T06:10:46Z</time>
      </trkpt>
      <trkpt lat="44.74357" lon="4.91513">
        <ele>145.1</ele>
        <time>2014-05-01T06:10:48Z</time>
      </trkpt>
      <trkpt lat="44.74364" lon="4.91512">
        <ele>144.8</ele>
        <time>2014-05-01T06:10:50Z</time>
      </trkpt>
      <trkpt lat="44.7437" lon="4.9151">
        <ele>144.6</ele>
        <time>2014-05-01T06:10:52Z</time>
      </trkpt>
      <trkpt lat="44.74376" lon="4.91507">
        <ele>144.4</ele>
        <time>2014-05-01T06:10:54Z</time>
      </trkpt>
      <trkpt lat="44.74382" lon="4.91505">
        <ele>144.2</ele>
        <time>2014-05-01T06:10:56Z</time>
      </trkpt>
      <trkpt lat="44.74387" lon="4.91504">
        <ele>144</ele>
        <time>2014-05-01T06:10:58Z</time>
      </trkpt>
      <trkpt lat="44.74394" lon="4.915">
        <ele>143.7</ele>
        <time>2014-05-01T06:11:00Z</time>
      </trkpt>
      <trkpt lat="44.744" lon="4.91498">
        <ele>143.5</ele>
        <time>2014-05-01T06:11:02Z</time>
      </trkpt>
      <trkpt lat="44.74405" lon="4.91497">
        <ele>143.3</ele>
        <time>2014-05-01T06:11:04Z</time>
      </trkpt>
      <trkpt lat="44.7441" lon="4.91495">
        <ele>143.1</ele>
        <time>2014-05-01T06:11:06Z</time>
      </trkpt>
      <trkpt lat="44.74415" lon="4.91492">
        <ele>142.8</ele>
        <time>2014-05-01T06:11:08Z</time>
      </trkpt>
      <trkpt lat="44.7442" lon="4.9149">
        <ele>142.5</ele>
        <time>2014-05-01T06:11:10Z</time>
      </trkpt>
      <trkpt lat="44.74426" lon="4.91488">
        <ele>142.2</ele>
        <time>2014-05-01T06:11:12Z</time>
      </trkpt>
      <trkpt lat="44.74431" lon="4.91486">
        <ele>142</ele>
        <time>2014-05-01T06:11:14Z</time>
      </trkpt>
      <trkpt lat="44.74437" lon="4.91484">
        <ele>141.7</ele>
        <time>2014-05-01T06:11:16Z</time>
      </trkpt>
      <trkpt lat="44.74442" lon="4.91482">
        <ele>141.5</ele>
        <time>2014-05-01T06:11:18Z</time>
      </trkpt>
      <trkpt lat="44.74447" lon="4.91481">
        <ele>141.3</ele>
        <time>2014-05-01T06:11:20Z</time>
      </trkpt>
      <trkpt lat="44.74452" lon="4.91479">
        <ele>141.2</ele>
        <time>2014-05-01T06:11:22Z</time>
      </trkpt>
      <trkpt lat="44.74456" lon="4.91477">
        <ele>141.1</ele>
        <time>2014-05-01T06:11:24Z</time>
      </trkpt>
      <trkpt lat="44.74465" lon="4.91476">
        <ele>140.8</ele>
        <time>2014-05-01T06:11:28Z</time>
      </trkpt>
      <trkpt lat="44.74471" lon="4.91474">
        <ele>140.7</ele>
        <time>2014-05-01T06:11:31Z</time>
      </trkpt>
      <trkpt lat="44.74477" lon="4.91471">
        <ele>140.6</ele>
        <time>2014-05-01T06:11:35Z</time>
      </trkpt>
      <trkpt lat="44.74481" lon="4.9147">
        <ele>140.5</ele>
        <time>2014-05-01T06:11:37Z</time>
      </trkpt>
      <trkpt lat="44.74486" lon="4.91469">
        <ele>140.4</ele>
        <time>2014-05-01T06:11:40Z</time>
      </trkpt>
      <trkpt lat="44.74492" lon="4.91469">
        <ele>140.3</ele>
        <time>2014-05-01T06:11:44Z</time>
      </trkpt>
      <trkpt lat="44.74498" lon="4.91466">
        <ele>140.3</ele>
        <time>2014-05-01T06:11:47Z</time>
      </trkpt>
      <trkpt lat="44.74504" lon="4.91464">
        <ele>140.3</ele>
        <time>2014-05-01T06:11:50Z</time>
      </trkpt>
      <trkpt lat="44.74509" lon="4.91464">
        <ele>140.3</ele>
        <time>2014-05-01T06:11:52Z</time>
      </trkpt>
      <trkpt lat="44.74513" lon="4.91464">
        <ele>140.2</ele>
        <time>2014-05-01T06:11:54Z</time>
      </trkpt>
      <trkpt lat="44.74518" lon="4.91462">
        <ele>140.3</ele>
        <time>2014-05-01T06:11:56Z</time>
      </trkpt>
      <trkpt lat="44.74523" lon="4.9146">
        <ele>140.3</ele>
        <time>2014-05-01T06:11:58Z</time>
      </trkpt>
      <trkpt lat="44.74528" lon="4.91457">
        <ele>140.4</ele>
        <time>2014-05-01T06:12:00Z</time>
      </trkpt>
      <trkpt lat="44.74533" lon="4.91453">
        <ele>140.5</ele>
        <time>2014-05-01T06:12:02Z</time>
      </trkpt>
      <trkpt lat="44.74539" lon="4.91449">
        <ele>140.6</ele>
        <time>2014-05-01T06:12:05Z</time>
      </trkpt>
      <trkpt lat="44.74544" lon="4.91446">
        <ele>140.6</ele>
        <time>2014-05-01T06:12:08Z</time>
      </trkpt>
      <trkpt lat="44.74549" lon="4.91443">
        <ele>140.7</ele>
        <time>2014-05-01T06:12:11Z</time>
      </trkpt>
      <trkpt lat="44.74555" lon="4.9144">
        <ele>140.7</ele>
        <time>2014-05-01T06:12:14Z</time>
      </trkpt>
      <trkpt lat="44.74561" lon="4.91437">
        <ele>140.7</ele>
        <time>2014-05-01T06:12:17Z</time>
      </trkpt>
      <trkpt lat="44.74566" lon="4.91434">
        <ele>140.8</ele>
        <time>2014-05-01T06:12:19Z</time>
      </trkpt>
      <trkpt lat="44.74572" lon="4.9143">
        <ele>140.8</ele>
        <time>2014-05-01T06:12:21Z</time>
      </trkpt>
      <trkpt lat="44.74578" lon="4.91427">
        <ele>140.8</ele>
        <time>2014-05-01T06:12:23Z</time>
      </trkpt>
      <trkpt lat="44.74584" lon="4.91424">
        <ele>140.8</ele>
        <time>2014-05-01T06:12:25Z</time>
      </trkpt>
      <trkpt lat="44.74593" lon="4.9142">
        <ele>140.7</ele>
        <time>2014-05-01T06:12:29Z</time>
      </trkpt>
      <trkpt lat="44.74599" lon="4.91416">
        <ele>140.6</ele>
        <time>2014-05-01T06:12:31Z</time>
      </trkpt>
      <trkpt lat="44.74605" lon="4.91412">
        <ele>140.5</ele>
        <time>2014-05-01T06:12:33Z</time>
      </trkpt>
      <trkpt lat="44.74609" lon="4.91408">
        <ele>140.4</ele>
        <time>2014-05-01T06:12:35Z</time>
      </trkpt>
      <trkpt lat="44.74614" lon="4.91404">
        <ele>140.3</ele>
        <time>2014-05-01T06:12:37Z</time>
      </trkpt>
      <trkpt lat="44.7462" lon="4.91403">
        <ele>140.2</ele>
        <time>2014-05-01T06:12:39Z</time>
      </trkpt>
      <trkpt lat="44.74627" lon="4.914">
        <ele>140.2</ele>
        <time>2014-05-01T06:12:41Z</time>
      </trkpt>
      <trkpt lat="44.74632" lon="4.91397">
        <ele>140.2</ele>
        <time>2014-05-01T06:12:43Z</time>
      </trkpt>
      <trkpt lat="44.74637" lon="4.91395">
        <ele>140.1</ele>
        <time>2014-05-01T06:12:45Z</time>
      </trkpt>
      <trkpt lat="44.74642" lon="4.91392">
        <ele>140.2</ele>
        <time>2014-05-01T06:12:48Z</time>
      </trkpt>
      <trkpt lat="44.74647" lon="4.9139">
        <ele>140.1</ele>
        <time>2014-05-01T06:12:50Z</time>
      </trkpt>
      <trkpt lat="44.74653" lon="4.91387">
        <ele>140.2</ele>
        <time>2014-05-01T06:12:52Z</time>
      </trkpt>
      <trkpt lat="44.74658" lon="4.91384">
        <ele>140.2</ele>
        <time>2014-05-01T06:12:54Z</time>
      </trkpt>
      <trkpt lat="44.74665" lon="4.91381">
        <ele>140.3</ele>
        <time>2014-05-01T06:12:57Z</time>
      </trkpt>
      <trkpt lat="44.74672" lon="4.91378">
        <ele>140.2</ele>
        <time>2014-05-01T06:12:59Z</time>
      </trkpt>
      <trkpt lat="44.74678" lon="4.91375">
        <ele>140.1</ele>
        <time>2014-05-01T06:13:01Z</time>
      </trkpt>
      <trkpt lat="44.74682" lon="4.91371">
        <ele>140.1</ele>
        <time>2014-05-01T06:13:03Z</time>
      </trkpt>
      <trkpt lat="44.74689" lon="4.91367">
        <ele>139.9</ele>
        <time>2014-05-01T06:13:05Z</time>
      </trkpt>
      <trkpt lat="44.74695" lon="4.91365">
        <ele>139.8</ele>
        <time>2014-05-01T06:13:07Z</time>
      </trkpt>
      <trkpt lat="44.74702" lon="4.91363">
        <ele>139.6</ele>
        <time>2014-05-01T06:13:09Z</time>
      </trkpt>
      <trkpt lat="44.74709" lon="4.91361">
        <ele>139.3</ele>
        <time>2014-05-01T06:13:11Z</time>
      </trkpt>
      <trkpt lat="44.74713" lon="4.91361">
        <ele>139.1</ele>
        <time>2014-05-01T06:13:13Z</time>
      </trkpt>
      <trkpt lat="44.74718" lon="4.91362">
        <ele>139</ele>
        <time>2014-05-01T06:13:16Z</time>
      </trkpt>
      <trkpt lat="44.74726" lon="4.91358">
        <ele>138.7</ele>
        <time>2014-05-01T06:13:36Z</time>
      </trkpt>
      <trkpt lat="44.74739" lon="4.91349">
        <ele>138.3</ele>
        <time>2014-05-01T06:13:47Z</time>
      </trkpt>
      <trkpt lat="44.74743" lon="4.91347">
        <ele>138.1</ele>
        <time>2014-05-01T06:13:52Z</time>
      </trkpt>
      <trkpt lat="44.74748" lon="4.91344">
        <ele>137.9</ele>
        <time>2014-05-01T06:13:56Z</time>
      </trkpt>
      <trkpt lat="44.74753" lon="4.9134">
        <ele>137.9</ele>
        <time>2014-05-01T06:13:59Z</time>
      </trkpt>
      <trkpt lat="44.74758" lon="4.91338">
        <ele>137.8</ele>
        <time>2014-05-01T06:14:02Z</time>
      </trkpt>
      <trkpt lat="44.74762" lon="4.91336">
        <ele>137.7</ele>
        <time>2014-05-01T06:14:05Z</time>
      </trkpt>
      <trkpt lat="44.74767" lon="4.91332">
        <ele>137.6</ele>
        <time>2014-05-01T06:14:08Z</time>
      </trkpt>
      <trkpt lat="44.74772" lon="4.91328">
        <ele>137.5</ele>
        <time>2014-05-01T06:14:11Z</time>
      </trkpt>
      <trkpt lat="44.74779" lon="4.91323">
        <ele>137.4</ele>
        <time>2014-05-01T06:14:13Z</time>
      </trkpt>
      <trkpt lat="44.74784" lon="4.9132">
        <ele>137.3</ele>
        <time>2014-05-01T06:14:15Z</time>
      </trkpt>
      <trkpt lat="44.74789" lon="4.91318">
        <ele>137.1</ele>
        <time>2014-05-01T06:14:18Z</time>
      </trkpt>
      <trkpt lat="44.74794" lon="4.91313">
        <ele>136.9</ele>
        <time>2014-05-01T06:14:21Z</time>
      </trkpt>
      <trkpt lat="44.74798" lon="4.91309">
        <ele>136.8</ele>
        <time>2014-05-01T06:14:23Z</time>
      </trkpt>
      <trkpt lat="44.74806" lon="4.91302">
        <ele>136.4</ele>
        <time>2014-05-01T06:14:25Z</time>
      </trkpt>
      <trkpt lat="44.74814" lon="4.91296">
        <ele>136</ele>
        <time>2014-05-01T06:14:27Z</time>
      </trkpt>
      <trkpt lat="44.74821" lon="4.91288">
        <ele>135.5</ele>
        <time>2014-05-01T06:14:29Z</time>
      </trkpt>
      <trkpt lat="44.74828" lon="4.91282">
        <ele>135</ele>
        <time>2014-05-01T06:14:31Z</time>
      </trkpt>
      <trkpt lat="44.74833" lon="4.91276">
        <ele>134.6</ele>
        <time>2014-05-01T06:14:33Z</time>
      </trkpt>
      <trkpt lat="44.74837" lon="4.9127">
        <ele>134.6</ele>
        <time>2014-05-01T06:14:35Z</time>
      </trkpt>
      <trkpt lat="44.74845" lon="4.91261">
        <ele>134.6</ele>
        <time>2014-05-01T06:14:37Z</time>
      </trkpt>
      <trkpt lat="44.74853" lon="4.91251">
        <ele>134.7</ele>
        <time>2014-05-01T06:14:39Z</time>
      </trkpt>
      <trkpt lat="44.74856" lon="4.91246">
        <ele>134.9</ele>
        <time>2014-05-01T06:14:40Z</time>
      </trkpt>
      <trkpt lat="44.74861" lon="4.91237">
        <ele>135.2</ele>
        <time>2014-05-01T06:14:42Z</time>
      </trkpt>
      <trkpt lat="44.74867" lon="4.91229">
        <ele>135.5</ele>
        <time>2014-05-01T06:14:44Z</time>
      </trkpt>
      <trkpt lat="44.74873" lon="4.91223">
        <ele>135.8</ele>
        <time>2014-05-01T06:14:46Z</time>
      </trkpt>
      <trkpt lat="44.74877" lon="4.91216">
        <ele>136</ele>
        <time>2014-05-01T06:14:48Z</time>
      </trkpt>
      <trkpt lat="44.74882" lon="4.91208">
        <ele>136.2</ele>
        <time>2014-05-01T06:14:50Z</time>
      </trkpt>
      <trkpt lat="44.74886" lon="4.91198">
        <ele>136.4</ele>
        <time>2014-05-01T06:14:52Z</time>
      </trkpt>
      <trkpt lat="44.74889" lon="4.91193">
        <ele>136.5</ele>
        <time>2014-05-01T06:14:53Z</time>
      </trkpt>
      <trkpt lat="44.74894" lon="4.91184">
        <ele>136.6</ele>
        <time>2014-05-01T06:14:55Z</time>
      </trkpt>
      <trkpt lat="44.74898" lon="4.91173">
        <ele>136.7</ele>
        <time>2014-05-01T06:14:57Z</time>
      </trkpt>
      <trkpt lat="44.74902" lon="4.91165">
        <ele>136.8</ele>
        <time>2014-05-01T06:14:59Z</time>
      </trkpt>
      <trkpt lat="44.74905" lon="4.91159">
        <ele>136.8</ele>
        <time>2014-05-01T06:15:01Z</time>
      </trkpt>
      <trkpt lat="44.74908" lon="4.91151">
        <ele>136.7</ele>
        <time>2014-05-01T06:15:03Z</time>
      </trkpt>
      <trkpt lat="44.74911" lon="4.91143">
        <ele>136.7</ele>
        <time>2014-05-01T06:15:05Z</time>
      </trkpt>
      <trkpt lat="44.74914" lon="4.91134">
        <ele>136.6</ele>
        <time>2014-05-01T06:15:07Z</time>
      </trkpt>
      <trkpt lat="44.74916" lon="4.91127">
        <ele>136.5</ele>
        <time>2014-05-01T06:15:08Z</time>
      </trkpt>
      <trkpt lat="44.74918" lon="4.91121">
        <ele>136.4</ele>
        <time>2014-05-01T06:15:09Z</time>
      </trkpt>
      <trkpt lat="44.74919" lon="4.91113">
        <ele>136.3</ele>
        <time>2014-05-01T06:15:10Z</time>
      </trkpt>
      <trkpt lat="44.74921" lon="4.91107">
        <ele>136.3</ele>
        <time>2014-05-01T06:15:11Z</time>
      </trkpt>
      <trkpt lat="44.74922" lon="4.91101">
        <ele>136.2</ele>
        <time>2014-05-01T06:15:12Z</time>
      </trkpt>
      <trkpt lat="44.74926" lon="4.9109">
        <ele>136.1</ele>
        <time>2014-05-01T06:15:14Z</time>
      </trkpt>
      <trkpt lat="44.74929" lon="4.9108">
        <ele>135.9</ele>
        <time>2014-05-01T06:15:16Z</time>
      </trkpt>
      <trkpt lat="44.74932" lon="4.9107">
        <ele>135.7</ele>
        <time>2014-05-01T06:15:18Z</time>
      </trkpt>
      <trkpt lat="44.74935" lon="4.91059">
        <ele>135.5</ele>
        <time>2014-05-01T06:15:20Z</time>
      </trkpt>
      <trkpt lat="44.74938" lon="4.9105">
        <ele>135.4</ele>
        <time>2014-05-01T06:15:22Z</time>
      </trkpt>
      <trkpt lat="44.74941" lon="4.91041">
        <ele>135.3</ele>
        <time>2014-05-01T06:15:24Z</time>
      </trkpt>
      <trkpt lat="44.74944" lon="4.91031">
        <ele>135.1</ele>
        <time>2014-05-01T06:15:26Z</time>
      </trkpt>
      <trkpt lat="44.74945" lon="4.91021">
        <ele>135</ele>
        <time>2014-05-01T06:15:28Z</time>
      </trkpt>
      <trkpt lat="44.74948" lon="4.91011">
        <ele>134.9</ele>
        <time>2014-05-01T06:15:30Z</time>
      </trkpt>
      <trkpt lat="44.7495" lon="4.91">
        <ele>134.8</ele>
        <time>2014-05-01T06:15:32Z</time>
      </trkpt>
      <trkpt lat="44.74952" lon="4.90991">
        <ele>134.9</ele>
        <time>2014-05-01T06:15:34Z</time>
      </trkpt>
      <trkpt lat="44.74955" lon="4.90983">
        <ele>135</ele>
        <time>2014-05-01T06:15:37Z</time>
      </trkpt>
      <trkpt lat="44.74958" lon="4.90977">
        <ele>135.1</ele>
        <time>2014-05-01T06:15:39Z</time>
      </trkpt>
      <trkpt lat="44.74962" lon="4.90956">
        <ele>135.4</ele>
        <time>2014-05-01T06:15:43Z</time>
      </trkpt>
      <trkpt lat="44.74965" lon="4.90947">
        <ele>135.5</ele>
        <time>2014-05-01T06:15:45Z</time>
      </trkpt>
      <trkpt lat="44.74967" lon="4.90939">
        <ele>135.7</ele>
        <time>2014-05-01T06:15:47Z</time>
      </trkpt>
      <trkpt lat="44.74969" lon="4.9093">
        <ele>135.8</ele>
        <time>2014-05-01T06:15:49Z</time>
      </trkpt>
      <trkpt lat="44.74971" lon="4.90922">
        <ele>135.9</ele>
        <time>2014-05-01T06:15:51Z</time>
      </trkpt>
      <trkpt lat="44.74973" lon="4.90914">
        <ele>136</ele>
        <time>2014-05-01T06:15:53Z</time>
      </trkpt>
      <trkpt lat="44.74975" lon="4.90908">
        <ele>136.1</ele>
        <time>2014-05-01T06:15:55Z</time>
      </trkpt>
      <trkpt lat="44.74977" lon="4.90901">
        <ele>136.1</ele>
        <time>2014-05-01T06:15:57Z</time>
      </trkpt>
      <trkpt lat="44.74979" lon="4.90893">
        <ele>136.1</ele>
        <time>2014-05-01T06:15:59Z</time>
      </trkpt>
      <trkpt lat="44.74981" lon="4.90884">
        <ele>136.1</ele>
        <time>2014-05-01T06:16:01Z</time>
      </trkpt>
      <trkpt lat="44.74983" lon="4.90876">
        <ele>136.1</ele>
        <time>2014-05-01T06:16:03Z</time>
      </trkpt>
      <trkpt lat="44.74985" lon="4.90865">
        <ele>136.1</ele>
        <time>2014-05-01T06:16:05Z</time>
      </trkpt>
      <trkpt lat="44.74987" lon="4.90854">
        <ele>136</ele>
        <time>2014-05-01T06:16:07Z</time>
      </trkpt>
      <trkpt lat="44.7499" lon="4.90845">
        <ele>136</ele>
        <time>2014-05-01T06:16:09Z</time>
      </trkpt>
      <trkpt lat="44.74993" lon="4.90834">
        <ele>135.9</ele>
        <time>2014-05-01T06:16:11Z</time>
      </trkpt>
      <trkpt lat="44.74994" lon="4.90826">
        <ele>135.9</ele>
        <time>2014-05-01T06:16:13Z</time>
      </trkpt>
      <trkpt lat="44.74998" lon="4.90819">
        <ele>136</ele>
        <time>2014-05-01T06:16:15Z</time>
      </trkpt>
      <trkpt lat="44.75001" lon="4.90809">
        <ele>136</ele>
        <time>2014-05-01T06:16:17Z</time>
      </trkpt>
      <trkpt lat="44.75003" lon="4.90799">
        <ele>136</ele>
        <time>2014-05-01T06:16:19Z</time>
      </trkpt>
      <trkpt lat="44.75005" lon="4.90787">
        <ele>135.9</ele>
        <time>2014-05-01T06:16:21Z</time>
      </trkpt>
      <trkpt lat="44.75008" lon="4.90776">
        <ele>135.9</ele>
        <time>2014-05-01T06:16:23Z</time>
      </trkpt>
      <trkpt lat="44.75011" lon="4.90765">
        <ele>135.9</ele>
        <time>2014-05-01T06:16:25Z</time>
      </trkpt>
      <trkpt lat="44.75013" lon="4.90753">
        <ele>135.8</ele>
        <time>2014-05-01T06:16:27Z</time>
      </trkpt>
      <trkpt lat="44.75016" lon="4.90742">
        <ele>135.7</ele>
        <time>2014-05-01T06:16:29Z</time>
      </trkpt>
      <trkpt lat="44.75019" lon="4.90731">
        <ele>135.5</ele>
        <time>2014-05-01T06:16:31Z</time>
      </trkpt>
      <trkpt lat="44.75021" lon="4.90721">
        <ele>135.3</ele>
        <time>2014-05-01T06:16:33Z</time>
      </trkpt>
      <trkpt lat="44.75024" lon="4.90712">
        <ele>135.2</ele>
        <time>2014-05-01T06:16:35Z</time>
      </trkpt>
      <trkpt lat="44.75027" lon="4.90705">
        <ele>135.1</ele>
        <time>2014-05-01T06:16:37Z</time>
      </trkpt>
      <trkpt lat="44.7503" lon="4.90697">
        <ele>135</ele>
        <time>2014-05-01T06:16:39Z</time>
      </trkpt>
      <trkpt lat="44.75031" lon="4.90686">
        <ele>135</ele>
        <time>2014-05-01T06:16:41Z</time>
      </trkpt>
      <trkpt lat="44.75035" lon="4.9067">
        <ele>134.9</ele>
        <time>2014-05-01T06:16:44Z</time>
      </trkpt>
      <trkpt lat="44.75038" lon="4.90659">
        <ele>134.8</ele>
        <time>2014-05-01T06:16:46Z</time>
      </trkpt>
      <trkpt lat="44.7504" lon="4.90649">
        <ele>134.8</ele>
        <time>2014-05-01T06:16:48Z</time>
      </trkpt>
      <trkpt lat="44.75042" lon="4.90638">
        <ele>134.7</ele>
        <time>2014-05-01T06:16:50Z</time>
      </trkpt>
      <trkpt lat="44.75045" lon="4.90628">
        <ele>134.5</ele>
        <time>2014-05-01T06:16:52Z</time>
      </trkpt>
      <trkpt lat="44.75048" lon="4.90617">
        <ele>134.4</ele>
        <time>2014-05-01T06:16:54Z</time>
      </trkpt>
      <trkpt lat="44.7505" lon="4.90607">
        <ele>134.2</ele>
        <time>2014-05-01T06:16:56Z</time>
      </trkpt>
      <trkpt lat="44.75052" lon="4.90597">
        <ele>134</ele>
        <time>2014-05-01T06:16:58Z</time>
      </trkpt>
      <trkpt lat="44.75054" lon="4.90587">
        <ele>133.7</ele>
        <time>2014-05-01T06:17:00Z</time>
      </trkpt>
      <trkpt lat="44.75056" lon="4.90576">
        <ele>133.7</ele>
        <time>2014-05-01T06:17:02Z</time>
      </trkpt>
      <trkpt lat="44.75057" lon="4.90566">
        <ele>133.7</ele>
        <time>2014-05-01T06:17:04Z</time>
      </trkpt>
      <trkpt lat="44.75059" lon="4.90556">
        <ele>133.7</ele>
        <time>2014-05-01T06:17:06Z</time>
      </trkpt>
      <trkpt lat="44.75061" lon="4.90545">
        <ele>133.7</ele>
        <time>2014-05-01T06:17:08Z</time>
      </trkpt>
      <trkpt lat="44.75063" lon="4.90537">
        <ele>133.6</ele>
        <time>2014-05-01T06:17:10Z</time>
      </trkpt>
      <trkpt lat="44.75067" lon="4.90528">
        <ele>133.5</ele>
        <time>2014-05-01T06:17:12Z</time>
      </trkpt>
      <trkpt lat="44.75071" lon="4.90517">
        <ele>133.4</ele>
        <time>2014-05-01T06:17:14Z</time>
      </trkpt>
      <trkpt lat="44.75074" lon="4.90507">
        <ele>133.3</ele>
        <time>2014-05-01T06:17:16Z</time>
      </trkpt>
      <trkpt lat="44.75076" lon="4.90496">
        <ele>133.3</ele>
        <time>2014-05-01T06:17:18Z</time>
      </trkpt>
      <trkpt lat="44.75078" lon="4.90485">
        <ele>133.3</ele>
        <time>2014-05-01T06:17:20Z</time>
      </trkpt>
      <trkpt lat="44.75082" lon="4.90475">
        <ele>133.4</ele>
        <time>2014-05-01T06:17:22Z</time>
      </trkpt>
      <trkpt lat="44.75085" lon="4.90465">
        <ele>133.5</ele>
        <time>2014-05-01T06:17:24Z</time>
      </trkpt>
      <trkpt lat="44.75087" lon="4.90453">
        <ele>133.8</ele>
        <time>2014-05-01T06:17:26Z</time>
      </trkpt>
      <trkpt lat="44.7509" lon="4.90442">
        <ele>134</ele>
        <time>2014-05-01T06:17:28Z</time>
      </trkpt>
      <trkpt lat="44.75093" lon="4.90429">
        <ele>134.3</ele>
        <time>2014-05-01T06:17:30Z</time>
      </trkpt>
      <trkpt lat="44.75095" lon="4.90423">
        <ele>134.5</ele>
        <time>2014-05-01T06:17:31Z</time>
      </trkpt>
      <trkpt lat="44.75098" lon="4.90412">
        <ele>134.6</ele>
        <time>2014-05-01T06:17:33Z</time>
      </trkpt>
      <trkpt lat="44.751" lon="4.90406">
        <ele>134.5</ele>
        <time>2014-05-01T06:17:34Z</time>
      </trkpt>
      <trkpt lat="44.75102" lon="4.90396">
        <ele>134.3</ele>
        <time>2014-05-01T06:17:36Z</time>
      </trkpt>
      <trkpt lat="44.75104" lon="4.90388">
        <ele>134.2</ele>
        <time>2014-05-01T06:17:38Z</time>
      </trkpt>
      <trkpt lat="44.75106" lon="4.90381">
        <ele>134.1</ele>
        <time>2014-05-01T06:17:40Z</time>
      </trkpt>
      <trkpt lat="44.75109" lon="4.90373">
        <ele>134</ele>
        <time>2014-05-01T06:17:42Z</time>
      </trkpt>
      <trkpt lat="44.75113" lon="4.90355">
        <ele>133.7</ele>
        <time>2014-05-01T06:17:45Z</time>
      </trkpt>
      <trkpt lat="44.75117" lon="4.90344">
        <ele>133.5</ele>
        <time>2014-05-01T06:17:47Z</time>
      </trkpt>
      <trkpt lat="44.75121" lon="4.90334">
        <ele>133.3</ele>
        <time>2014-05-01T06:17:49Z</time>
      </trkpt>
      <trkpt lat="44.75123" lon="4.90324">
        <ele>133.4</ele>
        <time>2014-05-01T06:17:51Z</time>
      </trkpt>
      <trkpt lat="44.75125" lon="4.90316">
        <ele>133.4</ele>
        <time>2014-05-01T06:17:53Z</time>
      </trkpt>
      <trkpt lat="44.75127" lon="4.90308">
        <ele>133.4</ele>
        <time>2014-05-01T06:17:55Z</time>
      </trkpt>
      <trkpt lat="44.7513" lon="4.903">
        <ele>133.4</ele>
        <time>2014-05-01T06:17:57Z</time>
      </trkpt>
      <trkpt lat="44.75131" lon="4.90293">
        <ele>133.5</ele>
        <time>2014-05-01T06:17:59Z</time>
      </trkpt>
      <trkpt lat="44.75134" lon="4.90284">
        <ele>133.5</ele>
        <time>2014-05-01T06:18:02Z</time>
      </trkpt>
      <trkpt lat="44.75136" lon="4.90276">
        <ele>133.5</ele>
        <time>2014-05-01T06:18:04Z</time>
      </trkpt>
      <trkpt lat="44.75139" lon="4.90266">
        <ele>133.5</ele>
        <time>2014-05-01T06:18:06Z</time>
      </trkpt>
      <trkpt lat="44.75141" lon="4.90256">
        <ele>133.4</ele>
        <time>2014-05-01T06:18:08Z</time>
      </trkpt>
      <trkpt lat="44.75143" lon="4.90246">
        <ele>133.5</ele>
        <time>2014-05-01T06:18:10Z</time>
      </trkpt>
      <trkpt lat="44.75145" lon="4.90237">
        <ele>133.5</ele>
        <time>2014-05-01T06:18:12Z</time>
      </trkpt>
      <trkpt lat="44.75148" lon="4.90228">
        <ele>133.6</ele>
        <time>2014-05-01T06:18:14Z</time>
      </trkpt>
      <trkpt lat="44.7515" lon="4.9022">
        <ele>133.7</ele>
        <time>2014-05-01T06:18:16Z</time>
      </trkpt>
      <trkpt lat="44.75153" lon="4.90212">
        <ele>133.7</ele>
        <time>2014-05-01T06:18:18Z</time>
      </trkpt>
      <trkpt lat="44.75155" lon="4.90205">
        <ele>133.8</ele>
        <time>2014-05-01T06:18:20Z</time>
      </trkpt>
      <trkpt lat="44.75157" lon="4.90196">
        <ele>133.8</ele>
        <time>2014-05-01T06:18:22Z</time>
      </trkpt>
      <trkpt lat="44.7516" lon="4.90187">
        <ele>133.9</ele>
        <time>2014-05-01T06:18:24Z</time>
      </trkpt>
      <trkpt lat="44.75161" lon="4.90179">
        <ele>133.9</ele>
        <time>2014-05-01T06:18:26Z</time>
      </trkpt>
      <trkpt lat="44.75163" lon="4.90173">
        <ele>134</ele>
        <time>2014-05-01T06:18:28Z</time>
      </trkpt>
      <trkpt lat="44.75165" lon="4.90162">
        <ele>133.9</ele>
        <time>2014-05-01T06:18:31Z</time>
      </trkpt>
      <trkpt lat="44.75168" lon="4.90153">
        <ele>133.6</ele>
        <time>2014-05-01T06:18:33Z</time>
      </trkpt>
      <trkpt lat="44.7517" lon="4.90144">
        <ele>133.4</ele>
        <time>2014-05-01T06:18:35Z</time>
      </trkpt>
      <trkpt lat="44.75172" lon="4.90133">
        <ele>133.1</ele>
        <time>2014-05-01T06:18:37Z</time>
      </trkpt>
      <trkpt lat="44.75174" lon="4.90123">
        <ele>132.9</ele>
        <time>2014-05-01T06:18:39Z</time>
      </trkpt>
      <trkpt lat="44.75177" lon="4.90113">
        <ele>132.7</ele>
        <time>2014-05-01T06:18:41Z</time>
      </trkpt>
      <trkpt lat="44.75178" lon="4.90104">
        <ele>132.6</ele>
        <time>2014-05-01T06:18:43Z</time>
      </trkpt>
      <trkpt lat="44.75184" lon="4.90081">
        <ele>132.4</ele>
        <time>2014-05-01T06:18:47Z</time>
      </trkpt>
      <trkpt lat="44.75187" lon="4.9007">
        <ele>132.3</ele>
        <time>2014-05-01T06:18:49Z</time>
      </trkpt>
      <trkpt lat="44.75189" lon="4.90059">
        <ele>132.3</ele>
        <time>2014-05-01T06:18:51Z</time>
      </trkpt>
      <trkpt lat="44.75192" lon="4.90051">
        <ele>132.3</ele>
        <time>2014-05-01T06:18:53Z</time>
      </trkpt>
      <trkpt lat="44.75194" lon="4.90042">
        <ele>132.3</ele>
        <time>2014-05-01T06:18:55Z</time>
      </trkpt>
      <trkpt lat="44.75195" lon="4.90035">
        <ele>132.3</ele>
        <time>2014-05-01T06:18:57Z</time>
      </trkpt>
      <trkpt lat="44.75198" lon="4.90028">
        <ele>132.3</ele>
        <time>2014-05-01T06:19:00Z</time>
      </trkpt>
      <trkpt lat="44.752" lon="4.9002">
        <ele>132.3</ele>
        <time>2014-05-01T06:19:02Z</time>
      </trkpt>
      <trkpt lat="44.75201" lon="4.90011">
        <ele>132.3</ele>
        <time>2014-05-01T06:19:04Z</time>
      </trkpt>
      <trkpt lat="44.75204" lon="4.90001">
        <ele>132.3</ele>
        <time>2014-05-01T06:19:06Z</time>
      </trkpt>
      <trkpt lat="44.75206" lon="4.89992">
        <ele>132.5</ele>
        <time>2014-05-01T06:19:08Z</time>
      </trkpt>
      <trkpt lat="44.75208" lon="4.89984">
        <ele>132.6</ele>
        <time>2014-05-01T06:19:10Z</time>
      </trkpt>
      <trkpt lat="44.7521" lon="4.89977">
        <ele>132.7</ele>
        <time>2014-05-01T06:19:12Z</time>
      </trkpt>
      <trkpt lat="44.75213" lon="4.8997">
        <ele>132.8</ele>
        <time>2014-05-01T06:19:14Z</time>
      </trkpt>
      <trkpt lat="44.75216" lon="4.89958">
        <ele>133</ele>
        <time>2014-05-01T06:19:16Z</time>
      </trkpt>
      <trkpt lat="44.75218" lon="4.89946">
        <ele>133.1</ele>
        <time>2014-05-01T06:19:18Z</time>
      </trkpt>
      <trkpt lat="44.7522" lon="4.89935">
        <ele>133.2</ele>
        <time>2014-05-01T06:19:20Z</time>
      </trkpt>
      <trkpt lat="44.75223" lon="4.89923">
        <ele>133.3</ele>
        <time>2014-05-01T06:19:22Z</time>
      </trkpt>
      <trkpt lat="44.75225" lon="4.89917">
        <ele>133.4</ele>
        <time>2014-05-01T06:19:23Z</time>
      </trkpt>
      <trkpt lat="44.75228" lon="4.89906">
        <ele>133.2</ele>
        <time>2014-05-01T06:19:25Z</time>
      </trkpt>
      <trkpt lat="44.75231" lon="4.89895">
        <ele>133.1</ele>
        <time>2014-05-01T06:19:27Z</time>
      </trkpt>
      <trkpt lat="44.75233" lon="4.89883">
        <ele>132.9</ele>
        <time>2014-05-01T06:19:29Z</time>
      </trkpt>
      <trkpt lat="44.75236" lon="4.89872">
        <ele>132.7</ele>
        <time>2014-05-01T06:19:31Z</time>
      </trkpt>
      <trkpt lat="44.75237" lon="4.89865">
        <ele>132.5</ele>
        <time>2014-05-01T06:19:33Z</time>
      </trkpt>
      <trkpt lat="44.7524" lon="4.8986">
        <ele>132.5</ele>
        <time>2014-05-01T06:19:35Z</time>
      </trkpt>
      <trkpt lat="44.75241" lon="4.89851">
        <ele>132.3</ele>
        <time>2014-05-01T06:19:37Z</time>
      </trkpt>
      <trkpt lat="44.75243" lon="4.89843">
        <ele>132.1</ele>
        <time>2014-05-01T06:19:39Z</time>
      </trkpt>
      <trkpt lat="44.75245" lon="4.89836">
        <ele>132</ele>
        <time>2014-05-01T06:19:41Z</time>
      </trkpt>
      <trkpt lat="44.75247" lon="4.89827">
        <ele>131.9</ele>
        <time>2014-05-01T06:19:43Z</time>
      </trkpt>
      <trkpt lat="44.7525" lon="4.89817">
        <ele>131.8</ele>
        <time>2014-05-01T06:19:45Z</time>
      </trkpt>
      <trkpt lat="44.75255" lon="4.898">
        <ele>131.7</ele>
        <time>2014-05-01T06:19:48Z</time>
      </trkpt>
      <trkpt lat="44.75258" lon="4.89788">
        <ele>131.6</ele>
        <time>2014-05-01T06:19:50Z</time>
      </trkpt>
      <trkpt lat="44.75261" lon="4.89777">
        <ele>131.5</ele>
        <time>2014-05-01T06:19:52Z</time>
      </trkpt>
      <trkpt lat="44.75263" lon="4.89766">
        <ele>131.5</ele>
        <time>2014-05-01T06:19:54Z</time>
      </trkpt>
      <trkpt lat="44.75266" lon="4.89756">
        <ele>131.4</ele>
        <time>2014-05-01T06:19:56Z</time>
      </trkpt>
      <trkpt lat="44.75268" lon="4.89744">
        <ele>131.4</ele>
        <time>2014-05-01T06:19:58Z</time>
      </trkpt>
      <trkpt lat="44.75271" lon="4.89732">
        <ele>131.5</ele>
        <time>2014-05-01T06:20:00Z</time>
      </trkpt>
      <trkpt lat="44.75274" lon="4.89721">
        <ele>131.6</ele>
        <time>2014-05-01T06:20:02Z</time>
      </trkpt>
      <trkpt lat="44.75277" lon="4.89709">
        <ele>131.6</ele>
        <time>2014-05-01T06:20:04Z</time>
      </trkpt>
      <trkpt lat="44.75279" lon="4.89698">
        <ele>131.7</ele>
        <time>2014-05-01T06:20:06Z</time>
      </trkpt>
      <trkpt lat="44.75282" lon="4.89687">
        <ele>131.8</ele>
        <time>2014-05-01T06:20:08Z</time>
      </trkpt>
      <trkpt lat="44.75285" lon="4.89676">
        <ele>131.8</ele>
        <time>2014-05-01T06:20:10Z</time>
      </trkpt>
      <trkpt lat="44.75287" lon="4.89664">
        <ele>131.9</ele>
        <time>2014-05-01T06:20:12Z</time>
      </trkpt>
      <trkpt lat="44.75289" lon="4.89658">
        <ele>131.9</ele>
        <time>2014-05-01T06:20:13Z</time>
      </trkpt>
      <trkpt lat="44.75293" lon="4.89647">
        <ele>131.9</ele>
        <time>2014-05-01T06:20:15Z</time>
      </trkpt>
      <trkpt lat="44.75295" lon="4.89635">
        <ele>131.9</ele>
        <time>2014-05-01T06:20:17Z</time>
      </trkpt>
      <trkpt lat="44.75299" lon="4.89624">
        <ele>131.9</ele>
        <time>2014-05-01T06:20:19Z</time>
      </trkpt>
      <trkpt lat="44.753" lon="4.89615">
        <ele>131.8</ele>
        <time>2014-05-01T06:20:21Z</time>
      </trkpt>
      <trkpt lat="44.75303" lon="4.89608">
        <ele>131.8</ele>
        <time>2014-05-01T06:20:23Z</time>
      </trkpt>
      <trkpt lat="44.75306" lon="4.896">
        <ele>131.8</ele>
        <time>2014-05-01T06:20:25Z</time>
      </trkpt>
      <trkpt lat="44.75308" lon="4.89591">
        <ele>131.7</ele>
        <time>2014-05-01T06:20:27Z</time>
      </trkpt>
      <trkpt lat="44.7531" lon="4.89581">
        <ele>131.7</ele>
        <time>2014-05-01T06:20:29Z</time>
      </trkpt>
      <trkpt lat="44.75313" lon="4.89571">
        <ele>131.5</ele>
        <time>2014-05-01T06:20:31Z</time>
      </trkpt>
      <trkpt lat="44.75314" lon="4.89561">
        <ele>131.3</ele>
        <time>2014-05-01T06:20:33Z</time>
      </trkpt>
      <trkpt lat="44.75316" lon="4.89554">
        <ele>131.1</ele>
        <time>2014-05-01T06:20:35Z</time>
      </trkpt>
      <trkpt lat="44.75318" lon="4.89547">
        <ele>131</ele>
        <time>2014-05-01T06:20:37Z</time>
      </trkpt>
      <trkpt lat="44.75321" lon="4.89537">
        <ele>130.8</ele>
        <time>2014-05-01T06:20:39Z</time>
      </trkpt>
      <trkpt lat="44.75324" lon="4.89526">
        <ele>130.6</ele>
        <time>2014-05-01T06:20:41Z</time>
      </trkpt>
      <trkpt lat="44.75326" lon="4.89517">
        <ele>130.4</ele>
        <time>2014-05-01T06:20:43Z</time>
      </trkpt>
      <trkpt lat="44.75328" lon="4.89507">
        <ele>130.2</ele>
        <time>2014-05-01T06:20:45Z</time>
      </trkpt>
      <trkpt lat="44.7533" lon="4.89498">
        <ele>130</ele>
        <time>2014-05-01T06:20:47Z</time>
      </trkpt>
      <trkpt lat="44.75336" lon="4.89475">
        <ele>129.7</ele>
        <time>2014-05-01T06:20:51Z</time>
      </trkpt>
      <trkpt lat="44.7534" lon="4.89465">
        <ele>129.6</ele>
        <time>2014-05-01T06:20:53Z</time>
      </trkpt>
      <trkpt lat="44.75342" lon="4.89455">
        <ele>129.5</ele>
        <time>2014-05-01T06:20:55Z</time>
      </trkpt>
      <trkpt lat="44.75345" lon="4.89444">
        <ele>129.4</ele>
        <time>2014-05-01T06:20:57Z</time>
      </trkpt>
      <trkpt lat="44.75347" lon="4.89433">
        <ele>129.3</ele>
        <time>2014-05-01T06:20:59Z</time>
      </trkpt>
      <trkpt lat="44.75349" lon="4.89423">
        <ele>129.2</ele>
        <time>2014-05-01T06:21:01Z</time>
      </trkpt>
      <trkpt lat="44.75351" lon="4.89413">
        <ele>129.2</ele>
        <time>2014-05-01T06:21:03Z</time>
      </trkpt>
      <trkpt lat="44.75354" lon="4.89405">
        <ele>129.1</ele>
        <time>2014-05-01T06:21:05Z</time>
      </trkpt>
      <trkpt lat="44.75355" lon="4.89398">
        <ele>129.1</ele>
        <time>2014-05-01T06:21:07Z</time>
      </trkpt>
      <trkpt lat="44.75358" lon="4.8939">
        <ele>129.1</ele>
        <time>2014-05-01T06:21:09Z</time>
      </trkpt>
      <trkpt lat="44.75361" lon="4.89383">
        <ele>129.1</ele>
        <time>2014-05-01T06:21:11Z</time>
      </trkpt>
      <trkpt lat="44.75363" lon="4.89374">
        <ele>129</ele>
        <time>2014-05-01T06:21:13Z</time>
      </trkpt>
      <trkpt lat="44.75366" lon="4.89364">
        <ele>129</ele>
        <time>2014-05-01T06:21:15Z</time>
      </trkpt>
      <trkpt lat="44.7537" lon="4.89354">
        <ele>129</ele>
        <time>2014-05-01T06:21:17Z</time>
      </trkpt>
      <trkpt lat="44.75373" lon="4.89344">
        <ele>129</ele>
        <time>2014-05-01T06:21:19Z</time>
      </trkpt>
      <trkpt lat="44.75375" lon="4.89333">
        <ele>129</ele>
        <time>2014-05-01T06:21:21Z</time>
      </trkpt>
      <trkpt lat="44.75378" lon="4.89322">
        <ele>129.1</ele>
        <time>2014-05-01T06:21:23Z</time>
      </trkpt>
      <trkpt lat="44.75381" lon="4.89311">
        <ele>129.3</ele>
        <time>2014-05-01T06:21:25Z</time>
      </trkpt>
      <trkpt lat="44.75383" lon="4.893">
        <ele>129.4</ele>
        <time>2014-05-01T06:21:27Z</time>
      </trkpt>
      <trkpt lat="44.75385" lon="4.89289">
        <ele>129.6</ele>
        <time>2014-05-01T06:21:29Z</time>
      </trkpt>
      <trkpt lat="44.75388" lon="4.89278">
        <ele>129.8</ele>
        <time>2014-05-01T06:21:31Z</time>
      </trkpt>
      <trkpt lat="44.75391" lon="4.89267">
        <ele>129.9</ele>
        <time>2014-05-01T06:21:33Z</time>
      </trkpt>
      <trkpt lat="44.75393" lon="4.89261">
        <ele>130</ele>
        <time>2014-05-01T06:21:34Z</time>
      </trkpt>
      <trkpt lat="44.75394" lon="4.89255">
        <ele>130.1</ele>
        <time>2014-05-01T06:21:35Z</time>
      </trkpt>
      <trkpt lat="44.75397" lon="4.89243">
        <ele>130.3</ele>
        <time>2014-05-01T06:21:37Z</time>
      </trkpt>
      <trkpt lat="44.754" lon="4.89232">
        <ele>130.3</ele>
        <time>2014-05-01T06:21:39Z</time>
      </trkpt>
      <trkpt lat="44.75402" lon="4.89222">
        <ele>130.3</ele>
        <time>2014-05-01T06:21:41Z</time>
      </trkpt>
      <trkpt lat="44.75404" lon="4.89216">
        <ele>130.3</ele>
        <time>2014-05-01T06:21:43Z</time>
      </trkpt>
      <trkpt lat="44.75406" lon="4.89208">
        <ele>130.3</ele>
        <time>2014-05-01T06:21:45Z</time>
      </trkpt>
      <trkpt lat="44.75408" lon="4.89198">
        <ele>130.3</ele>
        <time>2014-05-01T06:21:47Z</time>
      </trkpt>
      <trkpt lat="44.7541" lon="4.89189">
        <ele>130.2</ele>
        <time>2014-05-01T06:21:49Z</time>
      </trkpt>
      <trkpt lat="44.75415" lon="4.89172">
        <ele>130.1</ele>
        <time>2014-05-01T06:21:53Z</time>
      </trkpt>
      <trkpt lat="44.75416" lon="4.89164">
        <ele>130</ele>
        <time>2014-05-01T06:21:55Z</time>
      </trkpt>
      <trkpt lat="44.75419" lon="4.89157">
        <ele>130.1</ele>
        <time>2014-05-01T06:21:57Z</time>
      </trkpt>
      <trkpt lat="44.75421" lon="4.8915">
        <ele>130.1</ele>
        <time>2014-05-01T06:21:59Z</time>
      </trkpt>
      <trkpt lat="44.75423" lon="4.89142">
        <ele>130.1</ele>
        <time>2014-05-01T06:22:01Z</time>
      </trkpt>
      <trkpt lat="44.75426" lon="4.89132">
        <ele>130.2</ele>
        <time>2014-05-01T06:22:03Z</time>
      </trkpt>
      <trkpt lat="44.75429" lon="4.89121">
        <ele>130.2</ele>
        <time>2014-05-01T06:22:05Z</time>
      </trkpt>
      <trkpt lat="44.75431" lon="4.89111">
        <ele>130.2</ele>
        <time>2014-05-01T06:22:07Z</time>
      </trkpt>
      <trkpt lat="44.75434" lon="4.89099">
        <ele>130.2</ele>
        <time>2014-05-01T06:22:09Z</time>
      </trkpt>
      <trkpt lat="44.75437" lon="4.89088">
        <ele>130.2</ele>
        <time>2014-05-01T06:22:11Z</time>
      </trkpt>
      <trkpt lat="44.75439" lon="4.89076">
        <ele>130.1</ele>
        <time>2014-05-01T06:22:13Z</time>
      </trkpt>
      <trkpt lat="44.75443" lon="4.89065">
        <ele>129.8</ele>
        <time>2014-05-01T06:22:15Z</time>
      </trkpt>
      <trkpt lat="44.75446" lon="4.89054">
        <ele>129.5</ele>
        <time>2014-05-01T06:22:17Z</time>
      </trkpt>
      <trkpt lat="44.75448" lon="4.89043">
        <ele>129.2</ele>
        <time>2014-05-01T06:22:19Z</time>
      </trkpt>
      <trkpt lat="44.7545" lon="4.89034">
        <ele>129</ele>
        <time>2014-05-01T06:22:21Z</time>
      </trkpt>
      <trkpt lat="44.75453" lon="4.89024">
        <ele>128.7</ele>
        <time>2014-05-01T06:22:23Z</time>
      </trkpt>
      <trkpt lat="44.75456" lon="4.89015">
        <ele>128.4</ele>
        <time>2014-05-01T06:22:25Z</time>
      </trkpt>
      <trkpt lat="44.75459" lon="4.89005">
        <ele>128.1</ele>
        <time>2014-05-01T06:22:27Z</time>
      </trkpt>
      <trkpt lat="44.75461" lon="4.88994">
        <ele>127.9</ele>
        <time>2014-05-01T06:22:29Z</time>
      </trkpt>
      <trkpt lat="44.75462" lon="4.88983">
        <ele>127.8</ele>
        <time>2014-05-01T06:22:31Z</time>
      </trkpt>
      <trkpt lat="44.75462" lon="4.88972">
        <ele>127.7</ele>
        <time>2014-05-01T06:22:33Z</time>
      </trkpt>
      <trkpt lat="44.75463" lon="4.88961">
        <ele>127.5</ele>
        <time>2014-05-01T06:22:35Z</time>
      </trkpt>
      <trkpt lat="44.75464" lon="4.88949">
        <ele>127.4</ele>
        <time>2014-05-01T06:22:37Z</time>
      </trkpt>
      <trkpt lat="44.75465" lon="4.88937">
        <ele>127.2</ele>
        <time>2014-05-01T06:22:39Z</time>
      </trkpt>
      <trkpt lat="44.75465" lon="4.88925">
        <ele>127.1</ele>
        <time>2014-05-01T06:22:41Z</time>
      </trkpt>
      <trkpt lat="44.75465" lon="4.88914">
        <ele>127</ele>
        <time>2014-05-01T06:22:43Z</time>
      </trkpt>
      <trkpt lat="44.75466" lon="4.88904">
        <ele>127</ele>
        <time>2014-05-01T06:22:45Z</time>
      </trkpt>
      <trkpt lat="44.75466" lon="4.88892">
        <ele>127</ele>
        <time>2014-05-01T06:22:47Z</time>
      </trkpt>
      <trkpt lat="44.75465" lon="4.88884">
        <ele>127</ele>
        <time>2014-05-01T06:22:48Z</time>
      </trkpt>
      <trkpt lat="44.75462" lon="4.88876">
        <ele>127</ele>
        <time>2014-05-01T06:22:49Z</time>
      </trkpt>
      <trkpt lat="44.75459" lon="4.88868">
        <ele>127</ele>
        <time>2014-05-01T06:22:50Z</time>
      </trkpt>
      <trkpt lat="44.75457" lon="4.88852">
        <ele>127</ele>
        <time>2014-05-01T06:22:53Z</time>
      </trkpt>
      <trkpt lat="44.75456" lon="4.88845">
        <ele>127</ele>
        <time>2014-05-01T06:23:34Z</time>
      </trkpt>
      <trkpt lat="44.75453" lon="4.88839">
        <ele>127</ele>
        <time>2014-05-01T06:23:37Z</time>
      </trkpt>
      <trkpt lat="44.7545" lon="4.88832">
        <ele>127</ele>
        <time>2014-05-01T06:23:39Z</time>
      </trkpt>
      <trkpt lat="44.75448" lon="4.88825">
        <ele>127.1</ele>
        <time>2014-05-01T06:23:41Z</time>
      </trkpt>
      <trkpt lat="44.75445" lon="4.88817">
        <ele>127.1</ele>
        <time>2014-05-01T06:23:43Z</time>
      </trkpt>
      <trkpt lat="44.75443" lon="4.88808">
        <ele>127.2</ele>
        <time>2014-05-01T06:23:45Z</time>
      </trkpt>
      <trkpt lat="44.7544" lon="4.88798">
        <ele>127.3</ele>
        <time>2014-05-01T06:23:47Z</time>
      </trkpt>
      <trkpt lat="44.75438" lon="4.88788">
        <ele>127.4</ele>
        <time>2014-05-01T06:23:49Z</time>
      </trkpt>
      <trkpt lat="44.75437" lon="4.88779">
        <ele>127.5</ele>
        <time>2014-05-01T06:23:51Z</time>
      </trkpt>
      <trkpt lat="44.75436" lon="4.88768">
        <ele>127.6</ele>
        <time>2014-05-01T06:23:53Z</time>
      </trkpt>
      <trkpt lat="44.75434" lon="4.88747">
        <ele>127.8</ele>
        <time>2014-05-01T06:23:57Z</time>
      </trkpt>
      <trkpt lat="44.75433" lon="4.88736">
        <ele>127.7</ele>
        <time>2014-05-01T06:23:59Z</time>
      </trkpt>
      <trkpt lat="44.75431" lon="4.88726">
        <ele>127.7</ele>
        <time>2014-05-01T06:24:01Z</time>
      </trkpt>
      <trkpt lat="44.75429" lon="4.88717">
        <ele>127.7</ele>
        <time>2014-05-01T06:24:03Z</time>
      </trkpt>
      <trkpt lat="44.75428" lon="4.88708">
        <ele>127.7</ele>
        <time>2014-05-01T06:24:05Z</time>
      </trkpt>
      <trkpt lat="44.75427" lon="4.88699">
        <ele>127.7</ele>
        <time>2014-05-01T06:24:07Z</time>
      </trkpt>
      <trkpt lat="44.75426" lon="4.88692">
        <ele>127.7</ele>
        <time>2014-05-01T06:24:09Z</time>
      </trkpt>
      <trkpt lat="44.75425" lon="4.88684">
        <ele>127.7</ele>
        <time>2014-05-01T06:24:11Z</time>
      </trkpt>
      <trkpt lat="44.75425" lon="4.88675">
        <ele>127.7</ele>
        <time>2014-05-01T06:24:13Z</time>
      </trkpt>
      <trkpt lat="44.75424" lon="4.88666">
        <ele>127.8</ele>
        <time>2014-05-01T06:24:15Z</time>
      </trkpt>
      <trkpt lat="44.75423" lon="4.88656">
        <ele>128.1</ele>
        <time>2014-05-01T06:24:17Z</time>
      </trkpt>
      <trkpt lat="44.75421" lon="4.88648">
        <ele>128.5</ele>
        <time>2014-05-01T06:24:19Z</time>
      </trkpt>
      <trkpt lat="44.7542" lon="4.8864">
        <ele>128.8</ele>
        <time>2014-05-01T06:24:21Z</time>
      </trkpt>
      <trkpt lat="44.75418" lon="4.88633">
        <ele>129.2</ele>
        <time>2014-05-01T06:24:23Z</time>
      </trkpt>
      <trkpt lat="44.75414" lon="4.88626">
        <ele>129.6</ele>
        <time>2014-05-01T06:24:26Z</time>
      </trkpt>
      <trkpt lat="44.75412" lon="4.88619">
        <ele>129.8</ele>
        <time>2014-05-01T06:24:28Z</time>
      </trkpt>
      <trkpt lat="44.75409" lon="4.88614">
        <ele>130.1</ele>
        <time>2014-05-01T06:24:30Z</time>
      </trkpt>
      <trkpt lat="44.75406" lon="4.88609">
        <ele>130.3</ele>
        <time>2014-05-01T06:24:32Z</time>
      </trkpt>
      <trkpt lat="44.75403" lon="4.88603">
        <ele>130.5</ele>
        <time>2014-05-01T06:24:35Z</time>
      </trkpt>
      <trkpt lat="44.75399" lon="4.88599">
        <ele>130.6</ele>
        <time>2014-05-01T06:24:38Z</time>
      </trkpt>
      <trkpt lat="44.75394" lon="4.88598">
        <ele>130.7</ele>
        <time>2014-05-01T06:24:40Z</time>
      </trkpt>
      <trkpt lat="44.75389" lon="4.88597">
        <ele>130.7</ele>
        <time>2014-05-01T06:24:42Z</time>
      </trkpt>
      <trkpt lat="44.75383" lon="4.88597">
        <ele>130.8</ele>
        <time>2014-05-01T06:24:44Z</time>
      </trkpt>
      <trkpt lat="44.75374" lon="4.88596">
        <ele>130.8</ele>
        <time>2014-05-01T06:24:46Z</time>
      </trkpt>
      <trkpt lat="44.75367" lon="4.88597">
        <ele>130.9</ele>
        <time>2014-05-01T06:24:48Z</time>
      </trkpt>
      <trkpt lat="44.75358" lon="4.88598">
        <ele>131</ele>
        <time>2014-05-01T06:24:50Z</time>
      </trkpt>
      <trkpt lat="44.7535" lon="4.88596">
        <ele>131</ele>
        <time>2014-05-01T06:24:52Z</time>
      </trkpt>
      <trkpt lat="44.75343" lon="4.88591">
        <ele>131</ele>
        <time>2014-05-01T06:24:54Z</time>
      </trkpt>
      <trkpt lat="44.75327" lon="4.88583">
        <ele>131.3</ele>
        <time>2014-05-01T06:24:58Z</time>
      </trkpt>
      <trkpt lat="44.75319" lon="4.88581">
        <ele>131.8</ele>
        <time>2014-05-01T06:25:00Z</time>
      </trkpt>
      <trkpt lat="44.75312" lon="4.88582">
        <ele>132.2</ele>
        <time>2014-05-01T06:25:02Z</time>
      </trkpt>
      <trkpt lat="44.75307" lon="4.88587">
        <ele>132.6</ele>
        <time>2014-05-01T06:25:04Z</time>
      </trkpt>
      <trkpt lat="44.753" lon="4.8859">
        <ele>133</ele>
        <time>2014-05-01T06:25:06Z</time>
      </trkpt>
      <trkpt lat="44.75296" lon="4.88594">
        <ele>133.2</ele>
        <time>2014-05-01T06:25:09Z</time>
      </trkpt>
      <trkpt lat="44.75292" lon="4.886">
        <ele>133.4</ele>
        <time>2014-05-01T06:25:12Z</time>
      </trkpt>
      <trkpt lat="44.75287" lon="4.88603">
        <ele>133.6</ele>
        <time>2014-05-01T06:25:15Z</time>
      </trkpt>
      <trkpt lat="44.75283" lon="4.88602">
        <ele>133.8</ele>
        <time>2014-05-01T06:25:17Z</time>
      </trkpt>
      <trkpt lat="44.75278" lon="4.88602">
        <ele>134.1</ele>
        <time>2014-05-01T06:25:20Z</time>
      </trkpt>
      <trkpt lat="44.75274" lon="4.88607">
        <ele>134.3</ele>
        <time>2014-05-01T06:26:50Z</time>
      </trkpt>
      <trkpt lat="44.75268" lon="4.88621">
        <ele>134.3</ele>
        <time>2014-05-01T06:26:54Z</time>
      </trkpt>
      <trkpt lat="44.75264" lon="4.88629">
        <ele>134.3</ele>
        <time>2014-05-01T06:26:56Z</time>
      </trkpt>
      <trkpt lat="44.75261" lon="4.88638">
        <ele>134.3</ele>
        <time>2014-05-01T06:26:58Z</time>
      </trkpt>
      <trkpt lat="44.75258" lon="4.88647">
        <ele>134.2</ele>
        <time>2014-05-01T06:27:00Z</time>
      </trkpt>
      <trkpt lat="44.75254" lon="4.88655">
        <ele>134.2</ele>
        <time>2014-05-01T06:27:02Z</time>
      </trkpt>
      <trkpt lat="44.75251" lon="4.88665">
        <ele>134</ele>
        <time>2014-05-01T06:27:04Z</time>
      </trkpt>
      <trkpt lat="44.75247" lon="4.88675">
        <ele>133.5</ele>
        <time>2014-05-01T06:27:06Z</time>
      </trkpt>
      <trkpt lat="44.75243" lon="4.88685">
        <ele>132.8</ele>
        <time>2014-05-01T06:27:08Z</time>
      </trkpt>
      <trkpt lat="44.75239" lon="4.88696">
        <ele>132.1</ele>
        <time>2014-05-01T06:27:10Z</time>
      </trkpt>
      <trkpt lat="44.75235" lon="4.88707">
        <ele>131.5</ele>
        <time>2014-05-01T06:27:12Z</time>
      </trkpt>
      <trkpt lat="44.75233" lon="4.88713">
        <ele>131.1</ele>
        <time>2014-05-01T06:27:13Z</time>
      </trkpt>
      <trkpt lat="44.7523" lon="4.88719">
        <ele>130.8</ele>
        <time>2014-05-01T06:27:14Z</time>
      </trkpt>
      <trkpt lat="44.75228" lon="4.88725">
        <ele>130.5</ele>
        <time>2014-05-01T06:27:15Z</time>
      </trkpt>
      <trkpt lat="44.75225" lon="4.88731">
        <ele>130.1</ele>
        <time>2014-05-01T06:27:16Z</time>
      </trkpt>
      <trkpt lat="44.75223" lon="4.88737">
        <ele>129.8</ele>
        <time>2014-05-01T06:27:17Z</time>
      </trkpt>
      <trkpt lat="44.75221" lon="4.88743">
        <ele>129.5</ele>
        <time>2014-05-01T06:27:18Z</time>
      </trkpt>
      <trkpt lat="44.75218" lon="4.88749">
        <ele>129.3</ele>
        <time>2014-05-01T06:27:19Z</time>
      </trkpt>
      <trkpt lat="44.75216" lon="4.88755">
        <ele>129.1</ele>
        <time>2014-05-01T06:27:20Z</time>
      </trkpt>
      <trkpt lat="44.75214" lon="4.88761">
        <ele>128.9</ele>
        <time>2014-05-01T06:27:21Z</time>
      </trkpt>
      <trkpt lat="44.75209" lon="4.88773">
        <ele>128.6</ele>
        <time>2014-05-01T06:27:23Z</time>
      </trkpt>
      <trkpt lat="44.75207" lon="4.88779">
        <ele>128.5</ele>
        <time>2014-05-01T06:27:24Z</time>
      </trkpt>
      <trkpt lat="44.75205" lon="4.88785">
        <ele>128.3</ele>
        <time>2014-05-01T06:27:25Z</time>
      </trkpt>
      <trkpt lat="44.75203" lon="4.88791">
        <ele>128.2</ele>
        <time>2014-05-01T06:27:26Z</time>
      </trkpt>
      <trkpt lat="44.752" lon="4.88796">
        <ele>128</ele>
        <time>2014-05-01T06:27:27Z</time>
      </trkpt>
      <trkpt lat="44.75198" lon="4.88802">
        <ele>127.9</ele>
        <time>2014-05-01T06:27:28Z</time>
      </trkpt>
      <trkpt lat="44.75196" lon="4.88808">
        <ele>127.8</ele>
        <time>2014-05-01T06:27:29Z</time>
      </trkpt>
      <trkpt lat="44.75194" lon="4.88814">
        <ele>127.6</ele>
        <time>2014-05-01T06:27:30Z</time>
      </trkpt>
      <trkpt lat="44.75192" lon="4.88819">
        <ele>127.5</ele>
        <time>2014-05-01T06:27:31Z</time>
      </trkpt>
      <trkpt lat="44.75188" lon="4.88824">
        <ele>127.4</ele>
        <time>2014-05-01T06:27:32Z</time>
      </trkpt>
      <trkpt lat="44.75184" lon="4.88826">
        <ele>127.3</ele>
        <time>2014-05-01T06:27:33Z</time>
      </trkpt>
      <trkpt lat="44.75179" lon="4.88827">
        <ele>127.2</ele>
        <time>2014-05-01T06:27:34Z</time>
      </trkpt>
      <trkpt lat="44.75175" lon="4.88827">
        <ele>127.2</ele>
        <time>2014-05-01T06:27:35Z</time>
      </trkpt>
      <trkpt lat="44.7517" lon="4.88825">
        <ele>127.2</ele>
        <time>2014-05-01T06:27:36Z</time>
      </trkpt>
      <trkpt lat="44.75166" lon="4.88824">
        <ele>127.1</ele>
        <time>2014-05-01T06:27:37Z</time>
      </trkpt>
      <trkpt lat="44.75161" lon="4.88822">
        <ele>127.1</ele>
        <time>2014-05-01T06:27:38Z</time>
      </trkpt>
      <trkpt lat="44.75157" lon="4.88821">
        <ele>127.1</ele>
        <time>2014-05-01T06:27:39Z</time>
      </trkpt>
      <trkpt lat="44.75152" lon="4.8882">
        <ele>127.1</ele>
        <time>2014-05-01T06:27:40Z</time>
      </trkpt>
      <trkpt lat="44.75148" lon="4.88818">
        <ele>127.1</ele>
        <time>2014-05-01T06:27:41Z</time>
      </trkpt>
      <trkpt lat="44.75139" lon="4.88816">
        <ele>127.1</ele>
        <time>2014-05-01T06:27:43Z</time>
      </trkpt>
      <trkpt lat="44.75135" lon="4.88815">
        <ele>127.1</ele>
        <time>2014-05-01T06:27:44Z</time>
      </trkpt>
      <trkpt lat="44.7513" lon="4.88813">
        <ele>127.1</ele>
        <time>2014-05-01T06:27:45Z</time>
      </trkpt>
      <trkpt lat="44.75125" lon="4.88812">
        <ele>127.1</ele>
        <time>2014-05-01T06:27:46Z</time>
      </trkpt>
      <trkpt lat="44.75121" lon="4.88811">
        <ele>127.1</ele>
        <time>2014-05-01T06:27:47Z</time>
      </trkpt>
      <trkpt lat="44.75116" lon="4.88809">
        <ele>127.1</ele>
        <time>2014-05-01T06:27:48Z</time>
      </trkpt>
      <trkpt lat="44.75111" lon="4.88808">
        <ele>127.1</ele>
        <time>2014-05-01T06:27:49Z</time>
      </trkpt>
      <trkpt lat="44.75107" lon="4.88807">
        <ele>127.1</ele>
        <time>2014-05-01T06:27:50Z</time>
      </trkpt>
      <trkpt lat="44.75102" lon="4.88806">
        <ele>127.1</ele>
        <time>2014-05-01T06:27:51Z</time>
      </trkpt>
      <trkpt lat="44.75097" lon="4.88805">
        <ele>127.1</ele>
        <time>2014-05-01T06:27:52Z</time>
      </trkpt>
      <trkpt lat="44.75088" lon="4.88802">
        <ele>127</ele>
        <time>2014-05-01T06:27:54Z</time>
      </trkpt>
      <trkpt lat="44.75083" lon="4.88801">
        <ele>127</ele>
        <time>2014-05-01T06:27:55Z</time>
      </trkpt>
      <trkpt lat="44.75079" lon="4.888">
        <ele>127.1</ele>
        <time>2014-05-01T06:27:56Z</time>
      </trkpt>
      <trkpt lat="44.75074" lon="4.88798">
        <ele>127.1</ele>
        <time>2014-05-01T06:27:57Z</time>
      </trkpt>
      <trkpt lat="44.75069" lon="4.88797">
        <ele>127.2</ele>
        <time>2014-05-01T06:27:58Z</time>
      </trkpt>
      <trkpt lat="44.75065" lon="4.88796">
        <ele>127.2</ele>
        <time>2014-05-01T06:27:59Z</time>
      </trkpt>
      <trkpt lat="44.7506" lon="4.88795">
        <ele>127.3</ele>
        <time>2014-05-01T06:28:00Z</time>
      </trkpt>
      <trkpt lat="44.75055" lon="4.88794">
        <ele>127.3</ele>
        <time>2014-05-01T06:28:01Z</time>
      </trkpt>
      <trkpt lat="44.7505" lon="4.88793">
        <ele>127.4</ele>
        <time>2014-05-01T06:28:02Z</time>
      </trkpt>
      <trkpt lat="44.75045" lon="4.88791">
        <ele>127.5</ele>
        <time>2014-05-01T06:28:03Z</time>
      </trkpt>
      <trkpt lat="44.75041" lon="4.8879">
        <ele>127.5</ele>
        <time>2014-05-01T06:28:04Z</time>
      </trkpt>
      <trkpt lat="44.75036" lon="4.88789">
        <ele>127.6</ele>
        <time>2014-05-01T06:28:05Z</time>
      </trkpt>
      <trkpt lat="44.75031" lon="4.88788">
        <ele>127.6</ele>
        <time>2014-05-01T06:28:06Z</time>
      </trkpt>
      <trkpt lat="44.75026" lon="4.88787">
        <ele>127.7</ele>
        <time>2014-05-01T06:28:07Z</time>
      </trkpt>
      <trkpt lat="44.75022" lon="4.88785">
        <ele>127.7</ele>
        <time>2014-05-01T06:28:08Z</time>
      </trkpt>
      <trkpt lat="44.75017" lon="4.88784">
        <ele>127.8</ele>
        <time>2014-05-01T06:28:09Z</time>
      </trkpt>
      <trkpt lat="44.75012" lon="4.88782">
        <ele>127.9</ele>
        <time>2014-05-01T06:28:10Z</time>
      </trkpt>
      <trkpt lat="44.75007" lon="4.88781">
        <ele>127.9</ele>
        <time>2014-05-01T06:28:11Z</time>
      </trkpt>
      <trkpt lat="44.75003" lon="4.88781">
        <ele>128</ele>
        <time>2014-05-01T06:28:12Z</time>
      </trkpt>
      <trkpt lat="44.74998" lon="4.8878">
        <ele>128.1</ele>
        <time>2014-05-01T06:28:13Z</time>
      </trkpt>
      <trkpt lat="44.74993" lon="4.88778">
        <ele>128.2</ele>
        <time>2014-05-01T06:28:14Z</time>
      </trkpt>
      <trkpt lat="44.74988" lon="4.88777">
        <ele>128.4</ele>
        <time>2014-05-01T06:28:15Z</time>
      </trkpt>
      <trkpt lat="44.74984" lon="4.88776">
        <ele>128.5</ele>
        <time>2014-05-01T06:28:16Z</time>
      </trkpt>
      <trkpt lat="44.74979" lon="4.88775">
        <ele>128.7</ele>
        <time>2014-05-01T06:28:17Z</time>
      </trkpt>
      <trkpt lat="44.74975" lon="4.88774">
        <ele>128.8</ele>
        <time>2014-05-01T06:28:18Z</time>
      </trkpt>
      <trkpt lat="44.7497" lon="4.88774">
        <ele>129</ele>
        <time>2014-05-01T06:28:19Z</time>
      </trkpt>
      <trkpt lat="44.74962" lon="4.88774">
        <ele>129.2</ele>
        <time>2014-05-01T06:28:21Z</time>
      </trkpt>
      <trkpt lat="44.74955" lon="4.88773">
        <ele>129.5</ele>
        <time>2014-05-01T06:28:23Z</time>
      </trkpt>
      <trkpt lat="44.74953" lon="4.88764">
        <ele>129.6</ele>
        <time>2014-05-01T06:28:25Z</time>
      </trkpt>
      <trkpt lat="44.74957" lon="4.88755">
        <ele>129.5</ele>
        <time>2014-05-01T06:28:27Z</time>
      </trkpt>
      <trkpt lat="44.74962" lon="4.88746">
        <ele>129.3</ele>
        <time>2014-05-01T06:28:29Z</time>
      </trkpt>
      <trkpt lat="44.74968" lon="4.88735">
        <ele>129.1</ele>
        <time>2014-05-01T06:28:31Z</time>
      </trkpt>
      <trkpt lat="44.74971" lon="4.8873">
        <ele>128.9</ele>
        <time>2014-05-01T06:28:32Z</time>
      </trkpt>
      <trkpt lat="44.74973" lon="4.88725">
        <ele>128.7</ele>
        <time>2014-05-01T06:28:33Z</time>
      </trkpt>
      <trkpt lat="44.74976" lon="4.88719">
        <ele>128.6</ele>
        <time>2014-05-01T06:28:34Z</time>
      </trkpt>
      <trkpt lat="44.74979" lon="4.88713">
        <ele>128.4</ele>
        <time>2014-05-01T06:28:35Z</time>
      </trkpt>
      <trkpt lat="44.74983" lon="4.88707">
        <ele>128.2</ele>
        <time>2014-05-01T06:28:36Z</time>
      </trkpt>
      <trkpt lat="44.74986" lon="4.88701">
        <ele>128</ele>
        <time>2014-05-01T06:28:37Z</time>
      </trkpt>
      <trkpt lat="44.74989" lon="4.88695">
        <ele>127.8</ele>
        <time>2014-05-01T06:28:38Z</time>
      </trkpt>
      <trkpt lat="44.74992" lon="4.88688">
        <ele>127.6</ele>
        <time>2014-05-01T06:28:39Z</time>
      </trkpt>
      <trkpt lat="44.74996" lon="4.88681">
        <ele>127.4</ele>
        <time>2014-05-01T06:28:40Z</time>
      </trkpt>
      <trkpt lat="44.74999" lon="4.88675">
        <ele>127.1</ele>
        <time>2014-05-01T06:28:41Z</time>
      </trkpt>
      <trkpt lat="44.75003" lon="4.88668">
        <ele>127</ele>
        <time>2014-05-01T06:28:42Z</time>
      </trkpt>
      <trkpt lat="44.75006" lon="4.88661">
        <ele>127.2</ele>
        <time>2014-05-01T06:28:43Z</time>
      </trkpt>
      <trkpt lat="44.7501" lon="4.88655">
        <ele>127.4</ele>
        <time>2014-05-01T06:28:44Z</time>
      </trkpt>
      <trkpt lat="44.75014" lon="4.88648">
        <ele>127.6</ele>
        <time>2014-05-01T06:28:45Z</time>
      </trkpt>
      <trkpt lat="44.75018" lon="4.88642">
        <ele>127.7</ele>
        <time>2014-05-01T06:28:46Z</time>
      </trkpt>
      <trkpt lat="44.75022" lon="4.88635">
        <ele>127.8</ele>
        <time>2014-05-01T06:28:47Z</time>
      </trkpt>
      <trkpt lat="44.75025" lon="4.88628">
        <ele>128</ele>
        <time>2014-05-01T06:28:48Z</time>
      </trkpt>
      <trkpt lat="44.75029" lon="4.8862">
        <ele>128.1</ele>
        <time>2014-05-01T06:28:49Z</time>
      </trkpt>
      <trkpt lat="44.75033" lon="4.88613">
        <ele>128.2</ele>
        <time>2014-05-01T06:28:50Z</time>
      </trkpt>
      <trkpt lat="44.75037" lon="4.88606">
        <ele>128.3</ele>
        <time>2014-05-01T06:28:51Z</time>
      </trkpt>
      <trkpt lat="44.7504" lon="4.886">
        <ele>128.3</ele>
        <time>2014-05-01T06:28:52Z</time>
      </trkpt>
      <trkpt lat="44.75045" lon="4.88593">
        <ele>128.4</ele>
        <time>2014-05-01T06:28:53Z</time>
      </trkpt>
      <trkpt lat="44.75049" lon="4.88587">
        <ele>128.4</ele>
        <time>2014-05-01T06:28:54Z</time>
      </trkpt>
      <trkpt lat="44.75057" lon="4.88574">
        <ele>128.6</ele>
        <time>2014-05-01T06:28:56Z</time>
      </trkpt>
      <trkpt lat="44.75061" lon="4.88568">
        <ele>128.7</ele>
        <time>2014-05-01T06:28:57Z</time>
      </trkpt>
      <trkpt lat="44.75065" lon="4.88562">
        <ele>128.7</ele>
        <time>2014-05-01T06:28:58Z</time>
      </trkpt>
      <trkpt lat="44.75068" lon="4.88555">
        <ele>128.8</ele>
        <time>2014-05-01T06:28:59Z</time>
      </trkpt>
      <trkpt lat="44.75072" lon="4.88547">
        <ele>128.8</ele>
        <time>2014-05-01T06:29:00Z</time>
      </trkpt>
      <trkpt lat="44.75075" lon="4.8854">
        <ele>128.8</ele>
        <time>2014-05-01T06:29:01Z</time>
      </trkpt>
      <trkpt lat="44.75079" lon="4.88532">
        <ele>128.8</ele>
        <time>2014-05-01T06:29:02Z</time>
      </trkpt>
      <trkpt lat="44.75083" lon="4.88524">
        <ele>128.7</ele>
        <time>2014-05-01T06:29:03Z</time>
      </trkpt>
      <trkpt lat="44.75087" lon="4.88517">
        <ele>129</ele>
        <time>2014-05-01T06:29:04Z</time>
      </trkpt>
      <trkpt lat="44.75091" lon="4.8851">
        <ele>129.2</ele>
        <time>2014-05-01T06:29:05Z</time>
      </trkpt>
      <trkpt lat="44.75094" lon="4.88503">
        <ele>129.5</ele>
        <time>2014-05-01T06:29:06Z</time>
      </trkpt>
      <trkpt lat="44.75097" lon="4.88496">
        <ele>129.5</ele>
        <time>2014-05-01T06:29:07Z</time>
      </trkpt>
      <trkpt lat="44.75099" lon="4.88489">
        <ele>129.4</ele>
        <time>2014-05-01T06:29:08Z</time>
      </trkpt>
      <trkpt lat="44.75101" lon="4.88482">
        <ele>129.4</ele>
        <time>2014-05-01T06:29:09Z</time>
      </trkpt>
      <trkpt lat="44.75103" lon="4.88475">
        <ele>129.2</ele>
        <time>2014-05-01T06:29:10Z</time>
      </trkpt>
      <trkpt lat="44.75104" lon="4.88467">
        <ele>129.1</ele>
        <time>2014-05-01T06:29:11Z</time>
      </trkpt>
      <trkpt lat="44.75105" lon="4.88459">
        <ele>128.9</ele>
        <time>2014-05-01T06:29:12Z</time>
      </trkpt>
      <trkpt lat="44.75106" lon="4.88452">
        <ele>128.8</ele>
        <time>2014-05-01T06:29:13Z</time>
      </trkpt>
      <trkpt lat="44.75106" lon="4.88445">
        <ele>128.6</ele>
        <time>2014-05-01T06:29:14Z</time>
      </trkpt>
      <trkpt lat="44.75107" lon="4.88438">
        <ele>128.4</ele>
        <time>2014-05-01T06:29:15Z</time>
      </trkpt>
      <trkpt lat="44.75107" lon="4.88431">
        <ele>128.2</ele>
        <time>2014-05-01T06:29:16Z</time>
      </trkpt>
      <trkpt lat="44.75107" lon="4.88425">
        <ele>128.1</ele>
        <time>2014-05-01T06:29:17Z</time>
      </trkpt>
      <trkpt lat="44.75107" lon="4.88418">
        <ele>127.9</ele>
        <time>2014-05-01T06:29:18Z</time>
      </trkpt>
      <trkpt lat="44.75104" lon="4.88408">
        <ele>127.7</ele>
        <time>2014-05-01T06:29:20Z</time>
      </trkpt>
      <trkpt lat="44.75098" lon="4.88401">
        <ele>127.5</ele>
        <time>2014-05-01T06:29:22Z</time>
      </trkpt>
      <trkpt lat="44.75091" lon="4.884">
        <ele>127.2</ele>
        <time>2014-05-01T06:29:24Z</time>
      </trkpt>
      <trkpt lat="44.75082" lon="4.88399">
        <ele>127.1</ele>
        <time>2014-05-01T06:29:26Z</time>
      </trkpt>
      <trkpt lat="44.75074" lon="4.88401">
        <ele>127.5</ele>
        <time>2014-05-01T06:29:28Z</time>
      </trkpt>
      <trkpt lat="44.75066" lon="4.88403">
        <ele>128</ele>
        <time>2014-05-01T06:29:30Z</time>
      </trkpt>
      <trkpt lat="44.75058" lon="4.88404">
        <ele>128.4</ele>
        <time>2014-05-01T06:29:32Z</time>
      </trkpt>
      <trkpt lat="44.7505" lon="4.88404">
        <ele>128.8</ele>
        <time>2014-05-01T06:29:34Z</time>
      </trkpt>
      <trkpt lat="44.75044" lon="4.88403">
        <ele>129.2</ele>
        <time>2014-05-01T06:29:36Z</time>
      </trkpt>
      <trkpt lat="44.75038" lon="4.88403">
        <ele>129.5</ele>
        <time>2014-05-01T06:29:38Z</time>
      </trkpt>
      <trkpt lat="44.75032" lon="4.88402">
        <ele>129.9</ele>
        <time>2014-05-01T06:29:40Z</time>
      </trkpt>
      <trkpt lat="44.75026" lon="4.88401">
        <ele>130.2</ele>
        <time>2014-05-01T06:29:42Z</time>
      </trkpt>
      <trkpt lat="44.75021" lon="4.88402">
        <ele>130.5</ele>
        <time>2014-05-01T06:29:44Z</time>
      </trkpt>
      <trkpt lat="44.75015" lon="4.88404">
        <ele>130.8</ele>
        <time>2014-05-01T06:29:46Z</time>
      </trkpt>
      <trkpt lat="44.7501" lon="4.88405">
        <ele>131.1</ele>
        <time>2014-05-01T06:29:48Z</time>
      </trkpt>
      <trkpt lat="44.75005" lon="4.88407">
        <ele>131.5</ele>
        <time>2014-05-01T06:29:50Z</time>
      </trkpt>
      <trkpt lat="44.75" lon="4.8841">
        <ele>131.8</ele>
        <time>2014-05-01T06:29:52Z</time>
      </trkpt>
      <trkpt lat="44.74995" lon="4.88413">
        <ele>132.2</ele>
        <time>2014-05-01T06:29:54Z</time>
      </trkpt>
      <trkpt lat="44.74989" lon="4.88416">
        <ele>132.6</ele>
        <time>2014-05-01T06:29:56Z</time>
      </trkpt>
      <trkpt lat="44.74978" lon="4.88419">
        <ele>133.4</ele>
        <time>2014-05-01T06:30:00Z</time>
      </trkpt>
      <trkpt lat="44.74973" lon="4.88419">
        <ele>133.7</ele>
        <time>2014-05-01T06:30:02Z</time>
      </trkpt>
      <trkpt lat="44.74968" lon="4.88418">
        <ele>134</ele>
        <time>2014-05-01T06:30:04Z</time>
      </trkpt>
      <trkpt lat="44.74963" lon="4.88417">
        <ele>134.2</ele>
        <time>2014-05-01T06:30:06Z</time>
      </trkpt>
      <trkpt lat="44.74958" lon="4.88415">
        <ele>134.5</ele>
        <time>2014-05-01T06:30:08Z</time>
      </trkpt>
      <trkpt lat="44.74953" lon="4.88413">
        <ele>134.8</ele>
        <time>2014-05-01T06:30:10Z</time>
      </trkpt>
      <trkpt lat="44.74949" lon="4.8841">
        <ele>135</ele>
        <time>2014-05-01T06:30:12Z</time>
      </trkpt>
      <trkpt lat="44.74945" lon="4.88408">
        <ele>135.3</ele>
        <time>2014-05-01T06:30:14Z</time>
      </trkpt>
      <trkpt lat="44.7494" lon="4.88407">
        <ele>135.6</ele>
        <time>2014-05-01T06:30:16Z</time>
      </trkpt>
      <trkpt lat="44.74934" lon="4.88405">
        <ele>136</ele>
        <time>2014-05-01T06:30:19Z</time>
      </trkpt>
      <trkpt lat="44.74928" lon="4.88405">
        <ele>136.4</ele>
        <time>2014-05-01T06:30:22Z</time>
      </trkpt>
      <trkpt lat="44.74924" lon="4.88409">
        <ele>136.6</ele>
        <time>2014-05-01T06:30:25Z</time>
      </trkpt>
      <trkpt lat="44.74922" lon="4.88416">
        <ele>136.7</ele>
        <time>2014-05-01T06:30:27Z</time>
      </trkpt>
      <trkpt lat="44.74921" lon="4.88424">
        <ele>137</ele>
        <time>2014-05-01T06:30:29Z</time>
      </trkpt>
      <trkpt lat="44.7492" lon="4.88432">
        <ele>137.3</ele>
        <time>2014-05-01T06:30:31Z</time>
      </trkpt>
      <trkpt lat="44.7492" lon="4.88441">
        <ele>137.7</ele>
        <time>2014-05-01T06:30:33Z</time>
      </trkpt>
      <trkpt lat="44.74918" lon="4.8845">
        <ele>138.1</ele>
        <time>2014-05-01T06:30:35Z</time>
      </trkpt>
      <trkpt lat="44.74917" lon="4.8846">
        <ele>138.5</ele>
        <time>2014-05-01T06:30:37Z</time>
      </trkpt>
      <trkpt lat="44.74914" lon="4.8847">
        <ele>139.1</ele>
        <time>2014-05-01T06:30:39Z</time>
      </trkpt>
      <trkpt lat="44.74912" lon="4.8848">
        <ele>139.7</ele>
        <time>2014-05-01T06:30:41Z</time>
      </trkpt>
      <trkpt lat="44.74908" lon="4.8849">
        <ele>140.2</ele>
        <time>2014-05-01T06:30:43Z</time>
      </trkpt>
      <trkpt lat="44.74904" lon="4.885">
        <ele>140.7</ele>
        <time>2014-05-01T06:30:45Z</time>
      </trkpt>
      <trkpt lat="44.74901" lon="4.8851">
        <ele>140.7</ele>
        <time>2014-05-01T06:30:47Z</time>
      </trkpt>
      <trkpt lat="44.74897" lon="4.88521">
        <ele>140.7</ele>
        <time>2014-05-01T06:30:49Z</time>
      </trkpt>
      <trkpt lat="44.74894" lon="4.88533">
        <ele>140.6</ele>
        <time>2014-05-01T06:30:51Z</time>
      </trkpt>
      <trkpt lat="44.74892" lon="4.88539">
        <ele>140.6</ele>
        <time>2014-05-01T06:30:52Z</time>
      </trkpt>
      <trkpt lat="44.7489" lon="4.88545">
        <ele>140.6</ele>
        <time>2014-05-01T06:30:53Z</time>
      </trkpt>
      <trkpt lat="44.74887" lon="4.88552">
        <ele>140.5</ele>
        <time>2014-05-01T06:30:54Z</time>
      </trkpt>
      <trkpt lat="44.74884" lon="4.88558">
        <ele>140.6</ele>
        <time>2014-05-01T06:30:55Z</time>
      </trkpt>
      <trkpt lat="44.74881" lon="4.88564">
        <ele>140.6</ele>
        <time>2014-05-01T06:30:56Z</time>
      </trkpt>
      <trkpt lat="44.74877" lon="4.8857">
        <ele>140.7</ele>
        <time>2014-05-01T06:30:57Z</time>
      </trkpt>
      <trkpt lat="44.74874" lon="4.88575">
        <ele>140.7</ele>
        <time>2014-05-01T06:30:58Z</time>
      </trkpt>
      <trkpt lat="44.74868" lon="4.88587">
        <ele>140.7</ele>
        <time>2014-05-01T06:31:00Z</time>
      </trkpt>
      <trkpt lat="44.74865" lon="4.88593">
        <ele>140.6</ele>
        <time>2014-05-01T06:31:01Z</time>
      </trkpt>
      <trkpt lat="44.74861" lon="4.88599">
        <ele>140.5</ele>
        <time>2014-05-01T06:31:02Z</time>
      </trkpt>
      <trkpt lat="44.74857" lon="4.88607">
        <ele>140.2</ele>
        <time>2014-05-01T06:31:04Z</time>
      </trkpt>
      <trkpt lat="44.74854" lon="4.88613">
        <ele>140.1</ele>
        <time>2014-05-01T06:31:07Z</time>
      </trkpt>
      <trkpt lat="44.74848" lon="4.88618">
        <ele>140.3</ele>
        <time>2014-05-01T06:31:10Z</time>
      </trkpt>
      <trkpt lat="44.74842" lon="4.88622">
        <ele>140.5</ele>
        <time>2014-05-01T06:31:12Z</time>
      </trkpt>
      <trkpt lat="44.74834" lon="4.88624">
        <ele>141</ele>
        <time>2014-05-01T06:31:14Z</time>
      </trkpt>
      <trkpt lat="44.74826" lon="4.8863">
        <ele>141</ele>
        <time>2014-05-01T06:31:16Z</time>
      </trkpt>
      <trkpt lat="44.74822" lon="4.88634">
        <ele>140.9</ele>
        <time>2014-05-01T06:31:17Z</time>
      </trkpt>
      <trkpt lat="44.74818" lon="4.88637">
        <ele>140.7</ele>
        <time>2014-05-01T06:31:18Z</time>
      </trkpt>
      <trkpt lat="44.74812" lon="4.88643">
        <ele>140.6</ele>
        <time>2014-05-01T06:31:20Z</time>
      </trkpt>
      <trkpt lat="44.74806" lon="4.88646">
        <ele>140.6</ele>
        <time>2014-05-01T06:31:22Z</time>
      </trkpt>
      <trkpt lat="44.74799" lon="4.88647">
        <ele>140.6</ele>
        <time>2014-05-01T06:31:24Z</time>
      </trkpt>
      <trkpt lat="44.7479" lon="4.8865">
        <ele>140.5</ele>
        <time>2014-05-01T06:31:26Z</time>
      </trkpt>
      <trkpt lat="44.74784" lon="4.88652">
        <ele>140.6</ele>
        <time>2014-05-01T06:31:27Z</time>
      </trkpt>
      <trkpt lat="44.74778" lon="4.88654">
        <ele>140.5</ele>
        <time>2014-05-01T06:31:28Z</time>
      </trkpt>
      <trkpt lat="44.74771" lon="4.88655">
        <ele>140.5</ele>
        <time>2014-05-01T06:31:29Z</time>
      </trkpt>
      <trkpt lat="44.74764" lon="4.88657">
        <ele>140.5</ele>
        <time>2014-05-01T06:31:30Z</time>
      </trkpt>
      <trkpt lat="44.74757" lon="4.88662">
        <ele>140.3</ele>
        <time>2014-05-01T06:31:31Z</time>
      </trkpt>
      <trkpt lat="44.74751" lon="4.88668">
        <ele>139.9</ele>
        <time>2014-05-01T06:31:32Z</time>
      </trkpt>
      <trkpt lat="44.74746" lon="4.88675">
        <ele>139.6</ele>
        <time>2014-05-01T06:31:33Z</time>
      </trkpt>
      <trkpt lat="44.74741" lon="4.88681">
        <ele>139.5</ele>
        <time>2014-05-01T06:31:34Z</time>
      </trkpt>
      <trkpt lat="44.74736" lon="4.88684">
        <ele>139.4</ele>
        <time>2014-05-01T06:31:35Z</time>
      </trkpt>
      <trkpt lat="44.74731" lon="4.88685">
        <ele>139.5</ele>
        <time>2014-05-01T06:31:36Z</time>
      </trkpt>
      <trkpt lat="44.74727" lon="4.88683">
        <ele>139.7</ele>
        <time>2014-05-01T06:31:37Z</time>
      </trkpt>
      <trkpt lat="44.7472" lon="4.88678">
        <ele>140.2</ele>
        <time>2014-05-01T06:31:39Z</time>
      </trkpt>
      <trkpt lat="44.74715" lon="4.88673">
        <ele>140.5</ele>
        <time>2014-05-01T06:31:41Z</time>
      </trkpt>
      <trkpt lat="44.74709" lon="4.88668">
        <ele>140.9</ele>
        <time>2014-05-01T06:31:43Z</time>
      </trkpt>
      <trkpt lat="44.74703" lon="4.88663">
        <ele>141.4</ele>
        <time>2014-05-01T06:31:45Z</time>
      </trkpt>
      <trkpt lat="44.74696" lon="4.88658">
        <ele>142</ele>
        <time>2014-05-01T06:31:47Z</time>
      </trkpt>
      <trkpt lat="44.7469" lon="4.88653">
        <ele>142.6</ele>
        <time>2014-05-01T06:31:49Z</time>
      </trkpt>
      <trkpt lat="44.74684" lon="4.8865">
        <ele>143</ele>
        <time>2014-05-01T06:31:51Z</time>
      </trkpt>
      <trkpt lat="44.74677" lon="4.88646">
        <ele>143.5</ele>
        <time>2014-05-01T06:31:53Z</time>
      </trkpt>
      <trkpt lat="44.7467" lon="4.88642">
        <ele>144.1</ele>
        <time>2014-05-01T06:31:55Z</time>
      </trkpt>
      <trkpt lat="44.74663" lon="4.88638">
        <ele>144.7</ele>
        <time>2014-05-01T06:31:57Z</time>
      </trkpt>
      <trkpt lat="44.74656" lon="4.88634">
        <ele>145.3</ele>
        <time>2014-05-01T06:31:59Z</time>
      </trkpt>
      <trkpt lat="44.74641" lon="4.88625">
        <ele>146.4</ele>
        <time>2014-05-01T06:32:03Z</time>
      </trkpt>
      <trkpt lat="44.74634" lon="4.88621">
        <ele>146.9</ele>
        <time>2014-05-01T06:32:05Z</time>
      </trkpt>
      <trkpt lat="44.74628" lon="4.88617">
        <ele>147.3</ele>
        <time>2014-05-01T06:32:07Z</time>
      </trkpt>
      <trkpt lat="44.74621" lon="4.88613">
        <ele>147.7</ele>
        <time>2014-05-01T06:32:09Z</time>
      </trkpt>
      <trkpt lat="44.74615" lon="4.8861">
        <ele>148</ele>
        <time>2014-05-01T06:32:11Z</time>
      </trkpt>
      <trkpt lat="44.74609" lon="4.88606">
        <ele>148.2</ele>
        <time>2014-05-01T06:32:13Z</time>
      </trkpt>
      <trkpt lat="44.74603" lon="4.88602">
        <ele>148.5</ele>
        <time>2014-05-01T06:32:15Z</time>
      </trkpt>
      <trkpt lat="44.74597" lon="4.88598">
        <ele>148.7</ele>
        <time>2014-05-01T06:32:17Z</time>
      </trkpt>
      <trkpt lat="44.74592" lon="4.88594">
        <ele>148.8</ele>
        <time>2014-05-01T06:32:19Z</time>
      </trkpt>
      <trkpt lat="44.74587" lon="4.88589">
        <ele>148.9</ele>
        <time>2014-05-01T06:32:21Z</time>
      </trkpt>
      <trkpt lat="44.74582" lon="4.88585">
        <ele>149</ele>
        <time>2014-05-01T06:32:23Z</time>
      </trkpt>
      <trkpt lat="44.74577" lon="4.8858">
        <ele>149.7</ele>
        <time>2014-05-01T06:32:25Z</time>
      </trkpt>
      <trkpt lat="44.74571" lon="4.88576">
        <ele>150.3</ele>
        <time>2014-05-01T06:32:27Z</time>
      </trkpt>
      <trkpt lat="44.74566" lon="4.88571">
        <ele>151</ele>
        <time>2014-05-01T06:32:29Z</time>
      </trkpt>
      <trkpt lat="44.74559" lon="4.88565">
        <ele>151.7</ele>
        <time>2014-05-01T06:32:31Z</time>
      </trkpt>
      <trkpt lat="44.74554" lon="4.88563">
        <ele>152</ele>
        <time>2014-05-01T06:32:32Z</time>
      </trkpt>
      <trkpt lat="44.74548" lon="4.88559">
        <ele>152.6</ele>
        <time>2014-05-01T06:32:34Z</time>
      </trkpt>
      <trkpt lat="44.74542" lon="4.88553">
        <ele>153.1</ele>
        <time>2014-05-01T06:32:36Z</time>
      </trkpt>
      <trkpt lat="44.74537" lon="4.88548">
        <ele>153.7</ele>
        <time>2014-05-01T06:32:38Z</time>
      </trkpt>
      <trkpt lat="44.74531" lon="4.88544">
        <ele>154.1</ele>
        <time>2014-05-01T06:32:40Z</time>
      </trkpt>
      <trkpt lat="44.74525" lon="4.8854">
        <ele>154.5</ele>
        <time>2014-05-01T06:32:42Z</time>
      </trkpt>
      <trkpt lat="44.74518" lon="4.88536">
        <ele>154.9</ele>
        <time>2014-05-01T06:32:44Z</time>
      </trkpt>
      <trkpt lat="44.74512" lon="4.88532">
        <ele>155.3</ele>
        <time>2014-05-01T06:32:46Z</time>
      </trkpt>
      <trkpt lat="44.74506" lon="4.88529">
        <ele>155.5</ele>
        <time>2014-05-01T06:32:48Z</time>
      </trkpt>
      <trkpt lat="44.745" lon="4.88525">
        <ele>155.8</ele>
        <time>2014-05-01T06:32:50Z</time>
      </trkpt>
      <trkpt lat="44.74494" lon="4.88522">
        <ele>156.2</ele>
        <time>2014-05-01T06:32:52Z</time>
      </trkpt>
      <trkpt lat="44.74488" lon="4.88519">
        <ele>156.5</ele>
        <time>2014-05-01T06:32:54Z</time>
      </trkpt>
      <trkpt lat="44.74481" lon="4.88517">
        <ele>156.7</ele>
        <time>2014-05-01T06:32:56Z</time>
      </trkpt>
      <trkpt lat="44.74475" lon="4.88515">
        <ele>156.9</ele>
        <time>2014-05-01T06:32:58Z</time>
      </trkpt>
      <trkpt lat="44.74469" lon="4.88513">
        <ele>157</ele>
        <time>2014-05-01T06:33:00Z</time>
      </trkpt>
      <trkpt lat="44.74463" lon="4.8851">
        <ele>156.9</ele>
        <time>2014-05-01T06:33:02Z</time>
      </trkpt>
      <trkpt lat="44.74449" lon="4.88507">
        <ele>156.9</ele>
        <time>2014-05-01T06:33:06Z</time>
      </trkpt>
      <trkpt lat="44.74441" lon="4.88506">
        <ele>156.8</ele>
        <time>2014-05-01T06:33:08Z</time>
      </trkpt>
      <trkpt lat="44.74434" lon="4.88502">
        <ele>156.4</ele>
        <time>2014-05-01T06:33:10Z</time>
      </trkpt>
      <trkpt lat="44.74427" lon="4.88499">
        <ele>156.4</ele>
        <time>2014-05-01T06:33:12Z</time>
      </trkpt>
      <trkpt lat="44.7442" lon="4.88496">
        <ele>156.7</ele>
        <time>2014-05-01T06:33:14Z</time>
      </trkpt>
      <trkpt lat="44.74412" lon="4.88493">
        <ele>157.5</ele>
        <time>2014-05-01T06:33:16Z</time>
      </trkpt>
      <trkpt lat="44.74405" lon="4.88489">
        <ele>158.5</ele>
        <time>2014-05-01T06:33:18Z</time>
      </trkpt>
      <trkpt lat="44.74399" lon="4.88486">
        <ele>159.1</ele>
        <time>2014-05-01T06:33:20Z</time>
      </trkpt>
      <trkpt lat="44.74392" lon="4.88481">
        <ele>160</ele>
        <time>2014-05-01T06:33:22Z</time>
      </trkpt>
      <trkpt lat="44.74386" lon="4.88478">
        <ele>160.6</ele>
        <time>2014-05-01T06:33:24Z</time>
      </trkpt>
      <trkpt lat="44.74379" lon="4.88474">
        <ele>161.2</ele>
        <time>2014-05-01T06:33:26Z</time>
      </trkpt>
      <trkpt lat="44.74373" lon="4.8847">
        <ele>161.8</ele>
        <time>2014-05-01T06:33:28Z</time>
      </trkpt>
      <trkpt lat="44.74366" lon="4.88466">
        <ele>162.3</ele>
        <time>2014-05-01T06:33:30Z</time>
      </trkpt>
      <trkpt lat="44.74359" lon="4.88462">
        <ele>162.7</ele>
        <time>2014-05-01T06:33:32Z</time>
      </trkpt>
      <trkpt lat="44.74352" lon="4.88458">
        <ele>163.1</ele>
        <time>2014-05-01T06:33:34Z</time>
      </trkpt>
      <trkpt lat="44.74345" lon="4.8845">
        <ele>163.6</ele>
        <time>2014-05-01T06:33:36Z</time>
      </trkpt>
      <trkpt lat="44.74342" lon="4.88445">
        <ele>163.9</ele>
        <time>2014-05-01T06:33:37Z</time>
      </trkpt>
      <trkpt lat="44.74338" lon="4.88436">
        <ele>164.3</ele>
        <time>2014-05-01T06:33:39Z</time>
      </trkpt>
      <trkpt lat="44.74333" lon="4.88428">
        <ele>164.5</ele>
        <time>2014-05-01T06:33:41Z</time>
      </trkpt>
      <trkpt lat="44.74329" lon="4.88421">
        <ele>164.8</ele>
        <time>2014-05-01T06:33:43Z</time>
      </trkpt>
      <trkpt lat="44.74324" lon="4.88415">
        <ele>165.5</ele>
        <time>2014-05-01T06:33:45Z</time>
      </trkpt>
      <trkpt lat="44.7432" lon="4.88409">
        <ele>167</ele>
        <time>2014-05-01T06:33:47Z</time>
      </trkpt>
      <trkpt lat="44.74315" lon="4.88403">
        <ele>168.1</ele>
        <time>2014-05-01T06:33:49Z</time>
      </trkpt>
      <trkpt lat="44.7431" lon="4.88398">
        <ele>169.3</ele>
        <time>2014-05-01T06:33:51Z</time>
      </trkpt>
      <trkpt lat="44.74304" lon="4.88393">
        <ele>170.4</ele>
        <time>2014-05-01T06:33:53Z</time>
      </trkpt>
      <trkpt lat="44.74299" lon="4.8839">
        <ele>170.9</ele>
        <time>2014-05-01T06:33:55Z</time>
      </trkpt>
      <trkpt lat="44.74293" lon="4.88389">
        <ele>171.1</ele>
        <time>2014-05-01T06:33:57Z</time>
      </trkpt>
      <trkpt lat="44.74287" lon="4.88387">
        <ele>171.2</ele>
        <time>2014-05-01T06:33:59Z</time>
      </trkpt>
      <trkpt lat="44.74281" lon="4.88386">
        <ele>171.4</ele>
        <time>2014-05-01T06:34:01Z</time>
      </trkpt>
      <trkpt lat="44.74275" lon="4.88384">
        <ele>171.9</ele>
        <time>2014-05-01T06:34:03Z</time>
      </trkpt>
      <trkpt lat="44.74269" lon="4.88382">
        <ele>172</ele>
        <time>2014-05-01T06:34:05Z</time>
      </trkpt>
      <trkpt lat="44.74258" lon="4.88376">
        <ele>173.2</ele>
        <time>2014-05-01T06:34:09Z</time>
      </trkpt>
      <trkpt lat="44.74252" lon="4.88375">
        <ele>173.3</ele>
        <time>2014-05-01T06:34:11Z</time>
      </trkpt>
      <trkpt lat="44.74246" lon="4.88373">
        <ele>173.5</ele>
        <time>2014-05-01T06:34:13Z</time>
      </trkpt>
      <trkpt lat="44.7424" lon="4.88371">
        <ele>174</ele>
        <time>2014-05-01T06:34:15Z</time>
      </trkpt>
      <trkpt lat="44.74234" lon="4.88368">
        <ele>174.5</ele>
        <time>2014-05-01T06:34:17Z</time>
      </trkpt>
      <trkpt lat="44.74228" lon="4.88366">
        <ele>174.6</ele>
        <time>2014-05-01T06:34:19Z</time>
      </trkpt>
      <trkpt lat="44.74222" lon="4.88363">
        <ele>175.3</ele>
        <time>2014-05-01T06:34:21Z</time>
      </trkpt>
      <trkpt lat="44.74216" lon="4.88358">
        <ele>175.9</ele>
        <time>2014-05-01T06:34:23Z</time>
      </trkpt>
      <trkpt lat="44.74211" lon="4.88354">
        <ele>176.5</ele>
        <time>2014-05-01T06:34:25Z</time>
      </trkpt>
      <trkpt lat="44.74206" lon="4.8835">
        <ele>177</ele>
        <time>2014-05-01T06:34:27Z</time>
      </trkpt>
      <trkpt lat="44.74201" lon="4.88347">
        <ele>177.5</ele>
        <time>2014-05-01T06:34:29Z</time>
      </trkpt>
      <trkpt lat="44.74196" lon="4.88343">
        <ele>177.9</ele>
        <time>2014-05-01T06:34:31Z</time>
      </trkpt>
      <trkpt lat="44.74191" lon="4.88338">
        <ele>178.5</ele>
        <time>2014-05-01T06:34:33Z</time>
      </trkpt>
      <trkpt lat="44.74185" lon="4.88334">
        <ele>178.9</ele>
        <time>2014-05-01T06:34:35Z</time>
      </trkpt>
      <trkpt lat="44.74181" lon="4.88331">
        <ele>179.9</ele>
        <time>2014-05-01T06:34:37Z</time>
      </trkpt>
      <trkpt lat="44.74176" lon="4.88326">
        <ele>180.9</ele>
        <time>2014-05-01T06:34:39Z</time>
      </trkpt>
      <trkpt lat="44.74171" lon="4.88323">
        <ele>181.5</ele>
        <time>2014-05-01T06:34:41Z</time>
      </trkpt>
      <trkpt lat="44.74166" lon="4.8832">
        <ele>182.6</ele>
        <time>2014-05-01T06:34:43Z</time>
      </trkpt>
      <trkpt lat="44.74162" lon="4.88317">
        <ele>182.9</ele>
        <time>2014-05-01T06:34:45Z</time>
      </trkpt>
      <trkpt lat="44.74157" lon="4.88313">
        <ele>183.6</ele>
        <time>2014-05-01T06:34:47Z</time>
      </trkpt>
      <trkpt lat="44.74152" lon="4.88309">
        <ele>184.3</ele>
        <time>2014-05-01T06:34:49Z</time>
      </trkpt>
      <trkpt lat="44.74147" lon="4.88306">
        <ele>184.5</ele>
        <time>2014-05-01T06:34:51Z</time>
      </trkpt>
      <trkpt lat="44.74142" lon="4.88303">
        <ele>185.1</ele>
        <time>2014-05-01T06:34:53Z</time>
      </trkpt>
      <trkpt lat="44.74137" lon="4.88299">
        <ele>185.7</ele>
        <time>2014-05-01T06:34:55Z</time>
      </trkpt>
      <trkpt lat="44.74132" lon="4.88295">
        <ele>186.3</ele>
        <time>2014-05-01T06:34:57Z</time>
      </trkpt>
      <trkpt lat="44.74127" lon="4.88292">
        <ele>186.5</ele>
        <time>2014-05-01T06:34:59Z</time>
      </trkpt>
      <trkpt lat="44.74122" lon="4.88289">
        <ele>187.1</ele>
        <time>2014-05-01T06:35:01Z</time>
      </trkpt>
      <trkpt lat="44.74117" lon="4.88285">
        <ele>187.6</ele>
        <time>2014-05-01T06:35:03Z</time>
      </trkpt>
      <trkpt lat="44.74112" lon="4.88281">
        <ele>188.2</ele>
        <time>2014-05-01T06:35:05Z</time>
      </trkpt>
      <trkpt lat="44.74107" lon="4.88277">
        <ele>188.6</ele>
        <time>2014-05-01T06:35:07Z</time>
      </trkpt>
      <trkpt lat="44.74096" lon="4.88269">
        <ele>189.5</ele>
        <time>2014-05-01T06:35:11Z</time>
      </trkpt>
      <trkpt lat="44.74091" lon="4.88265">
        <ele>190</ele>
        <time>2014-05-01T06:35:13Z</time>
      </trkpt>
      <trkpt lat="44.74086" lon="4.88261">
        <ele>190.4</ele>
        <time>2014-05-01T06:35:15Z</time>
      </trkpt>
      <trkpt lat="44.74081" lon="4.88258">
        <ele>190.5</ele>
        <time>2014-05-01T06:35:17Z</time>
      </trkpt>
      <trkpt lat="44.74077" lon="4.88255">
        <ele>190.4</ele>
        <time>2014-05-01T06:35:19Z</time>
      </trkpt>
      <trkpt lat="44.74072" lon="4.88253">
        <ele>190.5</ele>
        <time>2014-05-01T06:35:21Z</time>
      </trkpt>
      <trkpt lat="44.74068" lon="4.88249">
        <ele>190.8</ele>
        <time>2014-05-01T06:35:23Z</time>
      </trkpt>
      <trkpt lat="44.74064" lon="4.88246">
        <ele>190.9</ele>
        <time>2014-05-01T06:35:25Z</time>
      </trkpt>
      <trkpt lat="44.74059" lon="4.88242">
        <ele>191.8</ele>
        <time>2014-05-01T06:35:27Z</time>
      </trkpt>
      <trkpt lat="44.74054" lon="4.88238">
        <ele>192.2</ele>
        <time>2014-05-01T06:35:29Z</time>
      </trkpt>
      <trkpt lat="44.74049" lon="4.88235">
        <ele>192.3</ele>
        <time>2014-05-01T06:35:31Z</time>
      </trkpt>
      <trkpt lat="44.74045" lon="4.88231">
        <ele>192.8</ele>
        <time>2014-05-01T06:35:33Z</time>
      </trkpt>
      <trkpt lat="44.7404" lon="4.88226">
        <ele>193.5</ele>
        <time>2014-05-01T06:35:36Z</time>
      </trkpt>
      <trkpt lat="44.74036" lon="4.88221">
        <ele>194.1</ele>
        <time>2014-05-01T06:35:38Z</time>
      </trkpt>
      <trkpt lat="44.74031" lon="4.88215">
        <ele>195.3</ele>
        <time>2014-05-01T06:35:41Z</time>
      </trkpt>
      <trkpt lat="44.74027" lon="4.88209">
        <ele>196.8</ele>
        <time>2014-05-01T06:35:43Z</time>
      </trkpt>
      <trkpt lat="44.74024" lon="4.88204">
        <ele>197.9</ele>
        <time>2014-05-01T06:35:45Z</time>
      </trkpt>
      <trkpt lat="44.74021" lon="4.882">
        <ele>198.4</ele>
        <time>2014-05-01T06:35:47Z</time>
      </trkpt>
      <trkpt lat="44.74017" lon="4.88194">
        <ele>199.8</ele>
        <time>2014-05-01T06:35:49Z</time>
      </trkpt>
      <trkpt lat="44.74013" lon="4.88187">
        <ele>201.3</ele>
        <time>2014-05-01T06:35:51Z</time>
      </trkpt>
      <trkpt lat="44.7401" lon="4.88181">
        <ele>202.3</ele>
        <time>2014-05-01T06:35:53Z</time>
      </trkpt>
      <trkpt lat="44.74007" lon="4.88175">
        <ele>203.8</ele>
        <time>2014-05-01T06:35:55Z</time>
      </trkpt>
      <trkpt lat="44.74004" lon="4.8817">
        <ele>204.8</ele>
        <time>2014-05-01T06:35:57Z</time>
      </trkpt>
      <trkpt lat="44.74" lon="4.88164">
        <ele>206.1</ele>
        <time>2014-05-01T06:35:59Z</time>
      </trkpt>
      <trkpt lat="44.73997" lon="4.88158">
        <ele>206.7</ele>
        <time>2014-05-01T06:36:01Z</time>
      </trkpt>
      <trkpt lat="44.73994" lon="4.88151">
        <ele>207.7</ele>
        <time>2014-05-01T06:36:03Z</time>
      </trkpt>
      <trkpt lat="44.73992" lon="4.88145">
        <ele>208.8</ele>
        <time>2014-05-01T06:36:05Z</time>
      </trkpt>
      <trkpt lat="44.73988" lon="4.88138">
        <ele>209.5</ele>
        <time>2014-05-01T06:36:07Z</time>
      </trkpt>
      <trkpt lat="44.73986" lon="4.88133">
        <ele>210.1</ele>
        <time>2014-05-01T06:36:09Z</time>
      </trkpt>
      <trkpt lat="44.7398" lon="4.88121">
        <ele>211.7</ele>
        <time>2014-05-01T06:36:13Z</time>
      </trkpt>
      <trkpt lat="44.73978" lon="4.88114">
        <ele>212.7</ele>
        <time>2014-05-01T06:36:15Z</time>
      </trkpt>
      <trkpt lat="44.73975" lon="4.88109">
        <ele>213.1</ele>
        <time>2014-05-01T06:36:17Z</time>
      </trkpt>
      <trkpt lat="44.73972" lon="4.88102">
        <ele>213.7</ele>
        <time>2014-05-01T06:36:19Z</time>
      </trkpt>
      <trkpt lat="44.73969" lon="4.88096">
        <ele>214.4</ele>
        <time>2014-05-01T06:36:21Z</time>
      </trkpt>
      <trkpt lat="44.73966" lon="4.8809">
        <ele>214.6</ele>
        <time>2014-05-01T06:36:23Z</time>
      </trkpt>
      <trkpt lat="44.73964" lon="4.88083">
        <ele>215.7</ele>
        <time>2014-05-01T06:36:25Z</time>
      </trkpt>
      <trkpt lat="44.73961" lon="4.88077">
        <ele>215.9</ele>
        <time>2014-05-01T06:36:27Z</time>
      </trkpt>
      <trkpt lat="44.73959" lon="4.88071">
        <ele>216.3</ele>
        <time>2014-05-01T06:36:29Z</time>
      </trkpt>
      <trkpt lat="44.73957" lon="4.88065">
        <ele>216.7</ele>
        <time>2014-05-01T06:36:31Z</time>
      </trkpt>
      <trkpt lat="44.73956" lon="4.88059">
        <ele>217.4</ele>
        <time>2014-05-01T06:36:33Z</time>
      </trkpt>
      <trkpt lat="44.73954" lon="4.88053">
        <ele>218</ele>
        <time>2014-05-01T06:36:35Z</time>
      </trkpt>
      <trkpt lat="44.73952" lon="4.88046">
        <ele>218.6</ele>
        <time>2014-05-01T06:36:37Z</time>
      </trkpt>
      <trkpt lat="44.73949" lon="4.88039">
        <ele>219.1</ele>
        <time>2014-05-01T06:36:39Z</time>
      </trkpt>
      <trkpt lat="44.73946" lon="4.88032">
        <ele>219.7</ele>
        <time>2014-05-01T06:36:41Z</time>
      </trkpt>
      <trkpt lat="44.73943" lon="4.88025">
        <ele>220.1</ele>
        <time>2014-05-01T06:36:43Z</time>
      </trkpt>
      <trkpt lat="44.7394" lon="4.88018">
        <ele>221</ele>
        <time>2014-05-01T06:36:45Z</time>
      </trkpt>
      <trkpt lat="44.73937" lon="4.88011">
        <ele>221.4</ele>
        <time>2014-05-01T06:36:47Z</time>
      </trkpt>
      <trkpt lat="44.73934" lon="4.88005">
        <ele>221.9</ele>
        <time>2014-05-01T06:36:49Z</time>
      </trkpt>
      <trkpt lat="44.73931" lon="4.87998">
        <ele>222.2</ele>
        <time>2014-05-01T06:36:51Z</time>
      </trkpt>
      <trkpt lat="44.73928" lon="4.87992">
        <ele>221.7</ele>
        <time>2014-05-01T06:36:53Z</time>
      </trkpt>
      <trkpt lat="44.73925" lon="4.87985">
        <ele>221.3</ele>
        <time>2014-05-01T06:36:55Z</time>
      </trkpt>
      <trkpt lat="44.73922" lon="4.87979">
        <ele>220.9</ele>
        <time>2014-05-01T06:36:57Z</time>
      </trkpt>
      <trkpt lat="44.73919" lon="4.87973">
        <ele>220.5</ele>
        <time>2014-05-01T06:36:59Z</time>
      </trkpt>
      <trkpt lat="44.73916" lon="4.87967">
        <ele>220.3</ele>
        <time>2014-05-01T06:37:01Z</time>
      </trkpt>
      <trkpt lat="44.73913" lon="4.87961">
        <ele>219.7</ele>
        <time>2014-05-01T06:37:03Z</time>
      </trkpt>
      <trkpt lat="44.7391" lon="4.87955">
        <ele>219.1</ele>
        <time>2014-05-01T06:37:05Z</time>
      </trkpt>
      <trkpt lat="44.73907" lon="4.87948">
        <ele>218.6</ele>
        <time>2014-05-01T06:37:07Z</time>
      </trkpt>
      <trkpt lat="44.73904" lon="4.87942">
        <ele>218.1</ele>
        <time>2014-05-01T06:37:09Z</time>
      </trkpt>
      <trkpt lat="44.73902" lon="4.87935">
        <ele>217.7</ele>
        <time>2014-05-01T06:37:11Z</time>
      </trkpt>
      <trkpt lat="44.73895" lon="4.87923">
        <ele>216.7</ele>
        <time>2014-05-01T06:37:15Z</time>
      </trkpt>
      <trkpt lat="44.73891" lon="4.87917">
        <ele>216.1</ele>
        <time>2014-05-01T06:37:17Z</time>
      </trkpt>
      <trkpt lat="44.73887" lon="4.87912">
        <ele>215.5</ele>
        <time>2014-05-01T06:37:19Z</time>
      </trkpt>
      <trkpt lat="44.73882" lon="4.87906">
        <ele>214.6</ele>
        <time>2014-05-01T06:37:21Z</time>
      </trkpt>
      <trkpt lat="44.73878" lon="4.87901">
        <ele>214.1</ele>
        <time>2014-05-01T06:37:23Z</time>
      </trkpt>
      <trkpt lat="44.73873" lon="4.87897">
        <ele>213.4</ele>
        <time>2014-05-01T06:37:25Z</time>
      </trkpt>
      <trkpt lat="44.73868" lon="4.87893">
        <ele>212.6</ele>
        <time>2014-05-01T06:37:27Z</time>
      </trkpt>
      <trkpt lat="44.73863" lon="4.8789">
        <ele>211.9</ele>
        <time>2014-05-01T06:37:29Z</time>
      </trkpt>
      <trkpt lat="44.73858" lon="4.87885">
        <ele>211.8</ele>
        <time>2014-05-01T06:37:31Z</time>
      </trkpt>
      <trkpt lat="44.73854" lon="4.8788">
        <ele>211.4</ele>
        <time>2014-05-01T06:37:33Z</time>
      </trkpt>
      <trkpt lat="44.73849" lon="4.87875">
        <ele>211.3</ele>
        <time>2014-05-01T06:37:35Z</time>
      </trkpt>
      <trkpt lat="44.73843" lon="4.87871">
        <ele>211.2</ele>
        <time>2014-05-01T06:37:37Z</time>
      </trkpt>
      <trkpt lat="44.73837" lon="4.87867">
        <ele>211</ele>
        <time>2014-05-01T06:37:39Z</time>
      </trkpt>
      <trkpt lat="44.73832" lon="4.87863">
        <ele>210.8</ele>
        <time>2014-05-01T06:37:41Z</time>
      </trkpt>
      <trkpt lat="44.73825" lon="4.87859">
        <ele>210.7</ele>
        <time>2014-05-01T06:37:43Z</time>
      </trkpt>
      <trkpt lat="44.7382" lon="4.87855">
        <ele>210.6</ele>
        <time>2014-05-01T06:37:45Z</time>
      </trkpt>
      <trkpt lat="44.73815" lon="4.8785">
        <ele>210.6</ele>
        <time>2014-05-01T06:37:47Z</time>
      </trkpt>
      <trkpt lat="44.73809" lon="4.87846">
        <ele>210.9</ele>
        <time>2014-05-01T06:37:49Z</time>
      </trkpt>
      <trkpt lat="44.73803" lon="4.87841">
        <ele>211.3</ele>
        <time>2014-05-01T06:37:51Z</time>
      </trkpt>
      <trkpt lat="44.73797" lon="4.87836">
        <ele>211.3</ele>
        <time>2014-05-01T06:37:53Z</time>
      </trkpt>
      <trkpt lat="44.73792" lon="4.87831">
        <ele>211.8</ele>
        <time>2014-05-01T06:37:55Z</time>
      </trkpt>
      <trkpt lat="44.73787" lon="4.87826">
        <ele>212.4</ele>
        <time>2014-05-01T06:37:57Z</time>
      </trkpt>
      <trkpt lat="44.73781" lon="4.8782">
        <ele>213</ele>
        <time>2014-05-01T06:37:59Z</time>
      </trkpt>
      <trkpt lat="44.73776" lon="4.87815">
        <ele>214.1</ele>
        <time>2014-05-01T06:38:01Z</time>
      </trkpt>
      <trkpt lat="44.73771" lon="4.87809">
        <ele>214.8</ele>
        <time>2014-05-01T06:38:03Z</time>
      </trkpt>
      <trkpt lat="44.73765" lon="4.87805">
        <ele>215.2</ele>
        <time>2014-05-01T06:38:05Z</time>
      </trkpt>
      <trkpt lat="44.7376" lon="4.878">
        <ele>216</ele>
        <time>2014-05-01T06:38:07Z</time>
      </trkpt>
      <trkpt lat="44.73755" lon="4.87794">
        <ele>217.3</ele>
        <time>2014-05-01T06:38:09Z</time>
      </trkpt>
      <trkpt lat="44.7375" lon="4.87789">
        <ele>217.8</ele>
        <time>2014-05-01T06:38:11Z</time>
      </trkpt>
      <trkpt lat="44.73744" lon="4.87784">
        <ele>218.3</ele>
        <time>2014-05-01T06:38:13Z</time>
      </trkpt>
      <trkpt lat="44.73733" lon="4.87773">
        <ele>219.7</ele>
        <time>2014-05-01T06:38:17Z</time>
      </trkpt>
      <trkpt lat="44.73727" lon="4.87767">
        <ele>220</ele>
        <time>2014-05-01T06:38:19Z</time>
      </trkpt>
      <trkpt lat="44.73721" lon="4.87762">
        <ele>220.7</ele>
        <time>2014-05-01T06:38:21Z</time>
      </trkpt>
      <trkpt lat="44.73715" lon="4.87756">
        <ele>220.6</ele>
        <time>2014-05-01T06:38:23Z</time>
      </trkpt>
      <trkpt lat="44.73709" lon="4.87751">
        <ele>220.8</ele>
        <time>2014-05-01T06:38:25Z</time>
      </trkpt>
      <trkpt lat="44.73703" lon="4.87746">
        <ele>221.4</ele>
        <time>2014-05-01T06:38:27Z</time>
      </trkpt>
      <trkpt lat="44.73697" lon="4.87741">
        <ele>222</ele>
        <time>2014-05-01T06:38:29Z</time>
      </trkpt>
      <trkpt lat="44.73691" lon="4.87737">
        <ele>222.2</ele>
        <time>2014-05-01T06:38:31Z</time>
      </trkpt>
      <trkpt lat="44.73684" lon="4.87733">
        <ele>223.1</ele>
        <time>2014-05-01T06:38:33Z</time>
      </trkpt>
      <trkpt lat="44.73678" lon="4.87729">
        <ele>223.5</ele>
        <time>2014-05-01T06:38:35Z</time>
      </trkpt>
      <trkpt lat="44.73672" lon="4.87725">
        <ele>223.4</ele>
        <time>2014-05-01T06:38:37Z</time>
      </trkpt>
      <trkpt lat="44.73666" lon="4.87721">
        <ele>223.9</ele>
        <time>2014-05-01T06:38:39Z</time>
      </trkpt>
      <trkpt lat="44.7366" lon="4.87718">
        <ele>223.9</ele>
        <time>2014-05-01T06:38:41Z</time>
      </trkpt>
      <trkpt lat="44.73653" lon="4.87715">
        <ele>223.4</ele>
        <time>2014-05-01T06:38:43Z</time>
      </trkpt>
      <trkpt lat="44.73647" lon="4.87712">
        <ele>223.5</ele>
        <time>2014-05-01T06:38:45Z</time>
      </trkpt>
      <trkpt lat="44.73641" lon="4.87709">
        <ele>223</ele>
        <time>2014-05-01T06:38:47Z</time>
      </trkpt>
      <trkpt lat="44.73635" lon="4.87706">
        <ele>222.6</ele>
        <time>2014-05-01T06:38:49Z</time>
      </trkpt>
      <trkpt lat="44.73629" lon="4.87702">
        <ele>222.5</ele>
        <time>2014-05-01T06:38:51Z</time>
      </trkpt>
      <trkpt lat="44.73622" lon="4.87698">
        <ele>222.3</ele>
        <time>2014-05-01T06:38:53Z</time>
      </trkpt>
      <trkpt lat="44.73616" lon="4.87695">
        <ele>221.6</ele>
        <time>2014-05-01T06:38:55Z</time>
      </trkpt>
      <trkpt lat="44.73609" lon="4.87692">
        <ele>221.3</ele>
        <time>2014-05-01T06:38:57Z</time>
      </trkpt>
      <trkpt lat="44.73603" lon="4.87689">
        <ele>220.9</ele>
        <time>2014-05-01T06:38:59Z</time>
      </trkpt>
      <trkpt lat="44.73596" lon="4.87686">
        <ele>220.1</ele>
        <time>2014-05-01T06:39:01Z</time>
      </trkpt>
      <trkpt lat="44.73589" lon="4.87684">
        <ele>218.7</ele>
        <time>2014-05-01T06:39:03Z</time>
      </trkpt>
      <trkpt lat="44.73582" lon="4.87683">
        <ele>217.3</ele>
        <time>2014-05-01T06:39:05Z</time>
      </trkpt>
      <trkpt lat="44.73575" lon="4.87682">
        <ele>216.4</ele>
        <time>2014-05-01T06:39:07Z</time>
      </trkpt>
      <trkpt lat="44.73568" lon="4.87682">
        <ele>215.4</ele>
        <time>2014-05-01T06:39:09Z</time>
      </trkpt>
      <trkpt lat="44.73561" lon="4.87683">
        <ele>214.5</ele>
        <time>2014-05-01T06:39:11Z</time>
      </trkpt>
      <trkpt lat="44.73554" lon="4.87684">
        <ele>213.2</ele>
        <time>2014-05-01T06:39:13Z</time>
      </trkpt>
      <trkpt lat="44.73548" lon="4.87685">
        <ele>212.2</ele>
        <time>2014-05-01T06:39:15Z</time>
      </trkpt>
      <trkpt lat="44.73534" lon="4.87686">
        <ele>209.7</ele>
        <time>2014-05-01T06:39:19Z</time>
      </trkpt>
      <trkpt lat="44.73527" lon="4.87686">
        <ele>208.8</ele>
        <time>2014-05-01T06:39:21Z</time>
      </trkpt>
      <trkpt lat="44.7352" lon="4.87686">
        <ele>208.1</ele>
        <time>2014-05-01T06:39:23Z</time>
      </trkpt>
      <trkpt lat="44.73512" lon="4.87685">
        <ele>207.4</ele>
        <time>2014-05-01T06:39:25Z</time>
      </trkpt>
      <trkpt lat="44.73506" lon="4.87684">
        <ele>206.5</ele>
        <time>2014-05-01T06:39:27Z</time>
      </trkpt>
      <trkpt lat="44.73499" lon="4.87684">
        <ele>205.8</ele>
        <time>2014-05-01T06:39:29Z</time>
      </trkpt>
      <trkpt lat="44.73491" lon="4.87684">
        <ele>206</ele>
        <time>2014-05-01T06:39:31Z</time>
      </trkpt>
      <trkpt lat="44.73484" lon="4.87684">
        <ele>206.3</ele>
        <time>2014-05-01T06:39:33Z</time>
      </trkpt>
      <trkpt lat="44.73477" lon="4.87683">
        <ele>206.8</ele>
        <time>2014-05-01T06:39:35Z</time>
      </trkpt>
      <trkpt lat="44.7347" lon="4.87682">
        <ele>207</ele>
        <time>2014-05-01T06:39:37Z</time>
      </trkpt>
      <trkpt lat="44.73462" lon="4.87681">
        <ele>207.5</ele>
        <time>2014-05-01T06:39:39Z</time>
      </trkpt>
      <trkpt lat="44.73455" lon="4.8768">
        <ele>208</ele>
        <time>2014-05-01T06:39:41Z</time>
      </trkpt>
      <trkpt lat="44.73447" lon="4.87681">
        <ele>208.1</ele>
        <time>2014-05-01T06:39:43Z</time>
      </trkpt>
      <trkpt lat="44.73439" lon="4.87682">
        <ele>208</ele>
        <time>2014-05-01T06:39:45Z</time>
      </trkpt>
      <trkpt lat="44.73432" lon="4.87681">
        <ele>208.6</ele>
        <time>2014-05-01T06:39:47Z</time>
      </trkpt>
      <trkpt lat="44.73424" lon="4.87683">
        <ele>208.6</ele>
        <time>2014-05-01T06:39:49Z</time>
      </trkpt>
      <trkpt lat="44.73416" lon="4.87684">
        <ele>208.5</ele>
        <time>2014-05-01T06:39:51Z</time>
      </trkpt>
      <trkpt lat="44.73409" lon="4.87685">
        <ele>208.4</ele>
        <time>2014-05-01T06:39:53Z</time>
      </trkpt>
      <trkpt lat="44.73401" lon="4.87686">
        <ele>208.1</ele>
        <time>2014-05-01T06:39:55Z</time>
      </trkpt>
      <trkpt lat="44.73394" lon="4.87684">
        <ele>208.2</ele>
        <time>2014-05-01T06:39:57Z</time>
      </trkpt>
      <trkpt lat="44.73388" lon="4.87679">
        <ele>208.9</ele>
        <time>2014-05-01T06:39:59Z</time>
      </trkpt>
      <trkpt lat="44.73382" lon="4.87672">
        <ele>209.6</ele>
        <time>2014-05-01T06:40:01Z</time>
      </trkpt>
      <trkpt lat="44.73376" lon="4.87667">
        <ele>210</ele>
        <time>2014-05-01T06:40:03Z</time>
      </trkpt>
      <trkpt lat="44.73369" lon="4.87663">
        <ele>210.7</ele>
        <time>2014-05-01T06:40:05Z</time>
      </trkpt>
      <trkpt lat="44.73363" lon="4.87659">
        <ele>211.2</ele>
        <time>2014-05-01T06:40:07Z</time>
      </trkpt>
      <trkpt lat="44.73357" lon="4.87655">
        <ele>211.8</ele>
        <time>2014-05-01T06:40:09Z</time>
      </trkpt>
      <trkpt lat="44.73351" lon="4.8765">
        <ele>212.5</ele>
        <time>2014-05-01T06:40:11Z</time>
      </trkpt>
      <trkpt lat="44.73345" lon="4.87646">
        <ele>212.9</ele>
        <time>2014-05-01T06:40:13Z</time>
      </trkpt>
      <trkpt lat="44.73339" lon="4.87641">
        <ele>213.5</ele>
        <time>2014-05-01T06:40:15Z</time>
      </trkpt>
      <trkpt lat="44.73333" lon="4.87636">
        <ele>214</ele>
        <time>2014-05-01T06:40:17Z</time>
      </trkpt>
      <trkpt lat="44.73321" lon="4.87626">
        <ele>215.6</ele>
        <time>2014-05-01T06:40:21Z</time>
      </trkpt>
      <trkpt lat="44.73316" lon="4.8762">
        <ele>216.3</ele>
        <time>2014-05-01T06:40:23Z</time>
      </trkpt>
      <trkpt lat="44.73311" lon="4.87616">
        <ele>217.1</ele>
        <time>2014-05-01T06:40:25Z</time>
      </trkpt>
      <trkpt lat="44.73305" lon="4.87611">
        <ele>217.6</ele>
        <time>2014-05-01T06:40:27Z</time>
      </trkpt>
      <trkpt lat="44.733" lon="4.87606">
        <ele>218.4</ele>
        <time>2014-05-01T06:40:29Z</time>
      </trkpt>
      <trkpt lat="44.73294" lon="4.87601">
        <ele>219.1</ele>
        <time>2014-05-01T06:40:31Z</time>
      </trkpt>
      <trkpt lat="44.73288" lon="4.87597">
        <ele>219.5</ele>
        <time>2014-05-01T06:40:33Z</time>
      </trkpt>
      <trkpt lat="44.73282" lon="4.87593">
        <ele>219.9</ele>
        <time>2014-05-01T06:40:35Z</time>
      </trkpt>
      <trkpt lat="44.73277" lon="4.87588">
        <ele>220.4</ele>
        <time>2014-05-01T06:40:37Z</time>
      </trkpt>
      <trkpt lat="44.73272" lon="4.87583">
        <ele>221.3</ele>
        <time>2014-05-01T06:40:39Z</time>
      </trkpt>
      <trkpt lat="44.73266" lon="4.87577">
        <ele>222.4</ele>
        <time>2014-05-01T06:40:41Z</time>
      </trkpt>
      <trkpt lat="44.73261" lon="4.8757">
        <ele>223.6</ele>
        <time>2014-05-01T06:40:43Z</time>
      </trkpt>
      <trkpt lat="44.73256" lon="4.87562">
        <ele>225.2</ele>
        <time>2014-05-01T06:40:45Z</time>
      </trkpt>
      <trkpt lat="44.73252" lon="4.87554">
        <ele>226.9</ele>
        <time>2014-05-01T06:40:47Z</time>
      </trkpt>
      <trkpt lat="44.73247" lon="4.87545">
        <ele>228.6</ele>
        <time>2014-05-01T06:40:49Z</time>
      </trkpt>
      <trkpt lat="44.73243" lon="4.87536">
        <ele>230</ele>
        <time>2014-05-01T06:40:51Z</time>
      </trkpt>
      <trkpt lat="44.73238" lon="4.87528">
        <ele>231.2</ele>
        <time>2014-05-01T06:40:53Z</time>
      </trkpt>
      <trkpt lat="44.73233" lon="4.87521">
        <ele>232</ele>
        <time>2014-05-01T06:40:55Z</time>
      </trkpt>
      <trkpt lat="44.73229" lon="4.87513">
        <ele>233.1</ele>
        <time>2014-05-01T06:40:57Z</time>
      </trkpt>
      <trkpt lat="44.73225" lon="4.87507">
        <ele>234</ele>
        <time>2014-05-01T06:40:59Z</time>
      </trkpt>
      <trkpt lat="44.73221" lon="4.87499">
        <ele>235</ele>
        <time>2014-05-01T06:41:01Z</time>
      </trkpt>
      <trkpt lat="44.73216" lon="4.87492">
        <ele>235.5</ele>
        <time>2014-05-01T06:41:03Z</time>
      </trkpt>
      <trkpt lat="44.73212" lon="4.87486">
        <ele>236.1</ele>
        <time>2014-05-01T06:41:05Z</time>
      </trkpt>
      <trkpt lat="44.73207" lon="4.87479">
        <ele>236.7</ele>
        <time>2014-05-01T06:41:07Z</time>
      </trkpt>
      <trkpt lat="44.73202" lon="4.87473">
        <ele>237.5</ele>
        <time>2014-05-01T06:41:09Z</time>
      </trkpt>
      <trkpt lat="44.73197" lon="4.87468">
        <ele>238</ele>
        <time>2014-05-01T06:41:11Z</time>
      </trkpt>
      <trkpt lat="44.73192" lon="4.87464">
        <ele>238.3</ele>
        <time>2014-05-01T06:41:13Z</time>
      </trkpt>
      <trkpt lat="44.73187" lon="4.8746">
        <ele>238.8</ele>
        <time>2014-05-01T06:41:15Z</time>
      </trkpt>
      <trkpt lat="44.73181" lon="4.87457">
        <ele>238.9</ele>
        <time>2014-05-01T06:41:17Z</time>
      </trkpt>
      <trkpt lat="44.73175" lon="4.87454">
        <ele>239.4</ele>
        <time>2014-05-01T06:41:19Z</time>
      </trkpt>
      <trkpt lat="44.73164" lon="4.8745">
        <ele>239.3</ele>
        <time>2014-05-01T06:41:23Z</time>
      </trkpt>
      <trkpt lat="44.73159" lon="4.87449">
        <ele>238.5</ele>
        <time>2014-05-01T06:41:25Z</time>
      </trkpt>
      <trkpt lat="44.73154" lon="4.87446">
        <ele>238</ele>
        <time>2014-05-01T06:41:27Z</time>
      </trkpt>
      <trkpt lat="44.73149" lon="4.87445">
        <ele>237.1</ele>
        <time>2014-05-01T06:41:29Z</time>
      </trkpt>
      <trkpt lat="44.73144" lon="4.87443">
        <ele>236.3</ele>
        <time>2014-05-01T06:41:31Z</time>
      </trkpt>
      <trkpt lat="44.73139" lon="4.87441">
        <ele>235.7</ele>
        <time>2014-05-01T06:41:33Z</time>
      </trkpt>
      <trkpt lat="44.73134" lon="4.87439">
        <ele>234.8</ele>
        <time>2014-05-01T06:41:35Z</time>
      </trkpt>
      <trkpt lat="44.73129" lon="4.87437">
        <ele>234.1</ele>
        <time>2014-05-01T06:41:37Z</time>
      </trkpt>
      <trkpt lat="44.73125" lon="4.87434">
        <ele>233.3</ele>
        <time>2014-05-01T06:41:39Z</time>
      </trkpt>
      <trkpt lat="44.7312" lon="4.87429">
        <ele>232.9</ele>
        <time>2014-05-01T06:41:41Z</time>
      </trkpt>
      <trkpt lat="44.73116" lon="4.87424">
        <ele>232.3</ele>
        <time>2014-05-01T06:41:43Z</time>
      </trkpt>
      <trkpt lat="44.73111" lon="4.8742">
        <ele>231.7</ele>
        <time>2014-05-01T06:41:45Z</time>
      </trkpt>
      <trkpt lat="44.73108" lon="4.87416">
        <ele>231.4</ele>
        <time>2014-05-01T06:41:47Z</time>
      </trkpt>
      <trkpt lat="44.73104" lon="4.87411">
        <ele>231.7</ele>
        <time>2014-05-01T06:41:50Z</time>
      </trkpt>
      <trkpt lat="44.73099" lon="4.87406">
        <ele>231.7</ele>
        <time>2014-05-01T06:41:53Z</time>
      </trkpt>
      <trkpt lat="44.73094" lon="4.874">
        <ele>232</ele>
        <time>2014-05-01T06:41:56Z</time>
      </trkpt>
      <trkpt lat="44.73091" lon="4.87396">
        <ele>232</ele>
        <time>2014-05-01T06:41:58Z</time>
      </trkpt>
      <trkpt lat="44.73087" lon="4.87392">
        <ele>232.6</ele>
        <time>2014-05-01T06:42:00Z</time>
      </trkpt>
      <trkpt lat="44.73082" lon="4.87385">
        <ele>233.4</ele>
        <time>2014-05-01T06:42:03Z</time>
      </trkpt>
      <trkpt lat="44.73078" lon="4.87381">
        <ele>234.3</ele>
        <time>2014-05-01T06:42:05Z</time>
      </trkpt>
      <trkpt lat="44.73074" lon="4.87378">
        <ele>234.7</ele>
        <time>2014-05-01T06:42:07Z</time>
      </trkpt>
      <trkpt lat="44.7307" lon="4.87374">
        <ele>235.4</ele>
        <time>2014-05-01T06:42:09Z</time>
      </trkpt>
      <trkpt lat="44.73065" lon="4.87368">
        <ele>236.3</ele>
        <time>2014-05-01T06:42:12Z</time>
      </trkpt>
      <trkpt lat="44.73061" lon="4.87364">
        <ele>236.7</ele>
        <time>2014-05-01T06:42:14Z</time>
      </trkpt>
      <trkpt lat="44.73058" lon="4.87359">
        <ele>236.9</ele>
        <time>2014-05-01T06:42:16Z</time>
      </trkpt>
      <trkpt lat="44.73055" lon="4.87355">
        <ele>237.3</ele>
        <time>2014-05-01T06:42:18Z</time>
      </trkpt>
      <trkpt lat="44.73051" lon="4.8735">
        <ele>237.4</ele>
        <time>2014-05-01T06:42:20Z</time>
      </trkpt>
      <trkpt lat="44.73048" lon="4.87345">
        <ele>237.5</ele>
        <time>2014-05-01T06:42:22Z</time>
      </trkpt>
      <trkpt lat="44.73042" lon="4.87334">
        <ele>237.1</ele>
        <time>2014-05-01T06:42:26Z</time>
      </trkpt>
      <trkpt lat="44.7304" lon="4.87329">
        <ele>237.7</ele>
        <time>2014-05-01T06:42:28Z</time>
      </trkpt>
      <trkpt lat="44.73037" lon="4.87322">
        <ele>238.3</ele>
        <time>2014-05-01T06:42:30Z</time>
      </trkpt>
      <trkpt lat="44.73034" lon="4.87317">
        <ele>238.7</ele>
        <time>2014-05-01T06:42:32Z</time>
      </trkpt>
      <trkpt lat="44.73031" lon="4.87309">
        <ele>239.4</ele>
        <time>2014-05-01T06:42:35Z</time>
      </trkpt>
      <trkpt lat="44.73028" lon="4.87304">
        <ele>239.5</ele>
        <time>2014-05-01T06:42:37Z</time>
      </trkpt>
      <trkpt lat="44.73025" lon="4.87298">
        <ele>239.7</ele>
        <time>2014-05-01T06:42:39Z</time>
      </trkpt>
      <trkpt lat="44.73022" lon="4.87293">
        <ele>240.1</ele>
        <time>2014-05-01T06:42:41Z</time>
      </trkpt>
      <trkpt lat="44.73017" lon="4.87286">
        <ele>240</ele>
        <time>2014-05-01T06:42:44Z</time>
      </trkpt>
      <trkpt lat="44.73014" lon="4.8728">
        <ele>239.7</ele>
        <time>2014-05-01T06:42:46Z</time>
      </trkpt>
      <trkpt lat="44.73011" lon="4.87274">
        <ele>239.9</ele>
        <time>2014-05-01T06:42:48Z</time>
      </trkpt>
      <trkpt lat="44.73009" lon="4.87269">
        <ele>240</ele>
        <time>2014-05-01T06:42:50Z</time>
      </trkpt>
      <trkpt lat="44.73005" lon="4.8726">
        <ele>240.3</ele>
        <time>2014-05-01T06:42:53Z</time>
      </trkpt>
      <trkpt lat="44.73002" lon="4.87253">
        <ele>240.3</ele>
        <time>2014-05-01T06:42:55Z</time>
      </trkpt>
      <trkpt lat="44.73" lon="4.87246">
        <ele>240.8</ele>
        <time>2014-05-01T06:42:57Z</time>
      </trkpt>
      <trkpt lat="44.72998" lon="4.87237">
        <ele>241.6</ele>
        <time>2014-05-01T06:43:00Z</time>
      </trkpt>
      <trkpt lat="44.72995" lon="4.87229">
        <ele>242.6</ele>
        <time>2014-05-01T06:43:03Z</time>
      </trkpt>
      <trkpt lat="44.72993" lon="4.87223">
        <ele>243</ele>
        <time>2014-05-01T06:43:05Z</time>
      </trkpt>
      <trkpt lat="44.7299" lon="4.87216">
        <ele>243.5</ele>
        <time>2014-05-01T06:43:07Z</time>
      </trkpt>
      <trkpt lat="44.72988" lon="4.8721">
        <ele>243.9</ele>
        <time>2014-05-01T06:43:09Z</time>
      </trkpt>
      <trkpt lat="44.72985" lon="4.87203">
        <ele>244.3</ele>
        <time>2014-05-01T06:43:11Z</time>
      </trkpt>
      <trkpt lat="44.72983" lon="4.87197">
        <ele>244.6</ele>
        <time>2014-05-01T06:43:13Z</time>
      </trkpt>
      <trkpt lat="44.7298" lon="4.87189">
        <ele>245</ele>
        <time>2014-05-01T06:43:15Z</time>
      </trkpt>
      <trkpt lat="44.72978" lon="4.87183">
        <ele>245.2</ele>
        <time>2014-05-01T06:43:17Z</time>
      </trkpt>
      <trkpt lat="44.72976" lon="4.87176">
        <ele>245.4</ele>
        <time>2014-05-01T06:43:19Z</time>
      </trkpt>
      <trkpt lat="44.72973" lon="4.8717">
        <ele>245.4</ele>
        <time>2014-05-01T06:43:21Z</time>
      </trkpt>
      <trkpt lat="44.7297" lon="4.87163">
        <ele>245.6</ele>
        <time>2014-05-01T06:43:23Z</time>
      </trkpt>
      <trkpt lat="44.72967" lon="4.87156">
        <ele>246</ele>
        <time>2014-05-01T06:43:25Z</time>
      </trkpt>
      <trkpt lat="44.7296" lon="4.87143">
        <ele>246.4</ele>
        <time>2014-05-01T06:43:30Z</time>
      </trkpt>
      <trkpt lat="44.72957" lon="4.87139">
        <ele>246.1</ele>
        <time>2014-05-01T06:43:32Z</time>
      </trkpt>
      <trkpt lat="44.72952" lon="4.87133">
        <ele>245.7</ele>
        <time>2014-05-01T06:43:35Z</time>
      </trkpt>
      <trkpt lat="44.72949" lon="4.87125">
        <ele>245.9</ele>
        <time>2014-05-01T06:43:38Z</time>
      </trkpt>
      <trkpt lat="44.72947" lon="4.87118">
        <ele>246.4</ele>
        <time>2014-05-01T06:43:40Z</time>
      </trkpt>
      <trkpt lat="44.72948" lon="4.87112">
        <ele>247.3</ele>
        <time>2014-05-01T06:43:42Z</time>
      </trkpt>
      <trkpt lat="44.72949" lon="4.87105">
        <ele>248.4</ele>
        <time>2014-05-01T06:43:44Z</time>
      </trkpt>
      <trkpt lat="44.7295" lon="4.87098">
        <ele>249.5</ele>
        <time>2014-05-01T06:43:46Z</time>
      </trkpt>
      <trkpt lat="44.7295" lon="4.87091">
        <ele>250.6</ele>
        <time>2014-05-01T06:43:48Z</time>
      </trkpt>
      <trkpt lat="44.7295" lon="4.87083">
        <ele>251.4</ele>
        <time>2014-05-01T06:43:50Z</time>
      </trkpt>
      <trkpt lat="44.72948" lon="4.87076">
        <ele>251.7</ele>
        <time>2014-05-01T06:43:52Z</time>
      </trkpt>
      <trkpt lat="44.72946" lon="4.87069">
        <ele>251.9</ele>
        <time>2014-05-01T06:43:54Z</time>
      </trkpt>
      <trkpt lat="44.72944" lon="4.87061">
        <ele>252.4</ele>
        <time>2014-05-01T06:43:56Z</time>
      </trkpt>
      <trkpt lat="44.72941" lon="4.87053">
        <ele>252.5</ele>
        <time>2014-05-01T06:43:58Z</time>
      </trkpt>
      <trkpt lat="44.72939" lon="4.87047">
        <ele>252.7</ele>
        <time>2014-05-01T06:44:00Z</time>
      </trkpt>
      <trkpt lat="44.72937" lon="4.8704">
        <ele>253</ele>
        <time>2014-05-01T06:44:02Z</time>
      </trkpt>
      <trkpt lat="44.72935" lon="4.87034">
        <ele>253.2</ele>
        <time>2014-05-01T06:44:05Z</time>
      </trkpt>
      <trkpt lat="44.72934" lon="4.87027">
        <ele>253.7</ele>
        <time>2014-05-01T06:44:11Z</time>
      </trkpt>
      <trkpt lat="44.72933" lon="4.8702">
        <ele>254.3</ele>
        <time>2014-05-01T06:44:16Z</time>
      </trkpt>
      <trkpt lat="44.72928" lon="4.8702">
        <ele>252.9</ele>
        <time>2014-05-01T06:44:19Z</time>
      </trkpt>
      <trkpt lat="44.72927" lon="4.87026">
        <ele>251.8</ele>
        <time>2014-05-01T06:44:22Z</time>
      </trkpt>
      <trkpt lat="44.72927" lon="4.87032">
        <ele>250.8</ele>
        <time>2014-05-01T06:44:25Z</time>
      </trkpt>
      <trkpt lat="44.72927" lon="4.87041">
        <ele>250</ele>
        <time>2014-05-01T06:44:29Z</time>
      </trkpt>
      <trkpt lat="44.72929" lon="4.87055">
        <ele>248.6</ele>
        <time>2014-05-01T06:44:37Z</time>
      </trkpt>
      <trkpt lat="44.72928" lon="4.87063">
        <ele>247.3</ele>
        <time>2014-05-01T06:44:41Z</time>
      </trkpt>
      <trkpt lat="44.72928" lon="4.87071">
        <ele>246.3</ele>
        <time>2014-05-01T06:44:45Z</time>
      </trkpt>
      <trkpt lat="44.72929" lon="4.87077">
        <ele>245.6</ele>
        <time>2014-05-01T06:44:49Z</time>
      </trkpt>
      <trkpt lat="44.72926" lon="4.87084">
        <ele>243.8</ele>
        <time>2014-05-01T06:44:53Z</time>
      </trkpt>
      <trkpt lat="44.72922" lon="4.87089">
        <ele>242.2</ele>
        <time>2014-05-01T06:44:57Z</time>
      </trkpt>
      <trkpt lat="44.72917" lon="4.8709">
        <ele>240.7</ele>
        <time>2014-05-01T06:45:00Z</time>
      </trkpt>
      <trkpt lat="44.72912" lon="4.8709">
        <ele>241</ele>
        <time>2014-05-01T06:45:04Z</time>
      </trkpt>
      <trkpt lat="44.72907" lon="4.87091">
        <ele>241.4</ele>
        <time>2014-05-01T06:45:08Z</time>
      </trkpt>
      <trkpt lat="44.72902" lon="4.87092">
        <ele>242</ele>
        <time>2014-05-01T06:45:12Z</time>
      </trkpt>
      <trkpt lat="44.72897" lon="4.87093">
        <ele>242.5</ele>
        <time>2014-05-01T06:45:16Z</time>
      </trkpt>
      <trkpt lat="44.72892" lon="4.87093">
        <ele>243.1</ele>
        <time>2014-05-01T06:45:20Z</time>
      </trkpt>
      <trkpt lat="44.72887" lon="4.87094">
        <ele>243.6</ele>
        <time>2014-05-01T06:45:24Z</time>
      </trkpt>
      <trkpt lat="44.72882" lon="4.87093">
        <ele>244.3</ele>
        <time>2014-05-01T06:45:28Z</time>
      </trkpt>
      <trkpt lat="44.72877" lon="4.87091">
        <ele>244.8</ele>
        <time>2014-05-01T06:45:32Z</time>
      </trkpt>
      <trkpt lat="44.72867" lon="4.8709">
        <ele>245.9</ele>
        <time>2014-05-01T06:45:40Z</time>
      </trkpt>
      <trkpt lat="44.72861" lon="4.8709">
        <ele>246.5</ele>
        <time>2014-05-01T06:45:44Z</time>
      </trkpt>
      <trkpt lat="44.72856" lon="4.8709">
        <ele>247.1</ele>
        <time>2014-05-01T06:45:48Z</time>
      </trkpt>
      <trkpt lat="44.72851" lon="4.87091">
        <ele>247.7</ele>
        <time>2014-05-01T06:45:52Z</time>
      </trkpt>
      <trkpt lat="44.72846" lon="4.8709">
        <ele>248.2</ele>
        <time>2014-05-01T06:45:56Z</time>
      </trkpt>
      <trkpt lat="44.72841" lon="4.8709">
        <ele>248.7</ele>
        <time>2014-05-01T06:46:01Z</time>
      </trkpt>
      <trkpt lat="44.72836" lon="4.8709">
        <ele>249.3</ele>
        <time>2014-05-01T06:46:05Z</time>
      </trkpt>
      <trkpt lat="44.72831" lon="4.8709">
        <ele>250.3</ele>
        <time>2014-05-01T06:46:09Z</time>
      </trkpt>
      <trkpt lat="44.72825" lon="4.87092">
        <ele>252</ele>
        <time>2014-05-01T06:46:14Z</time>
      </trkpt>
      <trkpt lat="44.7282" lon="4.87092">
        <ele>253.4</ele>
        <time>2014-05-01T06:46:18Z</time>
      </trkpt>
      <trkpt lat="44.72816" lon="4.87092">
        <ele>254.6</ele>
        <time>2014-05-01T06:46:22Z</time>
      </trkpt>
      <trkpt lat="44.72811" lon="4.87094">
        <ele>256.2</ele>
        <time>2014-05-01T06:46:27Z</time>
      </trkpt>
      <trkpt lat="44.72807" lon="4.87098">
        <ele>257.4</ele>
        <time>2014-05-01T06:46:30Z</time>
      </trkpt>
      <trkpt lat="44.72806" lon="4.87104">
        <ele>258.2</ele>
        <time>2014-05-01T06:46:36Z</time>
      </trkpt>
      <trkpt lat="44.72802" lon="4.87117">
        <ele>260.1</ele>
        <time>2014-05-01T06:46:54Z</time>
      </trkpt>
      <trkpt lat="44.72801" lon="4.87124">
        <ele>260.9</ele>
        <time>2014-05-01T06:47:01Z</time>
      </trkpt>
      <trkpt lat="44.728" lon="4.87131">
        <ele>261.5</ele>
        <time>2014-05-01T06:47:09Z</time>
      </trkpt>
      <trkpt lat="44.72798" lon="4.87137">
        <ele>262.3</ele>
        <time>2014-05-01T06:47:17Z</time>
      </trkpt>
      <trkpt lat="44.72795" lon="4.87143">
        <ele>263.4</ele>
        <time>2014-05-01T06:47:26Z</time>
      </trkpt>
      <trkpt lat="44.72791" lon="4.87146">
        <ele>264.6</ele>
        <time>2014-05-01T06:47:36Z</time>
      </trkpt>
      <trkpt lat="44.72787" lon="4.87149">
        <ele>265.8</ele>
        <time>2014-05-01T06:47:42Z</time>
      </trkpt>
      <trkpt lat="44.72778" lon="4.87156">
        <ele>268.1</ele>
        <time>2014-05-01T06:47:58Z</time>
      </trkpt>
      <trkpt lat="44.72774" lon="4.87161">
        <ele>269.2</ele>
        <time>2014-05-01T06:48:07Z</time>
      </trkpt>
      <trkpt lat="44.72772" lon="4.87166">
        <ele>270</ele>
        <time>2014-05-01T06:48:12Z</time>
      </trkpt>
      <trkpt lat="44.72768" lon="4.8717">
        <ele>271.4</ele>
        <time>2014-05-01T06:48:20Z</time>
      </trkpt>
      <trkpt lat="44.72765" lon="4.87176">
        <ele>273.6</ele>
        <time>2014-05-01T06:48:24Z</time>
      </trkpt>
      <trkpt lat="44.72762" lon="4.8718">
        <ele>275.4</ele>
        <time>2014-05-01T06:48:27Z</time>
      </trkpt>
      <trkpt lat="44.72757" lon="4.87185">
        <ele>277.6</ele>
        <time>2014-05-01T06:48:31Z</time>
      </trkpt>
      <trkpt lat="44.72755" lon="4.87191">
        <ele>279.5</ele>
        <time>2014-05-01T06:48:35Z</time>
      </trkpt>
      <trkpt lat="44.72752" lon="4.87196">
        <ele>281.5</ele>
        <time>2014-05-01T06:48:39Z</time>
      </trkpt>
      <trkpt lat="44.72748" lon="4.87203">
        <ele>284.1</ele>
        <time>2014-05-01T06:48:43Z</time>
      </trkpt>
      <trkpt lat="44.72744" lon="4.87217">
        <ele>287.8</ele>
        <time>2014-05-01T06:48:49Z</time>
      </trkpt>
      <trkpt lat="44.72742" lon="4.87223">
        <ele>289.6</ele>
        <time>2014-05-01T06:48:52Z</time>
      </trkpt>
      <trkpt lat="44.72739" lon="4.87229">
        <ele>291.1</ele>
        <time>2014-05-01T06:48:55Z</time>
      </trkpt>
      <trkpt lat="44.72736" lon="4.87235">
        <ele>292.9</ele>
        <time>2014-05-01T06:48:59Z</time>
      </trkpt>
      <trkpt lat="44.72734" lon="4.87242">
        <ele>294.6</ele>
        <time>2014-05-01T06:49:02Z</time>
      </trkpt>
      <trkpt lat="44.72733" lon="4.87248">
        <ele>296.1</ele>
        <time>2014-05-01T06:49:05Z</time>
      </trkpt>
      <trkpt lat="44.72732" lon="4.87254">
        <ele>297.1</ele>
        <time>2014-05-01T06:49:08Z</time>
      </trkpt>
      <trkpt lat="44.72731" lon="4.87262">
        <ele>297.9</ele>
        <time>2014-05-01T06:49:12Z</time>
      </trkpt>
      <trkpt lat="44.72731" lon="4.87269">
        <ele>298.5</ele>
        <time>2014-05-01T06:49:15Z</time>
      </trkpt>
      <trkpt lat="44.7273" lon="4.87277">
        <ele>299.2</ele>
        <time>2014-05-01T06:49:18Z</time>
      </trkpt>
      <trkpt lat="44.72727" lon="4.87283">
        <ele>300.1</ele>
        <time>2014-05-01T06:49:21Z</time>
      </trkpt>
      <trkpt lat="44.72723" lon="4.87286">
        <ele>300.6</ele>
        <time>2014-05-01T06:49:24Z</time>
      </trkpt>
      <trkpt lat="44.72718" lon="4.87288">
        <ele>301.1</ele>
        <time>2014-05-01T06:49:27Z</time>
      </trkpt>
      <trkpt lat="44.72714" lon="4.87291">
        <ele>301.6</ele>
        <time>2014-05-01T06:49:30Z</time>
      </trkpt>
      <trkpt lat="44.72709" lon="4.87294">
        <ele>302.1</ele>
        <time>2014-05-01T06:49:33Z</time>
      </trkpt>
      <trkpt lat="44.72703" lon="4.87295">
        <ele>302.5</ele>
        <time>2014-05-01T06:49:36Z</time>
      </trkpt>
      <trkpt lat="44.72702" lon="4.87288">
        <ele>302.1</ele>
        <time>2014-05-01T06:49:39Z</time>
      </trkpt>
      <trkpt lat="44.72701" lon="4.87282">
        <ele>301.7</ele>
        <time>2014-05-01T06:49:42Z</time>
      </trkpt>
      <trkpt lat="44.72699" lon="4.87274">
        <ele>301.4</ele>
        <time>2014-05-01T06:49:46Z</time>
      </trkpt>
      <trkpt lat="44.72696" lon="4.87259">
        <ele>300.7</ele>
        <time>2014-05-01T06:49:52Z</time>
      </trkpt>
      <trkpt lat="44.72695" lon="4.87252">
        <ele>300.4</ele>
        <time>2014-05-01T06:49:55Z</time>
      </trkpt>
      <trkpt lat="44.72694" lon="4.87245">
        <ele>299.4</ele>
        <time>2014-05-01T06:49:58Z</time>
      </trkpt>
      <trkpt lat="44.72694" lon="4.87238">
        <ele>298.4</ele>
        <time>2014-05-01T06:50:01Z</time>
      </trkpt>
      <trkpt lat="44.72693" lon="4.8723">
        <ele>297.3</ele>
        <time>2014-05-01T06:50:05Z</time>
      </trkpt>
      <trkpt lat="44.72692" lon="4.87222">
        <ele>296.4</ele>
        <time>2014-05-01T06:50:08Z</time>
      </trkpt>
      <trkpt lat="44.7269" lon="4.87214">
        <ele>295.5</ele>
        <time>2014-05-01T06:50:11Z</time>
      </trkpt>
      <trkpt lat="44.72689" lon="4.87206">
        <ele>294.6</ele>
        <time>2014-05-01T06:50:14Z</time>
      </trkpt>
      <trkpt lat="44.72688" lon="4.87198">
        <ele>293.4</ele>
        <time>2014-05-01T06:50:17Z</time>
      </trkpt>
      <trkpt lat="44.72688" lon="4.87188">
        <ele>292.2</ele>
        <time>2014-05-01T06:50:20Z</time>
      </trkpt>
      <trkpt lat="44.72687" lon="4.87181">
        <ele>291.3</ele>
        <time>2014-05-01T06:50:23Z</time>
      </trkpt>
      <trkpt lat="44.72687" lon="4.87173">
        <ele>290.4</ele>
        <time>2014-05-01T06:50:26Z</time>
      </trkpt>
      <trkpt lat="44.72687" lon="4.87165">
        <ele>289.3</ele>
        <time>2014-05-01T06:50:29Z</time>
      </trkpt>
      <trkpt lat="44.72688" lon="4.87157">
        <ele>288.9</ele>
        <time>2014-05-01T06:50:32Z</time>
      </trkpt>
      <trkpt lat="44.72689" lon="4.8715">
        <ele>288.7</ele>
        <time>2014-05-01T06:50:35Z</time>
      </trkpt>
      <trkpt lat="44.72689" lon="4.87143">
        <ele>288.6</ele>
        <time>2014-05-01T06:50:38Z</time>
      </trkpt>
      <trkpt lat="44.72689" lon="4.87135">
        <ele>288.4</ele>
        <time>2014-05-01T06:50:41Z</time>
      </trkpt>
      <trkpt lat="44.7269" lon="4.87127">
        <ele>288.1</ele>
        <time>2014-05-01T06:50:44Z</time>
      </trkpt>
      <trkpt lat="44.7269" lon="4.87119">
        <ele>287.8</ele>
        <time>2014-05-01T06:50:47Z</time>
      </trkpt>
      <trkpt lat="44.72692" lon="4.8711">
        <ele>287.4</ele>
        <time>2014-05-01T06:50:50Z</time>
      </trkpt>
      <trkpt lat="44.72693" lon="4.87096">
        <ele>286.8</ele>
        <time>2014-05-01T06:50:54Z</time>
      </trkpt>
      <trkpt lat="44.72694" lon="4.87088">
        <ele>286.4</ele>
        <time>2014-05-01T06:50:57Z</time>
      </trkpt>
      <trkpt lat="44.72696" lon="4.8708">
        <ele>286.5</ele>
        <time>2014-05-01T06:51:00Z</time>
      </trkpt>
      <trkpt lat="44.72699" lon="4.87072">
        <ele>286.7</ele>
        <time>2014-05-01T06:51:03Z</time>
      </trkpt>
      <trkpt lat="44.72702" lon="4.87064">
        <ele>287.2</ele>
        <time>2014-05-01T06:51:06Z</time>
      </trkpt>
      <trkpt lat="44.72704" lon="4.87058">
        <ele>287.5</ele>
        <time>2014-05-01T06:51:08Z</time>
      </trkpt>
      <trkpt lat="44.72707" lon="4.87052">
        <ele>287.5</ele>
        <time>2014-05-01T06:51:11Z</time>
      </trkpt>
      <trkpt lat="44.72711" lon="4.87044">
        <ele>287.5</ele>
        <time>2014-05-01T06:51:14Z</time>
      </trkpt>
      <trkpt lat="44.72715" lon="4.87037">
        <ele>287.5</ele>
        <time>2014-05-01T06:51:17Z</time>
      </trkpt>
      <trkpt lat="44.72719" lon="4.8703">
        <ele>287.5</ele>
        <time>2014-05-01T06:51:20Z</time>
      </trkpt>
      <trkpt lat="44.72722" lon="4.87024">
        <ele>287.5</ele>
        <time>2014-05-01T06:51:23Z</time>
      </trkpt>
      <trkpt lat="44.72726" lon="4.87016">
        <ele>287.6</ele>
        <time>2014-05-01T06:51:26Z</time>
      </trkpt>
      <trkpt lat="44.7273" lon="4.87008">
        <ele>287.8</ele>
        <time>2014-05-01T06:51:29Z</time>
      </trkpt>
      <trkpt lat="44.72733" lon="4.87">
        <ele>288.1</ele>
        <time>2014-05-01T06:51:32Z</time>
      </trkpt>
      <trkpt lat="44.72735" lon="4.86993">
        <ele>286.9</ele>
        <time>2014-05-01T06:51:35Z</time>
      </trkpt>
      <trkpt lat="44.72736" lon="4.86986">
        <ele>285.6</ele>
        <time>2014-05-01T06:51:38Z</time>
      </trkpt>
      <trkpt lat="44.72737" lon="4.86978">
        <ele>284.4</ele>
        <time>2014-05-01T06:51:41Z</time>
      </trkpt>
      <trkpt lat="44.72737" lon="4.86972">
        <ele>283.6</ele>
        <time>2014-05-01T06:51:44Z</time>
      </trkpt>
      <trkpt lat="44.72735" lon="4.86965">
        <ele>283.3</ele>
        <time>2014-05-01T06:51:48Z</time>
      </trkpt>
      <trkpt lat="44.72731" lon="4.86957">
        <ele>283.4</ele>
        <time>2014-05-01T06:51:52Z</time>
      </trkpt>
      <trkpt lat="44.72723" lon="4.86945">
        <ele>284</ele>
        <time>2014-05-01T06:51:58Z</time>
      </trkpt>
      <trkpt lat="44.72719" lon="4.86939">
        <ele>284.5</ele>
        <time>2014-05-01T06:52:01Z</time>
      </trkpt>
      <trkpt lat="44.72715" lon="4.86935">
        <ele>285.1</ele>
        <time>2014-05-01T06:52:04Z</time>
      </trkpt>
      <trkpt lat="44.7271" lon="4.8693">
        <ele>285.9</ele>
        <time>2014-05-01T06:52:07Z</time>
      </trkpt>
      <trkpt lat="44.72705" lon="4.86925">
        <ele>286.7</ele>
        <time>2014-05-01T06:52:10Z</time>
      </trkpt>
      <trkpt lat="44.72701" lon="4.86921">
        <ele>287.7</ele>
        <time>2014-05-01T06:52:13Z</time>
      </trkpt>
      <trkpt lat="44.72695" lon="4.86917">
        <ele>288.8</ele>
        <time>2014-05-01T06:52:16Z</time>
      </trkpt>
      <trkpt lat="44.72691" lon="4.86913">
        <ele>289.3</ele>
        <time>2014-05-01T06:52:19Z</time>
      </trkpt>
      <trkpt lat="44.72687" lon="4.86909">
        <ele>289.7</ele>
        <time>2014-05-01T06:52:22Z</time>
      </trkpt>
      <trkpt lat="44.72682" lon="4.86905">
        <ele>290.1</ele>
        <time>2014-05-01T06:52:25Z</time>
      </trkpt>
      <trkpt lat="44.72677" lon="4.86902">
        <ele>290.6</ele>
        <time>2014-05-01T06:52:28Z</time>
      </trkpt>
      <trkpt lat="44.72673" lon="4.86899">
        <ele>291.2</ele>
        <time>2014-05-01T06:52:31Z</time>
      </trkpt>
      <trkpt lat="44.72668" lon="4.86895">
        <ele>291.5</ele>
        <time>2014-05-01T06:52:34Z</time>
      </trkpt>
      <trkpt lat="44.72663" lon="4.86893">
        <ele>292.9</ele>
        <time>2014-05-01T06:52:37Z</time>
      </trkpt>
      <trkpt lat="44.72658" lon="4.8689">
        <ele>293.8</ele>
        <time>2014-05-01T06:52:41Z</time>
      </trkpt>
      <trkpt lat="44.72652" lon="4.86889">
        <ele>295.3</ele>
        <time>2014-05-01T06:52:44Z</time>
      </trkpt>
      <trkpt lat="44.72647" lon="4.86887">
        <ele>296.7</ele>
        <time>2014-05-01T06:52:47Z</time>
      </trkpt>
      <trkpt lat="44.72642" lon="4.86885">
        <ele>297.8</ele>
        <time>2014-05-01T06:52:50Z</time>
      </trkpt>
      <trkpt lat="44.72637" lon="4.86882">
        <ele>298.7</ele>
        <time>2014-05-01T06:52:53Z</time>
      </trkpt>
      <trkpt lat="44.72627" lon="4.86879">
        <ele>301.7</ele>
        <time>2014-05-01T06:52:59Z</time>
      </trkpt>
      <trkpt lat="44.72622" lon="4.86877">
        <ele>302.5</ele>
        <time>2014-05-01T06:53:02Z</time>
      </trkpt>
      <trkpt lat="44.72617" lon="4.86874">
        <ele>303.7</ele>
        <time>2014-05-01T06:53:05Z</time>
      </trkpt>
      <trkpt lat="44.72612" lon="4.86872">
        <ele>304.7</ele>
        <time>2014-05-01T06:53:08Z</time>
      </trkpt>
      <trkpt lat="44.72606" lon="4.8687">
        <ele>306.2</ele>
        <time>2014-05-01T06:53:11Z</time>
      </trkpt>
      <trkpt lat="44.72601" lon="4.86868">
        <ele>307.2</ele>
        <time>2014-05-01T06:53:14Z</time>
      </trkpt>
      <trkpt lat="44.72596" lon="4.86866">
        <ele>308.6</ele>
        <time>2014-05-01T06:53:17Z</time>
      </trkpt>
      <trkpt lat="44.72591" lon="4.86864">
        <ele>309.4</ele>
        <time>2014-05-01T06:53:20Z</time>
      </trkpt>
      <trkpt lat="44.72587" lon="4.86862">
        <ele>310.1</ele>
        <time>2014-05-01T06:53:23Z</time>
      </trkpt>
      <trkpt lat="44.72582" lon="4.86859">
        <ele>311</ele>
        <time>2014-05-01T06:53:26Z</time>
      </trkpt>
      <trkpt lat="44.72577" lon="4.86857">
        <ele>311.9</ele>
        <time>2014-05-01T06:53:29Z</time>
      </trkpt>
      <trkpt lat="44.72571" lon="4.86854">
        <ele>313.4</ele>
        <time>2014-05-01T06:53:33Z</time>
      </trkpt>
      <trkpt lat="44.72566" lon="4.86853">
        <ele>314.2</ele>
        <time>2014-05-01T06:53:37Z</time>
      </trkpt>
      <trkpt lat="44.72562" lon="4.86852">
        <ele>315.6</ele>
        <time>2014-05-01T06:53:41Z</time>
      </trkpt>
      <trkpt lat="44.72557" lon="4.8685">
        <ele>316.9</ele>
        <time>2014-05-01T06:53:45Z</time>
      </trkpt>
      <trkpt lat="44.72552" lon="4.86849">
        <ele>317.5</ele>
        <time>2014-05-01T06:53:49Z</time>
      </trkpt>
      <trkpt lat="44.72547" lon="4.86847">
        <ele>318.9</ele>
        <time>2014-05-01T06:53:54Z</time>
      </trkpt>
      <trkpt lat="44.72538" lon="4.86841">
        <ele>320.5</ele>
        <time>2014-05-01T06:54:03Z</time>
      </trkpt>
      <trkpt lat="44.72533" lon="4.8684">
        <ele>321.8</ele>
        <time>2014-05-01T06:54:17Z</time>
      </trkpt>
      <trkpt lat="44.72528" lon="4.86839">
        <ele>323.1</ele>
        <time>2014-05-01T06:54:22Z</time>
      </trkpt>
      <trkpt lat="44.72523" lon="4.86839">
        <ele>324.7</ele>
        <time>2014-05-01T06:54:26Z</time>
      </trkpt>
      <trkpt lat="44.72519" lon="4.86842">
        <ele>326.8</ele>
        <time>2014-05-01T06:54:31Z</time>
      </trkpt>
      <trkpt lat="44.72512" lon="4.8684">
        <ele>328.4</ele>
        <time>2014-05-01T06:54:43Z</time>
      </trkpt>
      <trkpt lat="44.72508" lon="4.86838">
        <ele>329.2</ele>
        <time>2014-05-01T06:54:48Z</time>
      </trkpt>
      <trkpt lat="44.72503" lon="4.86836">
        <ele>330.5</ele>
        <time>2014-05-01T06:54:54Z</time>
      </trkpt>
      <trkpt lat="44.72498" lon="4.86837">
        <ele>332.5</ele>
        <time>2014-05-01T06:55:00Z</time>
      </trkpt>
      <trkpt lat="44.72487" lon="4.86838">
        <ele>335.5</ele>
        <time>2014-05-01T06:55:07Z</time>
      </trkpt>
      <trkpt lat="44.72482" lon="4.86839">
        <ele>337.2</ele>
        <time>2014-05-01T06:55:12Z</time>
      </trkpt>
      <trkpt lat="44.72477" lon="4.86838">
        <ele>338.1</ele>
        <time>2014-05-01T06:55:17Z</time>
      </trkpt>
      <trkpt lat="44.72472" lon="4.86838">
        <ele>339.5</ele>
        <time>2014-05-01T06:55:21Z</time>
      </trkpt>
      <trkpt lat="44.72467" lon="4.8684">
        <ele>341.3</ele>
        <time>2014-05-01T06:55:26Z</time>
      </trkpt>
      <trkpt lat="44.72462" lon="4.8684">
        <ele>342.6</ele>
        <time>2014-05-01T06:55:31Z</time>
      </trkpt>
      <trkpt lat="44.72457" lon="4.86841">
        <ele>344.3</ele>
        <time>2014-05-01T06:55:36Z</time>
      </trkpt>
      <trkpt lat="44.72452" lon="4.86839">
        <ele>345.2</ele>
        <time>2014-05-01T06:55:41Z</time>
      </trkpt>
      <trkpt lat="44.72446" lon="4.86841">
        <ele>346.9</ele>
        <time>2014-05-01T06:55:46Z</time>
      </trkpt>
      <trkpt lat="44.72441" lon="4.86843">
        <ele>348.7</ele>
        <time>2014-05-01T06:55:51Z</time>
      </trkpt>
      <trkpt lat="44.72437" lon="4.86843">
        <ele>349.9</ele>
        <time>2014-05-01T06:55:56Z</time>
      </trkpt>
      <trkpt lat="44.72432" lon="4.86841">
        <ele>351.1</ele>
        <time>2014-05-01T06:56:01Z</time>
      </trkpt>
      <trkpt lat="44.72427" lon="4.8683">
        <ele>351.1</ele>
        <time>2014-05-01T06:56:09Z</time>
      </trkpt>
      <trkpt lat="44.72425" lon="4.86824">
        <ele>351.4</ele>
        <time>2014-05-01T06:56:13Z</time>
      </trkpt>
      <trkpt lat="44.72423" lon="4.86818">
        <ele>351.8</ele>
        <time>2014-05-01T06:56:17Z</time>
      </trkpt>
      <trkpt lat="44.72419" lon="4.86813">
        <ele>352.7</ele>
        <time>2014-05-01T06:56:21Z</time>
      </trkpt>
      <trkpt lat="44.72415" lon="4.8681">
        <ele>353.7</ele>
        <time>2014-05-01T06:56:28Z</time>
      </trkpt>
      <trkpt lat="44.72412" lon="4.86804">
        <ele>354.1</ele>
        <time>2014-05-01T06:56:38Z</time>
      </trkpt>
      <trkpt lat="44.72409" lon="4.86799">
        <ele>354.5</ele>
        <time>2014-05-01T06:56:52Z</time>
      </trkpt>
      <trkpt lat="44.72405" lon="4.86796">
        <ele>355.3</ele>
        <time>2014-05-01T06:57:02Z</time>
      </trkpt>
      <trkpt lat="44.72401" lon="4.86792">
        <ele>355.9</ele>
        <time>2014-05-01T06:57:06Z</time>
      </trkpt>
      <trkpt lat="44.72392" lon="4.86784">
        <ele>357.4</ele>
        <time>2014-05-01T06:57:15Z</time>
      </trkpt>
      <trkpt lat="44.72388" lon="4.8678">
        <ele>358.1</ele>
        <time>2014-05-01T06:57:20Z</time>
      </trkpt>
      <trkpt lat="44.72384" lon="4.86775">
        <ele>358.8</ele>
        <time>2014-05-01T06:57:25Z</time>
      </trkpt>
      <trkpt lat="44.72379" lon="4.86772">
        <ele>359.7</ele>
        <time>2014-05-01T06:57:30Z</time>
      </trkpt>
      <trkpt lat="44.72375" lon="4.86767">
        <ele>360.2</ele>
        <time>2014-05-01T06:57:35Z</time>
      </trkpt>
      <trkpt lat="44.7237" lon="4.86764">
        <ele>361.1</ele>
        <time>2014-05-01T06:57:40Z</time>
      </trkpt>
      <trkpt lat="44.72366" lon="4.86761">
        <ele>361.9</ele>
        <time>2014-05-01T06:57:45Z</time>
      </trkpt>
      <trkpt lat="44.72362" lon="4.86757">
        <ele>362.7</ele>
        <time>2014-05-01T06:57:50Z</time>
      </trkpt>
      <trkpt lat="44.72357" lon="4.86754">
        <ele>363.5</ele>
        <time>2014-05-01T06:57:55Z</time>
      </trkpt>
      <trkpt lat="44.72353" lon="4.86751">
        <ele>364.3</ele>
        <time>2014-05-01T06:58:00Z</time>
      </trkpt>
      <trkpt lat="44.72348" lon="4.86747">
        <ele>364.6</ele>
        <time>2014-05-01T06:58:06Z</time>
      </trkpt>
      <trkpt lat="44.72342" lon="4.86735">
        <ele>364.3</ele>
        <time>2014-05-01T06:58:18Z</time>
      </trkpt>
      <trkpt lat="44.72337" lon="4.86735">
        <ele>365.3</ele>
        <time>2014-05-01T07:04:58Z</time>
      </trkpt>
      <trkpt lat="44.72328" lon="4.86732">
        <ele>366.4</ele>
        <time>2014-05-01T07:05:07Z</time>
      </trkpt>
      <trkpt lat="44.72323" lon="4.86729">
        <ele>366.4</ele>
        <time>2014-05-01T07:05:11Z</time>
      </trkpt>
      <trkpt lat="44.72319" lon="4.86725">
        <ele>366.4</ele>
        <time>2014-05-01T07:05:15Z</time>
      </trkpt>
      <trkpt lat="44.72316" lon="4.86721">
        <ele>366.3</ele>
        <time>2014-05-01T07:05:18Z</time>
      </trkpt>
      <trkpt lat="44.72311" lon="4.86719">
        <ele>366.6</ele>
        <time>2014-05-01T07:05:21Z</time>
      </trkpt>
      <trkpt lat="44.72306" lon="4.86715">
        <ele>366.9</ele>
        <time>2014-05-01T07:05:25Z</time>
      </trkpt>
      <trkpt lat="44.72301" lon="4.86713">
        <ele>367.2</ele>
        <time>2014-05-01T07:05:28Z</time>
      </trkpt>
      <trkpt lat="44.72297" lon="4.86711">
        <ele>367.6</ele>
        <time>2014-05-01T07:05:31Z</time>
      </trkpt>
      <trkpt lat="44.72292" lon="4.86708">
        <ele>367.9</ele>
        <time>2014-05-01T07:05:34Z</time>
      </trkpt>
      <trkpt lat="44.72287" lon="4.86706">
        <ele>368.3</ele>
        <time>2014-05-01T07:05:38Z</time>
      </trkpt>
      <trkpt lat="44.72292" lon="4.86712">
        <ele>368.2</ele>
        <time>2014-05-01T07:05:47Z</time>
      </trkpt>
      <trkpt lat="44.72297" lon="4.86717">
        <ele>368.1</ele>
        <time>2014-05-01T07:05:49Z</time>
      </trkpt>
      <trkpt lat="44.723" lon="4.86724">
        <ele>368.3</ele>
        <time>2014-05-01T07:05:52Z</time>
      </trkpt>
      <trkpt lat="44.723" lon="4.86731">
        <ele>369</ele>
        <time>2014-05-01T07:05:55Z</time>
      </trkpt>
      <trkpt lat="44.72298" lon="4.86737">
        <ele>369.8</ele>
        <time>2014-05-01T07:05:59Z</time>
      </trkpt>
      <trkpt lat="44.72287" lon="4.86737">
        <ele>370.8</ele>
        <time>2014-05-01T07:06:08Z</time>
      </trkpt>
      <trkpt lat="44.72282" lon="4.86734">
        <ele>371.1</ele>
        <time>2014-05-01T07:06:12Z</time>
      </trkpt>
      <trkpt lat="44.72278" lon="4.86732">
        <ele>371.4</ele>
        <time>2014-05-01T07:06:16Z</time>
      </trkpt>
      <trkpt lat="44.72273" lon="4.86729">
        <ele>371.6</ele>
        <time>2014-05-01T07:06:20Z</time>
      </trkpt>
      <trkpt lat="44.72268" lon="4.86726">
        <ele>371.9</ele>
        <time>2014-05-01T07:06:24Z</time>
      </trkpt>
      <trkpt lat="44.72262" lon="4.86726">
        <ele>372.5</ele>
        <time>2014-05-01T07:06:28Z</time>
      </trkpt>
      <trkpt lat="44.72257" lon="4.86727">
        <ele>373.2</ele>
        <time>2014-05-01T07:06:32Z</time>
      </trkpt>
      <trkpt lat="44.72251" lon="4.86729">
        <ele>373.9</ele>
        <time>2014-05-01T07:06:36Z</time>
      </trkpt>
      <trkpt lat="44.72246" lon="4.86729">
        <ele>374.7</ele>
        <time>2014-05-01T07:06:40Z</time>
      </trkpt>
      <trkpt lat="44.72241" lon="4.8673">
        <ele>375.5</ele>
        <time>2014-05-01T07:06:44Z</time>
      </trkpt>
      <trkpt lat="44.72235" lon="4.86728">
        <ele>376.4</ele>
        <time>2014-05-01T07:06:48Z</time>
      </trkpt>
      <trkpt lat="44.72229" lon="4.86728">
        <ele>377.4</ele>
        <time>2014-05-01T07:06:52Z</time>
      </trkpt>
      <trkpt lat="44.72224" lon="4.86727">
        <ele>378.2</ele>
        <time>2014-05-01T07:06:56Z</time>
      </trkpt>
      <trkpt lat="44.7222" lon="4.86725">
        <ele>378.8</ele>
        <time>2014-05-01T07:06:59Z</time>
      </trkpt>
      <trkpt lat="44.72215" lon="4.86723">
        <ele>379.5</ele>
        <time>2014-05-01T07:07:02Z</time>
      </trkpt>
      <trkpt lat="44.72207" lon="4.86716">
        <ele>380.6</ele>
        <time>2014-05-01T07:07:10Z</time>
      </trkpt>
      <trkpt lat="44.72202" lon="4.86711">
        <ele>381.2</ele>
        <time>2014-05-01T07:07:14Z</time>
      </trkpt>
      <trkpt lat="44.72198" lon="4.86708">
        <ele>381.7</ele>
        <time>2014-05-01T07:07:18Z</time>
      </trkpt>
      <trkpt lat="44.72194" lon="4.86703">
        <ele>382.1</ele>
        <time>2014-05-01T07:07:22Z</time>
      </trkpt>
      <trkpt lat="44.7219" lon="4.86699">
        <ele>382.6</ele>
        <time>2014-05-01T07:07:26Z</time>
      </trkpt>
      <trkpt lat="44.72186" lon="4.86694">
        <ele>383.1</ele>
        <time>2014-05-01T07:07:30Z</time>
      </trkpt>
      <trkpt lat="44.72182" lon="4.86689">
        <ele>383.5</ele>
        <time>2014-05-01T07:07:34Z</time>
      </trkpt>
      <trkpt lat="44.72178" lon="4.86684">
        <ele>384</ele>
        <time>2014-05-01T07:07:38Z</time>
      </trkpt>
      <trkpt lat="44.72173" lon="4.86681">
        <ele>384.6</ele>
        <time>2014-05-01T07:07:42Z</time>
      </trkpt>
      <trkpt lat="44.72168" lon="4.86681">
        <ele>385.4</ele>
        <time>2014-05-01T07:07:46Z</time>
      </trkpt>
      <trkpt lat="44.72163" lon="4.86681">
        <ele>386.3</ele>
        <time>2014-05-01T07:07:50Z</time>
      </trkpt>
      <trkpt lat="44.72158" lon="4.86683">
        <ele>387.4</ele>
        <time>2014-05-01T07:07:54Z</time>
      </trkpt>
      <trkpt lat="44.72152" lon="4.86685">
        <ele>388.4</ele>
        <time>2014-05-01T07:07:58Z</time>
      </trkpt>
      <trkpt lat="44.72146" lon="4.86685">
        <ele>389.4</ele>
        <time>2014-05-01T07:08:02Z</time>
      </trkpt>
      <trkpt lat="44.72142" lon="4.86683">
        <ele>390.1</ele>
        <time>2014-05-01T07:08:05Z</time>
      </trkpt>
      <trkpt lat="44.72131" lon="4.8668">
        <ele>392</ele>
        <time>2014-05-01T07:08:11Z</time>
      </trkpt>
      <trkpt lat="44.72126" lon="4.86679">
        <ele>392.9</ele>
        <time>2014-05-01T07:08:13Z</time>
      </trkpt>
      <trkpt lat="44.72121" lon="4.86677">
        <ele>393.8</ele>
        <time>2014-05-01T07:08:15Z</time>
      </trkpt>
      <trkpt lat="44.72116" lon="4.86676">
        <ele>394.7</ele>
        <time>2014-05-01T07:08:17Z</time>
      </trkpt>
      <trkpt lat="44.7211" lon="4.86675">
        <ele>395.8</ele>
        <time>2014-05-01T07:08:20Z</time>
      </trkpt>
      <trkpt lat="44.72104" lon="4.86674">
        <ele>397</ele>
        <time>2014-05-01T07:08:23Z</time>
      </trkpt>
      <trkpt lat="44.72097" lon="4.86674">
        <ele>398.2</ele>
        <time>2014-05-01T07:08:26Z</time>
      </trkpt>
      <trkpt lat="44.72091" lon="4.86676">
        <ele>399.2</ele>
        <time>2014-05-01T07:08:29Z</time>
      </trkpt>
      <trkpt lat="44.72087" lon="4.86678">
        <ele>400</ele>
        <time>2014-05-01T07:08:32Z</time>
      </trkpt>
      <trkpt lat="44.72081" lon="4.86681">
        <ele>400.8</ele>
        <time>2014-05-01T07:08:35Z</time>
      </trkpt>
      <trkpt lat="44.72076" lon="4.86684">
        <ele>401.1</ele>
        <time>2014-05-01T07:08:38Z</time>
      </trkpt>
      <trkpt lat="44.72072" lon="4.86687">
        <ele>401.5</ele>
        <time>2014-05-01T07:08:41Z</time>
      </trkpt>
      <trkpt lat="44.72068" lon="4.8669">
        <ele>401.9</ele>
        <time>2014-05-01T07:08:44Z</time>
      </trkpt>
      <trkpt lat="44.72064" lon="4.86693">
        <ele>402.2</ele>
        <time>2014-05-01T07:08:47Z</time>
      </trkpt>
      <trkpt lat="44.7206" lon="4.86699">
        <ele>402.5</ele>
        <time>2014-05-01T07:08:51Z</time>
      </trkpt>
      <trkpt lat="44.72056" lon="4.86705">
        <ele>402.9</ele>
        <time>2014-05-01T07:08:54Z</time>
      </trkpt>
      <trkpt lat="44.72053" lon="4.86711">
        <ele>403.1</ele>
        <time>2014-05-01T07:08:57Z</time>
      </trkpt>
      <trkpt lat="44.7205" lon="4.86717">
        <ele>403.4</ele>
        <time>2014-05-01T07:09:00Z</time>
      </trkpt>
      <trkpt lat="44.72048" lon="4.86723">
        <ele>403.5</ele>
        <time>2014-05-01T07:09:04Z</time>
      </trkpt>
      <trkpt lat="44.72046" lon="4.86729">
        <ele>403.6</ele>
        <time>2014-05-01T07:09:07Z</time>
      </trkpt>
      <trkpt lat="44.72041" lon="4.86743">
        <ele>404.2</ele>
        <time>2014-05-01T07:09:14Z</time>
      </trkpt>
      <trkpt lat="44.72038" lon="4.86748">
        <ele>404.5</ele>
        <time>2014-05-01T07:09:17Z</time>
      </trkpt>
      <trkpt lat="44.72035" lon="4.86754">
        <ele>404.6</ele>
        <time>2014-05-01T07:09:20Z</time>
      </trkpt>
      <trkpt lat="44.72032" lon="4.8676">
        <ele>404.6</ele>
        <time>2014-05-01T07:09:24Z</time>
      </trkpt>
      <trkpt lat="44.72029" lon="4.86765">
        <ele>404.5</ele>
        <time>2014-05-01T07:09:27Z</time>
      </trkpt>
      <trkpt lat="44.72027" lon="4.86771">
        <ele>404.4</ele>
        <time>2014-05-01T07:09:30Z</time>
      </trkpt>
      <trkpt lat="44.72024" lon="4.86777">
        <ele>404.3</ele>
        <time>2014-05-01T07:09:33Z</time>
      </trkpt>
      <trkpt lat="44.72022" lon="4.86782">
        <ele>404.2</ele>
        <time>2014-05-01T07:09:36Z</time>
      </trkpt>
      <trkpt lat="44.7202" lon="4.86787">
        <ele>404.4</ele>
        <time>2014-05-01T07:09:40Z</time>
      </trkpt>
      <trkpt lat="44.72018" lon="4.86793">
        <ele>404.3</ele>
        <time>2014-05-01T07:09:44Z</time>
      </trkpt>
      <trkpt lat="44.72014" lon="4.868">
        <ele>404.7</ele>
        <time>2014-05-01T07:09:48Z</time>
      </trkpt>
      <trkpt lat="44.7201" lon="4.86806">
        <ele>405.1</ele>
        <time>2014-05-01T07:09:52Z</time>
      </trkpt>
      <trkpt lat="44.72007" lon="4.86811">
        <ele>405.5</ele>
        <time>2014-05-01T07:09:55Z</time>
      </trkpt>
      <trkpt lat="44.72004" lon="4.86815">
        <ele>406</ele>
        <time>2014-05-01T07:09:58Z</time>
      </trkpt>
      <trkpt lat="44.71999" lon="4.86821">
        <ele>406.8</ele>
        <time>2014-05-01T07:10:02Z</time>
      </trkpt>
      <trkpt lat="44.71996" lon="4.86827">
        <ele>407.3</ele>
        <time>2014-05-01T07:10:05Z</time>
      </trkpt>
      <trkpt lat="44.71993" lon="4.86832">
        <ele>407.7</ele>
        <time>2014-05-01T07:10:08Z</time>
      </trkpt>
      <trkpt lat="44.71986" lon="4.86842">
        <ele>409.3</ele>
        <time>2014-05-01T07:10:14Z</time>
      </trkpt>
      <trkpt lat="44.71981" lon="4.86846">
        <ele>410.1</ele>
        <time>2014-05-01T07:10:17Z</time>
      </trkpt>
      <trkpt lat="44.71977" lon="4.86849">
        <ele>411</ele>
        <time>2014-05-01T07:10:20Z</time>
      </trkpt>
      <trkpt lat="44.71971" lon="4.86853">
        <ele>412.2</ele>
        <time>2014-05-01T07:10:23Z</time>
      </trkpt>
      <trkpt lat="44.71965" lon="4.86856">
        <ele>413.4</ele>
        <time>2014-05-01T07:10:26Z</time>
      </trkpt>
      <trkpt lat="44.71959" lon="4.86858">
        <ele>414.7</ele>
        <time>2014-05-01T07:10:29Z</time>
      </trkpt>
      <trkpt lat="44.71954" lon="4.86859">
        <ele>415.9</ele>
        <time>2014-05-01T07:10:32Z</time>
      </trkpt>
      <trkpt lat="44.71949" lon="4.86861">
        <ele>416.7</ele>
        <time>2014-05-01T07:10:34Z</time>
      </trkpt>
      <trkpt lat="44.71943" lon="4.86862">
        <ele>418</ele>
        <time>2014-05-01T07:10:36Z</time>
      </trkpt>
      <trkpt lat="44.71937" lon="4.86864">
        <ele>419.3</ele>
        <time>2014-05-01T07:10:38Z</time>
      </trkpt>
      <trkpt lat="44.71928" lon="4.86867">
        <ele>420.8</ele>
        <time>2014-05-01T07:10:40Z</time>
      </trkpt>
      <trkpt lat="44.71923" lon="4.8687">
        <ele>421.7</ele>
        <time>2014-05-01T07:10:41Z</time>
      </trkpt>
      <trkpt lat="44.71918" lon="4.86874">
        <ele>422.4</ele>
        <time>2014-05-01T07:10:42Z</time>
      </trkpt>
      <trkpt lat="44.71912" lon="4.86877">
        <ele>422.5</ele>
        <time>2014-05-01T07:10:43Z</time>
      </trkpt>
      <trkpt lat="44.71905" lon="4.8688">
        <ele>422.5</ele>
        <time>2014-05-01T07:10:44Z</time>
      </trkpt>
      <trkpt lat="44.71899" lon="4.86881">
        <ele>422.4</ele>
        <time>2014-05-01T07:10:45Z</time>
      </trkpt>
      <trkpt lat="44.71892" lon="4.86883">
        <ele>422.4</ele>
        <time>2014-05-01T07:10:46Z</time>
      </trkpt>
      <trkpt lat="44.71886" lon="4.86884">
        <ele>422.6</ele>
        <time>2014-05-01T07:10:47Z</time>
      </trkpt>
      <trkpt lat="44.71879" lon="4.86884">
        <ele>422.7</ele>
        <time>2014-05-01T07:10:48Z</time>
      </trkpt>
      <trkpt lat="44.71872" lon="4.86883">
        <ele>423.1</ele>
        <time>2014-05-01T07:10:49Z</time>
      </trkpt>
      <trkpt lat="44.71865" lon="4.86881">
        <ele>423.6</ele>
        <time>2014-05-01T07:10:50Z</time>
      </trkpt>
      <trkpt lat="44.71859" lon="4.86877">
        <ele>424.4</ele>
        <time>2014-05-01T07:10:51Z</time>
      </trkpt>
      <trkpt lat="44.71855" lon="4.86873">
        <ele>425.1</ele>
        <time>2014-05-01T07:10:52Z</time>
      </trkpt>
      <trkpt lat="44.71849" lon="4.86866">
        <ele>426.3</ele>
        <time>2014-05-01T07:10:54Z</time>
      </trkpt>
      <trkpt lat="44.71845" lon="4.86859">
        <ele>427.4</ele>
        <time>2014-05-01T07:10:56Z</time>
      </trkpt>
      <trkpt lat="44.71844" lon="4.86852">
        <ele>428.6</ele>
        <time>2014-05-01T07:10:58Z</time>
      </trkpt>
      <trkpt lat="44.71843" lon="4.86843">
        <ele>430.1</ele>
        <time>2014-05-01T07:11:01Z</time>
      </trkpt>
      <trkpt lat="44.71841" lon="4.86837">
        <ele>431.2</ele>
        <time>2014-05-01T07:11:03Z</time>
      </trkpt>
      <trkpt lat="44.71838" lon="4.86829">
        <ele>431.9</ele>
        <time>2014-05-01T07:11:06Z</time>
      </trkpt>
      <trkpt lat="44.71834" lon="4.86826">
        <ele>432.2</ele>
        <time>2014-05-01T07:11:08Z</time>
      </trkpt>
      <trkpt lat="44.71831" lon="4.8683">
        <ele>431.9</ele>
        <time>2014-05-01T07:11:10Z</time>
      </trkpt>
      <trkpt lat="44.71825" lon="4.86843">
        <ele>430.1</ele>
        <time>2014-05-01T07:11:14Z</time>
      </trkpt>
      <trkpt lat="44.71823" lon="4.86849">
        <ele>429</ele>
        <time>2014-05-01T07:11:16Z</time>
      </trkpt>
      <trkpt lat="44.7182" lon="4.86856">
        <ele>428</ele>
        <time>2014-05-01T07:11:18Z</time>
      </trkpt>
      <trkpt lat="44.71817" lon="4.86862">
        <ele>427.1</ele>
        <time>2014-05-01T07:11:20Z</time>
      </trkpt>
      <trkpt lat="44.71814" lon="4.86867">
        <ele>426.4</ele>
        <time>2014-05-01T07:11:22Z</time>
      </trkpt>
      <trkpt lat="44.7181" lon="4.86872">
        <ele>425.9</ele>
        <time>2014-05-01T07:11:24Z</time>
      </trkpt>
      <trkpt lat="44.71805" lon="4.86878">
        <ele>425.2</ele>
        <time>2014-05-01T07:11:27Z</time>
      </trkpt>
      <trkpt lat="44.71802" lon="4.86883">
        <ele>424.8</ele>
        <time>2014-05-01T07:11:30Z</time>
      </trkpt>
      <trkpt lat="44.71799" lon="4.86888">
        <ele>424.4</ele>
        <time>2014-05-01T07:11:33Z</time>
      </trkpt>
      <trkpt lat="44.71796" lon="4.86894">
        <ele>424</ele>
        <time>2014-05-01T07:11:36Z</time>
      </trkpt>
      <trkpt lat="44.71792" lon="4.86899">
        <ele>423.8</ele>
        <time>2014-05-01T07:11:39Z</time>
      </trkpt>
      <trkpt lat="44.71789" lon="4.86905">
        <ele>423.6</ele>
        <time>2014-05-01T07:11:42Z</time>
      </trkpt>
      <trkpt lat="44.71786" lon="4.8691">
        <ele>423.4</ele>
        <time>2014-05-01T07:11:45Z</time>
      </trkpt>
      <trkpt lat="44.71783" lon="4.86917">
        <ele>423.2</ele>
        <time>2014-05-01T07:11:48Z</time>
      </trkpt>
      <trkpt lat="44.71779" lon="4.86923">
        <ele>423.3</ele>
        <time>2014-05-01T07:11:51Z</time>
      </trkpt>
      <trkpt lat="44.71775" lon="4.86929">
        <ele>423.5</ele>
        <time>2014-05-01T07:11:54Z</time>
      </trkpt>
      <trkpt lat="44.71771" lon="4.86932">
        <ele>423.8</ele>
        <time>2014-05-01T07:11:57Z</time>
      </trkpt>
      <trkpt lat="44.71766" lon="4.86935">
        <ele>424.3</ele>
        <time>2014-05-01T07:12:00Z</time>
      </trkpt>
      <trkpt lat="44.71761" lon="4.86935">
        <ele>424.8</ele>
        <time>2014-05-01T07:12:03Z</time>
      </trkpt>
      <trkpt lat="44.71755" lon="4.86935">
        <ele>425.4</ele>
        <time>2014-05-01T07:12:06Z</time>
      </trkpt>
      <trkpt lat="44.71749" lon="4.86935">
        <ele>426</ele>
        <time>2014-05-01T07:12:09Z</time>
      </trkpt>
      <trkpt lat="44.71744" lon="4.86936">
        <ele>426.5</ele>
        <time>2014-05-01T07:12:12Z</time>
      </trkpt>
      <trkpt lat="44.71735" lon="4.86943">
        <ele>427.3</ele>
        <time>2014-05-01T07:12:18Z</time>
      </trkpt>
      <trkpt lat="44.71731" lon="4.86948">
        <ele>427.7</ele>
        <time>2014-05-01T07:12:21Z</time>
      </trkpt>
      <trkpt lat="44.71727" lon="4.86952">
        <ele>428.1</ele>
        <time>2014-05-01T07:12:24Z</time>
      </trkpt>
      <trkpt lat="44.71724" lon="4.86956">
        <ele>428.5</ele>
        <time>2014-05-01T07:12:27Z</time>
      </trkpt>
      <trkpt lat="44.7172" lon="4.86961">
        <ele>428.9</ele>
        <time>2014-05-01T07:12:30Z</time>
      </trkpt>
      <trkpt lat="44.71717" lon="4.86967">
        <ele>429.4</ele>
        <time>2014-05-01T07:12:33Z</time>
      </trkpt>
      <trkpt lat="44.71713" lon="4.86971">
        <ele>430</ele>
        <time>2014-05-01T07:12:36Z</time>
      </trkpt>
      <trkpt lat="44.71708" lon="4.86975">
        <ele>430.6</ele>
        <time>2014-05-01T07:12:39Z</time>
      </trkpt>
      <trkpt lat="44.71704" lon="4.86978">
        <ele>431.2</ele>
        <time>2014-05-01T07:12:42Z</time>
      </trkpt>
      <trkpt lat="44.71699" lon="4.86982">
        <ele>431.8</ele>
        <time>2014-05-01T07:12:45Z</time>
      </trkpt>
      <trkpt lat="44.71694" lon="4.86985">
        <ele>432.7</ele>
        <time>2014-05-01T07:12:48Z</time>
      </trkpt>
      <trkpt lat="44.71687" lon="4.86989">
        <ele>433.7</ele>
        <time>2014-05-01T07:12:51Z</time>
      </trkpt>
      <trkpt lat="44.71682" lon="4.86989">
        <ele>434.3</ele>
        <time>2014-05-01T07:12:53Z</time>
      </trkpt>
      <trkpt lat="44.71677" lon="4.86988">
        <ele>434.8</ele>
        <time>2014-05-01T07:12:55Z</time>
      </trkpt>
      <trkpt lat="44.71671" lon="4.86987">
        <ele>435.5</ele>
        <time>2014-05-01T07:12:57Z</time>
      </trkpt>
      <trkpt lat="44.71664" lon="4.86988">
        <ele>436.1</ele>
        <time>2014-05-01T07:12:59Z</time>
      </trkpt>
      <trkpt lat="44.71656" lon="4.86991">
        <ele>436.5</ele>
        <time>2014-05-01T07:13:01Z</time>
      </trkpt>
      <trkpt lat="44.71651" lon="4.86992">
        <ele>436.6</ele>
        <time>2014-05-01T07:13:02Z</time>
      </trkpt>
      <trkpt lat="44.71646" lon="4.86992">
        <ele>436.7</ele>
        <time>2014-05-01T07:13:03Z</time>
      </trkpt>
      <trkpt lat="44.71641" lon="4.86991">
        <ele>436.8</ele>
        <time>2014-05-01T07:13:04Z</time>
      </trkpt>
      <trkpt lat="44.71635" lon="4.86991">
        <ele>436.8</ele>
        <time>2014-05-01T07:13:05Z</time>
      </trkpt>
      <trkpt lat="44.7163" lon="4.86989">
        <ele>436.8</ele>
        <time>2014-05-01T07:13:06Z</time>
      </trkpt>
      <trkpt lat="44.71626" lon="4.86986">
        <ele>436.8</ele>
        <time>2014-05-01T07:13:07Z</time>
      </trkpt>
      <trkpt lat="44.71619" lon="4.8698">
        <ele>436.6</ele>
        <time>2014-05-01T07:13:09Z</time>
      </trkpt>
      <trkpt lat="44.71614" lon="4.86973">
        <ele>436.5</ele>
        <time>2014-05-01T07:13:11Z</time>
      </trkpt>
      <trkpt lat="44.71609" lon="4.86965">
        <ele>436.3</ele>
        <time>2014-05-01T07:13:13Z</time>
      </trkpt>
      <trkpt lat="44.71601" lon="4.86954">
        <ele>436.2</ele>
        <time>2014-05-01T07:13:17Z</time>
      </trkpt>
      <trkpt lat="44.71596" lon="4.86958">
        <ele>436.5</ele>
        <time>2014-05-01T07:13:20Z</time>
      </trkpt>
      <trkpt lat="44.71593" lon="4.86965">
        <ele>436.8</ele>
        <time>2014-05-01T07:13:24Z</time>
      </trkpt>
      <trkpt lat="44.71589" lon="4.8697">
        <ele>437.1</ele>
        <time>2014-05-01T07:13:27Z</time>
      </trkpt>
      <trkpt lat="44.71584" lon="4.86971">
        <ele>437.3</ele>
        <time>2014-05-01T07:13:30Z</time>
      </trkpt>
      <trkpt lat="44.7158" lon="4.86973">
        <ele>437.4</ele>
        <time>2014-05-01T07:13:32Z</time>
      </trkpt>
      <trkpt lat="44.71575" lon="4.86978">
        <ele>437.7</ele>
        <time>2014-05-01T07:13:34Z</time>
      </trkpt>
      <trkpt lat="44.7157" lon="4.86983">
        <ele>437.8</ele>
        <time>2014-05-01T07:13:36Z</time>
      </trkpt>
      <trkpt lat="44.71569" lon="4.86992">
        <ele>438</ele>
        <time>2014-05-01T07:13:38Z</time>
      </trkpt>
      <trkpt lat="44.71569" lon="4.86999">
        <ele>438.1</ele>
        <time>2014-05-01T07:13:40Z</time>
      </trkpt>
      <trkpt lat="44.71566" lon="4.87005">
        <ele>438</ele>
        <time>2014-05-01T07:13:42Z</time>
      </trkpt>
      <trkpt lat="44.71561" lon="4.87007">
        <ele>438</ele>
        <time>2014-05-01T07:13:44Z</time>
      </trkpt>
      <trkpt lat="44.71555" lon="4.87012">
        <ele>437.8</ele>
        <time>2014-05-01T07:13:47Z</time>
      </trkpt>
      <trkpt lat="44.71551" lon="4.87014">
        <ele>437.6</ele>
        <time>2014-05-01T07:13:49Z</time>
      </trkpt>
      <trkpt lat="44.71547" lon="4.87018">
        <ele>437.4</ele>
        <time>2014-05-01T07:13:51Z</time>
      </trkpt>
      <trkpt lat="44.71542" lon="4.87025">
        <ele>437</ele>
        <time>2014-05-01T07:13:53Z</time>
      </trkpt>
      <trkpt lat="44.71539" lon="4.87035">
        <ele>436.4</ele>
        <time>2014-05-01T07:13:55Z</time>
      </trkpt>
      <trkpt lat="44.71535" lon="4.87043">
        <ele>435.8</ele>
        <time>2014-05-01T07:13:57Z</time>
      </trkpt>
      <trkpt lat="44.71533" lon="4.87052">
        <ele>435.2</ele>
        <time>2014-05-01T07:13:59Z</time>
      </trkpt>
      <trkpt lat="44.71533" lon="4.87062">
        <ele>434.5</ele>
        <time>2014-05-01T07:14:01Z</time>
      </trkpt>
      <trkpt lat="44.71533" lon="4.87073">
        <ele>433.8</ele>
        <time>2014-05-01T07:14:03Z</time>
      </trkpt>
      <trkpt lat="44.71534" lon="4.8708">
        <ele>433.3</ele>
        <time>2014-05-01T07:14:05Z</time>
      </trkpt>
      <trkpt lat="44.71538" lon="4.87087">
        <ele>433.1</ele>
        <time>2014-05-01T07:14:08Z</time>
      </trkpt>
      <trkpt lat="44.71542" lon="4.87093">
        <ele>433.2</ele>
        <time>2014-05-01T07:14:10Z</time>
      </trkpt>
      <trkpt lat="44.71548" lon="4.87102">
        <ele>433.3</ele>
        <time>2014-05-01T07:14:12Z</time>
      </trkpt>
      <trkpt lat="44.71553" lon="4.87109">
        <ele>433.5</ele>
        <time>2014-05-01T07:14:13Z</time>
      </trkpt>
      <trkpt lat="44.71558" lon="4.87116">
        <ele>433.7</ele>
        <time>2014-05-01T07:14:14Z</time>
      </trkpt>
      <trkpt lat="44.71565" lon="4.87126">
        <ele>433.9</ele>
        <time>2014-05-01T07:14:16Z</time>
      </trkpt>
      <trkpt lat="44.71569" lon="4.87138">
        <ele>434</ele>
        <time>2014-05-01T07:14:18Z</time>
      </trkpt>
      <trkpt lat="44.7157" lon="4.87144">
        <ele>434</ele>
        <time>2014-05-01T07:14:19Z</time>
      </trkpt>
      <trkpt lat="44.7157" lon="4.87155">
        <ele>433.8</ele>
        <time>2014-05-01T07:14:21Z</time>
      </trkpt>
      <trkpt lat="44.71568" lon="4.87163">
        <ele>433.5</ele>
        <time>2014-05-01T07:14:23Z</time>
      </trkpt>
      <trkpt lat="44.71565" lon="4.87171">
        <ele>432.8</ele>
        <time>2014-05-01T07:14:25Z</time>
      </trkpt>
      <trkpt lat="44.71562" lon="4.87178">
        <ele>432.1</ele>
        <time>2014-05-01T07:14:27Z</time>
      </trkpt>
      <trkpt lat="44.71558" lon="4.87185">
        <ele>431.2</ele>
        <time>2014-05-01T07:14:29Z</time>
      </trkpt>
      <trkpt lat="44.71553" lon="4.87193">
        <ele>430.2</ele>
        <time>2014-05-01T07:14:31Z</time>
      </trkpt>
      <trkpt lat="44.71551" lon="4.87198">
        <ele>429.6</ele>
        <time>2014-05-01T07:14:32Z</time>
      </trkpt>
      <trkpt lat="44.71546" lon="4.87209">
        <ele>428.5</ele>
        <time>2014-05-01T07:14:34Z</time>
      </trkpt>
      <trkpt lat="44.71542" lon="4.87219">
        <ele>427.4</ele>
        <time>2014-05-01T07:14:36Z</time>
      </trkpt>
      <trkpt lat="44.71539" lon="4.87227">
        <ele>426.6</ele>
        <time>2014-05-01T07:14:38Z</time>
      </trkpt>
      <trkpt lat="44.71534" lon="4.87236">
        <ele>425.5</ele>
        <time>2014-05-01T07:14:40Z</time>
      </trkpt>
      <trkpt lat="44.7153" lon="4.87242">
        <ele>424.8</ele>
        <time>2014-05-01T07:14:41Z</time>
      </trkpt>
      <trkpt lat="44.71526" lon="4.87247">
        <ele>424</ele>
        <time>2014-05-01T07:14:42Z</time>
      </trkpt>
      <trkpt lat="44.71522" lon="4.87252">
        <ele>423.3</ele>
        <time>2014-05-01T07:14:43Z</time>
      </trkpt>
      <trkpt lat="44.71517" lon="4.87257">
        <ele>422.3</ele>
        <time>2014-05-01T07:14:44Z</time>
      </trkpt>
      <trkpt lat="44.71514" lon="4.87264">
        <ele>421.5</ele>
        <time>2014-05-01T07:14:45Z</time>
      </trkpt>
      <trkpt lat="44.71509" lon="4.8727">
        <ele>420.6</ele>
        <time>2014-05-01T07:14:46Z</time>
      </trkpt>
      <trkpt lat="44.71504" lon="4.87276">
        <ele>419.7</ele>
        <time>2014-05-01T07:14:47Z</time>
      </trkpt>
      <trkpt lat="44.715" lon="4.87281">
        <ele>418.9</ele>
        <time>2014-05-01T07:14:48Z</time>
      </trkpt>
      <trkpt lat="44.71496" lon="4.87286">
        <ele>417.6</ele>
        <time>2014-05-01T07:14:49Z</time>
      </trkpt>
      <trkpt lat="44.71492" lon="4.87291">
        <ele>416.4</ele>
        <time>2014-05-01T07:14:50Z</time>
      </trkpt>
      <trkpt lat="44.71488" lon="4.87296">
        <ele>415.1</ele>
        <time>2014-05-01T07:14:51Z</time>
      </trkpt>
      <trkpt lat="44.71484" lon="4.87301">
        <ele>414</ele>
        <time>2014-05-01T07:14:52Z</time>
      </trkpt>
      <trkpt lat="44.71478" lon="4.87308">
        <ele>412.2</ele>
        <time>2014-05-01T07:14:54Z</time>
      </trkpt>
      <trkpt lat="44.71474" lon="4.87312">
        <ele>411.1</ele>
        <time>2014-05-01T07:14:56Z</time>
      </trkpt>
      <trkpt lat="44.71469" lon="4.87317">
        <ele>409.5</ele>
        <time>2014-05-01T07:14:59Z</time>
      </trkpt>
      <trkpt lat="44.71463" lon="4.87326">
        <ele>407.7</ele>
        <time>2014-05-01T07:15:01Z</time>
      </trkpt>
      <trkpt lat="44.71459" lon="4.87334">
        <ele>406.1</ele>
        <time>2014-05-01T07:15:03Z</time>
      </trkpt>
      <trkpt lat="44.71457" lon="4.87342">
        <ele>405</ele>
        <time>2014-05-01T07:15:05Z</time>
      </trkpt>
      <trkpt lat="44.71456" lon="4.87351">
        <ele>404</ele>
        <time>2014-05-01T07:15:07Z</time>
      </trkpt>
      <trkpt lat="44.71456" lon="4.87359">
        <ele>403.4</ele>
        <time>2014-05-01T07:15:09Z</time>
      </trkpt>
      <trkpt lat="44.71456" lon="4.87368">
        <ele>402.6</ele>
        <time>2014-05-01T07:15:11Z</time>
      </trkpt>
      <trkpt lat="44.71458" lon="4.87375">
        <ele>402.1</ele>
        <time>2014-05-01T07:15:13Z</time>
      </trkpt>
      <trkpt lat="44.71459" lon="4.87384">
        <ele>401.6</ele>
        <time>2014-05-01T07:15:16Z</time>
      </trkpt>
      <trkpt lat="44.71462" lon="4.87398">
        <ele>401</ele>
        <time>2014-05-01T07:15:20Z</time>
      </trkpt>
      <trkpt lat="44.71466" lon="4.87405">
        <ele>401</ele>
        <time>2014-05-01T07:15:22Z</time>
      </trkpt>
      <trkpt lat="44.71472" lon="4.87414">
        <ele>401.3</ele>
        <time>2014-05-01T07:15:24Z</time>
      </trkpt>
      <trkpt lat="44.71475" lon="4.87419">
        <ele>401.4</ele>
        <time>2014-05-01T07:15:25Z</time>
      </trkpt>
      <trkpt lat="44.71478" lon="4.87424">
        <ele>401.7</ele>
        <time>2014-05-01T07:15:26Z</time>
      </trkpt>
      <trkpt lat="44.71482" lon="4.8743">
        <ele>402</ele>
        <time>2014-05-01T07:15:27Z</time>
      </trkpt>
      <trkpt lat="44.71486" lon="4.87435">
        <ele>402.4</ele>
        <time>2014-05-01T07:15:28Z</time>
      </trkpt>
      <trkpt lat="44.71489" lon="4.8744">
        <ele>402.7</ele>
        <time>2014-05-01T07:15:29Z</time>
      </trkpt>
      <trkpt lat="44.71493" lon="4.87445">
        <ele>403.1</ele>
        <time>2014-05-01T07:15:30Z</time>
      </trkpt>
      <trkpt lat="44.71497" lon="4.87451">
        <ele>403.3</ele>
        <time>2014-05-01T07:15:31Z</time>
      </trkpt>
      <trkpt lat="44.715" lon="4.87457">
        <ele>403.6</ele>
        <time>2014-05-01T07:15:32Z</time>
      </trkpt>
      <trkpt lat="44.71502" lon="4.87463">
        <ele>403.5</ele>
        <time>2014-05-01T07:15:33Z</time>
      </trkpt>
      <trkpt lat="44.71504" lon="4.8747">
        <ele>403.2</ele>
        <time>2014-05-01T07:15:34Z</time>
      </trkpt>
      <trkpt lat="44.71505" lon="4.87477">
        <ele>402.8</ele>
        <time>2014-05-01T07:15:35Z</time>
      </trkpt>
      <trkpt lat="44.71505" lon="4.87488">
        <ele>402.3</ele>
        <time>2014-05-01T07:15:37Z</time>
      </trkpt>
      <trkpt lat="44.71504" lon="4.87497">
        <ele>401.6</ele>
        <time>2014-05-01T07:15:39Z</time>
      </trkpt>
      <trkpt lat="44.71504" lon="4.87505">
        <ele>401.1</ele>
        <time>2014-05-01T07:15:41Z</time>
      </trkpt>
      <trkpt lat="44.71504" lon="4.87512">
        <ele>400.7</ele>
        <time>2014-05-01T07:15:43Z</time>
      </trkpt>
      <trkpt lat="44.71504" lon="4.87519">
        <ele>400.3</ele>
        <time>2014-05-01T07:15:45Z</time>
      </trkpt>
      <trkpt lat="44.71505" lon="4.87527">
        <ele>400</ele>
        <time>2014-05-01T07:15:47Z</time>
      </trkpt>
      <trkpt lat="44.71506" lon="4.87535">
        <ele>399.5</ele>
        <time>2014-05-01T07:15:49Z</time>
      </trkpt>
      <trkpt lat="44.71506" lon="4.87543">
        <ele>399.1</ele>
        <time>2014-05-01T07:15:51Z</time>
      </trkpt>
      <trkpt lat="44.71506" lon="4.8755">
        <ele>398.6</ele>
        <time>2014-05-01T07:15:53Z</time>
      </trkpt>
      <trkpt lat="44.71506" lon="4.87558">
        <ele>398.2</ele>
        <time>2014-05-01T07:15:55Z</time>
      </trkpt>
      <trkpt lat="44.71506" lon="4.87565">
        <ele>397.7</ele>
        <time>2014-05-01T07:15:57Z</time>
      </trkpt>
      <trkpt lat="44.71501" lon="4.87562">
        <ele>397.4</ele>
        <time>2014-05-01T07:16:07Z</time>
      </trkpt>
      <trkpt lat="44.71495" lon="4.87556">
        <ele>397.1</ele>
        <time>2014-05-01T07:16:10Z</time>
      </trkpt>
      <trkpt lat="44.71492" lon="4.87551">
        <ele>397</ele>
        <time>2014-05-01T07:16:12Z</time>
      </trkpt>
      <trkpt lat="44.71488" lon="4.87544">
        <ele>396.9</ele>
        <time>2014-05-01T07:16:14Z</time>
      </trkpt>
      <trkpt lat="44.71481" lon="4.87542">
        <ele>396</ele>
        <time>2014-05-01T07:16:16Z</time>
      </trkpt>
      <trkpt lat="44.71476" lon="4.87541">
        <ele>395.4</ele>
        <time>2014-05-01T07:16:17Z</time>
      </trkpt>
      <trkpt lat="44.71461" lon="4.87539">
        <ele>393.4</ele>
        <time>2014-05-01T07:16:20Z</time>
      </trkpt>
      <trkpt lat="44.71456" lon="4.87539">
        <ele>392.7</ele>
        <time>2014-05-01T07:16:21Z</time>
      </trkpt>
      <trkpt lat="44.71449" lon="4.87538">
        <ele>391.8</ele>
        <time>2014-05-01T07:16:22Z</time>
      </trkpt>
      <trkpt lat="44.71443" lon="4.87538">
        <ele>391</ele>
        <time>2014-05-01T07:16:23Z</time>
      </trkpt>
      <trkpt lat="44.71437" lon="4.87538">
        <ele>390.1</ele>
        <time>2014-05-01T07:16:24Z</time>
      </trkpt>
      <trkpt lat="44.71432" lon="4.87539">
        <ele>389.4</ele>
        <time>2014-05-01T07:16:25Z</time>
      </trkpt>
      <trkpt lat="44.71432" lon="4.87532">
        <ele>389.4</ele>
        <time>2014-05-01T07:16:29Z</time>
      </trkpt>
      <trkpt lat="44.71437" lon="4.87529">
        <ele>390</ele>
        <time>2014-05-01T07:16:31Z</time>
      </trkpt>
      <trkpt lat="44.71442" lon="4.87523">
        <ele>390.7</ele>
        <time>2014-05-01T07:16:33Z</time>
      </trkpt>
      <trkpt lat="44.71448" lon="4.87513">
        <ele>391.7</ele>
        <time>2014-05-01T07:16:35Z</time>
      </trkpt>
      <trkpt lat="44.71451" lon="4.87507">
        <ele>392.2</ele>
        <time>2014-05-01T07:16:36Z</time>
      </trkpt>
      <trkpt lat="44.71454" lon="4.87499">
        <ele>392.8</ele>
        <time>2014-05-01T07:16:38Z</time>
      </trkpt>
      <trkpt lat="44.71448" lon="4.87495">
        <ele>392</ele>
        <time>2014-05-01T07:16:41Z</time>
      </trkpt>
      <trkpt lat="44.71442" lon="4.87491">
        <ele>391.1</ele>
        <time>2014-05-01T07:16:43Z</time>
      </trkpt>
      <trkpt lat="44.71435" lon="4.87488">
        <ele>390</ele>
        <time>2014-05-01T07:16:45Z</time>
      </trkpt>
      <trkpt lat="44.7143" lon="4.87487">
        <ele>389.2</ele>
        <time>2014-05-01T07:16:46Z</time>
      </trkpt>
      <trkpt lat="44.71422" lon="4.87487">
        <ele>387.8</ele>
        <time>2014-05-01T07:16:48Z</time>
      </trkpt>
      <trkpt lat="44.71418" lon="4.87485">
        <ele>387.1</ele>
        <time>2014-05-01T07:16:49Z</time>
      </trkpt>
      <trkpt lat="44.71413" lon="4.87482">
        <ele>386.5</ele>
        <time>2014-05-01T07:16:50Z</time>
      </trkpt>
      <trkpt lat="44.71409" lon="4.87479">
        <ele>386.2</ele>
        <time>2014-05-01T07:16:51Z</time>
      </trkpt>
      <trkpt lat="44.71405" lon="4.87475">
        <ele>385.7</ele>
        <time>2014-05-01T07:16:52Z</time>
      </trkpt>
      <trkpt lat="44.714" lon="4.87466">
        <ele>385.3</ele>
        <time>2014-05-01T07:16:54Z</time>
      </trkpt>
      <trkpt lat="44.71397" lon="4.87461">
        <ele>385</ele>
        <time>2014-05-01T07:16:55Z</time>
      </trkpt>
      <trkpt lat="44.71395" lon="4.87456">
        <ele>384.9</ele>
        <time>2014-05-01T07:16:56Z</time>
      </trkpt>
      <trkpt lat="44.71393" lon="4.87449">
        <ele>385</ele>
        <time>2014-05-01T07:16:57Z</time>
      </trkpt>
      <trkpt lat="44.71391" lon="4.87442">
        <ele>385</ele>
        <time>2014-05-01T07:16:58Z</time>
      </trkpt>
      <trkpt lat="44.71389" lon="4.87435">
        <ele>384.9</ele>
        <time>2014-05-01T07:16:59Z</time>
      </trkpt>
      <trkpt lat="44.71386" lon="4.87427">
        <ele>384.7</ele>
        <time>2014-05-01T07:17:00Z</time>
      </trkpt>
      <trkpt lat="44.71384" lon="4.8742">
        <ele>384.6</ele>
        <time>2014-05-01T07:17:01Z</time>
      </trkpt>
      <trkpt lat="44.71382" lon="4.87414">
        <ele>384.6</ele>
        <time>2014-05-01T07:17:02Z</time>
      </trkpt>
      <trkpt lat="44.71377" lon="4.87408">
        <ele>384.2</ele>
        <time>2014-05-01T07:17:04Z</time>
      </trkpt>
      <trkpt lat="44.71372" lon="4.87412">
        <ele>382.9</ele>
        <time>2014-05-01T07:17:06Z</time>
      </trkpt>
      <trkpt lat="44.71369" lon="4.87416">
        <ele>381.9</ele>
        <time>2014-05-01T07:17:07Z</time>
      </trkpt>
      <trkpt lat="44.71366" lon="4.87422">
        <ele>381.1</ele>
        <time>2014-05-01T07:17:08Z</time>
      </trkpt>
      <trkpt lat="44.71363" lon="4.87428">
        <ele>380.3</ele>
        <time>2014-05-01T07:17:09Z</time>
      </trkpt>
      <trkpt lat="44.7136" lon="4.87434">
        <ele>379.6</ele>
        <time>2014-05-01T07:17:10Z</time>
      </trkpt>
      <trkpt lat="44.71356" lon="4.87441">
        <ele>378.8</ele>
        <time>2014-05-01T07:17:11Z</time>
      </trkpt>
      <trkpt lat="44.71352" lon="4.87448">
        <ele>378</ele>
        <time>2014-05-01T07:17:12Z</time>
      </trkpt>
      <trkpt lat="44.71348" lon="4.87455">
        <ele>377</ele>
        <time>2014-05-01T07:17:13Z</time>
      </trkpt>
      <trkpt lat="44.71343" lon="4.87462">
        <ele>376.1</ele>
        <time>2014-05-01T07:17:14Z</time>
      </trkpt>
      <trkpt lat="44.71339" lon="4.87469">
        <ele>375.2</ele>
        <time>2014-05-01T07:17:15Z</time>
      </trkpt>
      <trkpt lat="44.71335" lon="4.87474">
        <ele>374.5</ele>
        <time>2014-05-01T07:17:16Z</time>
      </trkpt>
      <trkpt lat="44.71331" lon="4.87478">
        <ele>373.8</ele>
        <time>2014-05-01T07:17:17Z</time>
      </trkpt>
      <trkpt lat="44.71327" lon="4.87481">
        <ele>373</ele>
        <time>2014-05-01T07:17:18Z</time>
      </trkpt>
      <trkpt lat="44.71317" lon="4.87485">
        <ele>371</ele>
        <time>2014-05-01T07:17:20Z</time>
      </trkpt>
      <trkpt lat="44.71313" lon="4.87488">
        <ele>370.1</ele>
        <time>2014-05-01T07:17:21Z</time>
      </trkpt>
      <trkpt lat="44.71309" lon="4.87492">
        <ele>369</ele>
        <time>2014-05-01T07:17:22Z</time>
      </trkpt>
      <trkpt lat="44.71304" lon="4.87495">
        <ele>367.9</ele>
        <time>2014-05-01T07:17:23Z</time>
      </trkpt>
      <trkpt lat="44.71299" lon="4.87498">
        <ele>366.7</ele>
        <time>2014-05-01T07:17:24Z</time>
      </trkpt>
      <trkpt lat="44.71293" lon="4.875">
        <ele>365.4</ele>
        <time>2014-05-01T07:17:25Z</time>
      </trkpt>
      <trkpt lat="44.71288" lon="4.87502">
        <ele>364.4</ele>
        <time>2014-05-01T07:17:26Z</time>
      </trkpt>
      <trkpt lat="44.71282" lon="4.87503">
        <ele>363.5</ele>
        <time>2014-05-01T07:17:27Z</time>
      </trkpt>
      <trkpt lat="44.71277" lon="4.87503">
        <ele>362.3</ele>
        <time>2014-05-01T07:17:28Z</time>
      </trkpt>
      <trkpt lat="44.71271" lon="4.87503">
        <ele>361</ele>
        <time>2014-05-01T07:17:29Z</time>
      </trkpt>
      <trkpt lat="44.71264" lon="4.87503">
        <ele>359.6</ele>
        <time>2014-05-01T07:17:30Z</time>
      </trkpt>
      <trkpt lat="44.71258" lon="4.87502">
        <ele>358</ele>
        <time>2014-05-01T07:17:31Z</time>
      </trkpt>
      <trkpt lat="44.71253" lon="4.87502">
        <ele>356.8</ele>
        <time>2014-05-01T07:17:32Z</time>
      </trkpt>
      <trkpt lat="44.71248" lon="4.87499">
        <ele>355.9</ele>
        <time>2014-05-01T07:17:33Z</time>
      </trkpt>
      <trkpt lat="44.71242" lon="4.87498">
        <ele>355.3</ele>
        <time>2014-05-01T07:17:34Z</time>
      </trkpt>
      <trkpt lat="44.71236" lon="4.87497">
        <ele>354.7</ele>
        <time>2014-05-01T07:17:35Z</time>
      </trkpt>
      <trkpt lat="44.71231" lon="4.87495">
        <ele>354.1</ele>
        <time>2014-05-01T07:17:36Z</time>
      </trkpt>
      <trkpt lat="44.71225" lon="4.87492">
        <ele>353.6</ele>
        <time>2014-05-01T07:17:37Z</time>
      </trkpt>
      <trkpt lat="44.71218" lon="4.87488">
        <ele>353.5</ele>
        <time>2014-05-01T07:17:38Z</time>
      </trkpt>
      <trkpt lat="44.71212" lon="4.87484">
        <ele>353.3</ele>
        <time>2014-05-01T07:17:39Z</time>
      </trkpt>
      <trkpt lat="44.71206" lon="4.87479">
        <ele>353.1</ele>
        <time>2014-05-01T07:17:40Z</time>
      </trkpt>
      <trkpt lat="44.712" lon="4.87473">
        <ele>353.4</ele>
        <time>2014-05-01T07:17:41Z</time>
      </trkpt>
      <trkpt lat="44.71194" lon="4.87468">
        <ele>353.5</ele>
        <time>2014-05-01T07:17:42Z</time>
      </trkpt>
      <trkpt lat="44.71188" lon="4.87462">
        <ele>353.8</ele>
        <time>2014-05-01T07:17:43Z</time>
      </trkpt>
      <trkpt lat="44.71182" lon="4.87454">
        <ele>354.4</ele>
        <time>2014-05-01T07:17:44Z</time>
      </trkpt>
      <trkpt lat="44.71177" lon="4.87448">
        <ele>354.7</ele>
        <time>2014-05-01T07:17:45Z</time>
      </trkpt>
      <trkpt lat="44.71171" lon="4.87442">
        <ele>355.2</ele>
        <time>2014-05-01T07:17:46Z</time>
      </trkpt>
      <trkpt lat="44.71166" lon="4.87437">
        <ele>355.5</ele>
        <time>2014-05-01T07:17:47Z</time>
      </trkpt>
      <trkpt lat="44.71162" lon="4.87431">
        <ele>355.5</ele>
        <time>2014-05-01T07:17:48Z</time>
      </trkpt>
      <trkpt lat="44.71157" lon="4.87427">
        <ele>355.3</ele>
        <time>2014-05-01T07:17:49Z</time>
      </trkpt>
      <trkpt lat="44.71153" lon="4.87422">
        <ele>354.9</ele>
        <time>2014-05-01T07:17:50Z</time>
      </trkpt>
      <trkpt lat="44.71149" lon="4.87416">
        <ele>354.8</ele>
        <time>2014-05-01T07:17:51Z</time>
      </trkpt>
      <trkpt lat="44.71146" lon="4.87411">
        <ele>355.3</ele>
        <time>2014-05-01T07:17:52Z</time>
      </trkpt>
      <trkpt lat="44.71143" lon="4.87406">
        <ele>355.6</ele>
        <time>2014-05-01T07:17:53Z</time>
      </trkpt>
      <trkpt lat="44.71139" lon="4.87401">
        <ele>355.6</ele>
        <time>2014-05-01T07:17:54Z</time>
      </trkpt>
      <trkpt lat="44.71136" lon="4.87397">
        <ele>355.9</ele>
        <time>2014-05-01T07:17:55Z</time>
      </trkpt>
      <trkpt lat="44.71132" lon="4.87392">
        <ele>355.8</ele>
        <time>2014-05-01T07:17:56Z</time>
      </trkpt>
      <trkpt lat="44.71129" lon="4.87387">
        <ele>356.1</ele>
        <time>2014-05-01T07:17:57Z</time>
      </trkpt>
      <trkpt lat="44.71126" lon="4.87381">
        <ele>356.4</ele>
        <time>2014-05-01T07:17:58Z</time>
      </trkpt>
      <trkpt lat="44.71124" lon="4.87375">
        <ele>357.1</ele>
        <time>2014-05-01T07:17:59Z</time>
      </trkpt>
      <trkpt lat="44.71121" lon="4.87369">
        <ele>357.5</ele>
        <time>2014-05-01T07:18:00Z</time>
      </trkpt>
      <trkpt lat="44.71114" lon="4.8736">
        <ele>357.2</ele>
        <time>2014-05-01T07:18:02Z</time>
      </trkpt>
      <trkpt lat="44.7111" lon="4.87356">
        <ele>356.7</ele>
        <time>2014-05-01T07:18:03Z</time>
      </trkpt>
      <trkpt lat="44.71106" lon="4.87351">
        <ele>356.4</ele>
        <time>2014-05-01T07:18:04Z</time>
      </trkpt>
      <trkpt lat="44.71103" lon="4.87345">
        <ele>356.3</ele>
        <time>2014-05-01T07:18:05Z</time>
      </trkpt>
      <trkpt lat="44.711" lon="4.8734">
        <ele>356.4</ele>
        <time>2014-05-01T07:18:06Z</time>
      </trkpt>
      <trkpt lat="44.71098" lon="4.87335">
        <ele>356.3</ele>
        <time>2014-05-01T07:18:07Z</time>
      </trkpt>
      <trkpt lat="44.71094" lon="4.87329">
        <ele>356.1</ele>
        <time>2014-05-01T07:18:08Z</time>
      </trkpt>
      <trkpt lat="44.7109" lon="4.87324">
        <ele>356</ele>
        <time>2014-05-01T07:18:09Z</time>
      </trkpt>
      <trkpt lat="44.71086" lon="4.87318">
        <ele>355.5</ele>
        <time>2014-05-01T07:18:10Z</time>
      </trkpt>
      <trkpt lat="44.71083" lon="4.87312">
        <ele>355.2</ele>
        <time>2014-05-01T07:18:11Z</time>
      </trkpt>
      <trkpt lat="44.71079" lon="4.87307">
        <ele>355</ele>
        <time>2014-05-01T07:18:12Z</time>
      </trkpt>
      <trkpt lat="44.71075" lon="4.87301">
        <ele>354.5</ele>
        <time>2014-05-01T07:18:13Z</time>
      </trkpt>
      <trkpt lat="44.71072" lon="4.87297">
        <ele>354</ele>
        <time>2014-05-01T07:18:14Z</time>
      </trkpt>
      <trkpt lat="44.71064" lon="4.87292">
        <ele>351.1</ele>
        <time>2014-05-01T07:18:16Z</time>
      </trkpt>
      <trkpt lat="44.71056" lon="4.87288">
        <ele>347.9</ele>
        <time>2014-05-01T07:18:18Z</time>
      </trkpt>
      <trkpt lat="44.71051" lon="4.87284">
        <ele>346.3</ele>
        <time>2014-05-01T07:18:19Z</time>
      </trkpt>
      <trkpt lat="44.7104" lon="4.87274">
        <ele>342.9</ele>
        <time>2014-05-01T07:18:21Z</time>
      </trkpt>
      <trkpt lat="44.71034" lon="4.87268">
        <ele>340.9</ele>
        <time>2014-05-01T07:18:22Z</time>
      </trkpt>
      <trkpt lat="44.71029" lon="4.87264">
        <ele>339.1</ele>
        <time>2014-05-01T07:18:23Z</time>
      </trkpt>
      <trkpt lat="44.71024" lon="4.87259">
        <ele>337</ele>
        <time>2014-05-01T07:18:24Z</time>
      </trkpt>
      <trkpt lat="44.71018" lon="4.87253">
        <ele>335.1</ele>
        <time>2014-05-01T07:18:25Z</time>
      </trkpt>
      <trkpt lat="44.71014" lon="4.87247">
        <ele>334.2</ele>
        <time>2014-05-01T07:18:26Z</time>
      </trkpt>
      <trkpt lat="44.71009" lon="4.87241">
        <ele>333.4</ele>
        <time>2014-05-01T07:18:27Z</time>
      </trkpt>
      <trkpt lat="44.71004" lon="4.87236">
        <ele>332.6</ele>
        <time>2014-05-01T07:18:28Z</time>
      </trkpt>
      <trkpt lat="44.70999" lon="4.8723">
        <ele>332.2</ele>
        <time>2014-05-01T07:18:29Z</time>
      </trkpt>
      <trkpt lat="44.70994" lon="4.87225">
        <ele>331.9</ele>
        <time>2014-05-01T07:18:30Z</time>
      </trkpt>
      <trkpt lat="44.70988" lon="4.87221">
        <ele>331.2</ele>
        <time>2014-05-01T07:18:31Z</time>
      </trkpt>
      <trkpt lat="44.70983" lon="4.87217">
        <ele>330.6</ele>
        <time>2014-05-01T07:18:32Z</time>
      </trkpt>
      <trkpt lat="44.70979" lon="4.87213">
        <ele>330.1</ele>
        <time>2014-05-01T07:18:33Z</time>
      </trkpt>
      <trkpt lat="44.70974" lon="4.87211">
        <ele>328.7</ele>
        <time>2014-05-01T07:18:34Z</time>
      </trkpt>
      <trkpt lat="44.70969" lon="4.8721">
        <ele>327.3</ele>
        <time>2014-05-01T07:18:35Z</time>
      </trkpt>
      <trkpt lat="44.70964" lon="4.87209">
        <ele>325.8</ele>
        <time>2014-05-01T07:18:36Z</time>
      </trkpt>
      <trkpt lat="44.70959" lon="4.87208">
        <ele>323.9</ele>
        <time>2014-05-01T07:18:37Z</time>
      </trkpt>
      <trkpt lat="44.70953" lon="4.87208">
        <ele>322.2</ele>
        <time>2014-05-01T07:18:38Z</time>
      </trkpt>
      <trkpt lat="44.70948" lon="4.87207">
        <ele>320.7</ele>
        <time>2014-05-01T07:18:39Z</time>
      </trkpt>
      <trkpt lat="44.70942" lon="4.87205">
        <ele>318.8</ele>
        <time>2014-05-01T07:18:40Z</time>
      </trkpt>
      <trkpt lat="44.70936" lon="4.87203">
        <ele>316.9</ele>
        <time>2014-05-01T07:18:41Z</time>
      </trkpt>
      <trkpt lat="44.7093" lon="4.87202">
        <ele>315.1</ele>
        <time>2014-05-01T07:18:42Z</time>
      </trkpt>
      <trkpt lat="44.70925" lon="4.872">
        <ele>313.7</ele>
        <time>2014-05-01T07:18:43Z</time>
      </trkpt>
      <trkpt lat="44.7092" lon="4.87199">
        <ele>312.2</ele>
        <time>2014-05-01T07:18:44Z</time>
      </trkpt>
      <trkpt lat="44.70911" lon="4.87197">
        <ele>310</ele>
        <time>2014-05-01T07:18:46Z</time>
      </trkpt>
      <trkpt lat="44.70905" lon="4.87196">
        <ele>309.1</ele>
        <time>2014-05-01T07:18:47Z</time>
      </trkpt>
      <trkpt lat="44.70899" lon="4.87194">
        <ele>308</ele>
        <time>2014-05-01T07:18:48Z</time>
      </trkpt>
      <trkpt lat="44.70893" lon="4.87193">
        <ele>306.7</ele>
        <time>2014-05-01T07:18:49Z</time>
      </trkpt>
      <trkpt lat="44.70887" lon="4.8719">
        <ele>305.8</ele>
        <time>2014-05-01T07:18:50Z</time>
      </trkpt>
      <trkpt lat="44.70881" lon="4.87187">
        <ele>305</ele>
        <time>2014-05-01T07:18:51Z</time>
      </trkpt>
      <trkpt lat="44.70876" lon="4.87182">
        <ele>304.7</ele>
        <time>2014-05-01T07:18:52Z</time>
      </trkpt>
      <trkpt lat="44.70871" lon="4.87176">
        <ele>304.4</ele>
        <time>2014-05-01T07:18:53Z</time>
      </trkpt>
      <trkpt lat="44.70867" lon="4.87171">
        <ele>304.1</ele>
        <time>2014-05-01T07:18:54Z</time>
      </trkpt>
      <trkpt lat="44.70863" lon="4.87166">
        <ele>304.1</ele>
        <time>2014-05-01T07:18:55Z</time>
      </trkpt>
      <trkpt lat="44.70859" lon="4.8716">
        <ele>305</ele>
        <time>2014-05-01T07:18:56Z</time>
      </trkpt>
      <trkpt lat="44.70855" lon="4.87154">
        <ele>305.5</ele>
        <time>2014-05-01T07:18:57Z</time>
      </trkpt>
      <trkpt lat="44.70851" lon="4.87148">
        <ele>306.5</ele>
        <time>2014-05-01T07:18:58Z</time>
      </trkpt>
      <trkpt lat="44.70847" lon="4.87143">
        <ele>306.8</ele>
        <time>2014-05-01T07:18:59Z</time>
      </trkpt>
      <trkpt lat="44.70843" lon="4.87138">
        <ele>307.2</ele>
        <time>2014-05-01T07:19:00Z</time>
      </trkpt>
      <trkpt lat="44.70839" lon="4.87133">
        <ele>307.1</ele>
        <time>2014-05-01T07:19:01Z</time>
      </trkpt>
      <trkpt lat="44.70836" lon="4.87128">
        <ele>307.5</ele>
        <time>2014-05-01T07:19:02Z</time>
      </trkpt>
      <trkpt lat="44.70832" lon="4.87124">
        <ele>307.6</ele>
        <time>2014-05-01T07:19:03Z</time>
      </trkpt>
      <trkpt lat="44.70826" lon="4.87115">
        <ele>308.2</ele>
        <time>2014-05-01T07:19:05Z</time>
      </trkpt>
      <trkpt lat="44.7082" lon="4.87107">
        <ele>308.1</ele>
        <time>2014-05-01T07:19:07Z</time>
      </trkpt>
      <trkpt lat="44.70817" lon="4.87102">
        <ele>308.5</ele>
        <time>2014-05-01T07:19:08Z</time>
      </trkpt>
      <trkpt lat="44.70814" lon="4.87096">
        <ele>308.7</ele>
        <time>2014-05-01T07:19:09Z</time>
      </trkpt>
      <trkpt lat="44.70811" lon="4.87091">
        <ele>309</ele>
        <time>2014-05-01T07:19:10Z</time>
      </trkpt>
      <trkpt lat="44.70807" lon="4.87085">
        <ele>308.8</ele>
        <time>2014-05-01T07:19:11Z</time>
      </trkpt>
      <trkpt lat="44.70803" lon="4.87079">
        <ele>309.4</ele>
        <time>2014-05-01T07:19:12Z</time>
      </trkpt>
      <trkpt lat="44.70799" lon="4.87072">
        <ele>310</ele>
        <time>2014-05-01T07:19:13Z</time>
      </trkpt>
      <trkpt lat="44.70795" lon="4.87065">
        <ele>310.3</ele>
        <time>2014-05-01T07:19:14Z</time>
      </trkpt>
      <trkpt lat="44.7079" lon="4.87059">
        <ele>310.4</ele>
        <time>2014-05-01T07:19:15Z</time>
      </trkpt>
      <trkpt lat="44.70786" lon="4.87054">
        <ele>310.3</ele>
        <time>2014-05-01T07:19:16Z</time>
      </trkpt>
      <trkpt lat="44.70782" lon="4.87048">
        <ele>310.7</ele>
        <time>2014-05-01T07:19:17Z</time>
      </trkpt>
      <trkpt lat="44.70779" lon="4.87043">
        <ele>310.6</ele>
        <time>2014-05-01T07:19:18Z</time>
      </trkpt>
      <trkpt lat="44.70775" lon="4.87037">
        <ele>310.4</ele>
        <time>2014-05-01T07:19:19Z</time>
      </trkpt>
      <trkpt lat="44.7077" lon="4.87031">
        <ele>310.4</ele>
        <time>2014-05-01T07:19:20Z</time>
      </trkpt>
      <trkpt lat="44.70762" lon="4.87019">
        <ele>309.6</ele>
        <time>2014-05-01T07:19:22Z</time>
      </trkpt>
      <trkpt lat="44.70757" lon="4.87013">
        <ele>309.4</ele>
        <time>2014-05-01T07:19:23Z</time>
      </trkpt>
      <trkpt lat="44.70754" lon="4.87007">
        <ele>309</ele>
        <time>2014-05-01T07:19:24Z</time>
      </trkpt>
      <trkpt lat="44.7075" lon="4.87003">
        <ele>308.1</ele>
        <time>2014-05-01T07:19:25Z</time>
      </trkpt>
      <trkpt lat="44.70746" lon="4.86999">
        <ele>307</ele>
        <time>2014-05-01T07:19:26Z</time>
      </trkpt>
      <trkpt lat="44.7074" lon="4.86991">
        <ele>305</ele>
        <time>2014-05-01T07:19:28Z</time>
      </trkpt>
      <trkpt lat="44.70736" lon="4.86986">
        <ele>304.1</ele>
        <time>2014-05-01T07:19:29Z</time>
      </trkpt>
      <trkpt lat="44.70732" lon="4.86981">
        <ele>302.7</ele>
        <time>2014-05-01T07:19:30Z</time>
      </trkpt>
      <trkpt lat="44.70727" lon="4.86976">
        <ele>301.4</ele>
        <time>2014-05-01T07:19:31Z</time>
      </trkpt>
      <trkpt lat="44.70723" lon="4.86972">
        <ele>299.6</ele>
        <time>2014-05-01T07:19:32Z</time>
      </trkpt>
      <trkpt lat="44.70719" lon="4.86967">
        <ele>298.5</ele>
        <time>2014-05-01T07:19:33Z</time>
      </trkpt>
      <trkpt lat="44.70713" lon="4.86959">
        <ele>297</ele>
        <time>2014-05-01T07:19:35Z</time>
      </trkpt>
      <trkpt lat="44.70707" lon="4.86952">
        <ele>295.3</ele>
        <time>2014-05-01T07:19:37Z</time>
      </trkpt>
      <trkpt lat="44.70704" lon="4.86948">
        <ele>294.2</ele>
        <time>2014-05-01T07:19:38Z</time>
      </trkpt>
      <trkpt lat="44.707" lon="4.86944">
        <ele>293.2</ele>
        <time>2014-05-01T07:19:39Z</time>
      </trkpt>
      <trkpt lat="44.70696" lon="4.8694">
        <ele>292.5</ele>
        <time>2014-05-01T07:19:40Z</time>
      </trkpt>
      <trkpt lat="44.70693" lon="4.86936">
        <ele>291.5</ele>
        <time>2014-05-01T07:19:41Z</time>
      </trkpt>
      <trkpt lat="44.70689" lon="4.86932">
        <ele>290.4</ele>
        <time>2014-05-01T07:19:42Z</time>
      </trkpt>
      <trkpt lat="44.70685" lon="4.86927">
        <ele>289.5</ele>
        <time>2014-05-01T07:19:43Z</time>
      </trkpt>
      <trkpt lat="44.70682" lon="4.86923">
        <ele>288.8</ele>
        <time>2014-05-01T07:19:44Z</time>
      </trkpt>
      <trkpt lat="44.70678" lon="4.86918">
        <ele>287.9</ele>
        <time>2014-05-01T07:19:45Z</time>
      </trkpt>
      <trkpt lat="44.70675" lon="4.86914">
        <ele>286.2</ele>
        <time>2014-05-01T07:19:46Z</time>
      </trkpt>
      <trkpt lat="44.70671" lon="4.86909">
        <ele>284.2</ele>
        <time>2014-05-01T07:19:47Z</time>
      </trkpt>
      <trkpt lat="44.70667" lon="4.86904">
        <ele>281.9</ele>
        <time>2014-05-01T07:19:48Z</time>
      </trkpt>
      <trkpt lat="44.70662" lon="4.86899">
        <ele>279.8</ele>
        <time>2014-05-01T07:19:49Z</time>
      </trkpt>
      <trkpt lat="44.70659" lon="4.86894">
        <ele>278.1</ele>
        <time>2014-05-01T07:19:50Z</time>
      </trkpt>
      <trkpt lat="44.70653" lon="4.86885">
        <ele>275.2</ele>
        <time>2014-05-01T07:19:52Z</time>
      </trkpt>
      <trkpt lat="44.70651" lon="4.86876">
        <ele>273.6</ele>
        <time>2014-05-01T07:19:54Z</time>
      </trkpt>
      <trkpt lat="44.70651" lon="4.86865">
        <ele>273</ele>
        <time>2014-05-01T07:19:56Z</time>
      </trkpt>
      <trkpt lat="44.70652" lon="4.86859">
        <ele>272.7</ele>
        <time>2014-05-01T07:19:57Z</time>
      </trkpt>
      <trkpt lat="44.70653" lon="4.86853">
        <ele>272.9</ele>
        <time>2014-05-01T07:19:58Z</time>
      </trkpt>
      <trkpt lat="44.70656" lon="4.86842">
        <ele>273.2</ele>
        <time>2014-05-01T07:20:00Z</time>
      </trkpt>
      <trkpt lat="44.70658" lon="4.86836">
        <ele>273.5</ele>
        <time>2014-05-01T07:20:01Z</time>
      </trkpt>
      <trkpt lat="44.7066" lon="4.8683">
        <ele>272.8</ele>
        <time>2014-05-01T07:20:02Z</time>
      </trkpt>
      <trkpt lat="44.70663" lon="4.86823">
        <ele>271.9</ele>
        <time>2014-05-01T07:20:03Z</time>
      </trkpt>
      <trkpt lat="44.70665" lon="4.86817">
        <ele>270.9</ele>
        <time>2014-05-01T07:20:04Z</time>
      </trkpt>
      <trkpt lat="44.70667" lon="4.86811">
        <ele>269.8</ele>
        <time>2014-05-01T07:20:05Z</time>
      </trkpt>
      <trkpt lat="44.70669" lon="4.86804">
        <ele>268.6</ele>
        <time>2014-05-01T07:20:06Z</time>
      </trkpt>
      <trkpt lat="44.70671" lon="4.86793">
        <ele>266.4</ele>
        <time>2014-05-01T07:20:08Z</time>
      </trkpt>
      <trkpt lat="44.70674" lon="4.86781">
        <ele>263.7</ele>
        <time>2014-05-01T07:20:10Z</time>
      </trkpt>
      <trkpt lat="44.70676" lon="4.86774">
        <ele>262.3</ele>
        <time>2014-05-01T07:20:11Z</time>
      </trkpt>
      <trkpt lat="44.70678" lon="4.86767">
        <ele>261</ele>
        <time>2014-05-01T07:20:12Z</time>
      </trkpt>
      <trkpt lat="44.7068" lon="4.8676">
        <ele>259.3</ele>
        <time>2014-05-01T07:20:13Z</time>
      </trkpt>
      <trkpt lat="44.70682" lon="4.86754">
        <ele>258.2</ele>
        <time>2014-05-01T07:20:14Z</time>
      </trkpt>
      <trkpt lat="44.70684" lon="4.86741">
        <ele>256.7</ele>
        <time>2014-05-01T07:20:16Z</time>
      </trkpt>
      <trkpt lat="44.70684" lon="4.86734">
        <ele>256.4</ele>
        <time>2014-05-01T07:20:17Z</time>
      </trkpt>
      <trkpt lat="44.70685" lon="4.86727">
        <ele>256</ele>
        <time>2014-05-01T07:20:18Z</time>
      </trkpt>
      <trkpt lat="44.70686" lon="4.86717">
        <ele>255.7</ele>
        <time>2014-05-01T07:20:20Z</time>
      </trkpt>
      <trkpt lat="44.70688" lon="4.86709">
        <ele>255.6</ele>
        <time>2014-05-01T07:20:22Z</time>
      </trkpt>
      <trkpt lat="44.70692" lon="4.86691">
        <ele>255.7</ele>
        <time>2014-05-01T07:20:26Z</time>
      </trkpt>
      <trkpt lat="44.70696" lon="4.86681">
        <ele>256.3</ele>
        <time>2014-05-01T07:20:28Z</time>
      </trkpt>
      <trkpt lat="44.707" lon="4.86672">
        <ele>257</ele>
        <time>2014-05-01T07:20:30Z</time>
      </trkpt>
      <trkpt lat="44.70704" lon="4.86663">
        <ele>258.5</ele>
        <time>2014-05-01T07:20:32Z</time>
      </trkpt>
      <trkpt lat="44.70706" lon="4.86655">
        <ele>259.9</ele>
        <time>2014-05-01T07:20:34Z</time>
      </trkpt>
      <trkpt lat="44.70707" lon="4.86648">
        <ele>260.9</ele>
        <time>2014-05-01T07:21:52Z</time>
      </trkpt>
      <trkpt lat="44.7071" lon="4.86634">
        <ele>263.6</ele>
        <time>2014-05-01T07:21:56Z</time>
      </trkpt>
      <trkpt lat="44.70712" lon="4.86624">
        <ele>265.6</ele>
        <time>2014-05-01T07:21:58Z</time>
      </trkpt>
      <trkpt lat="44.70714" lon="4.86613">
        <ele>267.9</ele>
        <time>2014-05-01T07:22:00Z</time>
      </trkpt>
      <trkpt lat="44.70715" lon="4.86606">
        <ele>269.1</ele>
        <time>2014-05-01T07:22:01Z</time>
      </trkpt>
      <trkpt lat="44.70716" lon="4.86598">
        <ele>270.4</ele>
        <time>2014-05-01T07:22:02Z</time>
      </trkpt>
      <trkpt lat="44.70717" lon="4.8659">
        <ele>271.7</ele>
        <time>2014-05-01T07:22:03Z</time>
      </trkpt>
      <trkpt lat="44.70717" lon="4.86582">
        <ele>272.5</ele>
        <time>2014-05-01T07:22:04Z</time>
      </trkpt>
      <trkpt lat="44.70717" lon="4.86573">
        <ele>272</ele>
        <time>2014-05-01T07:22:05Z</time>
      </trkpt>
      <trkpt lat="44.70716" lon="4.86563">
        <ele>271</ele>
        <time>2014-05-01T07:22:06Z</time>
      </trkpt>
      <trkpt lat="44.70714" lon="4.86553">
        <ele>269.7</ele>
        <time>2014-05-01T07:22:07Z</time>
      </trkpt>
      <trkpt lat="44.70712" lon="4.86543">
        <ele>267.8</ele>
        <time>2014-05-01T07:22:08Z</time>
      </trkpt>
      <trkpt lat="44.70709" lon="4.86533">
        <ele>265.3</ele>
        <time>2014-05-01T07:22:09Z</time>
      </trkpt>
      <trkpt lat="44.70706" lon="4.86523">
        <ele>262.8</ele>
        <time>2014-05-01T07:22:10Z</time>
      </trkpt>
      <trkpt lat="44.70702" lon="4.86513">
        <ele>259.9</ele>
        <time>2014-05-01T07:22:11Z</time>
      </trkpt>
      <trkpt lat="44.70698" lon="4.86504">
        <ele>256.8</ele>
        <time>2014-05-01T07:22:12Z</time>
      </trkpt>
      <trkpt lat="44.70694" lon="4.86495">
        <ele>253.7</ele>
        <time>2014-05-01T07:22:13Z</time>
      </trkpt>
      <trkpt lat="44.70689" lon="4.86486">
        <ele>250.4</ele>
        <time>2014-05-01T07:22:14Z</time>
      </trkpt>
      <trkpt lat="44.70685" lon="4.86476">
        <ele>247.1</ele>
        <time>2014-05-01T07:22:15Z</time>
      </trkpt>
      <trkpt lat="44.70682" lon="4.86467">
        <ele>244.3</ele>
        <time>2014-05-01T07:22:16Z</time>
      </trkpt>
      <trkpt lat="44.70679" lon="4.86457">
        <ele>242</ele>
        <time>2014-05-01T07:22:17Z</time>
      </trkpt>
      <trkpt lat="44.70676" lon="4.86447">
        <ele>240</ele>
        <time>2014-05-01T07:22:18Z</time>
      </trkpt>
      <trkpt lat="44.70675" lon="4.86437">
        <ele>238.2</ele>
        <time>2014-05-01T07:22:19Z</time>
      </trkpt>
      <trkpt lat="44.70673" lon="4.86427">
        <ele>236.8</ele>
        <time>2014-05-01T07:22:20Z</time>
      </trkpt>
      <trkpt lat="44.70671" lon="4.86416">
        <ele>235.4</ele>
        <time>2014-05-01T07:22:21Z</time>
      </trkpt>
      <trkpt lat="44.70669" lon="4.86406">
        <ele>234.4</ele>
        <time>2014-05-01T07:22:22Z</time>
      </trkpt>
      <trkpt lat="44.70666" lon="4.86395">
        <ele>233.2</ele>
        <time>2014-05-01T07:22:23Z</time>
      </trkpt>
      <trkpt lat="44.70664" lon="4.86385">
        <ele>232.6</ele>
        <time>2014-05-01T07:22:24Z</time>
      </trkpt>
      <trkpt lat="44.70661" lon="4.86375">
        <ele>232.1</ele>
        <time>2014-05-01T07:22:25Z</time>
      </trkpt>
      <trkpt lat="44.70658" lon="4.86364">
        <ele>231.4</ele>
        <time>2014-05-01T07:22:26Z</time>
      </trkpt>
      <trkpt lat="44.70656" lon="4.86354">
        <ele>230.9</ele>
        <time>2014-05-01T07:22:27Z</time>
      </trkpt>
      <trkpt lat="44.70654" lon="4.86344">
        <ele>230.4</ele>
        <time>2014-05-01T07:22:28Z</time>
      </trkpt>
      <trkpt lat="44.70653" lon="4.86334">
        <ele>230</ele>
        <time>2014-05-01T07:22:29Z</time>
      </trkpt>
      <trkpt lat="44.70652" lon="4.86324">
        <ele>229.1</ele>
        <time>2014-05-01T07:22:30Z</time>
      </trkpt>
      <trkpt lat="44.70651" lon="4.86314">
        <ele>228.4</ele>
        <time>2014-05-01T07:22:31Z</time>
      </trkpt>
      <trkpt lat="44.7065" lon="4.86303">
        <ele>227.6</ele>
        <time>2014-05-01T07:22:32Z</time>
      </trkpt>
      <trkpt lat="44.70649" lon="4.86293">
        <ele>226.8</ele>
        <time>2014-05-01T07:22:33Z</time>
      </trkpt>
      <trkpt lat="44.70648" lon="4.86283">
        <ele>225.9</ele>
        <time>2014-05-01T07:22:34Z</time>
      </trkpt>
      <trkpt lat="44.70645" lon="4.86272">
        <ele>224.7</ele>
        <time>2014-05-01T07:22:35Z</time>
      </trkpt>
      <trkpt lat="44.70642" lon="4.86262">
        <ele>223.5</ele>
        <time>2014-05-01T07:22:36Z</time>
      </trkpt>
      <trkpt lat="44.70639" lon="4.86251">
        <ele>222.4</ele>
        <time>2014-05-01T07:22:37Z</time>
      </trkpt>
      <trkpt lat="44.70636" lon="4.86241">
        <ele>221.2</ele>
        <time>2014-05-01T07:22:38Z</time>
      </trkpt>
      <trkpt lat="44.70633" lon="4.86231">
        <ele>220.1</ele>
        <time>2014-05-01T07:22:39Z</time>
      </trkpt>
      <trkpt lat="44.7063" lon="4.86221">
        <ele>219</ele>
        <time>2014-05-01T07:22:40Z</time>
      </trkpt>
      <trkpt lat="44.70627" lon="4.86211">
        <ele>218.1</ele>
        <time>2014-05-01T07:22:41Z</time>
      </trkpt>
      <trkpt lat="44.70624" lon="4.86201">
        <ele>217.3</ele>
        <time>2014-05-01T07:22:42Z</time>
      </trkpt>
      <trkpt lat="44.70621" lon="4.86191">
        <ele>216.5</ele>
        <time>2014-05-01T07:22:43Z</time>
      </trkpt>
      <trkpt lat="44.70619" lon="4.86182">
        <ele>215.9</ele>
        <time>2014-05-01T07:22:44Z</time>
      </trkpt>
      <trkpt lat="44.70616" lon="4.86172">
        <ele>215.3</ele>
        <time>2014-05-01T07:22:45Z</time>
      </trkpt>
      <trkpt lat="44.70614" lon="4.86163">
        <ele>215.6</ele>
        <time>2014-05-01T07:22:46Z</time>
      </trkpt>
      <trkpt lat="44.70609" lon="4.86157">
        <ele>216.3</ele>
        <time>2014-05-01T07:22:47Z</time>
      </trkpt>
      <trkpt lat="44.70603" lon="4.86154">
        <ele>216.1</ele>
        <time>2014-05-01T07:22:48Z</time>
      </trkpt>
      <trkpt lat="44.70597" lon="4.86153">
        <ele>215.6</ele>
        <time>2014-05-01T07:22:49Z</time>
      </trkpt>
      <trkpt lat="44.7059" lon="4.86154">
        <ele>214.6</ele>
        <time>2014-05-01T07:22:50Z</time>
      </trkpt>
      <trkpt lat="44.70584" lon="4.86155">
        <ele>213.9</ele>
        <time>2014-05-01T07:22:51Z</time>
      </trkpt>
      <trkpt lat="44.70578" lon="4.86156">
        <ele>213</ele>
        <time>2014-05-01T07:22:52Z</time>
      </trkpt>
      <trkpt lat="44.70572" lon="4.86156">
        <ele>212.1</ele>
        <time>2014-05-01T07:22:53Z</time>
      </trkpt>
      <trkpt lat="44.7056" lon="4.86158">
        <ele>210.5</ele>
        <time>2014-05-01T07:22:55Z</time>
      </trkpt>
      <trkpt lat="44.70555" lon="4.86159">
        <ele>209.7</ele>
        <time>2014-05-01T07:22:56Z</time>
      </trkpt>
      <trkpt lat="44.70549" lon="4.8616">
        <ele>209</ele>
        <time>2014-05-01T07:22:57Z</time>
      </trkpt>
      <trkpt lat="44.70544" lon="4.86161">
        <ele>208.4</ele>
        <time>2014-05-01T07:22:58Z</time>
      </trkpt>
      <trkpt lat="44.7054" lon="4.86161">
        <ele>207.8</ele>
        <time>2014-05-01T07:22:59Z</time>
      </trkpt>
      <trkpt lat="44.70531" lon="4.86162">
        <ele>206.8</ele>
        <time>2014-05-01T07:23:01Z</time>
      </trkpt>
      <trkpt lat="44.70525" lon="4.86166">
        <ele>205.8</ele>
        <time>2014-05-01T07:23:03Z</time>
      </trkpt>
      <trkpt lat="44.70522" lon="4.86174">
        <ele>205.5</ele>
        <time>2014-05-01T07:23:05Z</time>
      </trkpt>
      <trkpt lat="44.70522" lon="4.86184">
        <ele>205.5</ele>
        <time>2014-05-01T07:23:07Z</time>
      </trkpt>
      <trkpt lat="44.70522" lon="4.86193">
        <ele>205.6</ele>
        <time>2014-05-01T07:23:09Z</time>
      </trkpt>
      <trkpt lat="44.70523" lon="4.86201">
        <ele>205.7</ele>
        <time>2014-05-01T07:23:11Z</time>
      </trkpt>
      <trkpt lat="44.70524" lon="4.86208">
        <ele>205.8</ele>
        <time>2014-05-01T07:23:13Z</time>
      </trkpt>
      <trkpt lat="44.70524" lon="4.86216">
        <ele>205.9</ele>
        <time>2014-05-01T07:23:15Z</time>
      </trkpt>
      <trkpt lat="44.70525" lon="4.86224">
        <ele>206</ele>
        <time>2014-05-01T07:23:17Z</time>
      </trkpt>
      <trkpt lat="44.70525" lon="4.86232">
        <ele>206</ele>
        <time>2014-05-01T07:23:19Z</time>
      </trkpt>
      <trkpt lat="44.70527" lon="4.86238">
        <ele>206.2</ele>
        <time>2014-05-01T07:23:21Z</time>
      </trkpt>
      <trkpt lat="44.70528" lon="4.86247">
        <ele>206.4</ele>
        <time>2014-05-01T07:23:24Z</time>
      </trkpt>
      <trkpt lat="44.70528" lon="4.86256">
        <ele>206.6</ele>
        <time>2014-05-01T07:23:27Z</time>
      </trkpt>
      <trkpt lat="44.70529" lon="4.86262">
        <ele>207</ele>
        <time>2014-05-01T07:23:29Z</time>
      </trkpt>
      <trkpt lat="44.7053" lon="4.86269">
        <ele>207.4</ele>
        <time>2014-05-01T07:23:31Z</time>
      </trkpt>
      <trkpt lat="44.7053" lon="4.86276">
        <ele>207.7</ele>
        <time>2014-05-01T07:23:33Z</time>
      </trkpt>
      <trkpt lat="44.70531" lon="4.86282">
        <ele>208.1</ele>
        <time>2014-05-01T07:23:35Z</time>
      </trkpt>
      <trkpt lat="44.70531" lon="4.86289">
        <ele>208.4</ele>
        <time>2014-05-01T07:23:37Z</time>
      </trkpt>
      <trkpt lat="44.70532" lon="4.86295">
        <ele>208.8</ele>
        <time>2014-05-01T07:23:39Z</time>
      </trkpt>
      <trkpt lat="44.70532" lon="4.86302">
        <ele>209.1</ele>
        <time>2014-05-01T07:23:41Z</time>
      </trkpt>
      <trkpt lat="44.70533" lon="4.86308">
        <ele>209.4</ele>
        <time>2014-05-01T07:23:43Z</time>
      </trkpt>
      <trkpt lat="44.70534" lon="4.86315">
        <ele>209.7</ele>
        <time>2014-05-01T07:23:45Z</time>
      </trkpt>
      <trkpt lat="44.70534" lon="4.86321">
        <ele>210</ele>
        <time>2014-05-01T07:23:47Z</time>
      </trkpt>
      <trkpt lat="44.70534" lon="4.86328">
        <ele>210.4</ele>
        <time>2014-05-01T07:23:49Z</time>
      </trkpt>
      <trkpt lat="44.70535" lon="4.86334">
        <ele>210.6</ele>
        <time>2014-05-01T07:23:51Z</time>
      </trkpt>
      <trkpt lat="44.70536" lon="4.86341">
        <ele>210.8</ele>
        <time>2014-05-01T07:23:53Z</time>
      </trkpt>
      <trkpt lat="44.70536" lon="4.86347">
        <ele>211</ele>
        <time>2014-05-01T07:23:55Z</time>
      </trkpt>
      <trkpt lat="44.70537" lon="4.8636">
        <ele>211.5</ele>
        <time>2014-05-01T07:23:59Z</time>
      </trkpt>
      <trkpt lat="44.70538" lon="4.86367">
        <ele>211.8</ele>
        <time>2014-05-01T07:24:01Z</time>
      </trkpt>
      <trkpt lat="44.70539" lon="4.86374">
        <ele>212</ele>
        <time>2014-05-01T07:24:03Z</time>
      </trkpt>
      <trkpt lat="44.70539" lon="4.86381">
        <ele>212.2</ele>
        <time>2014-05-01T07:24:05Z</time>
      </trkpt>
      <trkpt lat="44.7054" lon="4.86387">
        <ele>212.4</ele>
        <time>2014-05-01T07:24:07Z</time>
      </trkpt>
      <trkpt lat="44.70541" lon="4.86394">
        <ele>212.7</ele>
        <time>2014-05-01T07:24:09Z</time>
      </trkpt>
      <trkpt lat="44.70541" lon="4.86401">
        <ele>212.9</ele>
        <time>2014-05-01T07:24:11Z</time>
      </trkpt>
      <trkpt lat="44.70542" lon="4.86408">
        <ele>213.2</ele>
        <time>2014-05-01T07:24:13Z</time>
      </trkpt>
      <trkpt lat="44.70543" lon="4.86415">
        <ele>213.4</ele>
        <time>2014-05-01T07:24:15Z</time>
      </trkpt>
      <trkpt lat="44.70544" lon="4.86422">
        <ele>213.7</ele>
        <time>2014-05-01T07:24:17Z</time>
      </trkpt>
      <trkpt lat="44.70544" lon="4.8643">
        <ele>213.9</ele>
        <time>2014-05-01T07:24:19Z</time>
      </trkpt>
      <trkpt lat="44.70544" lon="4.86438">
        <ele>214.2</ele>
        <time>2014-05-01T07:24:21Z</time>
      </trkpt>
      <trkpt lat="44.70543" lon="4.86446">
        <ele>214.5</ele>
        <time>2014-05-01T07:24:23Z</time>
      </trkpt>
      <trkpt lat="44.70543" lon="4.86454">
        <ele>214.8</ele>
        <time>2014-05-01T07:24:25Z</time>
      </trkpt>
      <trkpt lat="44.70543" lon="4.86461">
        <ele>215</ele>
        <time>2014-05-01T07:24:27Z</time>
      </trkpt>
      <trkpt lat="44.70544" lon="4.86467">
        <ele>215.3</ele>
        <time>2014-05-01T07:24:29Z</time>
      </trkpt>
      <trkpt lat="44.70543" lon="4.86474">
        <ele>215.5</ele>
        <time>2014-05-01T07:24:31Z</time>
      </trkpt>
      <trkpt lat="44.70542" lon="4.86482">
        <ele>215.8</ele>
        <time>2014-05-01T07:24:33Z</time>
      </trkpt>
      <trkpt lat="44.7054" lon="4.8649">
        <ele>216.1</ele>
        <time>2014-05-01T07:24:35Z</time>
      </trkpt>
      <trkpt lat="44.70538" lon="4.86498">
        <ele>216.4</ele>
        <time>2014-05-01T07:24:37Z</time>
      </trkpt>
      <trkpt lat="44.70536" lon="4.86505">
        <ele>216.7</ele>
        <time>2014-05-01T07:24:39Z</time>
      </trkpt>
      <trkpt lat="44.70533" lon="4.86512">
        <ele>217.1</ele>
        <time>2014-05-01T07:24:41Z</time>
      </trkpt>
      <trkpt lat="44.7053" lon="4.86519">
        <ele>217.3</ele>
        <time>2014-05-01T07:24:43Z</time>
      </trkpt>
      <trkpt lat="44.70527" lon="4.86525">
        <ele>217.6</ele>
        <time>2014-05-01T07:24:45Z</time>
      </trkpt>
      <trkpt lat="44.70523" lon="4.86532">
        <ele>217.8</ele>
        <time>2014-05-01T07:24:47Z</time>
      </trkpt>
      <trkpt lat="44.7052" lon="4.86539">
        <ele>218</ele>
        <time>2014-05-01T07:24:49Z</time>
      </trkpt>
      <trkpt lat="44.70516" lon="4.86546">
        <ele>218.2</ele>
        <time>2014-05-01T07:24:51Z</time>
      </trkpt>
      <trkpt lat="44.70513" lon="4.86552">
        <ele>218.4</ele>
        <time>2014-05-01T07:24:53Z</time>
      </trkpt>
      <trkpt lat="44.70509" lon="4.86559">
        <ele>218.5</ele>
        <time>2014-05-01T07:24:55Z</time>
      </trkpt>
      <trkpt lat="44.70506" lon="4.86566">
        <ele>218.7</ele>
        <time>2014-05-01T07:24:57Z</time>
      </trkpt>
      <trkpt lat="44.70499" lon="4.8658">
        <ele>219</ele>
        <time>2014-05-01T07:25:01Z</time>
      </trkpt>
      <trkpt lat="44.70496" lon="4.86588">
        <ele>219.3</ele>
        <time>2014-05-01T07:25:03Z</time>
      </trkpt>
      <trkpt lat="44.70494" lon="4.86596">
        <ele>219.5</ele>
        <time>2014-05-01T07:25:05Z</time>
      </trkpt>
      <trkpt lat="44.70492" lon="4.86604">
        <ele>219.6</ele>
        <time>2014-05-01T07:25:07Z</time>
      </trkpt>
      <trkpt lat="44.7049" lon="4.86612">
        <ele>219.7</ele>
        <time>2014-05-01T07:25:09Z</time>
      </trkpt>
      <trkpt lat="44.70488" lon="4.8662">
        <ele>219.8</ele>
        <time>2014-05-01T07:25:11Z</time>
      </trkpt>
      <trkpt lat="44.70486" lon="4.86628">
        <ele>219.9</ele>
        <time>2014-05-01T07:25:13Z</time>
      </trkpt>
      <trkpt lat="44.70484" lon="4.86636">
        <ele>220</ele>
        <time>2014-05-01T07:25:15Z</time>
      </trkpt>
      <trkpt lat="44.70482" lon="4.86643">
        <ele>220.1</ele>
        <time>2014-05-01T07:25:17Z</time>
      </trkpt>
      <trkpt lat="44.7048" lon="4.86652">
        <ele>220.1</ele>
        <time>2014-05-01T07:25:19Z</time>
      </trkpt>
      <trkpt lat="44.70477" lon="4.86661">
        <ele>220.1</ele>
        <time>2014-05-01T07:25:21Z</time>
      </trkpt>
      <trkpt lat="44.70475" lon="4.8667">
        <ele>220.2</ele>
        <time>2014-05-01T07:25:23Z</time>
      </trkpt>
      <trkpt lat="44.70473" lon="4.8668">
        <ele>220.3</ele>
        <time>2014-05-01T07:25:25Z</time>
      </trkpt>
      <trkpt lat="44.70471" lon="4.86689">
        <ele>220.4</ele>
        <time>2014-05-01T07:25:27Z</time>
      </trkpt>
      <trkpt lat="44.70468" lon="4.86699">
        <ele>220.5</ele>
        <time>2014-05-01T07:25:29Z</time>
      </trkpt>
      <trkpt lat="44.70466" lon="4.86708">
        <ele>220.5</ele>
        <time>2014-05-01T07:25:31Z</time>
      </trkpt>
      <trkpt lat="44.70464" lon="4.86717">
        <ele>220.6</ele>
        <time>2014-05-01T07:25:33Z</time>
      </trkpt>
      <trkpt lat="44.70461" lon="4.86727">
        <ele>220.6</ele>
        <time>2014-05-01T07:25:35Z</time>
      </trkpt>
      <trkpt lat="44.7046" lon="4.86736">
        <ele>220.6</ele>
        <time>2014-05-01T07:25:37Z</time>
      </trkpt>
      <trkpt lat="44.70457" lon="4.86746">
        <ele>220.5</ele>
        <time>2014-05-01T07:25:39Z</time>
      </trkpt>
      <trkpt lat="44.70455" lon="4.86755">
        <ele>220.8</ele>
        <time>2014-05-01T07:25:41Z</time>
      </trkpt>
      <trkpt lat="44.70453" lon="4.86764">
        <ele>221.5</ele>
        <time>2014-05-01T07:25:43Z</time>
      </trkpt>
      <trkpt lat="44.70452" lon="4.86772">
        <ele>222</ele>
        <time>2014-05-01T07:25:45Z</time>
      </trkpt>
      <trkpt lat="44.70451" lon="4.8678">
        <ele>222.7</ele>
        <time>2014-05-01T07:25:47Z</time>
      </trkpt>
      <trkpt lat="44.70451" lon="4.86788">
        <ele>223.2</ele>
        <time>2014-05-01T07:25:49Z</time>
      </trkpt>
      <trkpt lat="44.70451" lon="4.86796">
        <ele>223.8</ele>
        <time>2014-05-01T07:25:51Z</time>
      </trkpt>
      <trkpt lat="44.70451" lon="4.86804">
        <ele>224.3</ele>
        <time>2014-05-01T07:25:53Z</time>
      </trkpt>
      <trkpt lat="44.70452" lon="4.86812">
        <ele>224.9</ele>
        <time>2014-05-01T07:25:55Z</time>
      </trkpt>
      <trkpt lat="44.70453" lon="4.8682">
        <ele>225.4</ele>
        <time>2014-05-01T07:25:57Z</time>
      </trkpt>
      <trkpt lat="44.70454" lon="4.86827">
        <ele>226</ele>
        <time>2014-05-01T07:25:59Z</time>
      </trkpt>
      <trkpt lat="44.70456" lon="4.86842">
        <ele>226.7</ele>
        <time>2014-05-01T07:26:03Z</time>
      </trkpt>
      <trkpt lat="44.70457" lon="4.86849">
        <ele>227</ele>
        <time>2014-05-01T07:26:05Z</time>
      </trkpt>
      <trkpt lat="44.70458" lon="4.86856">
        <ele>227.2</ele>
        <time>2014-05-01T07:26:07Z</time>
      </trkpt>
      <trkpt lat="44.70459" lon="4.86863">
        <ele>227.4</ele>
        <time>2014-05-01T07:26:09Z</time>
      </trkpt>
      <trkpt lat="44.7046" lon="4.8687">
        <ele>227.6</ele>
        <time>2014-05-01T07:26:11Z</time>
      </trkpt>
      <trkpt lat="44.70461" lon="4.86877">
        <ele>227.8</ele>
        <time>2014-05-01T07:26:13Z</time>
      </trkpt>
      <trkpt lat="44.70462" lon="4.86884">
        <ele>228</ele>
        <time>2014-05-01T07:26:15Z</time>
      </trkpt>
      <trkpt lat="44.70463" lon="4.86891">
        <ele>228.2</ele>
        <time>2014-05-01T07:26:17Z</time>
      </trkpt>
      <trkpt lat="44.70464" lon="4.86897">
        <ele>228.3</ele>
        <time>2014-05-01T07:26:19Z</time>
      </trkpt>
      <trkpt lat="44.70464" lon="4.86904">
        <ele>228.5</ele>
        <time>2014-05-01T07:26:21Z</time>
      </trkpt>
      <trkpt lat="44.70465" lon="4.86911">
        <ele>228.7</ele>
        <time>2014-05-01T07:26:23Z</time>
      </trkpt>
      <trkpt lat="44.70465" lon="4.86918">
        <ele>228.8</ele>
        <time>2014-05-01T07:26:25Z</time>
      </trkpt>
      <trkpt lat="44.70465" lon="4.86924">
        <ele>229.2</ele>
        <time>2014-05-01T07:26:27Z</time>
      </trkpt>
      <trkpt lat="44.70465" lon="4.86931">
        <ele>229.5</ele>
        <time>2014-05-01T07:26:29Z</time>
      </trkpt>
      <trkpt lat="44.70466" lon="4.86937">
        <ele>229.8</ele>
        <time>2014-05-01T07:26:31Z</time>
      </trkpt>
      <trkpt lat="44.70465" lon="4.86944">
        <ele>230.2</ele>
        <time>2014-05-01T07:26:33Z</time>
      </trkpt>
      <trkpt lat="44.70465" lon="4.86953">
        <ele>230.7</ele>
        <time>2014-05-01T07:26:36Z</time>
      </trkpt>
      <trkpt lat="44.70464" lon="4.86959">
        <ele>231</ele>
        <time>2014-05-01T07:26:38Z</time>
      </trkpt>
      <trkpt lat="44.70463" lon="4.86966">
        <ele>231.3</ele>
        <time>2014-05-01T07:26:40Z</time>
      </trkpt>
      <trkpt lat="44.70462" lon="4.86972">
        <ele>231.7</ele>
        <time>2014-05-01T07:26:42Z</time>
      </trkpt>
      <trkpt lat="44.70461" lon="4.86978">
        <ele>232</ele>
        <time>2014-05-01T07:26:44Z</time>
      </trkpt>
      <trkpt lat="44.7046" lon="4.86984">
        <ele>232.3</ele>
        <time>2014-05-01T07:26:46Z</time>
      </trkpt>
      <trkpt lat="44.70458" lon="4.8699">
        <ele>232.5</ele>
        <time>2014-05-01T07:26:48Z</time>
      </trkpt>
      <trkpt lat="44.70457" lon="4.86999">
        <ele>232.9</ele>
        <time>2014-05-01T07:26:51Z</time>
      </trkpt>
      <trkpt lat="44.70455" lon="4.87008">
        <ele>233.5</ele>
        <time>2014-05-01T07:26:54Z</time>
      </trkpt>
      <trkpt lat="44.70453" lon="4.87014">
        <ele>233.8</ele>
        <time>2014-05-01T07:26:56Z</time>
      </trkpt>
      <trkpt lat="44.70451" lon="4.87023">
        <ele>234.4</ele>
        <time>2014-05-01T07:26:59Z</time>
      </trkpt>
      <trkpt lat="44.70449" lon="4.8703">
        <ele>234.6</ele>
        <time>2014-05-01T07:27:01Z</time>
      </trkpt>
      <trkpt lat="44.70445" lon="4.87042">
        <ele>234.9</ele>
        <time>2014-05-01T07:27:05Z</time>
      </trkpt>
      <trkpt lat="44.70442" lon="4.87049">
        <ele>234.9</ele>
        <time>2014-05-01T07:27:07Z</time>
      </trkpt>
      <trkpt lat="44.70439" lon="4.87056">
        <ele>234.8</ele>
        <time>2014-05-01T07:27:09Z</time>
      </trkpt>
      <trkpt lat="44.70436" lon="4.87064">
        <ele>234.6</ele>
        <time>2014-05-01T07:27:11Z</time>
      </trkpt>
      <trkpt lat="44.70434" lon="4.87071">
        <ele>234.3</ele>
        <time>2014-05-01T07:27:13Z</time>
      </trkpt>
      <trkpt lat="44.70431" lon="4.87077">
        <ele>234</ele>
        <time>2014-05-01T07:27:15Z</time>
      </trkpt>
      <trkpt lat="44.70428" lon="4.87084">
        <ele>233.4</ele>
        <time>2014-05-01T07:27:17Z</time>
      </trkpt>
      <trkpt lat="44.70425" lon="4.87092">
        <ele>233.2</ele>
        <time>2014-05-01T07:27:19Z</time>
      </trkpt>
      <trkpt lat="44.70422" lon="4.87099">
        <ele>232.9</ele>
        <time>2014-05-01T07:27:21Z</time>
      </trkpt>
      <trkpt lat="44.70419" lon="4.87107">
        <ele>232.4</ele>
        <time>2014-05-01T07:27:23Z</time>
      </trkpt>
      <trkpt lat="44.70415" lon="4.87115">
        <ele>232.4</ele>
        <time>2014-05-01T07:27:25Z</time>
      </trkpt>
      <trkpt lat="44.70412" lon="4.87123">
        <ele>233.3</ele>
        <time>2014-05-01T07:27:27Z</time>
      </trkpt>
      <trkpt lat="44.70409" lon="4.8713">
        <ele>233.9</ele>
        <time>2014-05-01T07:27:29Z</time>
      </trkpt>
      <trkpt lat="44.70406" lon="4.87138">
        <ele>234.5</ele>
        <time>2014-05-01T07:27:31Z</time>
      </trkpt>
      <trkpt lat="44.70402" lon="4.87146">
        <ele>235.1</ele>
        <time>2014-05-01T07:27:33Z</time>
      </trkpt>
      <trkpt lat="44.70398" lon="4.87155">
        <ele>235.5</ele>
        <time>2014-05-01T07:27:35Z</time>
      </trkpt>
      <trkpt lat="44.70395" lon="4.87164">
        <ele>235.8</ele>
        <time>2014-05-01T07:27:37Z</time>
      </trkpt>
      <trkpt lat="44.70392" lon="4.87172">
        <ele>236.5</ele>
        <time>2014-05-01T07:27:39Z</time>
      </trkpt>
      <trkpt lat="44.7039" lon="4.8718">
        <ele>237.4</ele>
        <time>2014-05-01T07:27:41Z</time>
      </trkpt>
      <trkpt lat="44.70388" lon="4.87189">
        <ele>238.2</ele>
        <time>2014-05-01T07:27:43Z</time>
      </trkpt>
      <trkpt lat="44.70385" lon="4.87197">
        <ele>238.9</ele>
        <time>2014-05-01T07:27:45Z</time>
      </trkpt>
      <trkpt lat="44.70382" lon="4.87205">
        <ele>239.5</ele>
        <time>2014-05-01T07:27:47Z</time>
      </trkpt>
      <trkpt lat="44.70379" lon="4.87214">
        <ele>240.1</ele>
        <time>2014-05-01T07:27:49Z</time>
      </trkpt>
      <trkpt lat="44.70377" lon="4.87223">
        <ele>240.6</ele>
        <time>2014-05-01T07:27:51Z</time>
      </trkpt>
      <trkpt lat="44.70375" lon="4.87231">
        <ele>241</ele>
        <time>2014-05-01T07:27:53Z</time>
      </trkpt>
      <trkpt lat="44.70374" lon="4.87239">
        <ele>241.3</ele>
        <time>2014-05-01T07:27:55Z</time>
      </trkpt>
      <trkpt lat="44.70371" lon="4.87247">
        <ele>241.4</ele>
        <time>2014-05-01T07:27:57Z</time>
      </trkpt>
      <trkpt lat="44.70369" lon="4.87255">
        <ele>241.9</ele>
        <time>2014-05-01T07:27:59Z</time>
      </trkpt>
      <trkpt lat="44.70366" lon="4.87263">
        <ele>242.6</ele>
        <time>2014-05-01T07:28:01Z</time>
      </trkpt>
      <trkpt lat="44.70363" lon="4.87271">
        <ele>243</ele>
        <time>2014-05-01T07:28:03Z</time>
      </trkpt>
      <trkpt lat="44.70357" lon="4.87288">
        <ele>243.5</ele>
        <time>2014-05-01T07:28:07Z</time>
      </trkpt>
      <trkpt lat="44.70354" lon="4.87296">
        <ele>243.9</ele>
        <time>2014-05-01T07:28:09Z</time>
      </trkpt>
      <trkpt lat="44.70351" lon="4.87303">
        <ele>243.9</ele>
        <time>2014-05-01T07:28:11Z</time>
      </trkpt>
      <trkpt lat="44.70348" lon="4.8731">
        <ele>243.9</ele>
        <time>2014-05-01T07:28:13Z</time>
      </trkpt>
      <trkpt lat="44.70345" lon="4.87318">
        <ele>243.8</ele>
        <time>2014-05-01T07:28:15Z</time>
      </trkpt>
      <trkpt lat="44.70342" lon="4.87325">
        <ele>243.6</ele>
        <time>2014-05-01T07:28:17Z</time>
      </trkpt>
      <trkpt lat="44.70339" lon="4.87333">
        <ele>243.4</ele>
        <time>2014-05-01T07:28:19Z</time>
      </trkpt>
      <trkpt lat="44.70336" lon="4.8734">
        <ele>243.2</ele>
        <time>2014-05-01T07:28:21Z</time>
      </trkpt>
      <trkpt lat="44.70333" lon="4.87348">
        <ele>242.9</ele>
        <time>2014-05-01T07:28:23Z</time>
      </trkpt>
      <trkpt lat="44.7033" lon="4.87356">
        <ele>243.8</ele>
        <time>2014-05-01T07:28:25Z</time>
      </trkpt>
      <trkpt lat="44.70327" lon="4.87363">
        <ele>244.7</ele>
        <time>2014-05-01T07:28:27Z</time>
      </trkpt>
      <trkpt lat="44.70324" lon="4.87371">
        <ele>245.4</ele>
        <time>2014-05-01T07:28:29Z</time>
      </trkpt>
      <trkpt lat="44.7032" lon="4.87379">
        <ele>246</ele>
        <time>2014-05-01T07:28:31Z</time>
      </trkpt>
      <trkpt lat="44.70316" lon="4.87386">
        <ele>246.5</ele>
        <time>2014-05-01T07:28:33Z</time>
      </trkpt>
      <trkpt lat="44.70312" lon="4.87394">
        <ele>246.9</ele>
        <time>2014-05-01T07:28:35Z</time>
      </trkpt>
      <trkpt lat="44.70308" lon="4.87403">
        <ele>247.1</ele>
        <time>2014-05-01T07:28:37Z</time>
      </trkpt>
      <trkpt lat="44.70304" lon="4.87411">
        <ele>247.1</ele>
        <time>2014-05-01T07:28:39Z</time>
      </trkpt>
      <trkpt lat="44.703" lon="4.8742">
        <ele>247.2</ele>
        <time>2014-05-01T07:28:41Z</time>
      </trkpt>
      <trkpt lat="44.70296" lon="4.87429">
        <ele>247.9</ele>
        <time>2014-05-01T07:28:43Z</time>
      </trkpt>
      <trkpt lat="44.70292" lon="4.87438">
        <ele>248.4</ele>
        <time>2014-05-01T07:28:45Z</time>
      </trkpt>
      <trkpt lat="44.70288" lon="4.87447">
        <ele>248.7</ele>
        <time>2014-05-01T07:28:47Z</time>
      </trkpt>
      <trkpt lat="44.70283" lon="4.87456">
        <ele>248.7</ele>
        <time>2014-05-01T07:28:49Z</time>
      </trkpt>
      <trkpt lat="44.70279" lon="4.87465">
        <ele>248.5</ele>
        <time>2014-05-01T07:28:51Z</time>
      </trkpt>
      <trkpt lat="44.70274" lon="4.87474">
        <ele>248</ele>
        <time>2014-05-01T07:28:53Z</time>
      </trkpt>
      <trkpt lat="44.70269" lon="4.87483">
        <ele>247.3</ele>
        <time>2014-05-01T07:28:55Z</time>
      </trkpt>
      <trkpt lat="44.70264" lon="4.87491">
        <ele>246.3</ele>
        <time>2014-05-01T07:28:57Z</time>
      </trkpt>
      <trkpt lat="44.70259" lon="4.875">
        <ele>245</ele>
        <time>2014-05-01T07:28:59Z</time>
      </trkpt>
      <trkpt lat="44.70253" lon="4.87508">
        <ele>244.7</ele>
        <time>2014-05-01T07:29:01Z</time>
      </trkpt>
      <trkpt lat="44.70248" lon="4.87517">
        <ele>245</ele>
        <time>2014-05-01T07:29:03Z</time>
      </trkpt>
      <trkpt lat="44.70244" lon="4.87524">
        <ele>246.4</ele>
        <time>2014-05-01T07:29:05Z</time>
      </trkpt>
      <trkpt lat="44.70234" lon="4.8754">
        <ele>249</ele>
        <time>2014-05-01T07:29:09Z</time>
      </trkpt>
      <trkpt lat="44.70228" lon="4.87548">
        <ele>250</ele>
        <time>2014-05-01T07:29:11Z</time>
      </trkpt>
      <trkpt lat="44.70223" lon="4.87555">
        <ele>250.7</ele>
        <time>2014-05-01T07:29:13Z</time>
      </trkpt>
      <trkpt lat="44.70219" lon="4.87561">
        <ele>251.1</ele>
        <time>2014-05-01T07:29:15Z</time>
      </trkpt>
      <trkpt lat="44.70214" lon="4.87567">
        <ele>251.4</ele>
        <time>2014-05-01T07:29:17Z</time>
      </trkpt>
      <trkpt lat="44.70211" lon="4.87573">
        <ele>251.5</ele>
        <time>2014-05-01T07:29:19Z</time>
      </trkpt>
      <trkpt lat="44.70208" lon="4.87579">
        <ele>251.5</ele>
        <time>2014-05-01T07:29:21Z</time>
      </trkpt>
      <trkpt lat="44.70205" lon="4.87584">
        <ele>251.5</ele>
        <time>2014-05-01T07:29:24Z</time>
      </trkpt>
      <trkpt lat="44.702" lon="4.87589">
        <ele>251.7</ele>
        <time>2014-05-01T07:29:28Z</time>
      </trkpt>
      <trkpt lat="44.70198" lon="4.87594">
        <ele>251.9</ele>
        <time>2014-05-01T07:29:31Z</time>
      </trkpt>
      <trkpt lat="44.70194" lon="4.87601">
        <ele>252</ele>
        <time>2014-05-01T07:29:34Z</time>
      </trkpt>
      <trkpt lat="44.70189" lon="4.87606">
        <ele>251.9</ele>
        <time>2014-05-01T07:29:37Z</time>
      </trkpt>
      <trkpt lat="44.70185" lon="4.87611">
        <ele>251.7</ele>
        <time>2014-05-01T07:29:40Z</time>
      </trkpt>
      <trkpt lat="44.7018" lon="4.87617">
        <ele>251.4</ele>
        <time>2014-05-01T07:29:43Z</time>
      </trkpt>
      <trkpt lat="44.70174" lon="4.87622">
        <ele>250.9</ele>
        <time>2014-05-01T07:29:46Z</time>
      </trkpt>
      <trkpt lat="44.70171" lon="4.87626">
        <ele>250.4</ele>
        <time>2014-05-01T07:29:48Z</time>
      </trkpt>
      <trkpt lat="44.70167" lon="4.87631">
        <ele>250</ele>
        <time>2014-05-01T07:29:50Z</time>
      </trkpt>
      <trkpt lat="44.70164" lon="4.87636">
        <ele>250</ele>
        <time>2014-05-01T07:29:52Z</time>
      </trkpt>
      <trkpt lat="44.7016" lon="4.8764">
        <ele>250.3</ele>
        <time>2014-05-01T07:29:54Z</time>
      </trkpt>
      <trkpt lat="44.70156" lon="4.87645">
        <ele>250.5</ele>
        <time>2014-05-01T07:29:56Z</time>
      </trkpt>
      <trkpt lat="44.70152" lon="4.87649">
        <ele>250.7</ele>
        <time>2014-05-01T07:29:58Z</time>
      </trkpt>
      <trkpt lat="44.70147" lon="4.87654">
        <ele>250.7</ele>
        <time>2014-05-01T07:30:00Z</time>
      </trkpt>
      <trkpt lat="44.70143" lon="4.8766">
        <ele>250.6</ele>
        <time>2014-05-01T07:30:02Z</time>
      </trkpt>
      <trkpt lat="44.70139" lon="4.87666">
        <ele>250.4</ele>
        <time>2014-05-01T07:30:04Z</time>
      </trkpt>
      <trkpt lat="44.70135" lon="4.87673">
        <ele>250.9</ele>
        <time>2014-05-01T07:30:06Z</time>
      </trkpt>
      <trkpt lat="44.70126" lon="4.87684">
        <ele>251.8</ele>
        <time>2014-05-01T07:30:10Z</time>
      </trkpt>
      <trkpt lat="44.70121" lon="4.87691">
        <ele>252.1</ele>
        <time>2014-05-01T07:30:12Z</time>
      </trkpt>
      <trkpt lat="44.70117" lon="4.87698">
        <ele>252.3</ele>
        <time>2014-05-01T07:30:14Z</time>
      </trkpt>
      <trkpt lat="44.70113" lon="4.87704">
        <ele>252.4</ele>
        <time>2014-05-01T07:30:16Z</time>
      </trkpt>
      <trkpt lat="44.70108" lon="4.87711">
        <ele>252.4</ele>
        <time>2014-05-01T07:30:18Z</time>
      </trkpt>
      <trkpt lat="44.70103" lon="4.87717">
        <ele>252.2</ele>
        <time>2014-05-01T07:30:20Z</time>
      </trkpt>
      <trkpt lat="44.70098" lon="4.87724">
        <ele>251.9</ele>
        <time>2014-05-01T07:30:22Z</time>
      </trkpt>
      <trkpt lat="44.70092" lon="4.87732">
        <ele>251.4</ele>
        <time>2014-05-01T07:30:24Z</time>
      </trkpt>
      <trkpt lat="44.70087" lon="4.8774">
        <ele>250.8</ele>
        <time>2014-05-01T07:30:26Z</time>
      </trkpt>
      <trkpt lat="44.70082" lon="4.8775">
        <ele>250.2</ele>
        <time>2014-05-01T07:30:28Z</time>
      </trkpt>
      <trkpt lat="44.70076" lon="4.87759">
        <ele>251.8</ele>
        <time>2014-05-01T07:30:30Z</time>
      </trkpt>
      <trkpt lat="44.70072" lon="4.87769">
        <ele>253.2</ele>
        <time>2014-05-01T07:30:32Z</time>
      </trkpt>
      <trkpt lat="44.70066" lon="4.87778">
        <ele>254.4</ele>
        <time>2014-05-01T07:30:34Z</time>
      </trkpt>
      <trkpt lat="44.70061" lon="4.87788">
        <ele>255.4</ele>
        <time>2014-05-01T07:30:36Z</time>
      </trkpt>
      <trkpt lat="44.70056" lon="4.87797">
        <ele>256.2</ele>
        <time>2014-05-01T07:30:38Z</time>
      </trkpt>
      <trkpt lat="44.7005" lon="4.87806">
        <ele>256.7</ele>
        <time>2014-05-01T07:30:40Z</time>
      </trkpt>
      <trkpt lat="44.70045" lon="4.87813">
        <ele>256.8</ele>
        <time>2014-05-01T07:30:42Z</time>
      </trkpt>
      <trkpt lat="44.70039" lon="4.8782">
        <ele>256.7</ele>
        <time>2014-05-01T07:30:44Z</time>
      </trkpt>
      <trkpt lat="44.70033" lon="4.87827">
        <ele>256.5</ele>
        <time>2014-05-01T07:30:46Z</time>
      </trkpt>
      <trkpt lat="44.70027" lon="4.87835">
        <ele>256.1</ele>
        <time>2014-05-01T07:30:48Z</time>
      </trkpt>
      <trkpt lat="44.70022" lon="4.87844">
        <ele>256.2</ele>
        <time>2014-05-01T07:30:50Z</time>
      </trkpt>
      <trkpt lat="44.70018" lon="4.87853">
        <ele>256.4</ele>
        <time>2014-05-01T07:30:52Z</time>
      </trkpt>
      <trkpt lat="44.70014" lon="4.87861">
        <ele>256.6</ele>
        <time>2014-05-01T07:30:54Z</time>
      </trkpt>
      <trkpt lat="44.7001" lon="4.87869">
        <ele>256.7</ele>
        <time>2014-05-01T07:30:56Z</time>
      </trkpt>
      <trkpt lat="44.70007" lon="4.87878">
        <ele>256.7</ele>
        <time>2014-05-01T07:30:58Z</time>
      </trkpt>
      <trkpt lat="44.70002" lon="4.87887">
        <ele>256.5</ele>
        <time>2014-05-01T07:31:00Z</time>
      </trkpt>
      <trkpt lat="44.69997" lon="4.87895">
        <ele>256.9</ele>
        <time>2014-05-01T07:31:02Z</time>
      </trkpt>
      <trkpt lat="44.69991" lon="4.87902">
        <ele>257.6</ele>
        <time>2014-05-01T07:31:04Z</time>
      </trkpt>
      <trkpt lat="44.69986" lon="4.87908">
        <ele>258</ele>
        <time>2014-05-01T07:31:06Z</time>
      </trkpt>
      <trkpt lat="44.69981" lon="4.87915">
        <ele>258.2</ele>
        <time>2014-05-01T07:31:08Z</time>
      </trkpt>
      <trkpt lat="44.69969" lon="4.87928">
        <ele>258.8</ele>
        <time>2014-05-01T07:31:12Z</time>
      </trkpt>
      <trkpt lat="44.69965" lon="4.87935">
        <ele>259.1</ele>
        <time>2014-05-01T07:31:14Z</time>
      </trkpt>
      <trkpt lat="44.6996" lon="4.87943">
        <ele>259.3</ele>
        <time>2014-05-01T07:31:16Z</time>
      </trkpt>
      <trkpt lat="44.69957" lon="4.87953">
        <ele>259.6</ele>
        <time>2014-05-01T07:31:18Z</time>
      </trkpt>
      <trkpt lat="44.69954" lon="4.87964">
        <ele>259.7</ele>
        <time>2014-05-01T07:31:20Z</time>
      </trkpt>
      <trkpt lat="44.69951" lon="4.87975">
        <ele>259.9</ele>
        <time>2014-05-01T07:31:22Z</time>
      </trkpt>
      <trkpt lat="44.69948" lon="4.87985">
        <ele>260</ele>
        <time>2014-05-01T07:31:24Z</time>
      </trkpt>
      <trkpt lat="44.69946" lon="4.87996">
        <ele>260</ele>
        <time>2014-05-01T07:31:26Z</time>
      </trkpt>
      <trkpt lat="44.69944" lon="4.88006">
        <ele>260.2</ele>
        <time>2014-05-01T07:31:28Z</time>
      </trkpt>
      <trkpt lat="44.6994" lon="4.88016">
        <ele>260.3</ele>
        <time>2014-05-01T07:31:30Z</time>
      </trkpt>
      <trkpt lat="44.69936" lon="4.88023">
        <ele>260.2</ele>
        <time>2014-05-01T07:31:32Z</time>
      </trkpt>
      <trkpt lat="44.6993" lon="4.8803">
        <ele>260.1</ele>
        <time>2014-05-01T07:31:34Z</time>
      </trkpt>
      <trkpt lat="44.69925" lon="4.88036">
        <ele>259.9</ele>
        <time>2014-05-01T07:31:36Z</time>
      </trkpt>
      <trkpt lat="44.6992" lon="4.88041">
        <ele>259.7</ele>
        <time>2014-05-01T07:31:38Z</time>
      </trkpt>
      <trkpt lat="44.69916" lon="4.88047">
        <ele>259.7</ele>
        <time>2014-05-01T07:31:40Z</time>
      </trkpt>
      <trkpt lat="44.6991" lon="4.88052">
        <ele>260.2</ele>
        <time>2014-05-01T07:31:42Z</time>
      </trkpt>
      <trkpt lat="44.69905" lon="4.88059">
        <ele>260.6</ele>
        <time>2014-05-01T07:31:44Z</time>
      </trkpt>
      <trkpt lat="44.699" lon="4.88065">
        <ele>260.9</ele>
        <time>2014-05-01T07:31:46Z</time>
      </trkpt>
      <trkpt lat="44.69894" lon="4.88071">
        <ele>261</ele>
        <time>2014-05-01T07:31:48Z</time>
      </trkpt>
      <trkpt lat="44.69889" lon="4.88077">
        <ele>261.1</ele>
        <time>2014-05-01T07:31:50Z</time>
      </trkpt>
      <trkpt lat="44.69884" lon="4.88083">
        <ele>261</ele>
        <time>2014-05-01T07:31:52Z</time>
      </trkpt>
      <trkpt lat="44.69878" lon="4.8809">
        <ele>261.9</ele>
        <time>2014-05-01T07:31:54Z</time>
      </trkpt>
      <trkpt lat="44.69872" lon="4.88097">
        <ele>262.6</ele>
        <time>2014-05-01T07:31:56Z</time>
      </trkpt>
      <trkpt lat="44.69867" lon="4.88103">
        <ele>263.1</ele>
        <time>2014-05-01T07:31:58Z</time>
      </trkpt>
      <trkpt lat="44.69862" lon="4.88109">
        <ele>263.4</ele>
        <time>2014-05-01T07:32:00Z</time>
      </trkpt>
      <trkpt lat="44.69857" lon="4.88114">
        <ele>263.6</ele>
        <time>2014-05-01T07:32:02Z</time>
      </trkpt>
      <trkpt lat="44.69851" lon="4.8812">
        <ele>263.7</ele>
        <time>2014-05-01T07:32:04Z</time>
      </trkpt>
      <trkpt lat="44.69846" lon="4.88126">
        <ele>263.6</ele>
        <time>2014-05-01T07:32:06Z</time>
      </trkpt>
      <trkpt lat="44.6984" lon="4.88131">
        <ele>263.3</ele>
        <time>2014-05-01T07:32:08Z</time>
      </trkpt>
      <trkpt lat="44.69833" lon="4.88137">
        <ele>262.9</ele>
        <time>2014-05-01T07:32:10Z</time>
      </trkpt>
      <trkpt lat="44.6982" lon="4.88147">
        <ele>263.8</ele>
        <time>2014-05-01T07:32:14Z</time>
      </trkpt>
      <trkpt lat="44.69815" lon="4.88152">
        <ele>263.9</ele>
        <time>2014-05-01T07:32:16Z</time>
      </trkpt>
      <trkpt lat="44.69809" lon="4.88158">
        <ele>263.9</ele>
        <time>2014-05-01T07:32:18Z</time>
      </trkpt>
      <trkpt lat="44.69802" lon="4.88164">
        <ele>263.8</ele>
        <time>2014-05-01T07:32:20Z</time>
      </trkpt>
      <trkpt lat="44.69796" lon="4.8817">
        <ele>264</ele>
        <time>2014-05-01T07:32:22Z</time>
      </trkpt>
      <trkpt lat="44.6979" lon="4.88176">
        <ele>264.9</ele>
        <time>2014-05-01T07:32:24Z</time>
      </trkpt>
      <trkpt lat="44.69784" lon="4.88182">
        <ele>265.6</ele>
        <time>2014-05-01T07:32:26Z</time>
      </trkpt>
      <trkpt lat="44.69778" lon="4.88189">
        <ele>266.3</ele>
        <time>2014-05-01T07:32:28Z</time>
      </trkpt>
      <trkpt lat="44.69772" lon="4.88195">
        <ele>266.8</ele>
        <time>2014-05-01T07:32:30Z</time>
      </trkpt>
      <trkpt lat="44.69766" lon="4.88202">
        <ele>267.1</ele>
        <time>2014-05-01T07:32:32Z</time>
      </trkpt>
      <trkpt lat="44.6976" lon="4.88208">
        <ele>267.2</ele>
        <time>2014-05-01T07:32:34Z</time>
      </trkpt>
      <trkpt lat="44.69754" lon="4.88214">
        <ele>267.3</ele>
        <time>2014-05-01T07:32:36Z</time>
      </trkpt>
      <trkpt lat="44.69748" lon="4.8822">
        <ele>267.6</ele>
        <time>2014-05-01T07:32:38Z</time>
      </trkpt>
      <trkpt lat="44.69742" lon="4.88227">
        <ele>268.5</ele>
        <time>2014-05-01T07:32:40Z</time>
      </trkpt>
      <trkpt lat="44.69736" lon="4.88233">
        <ele>269.1</ele>
        <time>2014-05-01T07:32:42Z</time>
      </trkpt>
      <trkpt lat="44.6973" lon="4.88238">
        <ele>269.5</ele>
        <time>2014-05-01T07:32:44Z</time>
      </trkpt>
      <trkpt lat="44.69724" lon="4.88244">
        <ele>269.7</ele>
        <time>2014-05-01T07:32:46Z</time>
      </trkpt>
      <trkpt lat="44.69719" lon="4.8825">
        <ele>269.6</ele>
        <time>2014-05-01T07:32:48Z</time>
      </trkpt>
      <trkpt lat="44.69714" lon="4.88255">
        <ele>270.5</ele>
        <time>2014-05-01T07:32:50Z</time>
      </trkpt>
      <trkpt lat="44.69709" lon="4.8826">
        <ele>271.9</ele>
        <time>2014-05-01T07:32:52Z</time>
      </trkpt>
      <trkpt lat="44.69704" lon="4.88266">
        <ele>272.9</ele>
        <time>2014-05-01T07:32:54Z</time>
      </trkpt>
      <trkpt lat="44.69698" lon="4.88272">
        <ele>274</ele>
        <time>2014-05-01T07:32:56Z</time>
      </trkpt>
      <trkpt lat="44.69693" lon="4.88279">
        <ele>275</ele>
        <time>2014-05-01T07:32:58Z</time>
      </trkpt>
      <trkpt lat="44.69687" lon="4.88285">
        <ele>275.8</ele>
        <time>2014-05-01T07:33:00Z</time>
      </trkpt>
      <trkpt lat="44.69682" lon="4.88291">
        <ele>276.2</ele>
        <time>2014-05-01T07:33:02Z</time>
      </trkpt>
      <trkpt lat="44.69676" lon="4.88297">
        <ele>276.7</ele>
        <time>2014-05-01T07:33:04Z</time>
      </trkpt>
      <trkpt lat="44.6967" lon="4.88304">
        <ele>277.2</ele>
        <time>2014-05-01T07:33:06Z</time>
      </trkpt>
      <trkpt lat="44.69665" lon="4.8831">
        <ele>277.6</ele>
        <time>2014-05-01T07:33:08Z</time>
      </trkpt>
      <trkpt lat="44.6966" lon="4.88317">
        <ele>278.4</ele>
        <time>2014-05-01T07:33:10Z</time>
      </trkpt>
      <trkpt lat="44.69655" lon="4.88324">
        <ele>279</ele>
        <time>2014-05-01T07:33:12Z</time>
      </trkpt>
      <trkpt lat="44.69644" lon="4.88337">
        <ele>280</ele>
        <time>2014-05-01T07:33:16Z</time>
      </trkpt>
      <trkpt lat="44.69638" lon="4.88342">
        <ele>281.1</ele>
        <time>2014-05-01T07:33:18Z</time>
      </trkpt>
      <trkpt lat="44.69632" lon="4.88348">
        <ele>281.6</ele>
        <time>2014-05-01T07:33:20Z</time>
      </trkpt>
      <trkpt lat="44.69626" lon="4.88353">
        <ele>282</ele>
        <time>2014-05-01T07:33:22Z</time>
      </trkpt>
      <trkpt lat="44.69621" lon="4.88359">
        <ele>282.3</ele>
        <time>2014-05-01T07:33:24Z</time>
      </trkpt>
      <trkpt lat="44.69615" lon="4.88365">
        <ele>282.7</ele>
        <time>2014-05-01T07:33:26Z</time>
      </trkpt>
      <trkpt lat="44.69609" lon="4.8837">
        <ele>282.6</ele>
        <time>2014-05-01T07:33:28Z</time>
      </trkpt>
      <trkpt lat="44.69602" lon="4.88375">
        <ele>282.2</ele>
        <time>2014-05-01T07:33:30Z</time>
      </trkpt>
      <trkpt lat="44.69596" lon="4.88379">
        <ele>281.7</ele>
        <time>2014-05-01T07:33:32Z</time>
      </trkpt>
      <trkpt lat="44.6959" lon="4.88384">
        <ele>281.1</ele>
        <time>2014-05-01T07:33:34Z</time>
      </trkpt>
      <trkpt lat="44.69584" lon="4.88388">
        <ele>280.5</ele>
        <time>2014-05-01T07:33:36Z</time>
      </trkpt>
      <trkpt lat="44.69579" lon="4.88391">
        <ele>280.7</ele>
        <time>2014-05-01T07:33:38Z</time>
      </trkpt>
      <trkpt lat="44.69574" lon="4.88394">
        <ele>281</ele>
        <time>2014-05-01T07:33:40Z</time>
      </trkpt>
      <trkpt lat="44.69568" lon="4.88398">
        <ele>281.3</ele>
        <time>2014-05-01T07:33:42Z</time>
      </trkpt>
      <trkpt lat="44.69564" lon="4.88402">
        <ele>281.5</ele>
        <time>2014-05-01T07:33:44Z</time>
      </trkpt>
      <trkpt lat="44.69559" lon="4.88406">
        <ele>281.5</ele>
        <time>2014-05-01T07:33:46Z</time>
      </trkpt>
      <trkpt lat="44.69554" lon="4.8841">
        <ele>281.3</ele>
        <time>2014-05-01T07:33:48Z</time>
      </trkpt>
      <trkpt lat="44.6955" lon="4.88414">
        <ele>281.1</ele>
        <time>2014-05-01T07:33:50Z</time>
      </trkpt>
      <trkpt lat="44.69545" lon="4.88418">
        <ele>280.7</ele>
        <time>2014-05-01T07:33:52Z</time>
      </trkpt>
      <trkpt lat="44.69541" lon="4.88421">
        <ele>280.9</ele>
        <time>2014-05-01T07:33:54Z</time>
      </trkpt>
      <trkpt lat="44.69536" lon="4.88425">
        <ele>280.9</ele>
        <time>2014-05-01T07:33:56Z</time>
      </trkpt>
      <trkpt lat="44.69532" lon="4.88428">
        <ele>281</ele>
        <time>2014-05-01T07:33:58Z</time>
      </trkpt>
      <trkpt lat="44.69526" lon="4.88433">
        <ele>280.9</ele>
        <time>2014-05-01T07:34:01Z</time>
      </trkpt>
      <trkpt lat="44.6952" lon="4.88437">
        <ele>280.7</ele>
        <time>2014-05-01T07:34:04Z</time>
      </trkpt>
      <trkpt lat="44.69516" lon="4.88441">
        <ele>280.6</ele>
        <time>2014-05-01T07:34:06Z</time>
      </trkpt>
      <trkpt lat="44.69511" lon="4.88444">
        <ele>280.4</ele>
        <time>2014-05-01T07:34:08Z</time>
      </trkpt>
      <trkpt lat="44.69507" lon="4.88447">
        <ele>280.1</ele>
        <time>2014-05-01T07:34:10Z</time>
      </trkpt>
      <trkpt lat="44.69502" lon="4.88449">
        <ele>279.8</ele>
        <time>2014-05-01T07:34:12Z</time>
      </trkpt>
      <trkpt lat="44.69497" lon="4.88452">
        <ele>279.7</ele>
        <time>2014-05-01T07:34:14Z</time>
      </trkpt>
      <trkpt lat="44.69487" lon="4.88455">
        <ele>280</ele>
        <time>2014-05-01T07:34:18Z</time>
      </trkpt>
      <trkpt lat="44.69482" lon="4.88457">
        <ele>280.1</ele>
        <time>2014-05-01T07:34:20Z</time>
      </trkpt>
      <trkpt lat="44.69478" lon="4.8846">
        <ele>280.1</ele>
        <time>2014-05-01T07:34:22Z</time>
      </trkpt>
      <trkpt lat="44.69473" lon="4.88463">
        <ele>280.2</ele>
        <time>2014-05-01T07:34:24Z</time>
      </trkpt>
      <trkpt lat="44.69468" lon="4.88467">
        <ele>280.1</ele>
        <time>2014-05-01T07:34:26Z</time>
      </trkpt>
      <trkpt lat="44.69463" lon="4.88472">
        <ele>279.9</ele>
        <time>2014-05-01T07:34:28Z</time>
      </trkpt>
      <trkpt lat="44.69458" lon="4.88477">
        <ele>279.7</ele>
        <time>2014-05-01T07:34:30Z</time>
      </trkpt>
      <trkpt lat="44.69453" lon="4.88481">
        <ele>279.4</ele>
        <time>2014-05-01T07:34:32Z</time>
      </trkpt>
      <trkpt lat="44.69447" lon="4.88484">
        <ele>279</ele>
        <time>2014-05-01T07:34:34Z</time>
      </trkpt>
      <trkpt lat="44.69442" lon="4.88489">
        <ele>278.5</ele>
        <time>2014-05-01T07:34:36Z</time>
      </trkpt>
      <trkpt lat="44.69435" lon="4.88493">
        <ele>277.9</ele>
        <time>2014-05-01T07:34:38Z</time>
      </trkpt>
      <trkpt lat="44.69428" lon="4.88497">
        <ele>277.2</ele>
        <time>2014-05-01T07:34:40Z</time>
      </trkpt>
      <trkpt lat="44.69421" lon="4.88502">
        <ele>276.4</ele>
        <time>2014-05-01T07:34:42Z</time>
      </trkpt>
      <trkpt lat="44.69415" lon="4.88507">
        <ele>276.8</ele>
        <time>2014-05-01T07:34:44Z</time>
      </trkpt>
      <trkpt lat="44.69408" lon="4.88512">
        <ele>277.9</ele>
        <time>2014-05-01T07:34:46Z</time>
      </trkpt>
      <trkpt lat="44.694" lon="4.88517">
        <ele>278.9</ele>
        <time>2014-05-01T07:34:48Z</time>
      </trkpt>
      <trkpt lat="44.69393" lon="4.88522">
        <ele>279.8</ele>
        <time>2014-05-01T07:34:50Z</time>
      </trkpt>
      <trkpt lat="44.69386" lon="4.88526">
        <ele>280.6</ele>
        <time>2014-05-01T07:34:52Z</time>
      </trkpt>
      <trkpt lat="44.6938" lon="4.8853">
        <ele>281.2</ele>
        <time>2014-05-01T07:34:54Z</time>
      </trkpt>
      <trkpt lat="44.69373" lon="4.88534">
        <ele>281.7</ele>
        <time>2014-05-01T07:34:56Z</time>
      </trkpt>
      <trkpt lat="44.69366" lon="4.88537">
        <ele>282.2</ele>
        <time>2014-05-01T07:34:58Z</time>
      </trkpt>
      <trkpt lat="44.6936" lon="4.88541">
        <ele>282.6</ele>
        <time>2014-05-01T07:35:00Z</time>
      </trkpt>
      <trkpt lat="44.69353" lon="4.88544">
        <ele>282.9</ele>
        <time>2014-05-01T07:35:02Z</time>
      </trkpt>
      <trkpt lat="44.69346" lon="4.88547">
        <ele>283.2</ele>
        <time>2014-05-01T07:35:04Z</time>
      </trkpt>
      <trkpt lat="44.69339" lon="4.8855">
        <ele>283.4</ele>
        <time>2014-05-01T07:35:06Z</time>
      </trkpt>
      <trkpt lat="44.69332" lon="4.88553">
        <ele>283.5</ele>
        <time>2014-05-01T07:35:08Z</time>
      </trkpt>
      <trkpt lat="44.69325" lon="4.88556">
        <ele>283.8</ele>
        <time>2014-05-01T07:35:10Z</time>
      </trkpt>
      <trkpt lat="44.69318" lon="4.88559">
        <ele>284</ele>
        <time>2014-05-01T07:35:12Z</time>
      </trkpt>
      <trkpt lat="44.69311" lon="4.88562">
        <ele>284.2</ele>
        <time>2014-05-01T07:35:14Z</time>
      </trkpt>
      <trkpt lat="44.69304" lon="4.88566">
        <ele>284.1</ele>
        <time>2014-05-01T07:35:16Z</time>
      </trkpt>
      <trkpt lat="44.6929" lon="4.88574">
        <ele>283.8</ele>
        <time>2014-05-01T07:35:20Z</time>
      </trkpt>
      <trkpt lat="44.69283" lon="4.88579">
        <ele>283.3</ele>
        <time>2014-05-01T07:35:22Z</time>
      </trkpt>
      <trkpt lat="44.69276" lon="4.88583">
        <ele>282.7</ele>
        <time>2014-05-01T07:35:24Z</time>
      </trkpt>
      <trkpt lat="44.6927" lon="4.88589">
        <ele>283.2</ele>
        <time>2014-05-01T07:35:26Z</time>
      </trkpt>
      <trkpt lat="44.69263" lon="4.88594">
        <ele>283.5</ele>
        <time>2014-05-01T07:35:28Z</time>
      </trkpt>
      <trkpt lat="44.69256" lon="4.88599">
        <ele>283.8</ele>
        <time>2014-05-01T07:35:30Z</time>
      </trkpt>
      <trkpt lat="44.69249" lon="4.88603">
        <ele>284</ele>
        <time>2014-05-01T07:35:32Z</time>
      </trkpt>
      <trkpt lat="44.69242" lon="4.88607">
        <ele>284.4</ele>
        <time>2014-05-01T07:35:34Z</time>
      </trkpt>
      <trkpt lat="44.69235" lon="4.8861">
        <ele>284.9</ele>
        <time>2014-05-01T07:35:36Z</time>
      </trkpt>
      <trkpt lat="44.69228" lon="4.88614">
        <ele>285.3</ele>
        <time>2014-05-01T07:35:38Z</time>
      </trkpt>
      <trkpt lat="44.69221" lon="4.88616">
        <ele>285.6</ele>
        <time>2014-05-01T07:35:40Z</time>
      </trkpt>
      <trkpt lat="44.69213" lon="4.88618">
        <ele>286</ele>
        <time>2014-05-01T07:35:42Z</time>
      </trkpt>
      <trkpt lat="44.69206" lon="4.8862">
        <ele>286.2</ele>
        <time>2014-05-01T07:35:44Z</time>
      </trkpt>
      <trkpt lat="44.69199" lon="4.88622">
        <ele>286.5</ele>
        <time>2014-05-01T07:35:46Z</time>
      </trkpt>
      <trkpt lat="44.69191" lon="4.88623">
        <ele>286.8</ele>
        <time>2014-05-01T07:35:48Z</time>
      </trkpt>
      <trkpt lat="44.69183" lon="4.88624">
        <ele>287</ele>
        <time>2014-05-01T07:35:50Z</time>
      </trkpt>
      <trkpt lat="44.69176" lon="4.88625">
        <ele>287.2</ele>
        <time>2014-05-01T07:35:52Z</time>
      </trkpt>
      <trkpt lat="44.69169" lon="4.88626">
        <ele>287.4</ele>
        <time>2014-05-01T07:35:54Z</time>
      </trkpt>
      <trkpt lat="44.69161" lon="4.88628">
        <ele>287.8</ele>
        <time>2014-05-01T07:35:56Z</time>
      </trkpt>
      <trkpt lat="44.69154" lon="4.88629">
        <ele>288.2</ele>
        <time>2014-05-01T07:35:58Z</time>
      </trkpt>
      <trkpt lat="44.69147" lon="4.88632">
        <ele>288.5</ele>
        <time>2014-05-01T07:36:00Z</time>
      </trkpt>
      <trkpt lat="44.6914" lon="4.88634">
        <ele>288.8</ele>
        <time>2014-05-01T07:36:02Z</time>
      </trkpt>
      <trkpt lat="44.69133" lon="4.88636">
        <ele>289.1</ele>
        <time>2014-05-01T07:36:04Z</time>
      </trkpt>
      <trkpt lat="44.69126" lon="4.88639">
        <ele>289.3</ele>
        <time>2014-05-01T07:36:06Z</time>
      </trkpt>
      <trkpt lat="44.6912" lon="4.88641">
        <ele>289.5</ele>
        <time>2014-05-01T07:36:08Z</time>
      </trkpt>
      <trkpt lat="44.69113" lon="4.88643">
        <ele>289.7</ele>
        <time>2014-05-01T07:36:10Z</time>
      </trkpt>
      <trkpt lat="44.69106" lon="4.88645">
        <ele>289.9</ele>
        <time>2014-05-01T07:36:12Z</time>
      </trkpt>
      <trkpt lat="44.691" lon="4.88648">
        <ele>290</ele>
        <time>2014-05-01T07:36:14Z</time>
      </trkpt>
      <trkpt lat="44.69093" lon="4.8865">
        <ele>290</ele>
        <time>2014-05-01T07:36:16Z</time>
      </trkpt>
      <trkpt lat="44.69086" lon="4.88653">
        <ele>290.1</ele>
        <time>2014-05-01T07:36:18Z</time>
      </trkpt>
      <trkpt lat="44.69074" lon="4.88659">
        <ele>290.3</ele>
        <time>2014-05-01T07:36:22Z</time>
      </trkpt>
      <trkpt lat="44.69067" lon="4.88661">
        <ele>290.5</ele>
        <time>2014-05-01T07:36:24Z</time>
      </trkpt>
      <trkpt lat="44.6906" lon="4.88664">
        <ele>290.5</ele>
        <time>2014-05-01T07:36:26Z</time>
      </trkpt>
      <trkpt lat="44.69053" lon="4.88667">
        <ele>290.5</ele>
        <time>2014-05-01T07:36:28Z</time>
      </trkpt>
      <trkpt lat="44.69046" lon="4.88669">
        <ele>290.9</ele>
        <time>2014-05-01T07:36:30Z</time>
      </trkpt>
      <trkpt lat="44.6904" lon="4.88671">
        <ele>291.4</ele>
        <time>2014-05-01T07:36:32Z</time>
      </trkpt>
      <trkpt lat="44.69033" lon="4.88673">
        <ele>291.9</ele>
        <time>2014-05-01T07:36:34Z</time>
      </trkpt>
      <trkpt lat="44.69026" lon="4.88676">
        <ele>292.3</ele>
        <time>2014-05-01T07:36:36Z</time>
      </trkpt>
      <trkpt lat="44.6902" lon="4.88678">
        <ele>292.7</ele>
        <time>2014-05-01T07:36:38Z</time>
      </trkpt>
      <trkpt lat="44.69013" lon="4.8868">
        <ele>293.1</ele>
        <time>2014-05-01T07:36:40Z</time>
      </trkpt>
      <trkpt lat="44.69006" lon="4.88682">
        <ele>293.5</ele>
        <time>2014-05-01T07:36:42Z</time>
      </trkpt>
      <trkpt lat="44.68999" lon="4.88684">
        <ele>293.9</ele>
        <time>2014-05-01T07:36:44Z</time>
      </trkpt>
      <trkpt lat="44.68993" lon="4.88684">
        <ele>294.6</ele>
        <time>2014-05-01T07:36:46Z</time>
      </trkpt>
      <trkpt lat="44.68987" lon="4.88685">
        <ele>295.4</ele>
        <time>2014-05-01T07:36:48Z</time>
      </trkpt>
      <trkpt lat="44.6898" lon="4.88686">
        <ele>296.1</ele>
        <time>2014-05-01T07:36:50Z</time>
      </trkpt>
      <trkpt lat="44.68973" lon="4.88686">
        <ele>296.9</ele>
        <time>2014-05-01T07:36:52Z</time>
      </trkpt>
      <trkpt lat="44.68967" lon="4.88687">
        <ele>297.6</ele>
        <time>2014-05-01T07:36:54Z</time>
      </trkpt>
      <trkpt lat="44.68961" lon="4.88688">
        <ele>298.2</ele>
        <time>2014-05-01T07:36:56Z</time>
      </trkpt>
      <trkpt lat="44.68955" lon="4.88688">
        <ele>298.8</ele>
        <time>2014-05-01T07:36:58Z</time>
      </trkpt>
      <trkpt lat="44.68949" lon="4.88689">
        <ele>299.5</ele>
        <time>2014-05-01T07:37:00Z</time>
      </trkpt>
      <trkpt lat="44.68944" lon="4.88689">
        <ele>300.1</ele>
        <time>2014-05-01T07:37:02Z</time>
      </trkpt>
      <trkpt lat="44.68938" lon="4.8869">
        <ele>300.7</ele>
        <time>2014-05-01T07:37:04Z</time>
      </trkpt>
      <trkpt lat="44.68932" lon="4.88691">
        <ele>301.2</ele>
        <time>2014-05-01T07:37:06Z</time>
      </trkpt>
      <trkpt lat="44.68927" lon="4.88692">
        <ele>301.8</ele>
        <time>2014-05-01T07:37:08Z</time>
      </trkpt>
      <trkpt lat="44.68922" lon="4.88693">
        <ele>302.2</ele>
        <time>2014-05-01T07:37:10Z</time>
      </trkpt>
      <trkpt lat="44.68917" lon="4.88694">
        <ele>302.7</ele>
        <time>2014-05-01T07:37:12Z</time>
      </trkpt>
      <trkpt lat="44.68912" lon="4.88696">
        <ele>302.5</ele>
        <time>2014-05-01T07:37:14Z</time>
      </trkpt>
      <trkpt lat="44.68907" lon="4.88697">
        <ele>302.4</ele>
        <time>2014-05-01T07:37:16Z</time>
      </trkpt>
      <trkpt lat="44.68901" lon="4.887">
        <ele>302.1</ele>
        <time>2014-05-01T07:37:18Z</time>
      </trkpt>
      <trkpt lat="44.68896" lon="4.88703">
        <ele>301.9</ele>
        <time>2014-05-01T07:37:20Z</time>
      </trkpt>
      <trkpt lat="44.68885" lon="4.88708">
        <ele>301.5</ele>
        <time>2014-05-01T07:37:24Z</time>
      </trkpt>
      <trkpt lat="44.68879" lon="4.88711">
        <ele>301.3</ele>
        <time>2014-05-01T07:37:26Z</time>
      </trkpt>
      <trkpt lat="44.68873" lon="4.88714">
        <ele>301</ele>
        <time>2014-05-01T07:37:28Z</time>
      </trkpt>
      <trkpt lat="44.68868" lon="4.88717">
        <ele>300.8</ele>
        <time>2014-05-01T07:37:30Z</time>
      </trkpt>
      <trkpt lat="44.68862" lon="4.88719">
        <ele>300.6</ele>
        <time>2014-05-01T07:37:32Z</time>
      </trkpt>
      <trkpt lat="44.68856" lon="4.88723">
        <ele>300.3</ele>
        <time>2014-05-01T07:37:34Z</time>
      </trkpt>
      <trkpt lat="44.6885" lon="4.88727">
        <ele>300.1</ele>
        <time>2014-05-01T07:37:36Z</time>
      </trkpt>
      <trkpt lat="44.68844" lon="4.8873">
        <ele>299.9</ele>
        <time>2014-05-01T07:37:38Z</time>
      </trkpt>
      <trkpt lat="44.68838" lon="4.88733">
        <ele>299.7</ele>
        <time>2014-05-01T07:37:40Z</time>
      </trkpt>
      <trkpt lat="44.68832" lon="4.88735">
        <ele>299.6</ele>
        <time>2014-05-01T07:37:42Z</time>
      </trkpt>
      <trkpt lat="44.68826" lon="4.88738">
        <ele>299.9</ele>
        <time>2014-05-01T07:37:44Z</time>
      </trkpt>
      <trkpt lat="44.6882" lon="4.88741">
        <ele>300.2</ele>
        <time>2014-05-01T07:37:46Z</time>
      </trkpt>
      <trkpt lat="44.68813" lon="4.88744">
        <ele>300.4</ele>
        <time>2014-05-01T07:37:48Z</time>
      </trkpt>
      <trkpt lat="44.68807" lon="4.88747">
        <ele>300.7</ele>
        <time>2014-05-01T07:37:50Z</time>
      </trkpt>
      <trkpt lat="44.68801" lon="4.8875">
        <ele>301</ele>
        <time>2014-05-01T07:37:52Z</time>
      </trkpt>
      <trkpt lat="44.68795" lon="4.88752">
        <ele>301.5</ele>
        <time>2014-05-01T07:37:54Z</time>
      </trkpt>
      <trkpt lat="44.6879" lon="4.88756">
        <ele>302.5</ele>
        <time>2014-05-01T07:37:56Z</time>
      </trkpt>
      <trkpt lat="44.68786" lon="4.88762">
        <ele>303.9</ele>
        <time>2014-05-01T07:37:58Z</time>
      </trkpt>
      <trkpt lat="44.68782" lon="4.88769">
        <ele>305.3</ele>
        <time>2014-05-01T07:38:00Z</time>
      </trkpt>
      <trkpt lat="44.68781" lon="4.88777">
        <ele>307</ele>
        <time>2014-05-01T07:38:02Z</time>
      </trkpt>
      <trkpt lat="44.68781" lon="4.88785">
        <ele>308.4</ele>
        <time>2014-05-01T07:38:04Z</time>
      </trkpt>
      <trkpt lat="44.68781" lon="4.88794">
        <ele>309.8</ele>
        <time>2014-05-01T07:38:06Z</time>
      </trkpt>
      <trkpt lat="44.6878" lon="4.88801">
        <ele>311.3</ele>
        <time>2014-05-01T07:38:08Z</time>
      </trkpt>
      <trkpt lat="44.6878" lon="4.88809">
        <ele>312.7</ele>
        <time>2014-05-01T07:38:10Z</time>
      </trkpt>
      <trkpt lat="44.68779" lon="4.88816">
        <ele>313.9</ele>
        <time>2014-05-01T07:38:12Z</time>
      </trkpt>
      <trkpt lat="44.68778" lon="4.88822">
        <ele>315.2</ele>
        <time>2014-05-01T07:38:14Z</time>
      </trkpt>
      <trkpt lat="44.68776" lon="4.88831">
        <ele>317.1</ele>
        <time>2014-05-01T07:38:17Z</time>
      </trkpt>
      <trkpt lat="44.68773" lon="4.88838">
        <ele>318.7</ele>
        <time>2014-05-01T07:38:20Z</time>
      </trkpt>
      <trkpt lat="44.68769" lon="4.88846">
        <ele>320.9</ele>
        <time>2014-05-01T07:38:23Z</time>
      </trkpt>
      <trkpt lat="44.68762" lon="4.88855">
        <ele>323.8</ele>
        <time>2014-05-01T07:38:27Z</time>
      </trkpt>
      <trkpt lat="44.68757" lon="4.88861">
        <ele>326</ele>
        <time>2014-05-01T07:38:30Z</time>
      </trkpt>
      <trkpt lat="44.68752" lon="4.88867">
        <ele>327.9</ele>
        <time>2014-05-01T07:38:33Z</time>
      </trkpt>
      <trkpt lat="44.68747" lon="4.88873">
        <ele>329.7</ele>
        <time>2014-05-01T07:38:36Z</time>
      </trkpt>
      <trkpt lat="44.68742" lon="4.88879">
        <ele>330.8</ele>
        <time>2014-05-01T07:38:39Z</time>
      </trkpt>
      <trkpt lat="44.68737" lon="4.88884">
        <ele>331.9</ele>
        <time>2014-05-01T07:38:42Z</time>
      </trkpt>
      <trkpt lat="44.68732" lon="4.88888">
        <ele>333.1</ele>
        <time>2014-05-01T07:38:45Z</time>
      </trkpt>
      <trkpt lat="44.68727" lon="4.88894">
        <ele>334.2</ele>
        <time>2014-05-01T07:38:48Z</time>
      </trkpt>
      <trkpt lat="44.68723" lon="4.88897">
        <ele>335</ele>
        <time>2014-05-01T07:38:50Z</time>
      </trkpt>
      <trkpt lat="44.68719" lon="4.88901">
        <ele>335.5</ele>
        <time>2014-05-01T07:38:52Z</time>
      </trkpt>
      <trkpt lat="44.68714" lon="4.88906">
        <ele>337</ele>
        <time>2014-05-01T07:38:55Z</time>
      </trkpt>
      <trkpt lat="44.6871" lon="4.8891">
        <ele>337.5</ele>
        <time>2014-05-01T07:38:57Z</time>
      </trkpt>
      <trkpt lat="44.68706" lon="4.88913">
        <ele>338.4</ele>
        <time>2014-05-01T07:38:59Z</time>
      </trkpt>
      <trkpt lat="44.687" lon="4.88916">
        <ele>338.9</ele>
        <time>2014-05-01T07:39:02Z</time>
      </trkpt>
      <trkpt lat="44.68695" lon="4.8892">
        <ele>339.4</ele>
        <time>2014-05-01T07:39:05Z</time>
      </trkpt>
      <trkpt lat="44.6869" lon="4.88923">
        <ele>339.7</ele>
        <time>2014-05-01T07:39:08Z</time>
      </trkpt>
      <trkpt lat="44.68686" lon="4.88926">
        <ele>340</ele>
        <time>2014-05-01T07:39:10Z</time>
      </trkpt>
      <trkpt lat="44.68682" lon="4.88929">
        <ele>340.3</ele>
        <time>2014-05-01T07:39:12Z</time>
      </trkpt>
      <trkpt lat="44.68678" lon="4.88933">
        <ele>340.8</ele>
        <time>2014-05-01T07:39:14Z</time>
      </trkpt>
      <trkpt lat="44.68673" lon="4.88936">
        <ele>341.4</ele>
        <time>2014-05-01T07:39:16Z</time>
      </trkpt>
      <trkpt lat="44.68668" lon="4.8894">
        <ele>341.9</ele>
        <time>2014-05-01T07:39:19Z</time>
      </trkpt>
      <trkpt lat="44.68662" lon="4.88943">
        <ele>341.8</ele>
        <time>2014-05-01T07:39:22Z</time>
      </trkpt>
      <trkpt lat="44.68656" lon="4.88946">
        <ele>341.6</ele>
        <time>2014-05-01T07:39:25Z</time>
      </trkpt>
      <trkpt lat="44.68647" lon="4.88952">
        <ele>341.9</ele>
        <time>2014-05-01T07:39:29Z</time>
      </trkpt>
      <trkpt lat="44.68643" lon="4.88955">
        <ele>341.9</ele>
        <time>2014-05-01T07:39:31Z</time>
      </trkpt>
      <trkpt lat="44.68638" lon="4.88957">
        <ele>341.7</ele>
        <time>2014-05-01T07:39:33Z</time>
      </trkpt>
      <trkpt lat="44.68633" lon="4.88959">
        <ele>341.8</ele>
        <time>2014-05-01T07:39:35Z</time>
      </trkpt>
      <trkpt lat="44.68627" lon="4.88961">
        <ele>341.7</ele>
        <time>2014-05-01T07:39:38Z</time>
      </trkpt>
      <trkpt lat="44.68621" lon="4.88963">
        <ele>341.5</ele>
        <time>2014-05-01T07:39:41Z</time>
      </trkpt>
      <trkpt lat="44.68615" lon="4.88964">
        <ele>341.3</ele>
        <time>2014-05-01T07:39:44Z</time>
      </trkpt>
      <trkpt lat="44.68609" lon="4.88965">
        <ele>341</ele>
        <time>2014-05-01T07:39:47Z</time>
      </trkpt>
      <trkpt lat="44.68603" lon="4.88966">
        <ele>340.8</ele>
        <time>2014-05-01T07:39:50Z</time>
      </trkpt>
      <trkpt lat="44.68597" lon="4.88967">
        <ele>340.3</ele>
        <time>2014-05-01T07:39:53Z</time>
      </trkpt>
      <trkpt lat="44.68591" lon="4.88969">
        <ele>340.1</ele>
        <time>2014-05-01T07:39:56Z</time>
      </trkpt>
      <trkpt lat="44.68585" lon="4.88971">
        <ele>340.6</ele>
        <time>2014-05-01T07:39:59Z</time>
      </trkpt>
      <trkpt lat="44.6858" lon="4.88973">
        <ele>340.6</ele>
        <time>2014-05-01T07:40:01Z</time>
      </trkpt>
      <trkpt lat="44.68574" lon="4.88973">
        <ele>340.3</ele>
        <time>2014-05-01T07:40:04Z</time>
      </trkpt>
      <trkpt lat="44.68568" lon="4.88973">
        <ele>340</ele>
        <time>2014-05-01T07:40:07Z</time>
      </trkpt>
      <trkpt lat="44.68561" lon="4.88973">
        <ele>339.7</ele>
        <time>2014-05-01T07:40:10Z</time>
      </trkpt>
      <trkpt lat="44.68557" lon="4.88974">
        <ele>339.8</ele>
        <time>2014-05-01T07:40:12Z</time>
      </trkpt>
      <trkpt lat="44.68551" lon="4.88977">
        <ele>340.1</ele>
        <time>2014-05-01T07:40:15Z</time>
      </trkpt>
      <trkpt lat="44.68546" lon="4.88979">
        <ele>340.2</ele>
        <time>2014-05-01T07:40:17Z</time>
      </trkpt>
      <trkpt lat="44.6854" lon="4.88982">
        <ele>340.8</ele>
        <time>2014-05-01T07:40:20Z</time>
      </trkpt>
      <trkpt lat="44.68534" lon="4.88986">
        <ele>341.3</ele>
        <time>2014-05-01T07:40:23Z</time>
      </trkpt>
      <trkpt lat="44.68529" lon="4.88991">
        <ele>341.8</ele>
        <time>2014-05-01T07:40:26Z</time>
      </trkpt>
      <trkpt lat="44.68522" lon="4.88999">
        <ele>343.3</ele>
        <time>2014-05-01T07:40:30Z</time>
      </trkpt>
      <trkpt lat="44.68518" lon="4.89006">
        <ele>344.5</ele>
        <time>2014-05-01T07:40:33Z</time>
      </trkpt>
      <trkpt lat="44.68514" lon="4.89013">
        <ele>346.1</ele>
        <time>2014-05-01T07:40:36Z</time>
      </trkpt>
      <trkpt lat="44.68511" lon="4.89019">
        <ele>347.5</ele>
        <time>2014-05-01T07:40:38Z</time>
      </trkpt>
      <trkpt lat="44.68509" lon="4.89025">
        <ele>348.7</ele>
        <time>2014-05-01T07:40:40Z</time>
      </trkpt>
      <trkpt lat="44.68506" lon="4.89032">
        <ele>350.2</ele>
        <time>2014-05-01T07:40:42Z</time>
      </trkpt>
      <trkpt lat="44.68503" lon="4.8904">
        <ele>352</ele>
        <time>2014-05-01T07:40:45Z</time>
      </trkpt>
      <trkpt lat="44.685" lon="4.89047">
        <ele>353.8</ele>
        <time>2014-05-01T07:40:48Z</time>
      </trkpt>
      <trkpt lat="44.68496" lon="4.89054">
        <ele>355</ele>
        <time>2014-05-01T07:40:51Z</time>
      </trkpt>
      <trkpt lat="44.68493" lon="4.89062">
        <ele>356.4</ele>
        <time>2014-05-01T07:40:54Z</time>
      </trkpt>
      <trkpt lat="44.6849" lon="4.89067">
        <ele>357.2</ele>
        <time>2014-05-01T07:40:57Z</time>
      </trkpt>
      <trkpt lat="44.68487" lon="4.89075">
        <ele>358.7</ele>
        <time>2014-05-01T07:40:59Z</time>
      </trkpt>
      <trkpt lat="44.68485" lon="4.89082">
        <ele>360.1</ele>
        <time>2014-05-01T07:41:01Z</time>
      </trkpt>
      <trkpt lat="44.68483" lon="4.89089">
        <ele>360.3</ele>
        <time>2014-05-01T07:41:03Z</time>
      </trkpt>
      <trkpt lat="44.68482" lon="4.89095">
        <ele>360.3</ele>
        <time>2014-05-01T07:41:05Z</time>
      </trkpt>
      <trkpt lat="44.68482" lon="4.89102">
        <ele>360.6</ele>
        <time>2014-05-01T07:41:07Z</time>
      </trkpt>
      <trkpt lat="44.68482" lon="4.8911">
        <ele>360.9</ele>
        <time>2014-05-01T07:41:10Z</time>
      </trkpt>
      <trkpt lat="44.68481" lon="4.89117">
        <ele>361</ele>
        <time>2014-05-01T07:41:12Z</time>
      </trkpt>
      <trkpt lat="44.68482" lon="4.89125">
        <ele>361.3</ele>
        <time>2014-05-01T07:41:15Z</time>
      </trkpt>
      <trkpt lat="44.68481" lon="4.89134">
        <ele>361.6</ele>
        <time>2014-05-01T07:41:18Z</time>
      </trkpt>
      <trkpt lat="44.68481" lon="4.89142">
        <ele>361.8</ele>
        <time>2014-05-01T07:41:21Z</time>
      </trkpt>
      <trkpt lat="44.68481" lon="4.89148">
        <ele>362.1</ele>
        <time>2014-05-01T07:41:23Z</time>
      </trkpt>
      <trkpt lat="44.68483" lon="4.89156">
        <ele>362.5</ele>
        <time>2014-05-01T07:41:26Z</time>
      </trkpt>
      <trkpt lat="44.68485" lon="4.89164">
        <ele>363.2</ele>
        <time>2014-05-01T07:41:29Z</time>
      </trkpt>
      <trkpt lat="44.68491" lon="4.89177">
        <ele>364.6</ele>
        <time>2014-05-01T07:41:33Z</time>
      </trkpt>
      <trkpt lat="44.68492" lon="4.89184">
        <ele>365.2</ele>
        <time>2014-05-01T07:41:35Z</time>
      </trkpt>
      <trkpt lat="44.68492" lon="4.89191">
        <ele>365.5</ele>
        <time>2014-05-01T07:41:37Z</time>
      </trkpt>
      <trkpt lat="44.6849" lon="4.89197">
        <ele>365.8</ele>
        <time>2014-05-01T07:41:39Z</time>
      </trkpt>
      <trkpt lat="44.68486" lon="4.89202">
        <ele>365.7</ele>
        <time>2014-05-01T07:41:41Z</time>
      </trkpt>
      <trkpt lat="44.68482" lon="4.89205">
        <ele>365.5</ele>
        <time>2014-05-01T07:41:43Z</time>
      </trkpt>
      <trkpt lat="44.68478" lon="4.89205">
        <ele>365.1</ele>
        <time>2014-05-01T07:41:45Z</time>
      </trkpt>
      <trkpt lat="44.68473" lon="4.89203">
        <ele>364.5</ele>
        <time>2014-05-01T07:41:47Z</time>
      </trkpt>
      <trkpt lat="44.68469" lon="4.892">
        <ele>363.8</ele>
        <time>2014-05-01T07:41:49Z</time>
      </trkpt>
      <trkpt lat="44.68465" lon="4.89196">
        <ele>363.1</ele>
        <time>2014-05-01T07:41:51Z</time>
      </trkpt>
      <trkpt lat="44.68462" lon="4.89192">
        <ele>362.4</ele>
        <time>2014-05-01T07:41:53Z</time>
      </trkpt>
      <trkpt lat="44.68456" lon="4.89187">
        <ele>361.4</ele>
        <time>2014-05-01T07:41:56Z</time>
      </trkpt>
      <trkpt lat="44.68451" lon="4.89182">
        <ele>360.5</ele>
        <time>2014-05-01T07:41:59Z</time>
      </trkpt>
      <trkpt lat="44.68446" lon="4.89179">
        <ele>359.5</ele>
        <time>2014-05-01T07:42:02Z</time>
      </trkpt>
      <trkpt lat="44.68442" lon="4.89174">
        <ele>358.7</ele>
        <time>2014-05-01T07:42:04Z</time>
      </trkpt>
      <trkpt lat="44.68438" lon="4.89167">
        <ele>357.6</ele>
        <time>2014-05-01T07:42:07Z</time>
      </trkpt>
      <trkpt lat="44.68435" lon="4.89161">
        <ele>356.7</ele>
        <time>2014-05-01T07:42:10Z</time>
      </trkpt>
      <trkpt lat="44.6843" lon="4.89154">
        <ele>355.7</ele>
        <time>2014-05-01T07:42:13Z</time>
      </trkpt>
      <trkpt lat="44.68427" lon="4.89149">
        <ele>355</ele>
        <time>2014-05-01T07:42:15Z</time>
      </trkpt>
      <trkpt lat="44.68422" lon="4.89143">
        <ele>354</ele>
        <time>2014-05-01T07:42:18Z</time>
      </trkpt>
      <trkpt lat="44.68416" lon="4.89141">
        <ele>353.1</ele>
        <time>2014-05-01T07:42:21Z</time>
      </trkpt>
      <trkpt lat="44.6841" lon="4.89141">
        <ele>353.1</ele>
        <time>2014-05-01T07:42:24Z</time>
      </trkpt>
      <trkpt lat="44.68404" lon="4.89142">
        <ele>353.1</ele>
        <time>2014-05-01T07:42:27Z</time>
      </trkpt>
      <trkpt lat="44.68398" lon="4.89144">
        <ele>353.1</ele>
        <time>2014-05-01T07:42:30Z</time>
      </trkpt>
      <trkpt lat="44.68387" lon="4.8915">
        <ele>353.5</ele>
        <time>2014-05-01T07:42:35Z</time>
      </trkpt>
      <trkpt lat="44.68383" lon="4.89152">
        <ele>353.6</ele>
        <time>2014-05-01T07:42:37Z</time>
      </trkpt>
      <trkpt lat="44.68378" lon="4.89156">
        <ele>354.1</ele>
        <time>2014-05-01T07:42:40Z</time>
      </trkpt>
      <trkpt lat="44.68372" lon="4.89161">
        <ele>354.4</ele>
        <time>2014-05-01T07:42:43Z</time>
      </trkpt>
      <trkpt lat="44.68367" lon="4.89166">
        <ele>354.9</ele>
        <time>2014-05-01T07:42:46Z</time>
      </trkpt>
      <trkpt lat="44.68363" lon="4.89172">
        <ele>355.6</ele>
        <time>2014-05-01T07:42:49Z</time>
      </trkpt>
      <trkpt lat="44.68359" lon="4.89178">
        <ele>356.2</ele>
        <time>2014-05-01T07:42:52Z</time>
      </trkpt>
      <trkpt lat="44.68356" lon="4.89185">
        <ele>357.1</ele>
        <time>2014-05-01T07:42:55Z</time>
      </trkpt>
      <trkpt lat="44.68353" lon="4.89194">
        <ele>358.2</ele>
        <time>2014-05-01T07:42:58Z</time>
      </trkpt>
      <trkpt lat="44.68351" lon="4.892">
        <ele>358.8</ele>
        <time>2014-05-01T07:43:00Z</time>
      </trkpt>
      <trkpt lat="44.68348" lon="4.89206">
        <ele>359.6</ele>
        <time>2014-05-01T07:43:02Z</time>
      </trkpt>
      <trkpt lat="44.68346" lon="4.89212">
        <ele>360.2</ele>
        <time>2014-05-01T07:43:04Z</time>
      </trkpt>
      <trkpt lat="44.68343" lon="4.89218">
        <ele>361</ele>
        <time>2014-05-01T07:43:06Z</time>
      </trkpt>
      <trkpt lat="44.68341" lon="4.89224">
        <ele>361.8</ele>
        <time>2014-05-01T07:43:08Z</time>
      </trkpt>
      <trkpt lat="44.68339" lon="4.8923">
        <ele>362.5</ele>
        <time>2014-05-01T07:43:10Z</time>
      </trkpt>
      <trkpt lat="44.68337" lon="4.89239">
        <ele>363.6</ele>
        <time>2014-05-01T07:43:13Z</time>
      </trkpt>
      <trkpt lat="44.68336" lon="4.89246">
        <ele>364.3</ele>
        <time>2014-05-01T07:43:15Z</time>
      </trkpt>
      <trkpt lat="44.68335" lon="4.89255">
        <ele>365.7</ele>
        <time>2014-05-01T07:43:18Z</time>
      </trkpt>
      <trkpt lat="44.68336" lon="4.89262">
        <ele>366.7</ele>
        <time>2014-05-01T07:43:20Z</time>
      </trkpt>
      <trkpt lat="44.68336" lon="4.89271">
        <ele>368</ele>
        <time>2014-05-01T07:43:23Z</time>
      </trkpt>
      <trkpt lat="44.68336" lon="4.89279">
        <ele>369.1</ele>
        <time>2014-05-01T07:43:26Z</time>
      </trkpt>
      <trkpt lat="44.68336" lon="4.89288">
        <ele>370.4</ele>
        <time>2014-05-01T07:43:29Z</time>
      </trkpt>
      <trkpt lat="44.68336" lon="4.89295">
        <ele>371.4</ele>
        <time>2014-05-01T07:43:31Z</time>
      </trkpt>
      <trkpt lat="44.68332" lon="4.89312">
        <ele>373.8</ele>
        <time>2014-05-01T07:43:37Z</time>
      </trkpt>
      <trkpt lat="44.6833" lon="4.8932">
        <ele>374.8</ele>
        <time>2014-05-01T07:43:40Z</time>
      </trkpt>
      <trkpt lat="44.68327" lon="4.89328">
        <ele>375.8</ele>
        <time>2014-05-01T07:43:43Z</time>
      </trkpt>
      <trkpt lat="44.68324" lon="4.89333">
        <ele>376.7</ele>
        <time>2014-05-01T07:43:45Z</time>
      </trkpt>
      <trkpt lat="44.68322" lon="4.89339">
        <ele>377.6</ele>
        <time>2014-05-01T07:43:47Z</time>
      </trkpt>
      <trkpt lat="44.68319" lon="4.89344">
        <ele>378.5</ele>
        <time>2014-05-01T07:43:49Z</time>
      </trkpt>
      <trkpt lat="44.68316" lon="4.89352">
        <ele>379.9</ele>
        <time>2014-05-01T07:43:52Z</time>
      </trkpt>
      <trkpt lat="44.68314" lon="4.89358">
        <ele>381.1</ele>
        <time>2014-05-01T07:43:54Z</time>
      </trkpt>
      <trkpt lat="44.68312" lon="4.89364">
        <ele>382</ele>
        <time>2014-05-01T07:43:56Z</time>
      </trkpt>
      <trkpt lat="44.6831" lon="4.8937">
        <ele>383.1</ele>
        <time>2014-05-01T07:43:58Z</time>
      </trkpt>
      <trkpt lat="44.68307" lon="4.89378">
        <ele>384.4</ele>
        <time>2014-05-01T07:44:01Z</time>
      </trkpt>
      <trkpt lat="44.68305" lon="4.89387">
        <ele>386</ele>
        <time>2014-05-01T07:44:04Z</time>
      </trkpt>
      <trkpt lat="44.68302" lon="4.89395">
        <ele>387.2</ele>
        <time>2014-05-01T07:44:07Z</time>
      </trkpt>
      <trkpt lat="44.683" lon="4.89402">
        <ele>388.3</ele>
        <time>2014-05-01T07:44:09Z</time>
      </trkpt>
      <trkpt lat="44.68298" lon="4.8941">
        <ele>389.6</ele>
        <time>2014-05-01T07:44:12Z</time>
      </trkpt>
      <trkpt lat="44.68296" lon="4.89417">
        <ele>390.8</ele>
        <time>2014-05-01T07:44:15Z</time>
      </trkpt>
      <trkpt lat="44.68293" lon="4.89425">
        <ele>391.7</ele>
        <time>2014-05-01T07:44:18Z</time>
      </trkpt>
      <trkpt lat="44.68291" lon="4.89433">
        <ele>392.7</ele>
        <time>2014-05-01T07:44:21Z</time>
      </trkpt>
      <trkpt lat="44.68288" lon="4.89441">
        <ele>393.6</ele>
        <time>2014-05-01T07:44:24Z</time>
      </trkpt>
      <trkpt lat="44.68286" lon="4.89447">
        <ele>394.4</ele>
        <time>2014-05-01T07:44:26Z</time>
      </trkpt>
      <trkpt lat="44.68285" lon="4.89454">
        <ele>395.2</ele>
        <time>2014-05-01T07:44:28Z</time>
      </trkpt>
      <trkpt lat="44.68282" lon="4.89462">
        <ele>396.4</ele>
        <time>2014-05-01T07:44:31Z</time>
      </trkpt>
      <trkpt lat="44.68281" lon="4.89468">
        <ele>397.1</ele>
        <time>2014-05-01T07:44:33Z</time>
      </trkpt>
      <trkpt lat="44.68278" lon="4.89482">
        <ele>399</ele>
        <time>2014-05-01T07:44:37Z</time>
      </trkpt>
      <trkpt lat="44.68276" lon="4.89488">
        <ele>399.8</ele>
        <time>2014-05-01T07:44:39Z</time>
      </trkpt>
      <trkpt lat="44.68274" lon="4.89496">
        <ele>400.9</ele>
        <time>2014-05-01T07:44:42Z</time>
      </trkpt>
      <trkpt lat="44.68272" lon="4.89505">
        <ele>401.4</ele>
        <time>2014-05-01T07:44:45Z</time>
      </trkpt>
      <trkpt lat="44.6827" lon="4.89512">
        <ele>401.4</ele>
        <time>2014-05-01T07:44:48Z</time>
      </trkpt>
      <trkpt lat="44.68268" lon="4.89519">
        <ele>401.4</ele>
        <time>2014-05-01T07:44:51Z</time>
      </trkpt>
      <trkpt lat="44.68265" lon="4.89527">
        <ele>401.5</ele>
        <time>2014-05-01T07:44:54Z</time>
      </trkpt>
      <trkpt lat="44.68263" lon="4.89534">
        <ele>401.6</ele>
        <time>2014-05-01T07:44:57Z</time>
      </trkpt>
      <trkpt lat="44.68261" lon="4.8954">
        <ele>401.6</ele>
        <time>2014-05-01T07:45:01Z</time>
      </trkpt>
      <trkpt lat="44.68256" lon="4.89542">
        <ele>401.6</ele>
        <time>2014-05-01T07:45:18Z</time>
      </trkpt>
      <trkpt lat="44.68258" lon="4.89548">
        <ele>401.8</ele>
        <time>2014-05-01T07:56:00Z</time>
      </trkpt>
      <trkpt lat="44.68257" lon="4.89562">
        <ele>402.2</ele>
        <time>2014-05-01T07:56:06Z</time>
      </trkpt>
      <trkpt lat="44.68256" lon="4.89572">
        <ele>402.5</ele>
        <time>2014-05-01T07:56:09Z</time>
      </trkpt>
      <trkpt lat="44.68255" lon="4.8958">
        <ele>402.7</ele>
        <time>2014-05-01T07:56:12Z</time>
      </trkpt>
      <trkpt lat="44.68255" lon="4.89588">
        <ele>402.5</ele>
        <time>2014-05-01T07:56:15Z</time>
      </trkpt>
      <trkpt lat="44.68255" lon="4.89597">
        <ele>402</ele>
        <time>2014-05-01T07:56:18Z</time>
      </trkpt>
      <trkpt lat="44.68256" lon="4.89603">
        <ele>401.6</ele>
        <time>2014-05-01T07:56:21Z</time>
      </trkpt>
      <trkpt lat="44.68255" lon="4.89611">
        <ele>401.2</ele>
        <time>2014-05-01T07:56:24Z</time>
      </trkpt>
      <trkpt lat="44.68254" lon="4.89617">
        <ele>400.8</ele>
        <time>2014-05-01T07:56:27Z</time>
      </trkpt>
      <trkpt lat="44.68251" lon="4.89623">
        <ele>400.6</ele>
        <time>2014-05-01T07:56:30Z</time>
      </trkpt>
      <trkpt lat="44.68248" lon="4.8963">
        <ele>400</ele>
        <time>2014-05-01T07:56:33Z</time>
      </trkpt>
      <trkpt lat="44.68245" lon="4.89638">
        <ele>399.1</ele>
        <time>2014-05-01T07:56:36Z</time>
      </trkpt>
      <trkpt lat="44.68242" lon="4.89644">
        <ele>398.7</ele>
        <time>2014-05-01T07:56:38Z</time>
      </trkpt>
      <trkpt lat="44.6824" lon="4.89649">
        <ele>398.1</ele>
        <time>2014-05-01T07:56:40Z</time>
      </trkpt>
      <trkpt lat="44.68238" lon="4.89655">
        <ele>397.6</ele>
        <time>2014-05-01T07:56:42Z</time>
      </trkpt>
      <trkpt lat="44.68235" lon="4.89663">
        <ele>396.9</ele>
        <time>2014-05-01T07:56:45Z</time>
      </trkpt>
      <trkpt lat="44.68234" lon="4.8967">
        <ele>396.5</ele>
        <time>2014-05-01T07:56:47Z</time>
      </trkpt>
      <trkpt lat="44.68232" lon="4.89676">
        <ele>395.9</ele>
        <time>2014-05-01T07:56:49Z</time>
      </trkpt>
      <trkpt lat="44.68231" lon="4.89683">
        <ele>395.4</ele>
        <time>2014-05-01T07:56:51Z</time>
      </trkpt>
      <trkpt lat="44.68231" lon="4.89689">
        <ele>395</ele>
        <time>2014-05-01T07:56:53Z</time>
      </trkpt>
      <trkpt lat="44.68229" lon="4.89698">
        <ele>394.3</ele>
        <time>2014-05-01T07:56:56Z</time>
      </trkpt>
      <trkpt lat="44.68226" lon="4.89706">
        <ele>393.6</ele>
        <time>2014-05-01T07:56:59Z</time>
      </trkpt>
      <trkpt lat="44.68222" lon="4.89713">
        <ele>392.9</ele>
        <time>2014-05-01T07:57:03Z</time>
      </trkpt>
      <trkpt lat="44.68214" lon="4.89722">
        <ele>391.9</ele>
        <time>2014-05-01T07:57:08Z</time>
      </trkpt>
      <trkpt lat="44.68208" lon="4.89727">
        <ele>391.2</ele>
        <time>2014-05-01T07:57:10Z</time>
      </trkpt>
      <trkpt lat="44.68201" lon="4.89734">
        <ele>390.5</ele>
        <time>2014-05-01T07:57:12Z</time>
      </trkpt>
      <trkpt lat="44.68194" lon="4.89741">
        <ele>389.7</ele>
        <time>2014-05-01T07:57:14Z</time>
      </trkpt>
      <trkpt lat="44.6819" lon="4.89746">
        <ele>389.4</ele>
        <time>2014-05-01T07:57:15Z</time>
      </trkpt>
      <trkpt lat="44.68187" lon="4.8975">
        <ele>389</ele>
        <time>2014-05-01T07:57:16Z</time>
      </trkpt>
      <trkpt lat="44.68183" lon="4.89755">
        <ele>388.4</ele>
        <time>2014-05-01T07:57:17Z</time>
      </trkpt>
      <trkpt lat="44.6818" lon="4.8976">
        <ele>387.9</ele>
        <time>2014-05-01T07:57:18Z</time>
      </trkpt>
      <trkpt lat="44.68176" lon="4.89766">
        <ele>387.4</ele>
        <time>2014-05-01T07:57:19Z</time>
      </trkpt>
      <trkpt lat="44.68173" lon="4.89772">
        <ele>386.7</ele>
        <time>2014-05-01T07:57:20Z</time>
      </trkpt>
      <trkpt lat="44.68169" lon="4.89779">
        <ele>386.1</ele>
        <time>2014-05-01T07:57:21Z</time>
      </trkpt>
      <trkpt lat="44.68166" lon="4.89785">
        <ele>385.4</ele>
        <time>2014-05-01T07:57:22Z</time>
      </trkpt>
      <trkpt lat="44.68163" lon="4.89792">
        <ele>384.9</ele>
        <time>2014-05-01T07:57:23Z</time>
      </trkpt>
      <trkpt lat="44.6816" lon="4.89798">
        <ele>384.4</ele>
        <time>2014-05-01T07:57:24Z</time>
      </trkpt>
      <trkpt lat="44.68156" lon="4.89804">
        <ele>383.8</ele>
        <time>2014-05-01T07:57:25Z</time>
      </trkpt>
      <trkpt lat="44.68153" lon="4.8981">
        <ele>383.2</ele>
        <time>2014-05-01T07:57:26Z</time>
      </trkpt>
      <trkpt lat="44.6815" lon="4.89816">
        <ele>382.7</ele>
        <time>2014-05-01T07:57:27Z</time>
      </trkpt>
      <trkpt lat="44.68147" lon="4.89822">
        <ele>382.1</ele>
        <time>2014-05-01T07:57:28Z</time>
      </trkpt>
      <trkpt lat="44.68144" lon="4.89828">
        <ele>381.6</ele>
        <time>2014-05-01T07:57:29Z</time>
      </trkpt>
      <trkpt lat="44.68141" lon="4.89834">
        <ele>381.1</ele>
        <time>2014-05-01T07:57:30Z</time>
      </trkpt>
      <trkpt lat="44.68138" lon="4.8984">
        <ele>380.4</ele>
        <time>2014-05-01T07:57:31Z</time>
      </trkpt>
      <trkpt lat="44.68135" lon="4.89846">
        <ele>379.9</ele>
        <time>2014-05-01T07:57:32Z</time>
      </trkpt>
      <trkpt lat="44.68132" lon="4.89852">
        <ele>379.2</ele>
        <time>2014-05-01T07:57:33Z</time>
      </trkpt>
      <trkpt lat="44.68129" lon="4.89857">
        <ele>378.8</ele>
        <time>2014-05-01T07:57:34Z</time>
      </trkpt>
      <trkpt lat="44.68126" lon="4.89862">
        <ele>378.3</ele>
        <time>2014-05-01T07:57:35Z</time>
      </trkpt>
      <trkpt lat="44.68123" lon="4.89868">
        <ele>377.8</ele>
        <time>2014-05-01T07:57:36Z</time>
      </trkpt>
      <trkpt lat="44.68119" lon="4.89878">
        <ele>377</ele>
        <time>2014-05-01T07:57:38Z</time>
      </trkpt>
      <trkpt lat="44.68114" lon="4.89888">
        <ele>376.3</ele>
        <time>2014-05-01T07:57:40Z</time>
      </trkpt>
      <trkpt lat="44.68109" lon="4.89897">
        <ele>375.8</ele>
        <time>2014-05-01T07:57:42Z</time>
      </trkpt>
      <trkpt lat="44.68104" lon="4.89905">
        <ele>375.2</ele>
        <time>2014-05-01T07:57:44Z</time>
      </trkpt>
      <trkpt lat="44.68098" lon="4.89912">
        <ele>374.9</ele>
        <time>2014-05-01T07:57:46Z</time>
      </trkpt>
      <trkpt lat="44.68093" lon="4.89918">
        <ele>374.7</ele>
        <time>2014-05-01T07:57:48Z</time>
      </trkpt>
      <trkpt lat="44.68087" lon="4.89925">
        <ele>374.4</ele>
        <time>2014-05-01T07:57:50Z</time>
      </trkpt>
      <trkpt lat="44.68081" lon="4.89933">
        <ele>374.3</ele>
        <time>2014-05-01T07:57:52Z</time>
      </trkpt>
      <trkpt lat="44.68077" lon="4.8994">
        <ele>374.4</ele>
        <time>2014-05-01T07:57:54Z</time>
      </trkpt>
      <trkpt lat="44.68073" lon="4.89947">
        <ele>374.6</ele>
        <time>2014-05-01T07:57:56Z</time>
      </trkpt>
      <trkpt lat="44.68069" lon="4.89954">
        <ele>374.7</ele>
        <time>2014-05-01T07:57:58Z</time>
      </trkpt>
      <trkpt lat="44.68064" lon="4.89961">
        <ele>374.9</ele>
        <time>2014-05-01T07:58:00Z</time>
      </trkpt>
      <trkpt lat="44.6806" lon="4.89967">
        <ele>375.1</ele>
        <time>2014-05-01T07:58:02Z</time>
      </trkpt>
      <trkpt lat="44.68056" lon="4.89973">
        <ele>375.4</ele>
        <time>2014-05-01T07:58:04Z</time>
      </trkpt>
      <trkpt lat="44.68048" lon="4.89985">
        <ele>375.8</ele>
        <time>2014-05-01T07:58:08Z</time>
      </trkpt>
      <trkpt lat="44.68044" lon="4.89991">
        <ele>376.2</ele>
        <time>2014-05-01T07:58:10Z</time>
      </trkpt>
      <trkpt lat="44.6804" lon="4.89997">
        <ele>376.5</ele>
        <time>2014-05-01T07:58:12Z</time>
      </trkpt>
      <trkpt lat="44.68036" lon="4.90002">
        <ele>376.8</ele>
        <time>2014-05-01T07:58:14Z</time>
      </trkpt>
      <trkpt lat="44.68032" lon="4.90008">
        <ele>377.3</ele>
        <time>2014-05-01T07:58:16Z</time>
      </trkpt>
      <trkpt lat="44.68028" lon="4.90014">
        <ele>377.8</ele>
        <time>2014-05-01T07:58:18Z</time>
      </trkpt>
      <trkpt lat="44.68024" lon="4.9002">
        <ele>378.2</ele>
        <time>2014-05-01T07:58:20Z</time>
      </trkpt>
      <trkpt lat="44.68019" lon="4.90025">
        <ele>378.7</ele>
        <time>2014-05-01T07:58:22Z</time>
      </trkpt>
      <trkpt lat="44.68015" lon="4.9003">
        <ele>379.2</ele>
        <time>2014-05-01T07:58:24Z</time>
      </trkpt>
      <trkpt lat="44.6801" lon="4.90034">
        <ele>379.7</ele>
        <time>2014-05-01T07:58:26Z</time>
      </trkpt>
      <trkpt lat="44.68006" lon="4.90038">
        <ele>380.3</ele>
        <time>2014-05-01T07:58:28Z</time>
      </trkpt>
      <trkpt lat="44.68001" lon="4.90042">
        <ele>380.9</ele>
        <time>2014-05-01T07:58:30Z</time>
      </trkpt>
      <trkpt lat="44.67996" lon="4.90044">
        <ele>381.5</ele>
        <time>2014-05-01T07:58:32Z</time>
      </trkpt>
      <trkpt lat="44.67991" lon="4.90047">
        <ele>382.2</ele>
        <time>2014-05-01T07:58:34Z</time>
      </trkpt>
      <trkpt lat="44.67987" lon="4.9005">
        <ele>382.9</ele>
        <time>2014-05-01T07:58:36Z</time>
      </trkpt>
      <trkpt lat="44.67982" lon="4.90052">
        <ele>383.6</ele>
        <time>2014-05-01T07:58:38Z</time>
      </trkpt>
      <trkpt lat="44.67977" lon="4.90054">
        <ele>384.1</ele>
        <time>2014-05-01T07:58:40Z</time>
      </trkpt>
      <trkpt lat="44.67973" lon="4.90056">
        <ele>384.6</ele>
        <time>2014-05-01T07:58:42Z</time>
      </trkpt>
      <trkpt lat="44.67968" lon="4.90058">
        <ele>385.3</ele>
        <time>2014-05-01T07:58:44Z</time>
      </trkpt>
      <trkpt lat="44.67963" lon="4.9006">
        <ele>386</ele>
        <time>2014-05-01T07:58:46Z</time>
      </trkpt>
      <trkpt lat="44.67958" lon="4.90062">
        <ele>386.4</ele>
        <time>2014-05-01T07:58:48Z</time>
      </trkpt>
      <trkpt lat="44.67953" lon="4.90065">
        <ele>386.9</ele>
        <time>2014-05-01T07:58:50Z</time>
      </trkpt>
      <trkpt lat="44.67949" lon="4.90068">
        <ele>387.4</ele>
        <time>2014-05-01T07:58:52Z</time>
      </trkpt>
      <trkpt lat="44.67944" lon="4.90072">
        <ele>387.7</ele>
        <time>2014-05-01T07:58:54Z</time>
      </trkpt>
      <trkpt lat="44.67939" lon="4.90075">
        <ele>388.1</ele>
        <time>2014-05-01T07:58:56Z</time>
      </trkpt>
      <trkpt lat="44.67934" lon="4.90079">
        <ele>388.4</ele>
        <time>2014-05-01T07:58:58Z</time>
      </trkpt>
      <trkpt lat="44.67929" lon="4.90083">
        <ele>388.6</ele>
        <time>2014-05-01T07:59:00Z</time>
      </trkpt>
      <trkpt lat="44.67924" lon="4.90088">
        <ele>389</ele>
        <time>2014-05-01T07:59:02Z</time>
      </trkpt>
      <trkpt lat="44.6792" lon="4.90092">
        <ele>389.4</ele>
        <time>2014-05-01T07:59:04Z</time>
      </trkpt>
      <trkpt lat="44.67917" lon="4.90098">
        <ele>389.6</ele>
        <time>2014-05-01T07:59:06Z</time>
      </trkpt>
      <trkpt lat="44.6791" lon="4.90109">
        <ele>390.5</ele>
        <time>2014-05-01T07:59:10Z</time>
      </trkpt>
      <trkpt lat="44.67907" lon="4.90116">
        <ele>390.7</ele>
        <time>2014-05-01T07:59:12Z</time>
      </trkpt>
      <trkpt lat="44.67906" lon="4.90123">
        <ele>390.8</ele>
        <time>2014-05-01T07:59:14Z</time>
      </trkpt>
      <trkpt lat="44.67904" lon="4.9013">
        <ele>390.8</ele>
        <time>2014-05-01T07:59:16Z</time>
      </trkpt>
      <trkpt lat="44.67903" lon="4.90138">
        <ele>390.7</ele>
        <time>2014-05-01T07:59:18Z</time>
      </trkpt>
      <trkpt lat="44.67903" lon="4.90145">
        <ele>390.5</ele>
        <time>2014-05-01T07:59:20Z</time>
      </trkpt>
      <trkpt lat="44.67902" lon="4.90152">
        <ele>390.4</ele>
        <time>2014-05-01T07:59:23Z</time>
      </trkpt>
      <trkpt lat="44.67897" lon="4.9015">
        <ele>391.1</ele>
        <time>2014-05-01T07:59:27Z</time>
      </trkpt>
      <trkpt lat="44.67893" lon="4.90147">
        <ele>391.9</ele>
        <time>2014-05-01T07:59:32Z</time>
      </trkpt>
      <trkpt lat="44.67889" lon="4.90142">
        <ele>392.6</ele>
        <time>2014-05-01T07:59:37Z</time>
      </trkpt>
      <trkpt lat="44.67888" lon="4.90135">
        <ele>393.1</ele>
        <time>2014-05-01T07:59:41Z</time>
      </trkpt>
      <trkpt lat="44.67887" lon="4.90129">
        <ele>393.5</ele>
        <time>2014-05-01T07:59:45Z</time>
      </trkpt>
      <trkpt lat="44.67884" lon="4.90123">
        <ele>394.1</ele>
        <time>2014-05-01T07:59:49Z</time>
      </trkpt>
      <trkpt lat="44.67883" lon="4.90116">
        <ele>394.6</ele>
        <time>2014-05-01T07:59:54Z</time>
      </trkpt>
      <trkpt lat="44.6788" lon="4.9011">
        <ele>395.3</ele>
        <time>2014-05-01T07:59:59Z</time>
      </trkpt>
      <trkpt lat="44.67877" lon="4.90106">
        <ele>396.2</ele>
        <time>2014-05-01T08:00:03Z</time>
      </trkpt>
      <trkpt lat="44.67872" lon="4.90102">
        <ele>397.1</ele>
        <time>2014-05-01T08:00:08Z</time>
      </trkpt>
      <trkpt lat="44.67864" lon="4.90092">
        <ele>399.1</ele>
        <time>2014-05-01T08:00:19Z</time>
      </trkpt>
      <trkpt lat="44.67861" lon="4.90086">
        <ele>399.9</ele>
        <time>2014-05-01T08:00:24Z</time>
      </trkpt>
      <trkpt lat="44.67856" lon="4.90085">
        <ele>400.9</ele>
        <time>2014-05-01T08:00:29Z</time>
      </trkpt>
      <trkpt lat="44.67851" lon="4.90083">
        <ele>402</ele>
        <time>2014-05-01T08:00:36Z</time>
      </trkpt>
      <trkpt lat="44.67846" lon="4.90081">
        <ele>403.1</ele>
        <time>2014-05-01T08:01:19Z</time>
      </trkpt>
      <trkpt lat="44.67716" lon="4.90075">
        <ele>436.2</ele>
        <time>2014-05-01T08:03:27Z</time>
      </trkpt>
      <trkpt lat="44.67711" lon="4.90079">
        <ele>436.4</ele>
        <time>2014-05-01T08:03:28Z</time>
      </trkpt>
      <trkpt lat="44.67705" lon="4.9008">
        <ele>437.2</ele>
        <time>2014-05-01T08:03:30Z</time>
      </trkpt>
      <trkpt lat="44.677" lon="4.90079">
        <ele>438.2</ele>
        <time>2014-05-01T08:03:32Z</time>
      </trkpt>
      <trkpt lat="44.67693" lon="4.9008">
        <ele>439.2</ele>
        <time>2014-05-01T08:03:34Z</time>
      </trkpt>
      <trkpt lat="44.67686" lon="4.90082">
        <ele>439.9</ele>
        <time>2014-05-01T08:03:36Z</time>
      </trkpt>
      <trkpt lat="44.67681" lon="4.90082">
        <ele>440.9</ele>
        <time>2014-05-01T08:03:38Z</time>
      </trkpt>
      <trkpt lat="44.67676" lon="4.90082">
        <ele>441.5</ele>
        <time>2014-05-01T08:03:40Z</time>
      </trkpt>
      <trkpt lat="44.67671" lon="4.90083">
        <ele>442.5</ele>
        <time>2014-05-01T08:03:42Z</time>
      </trkpt>
      <trkpt lat="44.67664" lon="4.90081">
        <ele>443.6</ele>
        <time>2014-05-01T08:03:45Z</time>
      </trkpt>
      <trkpt lat="44.6766" lon="4.90079">
        <ele>444.2</ele>
        <time>2014-05-01T08:03:47Z</time>
      </trkpt>
      <trkpt lat="44.67654" lon="4.90078">
        <ele>445.2</ele>
        <time>2014-05-01T08:03:48Z</time>
      </trkpt>
      <trkpt lat="44.67647" lon="4.90075">
        <ele>446</ele>
        <time>2014-05-01T08:03:50Z</time>
      </trkpt>
      <trkpt lat="44.67641" lon="4.90074">
        <ele>446.8</ele>
        <time>2014-05-01T08:03:52Z</time>
      </trkpt>
      <trkpt lat="44.67636" lon="4.90075">
        <ele>447.3</ele>
        <time>2014-05-01T08:03:55Z</time>
      </trkpt>
      <trkpt lat="44.67629" lon="4.90076">
        <ele>447.9</ele>
        <time>2014-05-01T08:03:58Z</time>
      </trkpt>
      <trkpt lat="44.67624" lon="4.90075">
        <ele>448.6</ele>
        <time>2014-05-01T08:04:01Z</time>
      </trkpt>
      <trkpt lat="44.67619" lon="4.90073">
        <ele>449.4</ele>
        <time>2014-05-01T08:04:04Z</time>
      </trkpt>
      <trkpt lat="44.67613" lon="4.9007">
        <ele>450.1</ele>
        <time>2014-05-01T08:04:07Z</time>
      </trkpt>
      <trkpt lat="44.67609" lon="4.90067">
        <ele>451</ele>
        <time>2014-05-01T08:04:10Z</time>
      </trkpt>
      <trkpt lat="44.67604" lon="4.90065">
        <ele>451.8</ele>
        <time>2014-05-01T08:04:14Z</time>
      </trkpt>
      <trkpt lat="44.67599" lon="4.9006">
        <ele>452.8</ele>
        <time>2014-05-01T08:04:17Z</time>
      </trkpt>
      <trkpt lat="44.67595" lon="4.90053">
        <ele>453.7</ele>
        <time>2014-05-01T08:04:19Z</time>
      </trkpt>
      <trkpt lat="44.6759" lon="4.90049">
        <ele>454.6</ele>
        <time>2014-05-01T08:04:21Z</time>
      </trkpt>
      <trkpt lat="44.67586" lon="4.90047">
        <ele>455.3</ele>
        <time>2014-05-01T08:04:24Z</time>
      </trkpt>
      <trkpt lat="44.67581" lon="4.90044">
        <ele>456</ele>
        <time>2014-05-01T08:04:28Z</time>
      </trkpt>
      <trkpt lat="44.6757" lon="4.90046">
        <ele>456.4</ele>
        <time>2014-05-01T08:04:37Z</time>
      </trkpt>
      <trkpt lat="44.67564" lon="4.90046">
        <ele>456.7</ele>
        <time>2014-05-01T08:04:41Z</time>
      </trkpt>
      <trkpt lat="44.67559" lon="4.90047">
        <ele>457</ele>
        <time>2014-05-01T08:04:45Z</time>
      </trkpt>
      <trkpt lat="44.67553" lon="4.90046">
        <ele>457.3</ele>
        <time>2014-05-01T08:04:49Z</time>
      </trkpt>
      <trkpt lat="44.67547" lon="4.90046">
        <ele>457.6</ele>
        <time>2014-05-01T08:04:52Z</time>
      </trkpt>
      <trkpt lat="44.67543" lon="4.90044">
        <ele>458</ele>
        <time>2014-05-01T08:04:55Z</time>
      </trkpt>
      <trkpt lat="44.67538" lon="4.90042">
        <ele>458.4</ele>
        <time>2014-05-01T08:04:59Z</time>
      </trkpt>
      <trkpt lat="44.67534" lon="4.90038">
        <ele>459</ele>
        <time>2014-05-01T08:05:03Z</time>
      </trkpt>
      <trkpt lat="44.6753" lon="4.90034">
        <ele>459.6</ele>
        <time>2014-05-01T08:05:07Z</time>
      </trkpt>
      <trkpt lat="44.67525" lon="4.90029">
        <ele>460.3</ele>
        <time>2014-05-01T08:05:11Z</time>
      </trkpt>
      <trkpt lat="44.67521" lon="4.90025">
        <ele>460.9</ele>
        <time>2014-05-01T08:05:15Z</time>
      </trkpt>
      <trkpt lat="44.67516" lon="4.90021">
        <ele>461.4</ele>
        <time>2014-05-01T08:05:19Z</time>
      </trkpt>
      <trkpt lat="44.67513" lon="4.90013">
        <ele>462.2</ele>
        <time>2014-05-01T08:05:23Z</time>
      </trkpt>
      <trkpt lat="44.67512" lon="4.90006">
        <ele>463</ele>
        <time>2014-05-01T08:05:27Z</time>
      </trkpt>
      <trkpt lat="44.67509" lon="4.90001">
        <ele>463.6</ele>
        <time>2014-05-01T08:05:31Z</time>
      </trkpt>
      <trkpt lat="44.67509" lon="4.89987">
        <ele>465</ele>
        <time>2014-05-01T08:05:39Z</time>
      </trkpt>
      <trkpt lat="44.67509" lon="4.8998">
        <ele>465.9</ele>
        <time>2014-05-01T08:05:44Z</time>
      </trkpt>
      <trkpt lat="44.67509" lon="4.89972">
        <ele>466.8</ele>
        <time>2014-05-01T08:05:49Z</time>
      </trkpt>
      <trkpt lat="44.6751" lon="4.89966">
        <ele>467.5</ele>
        <time>2014-05-01T08:05:53Z</time>
      </trkpt>
      <trkpt lat="44.6751" lon="4.89959">
        <ele>468.2</ele>
        <time>2014-05-01T08:05:57Z</time>
      </trkpt>
      <trkpt lat="44.67512" lon="4.89952">
        <ele>468.9</ele>
        <time>2014-05-01T08:06:01Z</time>
      </trkpt>
      <trkpt lat="44.67511" lon="4.89945">
        <ele>469.8</ele>
        <time>2014-05-01T08:06:05Z</time>
      </trkpt>
      <trkpt lat="44.6751" lon="4.89938">
        <ele>470.5</ele>
        <time>2014-05-01T08:06:09Z</time>
      </trkpt>
      <trkpt lat="44.67508" lon="4.8993">
        <ele>471.5</ele>
        <time>2014-05-01T08:06:13Z</time>
      </trkpt>
      <trkpt lat="44.67505" lon="4.89924">
        <ele>472.2</ele>
        <time>2014-05-01T08:06:16Z</time>
      </trkpt>
      <trkpt lat="44.67503" lon="4.89917">
        <ele>473</ele>
        <time>2014-05-01T08:06:19Z</time>
      </trkpt>
      <trkpt lat="44.675" lon="4.8991">
        <ele>473</ele>
        <time>2014-05-01T08:06:22Z</time>
      </trkpt>
      <trkpt lat="44.67497" lon="4.89904">
        <ele>472.9</ele>
        <time>2014-05-01T08:06:25Z</time>
      </trkpt>
      <trkpt lat="44.67494" lon="4.89898">
        <ele>472.8</ele>
        <time>2014-05-01T08:06:28Z</time>
      </trkpt>
      <trkpt lat="44.67492" lon="4.89891">
        <ele>472.8</ele>
        <time>2014-05-01T08:06:31Z</time>
      </trkpt>
      <trkpt lat="44.67489" lon="4.89883">
        <ele>472.8</ele>
        <time>2014-05-01T08:06:34Z</time>
      </trkpt>
      <trkpt lat="44.67485" lon="4.89867">
        <ele>472.8</ele>
        <time>2014-05-01T08:06:40Z</time>
      </trkpt>
      <trkpt lat="44.67484" lon="4.8986">
        <ele>472.8</ele>
        <time>2014-05-01T08:06:43Z</time>
      </trkpt>
      <trkpt lat="44.67482" lon="4.89853">
        <ele>472.9</ele>
        <time>2014-05-01T08:06:46Z</time>
      </trkpt>
      <trkpt lat="44.67481" lon="4.89845">
        <ele>472.9</ele>
        <time>2014-05-01T08:06:49Z</time>
      </trkpt>
      <trkpt lat="44.67481" lon="4.89838">
        <ele>473</ele>
        <time>2014-05-01T08:06:52Z</time>
      </trkpt>
      <trkpt lat="44.6748" lon="4.8983">
        <ele>473.2</ele>
        <time>2014-05-01T08:06:55Z</time>
      </trkpt>
      <trkpt lat="44.67479" lon="4.89823">
        <ele>473.4</ele>
        <time>2014-05-01T08:06:57Z</time>
      </trkpt>
      <trkpt lat="44.67478" lon="4.89815">
        <ele>473.8</ele>
        <time>2014-05-01T08:07:00Z</time>
      </trkpt>
      <trkpt lat="44.67477" lon="4.89806">
        <ele>474.1</ele>
        <time>2014-05-01T08:07:03Z</time>
      </trkpt>
      <trkpt lat="44.67476" lon="4.89799">
        <ele>474.3</ele>
        <time>2014-05-01T08:07:05Z</time>
      </trkpt>
      <trkpt lat="44.67474" lon="4.89793">
        <ele>474.6</ele>
        <time>2014-05-01T08:07:07Z</time>
      </trkpt>
      <trkpt lat="44.67473" lon="4.89785">
        <ele>475</ele>
        <time>2014-05-01T08:07:10Z</time>
      </trkpt>
      <trkpt lat="44.67472" lon="4.89776">
        <ele>475.3</ele>
        <time>2014-05-01T08:07:13Z</time>
      </trkpt>
      <trkpt lat="44.67471" lon="4.89767">
        <ele>475.7</ele>
        <time>2014-05-01T08:07:16Z</time>
      </trkpt>
      <trkpt lat="44.67471" lon="4.89761">
        <ele>475.9</ele>
        <time>2014-05-01T08:07:18Z</time>
      </trkpt>
      <trkpt lat="44.6747" lon="4.89753">
        <ele>476.3</ele>
        <time>2014-05-01T08:07:20Z</time>
      </trkpt>
      <trkpt lat="44.67469" lon="4.89746">
        <ele>476.6</ele>
        <time>2014-05-01T08:07:22Z</time>
      </trkpt>
      <trkpt lat="44.67468" lon="4.89739">
        <ele>477</ele>
        <time>2014-05-01T08:07:24Z</time>
      </trkpt>
      <trkpt lat="44.67467" lon="4.89732">
        <ele>477.4</ele>
        <time>2014-05-01T08:07:26Z</time>
      </trkpt>
      <trkpt lat="44.67466" lon="4.89725">
        <ele>477.7</ele>
        <time>2014-05-01T08:07:28Z</time>
      </trkpt>
      <trkpt lat="44.67465" lon="4.89719">
        <ele>478</ele>
        <time>2014-05-01T08:07:30Z</time>
      </trkpt>
      <trkpt lat="44.67463" lon="4.89712">
        <ele>478.4</ele>
        <time>2014-05-01T08:07:32Z</time>
      </trkpt>
      <trkpt lat="44.67463" lon="4.89705">
        <ele>478.8</ele>
        <time>2014-05-01T08:07:34Z</time>
      </trkpt>
      <trkpt lat="44.67462" lon="4.89698">
        <ele>479.1</ele>
        <time>2014-05-01T08:07:36Z</time>
      </trkpt>
      <trkpt lat="44.6746" lon="4.89684">
        <ele>479.7</ele>
        <time>2014-05-01T08:07:40Z</time>
      </trkpt>
      <trkpt lat="44.67459" lon="4.89677">
        <ele>480</ele>
        <time>2014-05-01T08:07:42Z</time>
      </trkpt>
      <trkpt lat="44.67458" lon="4.8967">
        <ele>480.4</ele>
        <time>2014-05-01T08:07:44Z</time>
      </trkpt>
      <trkpt lat="44.67457" lon="4.89662">
        <ele>480.3</ele>
        <time>2014-05-01T08:07:46Z</time>
      </trkpt>
      <trkpt lat="44.67456" lon="4.89654">
        <ele>480</ele>
        <time>2014-05-01T08:07:48Z</time>
      </trkpt>
      <trkpt lat="44.67455" lon="4.89647">
        <ele>479.8</ele>
        <time>2014-05-01T08:07:50Z</time>
      </trkpt>
      <trkpt lat="44.67454" lon="4.89638">
        <ele>479.5</ele>
        <time>2014-05-01T08:07:52Z</time>
      </trkpt>
      <trkpt lat="44.67454" lon="4.8963">
        <ele>479.3</ele>
        <time>2014-05-01T08:07:54Z</time>
      </trkpt>
      <trkpt lat="44.67454" lon="4.89621">
        <ele>479</ele>
        <time>2014-05-01T08:07:56Z</time>
      </trkpt>
      <trkpt lat="44.67454" lon="4.89612">
        <ele>478.7</ele>
        <time>2014-05-01T08:07:58Z</time>
      </trkpt>
      <trkpt lat="44.67454" lon="4.89601">
        <ele>478.4</ele>
        <time>2014-05-01T08:08:00Z</time>
      </trkpt>
      <trkpt lat="44.67454" lon="4.89589">
        <ele>478</ele>
        <time>2014-05-01T08:08:02Z</time>
      </trkpt>
      <trkpt lat="44.67453" lon="4.89582">
        <ele>477.7</ele>
        <time>2014-05-01T08:08:03Z</time>
      </trkpt>
      <trkpt lat="44.67453" lon="4.89575">
        <ele>477</ele>
        <time>2014-05-01T08:08:04Z</time>
      </trkpt>
      <trkpt lat="44.67452" lon="4.89563">
        <ele>475.5</ele>
        <time>2014-05-01T08:08:06Z</time>
      </trkpt>
      <trkpt lat="44.67452" lon="4.89556">
        <ele>474.8</ele>
        <time>2014-05-01T08:08:07Z</time>
      </trkpt>
      <trkpt lat="44.67451" lon="4.89549">
        <ele>473.9</ele>
        <time>2014-05-01T08:08:08Z</time>
      </trkpt>
      <trkpt lat="44.6745" lon="4.89542">
        <ele>473.1</ele>
        <time>2014-05-01T08:08:09Z</time>
      </trkpt>
      <trkpt lat="44.67449" lon="4.89535">
        <ele>472.3</ele>
        <time>2014-05-01T08:08:10Z</time>
      </trkpt>
      <trkpt lat="44.67447" lon="4.89529">
        <ele>471.6</ele>
        <time>2014-05-01T08:08:11Z</time>
      </trkpt>
      <trkpt lat="44.67444" lon="4.89522">
        <ele>470.7</ele>
        <time>2014-05-01T08:08:12Z</time>
      </trkpt>
      <trkpt lat="44.67442" lon="4.89514">
        <ele>469.8</ele>
        <time>2014-05-01T08:08:13Z</time>
      </trkpt>
      <trkpt lat="44.6744" lon="4.89506">
        <ele>468.9</ele>
        <time>2014-05-01T08:08:14Z</time>
      </trkpt>
      <trkpt lat="44.67438" lon="4.89497">
        <ele>468</ele>
        <time>2014-05-01T08:08:15Z</time>
      </trkpt>
      <trkpt lat="44.67437" lon="4.89488">
        <ele>467</ele>
        <time>2014-05-01T08:08:16Z</time>
      </trkpt>
      <trkpt lat="44.67436" lon="4.89478">
        <ele>466.1</ele>
        <time>2014-05-01T08:08:17Z</time>
      </trkpt>
      <trkpt lat="44.67436" lon="4.89469">
        <ele>465.2</ele>
        <time>2014-05-01T08:08:18Z</time>
      </trkpt>
      <trkpt lat="44.67438" lon="4.89459">
        <ele>464.1</ele>
        <time>2014-05-01T08:08:19Z</time>
      </trkpt>
      <trkpt lat="44.6744" lon="4.89449">
        <ele>463.2</ele>
        <time>2014-05-01T08:08:20Z</time>
      </trkpt>
      <trkpt lat="44.67443" lon="4.8944">
        <ele>462.2</ele>
        <time>2014-05-01T08:08:21Z</time>
      </trkpt>
      <trkpt lat="44.67445" lon="4.89433">
        <ele>461.3</ele>
        <time>2014-05-01T08:08:22Z</time>
      </trkpt>
      <trkpt lat="44.67448" lon="4.89427">
        <ele>460.5</ele>
        <time>2014-05-01T08:08:23Z</time>
      </trkpt>
      <trkpt lat="44.67451" lon="4.89421">
        <ele>459.8</ele>
        <time>2014-05-01T08:08:24Z</time>
      </trkpt>
      <trkpt lat="44.67455" lon="4.89417">
        <ele>459.2</ele>
        <time>2014-05-01T08:08:25Z</time>
      </trkpt>
      <trkpt lat="44.67459" lon="4.89412">
        <ele>458.6</ele>
        <time>2014-05-01T08:08:26Z</time>
      </trkpt>
      <trkpt lat="44.67463" lon="4.89408">
        <ele>458.1</ele>
        <time>2014-05-01T08:08:27Z</time>
      </trkpt>
      <trkpt lat="44.67467" lon="4.89404">
        <ele>457.6</ele>
        <time>2014-05-01T08:08:28Z</time>
      </trkpt>
      <trkpt lat="44.67471" lon="4.89399">
        <ele>456.9</ele>
        <time>2014-05-01T08:08:29Z</time>
      </trkpt>
      <trkpt lat="44.67475" lon="4.89393">
        <ele>456.3</ele>
        <time>2014-05-01T08:08:30Z</time>
      </trkpt>
      <trkpt lat="44.67478" lon="4.89387">
        <ele>455.5</ele>
        <time>2014-05-01T08:08:31Z</time>
      </trkpt>
      <trkpt lat="44.67482" lon="4.89382">
        <ele>454.9</ele>
        <time>2014-05-01T08:08:32Z</time>
      </trkpt>
      <trkpt lat="44.67485" lon="4.89376">
        <ele>454.2</ele>
        <time>2014-05-01T08:08:33Z</time>
      </trkpt>
      <trkpt lat="44.67489" lon="4.89371">
        <ele>453.4</ele>
        <time>2014-05-01T08:08:34Z</time>
      </trkpt>
      <trkpt lat="44.67492" lon="4.89365">
        <ele>452.6</ele>
        <time>2014-05-01T08:08:35Z</time>
      </trkpt>
      <trkpt lat="44.67496" lon="4.8936">
        <ele>451.8</ele>
        <time>2014-05-01T08:08:36Z</time>
      </trkpt>
      <trkpt lat="44.675" lon="4.89355">
        <ele>451</ele>
        <time>2014-05-01T08:08:37Z</time>
      </trkpt>
      <trkpt lat="44.67507" lon="4.89346">
        <ele>449.3</ele>
        <time>2014-05-01T08:08:39Z</time>
      </trkpt>
      <trkpt lat="44.67514" lon="4.89338">
        <ele>447.4</ele>
        <time>2014-05-01T08:08:41Z</time>
      </trkpt>
      <trkpt lat="44.67517" lon="4.89333">
        <ele>446.4</ele>
        <time>2014-05-01T08:08:42Z</time>
      </trkpt>
      <trkpt lat="44.67518" lon="4.89321">
        <ele>445.3</ele>
        <time>2014-05-01T08:08:44Z</time>
      </trkpt>
      <trkpt lat="44.67515" lon="4.89309">
        <ele>444.7</ele>
        <time>2014-05-01T08:08:46Z</time>
      </trkpt>
      <trkpt lat="44.67512" lon="4.89303">
        <ele>444.5</ele>
        <time>2014-05-01T08:08:47Z</time>
      </trkpt>
      <trkpt lat="44.67509" lon="4.89296">
        <ele>444.5</ele>
        <time>2014-05-01T08:08:48Z</time>
      </trkpt>
      <trkpt lat="44.67505" lon="4.89291">
        <ele>444.6</ele>
        <time>2014-05-01T08:08:49Z</time>
      </trkpt>
      <trkpt lat="44.67501" lon="4.89285">
        <ele>444.8</ele>
        <time>2014-05-01T08:08:50Z</time>
      </trkpt>
      <trkpt lat="44.67496" lon="4.8928">
        <ele>444.8</ele>
        <time>2014-05-01T08:08:51Z</time>
      </trkpt>
      <trkpt lat="44.67492" lon="4.89276">
        <ele>444.8</ele>
        <time>2014-05-01T08:08:52Z</time>
      </trkpt>
      <trkpt lat="44.67487" lon="4.89272">
        <ele>444.9</ele>
        <time>2014-05-01T08:08:53Z</time>
      </trkpt>
      <trkpt lat="44.67481" lon="4.89268">
        <ele>444.8</ele>
        <time>2014-05-01T08:08:54Z</time>
      </trkpt>
      <trkpt lat="44.67476" lon="4.89264">
        <ele>444.9</ele>
        <time>2014-05-01T08:08:55Z</time>
      </trkpt>
      <trkpt lat="44.6747" lon="4.8926">
        <ele>445</ele>
        <time>2014-05-01T08:08:56Z</time>
      </trkpt>
      <trkpt lat="44.67464" lon="4.89255">
        <ele>445.1</ele>
        <time>2014-05-01T08:08:57Z</time>
      </trkpt>
      <trkpt lat="44.67458" lon="4.89252">
        <ele>445.1</ele>
        <time>2014-05-01T08:08:58Z</time>
      </trkpt>
      <trkpt lat="44.67452" lon="4.89247">
        <ele>445.2</ele>
        <time>2014-05-01T08:08:59Z</time>
      </trkpt>
      <trkpt lat="44.67446" lon="4.89242">
        <ele>445</ele>
        <time>2014-05-01T08:09:00Z</time>
      </trkpt>
      <trkpt lat="44.67439" lon="4.89237">
        <ele>444.9</ele>
        <time>2014-05-01T08:09:01Z</time>
      </trkpt>
      <trkpt lat="44.67432" lon="4.89234">
        <ele>444.9</ele>
        <time>2014-05-01T08:09:02Z</time>
      </trkpt>
      <trkpt lat="44.67426" lon="4.89232">
        <ele>445.2</ele>
        <time>2014-05-01T08:09:03Z</time>
      </trkpt>
      <trkpt lat="44.6742" lon="4.89231">
        <ele>445.5</ele>
        <time>2014-05-01T08:09:04Z</time>
      </trkpt>
      <trkpt lat="44.67413" lon="4.8923">
        <ele>445.5</ele>
        <time>2014-05-01T08:09:05Z</time>
      </trkpt>
      <trkpt lat="44.67407" lon="4.89229">
        <ele>445.4</ele>
        <time>2014-05-01T08:09:06Z</time>
      </trkpt>
      <trkpt lat="44.67401" lon="4.89227">
        <ele>445</ele>
        <time>2014-05-01T08:09:07Z</time>
      </trkpt>
      <trkpt lat="44.67395" lon="4.89222">
        <ele>444.3</ele>
        <time>2014-05-01T08:09:08Z</time>
      </trkpt>
      <trkpt lat="44.67391" lon="4.89217">
        <ele>443.6</ele>
        <time>2014-05-01T08:09:09Z</time>
      </trkpt>
      <trkpt lat="44.67386" lon="4.89211">
        <ele>442.8</ele>
        <time>2014-05-01T08:09:10Z</time>
      </trkpt>
      <trkpt lat="44.67381" lon="4.89205">
        <ele>442.1</ele>
        <time>2014-05-01T08:09:11Z</time>
      </trkpt>
      <trkpt lat="44.67376" lon="4.892">
        <ele>441.4</ele>
        <time>2014-05-01T08:09:12Z</time>
      </trkpt>
      <trkpt lat="44.67371" lon="4.89195">
        <ele>440.7</ele>
        <time>2014-05-01T08:09:13Z</time>
      </trkpt>
      <trkpt lat="44.67365" lon="4.8919">
        <ele>440.2</ele>
        <time>2014-05-01T08:09:14Z</time>
      </trkpt>
      <trkpt lat="44.67358" lon="4.89187">
        <ele>439.6</ele>
        <time>2014-05-01T08:09:15Z</time>
      </trkpt>
      <trkpt lat="44.67352" lon="4.89184">
        <ele>439.3</ele>
        <time>2014-05-01T08:09:16Z</time>
      </trkpt>
      <trkpt lat="44.67346" lon="4.89182">
        <ele>438.9</ele>
        <time>2014-05-01T08:09:17Z</time>
      </trkpt>
      <trkpt lat="44.6734" lon="4.89181">
        <ele>438.8</ele>
        <time>2014-05-01T08:09:18Z</time>
      </trkpt>
      <trkpt lat="44.67334" lon="4.8918">
        <ele>438.6</ele>
        <time>2014-05-01T08:09:19Z</time>
      </trkpt>
      <trkpt lat="44.67328" lon="4.89179">
        <ele>438.1</ele>
        <time>2014-05-01T08:09:20Z</time>
      </trkpt>
      <trkpt lat="44.67321" lon="4.89177">
        <ele>437.5</ele>
        <time>2014-05-01T08:09:21Z</time>
      </trkpt>
      <trkpt lat="44.67313" lon="4.89175">
        <ele>436.8</ele>
        <time>2014-05-01T08:09:22Z</time>
      </trkpt>
      <trkpt lat="44.67306" lon="4.89173">
        <ele>436</ele>
        <time>2014-05-01T08:09:23Z</time>
      </trkpt>
      <trkpt lat="44.67298" lon="4.89169">
        <ele>435.2</ele>
        <time>2014-05-01T08:09:24Z</time>
      </trkpt>
      <trkpt lat="44.6729" lon="4.89166">
        <ele>434.3</ele>
        <time>2014-05-01T08:09:25Z</time>
      </trkpt>
      <trkpt lat="44.67282" lon="4.89162">
        <ele>433.5</ele>
        <time>2014-05-01T08:09:26Z</time>
      </trkpt>
      <trkpt lat="44.67275" lon="4.89157">
        <ele>432.7</ele>
        <time>2014-05-01T08:09:27Z</time>
      </trkpt>
      <trkpt lat="44.6727" lon="4.89152">
        <ele>432.1</ele>
        <time>2014-05-01T08:09:28Z</time>
      </trkpt>
      <trkpt lat="44.67266" lon="4.89147">
        <ele>431.5</ele>
        <time>2014-05-01T08:09:29Z</time>
      </trkpt>
      <trkpt lat="44.67261" lon="4.89141">
        <ele>430.7</ele>
        <time>2014-05-01T08:09:31Z</time>
      </trkpt>
      <trkpt lat="44.67256" lon="4.89139">
        <ele>430.3</ele>
        <time>2014-05-01T08:09:33Z</time>
      </trkpt>
      <trkpt lat="44.67251" lon="4.89136">
        <ele>429.8</ele>
        <time>2014-05-01T08:09:35Z</time>
      </trkpt>
      <trkpt lat="44.67246" lon="4.89132">
        <ele>429.5</ele>
        <time>2014-05-01T08:09:37Z</time>
      </trkpt>
      <trkpt lat="44.67241" lon="4.89128">
        <ele>429.3</ele>
        <time>2014-05-01T08:09:39Z</time>
      </trkpt>
      <trkpt lat="44.67232" lon="4.89119">
        <ele>428.8</ele>
        <time>2014-05-01T08:09:43Z</time>
      </trkpt>
      <trkpt lat="44.67229" lon="4.89115">
        <ele>428.7</ele>
        <time>2014-05-01T08:09:45Z</time>
      </trkpt>
      <trkpt lat="44.67225" lon="4.89109">
        <ele>428.4</ele>
        <time>2014-05-01T08:09:47Z</time>
      </trkpt>
      <trkpt lat="44.67222" lon="4.89103">
        <ele>428.3</ele>
        <time>2014-05-01T08:09:49Z</time>
      </trkpt>
      <trkpt lat="44.67218" lon="4.89097">
        <ele>428.1</ele>
        <time>2014-05-01T08:09:51Z</time>
      </trkpt>
      <trkpt lat="44.67215" lon="4.89092">
        <ele>428</ele>
        <time>2014-05-01T08:09:53Z</time>
      </trkpt>
      <trkpt lat="44.67212" lon="4.89087">
        <ele>427.9</ele>
        <time>2014-05-01T08:09:55Z</time>
      </trkpt>
      <trkpt lat="44.67209" lon="4.89081">
        <ele>427.9</ele>
        <time>2014-05-01T08:09:57Z</time>
      </trkpt>
      <trkpt lat="44.67206" lon="4.89075">
        <ele>427.8</ele>
        <time>2014-05-01T08:09:59Z</time>
      </trkpt>
      <trkpt lat="44.67203" lon="4.89069">
        <ele>427.7</ele>
        <time>2014-05-01T08:10:01Z</time>
      </trkpt>
      <trkpt lat="44.67199" lon="4.89065">
        <ele>427.8</ele>
        <time>2014-05-01T08:10:03Z</time>
      </trkpt>
      <trkpt lat="44.67196" lon="4.89059">
        <ele>427.9</ele>
        <time>2014-05-01T08:10:05Z</time>
      </trkpt>
      <trkpt lat="44.67193" lon="4.89054">
        <ele>428</ele>
        <time>2014-05-01T08:10:07Z</time>
      </trkpt>
      <trkpt lat="44.6719" lon="4.89047">
        <ele>428</ele>
        <time>2014-05-01T08:10:09Z</time>
      </trkpt>
      <trkpt lat="44.67187" lon="4.89041">
        <ele>428.1</ele>
        <time>2014-05-01T08:10:11Z</time>
      </trkpt>
      <trkpt lat="44.67185" lon="4.89034">
        <ele>428.2</ele>
        <time>2014-05-01T08:10:13Z</time>
      </trkpt>
      <trkpt lat="44.67183" lon="4.89026">
        <ele>428.3</ele>
        <time>2014-05-01T08:10:15Z</time>
      </trkpt>
      <trkpt lat="44.6718" lon="4.89018">
        <ele>428.4</ele>
        <time>2014-05-01T08:10:17Z</time>
      </trkpt>
      <trkpt lat="44.67178" lon="4.8901">
        <ele>428.6</ele>
        <time>2014-05-01T08:10:19Z</time>
      </trkpt>
      <trkpt lat="44.67177" lon="4.89002">
        <ele>428.7</ele>
        <time>2014-05-01T08:10:21Z</time>
      </trkpt>
      <trkpt lat="44.67175" lon="4.88994">
        <ele>428.6</ele>
        <time>2014-05-01T08:10:23Z</time>
      </trkpt>
      <trkpt lat="44.67174" lon="4.88985">
        <ele>428.3</ele>
        <time>2014-05-01T08:10:25Z</time>
      </trkpt>
      <trkpt lat="44.67172" lon="4.88977">
        <ele>428.1</ele>
        <time>2014-05-01T08:10:27Z</time>
      </trkpt>
      <trkpt lat="44.67171" lon="4.88968">
        <ele>427.9</ele>
        <time>2014-05-01T08:10:29Z</time>
      </trkpt>
      <trkpt lat="44.67169" lon="4.8896">
        <ele>427.7</ele>
        <time>2014-05-01T08:10:31Z</time>
      </trkpt>
      <trkpt lat="44.67167" lon="4.88951">
        <ele>427.6</ele>
        <time>2014-05-01T08:10:33Z</time>
      </trkpt>
      <trkpt lat="44.67166" lon="4.88943">
        <ele>427.3</ele>
        <time>2014-05-01T08:10:35Z</time>
      </trkpt>
      <trkpt lat="44.67165" lon="4.88935">
        <ele>426.9</ele>
        <time>2014-05-01T08:10:37Z</time>
      </trkpt>
      <trkpt lat="44.67163" lon="4.88927">
        <ele>426.7</ele>
        <time>2014-05-01T08:10:39Z</time>
      </trkpt>
      <trkpt lat="44.67162" lon="4.88919">
        <ele>426.5</ele>
        <time>2014-05-01T08:10:41Z</time>
      </trkpt>
      <trkpt lat="44.67159" lon="4.88904">
        <ele>427.3</ele>
        <time>2014-05-01T08:10:45Z</time>
      </trkpt>
      <trkpt lat="44.67157" lon="4.88897">
        <ele>427.8</ele>
        <time>2014-05-01T08:10:47Z</time>
      </trkpt>
      <trkpt lat="44.67155" lon="4.88889">
        <ele>428.2</ele>
        <time>2014-05-01T08:10:49Z</time>
      </trkpt>
      <trkpt lat="44.67154" lon="4.88882">
        <ele>428.8</ele>
        <time>2014-05-01T08:10:51Z</time>
      </trkpt>
      <trkpt lat="44.67152" lon="4.88874">
        <ele>429.3</ele>
        <time>2014-05-01T08:10:53Z</time>
      </trkpt>
      <trkpt lat="44.67151" lon="4.88867">
        <ele>429.8</ele>
        <time>2014-05-01T08:10:55Z</time>
      </trkpt>
      <trkpt lat="44.67149" lon="4.88859">
        <ele>430.3</ele>
        <time>2014-05-01T08:10:57Z</time>
      </trkpt>
      <trkpt lat="44.67147" lon="4.88852">
        <ele>430.8</ele>
        <time>2014-05-01T08:10:59Z</time>
      </trkpt>
      <trkpt lat="44.67145" lon="4.88846">
        <ele>431.2</ele>
        <time>2014-05-01T08:11:01Z</time>
      </trkpt>
      <trkpt lat="44.67144" lon="4.88839">
        <ele>431.7</ele>
        <time>2014-05-01T08:11:03Z</time>
      </trkpt>
      <trkpt lat="44.67142" lon="4.88832">
        <ele>432.3</ele>
        <time>2014-05-01T08:11:05Z</time>
      </trkpt>
      <trkpt lat="44.67141" lon="4.88825">
        <ele>433.1</ele>
        <time>2014-05-01T08:11:07Z</time>
      </trkpt>
      <trkpt lat="44.67139" lon="4.88818">
        <ele>433.9</ele>
        <time>2014-05-01T08:11:09Z</time>
      </trkpt>
      <trkpt lat="44.67138" lon="4.88812">
        <ele>434.7</ele>
        <time>2014-05-01T08:11:11Z</time>
      </trkpt>
      <trkpt lat="44.67137" lon="4.88805">
        <ele>435.4</ele>
        <time>2014-05-01T08:11:13Z</time>
      </trkpt>
      <trkpt lat="44.67136" lon="4.88796">
        <ele>436.4</ele>
        <time>2014-05-01T08:11:16Z</time>
      </trkpt>
      <trkpt lat="44.67135" lon="4.8879">
        <ele>437.1</ele>
        <time>2014-05-01T08:11:18Z</time>
      </trkpt>
      <trkpt lat="44.67134" lon="4.88784">
        <ele>437.7</ele>
        <time>2014-05-01T08:11:20Z</time>
      </trkpt>
      <trkpt lat="44.67132" lon="4.88775">
        <ele>438.6</ele>
        <time>2014-05-01T08:11:23Z</time>
      </trkpt>
      <trkpt lat="44.6713" lon="4.88767">
        <ele>439.5</ele>
        <time>2014-05-01T08:11:26Z</time>
      </trkpt>
      <trkpt lat="44.67129" lon="4.88759">
        <ele>440.3</ele>
        <time>2014-05-01T08:11:29Z</time>
      </trkpt>
      <trkpt lat="44.67127" lon="4.88751">
        <ele>440.9</ele>
        <time>2014-05-01T08:11:32Z</time>
      </trkpt>
      <trkpt lat="44.67126" lon="4.88744">
        <ele>441.5</ele>
        <time>2014-05-01T08:11:35Z</time>
      </trkpt>
      <trkpt lat="44.67126" lon="4.88737">
        <ele>442.2</ele>
        <time>2014-05-01T08:11:38Z</time>
      </trkpt>
      <trkpt lat="44.67126" lon="4.8873">
        <ele>442.8</ele>
        <time>2014-05-01T08:11:41Z</time>
      </trkpt>
      <trkpt lat="44.67127" lon="4.88724">
        <ele>443.3</ele>
        <time>2014-05-01T08:11:44Z</time>
      </trkpt>
      <trkpt lat="44.67132" lon="4.8871">
        <ele>444.4</ele>
        <time>2014-05-01T08:11:50Z</time>
      </trkpt>
      <trkpt lat="44.67135" lon="4.88704">
        <ele>444.9</ele>
        <time>2014-05-01T08:11:53Z</time>
      </trkpt>
      <trkpt lat="44.67139" lon="4.88699">
        <ele>445.4</ele>
        <time>2014-05-01T08:11:56Z</time>
      </trkpt>
      <trkpt lat="44.67143" lon="4.88694">
        <ele>445.8</ele>
        <time>2014-05-01T08:11:59Z</time>
      </trkpt>
      <trkpt lat="44.67147" lon="4.88688">
        <ele>446.2</ele>
        <time>2014-05-01T08:12:02Z</time>
      </trkpt>
      <trkpt lat="44.67151" lon="4.88683">
        <ele>446.7</ele>
        <time>2014-05-01T08:12:05Z</time>
      </trkpt>
      <trkpt lat="44.67155" lon="4.88678">
        <ele>447.1</ele>
        <time>2014-05-01T08:12:08Z</time>
      </trkpt>
      <trkpt lat="44.67158" lon="4.88671">
        <ele>447.7</ele>
        <time>2014-05-01T08:12:11Z</time>
      </trkpt>
      <trkpt lat="44.67162" lon="4.88666">
        <ele>448.1</ele>
        <time>2014-05-01T08:12:14Z</time>
      </trkpt>
      <trkpt lat="44.67167" lon="4.88662">
        <ele>448.4</ele>
        <time>2014-05-01T08:12:17Z</time>
      </trkpt>
      <trkpt lat="44.67171" lon="4.88657">
        <ele>448.4</ele>
        <time>2014-05-01T08:12:20Z</time>
      </trkpt>
      <trkpt lat="44.67176" lon="4.88652">
        <ele>448.5</ele>
        <time>2014-05-01T08:12:23Z</time>
      </trkpt>
      <trkpt lat="44.67181" lon="4.88646">
        <ele>448.5</ele>
        <time>2014-05-01T08:12:26Z</time>
      </trkpt>
      <trkpt lat="44.67185" lon="4.88642">
        <ele>448.5</ele>
        <time>2014-05-01T08:12:28Z</time>
      </trkpt>
      <trkpt lat="44.67188" lon="4.88638">
        <ele>448.5</ele>
        <time>2014-05-01T08:12:30Z</time>
      </trkpt>
      <trkpt lat="44.67192" lon="4.88632">
        <ele>448.8</ele>
        <time>2014-05-01T08:12:33Z</time>
      </trkpt>
      <trkpt lat="44.67196" lon="4.88625">
        <ele>449</ele>
        <time>2014-05-01T08:12:36Z</time>
      </trkpt>
      <trkpt lat="44.672" lon="4.88619">
        <ele>449.3</ele>
        <time>2014-05-01T08:12:39Z</time>
      </trkpt>
      <trkpt lat="44.67203" lon="4.88613">
        <ele>449.7</ele>
        <time>2014-05-01T08:12:42Z</time>
      </trkpt>
      <trkpt lat="44.67207" lon="4.88607">
        <ele>449.9</ele>
        <time>2014-05-01T08:12:45Z</time>
      </trkpt>
      <trkpt lat="44.67216" lon="4.88598">
        <ele>450</ele>
        <time>2014-05-01T08:12:51Z</time>
      </trkpt>
      <trkpt lat="44.67221" lon="4.88594">
        <ele>450.2</ele>
        <time>2014-05-01T08:12:54Z</time>
      </trkpt>
      <trkpt lat="44.67227" lon="4.8859">
        <ele>450.1</ele>
        <time>2014-05-01T08:12:57Z</time>
      </trkpt>
      <trkpt lat="44.67232" lon="4.88586">
        <ele>450</ele>
        <time>2014-05-01T08:13:00Z</time>
      </trkpt>
      <trkpt lat="44.67237" lon="4.88581">
        <ele>450.3</ele>
        <time>2014-05-01T08:13:03Z</time>
      </trkpt>
      <trkpt lat="44.67242" lon="4.88577">
        <ele>450.5</ele>
        <time>2014-05-01T08:13:06Z</time>
      </trkpt>
      <trkpt lat="44.67248" lon="4.88574">
        <ele>450.6</ele>
        <time>2014-05-01T08:13:09Z</time>
      </trkpt>
      <trkpt lat="44.67253" lon="4.8857">
        <ele>450.7</ele>
        <time>2014-05-01T08:13:12Z</time>
      </trkpt>
      <trkpt lat="44.67258" lon="4.88565">
        <ele>450.6</ele>
        <time>2014-05-01T08:13:15Z</time>
      </trkpt>
      <trkpt lat="44.67263" lon="4.8856">
        <ele>450.6</ele>
        <time>2014-05-01T08:13:18Z</time>
      </trkpt>
      <trkpt lat="44.67269" lon="4.88557">
        <ele>450.4</ele>
        <time>2014-05-01T08:13:21Z</time>
      </trkpt>
      <trkpt lat="44.67274" lon="4.88554">
        <ele>450.1</ele>
        <time>2014-05-01T08:13:24Z</time>
      </trkpt>
      <trkpt lat="44.6728" lon="4.8855">
        <ele>449.9</ele>
        <time>2014-05-01T08:13:27Z</time>
      </trkpt>
      <trkpt lat="44.67286" lon="4.88546">
        <ele>449.7</ele>
        <time>2014-05-01T08:13:30Z</time>
      </trkpt>
      <trkpt lat="44.67291" lon="4.88545">
        <ele>449.3</ele>
        <time>2014-05-01T08:13:32Z</time>
      </trkpt>
      <trkpt lat="44.67296" lon="4.8854">
        <ele>449.2</ele>
        <time>2014-05-01T08:13:35Z</time>
      </trkpt>
      <trkpt lat="44.67302" lon="4.88535">
        <ele>449</ele>
        <time>2014-05-01T08:13:38Z</time>
      </trkpt>
      <trkpt lat="44.67306" lon="4.88531">
        <ele>449.3</ele>
        <time>2014-05-01T08:13:40Z</time>
      </trkpt>
      <trkpt lat="44.67311" lon="4.88525">
        <ele>449.3</ele>
        <time>2014-05-01T08:13:43Z</time>
      </trkpt>
      <trkpt lat="44.67316" lon="4.8852">
        <ele>449.5</ele>
        <time>2014-05-01T08:13:46Z</time>
      </trkpt>
      <trkpt lat="44.67324" lon="4.88508">
        <ele>450.1</ele>
        <time>2014-05-01T08:13:52Z</time>
      </trkpt>
      <trkpt lat="44.67327" lon="4.88502">
        <ele>450.6</ele>
        <time>2014-05-01T08:13:55Z</time>
      </trkpt>
      <trkpt lat="44.67331" lon="4.88496">
        <ele>451.2</ele>
        <time>2014-05-01T08:13:58Z</time>
      </trkpt>
      <trkpt lat="44.67334" lon="4.8849">
        <ele>451.6</ele>
        <time>2014-05-01T08:14:01Z</time>
      </trkpt>
      <trkpt lat="44.67338" lon="4.88484">
        <ele>452.5</ele>
        <time>2014-05-01T08:14:04Z</time>
      </trkpt>
      <trkpt lat="44.67342" lon="4.88479">
        <ele>453.6</ele>
        <time>2014-05-01T08:14:07Z</time>
      </trkpt>
      <trkpt lat="44.67345" lon="4.88473">
        <ele>454.4</ele>
        <time>2014-05-01T08:14:10Z</time>
      </trkpt>
      <trkpt lat="44.67348" lon="4.88468">
        <ele>455.3</ele>
        <time>2014-05-01T08:14:13Z</time>
      </trkpt>
      <trkpt lat="44.67352" lon="4.88462">
        <ele>456.1</ele>
        <time>2014-05-01T08:14:16Z</time>
      </trkpt>
      <trkpt lat="44.67355" lon="4.88457">
        <ele>457.2</ele>
        <time>2014-05-01T08:14:19Z</time>
      </trkpt>
      <trkpt lat="44.67358" lon="4.88451">
        <ele>458</ele>
        <time>2014-05-01T08:14:22Z</time>
      </trkpt>
      <trkpt lat="44.67361" lon="4.88446">
        <ele>458.9</ele>
        <time>2014-05-01T08:14:25Z</time>
      </trkpt>
      <trkpt lat="44.67364" lon="4.8844">
        <ele>459.7</ele>
        <time>2014-05-01T08:14:28Z</time>
      </trkpt>
      <trkpt lat="44.67368" lon="4.88435">
        <ele>460.8</ele>
        <time>2014-05-01T08:14:31Z</time>
      </trkpt>
      <trkpt lat="44.67372" lon="4.88429">
        <ele>461.6</ele>
        <time>2014-05-01T08:14:34Z</time>
      </trkpt>
      <trkpt lat="44.67375" lon="4.88423">
        <ele>462.5</ele>
        <time>2014-05-01T08:14:37Z</time>
      </trkpt>
      <trkpt lat="44.67379" lon="4.88418">
        <ele>463.5</ele>
        <time>2014-05-01T08:14:40Z</time>
      </trkpt>
      <trkpt lat="44.67382" lon="4.88412">
        <ele>464.3</ele>
        <time>2014-05-01T08:14:43Z</time>
      </trkpt>
      <trkpt lat="44.67386" lon="4.88406">
        <ele>465.1</ele>
        <time>2014-05-01T08:14:46Z</time>
      </trkpt>
      <trkpt lat="44.67388" lon="4.884">
        <ele>466</ele>
        <time>2014-05-01T08:14:49Z</time>
      </trkpt>
      <trkpt lat="44.67395" lon="4.88388">
        <ele>467.5</ele>
        <time>2014-05-01T08:14:55Z</time>
      </trkpt>
      <trkpt lat="44.67397" lon="4.88382">
        <ele>468.4</ele>
        <time>2014-05-01T08:14:58Z</time>
      </trkpt>
      <trkpt lat="44.67399" lon="4.88374">
        <ele>469.4</ele>
        <time>2014-05-01T08:15:01Z</time>
      </trkpt>
      <trkpt lat="44.67401" lon="4.88367">
        <ele>470.2</ele>
        <time>2014-05-01T08:15:04Z</time>
      </trkpt>
      <trkpt lat="44.67402" lon="4.8836">
        <ele>471.2</ele>
        <time>2014-05-01T08:15:07Z</time>
      </trkpt>
      <trkpt lat="44.67404" lon="4.88352">
        <ele>472.1</ele>
        <time>2014-05-01T08:15:10Z</time>
      </trkpt>
      <trkpt lat="44.67407" lon="4.88344">
        <ele>473.1</ele>
        <time>2014-05-01T08:15:13Z</time>
      </trkpt>
      <trkpt lat="44.6741" lon="4.88338">
        <ele>473.8</ele>
        <time>2014-05-01T08:15:16Z</time>
      </trkpt>
      <trkpt lat="44.67414" lon="4.88332">
        <ele>474.1</ele>
        <time>2014-05-01T08:15:19Z</time>
      </trkpt>
      <trkpt lat="44.67418" lon="4.88328">
        <ele>473.8</ele>
        <time>2014-05-01T08:15:22Z</time>
      </trkpt>
      <trkpt lat="44.67423" lon="4.88325">
        <ele>472.8</ele>
        <time>2014-05-01T08:15:25Z</time>
      </trkpt>
      <trkpt lat="44.67428" lon="4.88323">
        <ele>471.7</ele>
        <time>2014-05-01T08:15:28Z</time>
      </trkpt>
      <trkpt lat="44.67434" lon="4.88323">
        <ele>470.4</ele>
        <time>2014-05-01T08:15:31Z</time>
      </trkpt>
      <trkpt lat="44.6744" lon="4.88323">
        <ele>469.2</ele>
        <time>2014-05-01T08:15:34Z</time>
      </trkpt>
      <trkpt lat="44.67445" lon="4.88323">
        <ele>468</ele>
        <time>2014-05-01T08:15:37Z</time>
      </trkpt>
      <trkpt lat="44.67452" lon="4.88323">
        <ele>466.6</ele>
        <time>2014-05-01T08:15:40Z</time>
      </trkpt>
      <trkpt lat="44.67458" lon="4.88323">
        <ele>465.2</ele>
        <time>2014-05-01T08:15:43Z</time>
      </trkpt>
      <trkpt lat="44.67464" lon="4.88323">
        <ele>463.8</ele>
        <time>2014-05-01T08:15:46Z</time>
      </trkpt>
      <trkpt lat="44.6747" lon="4.88322">
        <ele>462.4</ele>
        <time>2014-05-01T08:15:49Z</time>
      </trkpt>
      <trkpt lat="44.67476" lon="4.88321">
        <ele>460.9</ele>
        <time>2014-05-01T08:15:52Z</time>
      </trkpt>
      <trkpt lat="44.67487" lon="4.88318">
        <ele>458.1</ele>
        <time>2014-05-01T08:15:58Z</time>
      </trkpt>
      <trkpt lat="44.67489" lon="4.88312">
        <ele>456.4</ele>
        <time>2014-05-01T08:16:01Z</time>
      </trkpt>
      <trkpt lat="44.67492" lon="4.88304">
        <ele>454.5</ele>
        <time>2014-05-01T08:16:04Z</time>
      </trkpt>
      <trkpt lat="44.67491" lon="4.88298">
        <ele>453.4</ele>
        <time>2014-05-01T08:16:07Z</time>
      </trkpt>
      <trkpt lat="44.67488" lon="4.88292">
        <ele>453.5</ele>
        <time>2014-05-01T08:16:11Z</time>
      </trkpt>
      <trkpt lat="44.67486" lon="4.88287">
        <ele>453.4</ele>
        <time>2014-05-01T08:16:15Z</time>
      </trkpt>
      <trkpt lat="44.67483" lon="4.88281">
        <ele>453.3</ele>
        <time>2014-05-01T08:16:20Z</time>
      </trkpt>
      <trkpt lat="44.67479" lon="4.88277">
        <ele>454.1</ele>
        <time>2014-05-01T08:16:25Z</time>
      </trkpt>
      <trkpt lat="44.67476" lon="4.88272">
        <ele>454.5</ele>
        <time>2014-05-01T08:16:30Z</time>
      </trkpt>
      <trkpt lat="44.67472" lon="4.88267">
        <ele>455.4</ele>
        <time>2014-05-01T08:16:35Z</time>
      </trkpt>
      <trkpt lat="44.67468" lon="4.88261">
        <ele>456.4</ele>
        <time>2014-05-01T08:16:40Z</time>
      </trkpt>
      <trkpt lat="44.67465" lon="4.88256">
        <ele>456.9</ele>
        <time>2014-05-01T08:16:44Z</time>
      </trkpt>
      <trkpt lat="44.67461" lon="4.88251">
        <ele>458.1</ele>
        <time>2014-05-01T08:16:48Z</time>
      </trkpt>
      <trkpt lat="44.67458" lon="4.88247">
        <ele>458.8</ele>
        <time>2014-05-01T08:16:52Z</time>
      </trkpt>
      <trkpt lat="44.67454" lon="4.88242">
        <ele>459.8</ele>
        <time>2014-05-01T08:16:56Z</time>
      </trkpt>
      <trkpt lat="44.67447" lon="4.88233">
        <ele>461.2</ele>
        <time>2014-05-01T08:17:04Z</time>
      </trkpt>
      <trkpt lat="44.67444" lon="4.88228">
        <ele>462.1</ele>
        <time>2014-05-01T08:17:08Z</time>
      </trkpt>
      <trkpt lat="44.6744" lon="4.88224">
        <ele>462.7</ele>
        <time>2014-05-01T08:17:12Z</time>
      </trkpt>
      <trkpt lat="44.67436" lon="4.8822">
        <ele>464.2</ele>
        <time>2014-05-01T08:17:17Z</time>
      </trkpt>
      <trkpt lat="44.67431" lon="4.88216">
        <ele>465.5</ele>
        <time>2014-05-01T08:17:22Z</time>
      </trkpt>
      <trkpt lat="44.67428" lon="4.8821">
        <ele>466.2</ele>
        <time>2014-05-01T08:17:27Z</time>
      </trkpt>
      <trkpt lat="44.67424" lon="4.88205">
        <ele>466.8</ele>
        <time>2014-05-01T08:17:31Z</time>
      </trkpt>
      <trkpt lat="44.67421" lon="4.88201">
        <ele>467.6</ele>
        <time>2014-05-01T08:17:35Z</time>
      </trkpt>
      <trkpt lat="44.67417" lon="4.88196">
        <ele>468.8</ele>
        <time>2014-05-01T08:17:39Z</time>
      </trkpt>
      <trkpt lat="44.67413" lon="4.88192">
        <ele>469.4</ele>
        <time>2014-05-01T08:17:43Z</time>
      </trkpt>
      <trkpt lat="44.67409" lon="4.88186">
        <ele>469.9</ele>
        <time>2014-05-01T08:17:48Z</time>
      </trkpt>
      <trkpt lat="44.67405" lon="4.88182">
        <ele>470.5</ele>
        <time>2014-05-01T08:17:52Z</time>
      </trkpt>
      <trkpt lat="44.674" lon="4.88175">
        <ele>471.5</ele>
        <time>2014-05-01T08:17:57Z</time>
      </trkpt>
      <trkpt lat="44.67391" lon="4.88169">
        <ele>473.7</ele>
        <time>2014-05-01T08:18:05Z</time>
      </trkpt>
      <trkpt lat="44.67386" lon="4.88167">
        <ele>475.2</ele>
        <time>2014-05-01T08:18:09Z</time>
      </trkpt>
      <trkpt lat="44.67381" lon="4.88165">
        <ele>476.9</ele>
        <time>2014-05-01T08:18:14Z</time>
      </trkpt>
      <trkpt lat="44.67375" lon="4.88163">
        <ele>478.4</ele>
        <time>2014-05-01T08:18:19Z</time>
      </trkpt>
      <trkpt lat="44.6737" lon="4.88161">
        <ele>479.7</ele>
        <time>2014-05-01T08:18:24Z</time>
      </trkpt>
      <trkpt lat="44.67365" lon="4.8816">
        <ele>481.2</ele>
        <time>2014-05-01T08:18:29Z</time>
      </trkpt>
      <trkpt lat="44.67361" lon="4.88159">
        <ele>482.8</ele>
        <time>2014-05-01T08:18:33Z</time>
      </trkpt>
      <trkpt lat="44.67356" lon="4.88158">
        <ele>484.1</ele>
        <time>2014-05-01T08:18:37Z</time>
      </trkpt>
      <trkpt lat="44.67351" lon="4.88157">
        <ele>485.5</ele>
        <time>2014-05-01T08:18:41Z</time>
      </trkpt>
      <trkpt lat="44.67347" lon="4.88155">
        <ele>486.8</ele>
        <time>2014-05-01T08:18:45Z</time>
      </trkpt>
      <trkpt lat="44.67342" lon="4.88155">
        <ele>488.6</ele>
        <time>2014-05-01T08:18:49Z</time>
      </trkpt>
      <trkpt lat="44.67337" lon="4.88153">
        <ele>489.8</ele>
        <time>2014-05-01T08:18:53Z</time>
      </trkpt>
      <trkpt lat="44.67331" lon="4.88152">
        <ele>491.4</ele>
        <time>2014-05-01T08:18:57Z</time>
      </trkpt>
      <trkpt lat="44.67327" lon="4.88151">
        <ele>492.1</ele>
        <time>2014-05-01T08:19:01Z</time>
      </trkpt>
      <trkpt lat="44.67317" lon="4.88148">
        <ele>493.3</ele>
        <time>2014-05-01T08:19:09Z</time>
      </trkpt>
      <trkpt lat="44.67312" lon="4.88146">
        <ele>493.8</ele>
        <time>2014-05-01T08:19:13Z</time>
      </trkpt>
      <trkpt lat="44.67307" lon="4.88144">
        <ele>494.6</ele>
        <time>2014-05-01T08:19:17Z</time>
      </trkpt>
      <trkpt lat="44.67302" lon="4.88144">
        <ele>495.4</ele>
        <time>2014-05-01T08:19:21Z</time>
      </trkpt>
      <trkpt lat="44.67297" lon="4.88142">
        <ele>496.2</ele>
        <time>2014-05-01T08:19:26Z</time>
      </trkpt>
      <trkpt lat="44.67293" lon="4.88136">
        <ele>496.2</ele>
        <time>2014-05-01T08:19:30Z</time>
      </trkpt>
      <trkpt lat="44.6729" lon="4.88129">
        <ele>496</ele>
        <time>2014-05-01T08:19:33Z</time>
      </trkpt>
      <trkpt lat="44.67287" lon="4.88124">
        <ele>496.1</ele>
        <time>2014-05-01T08:19:35Z</time>
      </trkpt>
      <trkpt lat="44.67283" lon="4.8812">
        <ele>496.4</ele>
        <time>2014-05-01T08:19:37Z</time>
      </trkpt>
      <trkpt lat="44.67278" lon="4.88116">
        <ele>496.7</ele>
        <time>2014-05-01T08:19:39Z</time>
      </trkpt>
      <trkpt lat="44.67273" lon="4.88112">
        <ele>497.4</ele>
        <time>2014-05-01T08:19:41Z</time>
      </trkpt>
      <trkpt lat="44.67267" lon="4.88108">
        <ele>498</ele>
        <time>2014-05-01T08:19:43Z</time>
      </trkpt>
      <trkpt lat="44.67262" lon="4.88103">
        <ele>498.5</ele>
        <time>2014-05-01T08:19:45Z</time>
      </trkpt>
      <trkpt lat="44.67256" lon="4.881">
        <ele>499.2</ele>
        <time>2014-05-01T08:19:47Z</time>
      </trkpt>
      <trkpt lat="44.67251" lon="4.88096">
        <ele>500.1</ele>
        <time>2014-05-01T08:19:49Z</time>
      </trkpt>
      <trkpt lat="44.67245" lon="4.88092">
        <ele>500.7</ele>
        <time>2014-05-01T08:19:51Z</time>
      </trkpt>
      <trkpt lat="44.67238" lon="4.88088">
        <ele>501.2</ele>
        <time>2014-05-01T08:19:53Z</time>
      </trkpt>
      <trkpt lat="44.67231" lon="4.88084">
        <ele>501.9</ele>
        <time>2014-05-01T08:19:55Z</time>
      </trkpt>
      <trkpt lat="44.67224" lon="4.8808">
        <ele>502.2</ele>
        <time>2014-05-01T08:19:57Z</time>
      </trkpt>
      <trkpt lat="44.67218" lon="4.88077">
        <ele>502.7</ele>
        <time>2014-05-01T08:19:59Z</time>
      </trkpt>
      <trkpt lat="44.67211" lon="4.88074">
        <ele>502.9</ele>
        <time>2014-05-01T08:20:01Z</time>
      </trkpt>
      <trkpt lat="44.67205" lon="4.88069">
        <ele>503</ele>
        <time>2014-05-01T08:20:03Z</time>
      </trkpt>
      <trkpt lat="44.67193" lon="4.88063">
        <ele>503.7</ele>
        <time>2014-05-01T08:20:07Z</time>
      </trkpt>
      <trkpt lat="44.67187" lon="4.88059">
        <ele>503.8</ele>
        <time>2014-05-01T08:20:09Z</time>
      </trkpt>
      <trkpt lat="44.67181" lon="4.88056">
        <ele>503.9</ele>
        <time>2014-05-01T08:20:11Z</time>
      </trkpt>
      <trkpt lat="44.67175" lon="4.88052">
        <ele>504</ele>
        <time>2014-05-01T08:20:13Z</time>
      </trkpt>
      <trkpt lat="44.67169" lon="4.88048">
        <ele>504.5</ele>
        <time>2014-05-01T08:20:15Z</time>
      </trkpt>
      <trkpt lat="44.67163" lon="4.88045">
        <ele>504.7</ele>
        <time>2014-05-01T08:20:17Z</time>
      </trkpt>
      <trkpt lat="44.67157" lon="4.88041">
        <ele>504.9</ele>
        <time>2014-05-01T08:20:19Z</time>
      </trkpt>
      <trkpt lat="44.6715" lon="4.88037">
        <ele>505.2</ele>
        <time>2014-05-01T08:20:21Z</time>
      </trkpt>
      <trkpt lat="44.67144" lon="4.88032">
        <ele>505.2</ele>
        <time>2014-05-01T08:20:23Z</time>
      </trkpt>
      <trkpt lat="44.67138" lon="4.88027">
        <ele>505.5</ele>
        <time>2014-05-01T08:20:25Z</time>
      </trkpt>
      <trkpt lat="44.67133" lon="4.88022">
        <ele>505.5</ele>
        <time>2014-05-01T08:20:27Z</time>
      </trkpt>
      <trkpt lat="44.67127" lon="4.88017">
        <ele>505.4</ele>
        <time>2014-05-01T08:20:29Z</time>
      </trkpt>
      <trkpt lat="44.67122" lon="4.88012">
        <ele>505.3</ele>
        <time>2014-05-01T08:20:31Z</time>
      </trkpt>
      <trkpt lat="44.67116" lon="4.88006">
        <ele>505.3</ele>
        <time>2014-05-01T08:20:33Z</time>
      </trkpt>
      <trkpt lat="44.6711" lon="4.88001">
        <ele>505.2</ele>
        <time>2014-05-01T08:20:35Z</time>
      </trkpt>
      <trkpt lat="44.67104" lon="4.87996">
        <ele>506.7</ele>
        <time>2014-05-01T08:20:37Z</time>
      </trkpt>
      <trkpt lat="44.67097" lon="4.87991">
        <ele>508.1</ele>
        <time>2014-05-01T08:20:39Z</time>
      </trkpt>
      <trkpt lat="44.67091" lon="4.87985">
        <ele>509.5</ele>
        <time>2014-05-01T08:20:41Z</time>
      </trkpt>
      <trkpt lat="44.67087" lon="4.87979">
        <ele>510.6</ele>
        <time>2014-05-01T08:20:43Z</time>
      </trkpt>
      <trkpt lat="44.67085" lon="4.87972">
        <ele>511.5</ele>
        <time>2014-05-01T08:20:45Z</time>
      </trkpt>
      <trkpt lat="44.67083" lon="4.87964">
        <ele>512.3</ele>
        <time>2014-05-01T08:20:47Z</time>
      </trkpt>
      <trkpt lat="44.67083" lon="4.87954">
        <ele>512.9</ele>
        <time>2014-05-01T08:20:49Z</time>
      </trkpt>
      <trkpt lat="44.67085" lon="4.87946">
        <ele>513.1</ele>
        <time>2014-05-01T08:20:51Z</time>
      </trkpt>
      <trkpt lat="44.67086" lon="4.87937">
        <ele>513.2</ele>
        <time>2014-05-01T08:20:53Z</time>
      </trkpt>
      <trkpt lat="44.6709" lon="4.87931">
        <ele>513.1</ele>
        <time>2014-05-01T08:20:55Z</time>
      </trkpt>
      <trkpt lat="44.67094" lon="4.87926">
        <ele>512.6</ele>
        <time>2014-05-01T08:20:57Z</time>
      </trkpt>
      <trkpt lat="44.671" lon="4.87923">
        <ele>511.8</ele>
        <time>2014-05-01T08:21:00Z</time>
      </trkpt>
      <trkpt lat="44.67105" lon="4.87921">
        <ele>511.2</ele>
        <time>2014-05-01T08:21:03Z</time>
      </trkpt>
      <trkpt lat="44.67109" lon="4.87918">
        <ele>510.7</ele>
        <time>2014-05-01T08:21:05Z</time>
      </trkpt>
      <trkpt lat="44.67118" lon="4.87909">
        <ele>511</ele>
        <time>2014-05-01T08:21:10Z</time>
      </trkpt>
      <trkpt lat="44.67123" lon="4.87905">
        <ele>511.1</ele>
        <time>2014-05-01T08:21:12Z</time>
      </trkpt>
      <trkpt lat="44.67129" lon="4.87901">
        <ele>511.1</ele>
        <time>2014-05-01T08:21:14Z</time>
      </trkpt>
      <trkpt lat="44.67133" lon="4.87897">
        <ele>511.3</ele>
        <time>2014-05-01T08:21:16Z</time>
      </trkpt>
      <trkpt lat="44.67139" lon="4.87894">
        <ele>511.2</ele>
        <time>2014-05-01T08:21:19Z</time>
      </trkpt>
      <trkpt lat="44.67144" lon="4.87892">
        <ele>510.8</ele>
        <time>2014-05-01T08:21:21Z</time>
      </trkpt>
      <trkpt lat="44.67149" lon="4.87889">
        <ele>510.9</ele>
        <time>2014-05-01T08:21:23Z</time>
      </trkpt>
      <trkpt lat="44.67153" lon="4.87888">
        <ele>510.1</ele>
        <time>2014-05-01T08:21:24Z</time>
      </trkpt>
      <trkpt lat="44.6716" lon="4.87887">
        <ele>509.3</ele>
        <time>2014-05-01T08:21:26Z</time>
      </trkpt>
      <trkpt lat="44.67166" lon="4.87884">
        <ele>508.9</ele>
        <time>2014-05-01T08:21:28Z</time>
      </trkpt>
      <trkpt lat="44.67173" lon="4.8788">
        <ele>508.8</ele>
        <time>2014-05-01T08:21:30Z</time>
      </trkpt>
      <trkpt lat="44.6718" lon="4.87876">
        <ele>508.4</ele>
        <time>2014-05-01T08:21:32Z</time>
      </trkpt>
      <trkpt lat="44.67186" lon="4.87872">
        <ele>507.8</ele>
        <time>2014-05-01T08:21:34Z</time>
      </trkpt>
      <trkpt lat="44.67191" lon="4.87869">
        <ele>507.7</ele>
        <time>2014-05-01T08:21:36Z</time>
      </trkpt>
      <trkpt lat="44.67197" lon="4.87865">
        <ele>507.5</ele>
        <time>2014-05-01T08:21:38Z</time>
      </trkpt>
      <trkpt lat="44.67203" lon="4.87863">
        <ele>506.9</ele>
        <time>2014-05-01T08:21:40Z</time>
      </trkpt>
      <trkpt lat="44.6721" lon="4.87858">
        <ele>506.6</ele>
        <time>2014-05-01T08:21:42Z</time>
      </trkpt>
      <trkpt lat="44.67216" lon="4.87854">
        <ele>506.7</ele>
        <time>2014-05-01T08:21:44Z</time>
      </trkpt>
      <trkpt lat="44.67221" lon="4.8785">
        <ele>506.7</ele>
        <time>2014-05-01T08:21:46Z</time>
      </trkpt>
      <trkpt lat="44.67227" lon="4.87846">
        <ele>506.2</ele>
        <time>2014-05-01T08:21:48Z</time>
      </trkpt>
      <trkpt lat="44.67232" lon="4.87843">
        <ele>506.2</ele>
        <time>2014-05-01T08:21:50Z</time>
      </trkpt>
      <trkpt lat="44.67237" lon="4.87839">
        <ele>506.2</ele>
        <time>2014-05-01T08:21:52Z</time>
      </trkpt>
      <trkpt lat="44.67243" lon="4.87835">
        <ele>506</ele>
        <time>2014-05-01T08:21:54Z</time>
      </trkpt>
      <trkpt lat="44.67249" lon="4.87829">
        <ele>505.5</ele>
        <time>2014-05-01T08:21:56Z</time>
      </trkpt>
      <trkpt lat="44.67256" lon="4.87824">
        <ele>504.7</ele>
        <time>2014-05-01T08:21:58Z</time>
      </trkpt>
      <trkpt lat="44.67263" lon="4.87818">
        <ele>503.7</ele>
        <time>2014-05-01T08:22:00Z</time>
      </trkpt>
      <trkpt lat="44.67269" lon="4.87811">
        <ele>503</ele>
        <time>2014-05-01T08:22:02Z</time>
      </trkpt>
      <trkpt lat="44.67275" lon="4.87805">
        <ele>502.2</ele>
        <time>2014-05-01T08:22:04Z</time>
      </trkpt>
      <trkpt lat="44.6728" lon="4.87799">
        <ele>501.5</ele>
        <time>2014-05-01T08:22:06Z</time>
      </trkpt>
      <trkpt lat="44.67288" lon="4.87782">
        <ele>500.8</ele>
        <time>2014-05-01T08:22:10Z</time>
      </trkpt>
      <trkpt lat="44.67289" lon="4.87772">
        <ele>501.1</ele>
        <time>2014-05-01T08:22:12Z</time>
      </trkpt>
      <trkpt lat="44.67289" lon="4.87761">
        <ele>501.5</ele>
        <time>2014-05-01T08:22:14Z</time>
      </trkpt>
      <trkpt lat="44.67288" lon="4.87751">
        <ele>502.2</ele>
        <time>2014-05-01T08:22:16Z</time>
      </trkpt>
      <trkpt lat="44.67285" lon="4.87742">
        <ele>502</ele>
        <time>2014-05-01T08:22:18Z</time>
      </trkpt>
      <trkpt lat="44.67283" lon="4.87732">
        <ele>501.7</ele>
        <time>2014-05-01T08:22:20Z</time>
      </trkpt>
      <trkpt lat="44.6728" lon="4.87723">
        <ele>501.5</ele>
        <time>2014-05-01T08:22:22Z</time>
      </trkpt>
      <trkpt lat="44.67274" lon="4.87717">
        <ele>502</ele>
        <time>2014-05-01T08:22:24Z</time>
      </trkpt>
      <trkpt lat="44.6727" lon="4.8771">
        <ele>502.3</ele>
        <time>2014-05-01T08:22:26Z</time>
      </trkpt>
      <trkpt lat="44.67266" lon="4.87702">
        <ele>502.3</ele>
        <time>2014-05-01T08:22:28Z</time>
      </trkpt>
      <trkpt lat="44.67262" lon="4.87694">
        <ele>502.4</ele>
        <time>2014-05-01T08:22:30Z</time>
      </trkpt>
      <trkpt lat="44.67258" lon="4.87686">
        <ele>502.5</ele>
        <time>2014-05-01T08:22:32Z</time>
      </trkpt>
      <trkpt lat="44.67254" lon="4.87678">
        <ele>502.4</ele>
        <time>2014-05-01T08:22:34Z</time>
      </trkpt>
      <trkpt lat="44.67249" lon="4.8767">
        <ele>502.6</ele>
        <time>2014-05-01T08:22:36Z</time>
      </trkpt>
      <trkpt lat="44.67244" lon="4.87662">
        <ele>502.9</ele>
        <time>2014-05-01T08:22:38Z</time>
      </trkpt>
      <trkpt lat="44.6724" lon="4.87654">
        <ele>503.1</ele>
        <time>2014-05-01T08:22:40Z</time>
      </trkpt>
      <trkpt lat="44.67237" lon="4.87647">
        <ele>502.9</ele>
        <time>2014-05-01T08:22:42Z</time>
      </trkpt>
      <trkpt lat="44.67232" lon="4.8764">
        <ele>503.3</ele>
        <time>2014-05-01T08:22:44Z</time>
      </trkpt>
      <trkpt lat="44.67227" lon="4.87632">
        <ele>503.5</ele>
        <time>2014-05-01T08:22:46Z</time>
      </trkpt>
      <trkpt lat="44.67223" lon="4.87625">
        <ele>503.6</ele>
        <time>2014-05-01T08:22:48Z</time>
      </trkpt>
      <trkpt lat="44.67217" lon="4.87616">
        <ele>503.8</ele>
        <time>2014-05-01T08:22:50Z</time>
      </trkpt>
      <trkpt lat="44.67214" lon="4.87607">
        <ele>503.6</ele>
        <time>2014-05-01T08:22:52Z</time>
      </trkpt>
      <trkpt lat="44.67209" lon="4.87597">
        <ele>503.3</ele>
        <time>2014-05-01T08:22:54Z</time>
      </trkpt>
      <trkpt lat="44.67205" lon="4.87588">
        <ele>503</ele>
        <time>2014-05-01T08:22:56Z</time>
      </trkpt>
      <trkpt lat="44.67202" lon="4.87579">
        <ele>503.4</ele>
        <time>2014-05-01T08:22:58Z</time>
      </trkpt>
      <trkpt lat="44.672" lon="4.87569">
        <ele>504.3</ele>
        <time>2014-05-01T08:23:00Z</time>
      </trkpt>
      <trkpt lat="44.67198" lon="4.8756">
        <ele>504.9</ele>
        <time>2014-05-01T08:23:02Z</time>
      </trkpt>
      <trkpt lat="44.67196" lon="4.8755">
        <ele>505.5</ele>
        <time>2014-05-01T08:23:04Z</time>
      </trkpt>
      <trkpt lat="44.67196" lon="4.87541">
        <ele>505.9</ele>
        <time>2014-05-01T08:23:06Z</time>
      </trkpt>
      <trkpt lat="44.67194" lon="4.87531">
        <ele>506.4</ele>
        <time>2014-05-01T08:23:08Z</time>
      </trkpt>
      <trkpt lat="44.67191" lon="4.87509">
        <ele>507.2</ele>
        <time>2014-05-01T08:23:12Z</time>
      </trkpt>
      <trkpt lat="44.67189" lon="4.875">
        <ele>507.7</ele>
        <time>2014-05-01T08:23:14Z</time>
      </trkpt>
      <trkpt lat="44.67189" lon="4.8749">
        <ele>509.1</ele>
        <time>2014-05-01T08:23:16Z</time>
      </trkpt>
      <trkpt lat="44.67189" lon="4.87481">
        <ele>510.6</ele>
        <time>2014-05-01T08:23:18Z</time>
      </trkpt>
      <trkpt lat="44.67189" lon="4.87469">
        <ele>512.4</ele>
        <time>2014-05-01T08:23:20Z</time>
      </trkpt>
      <trkpt lat="44.67189" lon="4.87458">
        <ele>514.3</ele>
        <time>2014-05-01T08:23:22Z</time>
      </trkpt>
      <trkpt lat="44.67188" lon="4.87447">
        <ele>515.9</ele>
        <time>2014-05-01T08:23:24Z</time>
      </trkpt>
      <trkpt lat="44.67188" lon="4.87436">
        <ele>517.7</ele>
        <time>2014-05-01T08:23:26Z</time>
      </trkpt>
      <trkpt lat="44.67188" lon="4.87422">
        <ele>519.7</ele>
        <time>2014-05-01T08:23:28Z</time>
      </trkpt>
      <trkpt lat="44.67189" lon="4.87411">
        <ele>521.9</ele>
        <time>2014-05-01T08:23:30Z</time>
      </trkpt>
      <trkpt lat="44.6719" lon="4.87399">
        <ele>524.1</ele>
        <time>2014-05-01T08:23:32Z</time>
      </trkpt>
      <trkpt lat="44.67192" lon="4.87386">
        <ele>526.6</ele>
        <time>2014-05-01T08:23:34Z</time>
      </trkpt>
      <trkpt lat="44.67194" lon="4.87376">
        <ele>528.7</ele>
        <time>2014-05-01T08:23:36Z</time>
      </trkpt>
      <trkpt lat="44.67196" lon="4.87368">
        <ele>530.5</ele>
        <time>2014-05-01T08:23:38Z</time>
      </trkpt>
      <trkpt lat="44.672" lon="4.87359">
        <ele>532.5</ele>
        <time>2014-05-01T08:23:40Z</time>
      </trkpt>
      <trkpt lat="44.67204" lon="4.87351">
        <ele>534.7</ele>
        <time>2014-05-01T08:23:42Z</time>
      </trkpt>
      <trkpt lat="44.67208" lon="4.87343">
        <ele>536.8</ele>
        <time>2014-05-01T08:23:44Z</time>
      </trkpt>
      <trkpt lat="44.67212" lon="4.87336">
        <ele>538.7</ele>
        <time>2014-05-01T08:23:46Z</time>
      </trkpt>
      <trkpt lat="44.67216" lon="4.8733">
        <ele>540.2</ele>
        <time>2014-05-01T08:23:48Z</time>
      </trkpt>
      <trkpt lat="44.67221" lon="4.87324">
        <ele>541.5</ele>
        <time>2014-05-01T08:23:50Z</time>
      </trkpt>
      <trkpt lat="44.67226" lon="4.87318">
        <ele>542.8</ele>
        <time>2014-05-01T08:23:52Z</time>
      </trkpt>
      <trkpt lat="44.67232" lon="4.87312">
        <ele>544.2</ele>
        <time>2014-05-01T08:23:54Z</time>
      </trkpt>
      <trkpt lat="44.67239" lon="4.87308">
        <ele>545.5</ele>
        <time>2014-05-01T08:23:56Z</time>
      </trkpt>
      <trkpt lat="44.67246" lon="4.87304">
        <ele>546.8</ele>
        <time>2014-05-01T08:23:58Z</time>
      </trkpt>
      <trkpt lat="44.6725" lon="4.873">
        <ele>547.6</ele>
        <time>2014-05-01T08:23:59Z</time>
      </trkpt>
      <trkpt lat="44.67257" lon="4.87297">
        <ele>548.3</ele>
        <time>2014-05-01T08:24:01Z</time>
      </trkpt>
      <trkpt lat="44.67264" lon="4.87295">
        <ele>549</ele>
        <time>2014-05-01T08:24:03Z</time>
      </trkpt>
      <trkpt lat="44.67269" lon="4.87297">
        <ele>549.4</ele>
        <time>2014-05-01T08:24:05Z</time>
      </trkpt>
      <trkpt lat="44.67272" lon="4.87304">
        <ele>549.4</ele>
        <time>2014-05-01T08:24:08Z</time>
      </trkpt>
      <trkpt lat="44.67273" lon="4.87314">
        <ele>549</ele>
        <time>2014-05-01T08:24:11Z</time>
      </trkpt>
      <trkpt lat="44.67278" lon="4.87329">
        <ele>548.9</ele>
        <time>2014-05-01T08:24:15Z</time>
      </trkpt>
      <trkpt lat="44.6728" lon="4.87336">
        <ele>548.4</ele>
        <time>2014-05-01T08:24:17Z</time>
      </trkpt>
      <trkpt lat="44.67282" lon="4.87344">
        <ele>547.2</ele>
        <time>2014-05-01T08:24:19Z</time>
      </trkpt>
      <trkpt lat="44.67283" lon="4.87353">
        <ele>545.8</ele>
        <time>2014-05-01T08:24:21Z</time>
      </trkpt>
      <trkpt lat="44.67287" lon="4.87362">
        <ele>544.8</ele>
        <time>2014-05-01T08:24:23Z</time>
      </trkpt>
      <trkpt lat="44.67291" lon="4.87368">
        <ele>544.1</ele>
        <time>2014-05-01T08:24:25Z</time>
      </trkpt>
      <trkpt lat="44.67296" lon="4.87373">
        <ele>543.7</ele>
        <time>2014-05-01T08:24:27Z</time>
      </trkpt>
      <trkpt lat="44.67301" lon="4.87379">
        <ele>543</ele>
        <time>2014-05-01T08:24:29Z</time>
      </trkpt>
      <trkpt lat="44.67309" lon="4.87385">
        <ele>542.9</ele>
        <time>2014-05-01T08:24:31Z</time>
      </trkpt>
      <trkpt lat="44.67315" lon="4.87392">
        <ele>542.5</ele>
        <time>2014-05-01T08:24:33Z</time>
      </trkpt>
      <trkpt lat="44.67321" lon="4.87398">
        <ele>541.9</ele>
        <time>2014-05-01T08:24:35Z</time>
      </trkpt>
      <trkpt lat="44.67326" lon="4.87403">
        <ele>541.6</ele>
        <time>2014-05-01T08:24:37Z</time>
      </trkpt>
      <trkpt lat="44.67333" lon="4.87407">
        <ele>541.7</ele>
        <time>2014-05-01T08:24:39Z</time>
      </trkpt>
      <trkpt lat="44.67339" lon="4.87411">
        <ele>541.1</ele>
        <time>2014-05-01T08:24:41Z</time>
      </trkpt>
      <trkpt lat="44.67345" lon="4.87415">
        <ele>540.4</ele>
        <time>2014-05-01T08:24:43Z</time>
      </trkpt>
      <trkpt lat="44.67351" lon="4.87419">
        <ele>539.6</ele>
        <time>2014-05-01T08:24:45Z</time>
      </trkpt>
      <trkpt lat="44.67355" lon="4.87423">
        <ele>538.4</ele>
        <time>2014-05-01T08:24:47Z</time>
      </trkpt>
      <trkpt lat="44.67362" lon="4.87425">
        <ele>537.6</ele>
        <time>2014-05-01T08:24:49Z</time>
      </trkpt>
      <trkpt lat="44.67367" lon="4.87425">
        <ele>537.7</ele>
        <time>2014-05-01T08:24:51Z</time>
      </trkpt>
      <trkpt lat="44.67373" lon="4.87426">
        <ele>537.4</ele>
        <time>2014-05-01T08:24:53Z</time>
      </trkpt>
      <trkpt lat="44.67381" lon="4.87427">
        <ele>537.1</ele>
        <time>2014-05-01T08:24:55Z</time>
      </trkpt>
      <trkpt lat="44.67388" lon="4.87429">
        <ele>536.8</ele>
        <time>2014-05-01T08:24:57Z</time>
      </trkpt>
      <trkpt lat="44.67395" lon="4.87431">
        <ele>536.5</ele>
        <time>2014-05-01T08:24:59Z</time>
      </trkpt>
      <trkpt lat="44.67403" lon="4.87432">
        <ele>536</ele>
        <time>2014-05-01T08:25:01Z</time>
      </trkpt>
      <trkpt lat="44.67411" lon="4.87433">
        <ele>536.2</ele>
        <time>2014-05-01T08:25:03Z</time>
      </trkpt>
      <trkpt lat="44.67418" lon="4.87433">
        <ele>536.2</ele>
        <time>2014-05-01T08:25:05Z</time>
      </trkpt>
      <trkpt lat="44.67424" lon="4.87433">
        <ele>536</ele>
        <time>2014-05-01T08:25:07Z</time>
      </trkpt>
      <trkpt lat="44.6743" lon="4.87434">
        <ele>535.4</ele>
        <time>2014-05-01T08:25:09Z</time>
      </trkpt>
      <trkpt lat="44.67436" lon="4.87433">
        <ele>535.5</ele>
        <time>2014-05-01T08:25:11Z</time>
      </trkpt>
      <trkpt lat="44.67442" lon="4.87433">
        <ele>535.2</ele>
        <time>2014-05-01T08:25:13Z</time>
      </trkpt>
      <trkpt lat="44.67456" lon="4.87434">
        <ele>534.5</ele>
        <time>2014-05-01T08:25:17Z</time>
      </trkpt>
      <trkpt lat="44.67461" lon="4.87437">
        <ele>533.9</ele>
        <time>2014-05-01T08:25:19Z</time>
      </trkpt>
      <trkpt lat="44.67466" lon="4.87439">
        <ele>533.3</ele>
        <time>2014-05-01T08:25:21Z</time>
      </trkpt>
      <trkpt lat="44.67474" lon="4.87441">
        <ele>533</ele>
        <time>2014-05-01T08:25:23Z</time>
      </trkpt>
      <trkpt lat="44.6748" lon="4.87444">
        <ele>532.4</ele>
        <time>2014-05-01T08:25:25Z</time>
      </trkpt>
      <trkpt lat="44.67487" lon="4.87445">
        <ele>532.1</ele>
        <time>2014-05-01T08:25:27Z</time>
      </trkpt>
      <trkpt lat="44.67494" lon="4.87447">
        <ele>531.9</ele>
        <time>2014-05-01T08:25:29Z</time>
      </trkpt>
      <trkpt lat="44.67501" lon="4.87449">
        <ele>531.7</ele>
        <time>2014-05-01T08:25:31Z</time>
      </trkpt>
      <trkpt lat="44.67506" lon="4.87449">
        <ele>531.7</ele>
        <time>2014-05-01T08:25:32Z</time>
      </trkpt>
      <trkpt lat="44.67513" lon="4.87448">
        <ele>531.6</ele>
        <time>2014-05-01T08:25:34Z</time>
      </trkpt>
      <trkpt lat="44.67519" lon="4.8745">
        <ele>531.4</ele>
        <time>2014-05-01T08:25:36Z</time>
      </trkpt>
      <trkpt lat="44.67525" lon="4.87451">
        <ele>531.3</ele>
        <time>2014-05-01T08:25:38Z</time>
      </trkpt>
      <trkpt lat="44.67532" lon="4.87453">
        <ele>531.1</ele>
        <time>2014-05-01T08:25:40Z</time>
      </trkpt>
      <trkpt lat="44.67538" lon="4.87455">
        <ele>531.1</ele>
        <time>2014-05-01T08:25:42Z</time>
      </trkpt>
      <trkpt lat="44.67544" lon="4.87456">
        <ele>531</ele>
        <time>2014-05-01T08:25:44Z</time>
      </trkpt>
      <trkpt lat="44.67549" lon="4.87458">
        <ele>531</ele>
        <time>2014-05-01T08:25:46Z</time>
      </trkpt>
      <trkpt lat="44.67554" lon="4.8746">
        <ele>531</ele>
        <time>2014-05-01T08:25:48Z</time>
      </trkpt>
      <trkpt lat="44.67561" lon="4.87461">
        <ele>531</ele>
        <time>2014-05-01T08:25:51Z</time>
      </trkpt>
      <trkpt lat="44.67566" lon="4.87456">
        <ele>530.9</ele>
        <time>2014-05-01T08:25:54Z</time>
      </trkpt>
      <trkpt lat="44.67568" lon="4.8745">
        <ele>530.8</ele>
        <time>2014-05-01T08:25:57Z</time>
      </trkpt>
      <trkpt lat="44.67569" lon="4.87441">
        <ele>530.5</ele>
        <time>2014-05-01T08:26:00Z</time>
      </trkpt>
      <trkpt lat="44.67567" lon="4.87433">
        <ele>530.4</ele>
        <time>2014-05-01T08:26:03Z</time>
      </trkpt>
      <trkpt lat="44.67565" lon="4.87425">
        <ele>530.3</ele>
        <time>2014-05-01T08:26:06Z</time>
      </trkpt>
      <trkpt lat="44.67563" lon="4.87419">
        <ele>530.2</ele>
        <time>2014-05-01T08:26:08Z</time>
      </trkpt>
      <trkpt lat="44.67561" lon="4.87413">
        <ele>530.1</ele>
        <time>2014-05-01T08:26:10Z</time>
      </trkpt>
      <trkpt lat="44.67558" lon="4.87404">
        <ele>529.7</ele>
        <time>2014-05-01T08:26:13Z</time>
      </trkpt>
      <trkpt lat="44.67556" lon="4.87395">
        <ele>529.3</ele>
        <time>2014-05-01T08:26:16Z</time>
      </trkpt>
      <trkpt lat="44.6755" lon="4.87378">
        <ele>528.9</ele>
        <time>2014-05-01T08:26:22Z</time>
      </trkpt>
      <trkpt lat="44.67547" lon="4.8737">
        <ele>528.8</ele>
        <time>2014-05-01T08:26:25Z</time>
      </trkpt>
      <trkpt lat="44.67543" lon="4.87362">
        <ele>529</ele>
        <time>2014-05-01T08:26:28Z</time>
      </trkpt>
      <trkpt lat="44.67541" lon="4.87357">
        <ele>529.1</ele>
        <time>2014-05-01T08:26:30Z</time>
      </trkpt>
      <trkpt lat="44.67539" lon="4.87351">
        <ele>529.1</ele>
        <time>2014-05-01T08:26:32Z</time>
      </trkpt>
      <trkpt lat="44.67534" lon="4.87343">
        <ele>529.6</ele>
        <time>2014-05-01T08:26:35Z</time>
      </trkpt>
      <trkpt lat="44.6753" lon="4.87337">
        <ele>530.1</ele>
        <time>2014-05-01T08:26:38Z</time>
      </trkpt>
      <trkpt lat="44.67525" lon="4.87332">
        <ele>530.7</ele>
        <time>2014-05-01T08:26:41Z</time>
      </trkpt>
      <trkpt lat="44.67521" lon="4.87327">
        <ele>530.7</ele>
        <time>2014-05-01T08:26:43Z</time>
      </trkpt>
      <trkpt lat="44.67517" lon="4.87324">
        <ele>530.9</ele>
        <time>2014-05-01T08:26:45Z</time>
      </trkpt>
      <trkpt lat="44.67513" lon="4.87318">
        <ele>531.2</ele>
        <time>2014-05-01T08:26:48Z</time>
      </trkpt>
      <trkpt lat="44.67507" lon="4.87313">
        <ele>531.6</ele>
        <time>2014-05-01T08:26:51Z</time>
      </trkpt>
      <trkpt lat="44.67503" lon="4.87308">
        <ele>532</ele>
        <time>2014-05-01T08:26:54Z</time>
      </trkpt>
      <trkpt lat="44.67498" lon="4.87303">
        <ele>532.3</ele>
        <time>2014-05-01T08:26:57Z</time>
      </trkpt>
      <trkpt lat="44.67494" lon="4.87298">
        <ele>532.7</ele>
        <time>2014-05-01T08:27:00Z</time>
      </trkpt>
      <trkpt lat="44.67489" lon="4.87292">
        <ele>533</ele>
        <time>2014-05-01T08:27:03Z</time>
      </trkpt>
      <trkpt lat="44.67485" lon="4.87286">
        <ele>533.3</ele>
        <time>2014-05-01T08:27:07Z</time>
      </trkpt>
      <trkpt lat="44.67481" lon="4.87279">
        <ele>533.7</ele>
        <time>2014-05-01T08:27:10Z</time>
      </trkpt>
      <trkpt lat="44.67478" lon="4.87273">
        <ele>533.8</ele>
        <time>2014-05-01T08:27:12Z</time>
      </trkpt>
      <trkpt lat="44.67476" lon="4.87268">
        <ele>533.8</ele>
        <time>2014-05-01T08:27:14Z</time>
      </trkpt>
      <trkpt lat="44.67472" lon="4.87264">
        <ele>534.2</ele>
        <time>2014-05-01T08:27:16Z</time>
      </trkpt>
      <trkpt lat="44.67468" lon="4.87256">
        <ele>534.6</ele>
        <time>2014-05-01T08:27:19Z</time>
      </trkpt>
      <trkpt lat="44.67462" lon="4.87242">
        <ele>534.8</ele>
        <time>2014-05-01T08:27:23Z</time>
      </trkpt>
      <trkpt lat="44.67459" lon="4.87236">
        <ele>534.8</ele>
        <time>2014-05-01T08:27:25Z</time>
      </trkpt>
      <trkpt lat="44.67456" lon="4.8723">
        <ele>534.6</ele>
        <time>2014-05-01T08:27:27Z</time>
      </trkpt>
      <trkpt lat="44.67453" lon="4.87224">
        <ele>534.8</ele>
        <time>2014-05-01T08:27:29Z</time>
      </trkpt>
      <trkpt lat="44.6745" lon="4.87219">
        <ele>534.8</ele>
        <time>2014-05-01T08:27:31Z</time>
      </trkpt>
      <trkpt lat="44.67447" lon="4.87213">
        <ele>534.8</ele>
        <time>2014-05-01T08:27:33Z</time>
      </trkpt>
      <trkpt lat="44.67444" lon="4.87207">
        <ele>535.1</ele>
        <time>2014-05-01T08:27:35Z</time>
      </trkpt>
      <trkpt lat="44.67441" lon="4.87202">
        <ele>535.2</ele>
        <time>2014-05-01T08:27:37Z</time>
      </trkpt>
      <trkpt lat="44.67438" lon="4.87196">
        <ele>535.3</ele>
        <time>2014-05-01T08:27:39Z</time>
      </trkpt>
      <trkpt lat="44.67435" lon="4.8719">
        <ele>535.7</ele>
        <time>2014-05-01T08:27:41Z</time>
      </trkpt>
      <trkpt lat="44.6743" lon="4.87185">
        <ele>536.2</ele>
        <time>2014-05-01T08:27:43Z</time>
      </trkpt>
      <trkpt lat="44.67425" lon="4.8718">
        <ele>537.1</ele>
        <time>2014-05-01T08:27:45Z</time>
      </trkpt>
      <trkpt lat="44.67419" lon="4.87174">
        <ele>537.9</ele>
        <time>2014-05-01T08:27:47Z</time>
      </trkpt>
      <trkpt lat="44.67414" lon="4.87169">
        <ele>538.7</ele>
        <time>2014-05-01T08:27:49Z</time>
      </trkpt>
      <trkpt lat="44.67408" lon="4.87165">
        <ele>539.5</ele>
        <time>2014-05-01T08:27:51Z</time>
      </trkpt>
      <trkpt lat="44.67402" lon="4.87162">
        <ele>540.1</ele>
        <time>2014-05-01T08:27:53Z</time>
      </trkpt>
      <trkpt lat="44.67396" lon="4.87159">
        <ele>540.9</ele>
        <time>2014-05-01T08:27:55Z</time>
      </trkpt>
      <trkpt lat="44.6739" lon="4.87157">
        <ele>541.7</ele>
        <time>2014-05-01T08:27:57Z</time>
      </trkpt>
      <trkpt lat="44.67385" lon="4.87154">
        <ele>542.5</ele>
        <time>2014-05-01T08:27:59Z</time>
      </trkpt>
      <trkpt lat="44.67379" lon="4.87152">
        <ele>543.3</ele>
        <time>2014-05-01T08:28:01Z</time>
      </trkpt>
      <trkpt lat="44.67374" lon="4.87149">
        <ele>544.1</ele>
        <time>2014-05-01T08:28:03Z</time>
      </trkpt>
      <trkpt lat="44.67368" lon="4.87146">
        <ele>545</ele>
        <time>2014-05-01T08:28:05Z</time>
      </trkpt>
      <trkpt lat="44.67361" lon="4.87142">
        <ele>545.9</ele>
        <time>2014-05-01T08:28:07Z</time>
      </trkpt>
      <trkpt lat="44.67355" lon="4.8714">
        <ele>547.1</ele>
        <time>2014-05-01T08:28:09Z</time>
      </trkpt>
      <trkpt lat="44.67348" lon="4.87137">
        <ele>548.3</ele>
        <time>2014-05-01T08:28:11Z</time>
      </trkpt>
      <trkpt lat="44.67341" lon="4.87134">
        <ele>549.5</ele>
        <time>2014-05-01T08:28:13Z</time>
      </trkpt>
      <trkpt lat="44.67335" lon="4.87132">
        <ele>550.8</ele>
        <time>2014-05-01T08:28:15Z</time>
      </trkpt>
      <trkpt lat="44.67328" lon="4.87131">
        <ele>551.1</ele>
        <time>2014-05-01T08:28:17Z</time>
      </trkpt>
      <trkpt lat="44.67322" lon="4.8713">
        <ele>551.2</ele>
        <time>2014-05-01T08:28:19Z</time>
      </trkpt>
      <trkpt lat="44.67315" lon="4.87128">
        <ele>551.3</ele>
        <time>2014-05-01T08:28:21Z</time>
      </trkpt>
      <trkpt lat="44.67303" lon="4.87124">
        <ele>551.5</ele>
        <time>2014-05-01T08:28:25Z</time>
      </trkpt>
      <trkpt lat="44.67297" lon="4.87121">
        <ele>551.6</ele>
        <time>2014-05-01T08:28:27Z</time>
      </trkpt>
      <trkpt lat="44.67292" lon="4.87119">
        <ele>551.8</ele>
        <time>2014-05-01T08:28:29Z</time>
      </trkpt>
      <trkpt lat="44.67286" lon="4.87115">
        <ele>551.9</ele>
        <time>2014-05-01T08:28:31Z</time>
      </trkpt>
      <trkpt lat="44.67281" lon="4.87112">
        <ele>552.1</ele>
        <time>2014-05-01T08:28:33Z</time>
      </trkpt>
      <trkpt lat="44.67275" lon="4.87108">
        <ele>552.3</ele>
        <time>2014-05-01T08:28:35Z</time>
      </trkpt>
      <trkpt lat="44.6727" lon="4.87103">
        <ele>552.5</ele>
        <time>2014-05-01T08:28:37Z</time>
      </trkpt>
      <trkpt lat="44.67265" lon="4.87099">
        <ele>552.8</ele>
        <time>2014-05-01T08:28:39Z</time>
      </trkpt>
      <trkpt lat="44.6726" lon="4.87094">
        <ele>553.1</ele>
        <time>2014-05-01T08:28:41Z</time>
      </trkpt>
      <trkpt lat="44.67256" lon="4.8709">
        <ele>553.4</ele>
        <time>2014-05-01T08:28:43Z</time>
      </trkpt>
      <trkpt lat="44.67251" lon="4.87085">
        <ele>553.9</ele>
        <time>2014-05-01T08:28:45Z</time>
      </trkpt>
      <trkpt lat="44.67245" lon="4.87081">
        <ele>554</ele>
        <time>2014-05-01T08:28:47Z</time>
      </trkpt>
      <trkpt lat="44.67241" lon="4.87077">
        <ele>553.9</ele>
        <time>2014-05-01T08:28:49Z</time>
      </trkpt>
      <trkpt lat="44.67236" lon="4.87073">
        <ele>553.9</ele>
        <time>2014-05-01T08:28:51Z</time>
      </trkpt>
      <trkpt lat="44.67232" lon="4.8707">
        <ele>553.9</ele>
        <time>2014-05-01T08:28:53Z</time>
      </trkpt>
      <trkpt lat="44.67226" lon="4.87066">
        <ele>554</ele>
        <time>2014-05-01T08:28:55Z</time>
      </trkpt>
      <trkpt lat="44.67221" lon="4.87063">
        <ele>554.2</ele>
        <time>2014-05-01T08:28:57Z</time>
      </trkpt>
      <trkpt lat="44.67216" lon="4.87058">
        <ele>554.2</ele>
        <time>2014-05-01T08:28:59Z</time>
      </trkpt>
      <trkpt lat="44.67211" lon="4.87054">
        <ele>554.3</ele>
        <time>2014-05-01T08:29:01Z</time>
      </trkpt>
      <trkpt lat="44.67206" lon="4.87051">
        <ele>554.6</ele>
        <time>2014-05-01T08:29:03Z</time>
      </trkpt>
      <trkpt lat="44.672" lon="4.87047">
        <ele>554.9</ele>
        <time>2014-05-01T08:29:05Z</time>
      </trkpt>
      <trkpt lat="44.67195" lon="4.87042">
        <ele>555.1</ele>
        <time>2014-05-01T08:29:07Z</time>
      </trkpt>
      <trkpt lat="44.67189" lon="4.87039">
        <ele>555.5</ele>
        <time>2014-05-01T08:29:09Z</time>
      </trkpt>
      <trkpt lat="44.67182" lon="4.87033">
        <ele>556</ele>
        <time>2014-05-01T08:29:11Z</time>
      </trkpt>
      <trkpt lat="44.67177" lon="4.87027">
        <ele>556.3</ele>
        <time>2014-05-01T08:29:13Z</time>
      </trkpt>
      <trkpt lat="44.67173" lon="4.8702">
        <ele>556.6</ele>
        <time>2014-05-01T08:29:15Z</time>
      </trkpt>
      <trkpt lat="44.67169" lon="4.87012">
        <ele>556.9</ele>
        <time>2014-05-01T08:29:17Z</time>
      </trkpt>
      <trkpt lat="44.67166" lon="4.87005">
        <ele>557.1</ele>
        <time>2014-05-01T08:29:19Z</time>
      </trkpt>
      <trkpt lat="44.67162" lon="4.86997">
        <ele>557</ele>
        <time>2014-05-01T08:29:21Z</time>
      </trkpt>
      <trkpt lat="44.67159" lon="4.8699">
        <ele>556.6</ele>
        <time>2014-05-01T08:29:23Z</time>
      </trkpt>
      <trkpt lat="44.67151" lon="4.86976">
        <ele>556</ele>
        <time>2014-05-01T08:29:27Z</time>
      </trkpt>
      <trkpt lat="44.67147" lon="4.8697">
        <ele>556.1</ele>
        <time>2014-05-01T08:29:29Z</time>
      </trkpt>
      <trkpt lat="44.67143" lon="4.86963">
        <ele>555.9</ele>
        <time>2014-05-01T08:29:31Z</time>
      </trkpt>
      <trkpt lat="44.67138" lon="4.86957">
        <ele>556.1</ele>
        <time>2014-05-01T08:29:33Z</time>
      </trkpt>
      <trkpt lat="44.67134" lon="4.8695">
        <ele>556.3</ele>
        <time>2014-05-01T08:29:35Z</time>
      </trkpt>
      <trkpt lat="44.67129" lon="4.86944">
        <ele>556.6</ele>
        <time>2014-05-01T08:29:37Z</time>
      </trkpt>
      <trkpt lat="44.67124" lon="4.86938">
        <ele>556.9</ele>
        <time>2014-05-01T08:29:39Z</time>
      </trkpt>
      <trkpt lat="44.67119" lon="4.86933">
        <ele>557.4</ele>
        <time>2014-05-01T08:29:41Z</time>
      </trkpt>
      <trkpt lat="44.67113" lon="4.86927">
        <ele>558.1</ele>
        <time>2014-05-01T08:29:43Z</time>
      </trkpt>
      <trkpt lat="44.67107" lon="4.86922">
        <ele>558.9</ele>
        <time>2014-05-01T08:29:45Z</time>
      </trkpt>
      <trkpt lat="44.67101" lon="4.86916">
        <ele>559.6</ele>
        <time>2014-05-01T08:29:47Z</time>
      </trkpt>
      <trkpt lat="44.67095" lon="4.8691">
        <ele>560.2</ele>
        <time>2014-05-01T08:29:49Z</time>
      </trkpt>
      <trkpt lat="44.67089" lon="4.86905">
        <ele>560.7</ele>
        <time>2014-05-01T08:29:51Z</time>
      </trkpt>
      <trkpt lat="44.67083" lon="4.86899">
        <ele>561.2</ele>
        <time>2014-05-01T08:29:53Z</time>
      </trkpt>
      <trkpt lat="44.67076" lon="4.86893">
        <ele>560.5</ele>
        <time>2014-05-01T08:29:55Z</time>
      </trkpt>
      <trkpt lat="44.6707" lon="4.86886">
        <ele>559.9</ele>
        <time>2014-05-01T08:29:57Z</time>
      </trkpt>
      <trkpt lat="44.67063" lon="4.8688">
        <ele>559.2</ele>
        <time>2014-05-01T08:29:59Z</time>
      </trkpt>
      <trkpt lat="44.67056" lon="4.86874">
        <ele>558.7</ele>
        <time>2014-05-01T08:30:01Z</time>
      </trkpt>
      <trkpt lat="44.67049" lon="4.86868">
        <ele>558.2</ele>
        <time>2014-05-01T08:30:03Z</time>
      </trkpt>
      <trkpt lat="44.67042" lon="4.86864">
        <ele>557.8</ele>
        <time>2014-05-01T08:30:05Z</time>
      </trkpt>
      <trkpt lat="44.67035" lon="4.86859">
        <ele>557.5</ele>
        <time>2014-05-01T08:30:07Z</time>
      </trkpt>
      <trkpt lat="44.67028" lon="4.86856">
        <ele>557.3</ele>
        <time>2014-05-01T08:30:09Z</time>
      </trkpt>
      <trkpt lat="44.6702" lon="4.86852">
        <ele>557</ele>
        <time>2014-05-01T08:30:11Z</time>
      </trkpt>
      <trkpt lat="44.67013" lon="4.86849">
        <ele>556.9</ele>
        <time>2014-05-01T08:30:13Z</time>
      </trkpt>
      <trkpt lat="44.67006" lon="4.86846">
        <ele>556.7</ele>
        <time>2014-05-01T08:30:15Z</time>
      </trkpt>
      <trkpt lat="44.66998" lon="4.86842">
        <ele>556.5</ele>
        <time>2014-05-01T08:30:17Z</time>
      </trkpt>
      <trkpt lat="44.66991" lon="4.86835">
        <ele>556.1</ele>
        <time>2014-05-01T08:30:19Z</time>
      </trkpt>
      <trkpt lat="44.66987" lon="4.86832">
        <ele>555.6</ele>
        <time>2014-05-01T08:30:20Z</time>
      </trkpt>
      <trkpt lat="44.66983" lon="4.86828">
        <ele>555.1</ele>
        <time>2014-05-01T08:30:21Z</time>
      </trkpt>
      <trkpt lat="44.66979" lon="4.86824">
        <ele>554.8</ele>
        <time>2014-05-01T08:30:22Z</time>
      </trkpt>
      <trkpt lat="44.66975" lon="4.8682">
        <ele>554.4</ele>
        <time>2014-05-01T08:30:23Z</time>
      </trkpt>
      <trkpt lat="44.66971" lon="4.86816">
        <ele>553.8</ele>
        <time>2014-05-01T08:30:24Z</time>
      </trkpt>
      <trkpt lat="44.66963" lon="4.86807">
        <ele>552.8</ele>
        <time>2014-05-01T08:30:26Z</time>
      </trkpt>
      <trkpt lat="44.6696" lon="4.86801">
        <ele>552.3</ele>
        <time>2014-05-01T08:30:27Z</time>
      </trkpt>
      <trkpt lat="44.66956" lon="4.86796">
        <ele>551.8</ele>
        <time>2014-05-01T08:30:28Z</time>
      </trkpt>
      <trkpt lat="44.66952" lon="4.86791">
        <ele>551.3</ele>
        <time>2014-05-01T08:30:29Z</time>
      </trkpt>
      <trkpt lat="44.66948" lon="4.86785">
        <ele>550.9</ele>
        <time>2014-05-01T08:30:30Z</time>
      </trkpt>
      <trkpt lat="44.66945" lon="4.8678">
        <ele>550.4</ele>
        <time>2014-05-01T08:30:31Z</time>
      </trkpt>
      <trkpt lat="44.66941" lon="4.86776">
        <ele>550.1</ele>
        <time>2014-05-01T08:30:32Z</time>
      </trkpt>
      <trkpt lat="44.66937" lon="4.8677">
        <ele>549.7</ele>
        <time>2014-05-01T08:30:33Z</time>
      </trkpt>
      <trkpt lat="44.66933" lon="4.86765">
        <ele>549.4</ele>
        <time>2014-05-01T08:30:34Z</time>
      </trkpt>
      <trkpt lat="44.66929" lon="4.86759">
        <ele>549.1</ele>
        <time>2014-05-01T08:30:35Z</time>
      </trkpt>
      <trkpt lat="44.66924" lon="4.86754">
        <ele>548.8</ele>
        <time>2014-05-01T08:30:36Z</time>
      </trkpt>
      <trkpt lat="44.6692" lon="4.86748">
        <ele>548.6</ele>
        <time>2014-05-01T08:30:37Z</time>
      </trkpt>
      <trkpt lat="44.66915" lon="4.86742">
        <ele>548.2</ele>
        <time>2014-05-01T08:30:38Z</time>
      </trkpt>
      <trkpt lat="44.6691" lon="4.86736">
        <ele>547.9</ele>
        <time>2014-05-01T08:30:39Z</time>
      </trkpt>
      <trkpt lat="44.66906" lon="4.8673">
        <ele>547.5</ele>
        <time>2014-05-01T08:30:40Z</time>
      </trkpt>
      <trkpt lat="44.66902" lon="4.86724">
        <ele>547.1</ele>
        <time>2014-05-01T08:30:41Z</time>
      </trkpt>
      <trkpt lat="44.66898" lon="4.86718">
        <ele>546.8</ele>
        <time>2014-05-01T08:30:42Z</time>
      </trkpt>
      <trkpt lat="44.66894" lon="4.86712">
        <ele>546.5</ele>
        <time>2014-05-01T08:30:43Z</time>
      </trkpt>
      <trkpt lat="44.6689" lon="4.86706">
        <ele>546.2</ele>
        <time>2014-05-01T08:30:44Z</time>
      </trkpt>
      <trkpt lat="44.66885" lon="4.86701">
        <ele>546</ele>
        <time>2014-05-01T08:30:45Z</time>
      </trkpt>
      <trkpt lat="44.66881" lon="4.86697">
        <ele>546</ele>
        <time>2014-05-01T08:30:46Z</time>
      </trkpt>
      <trkpt lat="44.66877" lon="4.86693">
        <ele>545.9</ele>
        <time>2014-05-01T08:30:47Z</time>
      </trkpt>
      <trkpt lat="44.66873" lon="4.86689">
        <ele>545.8</ele>
        <time>2014-05-01T08:30:48Z</time>
      </trkpt>
      <trkpt lat="44.66868" lon="4.86685">
        <ele>545.8</ele>
        <time>2014-05-01T08:30:49Z</time>
      </trkpt>
      <trkpt lat="44.66864" lon="4.86682">
        <ele>545.9</ele>
        <time>2014-05-01T08:30:50Z</time>
      </trkpt>
      <trkpt lat="44.66859" lon="4.86679">
        <ele>546</ele>
        <time>2014-05-01T08:30:51Z</time>
      </trkpt>
      <trkpt lat="44.66854" lon="4.86678">
        <ele>546.2</ele>
        <time>2014-05-01T08:30:52Z</time>
      </trkpt>
      <trkpt lat="44.66847" lon="4.86676">
        <ele>546.6</ele>
        <time>2014-05-01T08:30:54Z</time>
      </trkpt>
      <trkpt lat="44.66841" lon="4.86675">
        <ele>546.9</ele>
        <time>2014-05-01T08:30:56Z</time>
      </trkpt>
      <trkpt lat="44.66835" lon="4.86675">
        <ele>547.4</ele>
        <time>2014-05-01T08:30:59Z</time>
      </trkpt>
      <trkpt lat="44.66839" lon="4.86669">
        <ele>546.7</ele>
        <time>2014-05-01T08:31:08Z</time>
      </trkpt>
      <trkpt lat="44.66845" lon="4.86668">
        <ele>546.2</ele>
        <time>2014-05-01T08:31:11Z</time>
      </trkpt>
      <trkpt lat="44.66851" lon="4.86665">
        <ele>545.4</ele>
        <time>2014-05-01T08:31:14Z</time>
      </trkpt>
      <trkpt lat="44.66856" lon="4.86661">
        <ele>544.5</ele>
        <time>2014-05-01T08:31:16Z</time>
      </trkpt>
      <trkpt lat="44.66861" lon="4.8666">
        <ele>543.8</ele>
        <time>2014-05-01T08:31:18Z</time>
      </trkpt>
      <trkpt lat="44.66866" lon="4.86658">
        <ele>543.2</ele>
        <time>2014-05-01T08:31:20Z</time>
      </trkpt>
      <trkpt lat="44.66872" lon="4.86653">
        <ele>542</ele>
        <time>2014-05-01T08:31:22Z</time>
      </trkpt>
      <trkpt lat="44.66879" lon="4.86649">
        <ele>540.9</ele>
        <time>2014-05-01T08:31:24Z</time>
      </trkpt>
      <trkpt lat="44.66885" lon="4.86646">
        <ele>539.8</ele>
        <time>2014-05-01T08:31:26Z</time>
      </trkpt>
      <trkpt lat="44.66896" lon="4.86645">
        <ele>539</ele>
        <time>2014-05-01T08:31:31Z</time>
      </trkpt>
      <trkpt lat="44.66901" lon="4.86646">
        <ele>538.9</ele>
        <time>2014-05-01T08:31:34Z</time>
      </trkpt>
      <trkpt lat="44.66906" lon="4.86649">
        <ele>538.9</ele>
        <time>2014-05-01T08:31:37Z</time>
      </trkpt>
      <trkpt lat="44.66912" lon="4.86651">
        <ele>538.7</ele>
        <time>2014-05-01T08:31:40Z</time>
      </trkpt>
      <trkpt lat="44.66919" lon="4.86653">
        <ele>538.4</ele>
        <time>2014-05-01T08:31:43Z</time>
      </trkpt>
      <trkpt lat="44.66926" lon="4.86656">
        <ele>537.9</ele>
        <time>2014-05-01T08:31:45Z</time>
      </trkpt>
      <trkpt lat="44.66933" lon="4.8666">
        <ele>537.1</ele>
        <time>2014-05-01T08:31:47Z</time>
      </trkpt>
      <trkpt lat="44.66938" lon="4.86661">
        <ele>536.5</ele>
        <time>2014-05-01T08:31:49Z</time>
      </trkpt>
      <trkpt lat="44.66942" lon="4.86665">
        <ele>536.5</ele>
        <time>2014-05-01T08:31:51Z</time>
      </trkpt>
      <trkpt lat="44.66947" lon="4.86668">
        <ele>536.5</ele>
        <time>2014-05-01T08:31:53Z</time>
      </trkpt>
      <trkpt lat="44.6695" lon="4.86673">
        <ele>536.6</ele>
        <time>2014-05-01T08:31:55Z</time>
      </trkpt>
      <trkpt lat="44.66954" lon="4.86676">
        <ele>536.4</ele>
        <time>2014-05-01T08:31:57Z</time>
      </trkpt>
      <trkpt lat="44.66961" lon="4.86681">
        <ele>536.2</ele>
        <time>2014-05-01T08:31:59Z</time>
      </trkpt>
      <trkpt lat="44.66967" lon="4.86686">
        <ele>535.9</ele>
        <time>2014-05-01T08:32:01Z</time>
      </trkpt>
      <trkpt lat="44.66972" lon="4.8669">
        <ele>535.9</ele>
        <time>2014-05-01T08:32:03Z</time>
      </trkpt>
      <trkpt lat="44.66976" lon="4.86694">
        <ele>536</ele>
        <time>2014-05-01T08:32:05Z</time>
      </trkpt>
      <trkpt lat="44.66982" lon="4.86698">
        <ele>536.2</ele>
        <time>2014-05-01T08:32:07Z</time>
      </trkpt>
      <trkpt lat="44.66986" lon="4.86702">
        <ele>536.4</ele>
        <time>2014-05-01T08:32:09Z</time>
      </trkpt>
      <trkpt lat="44.66992" lon="4.86707">
        <ele>536.6</ele>
        <time>2014-05-01T08:32:11Z</time>
      </trkpt>
      <trkpt lat="44.66997" lon="4.86712">
        <ele>537.1</ele>
        <time>2014-05-01T08:32:13Z</time>
      </trkpt>
      <trkpt lat="44.67004" lon="4.86719">
        <ele>537.5</ele>
        <time>2014-05-01T08:32:15Z</time>
      </trkpt>
      <trkpt lat="44.67008" lon="4.86721">
        <ele>537.6</ele>
        <time>2014-05-01T08:32:16Z</time>
      </trkpt>
      <trkpt lat="44.67013" lon="4.86726">
        <ele>537.7</ele>
        <time>2014-05-01T08:32:18Z</time>
      </trkpt>
      <trkpt lat="44.67018" lon="4.86731">
        <ele>538.3</ele>
        <time>2014-05-01T08:32:20Z</time>
      </trkpt>
      <trkpt lat="44.67023" lon="4.86735">
        <ele>538.6</ele>
        <time>2014-05-01T08:32:22Z</time>
      </trkpt>
      <trkpt lat="44.6703" lon="4.86739">
        <ele>538.8</ele>
        <time>2014-05-01T08:32:24Z</time>
      </trkpt>
      <trkpt lat="44.67035" lon="4.86744">
        <ele>539.5</ele>
        <time>2014-05-01T08:32:27Z</time>
      </trkpt>
      <trkpt lat="44.67045" lon="4.86753">
        <ele>540.6</ele>
        <time>2014-05-01T08:32:31Z</time>
      </trkpt>
      <trkpt lat="44.67051" lon="4.86757">
        <ele>540.9</ele>
        <time>2014-05-01T08:32:33Z</time>
      </trkpt>
      <trkpt lat="44.67056" lon="4.86761">
        <ele>541.3</ele>
        <time>2014-05-01T08:32:35Z</time>
      </trkpt>
      <trkpt lat="44.67063" lon="4.86765">
        <ele>541.6</ele>
        <time>2014-05-01T08:32:38Z</time>
      </trkpt>
      <trkpt lat="44.67067" lon="4.8677">
        <ele>542.3</ele>
        <time>2014-05-01T08:32:40Z</time>
      </trkpt>
      <trkpt lat="44.67072" lon="4.86774">
        <ele>542.8</ele>
        <time>2014-05-01T08:32:42Z</time>
      </trkpt>
      <trkpt lat="44.67077" lon="4.86778">
        <ele>543.3</ele>
        <time>2014-05-01T08:32:44Z</time>
      </trkpt>
      <trkpt lat="44.6708" lon="4.86783">
        <ele>544.2</ele>
        <time>2014-05-01T08:32:46Z</time>
      </trkpt>
      <trkpt lat="44.67084" lon="4.86787">
        <ele>544.7</ele>
        <time>2014-05-01T08:32:48Z</time>
      </trkpt>
      <trkpt lat="44.67089" lon="4.86792">
        <ele>544.8</ele>
        <time>2014-05-01T08:32:51Z</time>
      </trkpt>
      <trkpt lat="44.67093" lon="4.86797">
        <ele>545.3</ele>
        <time>2014-05-01T08:32:53Z</time>
      </trkpt>
      <trkpt lat="44.67097" lon="4.868">
        <ele>545</ele>
        <time>2014-05-01T08:32:55Z</time>
      </trkpt>
      <trkpt lat="44.67104" lon="4.86805">
        <ele>544.7</ele>
        <time>2014-05-01T08:32:58Z</time>
      </trkpt>
      <trkpt lat="44.67111" lon="4.86808">
        <ele>543.8</ele>
        <time>2014-05-01T08:33:00Z</time>
      </trkpt>
      <trkpt lat="44.67118" lon="4.86812">
        <ele>543.4</ele>
        <time>2014-05-01T08:33:02Z</time>
      </trkpt>
      <trkpt lat="44.67123" lon="4.86816">
        <ele>543</ele>
        <time>2014-05-01T08:33:04Z</time>
      </trkpt>
      <trkpt lat="44.67129" lon="4.8682">
        <ele>542.6</ele>
        <time>2014-05-01T08:33:06Z</time>
      </trkpt>
      <trkpt lat="44.67136" lon="4.86824">
        <ele>542.4</ele>
        <time>2014-05-01T08:33:08Z</time>
      </trkpt>
      <trkpt lat="44.67142" lon="4.8683">
        <ele>542.2</ele>
        <time>2014-05-01T08:33:10Z</time>
      </trkpt>
      <trkpt lat="44.67147" lon="4.86837">
        <ele>542.3</ele>
        <time>2014-05-01T08:33:12Z</time>
      </trkpt>
      <trkpt lat="44.67153" lon="4.86841">
        <ele>541.5</ele>
        <time>2014-05-01T08:33:14Z</time>
      </trkpt>
      <trkpt lat="44.6716" lon="4.86846">
        <ele>540.9</ele>
        <time>2014-05-01T08:33:16Z</time>
      </trkpt>
      <trkpt lat="44.67163" lon="4.86851">
        <ele>540.7</ele>
        <time>2014-05-01T08:33:17Z</time>
      </trkpt>
      <trkpt lat="44.67168" lon="4.86857">
        <ele>540.4</ele>
        <time>2014-05-01T08:33:19Z</time>
      </trkpt>
      <trkpt lat="44.67174" lon="4.86862">
        <ele>539.3</ele>
        <time>2014-05-01T08:33:21Z</time>
      </trkpt>
      <trkpt lat="44.67179" lon="4.86869">
        <ele>538.9</ele>
        <time>2014-05-01T08:33:23Z</time>
      </trkpt>
      <trkpt lat="44.67186" lon="4.86875">
        <ele>538</ele>
        <time>2014-05-01T08:33:25Z</time>
      </trkpt>
      <trkpt lat="44.67193" lon="4.8688">
        <ele>537.2</ele>
        <time>2014-05-01T08:33:27Z</time>
      </trkpt>
      <trkpt lat="44.67198" lon="4.86888">
        <ele>537.1</ele>
        <time>2014-05-01T08:33:29Z</time>
      </trkpt>
      <trkpt lat="44.67209" lon="4.86899">
        <ele>536.4</ele>
        <time>2014-05-01T08:33:33Z</time>
      </trkpt>
      <trkpt lat="44.67213" lon="4.86906">
        <ele>536.8</ele>
        <time>2014-05-01T08:33:35Z</time>
      </trkpt>
      <trkpt lat="44.67218" lon="4.86911">
        <ele>536.4</ele>
        <time>2014-05-01T08:33:37Z</time>
      </trkpt>
      <trkpt lat="44.67223" lon="4.86916">
        <ele>536.2</ele>
        <time>2014-05-01T08:33:39Z</time>
      </trkpt>
      <trkpt lat="44.67228" lon="4.8692">
        <ele>535.9</ele>
        <time>2014-05-01T08:33:41Z</time>
      </trkpt>
      <trkpt lat="44.67232" lon="4.86925">
        <ele>536</ele>
        <time>2014-05-01T08:33:43Z</time>
      </trkpt>
      <trkpt lat="44.67238" lon="4.86931">
        <ele>536.1</ele>
        <time>2014-05-01T08:33:45Z</time>
      </trkpt>
      <trkpt lat="44.67243" lon="4.86939">
        <ele>536.5</ele>
        <time>2014-05-01T08:33:47Z</time>
      </trkpt>
      <trkpt lat="44.67246" lon="4.86945">
        <ele>537</ele>
        <time>2014-05-01T08:33:48Z</time>
      </trkpt>
      <trkpt lat="44.67249" lon="4.8695">
        <ele>537.4</ele>
        <time>2014-05-01T08:33:49Z</time>
      </trkpt>
      <trkpt lat="44.67256" lon="4.86957">
        <ele>537.3</ele>
        <time>2014-05-01T08:33:51Z</time>
      </trkpt>
      <trkpt lat="44.67261" lon="4.86963">
        <ele>536.7</ele>
        <time>2014-05-01T08:33:53Z</time>
      </trkpt>
      <trkpt lat="44.67268" lon="4.8697">
        <ele>536.6</ele>
        <time>2014-05-01T08:33:55Z</time>
      </trkpt>
      <trkpt lat="44.67274" lon="4.86978">
        <ele>536.4</ele>
        <time>2014-05-01T08:33:57Z</time>
      </trkpt>
      <trkpt lat="44.6728" lon="4.86985">
        <ele>536.5</ele>
        <time>2014-05-01T08:33:59Z</time>
      </trkpt>
      <trkpt lat="44.67284" lon="4.86989">
        <ele>536.3</ele>
        <time>2014-05-01T08:34:00Z</time>
      </trkpt>
      <trkpt lat="44.67291" lon="4.86997">
        <ele>536.4</ele>
        <time>2014-05-01T08:34:02Z</time>
      </trkpt>
      <trkpt lat="44.67298" lon="4.87003">
        <ele>536</ele>
        <time>2014-05-01T08:34:04Z</time>
      </trkpt>
      <trkpt lat="44.67304" lon="4.8701">
        <ele>535.6</ele>
        <time>2014-05-01T08:34:06Z</time>
      </trkpt>
      <trkpt lat="44.67311" lon="4.87017">
        <ele>535.7</ele>
        <time>2014-05-01T08:34:08Z</time>
      </trkpt>
      <trkpt lat="44.67315" lon="4.87021">
        <ele>535.4</ele>
        <time>2014-05-01T08:34:09Z</time>
      </trkpt>
      <trkpt lat="44.67319" lon="4.87024">
        <ele>535.4</ele>
        <time>2014-05-01T08:34:10Z</time>
      </trkpt>
      <trkpt lat="44.67325" lon="4.87027">
        <ele>534.9</ele>
        <time>2014-05-01T08:34:11Z</time>
      </trkpt>
      <trkpt lat="44.67329" lon="4.8703">
        <ele>534.9</ele>
        <time>2014-05-01T08:34:12Z</time>
      </trkpt>
      <trkpt lat="44.67334" lon="4.87034">
        <ele>535</ele>
        <time>2014-05-01T08:34:13Z</time>
      </trkpt>
      <trkpt lat="44.67338" lon="4.87039">
        <ele>534.8</ele>
        <time>2014-05-01T08:34:14Z</time>
      </trkpt>
      <trkpt lat="44.67344" lon="4.87043">
        <ele>533.8</ele>
        <time>2014-05-01T08:34:15Z</time>
      </trkpt>
      <trkpt lat="44.6735" lon="4.87048">
        <ele>533.6</ele>
        <time>2014-05-01T08:34:16Z</time>
      </trkpt>
      <trkpt lat="44.67355" lon="4.87052">
        <ele>533.1</ele>
        <time>2014-05-01T08:34:17Z</time>
      </trkpt>
      <trkpt lat="44.67361" lon="4.87058">
        <ele>532.8</ele>
        <time>2014-05-01T08:34:18Z</time>
      </trkpt>
      <trkpt lat="44.6737" lon="4.87063">
        <ele>531.6</ele>
        <time>2014-05-01T08:34:19Z</time>
      </trkpt>
      <trkpt lat="44.67376" lon="4.87067">
        <ele>531</ele>
        <time>2014-05-01T08:34:20Z</time>
      </trkpt>
      <trkpt lat="44.67383" lon="4.87072">
        <ele>530.6</ele>
        <time>2014-05-01T08:34:22Z</time>
      </trkpt>
      <trkpt lat="44.67388" lon="4.87077">
        <ele>530.6</ele>
        <time>2014-05-01T08:34:24Z</time>
      </trkpt>
      <trkpt lat="44.67394" lon="4.87083">
        <ele>530.5</ele>
        <time>2014-05-01T08:34:26Z</time>
      </trkpt>
      <trkpt lat="44.674" lon="4.87089">
        <ele>530.1</ele>
        <time>2014-05-01T08:34:28Z</time>
      </trkpt>
      <trkpt lat="44.67407" lon="4.87097">
        <ele>529.4</ele>
        <time>2014-05-01T08:34:30Z</time>
      </trkpt>
      <trkpt lat="44.67416" lon="4.87111">
        <ele>529.5</ele>
        <time>2014-05-01T08:34:33Z</time>
      </trkpt>
      <trkpt lat="44.6742" lon="4.87119">
        <ele>529.4</ele>
        <time>2014-05-01T08:34:35Z</time>
      </trkpt>
      <trkpt lat="44.67424" lon="4.87126">
        <ele>529.3</ele>
        <time>2014-05-01T08:34:37Z</time>
      </trkpt>
      <trkpt lat="44.67428" lon="4.87133">
        <ele>529.5</ele>
        <time>2014-05-01T08:34:39Z</time>
      </trkpt>
      <trkpt lat="44.67432" lon="4.87139">
        <ele>529</ele>
        <time>2014-05-01T08:34:41Z</time>
      </trkpt>
      <trkpt lat="44.67437" lon="4.87145">
        <ele>528.7</ele>
        <time>2014-05-01T08:34:43Z</time>
      </trkpt>
      <trkpt lat="44.67442" lon="4.87152">
        <ele>528.4</ele>
        <time>2014-05-01T08:34:45Z</time>
      </trkpt>
      <trkpt lat="44.67448" lon="4.87159">
        <ele>528.4</ele>
        <time>2014-05-01T08:34:47Z</time>
      </trkpt>
      <trkpt lat="44.67453" lon="4.87167">
        <ele>528.4</ele>
        <time>2014-05-01T08:34:49Z</time>
      </trkpt>
      <trkpt lat="44.67459" lon="4.87175">
        <ele>527.6</ele>
        <time>2014-05-01T08:34:51Z</time>
      </trkpt>
      <trkpt lat="44.67463" lon="4.8718">
        <ele>527.3</ele>
        <time>2014-05-01T08:34:52Z</time>
      </trkpt>
      <trkpt lat="44.67466" lon="4.87185">
        <ele>527.2</ele>
        <time>2014-05-01T08:34:53Z</time>
      </trkpt>
      <trkpt lat="44.67471" lon="4.87195">
        <ele>526.8</ele>
        <time>2014-05-01T08:34:55Z</time>
      </trkpt>
      <trkpt lat="44.67478" lon="4.87204">
        <ele>526.4</ele>
        <time>2014-05-01T08:34:57Z</time>
      </trkpt>
      <trkpt lat="44.67481" lon="4.87208">
        <ele>526</ele>
        <time>2014-05-01T08:34:58Z</time>
      </trkpt>
      <trkpt lat="44.67486" lon="4.87215">
        <ele>525.7</ele>
        <time>2014-05-01T08:35:00Z</time>
      </trkpt>
      <trkpt lat="44.67492" lon="4.87225">
        <ele>525.5</ele>
        <time>2014-05-01T08:35:02Z</time>
      </trkpt>
      <trkpt lat="44.67498" lon="4.87232">
        <ele>525</ele>
        <time>2014-05-01T08:35:04Z</time>
      </trkpt>
      <trkpt lat="44.67504" lon="4.87239">
        <ele>524.4</ele>
        <time>2014-05-01T08:35:06Z</time>
      </trkpt>
      <trkpt lat="44.6751" lon="4.87243">
        <ele>523.5</ele>
        <time>2014-05-01T08:35:08Z</time>
      </trkpt>
      <trkpt lat="44.67516" lon="4.87251">
        <ele>523</ele>
        <time>2014-05-01T08:35:10Z</time>
      </trkpt>
      <trkpt lat="44.67521" lon="4.87259">
        <ele>522.7</ele>
        <time>2014-05-01T08:35:12Z</time>
      </trkpt>
      <trkpt lat="44.67526" lon="4.87266">
        <ele>522.3</ele>
        <time>2014-05-01T08:35:14Z</time>
      </trkpt>
      <trkpt lat="44.67531" lon="4.87275">
        <ele>522.3</ele>
        <time>2014-05-01T08:35:16Z</time>
      </trkpt>
      <trkpt lat="44.67536" lon="4.87284">
        <ele>522.3</ele>
        <time>2014-05-01T08:35:18Z</time>
      </trkpt>
      <trkpt lat="44.6754" lon="4.87288">
        <ele>522.1</ele>
        <time>2014-05-01T08:35:19Z</time>
      </trkpt>
      <trkpt lat="44.67544" lon="4.87293">
        <ele>522</ele>
        <time>2014-05-01T08:35:20Z</time>
      </trkpt>
      <trkpt lat="44.67548" lon="4.87298">
        <ele>521.7</ele>
        <time>2014-05-01T08:35:21Z</time>
      </trkpt>
      <trkpt lat="44.67552" lon="4.87303">
        <ele>521.5</ele>
        <time>2014-05-01T08:35:22Z</time>
      </trkpt>
      <trkpt lat="44.67557" lon="4.87309">
        <ele>521.7</ele>
        <time>2014-05-01T08:35:23Z</time>
      </trkpt>
      <trkpt lat="44.67561" lon="4.87313">
        <ele>521.6</ele>
        <time>2014-05-01T08:35:24Z</time>
      </trkpt>
      <trkpt lat="44.67564" lon="4.87318">
        <ele>521.8</ele>
        <time>2014-05-01T08:35:25Z</time>
      </trkpt>
      <trkpt lat="44.67567" lon="4.87322">
        <ele>521.8</ele>
        <time>2014-05-01T08:35:26Z</time>
      </trkpt>
      <trkpt lat="44.67571" lon="4.87327">
        <ele>521.9</ele>
        <time>2014-05-01T08:35:27Z</time>
      </trkpt>
      <trkpt lat="44.67577" lon="4.87335">
        <ele>522.1</ele>
        <time>2014-05-01T08:35:29Z</time>
      </trkpt>
      <trkpt lat="44.67582" lon="4.87343">
        <ele>522.1</ele>
        <time>2014-05-01T08:35:31Z</time>
      </trkpt>
      <trkpt lat="44.6759" lon="4.87353">
        <ele>521.4</ele>
        <time>2014-05-01T08:35:35Z</time>
      </trkpt>
      <trkpt lat="44.67597" lon="4.87362">
        <ele>520.8</ele>
        <time>2014-05-01T08:35:37Z</time>
      </trkpt>
      <trkpt lat="44.67602" lon="4.87367">
        <ele>520.4</ele>
        <time>2014-05-01T08:35:38Z</time>
      </trkpt>
      <trkpt lat="44.67606" lon="4.87372">
        <ele>520</ele>
        <time>2014-05-01T08:35:39Z</time>
      </trkpt>
      <trkpt lat="44.6761" lon="4.87377">
        <ele>519.8</ele>
        <time>2014-05-01T08:35:40Z</time>
      </trkpt>
      <trkpt lat="44.67614" lon="4.87382">
        <ele>519.7</ele>
        <time>2014-05-01T08:35:41Z</time>
      </trkpt>
      <trkpt lat="44.67618" lon="4.87387">
        <ele>519.6</ele>
        <time>2014-05-01T08:35:42Z</time>
      </trkpt>
      <trkpt lat="44.67621" lon="4.87391">
        <ele>519.4</ele>
        <time>2014-05-01T08:35:43Z</time>
      </trkpt>
      <trkpt lat="44.67624" lon="4.87396">
        <ele>519.5</ele>
        <time>2014-05-01T08:35:44Z</time>
      </trkpt>
      <trkpt lat="44.6763" lon="4.87404">
        <ele>519.4</ele>
        <time>2014-05-01T08:35:46Z</time>
      </trkpt>
      <trkpt lat="44.67636" lon="4.87412">
        <ele>519.4</ele>
        <time>2014-05-01T08:35:48Z</time>
      </trkpt>
      <trkpt lat="44.67639" lon="4.87417">
        <ele>519.6</ele>
        <time>2014-05-01T08:35:49Z</time>
      </trkpt>
      <trkpt lat="44.67645" lon="4.87426">
        <ele>519.5</ele>
        <time>2014-05-01T08:35:51Z</time>
      </trkpt>
      <trkpt lat="44.6765" lon="4.87433">
        <ele>519.3</ele>
        <time>2014-05-01T08:35:52Z</time>
      </trkpt>
      <trkpt lat="44.67653" lon="4.87438">
        <ele>519.3</ele>
        <time>2014-05-01T08:35:53Z</time>
      </trkpt>
      <trkpt lat="44.6766" lon="4.87448">
        <ele>519.3</ele>
        <time>2014-05-01T08:35:55Z</time>
      </trkpt>
      <trkpt lat="44.67667" lon="4.87457">
        <ele>519.4</ele>
        <time>2014-05-01T08:35:57Z</time>
      </trkpt>
      <trkpt lat="44.6767" lon="4.87462">
        <ele>519</ele>
        <time>2014-05-01T08:35:58Z</time>
      </trkpt>
      <trkpt lat="44.67673" lon="4.87467">
        <ele>518.8</ele>
        <time>2014-05-01T08:35:59Z</time>
      </trkpt>
      <trkpt lat="44.67676" lon="4.87472">
        <ele>518.6</ele>
        <time>2014-05-01T08:36:00Z</time>
      </trkpt>
      <trkpt lat="44.6768" lon="4.87477">
        <ele>518.4</ele>
        <time>2014-05-01T08:36:01Z</time>
      </trkpt>
      <trkpt lat="44.67685" lon="4.87484">
        <ele>517.9</ele>
        <time>2014-05-01T08:36:03Z</time>
      </trkpt>
      <trkpt lat="44.6769" lon="4.8749">
        <ele>517.5</ele>
        <time>2014-05-01T08:36:05Z</time>
      </trkpt>
      <trkpt lat="44.67697" lon="4.87497">
        <ele>516.7</ele>
        <time>2014-05-01T08:36:07Z</time>
      </trkpt>
      <trkpt lat="44.677" lon="4.87502">
        <ele>516.4</ele>
        <time>2014-05-01T08:36:08Z</time>
      </trkpt>
      <trkpt lat="44.67707" lon="4.87511">
        <ele>515.5</ele>
        <time>2014-05-01T08:36:10Z</time>
      </trkpt>
      <trkpt lat="44.67711" lon="4.87515">
        <ele>514.9</ele>
        <time>2014-05-01T08:36:11Z</time>
      </trkpt>
      <trkpt lat="44.67713" lon="4.8752">
        <ele>514.7</ele>
        <time>2014-05-01T08:36:12Z</time>
      </trkpt>
      <trkpt lat="44.67719" lon="4.87529">
        <ele>514.2</ele>
        <time>2014-05-01T08:36:14Z</time>
      </trkpt>
      <trkpt lat="44.67722" lon="4.87534">
        <ele>513.9</ele>
        <time>2014-05-01T08:36:15Z</time>
      </trkpt>
      <trkpt lat="44.67729" lon="4.87543">
        <ele>513.2</ele>
        <time>2014-05-01T08:36:17Z</time>
      </trkpt>
      <trkpt lat="44.67736" lon="4.87552">
        <ele>512.6</ele>
        <time>2014-05-01T08:36:19Z</time>
      </trkpt>
      <trkpt lat="44.6774" lon="4.87557">
        <ele>512.3</ele>
        <time>2014-05-01T08:36:20Z</time>
      </trkpt>
      <trkpt lat="44.67743" lon="4.87563">
        <ele>512.3</ele>
        <time>2014-05-01T08:36:21Z</time>
      </trkpt>
      <trkpt lat="44.67747" lon="4.8757">
        <ele>512.1</ele>
        <time>2014-05-01T08:36:22Z</time>
      </trkpt>
      <trkpt lat="44.67754" lon="4.87578">
        <ele>511</ele>
        <time>2014-05-01T08:36:23Z</time>
      </trkpt>
      <trkpt lat="44.67761" lon="4.87587">
        <ele>509.3</ele>
        <time>2014-05-01T08:36:24Z</time>
      </trkpt>
      <trkpt lat="44.67765" lon="4.87595">
        <ele>508.4</ele>
        <time>2014-05-01T08:36:25Z</time>
      </trkpt>
      <trkpt lat="44.67771" lon="4.876">
        <ele>507.1</ele>
        <time>2014-05-01T08:36:26Z</time>
      </trkpt>
      <trkpt lat="44.67774" lon="4.87606">
        <ele>506.2</ele>
        <time>2014-05-01T08:36:27Z</time>
      </trkpt>
      <trkpt lat="44.67778" lon="4.87611">
        <ele>505.3</ele>
        <time>2014-05-01T08:36:28Z</time>
      </trkpt>
      <trkpt lat="44.67782" lon="4.87617">
        <ele>504.6</ele>
        <time>2014-05-01T08:36:29Z</time>
      </trkpt>
      <trkpt lat="44.67785" lon="4.87622">
        <ele>503.9</ele>
        <time>2014-05-01T08:36:30Z</time>
      </trkpt>
      <trkpt lat="44.67788" lon="4.87627">
        <ele>503.5</ele>
        <time>2014-05-01T08:36:31Z</time>
      </trkpt>
      <trkpt lat="44.67793" lon="4.87633">
        <ele>502.7</ele>
        <time>2014-05-01T08:36:32Z</time>
      </trkpt>
      <trkpt lat="44.67802" lon="4.87643">
        <ele>500.7</ele>
        <time>2014-05-01T08:36:34Z</time>
      </trkpt>
      <trkpt lat="44.67807" lon="4.87648">
        <ele>499.6</ele>
        <time>2014-05-01T08:36:35Z</time>
      </trkpt>
      <trkpt lat="44.67812" lon="4.87652">
        <ele>498.6</ele>
        <time>2014-05-01T08:36:36Z</time>
      </trkpt>
      <trkpt lat="44.67817" lon="4.87658">
        <ele>497.9</ele>
        <time>2014-05-01T08:36:37Z</time>
      </trkpt>
      <trkpt lat="44.67822" lon="4.87665">
        <ele>497</ele>
        <time>2014-05-01T08:36:38Z</time>
      </trkpt>
      <trkpt lat="44.67828" lon="4.87671">
        <ele>496.2</ele>
        <time>2014-05-01T08:36:39Z</time>
      </trkpt>
      <trkpt lat="44.67834" lon="4.87676">
        <ele>495.4</ele>
        <time>2014-05-01T08:36:40Z</time>
      </trkpt>
      <trkpt lat="44.6784" lon="4.87683">
        <ele>494.7</ele>
        <time>2014-05-01T08:36:41Z</time>
      </trkpt>
      <trkpt lat="44.67847" lon="4.87688">
        <ele>493.8</ele>
        <time>2014-05-01T08:36:42Z</time>
      </trkpt>
      <trkpt lat="44.67852" lon="4.87694">
        <ele>493.5</ele>
        <time>2014-05-01T08:36:43Z</time>
      </trkpt>
      <trkpt lat="44.67857" lon="4.87699">
        <ele>493</ele>
        <time>2014-05-01T08:36:44Z</time>
      </trkpt>
      <trkpt lat="44.67862" lon="4.87704">
        <ele>492.3</ele>
        <time>2014-05-01T08:36:45Z</time>
      </trkpt>
      <trkpt lat="44.67868" lon="4.87708">
        <ele>491.6</ele>
        <time>2014-05-01T08:36:46Z</time>
      </trkpt>
      <trkpt lat="44.67873" lon="4.87715">
        <ele>491</ele>
        <time>2014-05-01T08:36:47Z</time>
      </trkpt>
      <trkpt lat="44.67879" lon="4.8772">
        <ele>490.6</ele>
        <time>2014-05-01T08:36:48Z</time>
      </trkpt>
      <trkpt lat="44.67883" lon="4.87725">
        <ele>490.3</ele>
        <time>2014-05-01T08:36:49Z</time>
      </trkpt>
      <trkpt lat="44.67887" lon="4.87729">
        <ele>489.9</ele>
        <time>2014-05-01T08:36:50Z</time>
      </trkpt>
      <trkpt lat="44.67891" lon="4.87733">
        <ele>489.8</ele>
        <time>2014-05-01T08:36:51Z</time>
      </trkpt>
      <trkpt lat="44.67899" lon="4.87741">
        <ele>488.9</ele>
        <time>2014-05-01T08:36:53Z</time>
      </trkpt>
      <trkpt lat="44.67905" lon="4.87746">
        <ele>488.5</ele>
        <time>2014-05-01T08:36:54Z</time>
      </trkpt>
      <trkpt lat="44.6791" lon="4.87752">
        <ele>488</ele>
        <time>2014-05-01T08:36:55Z</time>
      </trkpt>
      <trkpt lat="44.67914" lon="4.87756">
        <ele>487.5</ele>
        <time>2014-05-01T08:36:56Z</time>
      </trkpt>
      <trkpt lat="44.6792" lon="4.87763">
        <ele>486.4</ele>
        <time>2014-05-01T08:36:57Z</time>
      </trkpt>
      <trkpt lat="44.67926" lon="4.87768">
        <ele>485.2</ele>
        <time>2014-05-01T08:36:58Z</time>
      </trkpt>
      <trkpt lat="44.6793" lon="4.87773">
        <ele>484.4</ele>
        <time>2014-05-01T08:36:59Z</time>
      </trkpt>
      <trkpt lat="44.67935" lon="4.87779">
        <ele>483.6</ele>
        <time>2014-05-01T08:37:00Z</time>
      </trkpt>
      <trkpt lat="44.67939" lon="4.87784">
        <ele>483.1</ele>
        <time>2014-05-01T08:37:01Z</time>
      </trkpt>
      <trkpt lat="44.67943" lon="4.87792">
        <ele>482.7</ele>
        <time>2014-05-01T08:37:03Z</time>
      </trkpt>
      <trkpt lat="44.67948" lon="4.87801">
        <ele>482.2</ele>
        <time>2014-05-01T08:37:05Z</time>
      </trkpt>
      <trkpt lat="44.67953" lon="4.8781">
        <ele>481.6</ele>
        <time>2014-05-01T08:37:07Z</time>
      </trkpt>
      <trkpt lat="44.67957" lon="4.87817">
        <ele>481</ele>
        <time>2014-05-01T08:37:09Z</time>
      </trkpt>
      <trkpt lat="44.67961" lon="4.87825">
        <ele>480.8</ele>
        <time>2014-05-01T08:37:11Z</time>
      </trkpt>
      <trkpt lat="44.67964" lon="4.87832">
        <ele>480.7</ele>
        <time>2014-05-01T08:37:13Z</time>
      </trkpt>
      <trkpt lat="44.67967" lon="4.87839">
        <ele>480.5</ele>
        <time>2014-05-01T08:37:15Z</time>
      </trkpt>
      <trkpt lat="44.6797" lon="4.87847">
        <ele>480.2</ele>
        <time>2014-05-01T08:37:17Z</time>
      </trkpt>
      <trkpt lat="44.67975" lon="4.87853">
        <ele>479.2</ele>
        <time>2014-05-01T08:37:19Z</time>
      </trkpt>
      <trkpt lat="44.67979" lon="4.87859">
        <ele>478.4</ele>
        <time>2014-05-01T08:37:21Z</time>
      </trkpt>
      <trkpt lat="44.67984" lon="4.87867">
        <ele>477.6</ele>
        <time>2014-05-01T08:37:23Z</time>
      </trkpt>
      <trkpt lat="44.67988" lon="4.87876">
        <ele>477.3</ele>
        <time>2014-05-01T08:37:25Z</time>
      </trkpt>
      <trkpt lat="44.67993" lon="4.87886">
        <ele>477.1</ele>
        <time>2014-05-01T08:37:27Z</time>
      </trkpt>
      <trkpt lat="44.67997" lon="4.87895">
        <ele>476.9</ele>
        <time>2014-05-01T08:37:30Z</time>
      </trkpt>
      <trkpt lat="44.68003" lon="4.87902">
        <ele>476</ele>
        <time>2014-05-01T08:37:32Z</time>
      </trkpt>
      <trkpt lat="44.68008" lon="4.87908">
        <ele>475.2</ele>
        <time>2014-05-01T08:37:34Z</time>
      </trkpt>
      <trkpt lat="44.68018" lon="4.87917">
        <ele>473.3</ele>
        <time>2014-05-01T08:37:38Z</time>
      </trkpt>
      <trkpt lat="44.68023" lon="4.8792">
        <ele>472.3</ele>
        <time>2014-05-01T08:37:39Z</time>
      </trkpt>
      <trkpt lat="44.68029" lon="4.87924">
        <ele>470.7</ele>
        <time>2014-05-01T08:37:41Z</time>
      </trkpt>
      <trkpt lat="44.68034" lon="4.87929">
        <ele>470</ele>
        <time>2014-05-01T08:37:43Z</time>
      </trkpt>
      <trkpt lat="44.6804" lon="4.87935">
        <ele>469.1</ele>
        <time>2014-05-01T08:37:45Z</time>
      </trkpt>
      <trkpt lat="44.68045" lon="4.8794">
        <ele>468.3</ele>
        <time>2014-05-01T08:37:47Z</time>
      </trkpt>
      <trkpt lat="44.68049" lon="4.87944">
        <ele>467.9</ele>
        <time>2014-05-01T08:37:49Z</time>
      </trkpt>
      <trkpt lat="44.68054" lon="4.87948">
        <ele>467</ele>
        <time>2014-05-01T08:37:51Z</time>
      </trkpt>
      <trkpt lat="44.68059" lon="4.87951">
        <ele>466.4</ele>
        <time>2014-05-01T08:37:53Z</time>
      </trkpt>
      <trkpt lat="44.68067" lon="4.87958">
        <ele>465.5</ele>
        <time>2014-05-01T08:37:55Z</time>
      </trkpt>
      <trkpt lat="44.68075" lon="4.87965">
        <ele>464.9</ele>
        <time>2014-05-01T08:37:56Z</time>
      </trkpt>
      <trkpt lat="44.68081" lon="4.8797">
        <ele>464.5</ele>
        <time>2014-05-01T08:37:57Z</time>
      </trkpt>
      <trkpt lat="44.68088" lon="4.87975">
        <ele>463.7</ele>
        <time>2014-05-01T08:37:59Z</time>
      </trkpt>
      <trkpt lat="44.68093" lon="4.87978">
        <ele>463.4</ele>
        <time>2014-05-01T08:38:01Z</time>
      </trkpt>
      <trkpt lat="44.68097" lon="4.87981">
        <ele>463</ele>
        <time>2014-05-01T08:38:03Z</time>
      </trkpt>
      <trkpt lat="44.68102" lon="4.87986">
        <ele>463</ele>
        <time>2014-05-01T08:38:05Z</time>
      </trkpt>
      <trkpt lat="44.68107" lon="4.87992">
        <ele>463.1</ele>
        <time>2014-05-01T08:38:07Z</time>
      </trkpt>
      <trkpt lat="44.68111" lon="4.87996">
        <ele>462.7</ele>
        <time>2014-05-01T08:38:08Z</time>
      </trkpt>
      <trkpt lat="44.68118" lon="4.88001">
        <ele>462.1</ele>
        <time>2014-05-01T08:38:10Z</time>
      </trkpt>
      <trkpt lat="44.68124" lon="4.88007">
        <ele>461.5</ele>
        <time>2014-05-01T08:38:12Z</time>
      </trkpt>
      <trkpt lat="44.68131" lon="4.88015">
        <ele>461.2</ele>
        <time>2014-05-01T08:38:14Z</time>
      </trkpt>
      <trkpt lat="44.68136" lon="4.88021">
        <ele>460.9</ele>
        <time>2014-05-01T08:38:16Z</time>
      </trkpt>
      <trkpt lat="44.68141" lon="4.88028">
        <ele>460.7</ele>
        <time>2014-05-01T08:38:18Z</time>
      </trkpt>
      <trkpt lat="44.68147" lon="4.88034">
        <ele>460.3</ele>
        <time>2014-05-01T08:38:20Z</time>
      </trkpt>
      <trkpt lat="44.68152" lon="4.88038">
        <ele>459.8</ele>
        <time>2014-05-01T08:38:22Z</time>
      </trkpt>
      <trkpt lat="44.68158" lon="4.88042">
        <ele>459.3</ele>
        <time>2014-05-01T08:38:24Z</time>
      </trkpt>
      <trkpt lat="44.68163" lon="4.88045">
        <ele>458.8</ele>
        <time>2014-05-01T08:38:26Z</time>
      </trkpt>
      <trkpt lat="44.68167" lon="4.88048">
        <ele>458.4</ele>
        <time>2014-05-01T08:38:27Z</time>
      </trkpt>
      <trkpt lat="44.68171" lon="4.88051">
        <ele>457.8</ele>
        <time>2014-05-01T08:38:28Z</time>
      </trkpt>
      <trkpt lat="44.68177" lon="4.88057">
        <ele>456.9</ele>
        <time>2014-05-01T08:38:30Z</time>
      </trkpt>
      <trkpt lat="44.68185" lon="4.88062">
        <ele>455.7</ele>
        <time>2014-05-01T08:38:32Z</time>
      </trkpt>
      <trkpt lat="44.68191" lon="4.88067">
        <ele>454.8</ele>
        <time>2014-05-01T08:38:34Z</time>
      </trkpt>
      <trkpt lat="44.68196" lon="4.88072">
        <ele>454.1</ele>
        <time>2014-05-01T08:38:36Z</time>
      </trkpt>
      <trkpt lat="44.68207" lon="4.88084">
        <ele>452.8</ele>
        <time>2014-05-01T08:38:40Z</time>
      </trkpt>
      <trkpt lat="44.68213" lon="4.88089">
        <ele>451.9</ele>
        <time>2014-05-01T08:38:42Z</time>
      </trkpt>
      <trkpt lat="44.68219" lon="4.88095">
        <ele>451.2</ele>
        <time>2014-05-01T08:38:44Z</time>
      </trkpt>
      <trkpt lat="44.68226" lon="4.88101">
        <ele>449.9</ele>
        <time>2014-05-01T08:38:46Z</time>
      </trkpt>
      <trkpt lat="44.68231" lon="4.88106">
        <ele>449.2</ele>
        <time>2014-05-01T08:38:48Z</time>
      </trkpt>
      <trkpt lat="44.68236" lon="4.8811">
        <ele>448.4</ele>
        <time>2014-05-01T08:38:51Z</time>
      </trkpt>
      <trkpt lat="44.68241" lon="4.88113">
        <ele>447.6</ele>
        <time>2014-05-01T08:38:53Z</time>
      </trkpt>
      <trkpt lat="44.68247" lon="4.88118">
        <ele>446.7</ele>
        <time>2014-05-01T08:38:55Z</time>
      </trkpt>
      <trkpt lat="44.68255" lon="4.88122">
        <ele>445.4</ele>
        <time>2014-05-01T08:38:57Z</time>
      </trkpt>
      <trkpt lat="44.6826" lon="4.88127">
        <ele>444.6</ele>
        <time>2014-05-01T08:38:58Z</time>
      </trkpt>
      <trkpt lat="44.68265" lon="4.8813">
        <ele>443.9</ele>
        <time>2014-05-01T08:38:59Z</time>
      </trkpt>
      <trkpt lat="44.68268" lon="4.88135">
        <ele>443.5</ele>
        <time>2014-05-01T08:39:00Z</time>
      </trkpt>
      <trkpt lat="44.68275" lon="4.8814">
        <ele>442.4</ele>
        <time>2014-05-01T08:39:02Z</time>
      </trkpt>
      <trkpt lat="44.6828" lon="4.88142">
        <ele>441.4</ele>
        <time>2014-05-01T08:39:03Z</time>
      </trkpt>
      <trkpt lat="44.68285" lon="4.88145">
        <ele>440.6</ele>
        <time>2014-05-01T08:39:04Z</time>
      </trkpt>
      <trkpt lat="44.68289" lon="4.88147">
        <ele>439.9</ele>
        <time>2014-05-01T08:39:05Z</time>
      </trkpt>
      <trkpt lat="44.68294" lon="4.8815">
        <ele>438.9</ele>
        <time>2014-05-01T08:39:07Z</time>
      </trkpt>
      <trkpt lat="44.683" lon="4.8815">
        <ele>437.2</ele>
        <time>2014-05-01T08:39:10Z</time>
      </trkpt>
      <trkpt lat="44.68304" lon="4.88153">
        <ele>436.6</ele>
        <time>2014-05-01T08:39:12Z</time>
      </trkpt>
      <trkpt lat="44.6831" lon="4.88159">
        <ele>435.9</ele>
        <time>2014-05-01T08:39:14Z</time>
      </trkpt>
      <trkpt lat="44.68316" lon="4.88159">
        <ele>434.5</ele>
        <time>2014-05-01T08:39:16Z</time>
      </trkpt>
      <trkpt lat="44.6832" lon="4.88161">
        <ele>433.7</ele>
        <time>2014-05-01T08:39:18Z</time>
      </trkpt>
      <trkpt lat="44.68328" lon="4.88166">
        <ele>432.3</ele>
        <time>2014-05-01T08:39:21Z</time>
      </trkpt>
      <trkpt lat="44.68334" lon="4.88169">
        <ele>431.2</ele>
        <time>2014-05-01T08:39:23Z</time>
      </trkpt>
      <trkpt lat="44.68341" lon="4.88173">
        <ele>429.6</ele>
        <time>2014-05-01T08:39:25Z</time>
      </trkpt>
      <trkpt lat="44.68347" lon="4.88176">
        <ele>428</ele>
        <time>2014-05-01T08:39:27Z</time>
      </trkpt>
      <trkpt lat="44.68354" lon="4.88181">
        <ele>426.7</ele>
        <time>2014-05-01T08:39:29Z</time>
      </trkpt>
      <trkpt lat="44.68358" lon="4.88184">
        <ele>425.6</ele>
        <time>2014-05-01T08:39:31Z</time>
      </trkpt>
      <trkpt lat="44.68365" lon="4.88186">
        <ele>423.9</ele>
        <time>2014-05-01T08:39:33Z</time>
      </trkpt>
      <trkpt lat="44.68371" lon="4.88188">
        <ele>421.9</ele>
        <time>2014-05-01T08:39:35Z</time>
      </trkpt>
      <trkpt lat="44.68376" lon="4.8819">
        <ele>420.5</ele>
        <time>2014-05-01T08:39:37Z</time>
      </trkpt>
      <trkpt lat="44.68385" lon="4.88196">
        <ele>418.5</ele>
        <time>2014-05-01T08:39:41Z</time>
      </trkpt>
      <trkpt lat="44.68389" lon="4.88198">
        <ele>417.1</ele>
        <time>2014-05-01T08:39:43Z</time>
      </trkpt>
      <trkpt lat="44.68394" lon="4.88203">
        <ele>416</ele>
        <time>2014-05-01T08:39:45Z</time>
      </trkpt>
      <trkpt lat="44.684" lon="4.88206">
        <ele>414.5</ele>
        <time>2014-05-01T08:39:47Z</time>
      </trkpt>
      <trkpt lat="44.68405" lon="4.8821">
        <ele>413.1</ele>
        <time>2014-05-01T08:39:50Z</time>
      </trkpt>
      <trkpt lat="44.6841" lon="4.88212">
        <ele>411.5</ele>
        <time>2014-05-01T08:39:53Z</time>
      </trkpt>
      <trkpt lat="44.68414" lon="4.88215">
        <ele>410.4</ele>
        <time>2014-05-01T08:39:57Z</time>
      </trkpt>
      <trkpt lat="44.68421" lon="4.8822">
        <ele>409</ele>
        <time>2014-05-01T08:40:00Z</time>
      </trkpt>
      <trkpt lat="44.68425" lon="4.88221">
        <ele>408</ele>
        <time>2014-05-01T08:40:01Z</time>
      </trkpt>
      <trkpt lat="44.68431" lon="4.88224">
        <ele>406.9</ele>
        <time>2014-05-01T08:40:03Z</time>
      </trkpt>
      <trkpt lat="44.68437" lon="4.88228">
        <ele>405.6</ele>
        <time>2014-05-01T08:40:05Z</time>
      </trkpt>
      <trkpt lat="44.68443" lon="4.88231">
        <ele>404.2</ele>
        <time>2014-05-01T08:40:07Z</time>
      </trkpt>
      <trkpt lat="44.68448" lon="4.88234">
        <ele>403.1</ele>
        <time>2014-05-01T08:40:09Z</time>
      </trkpt>
      <trkpt lat="44.68452" lon="4.88236">
        <ele>402</ele>
        <time>2014-05-01T08:40:12Z</time>
      </trkpt>
      <trkpt lat="44.68457" lon="4.88238">
        <ele>400.8</ele>
        <time>2014-05-01T08:40:15Z</time>
      </trkpt>
      <trkpt lat="44.68461" lon="4.88241">
        <ele>399.8</ele>
        <time>2014-05-01T08:40:18Z</time>
      </trkpt>
      <trkpt lat="44.68465" lon="4.88245">
        <ele>398.9</ele>
        <time>2014-05-01T08:40:23Z</time>
      </trkpt>
      <trkpt lat="44.68469" lon="4.88248">
        <ele>397.7</ele>
        <time>2014-05-01T08:40:28Z</time>
      </trkpt>
      <trkpt lat="44.68473" lon="4.88252">
        <ele>396.7</ele>
        <time>2014-05-01T08:40:31Z</time>
      </trkpt>
      <trkpt lat="44.6848" lon="4.88255">
        <ele>394.6</ele>
        <time>2014-05-01T08:40:34Z</time>
      </trkpt>
      <trkpt lat="44.68485" lon="4.88259">
        <ele>392.8</ele>
        <time>2014-05-01T08:40:36Z</time>
      </trkpt>
      <trkpt lat="44.68491" lon="4.88264">
        <ele>391</ele>
        <time>2014-05-01T08:40:38Z</time>
      </trkpt>
      <trkpt lat="44.68502" lon="4.8827">
        <ele>387.6</ele>
        <time>2014-05-01T08:40:42Z</time>
      </trkpt>
      <trkpt lat="44.68509" lon="4.88275">
        <ele>386.1</ele>
        <time>2014-05-01T08:40:45Z</time>
      </trkpt>
      <trkpt lat="44.68514" lon="4.88275">
        <ele>384.8</ele>
        <time>2014-05-01T08:40:47Z</time>
      </trkpt>
      <trkpt lat="44.68518" lon="4.88278">
        <ele>383.8</ele>
        <time>2014-05-01T08:40:50Z</time>
      </trkpt>
      <trkpt lat="44.68519" lon="4.88272">
        <ele>383.8</ele>
        <time>2014-05-01T08:40:57Z</time>
      </trkpt>
      <trkpt lat="44.68524" lon="4.88267">
        <ele>383.2</ele>
        <time>2014-05-01T08:41:05Z</time>
      </trkpt>
      <trkpt lat="44.68528" lon="4.8826">
        <ele>382.6</ele>
        <time>2014-05-01T08:41:07Z</time>
      </trkpt>
      <trkpt lat="44.68534" lon="4.88252">
        <ele>381.6</ele>
        <time>2014-05-01T08:41:09Z</time>
      </trkpt>
      <trkpt lat="44.68539" lon="4.88247">
        <ele>380.7</ele>
        <time>2014-05-01T08:41:11Z</time>
      </trkpt>
      <trkpt lat="44.68543" lon="4.88245">
        <ele>379.7</ele>
        <time>2014-05-01T08:41:15Z</time>
      </trkpt>
      <trkpt lat="44.68545" lon="4.88255">
        <ele>379.1</ele>
        <time>2014-05-01T08:45:40Z</time>
      </trkpt>
      <trkpt lat="44.68548" lon="4.88273">
        <ele>377.7</ele>
        <time>2014-05-01T08:45:44Z</time>
      </trkpt>
      <trkpt lat="44.68549" lon="4.8828">
        <ele>377.3</ele>
        <time>2014-05-01T08:45:45Z</time>
      </trkpt>
      <trkpt lat="44.68551" lon="4.88291">
        <ele>376.3</ele>
        <time>2014-05-01T08:45:47Z</time>
      </trkpt>
      <trkpt lat="44.68553" lon="4.88304">
        <ele>375.5</ele>
        <time>2014-05-01T08:45:49Z</time>
      </trkpt>
      <trkpt lat="44.68553" lon="4.88316">
        <ele>374.8</ele>
        <time>2014-05-01T08:45:51Z</time>
      </trkpt>
      <trkpt lat="44.68555" lon="4.88323">
        <ele>374.2</ele>
        <time>2014-05-01T08:45:52Z</time>
      </trkpt>
      <trkpt lat="44.68557" lon="4.8833">
        <ele>373.5</ele>
        <time>2014-05-01T08:45:53Z</time>
      </trkpt>
      <trkpt lat="44.6856" lon="4.88336">
        <ele>372.8</ele>
        <time>2014-05-01T08:45:54Z</time>
      </trkpt>
      <trkpt lat="44.68562" lon="4.88342">
        <ele>372.6</ele>
        <time>2014-05-01T08:45:55Z</time>
      </trkpt>
      <trkpt lat="44.68565" lon="4.88349">
        <ele>372.2</ele>
        <time>2014-05-01T08:45:56Z</time>
      </trkpt>
      <trkpt lat="44.68568" lon="4.88356">
        <ele>371.8</ele>
        <time>2014-05-01T08:45:57Z</time>
      </trkpt>
      <trkpt lat="44.6857" lon="4.88363">
        <ele>371.5</ele>
        <time>2014-05-01T08:45:58Z</time>
      </trkpt>
      <trkpt lat="44.68572" lon="4.8837">
        <ele>371.4</ele>
        <time>2014-05-01T08:45:59Z</time>
      </trkpt>
      <trkpt lat="44.68575" lon="4.88378">
        <ele>371.2</ele>
        <time>2014-05-01T08:46:00Z</time>
      </trkpt>
      <trkpt lat="44.68578" lon="4.88384">
        <ele>370.8</ele>
        <time>2014-05-01T08:46:01Z</time>
      </trkpt>
      <trkpt lat="44.68582" lon="4.8839">
        <ele>370.3</ele>
        <time>2014-05-01T08:46:02Z</time>
      </trkpt>
      <trkpt lat="44.68586" lon="4.88395">
        <ele>369.5</ele>
        <time>2014-05-01T08:46:03Z</time>
      </trkpt>
      <trkpt lat="44.68591" lon="4.88398">
        <ele>368.4</ele>
        <time>2014-05-01T08:46:04Z</time>
      </trkpt>
      <trkpt lat="44.68595" lon="4.88402">
        <ele>367.3</ele>
        <time>2014-05-01T08:46:05Z</time>
      </trkpt>
      <trkpt lat="44.686" lon="4.88405">
        <ele>366.3</ele>
        <time>2014-05-01T08:46:06Z</time>
      </trkpt>
      <trkpt lat="44.68604" lon="4.88409">
        <ele>365.2</ele>
        <time>2014-05-01T08:46:07Z</time>
      </trkpt>
      <trkpt lat="44.68608" lon="4.88414">
        <ele>364.4</ele>
        <time>2014-05-01T08:46:08Z</time>
      </trkpt>
      <trkpt lat="44.6861" lon="4.88419">
        <ele>363.8</ele>
        <time>2014-05-01T08:46:09Z</time>
      </trkpt>
      <trkpt lat="44.68613" lon="4.88425">
        <ele>362.8</ele>
        <time>2014-05-01T08:46:10Z</time>
      </trkpt>
      <trkpt lat="44.68617" lon="4.88433">
        <ele>361.1</ele>
        <time>2014-05-01T08:46:12Z</time>
      </trkpt>
      <trkpt lat="44.6862" lon="4.88441">
        <ele>360</ele>
        <time>2014-05-01T08:46:14Z</time>
      </trkpt>
      <trkpt lat="44.68622" lon="4.8845">
        <ele>359</ele>
        <time>2014-05-01T08:46:16Z</time>
      </trkpt>
      <trkpt lat="44.68621" lon="4.88458">
        <ele>358.8</ele>
        <time>2014-05-01T08:46:18Z</time>
      </trkpt>
      <trkpt lat="44.68619" lon="4.88466">
        <ele>358.7</ele>
        <time>2014-05-01T08:46:20Z</time>
      </trkpt>
      <trkpt lat="44.68616" lon="4.88474">
        <ele>358.9</ele>
        <time>2014-05-01T08:46:22Z</time>
      </trkpt>
      <trkpt lat="44.68614" lon="4.88483">
        <ele>358.7</ele>
        <time>2014-05-01T08:46:24Z</time>
      </trkpt>
      <trkpt lat="44.68612" lon="4.88493">
        <ele>358.6</ele>
        <time>2014-05-01T08:46:27Z</time>
      </trkpt>
      <trkpt lat="44.68611" lon="4.88502">
        <ele>358.2</ele>
        <time>2014-05-01T08:46:29Z</time>
      </trkpt>
      <trkpt lat="44.68609" lon="4.88514">
        <ele>356.5</ele>
        <time>2014-05-01T08:46:31Z</time>
      </trkpt>
      <trkpt lat="44.6861" lon="4.88523">
        <ele>354.6</ele>
        <time>2014-05-01T08:46:33Z</time>
      </trkpt>
      <trkpt lat="44.68613" lon="4.88532">
        <ele>352.8</ele>
        <time>2014-05-01T08:46:35Z</time>
      </trkpt>
      <trkpt lat="44.68616" lon="4.88542">
        <ele>350.6</ele>
        <time>2014-05-01T08:46:37Z</time>
      </trkpt>
      <trkpt lat="44.68618" lon="4.8855">
        <ele>348.8</ele>
        <time>2014-05-01T08:46:39Z</time>
      </trkpt>
      <trkpt lat="44.6862" lon="4.88561">
        <ele>346.8</ele>
        <time>2014-05-01T08:46:41Z</time>
      </trkpt>
      <trkpt lat="44.68627" lon="4.88577">
        <ele>342.6</ele>
        <time>2014-05-01T08:46:45Z</time>
      </trkpt>
      <trkpt lat="44.68629" lon="4.88586">
        <ele>341</ele>
        <time>2014-05-01T08:46:47Z</time>
      </trkpt>
      <trkpt lat="44.68631" lon="4.88594">
        <ele>339.6</ele>
        <time>2014-05-01T08:46:49Z</time>
      </trkpt>
      <trkpt lat="44.68636" lon="4.886">
        <ele>337.7</ele>
        <time>2014-05-01T08:46:51Z</time>
      </trkpt>
      <trkpt lat="44.68641" lon="4.88606">
        <ele>335.9</ele>
        <time>2014-05-01T08:46:53Z</time>
      </trkpt>
      <trkpt lat="44.68647" lon="4.88613">
        <ele>333.8</ele>
        <time>2014-05-01T08:46:55Z</time>
      </trkpt>
      <trkpt lat="44.68652" lon="4.88619">
        <ele>331.8</ele>
        <time>2014-05-01T08:46:57Z</time>
      </trkpt>
      <trkpt lat="44.68659" lon="4.88625">
        <ele>329.3</ele>
        <time>2014-05-01T08:46:59Z</time>
      </trkpt>
      <trkpt lat="44.68665" lon="4.8863">
        <ele>327.2</ele>
        <time>2014-05-01T08:47:01Z</time>
      </trkpt>
      <trkpt lat="44.6867" lon="4.88632">
        <ele>326</ele>
        <time>2014-05-01T08:47:02Z</time>
      </trkpt>
      <trkpt lat="44.68674" lon="4.88641">
        <ele>323.7</ele>
        <time>2014-05-01T08:47:04Z</time>
      </trkpt>
      <trkpt lat="44.68679" lon="4.88649">
        <ele>321.7</ele>
        <time>2014-05-01T08:47:06Z</time>
      </trkpt>
      <trkpt lat="44.68683" lon="4.88658">
        <ele>319.6</ele>
        <time>2014-05-01T08:47:08Z</time>
      </trkpt>
      <trkpt lat="44.68688" lon="4.88669">
        <ele>317.3</ele>
        <time>2014-05-01T08:47:10Z</time>
      </trkpt>
      <trkpt lat="44.68693" lon="4.88681">
        <ele>315.2</ele>
        <time>2014-05-01T08:47:12Z</time>
      </trkpt>
      <trkpt lat="44.68695" lon="4.88687">
        <ele>314.3</ele>
        <time>2014-05-01T08:47:13Z</time>
      </trkpt>
      <trkpt lat="44.68698" lon="4.88699">
        <ele>312.9</ele>
        <time>2014-05-01T08:47:15Z</time>
      </trkpt>
      <trkpt lat="44.68701" lon="4.8871">
        <ele>311.6</ele>
        <time>2014-05-01T08:47:17Z</time>
      </trkpt>
      <trkpt lat="44.68701" lon="4.8872">
        <ele>310.7</ele>
        <time>2014-05-01T08:47:19Z</time>
      </trkpt>
      <trkpt lat="44.68701" lon="4.8873">
        <ele>309.9</ele>
        <time>2014-05-01T08:47:21Z</time>
      </trkpt>
      <trkpt lat="44.687" lon="4.88739">
        <ele>309.2</ele>
        <time>2014-05-01T08:47:23Z</time>
      </trkpt>
      <trkpt lat="44.687" lon="4.8875">
        <ele>308.2</ele>
        <time>2014-05-01T08:47:25Z</time>
      </trkpt>
      <trkpt lat="44.687" lon="4.88762">
        <ele>309.3</ele>
        <time>2014-05-01T08:47:27Z</time>
      </trkpt>
      <trkpt lat="44.68699" lon="4.88769">
        <ele>310.3</ele>
        <time>2014-05-01T08:47:28Z</time>
      </trkpt>
      <trkpt lat="44.68699" lon="4.88776">
        <ele>311.2</ele>
        <time>2014-05-01T08:47:29Z</time>
      </trkpt>
      <trkpt lat="44.68698" lon="4.88784">
        <ele>312.1</ele>
        <time>2014-05-01T08:47:30Z</time>
      </trkpt>
      <trkpt lat="44.68698" lon="4.88791">
        <ele>312.8</ele>
        <time>2014-05-01T08:47:31Z</time>
      </trkpt>
      <trkpt lat="44.68697" lon="4.88798">
        <ele>313.7</ele>
        <time>2014-05-01T08:47:32Z</time>
      </trkpt>
      <trkpt lat="44.68698" lon="4.88805">
        <ele>314.4</ele>
        <time>2014-05-01T08:47:33Z</time>
      </trkpt>
      <trkpt lat="44.68698" lon="4.88811">
        <ele>315.1</ele>
        <time>2014-05-01T08:47:34Z</time>
      </trkpt>
      <trkpt lat="44.68697" lon="4.88821">
        <ele>316.1</ele>
        <time>2014-05-01T08:47:36Z</time>
      </trkpt>
      <trkpt lat="44.68694" lon="4.88827">
        <ele>316.6</ele>
        <time>2014-05-01T08:47:38Z</time>
      </trkpt>
      <trkpt lat="44.68689" lon="4.88831">
        <ele>316.8</ele>
        <time>2014-05-01T08:47:41Z</time>
      </trkpt>
      <trkpt lat="44.68685" lon="4.88837">
        <ele>317.6</ele>
        <time>2014-05-01T08:47:43Z</time>
      </trkpt>
      <trkpt lat="44.68675" lon="4.88845">
        <ele>319.1</ele>
        <time>2014-05-01T08:47:47Z</time>
      </trkpt>
      <trkpt lat="44.6867" lon="4.8885">
        <ele>320.3</ele>
        <time>2014-05-01T08:47:49Z</time>
      </trkpt>
      <trkpt lat="44.68665" lon="4.88854">
        <ele>321.2</ele>
        <time>2014-05-01T08:47:51Z</time>
      </trkpt>
      <trkpt lat="44.6866" lon="4.88857">
        <ele>322.4</ele>
        <time>2014-05-01T08:47:53Z</time>
      </trkpt>
      <trkpt lat="44.68655" lon="4.88862">
        <ele>323.7</ele>
        <time>2014-05-01T08:47:55Z</time>
      </trkpt>
      <trkpt lat="44.6865" lon="4.88867">
        <ele>324.9</ele>
        <time>2014-05-01T08:47:57Z</time>
      </trkpt>
      <trkpt lat="44.68645" lon="4.88871">
        <ele>325.7</ele>
        <time>2014-05-01T08:47:59Z</time>
      </trkpt>
      <trkpt lat="44.6864" lon="4.88874">
        <ele>326.1</ele>
        <time>2014-05-01T08:48:01Z</time>
      </trkpt>
      <trkpt lat="44.68635" lon="4.88877">
        <ele>326.5</ele>
        <time>2014-05-01T08:48:03Z</time>
      </trkpt>
      <trkpt lat="44.6863" lon="4.8888">
        <ele>326.7</ele>
        <time>2014-05-01T08:48:05Z</time>
      </trkpt>
      <trkpt lat="44.68625" lon="4.88882">
        <ele>326.9</ele>
        <time>2014-05-01T08:48:07Z</time>
      </trkpt>
      <trkpt lat="44.68619" lon="4.88883">
        <ele>326.9</ele>
        <time>2014-05-01T08:48:09Z</time>
      </trkpt>
      <trkpt lat="44.68614" lon="4.88885">
        <ele>326.8</ele>
        <time>2014-05-01T08:48:11Z</time>
      </trkpt>
      <trkpt lat="44.68608" lon="4.88886">
        <ele>326.6</ele>
        <time>2014-05-01T08:48:13Z</time>
      </trkpt>
      <trkpt lat="44.68602" lon="4.88886">
        <ele>326.3</ele>
        <time>2014-05-01T08:48:15Z</time>
      </trkpt>
      <trkpt lat="44.68597" lon="4.88887">
        <ele>326.1</ele>
        <time>2014-05-01T08:48:17Z</time>
      </trkpt>
      <trkpt lat="44.68591" lon="4.88888">
        <ele>325.7</ele>
        <time>2014-05-01T08:48:19Z</time>
      </trkpt>
      <trkpt lat="44.68586" lon="4.88888">
        <ele>325.5</ele>
        <time>2014-05-01T08:48:21Z</time>
      </trkpt>
      <trkpt lat="44.68581" lon="4.88889">
        <ele>325.5</ele>
        <time>2014-05-01T08:48:23Z</time>
      </trkpt>
      <trkpt lat="44.68576" lon="4.88889">
        <ele>325.8</ele>
        <time>2014-05-01T08:48:25Z</time>
      </trkpt>
      <trkpt lat="44.6857" lon="4.88888">
        <ele>326.1</ele>
        <time>2014-05-01T08:48:27Z</time>
      </trkpt>
      <trkpt lat="44.68566" lon="4.88888">
        <ele>326.4</ele>
        <time>2014-05-01T08:48:29Z</time>
      </trkpt>
      <trkpt lat="44.6856" lon="4.88885">
        <ele>326.9</ele>
        <time>2014-05-01T08:48:32Z</time>
      </trkpt>
      <trkpt lat="44.68553" lon="4.88882">
        <ele>327.4</ele>
        <time>2014-05-01T08:48:35Z</time>
      </trkpt>
      <trkpt lat="44.68547" lon="4.88879">
        <ele>328</ele>
        <time>2014-05-01T08:48:38Z</time>
      </trkpt>
      <trkpt lat="44.68541" lon="4.88877">
        <ele>328.7</ele>
        <time>2014-05-01T08:48:41Z</time>
      </trkpt>
      <trkpt lat="44.68536" lon="4.88874">
        <ele>329.4</ele>
        <time>2014-05-01T08:48:43Z</time>
      </trkpt>
      <trkpt lat="44.68531" lon="4.88872">
        <ele>330</ele>
        <time>2014-05-01T08:48:45Z</time>
      </trkpt>
      <trkpt lat="44.68521" lon="4.88865">
        <ele>331.7</ele>
        <time>2014-05-01T08:48:49Z</time>
      </trkpt>
      <trkpt lat="44.68517" lon="4.88864">
        <ele>332.4</ele>
        <time>2014-05-01T08:48:51Z</time>
      </trkpt>
      <trkpt lat="44.68512" lon="4.88863">
        <ele>332.9</ele>
        <time>2014-05-01T08:48:53Z</time>
      </trkpt>
      <trkpt lat="44.68507" lon="4.88862">
        <ele>333.9</ele>
        <time>2014-05-01T08:48:55Z</time>
      </trkpt>
      <trkpt lat="44.68502" lon="4.8886">
        <ele>334.7</ele>
        <time>2014-05-01T08:48:57Z</time>
      </trkpt>
      <trkpt lat="44.68497" lon="4.88858">
        <ele>335.5</ele>
        <time>2014-05-01T08:48:59Z</time>
      </trkpt>
      <trkpt lat="44.68492" lon="4.88857">
        <ele>335.6</ele>
        <time>2014-05-01T08:49:01Z</time>
      </trkpt>
      <trkpt lat="44.68486" lon="4.88855">
        <ele>336.2</ele>
        <time>2014-05-01T08:49:03Z</time>
      </trkpt>
      <trkpt lat="44.68481" lon="4.88855">
        <ele>336.4</ele>
        <time>2014-05-01T08:49:05Z</time>
      </trkpt>
      <trkpt lat="44.68476" lon="4.88854">
        <ele>336.8</ele>
        <time>2014-05-01T08:49:07Z</time>
      </trkpt>
      <trkpt lat="44.68471" lon="4.88851">
        <ele>337.4</ele>
        <time>2014-05-01T08:49:09Z</time>
      </trkpt>
      <trkpt lat="44.68466" lon="4.88849">
        <ele>337.8</ele>
        <time>2014-05-01T08:49:11Z</time>
      </trkpt>
      <trkpt lat="44.68461" lon="4.88847">
        <ele>338.4</ele>
        <time>2014-05-01T08:49:13Z</time>
      </trkpt>
      <trkpt lat="44.68456" lon="4.88845">
        <ele>338.7</ele>
        <time>2014-05-01T08:49:15Z</time>
      </trkpt>
      <trkpt lat="44.68451" lon="4.88843">
        <ele>339.3</ele>
        <time>2014-05-01T08:49:17Z</time>
      </trkpt>
      <trkpt lat="44.68446" lon="4.8884">
        <ele>339.9</ele>
        <time>2014-05-01T08:49:19Z</time>
      </trkpt>
      <trkpt lat="44.68442" lon="4.88837">
        <ele>340.5</ele>
        <time>2014-05-01T08:49:21Z</time>
      </trkpt>
      <trkpt lat="44.68437" lon="4.88835">
        <ele>341.1</ele>
        <time>2014-05-01T08:49:23Z</time>
      </trkpt>
      <trkpt lat="44.68432" lon="4.88832">
        <ele>341.9</ele>
        <time>2014-05-01T08:49:25Z</time>
      </trkpt>
      <trkpt lat="44.68427" lon="4.88829">
        <ele>343.5</ele>
        <time>2014-05-01T08:49:27Z</time>
      </trkpt>
      <trkpt lat="44.68422" lon="4.88826">
        <ele>344.7</ele>
        <time>2014-05-01T08:49:29Z</time>
      </trkpt>
      <trkpt lat="44.68418" lon="4.88823">
        <ele>346.3</ele>
        <time>2014-05-01T08:49:31Z</time>
      </trkpt>
      <trkpt lat="44.68413" lon="4.8882">
        <ele>347</ele>
        <time>2014-05-01T08:49:33Z</time>
      </trkpt>
      <trkpt lat="44.68408" lon="4.88816">
        <ele>347.6</ele>
        <time>2014-05-01T08:49:35Z</time>
      </trkpt>
      <trkpt lat="44.68404" lon="4.88812">
        <ele>349.2</ele>
        <time>2014-05-01T08:49:37Z</time>
      </trkpt>
      <trkpt lat="44.68399" lon="4.88809">
        <ele>349.8</ele>
        <time>2014-05-01T08:49:39Z</time>
      </trkpt>
      <trkpt lat="44.68394" lon="4.88807">
        <ele>350.3</ele>
        <time>2014-05-01T08:49:41Z</time>
      </trkpt>
      <trkpt lat="44.68389" lon="4.88804">
        <ele>350.8</ele>
        <time>2014-05-01T08:49:43Z</time>
      </trkpt>
      <trkpt lat="44.68385" lon="4.88802">
        <ele>351.3</ele>
        <time>2014-05-01T08:49:45Z</time>
      </trkpt>
      <trkpt lat="44.6838" lon="4.888">
        <ele>351.3</ele>
        <time>2014-05-01T08:49:47Z</time>
      </trkpt>
      <trkpt lat="44.68369" lon="4.88795">
        <ele>352</ele>
        <time>2014-05-01T08:49:51Z</time>
      </trkpt>
      <trkpt lat="44.68363" lon="4.88794">
        <ele>351.5</ele>
        <time>2014-05-01T08:49:53Z</time>
      </trkpt>
      <trkpt lat="44.68358" lon="4.88792">
        <ele>351.9</ele>
        <time>2014-05-01T08:49:55Z</time>
      </trkpt>
      <trkpt lat="44.68353" lon="4.88792">
        <ele>351.4</ele>
        <time>2014-05-01T08:49:57Z</time>
      </trkpt>
      <trkpt lat="44.68348" lon="4.88793">
        <ele>350.9</ele>
        <time>2014-05-01T08:49:59Z</time>
      </trkpt>
      <trkpt lat="44.68344" lon="4.88792">
        <ele>350.5</ele>
        <time>2014-05-01T08:50:01Z</time>
      </trkpt>
      <trkpt lat="44.68339" lon="4.88792">
        <ele>350</ele>
        <time>2014-05-01T08:50:03Z</time>
      </trkpt>
      <trkpt lat="44.68334" lon="4.88793">
        <ele>349.1</ele>
        <time>2014-05-01T08:50:05Z</time>
      </trkpt>
      <trkpt lat="44.68328" lon="4.88793">
        <ele>349.2</ele>
        <time>2014-05-01T08:50:08Z</time>
      </trkpt>
      <trkpt lat="44.68323" lon="4.88794">
        <ele>348.6</ele>
        <time>2014-05-01T08:50:10Z</time>
      </trkpt>
      <trkpt lat="44.68318" lon="4.88795">
        <ele>348.1</ele>
        <time>2014-05-01T08:50:12Z</time>
      </trkpt>
      <trkpt lat="44.68312" lon="4.88796">
        <ele>347.5</ele>
        <time>2014-05-01T08:50:15Z</time>
      </trkpt>
      <trkpt lat="44.68308" lon="4.88798">
        <ele>346.9</ele>
        <time>2014-05-01T08:50:17Z</time>
      </trkpt>
      <trkpt lat="44.68303" lon="4.88801">
        <ele>345.8</ele>
        <time>2014-05-01T08:50:19Z</time>
      </trkpt>
      <trkpt lat="44.68296" lon="4.88804">
        <ele>345</ele>
        <time>2014-05-01T08:50:22Z</time>
      </trkpt>
      <trkpt lat="44.68292" lon="4.88806">
        <ele>344.2</ele>
        <time>2014-05-01T08:50:24Z</time>
      </trkpt>
      <trkpt lat="44.68287" lon="4.88808">
        <ele>343.8</ele>
        <time>2014-05-01T08:50:26Z</time>
      </trkpt>
      <trkpt lat="44.68282" lon="4.88808">
        <ele>343.7</ele>
        <time>2014-05-01T08:50:29Z</time>
      </trkpt>
      <trkpt lat="44.68275" lon="4.88813">
        <ele>342.6</ele>
        <time>2014-05-01T08:50:32Z</time>
      </trkpt>
      <trkpt lat="44.68271" lon="4.88817">
        <ele>341.7</ele>
        <time>2014-05-01T08:50:34Z</time>
      </trkpt>
      <trkpt lat="44.68266" lon="4.8882">
        <ele>341.2</ele>
        <time>2014-05-01T08:50:36Z</time>
      </trkpt>
      <trkpt lat="44.6826" lon="4.88819">
        <ele>341.2</ele>
        <time>2014-05-01T08:50:39Z</time>
      </trkpt>
      <trkpt lat="44.68255" lon="4.8882">
        <ele>341.2</ele>
        <time>2014-05-01T08:50:41Z</time>
      </trkpt>
      <trkpt lat="44.68249" lon="4.88819">
        <ele>341.5</ele>
        <time>2014-05-01T08:50:43Z</time>
      </trkpt>
      <trkpt lat="44.68243" lon="4.8882">
        <ele>341.2</ele>
        <time>2014-05-01T08:50:46Z</time>
      </trkpt>
      <trkpt lat="44.68238" lon="4.88825">
        <ele>340.8</ele>
        <time>2014-05-01T08:50:49Z</time>
      </trkpt>
      <trkpt lat="44.68229" lon="4.88835">
        <ele>339.8</ele>
        <time>2014-05-01T08:50:54Z</time>
      </trkpt>
      <trkpt lat="44.68226" lon="4.88841">
        <ele>340.9</ele>
        <time>2014-05-01T08:50:56Z</time>
      </trkpt>
      <trkpt lat="44.68223" lon="4.88846">
        <ele>342</ele>
        <time>2014-05-01T08:50:57Z</time>
      </trkpt>
      <trkpt lat="44.68218" lon="4.88853">
        <ele>343.5</ele>
        <time>2014-05-01T08:50:59Z</time>
      </trkpt>
      <trkpt lat="44.68213" lon="4.88858">
        <ele>344.2</ele>
        <time>2014-05-01T08:51:02Z</time>
      </trkpt>
      <trkpt lat="44.68207" lon="4.88864">
        <ele>345.4</ele>
        <time>2014-05-01T08:51:05Z</time>
      </trkpt>
      <trkpt lat="44.68204" lon="4.88869">
        <ele>346.3</ele>
        <time>2014-05-01T08:51:07Z</time>
      </trkpt>
      <trkpt lat="44.68198" lon="4.88872">
        <ele>346.6</ele>
        <time>2014-05-01T08:51:10Z</time>
      </trkpt>
      <trkpt lat="44.68194" lon="4.88875">
        <ele>347.2</ele>
        <time>2014-05-01T08:51:12Z</time>
      </trkpt>
      <trkpt lat="44.68189" lon="4.8888">
        <ele>347.9</ele>
        <time>2014-05-01T08:51:15Z</time>
      </trkpt>
      <trkpt lat="44.68184" lon="4.88885">
        <ele>348.3</ele>
        <time>2014-05-01T08:51:17Z</time>
      </trkpt>
      <trkpt lat="44.6818" lon="4.88888">
        <ele>348.7</ele>
        <time>2014-05-01T08:51:19Z</time>
      </trkpt>
      <trkpt lat="44.68175" lon="4.88891">
        <ele>348.9</ele>
        <time>2014-05-01T08:51:20Z</time>
      </trkpt>
      <trkpt lat="44.6817" lon="4.88895">
        <ele>349.2</ele>
        <time>2014-05-01T08:51:22Z</time>
      </trkpt>
      <trkpt lat="44.68164" lon="4.88899">
        <ele>349.5</ele>
        <time>2014-05-01T08:51:25Z</time>
      </trkpt>
      <trkpt lat="44.68159" lon="4.88902">
        <ele>349.6</ele>
        <time>2014-05-01T08:51:27Z</time>
      </trkpt>
      <trkpt lat="44.68153" lon="4.88904">
        <ele>349.6</ele>
        <time>2014-05-01T08:51:30Z</time>
      </trkpt>
      <trkpt lat="44.68148" lon="4.88906">
        <ele>349.4</ele>
        <time>2014-05-01T08:51:33Z</time>
      </trkpt>
      <trkpt lat="44.68142" lon="4.8891">
        <ele>349.2</ele>
        <time>2014-05-01T08:51:36Z</time>
      </trkpt>
      <trkpt lat="44.68137" lon="4.88913">
        <ele>349</ele>
        <time>2014-05-01T08:51:39Z</time>
      </trkpt>
      <trkpt lat="44.68132" lon="4.88915">
        <ele>348.6</ele>
        <time>2014-05-01T08:51:41Z</time>
      </trkpt>
      <trkpt lat="44.68127" lon="4.88916">
        <ele>348.2</ele>
        <time>2014-05-01T08:51:43Z</time>
      </trkpt>
      <trkpt lat="44.68122" lon="4.88918">
        <ele>348</ele>
        <time>2014-05-01T08:51:45Z</time>
      </trkpt>
      <trkpt lat="44.68116" lon="4.88919">
        <ele>347.7</ele>
        <time>2014-05-01T08:51:48Z</time>
      </trkpt>
      <trkpt lat="44.6811" lon="4.8892">
        <ele>347.1</ele>
        <time>2014-05-01T08:51:51Z</time>
      </trkpt>
      <trkpt lat="44.68099" lon="4.88925">
        <ele>347.1</ele>
        <time>2014-05-01T08:51:56Z</time>
      </trkpt>
      <trkpt lat="44.68093" lon="4.88925">
        <ele>346.5</ele>
        <time>2014-05-01T08:51:59Z</time>
      </trkpt>
      <trkpt lat="44.68088" lon="4.88923">
        <ele>345.5</ele>
        <time>2014-05-01T08:52:02Z</time>
      </trkpt>
      <trkpt lat="44.68083" lon="4.8892">
        <ele>344.6</ele>
        <time>2014-05-01T08:52:05Z</time>
      </trkpt>
      <trkpt lat="44.68078" lon="4.88918">
        <ele>344.7</ele>
        <time>2014-05-01T08:52:07Z</time>
      </trkpt>
      <trkpt lat="44.68073" lon="4.88918">
        <ele>345.1</ele>
        <time>2014-05-01T08:52:10Z</time>
      </trkpt>
      <trkpt lat="44.68068" lon="4.88916">
        <ele>345.4</ele>
        <time>2014-05-01T08:52:13Z</time>
      </trkpt>
      <trkpt lat="44.68063" lon="4.88915">
        <ele>346</ele>
        <time>2014-05-01T08:52:16Z</time>
      </trkpt>
      <trkpt lat="44.68058" lon="4.88912">
        <ele>346.9</ele>
        <time>2014-05-01T08:52:19Z</time>
      </trkpt>
      <trkpt lat="44.68054" lon="4.8891">
        <ele>347.4</ele>
        <time>2014-05-01T08:52:21Z</time>
      </trkpt>
      <trkpt lat="44.68048" lon="4.88908">
        <ele>348.3</ele>
        <time>2014-05-01T08:52:23Z</time>
      </trkpt>
      <trkpt lat="44.68043" lon="4.88905">
        <ele>349.1</ele>
        <time>2014-05-01T08:52:25Z</time>
      </trkpt>
      <trkpt lat="44.68037" lon="4.88902">
        <ele>350.1</ele>
        <time>2014-05-01T08:52:28Z</time>
      </trkpt>
      <trkpt lat="44.68031" lon="4.88899">
        <ele>351.3</ele>
        <time>2014-05-01T08:52:31Z</time>
      </trkpt>
      <trkpt lat="44.68026" lon="4.88897">
        <ele>351.8</ele>
        <time>2014-05-01T08:52:33Z</time>
      </trkpt>
      <trkpt lat="44.6802" lon="4.88894">
        <ele>353</ele>
        <time>2014-05-01T08:52:36Z</time>
      </trkpt>
      <trkpt lat="44.68015" lon="4.8889">
        <ele>354.2</ele>
        <time>2014-05-01T08:52:39Z</time>
      </trkpt>
      <trkpt lat="44.68009" lon="4.88888">
        <ele>355.2</ele>
        <time>2014-05-01T08:52:42Z</time>
      </trkpt>
      <trkpt lat="44.68003" lon="4.88884">
        <ele>356.4</ele>
        <time>2014-05-01T08:52:45Z</time>
      </trkpt>
      <trkpt lat="44.67999" lon="4.88881">
        <ele>357.1</ele>
        <time>2014-05-01T08:52:47Z</time>
      </trkpt>
      <trkpt lat="44.67993" lon="4.88879">
        <ele>357.4</ele>
        <time>2014-05-01T08:52:50Z</time>
      </trkpt>
      <trkpt lat="44.67987" lon="4.88877">
        <ele>357.8</ele>
        <time>2014-05-01T08:52:53Z</time>
      </trkpt>
      <trkpt lat="44.67982" lon="4.8889">
        <ele>356.1</ele>
        <time>2014-05-01T08:52:58Z</time>
      </trkpt>
      <trkpt lat="44.67981" lon="4.88897">
        <ele>355.3</ele>
        <time>2014-05-01T08:53:00Z</time>
      </trkpt>
      <trkpt lat="44.6798" lon="4.88903">
        <ele>354.5</ele>
        <time>2014-05-01T08:53:02Z</time>
      </trkpt>
      <trkpt lat="44.6798" lon="4.88911">
        <ele>353.4</ele>
        <time>2014-05-01T08:53:05Z</time>
      </trkpt>
      <trkpt lat="44.67979" lon="4.88919">
        <ele>352.9</ele>
        <time>2014-05-01T08:53:08Z</time>
      </trkpt>
      <trkpt lat="44.67982" lon="4.88926">
        <ele>353.3</ele>
        <time>2014-05-01T08:53:11Z</time>
      </trkpt>
      <trkpt lat="44.67984" lon="4.88932">
        <ele>353.6</ele>
        <time>2014-05-01T08:53:14Z</time>
      </trkpt>
      <trkpt lat="44.67988" lon="4.88938">
        <ele>353.6</ele>
        <time>2014-05-01T08:53:17Z</time>
      </trkpt>
      <trkpt lat="44.6799" lon="4.88943">
        <ele>353.7</ele>
        <time>2014-05-01T08:53:20Z</time>
      </trkpt>
      <trkpt lat="44.67995" lon="4.88949">
        <ele>353.7</ele>
        <time>2014-05-01T08:53:23Z</time>
      </trkpt>
      <trkpt lat="44.67999" lon="4.88953">
        <ele>353.3</ele>
        <time>2014-05-01T08:53:25Z</time>
      </trkpt>
      <trkpt lat="44.68002" lon="4.88958">
        <ele>353.5</ele>
        <time>2014-05-01T08:53:28Z</time>
      </trkpt>
      <trkpt lat="44.68006" lon="4.88965">
        <ele>353.9</ele>
        <time>2014-05-01T08:53:32Z</time>
      </trkpt>
      <trkpt lat="44.6801" lon="4.88971">
        <ele>354.3</ele>
        <time>2014-05-01T08:53:35Z</time>
      </trkpt>
      <trkpt lat="44.68013" lon="4.88976">
        <ele>354.7</ele>
        <time>2014-05-01T08:53:38Z</time>
      </trkpt>
      <trkpt lat="44.68017" lon="4.8898">
        <ele>355.1</ele>
        <time>2014-05-01T08:53:40Z</time>
      </trkpt>
      <trkpt lat="44.68019" lon="4.88986">
        <ele>355.8</ele>
        <time>2014-05-01T08:53:43Z</time>
      </trkpt>
      <trkpt lat="44.68023" lon="4.88992">
        <ele>356.6</ele>
        <time>2014-05-01T08:53:46Z</time>
      </trkpt>
      <trkpt lat="44.68026" lon="4.88998">
        <ele>357.3</ele>
        <time>2014-05-01T08:53:49Z</time>
      </trkpt>
      <trkpt lat="44.6803" lon="4.89004">
        <ele>358.5</ele>
        <time>2014-05-01T08:53:53Z</time>
      </trkpt>
      <trkpt lat="44.68034" lon="4.89009">
        <ele>359.3</ele>
        <time>2014-05-01T08:53:56Z</time>
      </trkpt>
      <trkpt lat="44.68041" lon="4.8902">
        <ele>361.8</ele>
        <time>2014-05-01T08:54:02Z</time>
      </trkpt>
      <trkpt lat="44.68046" lon="4.89024">
        <ele>362.7</ele>
        <time>2014-05-01T08:54:05Z</time>
      </trkpt>
      <trkpt lat="44.6805" lon="4.89027">
        <ele>363.3</ele>
        <time>2014-05-01T08:54:08Z</time>
      </trkpt>
      <trkpt lat="44.68053" lon="4.89033">
        <ele>364.5</ele>
        <time>2014-05-01T08:54:12Z</time>
      </trkpt>
      <trkpt lat="44.68057" lon="4.89038">
        <ele>365.6</ele>
        <time>2014-05-01T08:54:15Z</time>
      </trkpt>
      <trkpt lat="44.68063" lon="4.89041">
        <ele>366.3</ele>
        <time>2014-05-01T08:54:18Z</time>
      </trkpt>
      <trkpt lat="44.68067" lon="4.89044">
        <ele>366.9</ele>
        <time>2014-05-01T08:54:21Z</time>
      </trkpt>
      <trkpt lat="44.68073" lon="4.89047">
        <ele>367.6</ele>
        <time>2014-05-01T08:54:24Z</time>
      </trkpt>
      <trkpt lat="44.68079" lon="4.8905">
        <ele>368.5</ele>
        <time>2014-05-01T08:54:28Z</time>
      </trkpt>
      <trkpt lat="44.68084" lon="4.89051">
        <ele>368.9</ele>
        <time>2014-05-01T08:54:31Z</time>
      </trkpt>
      <trkpt lat="44.6809" lon="4.89053">
        <ele>369.2</ele>
        <time>2014-05-01T08:54:34Z</time>
      </trkpt>
      <trkpt lat="44.68096" lon="4.89053">
        <ele>369.5</ele>
        <time>2014-05-01T08:54:37Z</time>
      </trkpt>
      <trkpt lat="44.68101" lon="4.89055">
        <ele>369.8</ele>
        <time>2014-05-01T08:54:40Z</time>
      </trkpt>
      <trkpt lat="44.68106" lon="4.89057">
        <ele>370</ele>
        <time>2014-05-01T08:54:43Z</time>
      </trkpt>
      <trkpt lat="44.68111" lon="4.89058">
        <ele>370.2</ele>
        <time>2014-05-01T08:54:46Z</time>
      </trkpt>
      <trkpt lat="44.68117" lon="4.89057">
        <ele>370.2</ele>
        <time>2014-05-01T08:54:49Z</time>
      </trkpt>
      <trkpt lat="44.68123" lon="4.89058">
        <ele>370.3</ele>
        <time>2014-05-01T08:54:52Z</time>
      </trkpt>
      <trkpt lat="44.68128" lon="4.89059">
        <ele>370.4</ele>
        <time>2014-05-01T08:54:55Z</time>
      </trkpt>
      <trkpt lat="44.68134" lon="4.8906">
        <ele>370.6</ele>
        <time>2014-05-01T08:54:58Z</time>
      </trkpt>
      <trkpt lat="44.68145" lon="4.89061">
        <ele>370.7</ele>
        <time>2014-05-01T08:55:04Z</time>
      </trkpt>
      <trkpt lat="44.68149" lon="4.89062">
        <ele>370.7</ele>
        <time>2014-05-01T08:55:07Z</time>
      </trkpt>
      <trkpt lat="44.68154" lon="4.89062">
        <ele>370.7</ele>
        <time>2014-05-01T08:55:10Z</time>
      </trkpt>
      <trkpt lat="44.68159" lon="4.89063">
        <ele>370.8</ele>
        <time>2014-05-01T08:55:13Z</time>
      </trkpt>
      <trkpt lat="44.68165" lon="4.89062">
        <ele>370.7</ele>
        <time>2014-05-01T08:55:16Z</time>
      </trkpt>
      <trkpt lat="44.68171" lon="4.89062">
        <ele>370.1</ele>
        <time>2014-05-01T08:55:19Z</time>
      </trkpt>
      <trkpt lat="44.68174" lon="4.89068">
        <ele>369.7</ele>
        <time>2014-05-01T08:55:22Z</time>
      </trkpt>
      <trkpt lat="44.68175" lon="4.89078">
        <ele>369.6</ele>
        <time>2014-05-01T08:55:25Z</time>
      </trkpt>
      <trkpt lat="44.68174" lon="4.89085">
        <ele>369.7</ele>
        <time>2014-05-01T08:55:27Z</time>
      </trkpt>
      <trkpt lat="44.68173" lon="4.89092">
        <ele>369</ele>
        <time>2014-05-01T08:55:29Z</time>
      </trkpt>
      <trkpt lat="44.68172" lon="4.89099">
        <ele>368.5</ele>
        <time>2014-05-01T08:55:31Z</time>
      </trkpt>
      <trkpt lat="44.68171" lon="4.89106">
        <ele>368</ele>
        <time>2014-05-01T08:55:33Z</time>
      </trkpt>
      <trkpt lat="44.6817" lon="4.89114">
        <ele>367.3</ele>
        <time>2014-05-01T08:55:35Z</time>
      </trkpt>
      <trkpt lat="44.6817" lon="4.89121">
        <ele>366.5</ele>
        <time>2014-05-01T08:55:37Z</time>
      </trkpt>
      <trkpt lat="44.6817" lon="4.89129">
        <ele>365.6</ele>
        <time>2014-05-01T08:55:39Z</time>
      </trkpt>
      <trkpt lat="44.6817" lon="4.89137">
        <ele>364.8</ele>
        <time>2014-05-01T08:55:41Z</time>
      </trkpt>
      <trkpt lat="44.6817" lon="4.89147">
        <ele>363.9</ele>
        <time>2014-05-01T08:55:43Z</time>
      </trkpt>
      <trkpt lat="44.68168" lon="4.89157">
        <ele>363</ele>
        <time>2014-05-01T08:55:45Z</time>
      </trkpt>
      <trkpt lat="44.68166" lon="4.89163">
        <ele>362.5</ele>
        <time>2014-05-01T08:55:46Z</time>
      </trkpt>
      <trkpt lat="44.68165" lon="4.8917">
        <ele>362.3</ele>
        <time>2014-05-01T08:55:47Z</time>
      </trkpt>
      <trkpt lat="44.68162" lon="4.89177">
        <ele>363</ele>
        <time>2014-05-01T08:55:48Z</time>
      </trkpt>
      <trkpt lat="44.68159" lon="4.89183">
        <ele>363.6</ele>
        <time>2014-05-01T08:55:49Z</time>
      </trkpt>
      <trkpt lat="44.68155" lon="4.8919">
        <ele>364.5</ele>
        <time>2014-05-01T08:55:50Z</time>
      </trkpt>
      <trkpt lat="44.68152" lon="4.89198">
        <ele>365.1</ele>
        <time>2014-05-01T08:55:51Z</time>
      </trkpt>
      <trkpt lat="44.68151" lon="4.89206">
        <ele>365.8</ele>
        <time>2014-05-01T08:55:52Z</time>
      </trkpt>
      <trkpt lat="44.6815" lon="4.89213">
        <ele>366.3</ele>
        <time>2014-05-01T08:55:53Z</time>
      </trkpt>
      <trkpt lat="44.68152" lon="4.8922">
        <ele>366.5</ele>
        <time>2014-05-01T08:55:54Z</time>
      </trkpt>
      <trkpt lat="44.68156" lon="4.89229">
        <ele>366.6</ele>
        <time>2014-05-01T08:55:56Z</time>
      </trkpt>
      <trkpt lat="44.68162" lon="4.89234">
        <ele>366.4</ele>
        <time>2014-05-01T08:55:58Z</time>
      </trkpt>
      <trkpt lat="44.6817" lon="4.89239">
        <ele>366.1</ele>
        <time>2014-05-01T08:56:00Z</time>
      </trkpt>
      <trkpt lat="44.68179" lon="4.89244">
        <ele>366</ele>
        <time>2014-05-01T08:56:02Z</time>
      </trkpt>
      <trkpt lat="44.68184" lon="4.89247">
        <ele>365.9</ele>
        <time>2014-05-01T08:56:03Z</time>
      </trkpt>
      <trkpt lat="44.68189" lon="4.89249">
        <ele>365.8</ele>
        <time>2014-05-01T08:56:04Z</time>
      </trkpt>
      <trkpt lat="44.68194" lon="4.89251">
        <ele>365.9</ele>
        <time>2014-05-01T08:56:05Z</time>
      </trkpt>
      <trkpt lat="44.68198" lon="4.89254">
        <ele>365.8</ele>
        <time>2014-05-01T08:56:06Z</time>
      </trkpt>
      <trkpt lat="44.68203" lon="4.89256">
        <ele>365.9</ele>
        <time>2014-05-01T08:56:07Z</time>
      </trkpt>
      <trkpt lat="44.68207" lon="4.89258">
        <ele>366</ele>
        <time>2014-05-01T08:56:08Z</time>
      </trkpt>
      <trkpt lat="44.68214" lon="4.89262">
        <ele>366.2</ele>
        <time>2014-05-01T08:56:10Z</time>
      </trkpt>
      <trkpt lat="44.68221" lon="4.89268">
        <ele>366.7</ele>
        <time>2014-05-01T08:56:12Z</time>
      </trkpt>
      <trkpt lat="44.68228" lon="4.89276">
        <ele>367.4</ele>
        <time>2014-05-01T08:56:14Z</time>
      </trkpt>
      <trkpt lat="44.68232" lon="4.89281">
        <ele>367.9</ele>
        <time>2014-05-01T08:56:15Z</time>
      </trkpt>
      <trkpt lat="44.68237" lon="4.89292">
        <ele>369</ele>
        <time>2014-05-01T08:56:17Z</time>
      </trkpt>
      <trkpt lat="44.6824" lon="4.89297">
        <ele>369.4</ele>
        <time>2014-05-01T08:56:18Z</time>
      </trkpt>
      <trkpt lat="44.68245" lon="4.89306">
        <ele>370.4</ele>
        <time>2014-05-01T08:56:20Z</time>
      </trkpt>
      <trkpt lat="44.68251" lon="4.89315">
        <ele>371.6</ele>
        <time>2014-05-01T08:56:22Z</time>
      </trkpt>
      <trkpt lat="44.68255" lon="4.89325">
        <ele>373</ele>
        <time>2014-05-01T08:56:24Z</time>
      </trkpt>
      <trkpt lat="44.68258" lon="4.89334">
        <ele>374.3</ele>
        <time>2014-05-01T08:56:26Z</time>
      </trkpt>
      <trkpt lat="44.68261" lon="4.89343">
        <ele>375.9</ele>
        <time>2014-05-01T08:56:28Z</time>
      </trkpt>
      <trkpt lat="44.68261" lon="4.89352">
        <ele>377.4</ele>
        <time>2014-05-01T08:56:30Z</time>
      </trkpt>
      <trkpt lat="44.68261" lon="4.89362">
        <ele>378.9</ele>
        <time>2014-05-01T08:56:32Z</time>
      </trkpt>
      <trkpt lat="44.68261" lon="4.89373">
        <ele>380.8</ele>
        <time>2014-05-01T08:56:34Z</time>
      </trkpt>
      <trkpt lat="44.68262" lon="4.89383">
        <ele>382.5</ele>
        <time>2014-05-01T08:56:36Z</time>
      </trkpt>
      <trkpt lat="44.68262" lon="4.89392">
        <ele>384</ele>
        <time>2014-05-01T08:56:38Z</time>
      </trkpt>
      <trkpt lat="44.68262" lon="4.89401">
        <ele>385.5</ele>
        <time>2014-05-01T08:56:40Z</time>
      </trkpt>
      <trkpt lat="44.68262" lon="4.89411">
        <ele>387</ele>
        <time>2014-05-01T08:56:42Z</time>
      </trkpt>
      <trkpt lat="44.68262" lon="4.89419">
        <ele>388.2</ele>
        <time>2014-05-01T08:56:44Z</time>
      </trkpt>
      <trkpt lat="44.6826" lon="4.89427">
        <ele>389.5</ele>
        <time>2014-05-01T08:56:46Z</time>
      </trkpt>
      <trkpt lat="44.6826" lon="4.89436">
        <ele>390.8</ele>
        <time>2014-05-01T08:56:48Z</time>
      </trkpt>
      <trkpt lat="44.68259" lon="4.89445">
        <ele>391.9</ele>
        <time>2014-05-01T08:56:50Z</time>
      </trkpt>
      <trkpt lat="44.68258" lon="4.89455">
        <ele>393.5</ele>
        <time>2014-05-01T08:56:52Z</time>
      </trkpt>
      <trkpt lat="44.68258" lon="4.89463">
        <ele>394.8</ele>
        <time>2014-05-01T08:56:54Z</time>
      </trkpt>
      <trkpt lat="44.68257" lon="4.89471">
        <ele>396</ele>
        <time>2014-05-01T08:56:56Z</time>
      </trkpt>
      <trkpt lat="44.68257" lon="4.89479">
        <ele>397</ele>
        <time>2014-05-01T08:56:58Z</time>
      </trkpt>
      <trkpt lat="44.68256" lon="4.89485">
        <ele>398</ele>
        <time>2014-05-01T08:57:00Z</time>
      </trkpt>
      <trkpt lat="44.68256" lon="4.89493">
        <ele>399.2</ele>
        <time>2014-05-01T08:57:02Z</time>
      </trkpt>
      <trkpt lat="44.68255" lon="4.89509">
        <ele>400.5</ele>
        <time>2014-05-01T08:57:07Z</time>
      </trkpt>
      <trkpt lat="44.68256" lon="4.89516">
        <ele>400.8</ele>
        <time>2014-05-01T08:57:11Z</time>
      </trkpt>
      <trkpt lat="44.68256" lon="4.89523">
        <ele>401</ele>
        <time>2014-05-01T08:57:14Z</time>
      </trkpt>
      <trkpt lat="44.68256" lon="4.8953">
        <ele>401.2</ele>
        <time>2014-05-01T08:57:19Z</time>
      </trkpt>
      <trkpt lat="44.68258" lon="4.89536">
        <ele>401.4</ele>
        <time>2014-05-01T09:05:22Z</time>
      </trkpt>
      <trkpt lat="44.68258" lon="4.8955">
        <ele>401.9</ele>
        <time>2014-05-01T09:07:28Z</time>
      </trkpt>
      <trkpt lat="44.68257" lon="4.89564">
        <ele>402.3</ele>
        <time>2014-05-01T09:07:32Z</time>
      </trkpt>
      <trkpt lat="44.68256" lon="4.89572">
        <ele>402.5</ele>
        <time>2014-05-01T09:07:35Z</time>
      </trkpt>
      <trkpt lat="44.68256" lon="4.89581">
        <ele>402.8</ele>
        <time>2014-05-01T09:07:38Z</time>
      </trkpt>
      <trkpt lat="44.68256" lon="4.8959">
        <ele>402.5</ele>
        <time>2014-05-01T09:07:41Z</time>
      </trkpt>
      <trkpt lat="44.68256" lon="4.89598">
        <ele>401.9</ele>
        <time>2014-05-01T09:07:44Z</time>
      </trkpt>
      <trkpt lat="44.68256" lon="4.89607">
        <ele>401.4</ele>
        <time>2014-05-01T09:07:47Z</time>
      </trkpt>
      <trkpt lat="44.68255" lon="4.89615">
        <ele>400.9</ele>
        <time>2014-05-01T09:07:50Z</time>
      </trkpt>
      <trkpt lat="44.68252" lon="4.89623">
        <ele>400.6</ele>
        <time>2014-05-01T09:07:53Z</time>
      </trkpt>
      <trkpt lat="44.6825" lon="4.89631">
        <ele>400.2</ele>
        <time>2014-05-01T09:07:56Z</time>
      </trkpt>
      <trkpt lat="44.68246" lon="4.89637">
        <ele>399.4</ele>
        <time>2014-05-01T09:07:59Z</time>
      </trkpt>
      <trkpt lat="44.68243" lon="4.89643">
        <ele>398.7</ele>
        <time>2014-05-01T09:08:01Z</time>
      </trkpt>
      <trkpt lat="44.68241" lon="4.8965">
        <ele>398.2</ele>
        <time>2014-05-01T09:08:03Z</time>
      </trkpt>
      <trkpt lat="44.68239" lon="4.89658">
        <ele>397.5</ele>
        <time>2014-05-01T09:08:06Z</time>
      </trkpt>
      <trkpt lat="44.68237" lon="4.89666">
        <ele>396.9</ele>
        <time>2014-05-01T09:08:09Z</time>
      </trkpt>
      <trkpt lat="44.68235" lon="4.89674">
        <ele>396.3</ele>
        <time>2014-05-01T09:08:12Z</time>
      </trkpt>
      <trkpt lat="44.68235" lon="4.89682">
        <ele>395.7</ele>
        <time>2014-05-01T09:08:15Z</time>
      </trkpt>
      <trkpt lat="44.68235" lon="4.89691">
        <ele>395.2</ele>
        <time>2014-05-01T09:08:18Z</time>
      </trkpt>
      <trkpt lat="44.68237" lon="4.897">
        <ele>394.8</ele>
        <time>2014-05-01T09:08:21Z</time>
      </trkpt>
      <trkpt lat="44.68243" lon="4.89704">
        <ele>394.8</ele>
        <time>2014-05-01T09:08:24Z</time>
      </trkpt>
      <trkpt lat="44.68249" lon="4.89706">
        <ele>395.1</ele>
        <time>2014-05-01T09:08:27Z</time>
      </trkpt>
      <trkpt lat="44.68254" lon="4.89706">
        <ele>394.8</ele>
        <time>2014-05-01T09:08:30Z</time>
      </trkpt>
      <trkpt lat="44.68266" lon="4.89705">
        <ele>393.8</ele>
        <time>2014-05-01T09:08:35Z</time>
      </trkpt>
      <trkpt lat="44.68271" lon="4.89705">
        <ele>393.4</ele>
        <time>2014-05-01T09:08:37Z</time>
      </trkpt>
      <trkpt lat="44.68275" lon="4.89705">
        <ele>392.9</ele>
        <time>2014-05-01T09:08:39Z</time>
      </trkpt>
      <trkpt lat="44.68281" lon="4.89706">
        <ele>392.3</ele>
        <time>2014-05-01T09:08:42Z</time>
      </trkpt>
      <trkpt lat="44.68286" lon="4.89708">
        <ele>391.7</ele>
        <time>2014-05-01T09:08:45Z</time>
      </trkpt>
      <trkpt lat="44.68292" lon="4.89711">
        <ele>390.8</ele>
        <time>2014-05-01T09:08:48Z</time>
      </trkpt>
      <trkpt lat="44.68298" lon="4.89714">
        <ele>389.8</ele>
        <time>2014-05-01T09:08:51Z</time>
      </trkpt>
      <trkpt lat="44.68303" lon="4.89715">
        <ele>389.3</ele>
        <time>2014-05-01T09:08:53Z</time>
      </trkpt>
      <trkpt lat="44.68307" lon="4.89717">
        <ele>388.7</ele>
        <time>2014-05-01T09:08:55Z</time>
      </trkpt>
      <trkpt lat="44.68312" lon="4.89718">
        <ele>388.1</ele>
        <time>2014-05-01T09:08:57Z</time>
      </trkpt>
      <trkpt lat="44.68318" lon="4.89719">
        <ele>387.3</ele>
        <time>2014-05-01T09:09:00Z</time>
      </trkpt>
      <trkpt lat="44.68323" lon="4.8972">
        <ele>386.8</ele>
        <time>2014-05-01T09:09:02Z</time>
      </trkpt>
      <trkpt lat="44.68328" lon="4.89721">
        <ele>386.1</ele>
        <time>2014-05-01T09:09:04Z</time>
      </trkpt>
      <trkpt lat="44.68335" lon="4.89721">
        <ele>385.5</ele>
        <time>2014-05-01T09:09:07Z</time>
      </trkpt>
      <trkpt lat="44.6834" lon="4.89721">
        <ele>385.3</ele>
        <time>2014-05-01T09:09:09Z</time>
      </trkpt>
      <trkpt lat="44.68345" lon="4.8972">
        <ele>385.1</ele>
        <time>2014-05-01T09:09:11Z</time>
      </trkpt>
      <trkpt lat="44.68351" lon="4.8972">
        <ele>385.1</ele>
        <time>2014-05-01T09:09:13Z</time>
      </trkpt>
      <trkpt lat="44.68356" lon="4.8972">
        <ele>384.8</ele>
        <time>2014-05-01T09:09:15Z</time>
      </trkpt>
      <trkpt lat="44.68362" lon="4.89719">
        <ele>384.6</ele>
        <time>2014-05-01T09:09:17Z</time>
      </trkpt>
      <trkpt lat="44.68367" lon="4.89718">
        <ele>384.5</ele>
        <time>2014-05-01T09:09:19Z</time>
      </trkpt>
      <trkpt lat="44.68373" lon="4.89717">
        <ele>384.4</ele>
        <time>2014-05-01T09:09:21Z</time>
      </trkpt>
      <trkpt lat="44.68379" lon="4.89715">
        <ele>384.3</ele>
        <time>2014-05-01T09:09:23Z</time>
      </trkpt>
      <trkpt lat="44.68385" lon="4.89713">
        <ele>384.2</ele>
        <time>2014-05-01T09:09:25Z</time>
      </trkpt>
      <trkpt lat="44.68391" lon="4.89711">
        <ele>384.3</ele>
        <time>2014-05-01T09:09:27Z</time>
      </trkpt>
      <trkpt lat="44.68397" lon="4.89707">
        <ele>384.5</ele>
        <time>2014-05-01T09:09:29Z</time>
      </trkpt>
      <trkpt lat="44.68404" lon="4.89703">
        <ele>384.6</ele>
        <time>2014-05-01T09:09:31Z</time>
      </trkpt>
      <trkpt lat="44.68418" lon="4.89692">
        <ele>385.5</ele>
        <time>2014-05-01T09:09:35Z</time>
      </trkpt>
      <trkpt lat="44.68422" lon="4.89688">
        <ele>386.3</ele>
        <time>2014-05-01T09:09:36Z</time>
      </trkpt>
      <trkpt lat="44.68426" lon="4.89684">
        <ele>387.2</ele>
        <time>2014-05-01T09:09:37Z</time>
      </trkpt>
      <trkpt lat="44.6843" lon="4.8968">
        <ele>388.1</ele>
        <time>2014-05-01T09:09:38Z</time>
      </trkpt>
      <trkpt lat="44.68434" lon="4.89676">
        <ele>389</ele>
        <time>2014-05-01T09:09:39Z</time>
      </trkpt>
      <trkpt lat="44.68437" lon="4.89672">
        <ele>389.9</ele>
        <time>2014-05-01T09:09:40Z</time>
      </trkpt>
      <trkpt lat="44.68441" lon="4.89668">
        <ele>390.8</ele>
        <time>2014-05-01T09:09:41Z</time>
      </trkpt>
      <trkpt lat="44.68445" lon="4.89664">
        <ele>391.9</ele>
        <time>2014-05-01T09:09:42Z</time>
      </trkpt>
      <trkpt lat="44.68449" lon="4.89659">
        <ele>392.7</ele>
        <time>2014-05-01T09:09:43Z</time>
      </trkpt>
      <trkpt lat="44.68453" lon="4.89655">
        <ele>393.6</ele>
        <time>2014-05-01T09:09:44Z</time>
      </trkpt>
      <trkpt lat="44.68457" lon="4.89651">
        <ele>394.4</ele>
        <time>2014-05-01T09:09:45Z</time>
      </trkpt>
      <trkpt lat="44.68464" lon="4.89645">
        <ele>395.9</ele>
        <time>2014-05-01T09:09:47Z</time>
      </trkpt>
      <trkpt lat="44.68472" lon="4.8964">
        <ele>397.2</ele>
        <time>2014-05-01T09:09:49Z</time>
      </trkpt>
      <trkpt lat="44.68479" lon="4.89635">
        <ele>398.3</ele>
        <time>2014-05-01T09:09:51Z</time>
      </trkpt>
      <trkpt lat="44.68485" lon="4.89631">
        <ele>399.4</ele>
        <time>2014-05-01T09:09:53Z</time>
      </trkpt>
      <trkpt lat="44.6849" lon="4.89629">
        <ele>400.2</ele>
        <time>2014-05-01T09:09:55Z</time>
      </trkpt>
      <trkpt lat="44.68496" lon="4.89628">
        <ele>400.8</ele>
        <time>2014-05-01T09:09:57Z</time>
      </trkpt>
      <trkpt lat="44.68501" lon="4.89629">
        <ele>401.2</ele>
        <time>2014-05-01T09:09:59Z</time>
      </trkpt>
      <trkpt lat="44.68507" lon="4.8963">
        <ele>401.4</ele>
        <time>2014-05-01T09:10:01Z</time>
      </trkpt>
      <trkpt lat="44.68512" lon="4.89631">
        <ele>401.7</ele>
        <time>2014-05-01T09:10:03Z</time>
      </trkpt>
      <trkpt lat="44.68518" lon="4.89632">
        <ele>401.9</ele>
        <time>2014-05-01T09:10:05Z</time>
      </trkpt>
      <trkpt lat="44.68523" lon="4.89633">
        <ele>402.1</ele>
        <time>2014-05-01T09:10:07Z</time>
      </trkpt>
      <trkpt lat="44.68528" lon="4.89634">
        <ele>402.3</ele>
        <time>2014-05-01T09:10:09Z</time>
      </trkpt>
      <trkpt lat="44.68533" lon="4.89636">
        <ele>402.5</ele>
        <time>2014-05-01T09:10:11Z</time>
      </trkpt>
      <trkpt lat="44.68539" lon="4.89638">
        <ele>402.8</ele>
        <time>2014-05-01T09:10:13Z</time>
      </trkpt>
      <trkpt lat="44.68544" lon="4.89639">
        <ele>402.9</ele>
        <time>2014-05-01T09:10:15Z</time>
      </trkpt>
      <trkpt lat="44.6855" lon="4.89642">
        <ele>403.2</ele>
        <time>2014-05-01T09:10:18Z</time>
      </trkpt>
      <trkpt lat="44.68555" lon="4.89643">
        <ele>403.5</ele>
        <time>2014-05-01T09:10:20Z</time>
      </trkpt>
      <trkpt lat="44.68559" lon="4.89645">
        <ele>403.7</ele>
        <time>2014-05-01T09:10:22Z</time>
      </trkpt>
      <trkpt lat="44.68564" lon="4.89646">
        <ele>404</ele>
        <time>2014-05-01T09:10:24Z</time>
      </trkpt>
      <trkpt lat="44.68569" lon="4.89646">
        <ele>404.3</ele>
        <time>2014-05-01T09:10:26Z</time>
      </trkpt>
      <trkpt lat="44.68574" lon="4.89647">
        <ele>404.6</ele>
        <time>2014-05-01T09:10:28Z</time>
      </trkpt>
      <trkpt lat="44.68578" lon="4.89648">
        <ele>404.9</ele>
        <time>2014-05-01T09:10:30Z</time>
      </trkpt>
      <trkpt lat="44.68583" lon="4.89649">
        <ele>405.2</ele>
        <time>2014-05-01T09:10:32Z</time>
      </trkpt>
      <trkpt lat="44.68596" lon="4.8965">
        <ele>408.2</ele>
        <time>2014-05-01T09:10:38Z</time>
      </trkpt>
      <trkpt lat="44.686" lon="4.89651">
        <ele>409.3</ele>
        <time>2014-05-01T09:10:40Z</time>
      </trkpt>
      <trkpt lat="44.68605" lon="4.89651">
        <ele>410.5</ele>
        <time>2014-05-01T09:10:42Z</time>
      </trkpt>
      <trkpt lat="44.6861" lon="4.89651">
        <ele>411.8</ele>
        <time>2014-05-01T09:10:44Z</time>
      </trkpt>
      <trkpt lat="44.68616" lon="4.89651">
        <ele>413.2</ele>
        <time>2014-05-01T09:10:46Z</time>
      </trkpt>
      <trkpt lat="44.68622" lon="4.89651">
        <ele>414.7</ele>
        <time>2014-05-01T09:10:48Z</time>
      </trkpt>
      <trkpt lat="44.68628" lon="4.89651">
        <ele>416.1</ele>
        <time>2014-05-01T09:10:50Z</time>
      </trkpt>
      <trkpt lat="44.68634" lon="4.89651">
        <ele>417.6</ele>
        <time>2014-05-01T09:10:52Z</time>
      </trkpt>
      <trkpt lat="44.6864" lon="4.89652">
        <ele>419.1</ele>
        <time>2014-05-01T09:10:54Z</time>
      </trkpt>
      <trkpt lat="44.68646" lon="4.89652">
        <ele>420.5</ele>
        <time>2014-05-01T09:10:56Z</time>
      </trkpt>
      <trkpt lat="44.68651" lon="4.89654">
        <ele>421.9</ele>
        <time>2014-05-01T09:10:58Z</time>
      </trkpt>
      <trkpt lat="44.68656" lon="4.89657">
        <ele>423.3</ele>
        <time>2014-05-01T09:11:00Z</time>
      </trkpt>
      <trkpt lat="44.68661" lon="4.89661">
        <ele>424.5</ele>
        <time>2014-05-01T09:11:02Z</time>
      </trkpt>
      <trkpt lat="44.68666" lon="4.89664">
        <ele>425.7</ele>
        <time>2014-05-01T09:11:04Z</time>
      </trkpt>
      <trkpt lat="44.68671" lon="4.89667">
        <ele>426.7</ele>
        <time>2014-05-01T09:11:06Z</time>
      </trkpt>
      <trkpt lat="44.68675" lon="4.8967">
        <ele>427.3</ele>
        <time>2014-05-01T09:11:08Z</time>
      </trkpt>
      <trkpt lat="44.68681" lon="4.89674">
        <ele>428.1</ele>
        <time>2014-05-01T09:11:11Z</time>
      </trkpt>
      <trkpt lat="44.68685" lon="4.89677">
        <ele>428.7</ele>
        <time>2014-05-01T09:11:14Z</time>
      </trkpt>
      <trkpt lat="44.68689" lon="4.8968">
        <ele>429.3</ele>
        <time>2014-05-01T09:11:17Z</time>
      </trkpt>
      <trkpt lat="44.68694" lon="4.89682">
        <ele>430.1</ele>
        <time>2014-05-01T09:11:21Z</time>
      </trkpt>
      <trkpt lat="44.68699" lon="4.89685">
        <ele>430.9</ele>
        <time>2014-05-01T09:11:26Z</time>
      </trkpt>
      <trkpt lat="44.68703" lon="4.89689">
        <ele>431.7</ele>
        <time>2014-05-01T09:11:31Z</time>
      </trkpt>
      <trkpt lat="44.68708" lon="4.89691">
        <ele>432.6</ele>
        <time>2014-05-01T09:11:36Z</time>
      </trkpt>
      <trkpt lat="44.68715" lon="4.89702">
        <ele>433.7</ele>
        <time>2014-05-01T09:11:47Z</time>
      </trkpt>
      <trkpt lat="44.68716" lon="4.89709">
        <ele>433.9</ele>
        <time>2014-05-01T09:11:52Z</time>
      </trkpt>
      <trkpt lat="44.68717" lon="4.89716">
        <ele>434</ele>
        <time>2014-05-01T09:11:57Z</time>
      </trkpt>
      <trkpt lat="44.68718" lon="4.89723">
        <ele>434.2</ele>
        <time>2014-05-01T09:12:01Z</time>
      </trkpt>
      <trkpt lat="44.68721" lon="4.89729">
        <ele>434.7</ele>
        <time>2014-05-01T09:12:05Z</time>
      </trkpt>
      <trkpt lat="44.68724" lon="4.89736">
        <ele>435.5</ele>
        <time>2014-05-01T09:12:09Z</time>
      </trkpt>
      <trkpt lat="44.68728" lon="4.89742">
        <ele>436.3</ele>
        <time>2014-05-01T09:12:13Z</time>
      </trkpt>
      <trkpt lat="44.68732" lon="4.89747">
        <ele>437.3</ele>
        <time>2014-05-01T09:12:17Z</time>
      </trkpt>
      <trkpt lat="44.68736" lon="4.89751">
        <ele>438.6</ele>
        <time>2014-05-01T09:12:22Z</time>
      </trkpt>
      <trkpt lat="44.68742" lon="4.89753">
        <ele>439.8</ele>
        <time>2014-05-01T09:12:27Z</time>
      </trkpt>
      <trkpt lat="44.68747" lon="4.89752">
        <ele>441.2</ele>
        <time>2014-05-01T09:12:32Z</time>
      </trkpt>
      <trkpt lat="44.68752" lon="4.89756">
        <ele>442.3</ele>
        <time>2014-05-01T09:12:36Z</time>
      </trkpt>
      <trkpt lat="44.68757" lon="4.8976">
        <ele>442.9</ele>
        <time>2014-05-01T09:12:38Z</time>
      </trkpt>
      <trkpt lat="44.68766" lon="4.89768">
        <ele>444.2</ele>
        <time>2014-05-01T09:12:42Z</time>
      </trkpt>
      <trkpt lat="44.68771" lon="4.89772">
        <ele>445.1</ele>
        <time>2014-05-01T09:12:44Z</time>
      </trkpt>
      <trkpt lat="44.68776" lon="4.89777">
        <ele>445.7</ele>
        <time>2014-05-01T09:12:46Z</time>
      </trkpt>
      <trkpt lat="44.68779" lon="4.89783">
        <ele>446.1</ele>
        <time>2014-05-01T09:12:48Z</time>
      </trkpt>
      <trkpt lat="44.68783" lon="4.89791">
        <ele>446.7</ele>
        <time>2014-05-01T09:12:51Z</time>
      </trkpt>
      <trkpt lat="44.68786" lon="4.89798">
        <ele>447</ele>
        <time>2014-05-01T09:12:54Z</time>
      </trkpt>
      <trkpt lat="44.6879" lon="4.89806">
        <ele>447.4</ele>
        <time>2014-05-01T09:12:57Z</time>
      </trkpt>
      <trkpt lat="44.68792" lon="4.89814">
        <ele>447.5</ele>
        <time>2014-05-01T09:13:00Z</time>
      </trkpt>
      <trkpt lat="44.68793" lon="4.89821">
        <ele>447.6</ele>
        <time>2014-05-01T09:13:02Z</time>
      </trkpt>
      <trkpt lat="44.68794" lon="4.89827">
        <ele>447.5</ele>
        <time>2014-05-01T09:13:04Z</time>
      </trkpt>
      <trkpt lat="44.68795" lon="4.89835">
        <ele>447.6</ele>
        <time>2014-05-01T09:13:06Z</time>
      </trkpt>
      <trkpt lat="44.68795" lon="4.89843">
        <ele>447.8</ele>
        <time>2014-05-01T09:13:08Z</time>
      </trkpt>
      <trkpt lat="44.68794" lon="4.8985">
        <ele>447.7</ele>
        <time>2014-05-01T09:13:10Z</time>
      </trkpt>
      <trkpt lat="44.68795" lon="4.89862">
        <ele>448.1</ele>
        <time>2014-05-01T09:13:12Z</time>
      </trkpt>
      <trkpt lat="44.68794" lon="4.89869">
        <ele>448.1</ele>
        <time>2014-05-01T09:13:14Z</time>
      </trkpt>
      <trkpt lat="44.68793" lon="4.89879">
        <ele>448</ele>
        <time>2014-05-01T09:13:17Z</time>
      </trkpt>
      <trkpt lat="44.68793" lon="4.89886">
        <ele>448.1</ele>
        <time>2014-05-01T09:13:19Z</time>
      </trkpt>
      <trkpt lat="44.6879" lon="4.89895">
        <ele>447.8</ele>
        <time>2014-05-01T09:13:22Z</time>
      </trkpt>
      <trkpt lat="44.68786" lon="4.89903">
        <ele>447.2</ele>
        <time>2014-05-01T09:13:24Z</time>
      </trkpt>
      <trkpt lat="44.6878" lon="4.8991">
        <ele>446.3</ele>
        <time>2014-05-01T09:13:26Z</time>
      </trkpt>
      <trkpt lat="44.68773" lon="4.8992">
        <ele>445.2</ele>
        <time>2014-05-01T09:13:28Z</time>
      </trkpt>
      <trkpt lat="44.68769" lon="4.89926">
        <ele>444.3</ele>
        <time>2014-05-01T09:13:29Z</time>
      </trkpt>
      <trkpt lat="44.68765" lon="4.89933">
        <ele>443.4</ele>
        <time>2014-05-01T09:13:30Z</time>
      </trkpt>
      <trkpt lat="44.68761" lon="4.8994">
        <ele>442.6</ele>
        <time>2014-05-01T09:13:31Z</time>
      </trkpt>
      <trkpt lat="44.68757" lon="4.89946">
        <ele>441.8</ele>
        <time>2014-05-01T09:13:32Z</time>
      </trkpt>
      <trkpt lat="44.68754" lon="4.89952">
        <ele>441.3</ele>
        <time>2014-05-01T09:13:33Z</time>
      </trkpt>
      <trkpt lat="44.68752" lon="4.89958">
        <ele>440.9</ele>
        <time>2014-05-01T09:13:34Z</time>
      </trkpt>
      <trkpt lat="44.68751" lon="4.89965">
        <ele>440.6</ele>
        <time>2014-05-01T09:13:35Z</time>
      </trkpt>
      <trkpt lat="44.68751" lon="4.89974">
        <ele>440.5</ele>
        <time>2014-05-01T09:13:37Z</time>
      </trkpt>
      <trkpt lat="44.68752" lon="4.89983">
        <ele>440.6</ele>
        <time>2014-05-01T09:13:39Z</time>
      </trkpt>
      <trkpt lat="44.68758" lon="4.89998">
        <ele>441.2</ele>
        <time>2014-05-01T09:13:42Z</time>
      </trkpt>
      <trkpt lat="44.68762" lon="4.90008">
        <ele>440</ele>
        <time>2014-05-01T09:13:44Z</time>
      </trkpt>
      <trkpt lat="44.68767" lon="4.90017">
        <ele>438.6</ele>
        <time>2014-05-01T09:13:46Z</time>
      </trkpt>
      <trkpt lat="44.68773" lon="4.90026">
        <ele>437.5</ele>
        <time>2014-05-01T09:13:48Z</time>
      </trkpt>
      <trkpt lat="44.68777" lon="4.9003">
        <ele>437.2</ele>
        <time>2014-05-01T09:13:49Z</time>
      </trkpt>
      <trkpt lat="44.68781" lon="4.90035">
        <ele>436.9</ele>
        <time>2014-05-01T09:13:50Z</time>
      </trkpt>
      <trkpt lat="44.68786" lon="4.9004">
        <ele>436.5</ele>
        <time>2014-05-01T09:13:51Z</time>
      </trkpt>
      <trkpt lat="44.68791" lon="4.90045">
        <ele>436</ele>
        <time>2014-05-01T09:13:52Z</time>
      </trkpt>
      <trkpt lat="44.68795" lon="4.90049">
        <ele>435.9</ele>
        <time>2014-05-01T09:13:53Z</time>
      </trkpt>
      <trkpt lat="44.688" lon="4.90052">
        <ele>435.7</ele>
        <time>2014-05-01T09:13:54Z</time>
      </trkpt>
      <trkpt lat="44.68805" lon="4.90055">
        <ele>435.8</ele>
        <time>2014-05-01T09:13:55Z</time>
      </trkpt>
      <trkpt lat="44.68809" lon="4.90059">
        <ele>435.7</ele>
        <time>2014-05-01T09:13:56Z</time>
      </trkpt>
      <trkpt lat="44.68814" lon="4.90061">
        <ele>435.8</ele>
        <time>2014-05-01T09:13:57Z</time>
      </trkpt>
      <trkpt lat="44.68818" lon="4.90065">
        <ele>435.9</ele>
        <time>2014-05-01T09:13:58Z</time>
      </trkpt>
      <trkpt lat="44.68823" lon="4.90067">
        <ele>436.2</ele>
        <time>2014-05-01T09:13:59Z</time>
      </trkpt>
      <trkpt lat="44.68829" lon="4.9007">
        <ele>436.3</ele>
        <time>2014-05-01T09:14:00Z</time>
      </trkpt>
      <trkpt lat="44.68833" lon="4.90073">
        <ele>436.2</ele>
        <time>2014-05-01T09:14:01Z</time>
      </trkpt>
      <trkpt lat="44.68838" lon="4.90076">
        <ele>436.2</ele>
        <time>2014-05-01T09:14:02Z</time>
      </trkpt>
      <trkpt lat="44.68843" lon="4.90078">
        <ele>436.1</ele>
        <time>2014-05-01T09:14:03Z</time>
      </trkpt>
      <trkpt lat="44.68848" lon="4.90081">
        <ele>436.1</ele>
        <time>2014-05-01T09:14:04Z</time>
      </trkpt>
      <trkpt lat="44.68853" lon="4.90084">
        <ele>436.1</ele>
        <time>2014-05-01T09:14:05Z</time>
      </trkpt>
      <trkpt lat="44.68858" lon="4.90087">
        <ele>435.3</ele>
        <time>2014-05-01T09:14:06Z</time>
      </trkpt>
      <trkpt lat="44.68862" lon="4.9009">
        <ele>435.3</ele>
        <time>2014-05-01T09:14:07Z</time>
      </trkpt>
      <trkpt lat="44.68867" lon="4.90091">
        <ele>434.9</ele>
        <time>2014-05-01T09:14:08Z</time>
      </trkpt>
      <trkpt lat="44.68875" lon="4.90095">
        <ele>435</ele>
        <time>2014-05-01T09:14:10Z</time>
      </trkpt>
      <trkpt lat="44.6888" lon="4.90097">
        <ele>434.9</ele>
        <time>2014-05-01T09:14:12Z</time>
      </trkpt>
      <trkpt lat="44.68886" lon="4.90101">
        <ele>434.4</ele>
        <time>2014-05-01T09:14:14Z</time>
      </trkpt>
      <trkpt lat="44.68893" lon="4.90104">
        <ele>434.5</ele>
        <time>2014-05-01T09:14:16Z</time>
      </trkpt>
      <trkpt lat="44.68898" lon="4.90106">
        <ele>434.4</ele>
        <time>2014-05-01T09:14:18Z</time>
      </trkpt>
      <trkpt lat="44.68904" lon="4.90107">
        <ele>434.7</ele>
        <time>2014-05-01T09:14:20Z</time>
      </trkpt>
      <trkpt lat="44.68909" lon="4.90109">
        <ele>435.1</ele>
        <time>2014-05-01T09:14:22Z</time>
      </trkpt>
      <trkpt lat="44.68914" lon="4.90111">
        <ele>435</ele>
        <time>2014-05-01T09:14:24Z</time>
      </trkpt>
      <trkpt lat="44.68919" lon="4.90113">
        <ele>435.2</ele>
        <time>2014-05-01T09:14:26Z</time>
      </trkpt>
      <trkpt lat="44.68924" lon="4.90115">
        <ele>434.6</ele>
        <time>2014-05-01T09:14:28Z</time>
      </trkpt>
      <trkpt lat="44.68929" lon="4.90118">
        <ele>434.1</ele>
        <time>2014-05-01T09:14:30Z</time>
      </trkpt>
      <trkpt lat="44.68935" lon="4.90119">
        <ele>433.9</ele>
        <time>2014-05-01T09:14:32Z</time>
      </trkpt>
      <trkpt lat="44.68941" lon="4.90122">
        <ele>433.5</ele>
        <time>2014-05-01T09:14:35Z</time>
      </trkpt>
      <trkpt lat="44.68945" lon="4.90124">
        <ele>433</ele>
        <time>2014-05-01T09:14:37Z</time>
      </trkpt>
      <trkpt lat="44.68952" lon="4.90127">
        <ele>432.7</ele>
        <time>2014-05-01T09:14:40Z</time>
      </trkpt>
      <trkpt lat="44.68965" lon="4.90131">
        <ele>432.4</ele>
        <time>2014-05-01T09:14:44Z</time>
      </trkpt>
      <trkpt lat="44.68972" lon="4.90133">
        <ele>432.4</ele>
        <time>2014-05-01T09:14:46Z</time>
      </trkpt>
      <trkpt lat="44.68977" lon="4.90134">
        <ele>432.1</ele>
        <time>2014-05-01T09:14:48Z</time>
      </trkpt>
      <trkpt lat="44.68982" lon="4.90136">
        <ele>432</ele>
        <time>2014-05-01T09:14:50Z</time>
      </trkpt>
      <trkpt lat="44.68986" lon="4.9014">
        <ele>431.5</ele>
        <time>2014-05-01T09:14:52Z</time>
      </trkpt>
      <trkpt lat="44.68992" lon="4.90143">
        <ele>431.3</ele>
        <time>2014-05-01T09:14:55Z</time>
      </trkpt>
      <trkpt lat="44.68997" lon="4.90144">
        <ele>431.1</ele>
        <time>2014-05-01T09:14:57Z</time>
      </trkpt>
      <trkpt lat="44.69003" lon="4.90146">
        <ele>431</ele>
        <time>2014-05-01T09:15:00Z</time>
      </trkpt>
      <trkpt lat="44.69008" lon="4.90149">
        <ele>430.6</ele>
        <time>2014-05-01T09:15:03Z</time>
      </trkpt>
      <trkpt lat="44.69013" lon="4.90151">
        <ele>430.2</ele>
        <time>2014-05-01T09:15:05Z</time>
      </trkpt>
      <trkpt lat="44.69017" lon="4.90153">
        <ele>430</ele>
        <time>2014-05-01T09:15:07Z</time>
      </trkpt>
      <trkpt lat="44.69023" lon="4.90157">
        <ele>429.3</ele>
        <time>2014-05-01T09:15:10Z</time>
      </trkpt>
      <trkpt lat="44.69028" lon="4.9016">
        <ele>428.8</ele>
        <time>2014-05-01T09:15:13Z</time>
      </trkpt>
      <trkpt lat="44.69034" lon="4.90162">
        <ele>428.4</ele>
        <time>2014-05-01T09:15:15Z</time>
      </trkpt>
      <trkpt lat="44.69039" lon="4.90163">
        <ele>428.2</ele>
        <time>2014-05-01T09:15:18Z</time>
      </trkpt>
      <trkpt lat="44.69045" lon="4.90166">
        <ele>427.8</ele>
        <time>2014-05-01T09:15:21Z</time>
      </trkpt>
      <trkpt lat="44.69051" lon="4.90169">
        <ele>427.3</ele>
        <time>2014-05-01T09:15:24Z</time>
      </trkpt>
      <trkpt lat="44.69056" lon="4.90171">
        <ele>426.8</ele>
        <time>2014-05-01T09:15:27Z</time>
      </trkpt>
      <trkpt lat="44.69061" lon="4.90171">
        <ele>426.9</ele>
        <time>2014-05-01T09:15:30Z</time>
      </trkpt>
      <trkpt lat="44.69066" lon="4.90171">
        <ele>427</ele>
        <time>2014-05-01T09:15:33Z</time>
      </trkpt>
      <trkpt lat="44.69071" lon="4.9017">
        <ele>427.3</ele>
        <time>2014-05-01T09:15:37Z</time>
      </trkpt>
      <trkpt lat="44.69075" lon="4.90168">
        <ele>427.6</ele>
        <time>2014-05-01T09:15:48Z</time>
      </trkpt>
      <trkpt lat="44.69087" lon="4.90154">
        <ele>430.7</ele>
        <time>2014-05-01T09:16:10Z</time>
      </trkpt>
      <trkpt lat="44.69092" lon="4.90149">
        <ele>432</ele>
        <time>2014-05-01T09:16:12Z</time>
      </trkpt>
      <trkpt lat="44.69096" lon="4.90144">
        <ele>433.1</ele>
        <time>2014-05-01T09:16:15Z</time>
      </trkpt>
      <trkpt lat="44.69102" lon="4.90139">
        <ele>434.1</ele>
        <time>2014-05-01T09:16:19Z</time>
      </trkpt>
      <trkpt lat="44.69106" lon="4.90136">
        <ele>434.9</ele>
        <time>2014-05-01T09:16:23Z</time>
      </trkpt>
      <trkpt lat="44.6911" lon="4.90131">
        <ele>435.9</ele>
        <time>2014-05-01T09:16:27Z</time>
      </trkpt>
      <trkpt lat="44.69113" lon="4.90126">
        <ele>436.9</ele>
        <time>2014-05-01T09:16:30Z</time>
      </trkpt>
      <trkpt lat="44.69115" lon="4.9012">
        <ele>437.8</ele>
        <time>2014-05-01T09:16:34Z</time>
      </trkpt>
      <trkpt lat="44.69116" lon="4.90113">
        <ele>439.1</ele>
        <time>2014-05-01T09:16:38Z</time>
      </trkpt>
      <trkpt lat="44.69117" lon="4.90106">
        <ele>440.1</ele>
        <time>2014-05-01T09:16:42Z</time>
      </trkpt>
      <trkpt lat="44.69118" lon="4.90098">
        <ele>441.3</ele>
        <time>2014-05-01T09:16:47Z</time>
      </trkpt>
      <trkpt lat="44.6912" lon="4.90092">
        <ele>442.3</ele>
        <time>2014-05-01T09:16:51Z</time>
      </trkpt>
      <trkpt lat="44.69123" lon="4.90078">
        <ele>443.8</ele>
        <time>2014-05-01T09:16:58Z</time>
      </trkpt>
      <trkpt lat="44.69124" lon="4.9007">
        <ele>444.1</ele>
        <time>2014-05-01T09:17:01Z</time>
      </trkpt>
      <trkpt lat="44.69126" lon="4.90063">
        <ele>444.4</ele>
        <time>2014-05-01T09:17:04Z</time>
      </trkpt>
      <trkpt lat="44.69127" lon="4.90056">
        <ele>444.6</ele>
        <time>2014-05-01T09:17:07Z</time>
      </trkpt>
      <trkpt lat="44.6913" lon="4.90051">
        <ele>444.8</ele>
        <time>2014-05-01T09:17:10Z</time>
      </trkpt>
      <trkpt lat="44.69131" lon="4.90043">
        <ele>444.9</ele>
        <time>2014-05-01T09:17:13Z</time>
      </trkpt>
      <trkpt lat="44.69131" lon="4.90036">
        <ele>445.2</ele>
        <time>2014-05-01T09:17:16Z</time>
      </trkpt>
      <trkpt lat="44.69132" lon="4.90028">
        <ele>445.5</ele>
        <time>2014-05-01T09:17:20Z</time>
      </trkpt>
      <trkpt lat="44.69128" lon="4.90023">
        <ele>445.9</ele>
        <time>2014-05-01T09:17:24Z</time>
      </trkpt>
      <trkpt lat="44.69125" lon="4.90016">
        <ele>446.3</ele>
        <time>2014-05-01T09:17:28Z</time>
      </trkpt>
      <trkpt lat="44.69123" lon="4.90009">
        <ele>446.8</ele>
        <time>2014-05-01T09:17:32Z</time>
      </trkpt>
      <trkpt lat="44.6912" lon="4.90002">
        <ele>447.3</ele>
        <time>2014-05-01T09:17:36Z</time>
      </trkpt>
      <trkpt lat="44.69118" lon="4.89995">
        <ele>447.4</ele>
        <time>2014-05-01T09:17:40Z</time>
      </trkpt>
      <trkpt lat="44.69116" lon="4.89987">
        <ele>447.5</ele>
        <time>2014-05-01T09:17:43Z</time>
      </trkpt>
      <trkpt lat="44.69115" lon="4.8998">
        <ele>447.5</ele>
        <time>2014-05-01T09:17:46Z</time>
      </trkpt>
      <trkpt lat="44.69112" lon="4.89975">
        <ele>447.7</ele>
        <time>2014-05-01T09:17:49Z</time>
      </trkpt>
      <trkpt lat="44.69109" lon="4.89969">
        <ele>447.9</ele>
        <time>2014-05-01T09:17:52Z</time>
      </trkpt>
      <trkpt lat="44.69119" lon="4.89959">
        <ele>447</ele>
        <time>2014-05-01T09:17:58Z</time>
      </trkpt>
      <trkpt lat="44.69125" lon="4.89954">
        <ele>446.4</ele>
        <time>2014-05-01T09:18:00Z</time>
      </trkpt>
      <trkpt lat="44.69132" lon="4.8995">
        <ele>445.8</ele>
        <time>2014-05-01T09:18:02Z</time>
      </trkpt>
      <trkpt lat="44.69137" lon="4.89948">
        <ele>445.3</ele>
        <time>2014-05-01T09:18:04Z</time>
      </trkpt>
      <trkpt lat="44.69143" lon="4.89945">
        <ele>444.8</ele>
        <time>2014-05-01T09:18:06Z</time>
      </trkpt>
      <trkpt lat="44.69149" lon="4.89946">
        <ele>444.3</ele>
        <time>2014-05-01T09:18:08Z</time>
      </trkpt>
      <trkpt lat="44.69156" lon="4.89949">
        <ele>443.7</ele>
        <time>2014-05-01T09:18:10Z</time>
      </trkpt>
      <trkpt lat="44.69162" lon="4.89948">
        <ele>443.1</ele>
        <time>2014-05-01T09:18:12Z</time>
      </trkpt>
      <trkpt lat="44.69168" lon="4.89942">
        <ele>442.5</ele>
        <time>2014-05-01T09:18:14Z</time>
      </trkpt>
      <trkpt lat="44.69174" lon="4.89934">
        <ele>441.8</ele>
        <time>2014-05-01T09:18:16Z</time>
      </trkpt>
      <trkpt lat="44.69181" lon="4.89928">
        <ele>441.2</ele>
        <time>2014-05-01T09:18:18Z</time>
      </trkpt>
      <trkpt lat="44.69188" lon="4.89926">
        <ele>440.6</ele>
        <time>2014-05-01T09:18:20Z</time>
      </trkpt>
      <trkpt lat="44.69193" lon="4.89926">
        <ele>440.2</ele>
        <time>2014-05-01T09:18:21Z</time>
      </trkpt>
      <trkpt lat="44.69197" lon="4.89925">
        <ele>439.9</ele>
        <time>2014-05-01T09:18:22Z</time>
      </trkpt>
      <trkpt lat="44.69206" lon="4.89925">
        <ele>439.2</ele>
        <time>2014-05-01T09:18:24Z</time>
      </trkpt>
      <trkpt lat="44.69215" lon="4.89925">
        <ele>438.5</ele>
        <time>2014-05-01T09:18:26Z</time>
      </trkpt>
      <trkpt lat="44.6922" lon="4.89926">
        <ele>438.1</ele>
        <time>2014-05-01T09:18:27Z</time>
      </trkpt>
      <trkpt lat="44.69229" lon="4.89928">
        <ele>437.5</ele>
        <time>2014-05-01T09:18:29Z</time>
      </trkpt>
      <trkpt lat="44.69234" lon="4.89929">
        <ele>437.1</ele>
        <time>2014-05-01T09:18:30Z</time>
      </trkpt>
      <trkpt lat="44.69242" lon="4.89931">
        <ele>436.5</ele>
        <time>2014-05-01T09:18:32Z</time>
      </trkpt>
      <trkpt lat="44.69252" lon="4.89932">
        <ele>435.8</ele>
        <time>2014-05-01T09:18:34Z</time>
      </trkpt>
      <trkpt lat="44.69258" lon="4.89932">
        <ele>435.6</ele>
        <time>2014-05-01T09:18:35Z</time>
      </trkpt>
      <trkpt lat="44.69264" lon="4.89933">
        <ele>435.4</ele>
        <time>2014-05-01T09:18:36Z</time>
      </trkpt>
      <trkpt lat="44.6927" lon="4.89933">
        <ele>435.3</ele>
        <time>2014-05-01T09:18:37Z</time>
      </trkpt>
      <trkpt lat="44.69274" lon="4.89934">
        <ele>435.2</ele>
        <time>2014-05-01T09:18:38Z</time>
      </trkpt>
      <trkpt lat="44.6928" lon="4.89936">
        <ele>435</ele>
        <time>2014-05-01T09:18:39Z</time>
      </trkpt>
      <trkpt lat="44.69285" lon="4.89938">
        <ele>434.8</ele>
        <time>2014-05-01T09:18:40Z</time>
      </trkpt>
      <trkpt lat="44.6929" lon="4.89941">
        <ele>434.6</ele>
        <time>2014-05-01T09:18:41Z</time>
      </trkpt>
      <trkpt lat="44.69294" lon="4.89942">
        <ele>434.5</ele>
        <time>2014-05-01T09:18:42Z</time>
      </trkpt>
      <trkpt lat="44.69305" lon="4.89942">
        <ele>434.2</ele>
        <time>2014-05-01T09:18:44Z</time>
      </trkpt>
      <trkpt lat="44.6931" lon="4.89941">
        <ele>434.1</ele>
        <time>2014-05-01T09:18:45Z</time>
      </trkpt>
      <trkpt lat="44.69317" lon="4.89937">
        <ele>434</ele>
        <time>2014-05-01T09:18:47Z</time>
      </trkpt>
      <trkpt lat="44.69322" lon="4.89936">
        <ele>433.9</ele>
        <time>2014-05-01T09:18:49Z</time>
      </trkpt>
      <trkpt lat="44.69327" lon="4.89938">
        <ele>433.7</ele>
        <time>2014-05-01T09:18:51Z</time>
      </trkpt>
      <trkpt lat="44.69331" lon="4.89941">
        <ele>433.5</ele>
        <time>2014-05-01T09:18:53Z</time>
      </trkpt>
      <trkpt lat="44.69339" lon="4.8995">
        <ele>432.8</ele>
        <time>2014-05-01T09:18:57Z</time>
      </trkpt>
      <trkpt lat="44.69343" lon="4.89953">
        <ele>432.5</ele>
        <time>2014-05-01T09:18:59Z</time>
      </trkpt>
      <trkpt lat="44.69349" lon="4.89953">
        <ele>432.2</ele>
        <time>2014-05-01T09:19:01Z</time>
      </trkpt>
      <trkpt lat="44.69354" lon="4.89954">
        <ele>431.8</ele>
        <time>2014-05-01T09:19:03Z</time>
      </trkpt>
      <trkpt lat="44.69358" lon="4.89955">
        <ele>431.6</ele>
        <time>2014-05-01T09:19:05Z</time>
      </trkpt>
      <trkpt lat="44.69363" lon="4.8995">
        <ele>431.3</ele>
        <time>2014-05-01T09:19:07Z</time>
      </trkpt>
      <trkpt lat="44.6937" lon="4.89948">
        <ele>431</ele>
        <time>2014-05-01T09:19:10Z</time>
      </trkpt>
      <trkpt lat="44.69376" lon="4.89943">
        <ele>430.6</ele>
        <time>2014-05-01T09:19:12Z</time>
      </trkpt>
      <trkpt lat="44.69381" lon="4.89939">
        <ele>430.3</ele>
        <time>2014-05-01T09:19:14Z</time>
      </trkpt>
      <trkpt lat="44.69388" lon="4.89933">
        <ele>429.9</ele>
        <time>2014-05-01T09:19:16Z</time>
      </trkpt>
      <trkpt lat="44.69396" lon="4.8993">
        <ele>429.4</ele>
        <time>2014-05-01T09:19:18Z</time>
      </trkpt>
      <trkpt lat="44.69401" lon="4.8993">
        <ele>429.1</ele>
        <time>2014-05-01T09:19:19Z</time>
      </trkpt>
      <trkpt lat="44.69406" lon="4.8993">
        <ele>428.7</ele>
        <time>2014-05-01T09:19:21Z</time>
      </trkpt>
      <trkpt lat="44.69411" lon="4.8992">
        <ele>428.4</ele>
        <time>2014-05-01T09:19:23Z</time>
      </trkpt>
      <trkpt lat="44.69413" lon="4.89914">
        <ele>428</ele>
        <time>2014-05-01T09:19:24Z</time>
      </trkpt>
      <trkpt lat="44.69416" lon="4.89902">
        <ele>427.3</ele>
        <time>2014-05-01T09:19:26Z</time>
      </trkpt>
      <trkpt lat="44.69417" lon="4.89895">
        <ele>426.9</ele>
        <time>2014-05-01T09:19:27Z</time>
      </trkpt>
      <trkpt lat="44.69417" lon="4.89889">
        <ele>426.6</ele>
        <time>2014-05-01T09:19:28Z</time>
      </trkpt>
      <trkpt lat="44.69418" lon="4.89879">
        <ele>426</ele>
        <time>2014-05-01T09:19:30Z</time>
      </trkpt>
      <trkpt lat="44.6942" lon="4.89868">
        <ele>425.3</ele>
        <time>2014-05-01T09:19:32Z</time>
      </trkpt>
      <trkpt lat="44.69422" lon="4.89858">
        <ele>424.6</ele>
        <time>2014-05-01T09:19:34Z</time>
      </trkpt>
      <trkpt lat="44.69427" lon="4.89853">
        <ele>423.9</ele>
        <time>2014-05-01T09:19:37Z</time>
      </trkpt>
      <trkpt lat="44.69433" lon="4.89857">
        <ele>423.5</ele>
        <time>2014-05-01T09:19:39Z</time>
      </trkpt>
      <trkpt lat="44.69436" lon="4.89864">
        <ele>423.5</ele>
        <time>2014-05-01T09:19:41Z</time>
      </trkpt>
      <trkpt lat="44.6944" lon="4.89872">
        <ele>423.6</ele>
        <time>2014-05-01T09:19:43Z</time>
      </trkpt>
      <trkpt lat="44.69443" lon="4.89882">
        <ele>423.6</ele>
        <time>2014-05-01T09:19:45Z</time>
      </trkpt>
      <trkpt lat="44.69447" lon="4.89892">
        <ele>423.6</ele>
        <time>2014-05-01T09:19:47Z</time>
      </trkpt>
      <trkpt lat="44.69451" lon="4.89903">
        <ele>423.7</ele>
        <time>2014-05-01T09:19:49Z</time>
      </trkpt>
      <trkpt lat="44.69453" lon="4.89909">
        <ele>423.8</ele>
        <time>2014-05-01T09:19:50Z</time>
      </trkpt>
      <trkpt lat="44.69456" lon="4.89915">
        <ele>423.6</ele>
        <time>2014-05-01T09:19:51Z</time>
      </trkpt>
      <trkpt lat="44.69459" lon="4.89922">
        <ele>423.4</ele>
        <time>2014-05-01T09:19:52Z</time>
      </trkpt>
      <trkpt lat="44.69461" lon="4.89929">
        <ele>423</ele>
        <time>2014-05-01T09:19:53Z</time>
      </trkpt>
      <trkpt lat="44.69464" lon="4.89936">
        <ele>422.7</ele>
        <time>2014-05-01T09:19:54Z</time>
      </trkpt>
      <trkpt lat="44.69471" lon="4.89951">
        <ele>421.6</ele>
        <time>2014-05-01T09:19:56Z</time>
      </trkpt>
      <trkpt lat="44.69474" lon="4.89959">
        <ele>421.1</ele>
        <time>2014-05-01T09:19:57Z</time>
      </trkpt>
      <trkpt lat="44.69478" lon="4.89967">
        <ele>420.5</ele>
        <time>2014-05-01T09:19:58Z</time>
      </trkpt>
      <trkpt lat="44.69483" lon="4.89975">
        <ele>419.8</ele>
        <time>2014-05-01T09:19:59Z</time>
      </trkpt>
      <trkpt lat="44.69486" lon="4.89984">
        <ele>419.1</ele>
        <time>2014-05-01T09:20:00Z</time>
      </trkpt>
      <trkpt lat="44.69491" lon="4.89993">
        <ele>418.4</ele>
        <time>2014-05-01T09:20:01Z</time>
      </trkpt>
      <trkpt lat="44.69496" lon="4.90002">
        <ele>417.6</ele>
        <time>2014-05-01T09:20:02Z</time>
      </trkpt>
      <trkpt lat="44.69501" lon="4.90011">
        <ele>416.9</ele>
        <time>2014-05-01T09:20:03Z</time>
      </trkpt>
      <trkpt lat="44.69506" lon="4.9002">
        <ele>416.3</ele>
        <time>2014-05-01T09:20:04Z</time>
      </trkpt>
      <trkpt lat="44.69512" lon="4.90027">
        <ele>415.8</ele>
        <time>2014-05-01T09:20:05Z</time>
      </trkpt>
      <trkpt lat="44.69517" lon="4.90035">
        <ele>415.3</ele>
        <time>2014-05-01T09:20:06Z</time>
      </trkpt>
      <trkpt lat="44.69523" lon="4.90042">
        <ele>414.9</ele>
        <time>2014-05-01T09:20:07Z</time>
      </trkpt>
      <trkpt lat="44.69529" lon="4.9005">
        <ele>414.5</ele>
        <time>2014-05-01T09:20:08Z</time>
      </trkpt>
      <trkpt lat="44.69534" lon="4.9006">
        <ele>414.4</ele>
        <time>2014-05-01T09:20:09Z</time>
      </trkpt>
      <trkpt lat="44.69538" lon="4.90069">
        <ele>414.3</ele>
        <time>2014-05-01T09:20:10Z</time>
      </trkpt>
      <trkpt lat="44.69543" lon="4.90078">
        <ele>414.2</ele>
        <time>2014-05-01T09:20:11Z</time>
      </trkpt>
      <trkpt lat="44.69548" lon="4.90087">
        <ele>414.1</ele>
        <time>2014-05-01T09:20:12Z</time>
      </trkpt>
      <trkpt lat="44.69553" lon="4.90095">
        <ele>413.6</ele>
        <time>2014-05-01T09:20:13Z</time>
      </trkpt>
      <trkpt lat="44.69559" lon="4.90104">
        <ele>413.3</ele>
        <time>2014-05-01T09:20:14Z</time>
      </trkpt>
      <trkpt lat="44.69564" lon="4.90112">
        <ele>412.9</ele>
        <time>2014-05-01T09:20:15Z</time>
      </trkpt>
      <trkpt lat="44.69569" lon="4.9012">
        <ele>412.6</ele>
        <time>2014-05-01T09:20:16Z</time>
      </trkpt>
      <trkpt lat="44.69573" lon="4.90128">
        <ele>412.4</ele>
        <time>2014-05-01T09:20:17Z</time>
      </trkpt>
      <trkpt lat="44.69577" lon="4.90134">
        <ele>412.2</ele>
        <time>2014-05-01T09:20:18Z</time>
      </trkpt>
      <trkpt lat="44.69585" lon="4.90138">
        <ele>411.9</ele>
        <time>2014-05-01T09:20:20Z</time>
      </trkpt>
      <trkpt lat="44.69591" lon="4.90138">
        <ele>411.4</ele>
        <time>2014-05-01T09:20:21Z</time>
      </trkpt>
      <trkpt lat="44.69596" lon="4.9014">
        <ele>411</ele>
        <time>2014-05-01T09:20:22Z</time>
      </trkpt>
      <trkpt lat="44.696" lon="4.90142">
        <ele>410.6</ele>
        <time>2014-05-01T09:20:23Z</time>
      </trkpt>
      <trkpt lat="44.69605" lon="4.90144">
        <ele>410.2</ele>
        <time>2014-05-01T09:20:24Z</time>
      </trkpt>
      <trkpt lat="44.6961" lon="4.90146">
        <ele>409.8</ele>
        <time>2014-05-01T09:20:25Z</time>
      </trkpt>
      <trkpt lat="44.69615" lon="4.90147">
        <ele>409.4</ele>
        <time>2014-05-01T09:20:26Z</time>
      </trkpt>
      <trkpt lat="44.69621" lon="4.90149">
        <ele>409</ele>
        <time>2014-05-01T09:20:27Z</time>
      </trkpt>
      <trkpt lat="44.69627" lon="4.90152">
        <ele>408.5</ele>
        <time>2014-05-01T09:20:28Z</time>
      </trkpt>
      <trkpt lat="44.69633" lon="4.90156">
        <ele>407.9</ele>
        <time>2014-05-01T09:20:29Z</time>
      </trkpt>
      <trkpt lat="44.6964" lon="4.90159">
        <ele>407.3</ele>
        <time>2014-05-01T09:20:30Z</time>
      </trkpt>
      <trkpt lat="44.69646" lon="4.90162">
        <ele>406.8</ele>
        <time>2014-05-01T09:20:31Z</time>
      </trkpt>
      <trkpt lat="44.69652" lon="4.90164">
        <ele>406.3</ele>
        <time>2014-05-01T09:20:32Z</time>
      </trkpt>
      <trkpt lat="44.69658" lon="4.90166">
        <ele>405.8</ele>
        <time>2014-05-01T09:20:33Z</time>
      </trkpt>
      <trkpt lat="44.69664" lon="4.90169">
        <ele>405.2</ele>
        <time>2014-05-01T09:20:34Z</time>
      </trkpt>
      <trkpt lat="44.69669" lon="4.90171">
        <ele>405</ele>
        <time>2014-05-01T09:20:35Z</time>
      </trkpt>
      <trkpt lat="44.69675" lon="4.90174">
        <ele>404.7</ele>
        <time>2014-05-01T09:20:36Z</time>
      </trkpt>
      <trkpt lat="44.69682" lon="4.90176">
        <ele>404.4</ele>
        <time>2014-05-01T09:20:37Z</time>
      </trkpt>
      <trkpt lat="44.69688" lon="4.90178">
        <ele>404.2</ele>
        <time>2014-05-01T09:20:38Z</time>
      </trkpt>
      <trkpt lat="44.69694" lon="4.90181">
        <ele>404</ele>
        <time>2014-05-01T09:20:39Z</time>
      </trkpt>
      <trkpt lat="44.69701" lon="4.90182">
        <ele>403.6</ele>
        <time>2014-05-01T09:20:40Z</time>
      </trkpt>
      <trkpt lat="44.69706" lon="4.90184">
        <ele>403.4</ele>
        <time>2014-05-01T09:20:41Z</time>
      </trkpt>
      <trkpt lat="44.69712" lon="4.90184">
        <ele>403.1</ele>
        <time>2014-05-01T09:20:42Z</time>
      </trkpt>
      <trkpt lat="44.69718" lon="4.90185">
        <ele>402.9</ele>
        <time>2014-05-01T09:20:43Z</time>
      </trkpt>
      <trkpt lat="44.69724" lon="4.90185">
        <ele>402.5</ele>
        <time>2014-05-01T09:20:44Z</time>
      </trkpt>
      <trkpt lat="44.6973" lon="4.90186">
        <ele>402.2</ele>
        <time>2014-05-01T09:20:45Z</time>
      </trkpt>
      <trkpt lat="44.69736" lon="4.90186">
        <ele>401.9</ele>
        <time>2014-05-01T09:20:46Z</time>
      </trkpt>
      <trkpt lat="44.69742" lon="4.90186">
        <ele>401.6</ele>
        <time>2014-05-01T09:20:47Z</time>
      </trkpt>
      <trkpt lat="44.69751" lon="4.90184">
        <ele>401.2</ele>
        <time>2014-05-01T09:20:48Z</time>
      </trkpt>
      <trkpt lat="44.69758" lon="4.90184">
        <ele>400.7</ele>
        <time>2014-05-01T09:20:49Z</time>
      </trkpt>
      <trkpt lat="44.69764" lon="4.90184">
        <ele>400.2</ele>
        <time>2014-05-01T09:20:50Z</time>
      </trkpt>
      <trkpt lat="44.6977" lon="4.90184">
        <ele>399.7</ele>
        <time>2014-05-01T09:20:51Z</time>
      </trkpt>
      <trkpt lat="44.69775" lon="4.90184">
        <ele>399.4</ele>
        <time>2014-05-01T09:20:52Z</time>
      </trkpt>
      <trkpt lat="44.6978" lon="4.90185">
        <ele>399.1</ele>
        <time>2014-05-01T09:20:53Z</time>
      </trkpt>
      <trkpt lat="44.69788" lon="4.90185">
        <ele>398.4</ele>
        <time>2014-05-01T09:20:55Z</time>
      </trkpt>
      <trkpt lat="44.69801" lon="4.90187">
        <ele>397.5</ele>
        <time>2014-05-01T09:20:58Z</time>
      </trkpt>
      <trkpt lat="44.69809" lon="4.90187">
        <ele>396.9</ele>
        <time>2014-05-01T09:21:00Z</time>
      </trkpt>
      <trkpt lat="44.69818" lon="4.90188">
        <ele>396.1</ele>
        <time>2014-05-01T09:21:02Z</time>
      </trkpt>
      <trkpt lat="44.69823" lon="4.90189">
        <ele>395.8</ele>
        <time>2014-05-01T09:21:03Z</time>
      </trkpt>
      <trkpt lat="44.69827" lon="4.90189">
        <ele>395.4</ele>
        <time>2014-05-01T09:21:04Z</time>
      </trkpt>
      <trkpt lat="44.69833" lon="4.90191">
        <ele>394.9</ele>
        <time>2014-05-01T09:21:05Z</time>
      </trkpt>
      <trkpt lat="44.69839" lon="4.90191">
        <ele>394.8</ele>
        <time>2014-05-01T09:21:06Z</time>
      </trkpt>
      <trkpt lat="44.69846" lon="4.90192">
        <ele>394.5</ele>
        <time>2014-05-01T09:21:07Z</time>
      </trkpt>
      <trkpt lat="44.69853" lon="4.90195">
        <ele>394.2</ele>
        <time>2014-05-01T09:21:08Z</time>
      </trkpt>
      <trkpt lat="44.69859" lon="4.90198">
        <ele>393.9</ele>
        <time>2014-05-01T09:21:09Z</time>
      </trkpt>
      <trkpt lat="44.69866" lon="4.90202">
        <ele>393.4</ele>
        <time>2014-05-01T09:21:10Z</time>
      </trkpt>
      <trkpt lat="44.69873" lon="4.90206">
        <ele>393.1</ele>
        <time>2014-05-01T09:21:11Z</time>
      </trkpt>
      <trkpt lat="44.69882" lon="4.9021">
        <ele>392.5</ele>
        <time>2014-05-01T09:21:12Z</time>
      </trkpt>
      <trkpt lat="44.69889" lon="4.90213">
        <ele>391.9</ele>
        <time>2014-05-01T09:21:13Z</time>
      </trkpt>
      <trkpt lat="44.69897" lon="4.90218">
        <ele>391.4</ele>
        <time>2014-05-01T09:21:14Z</time>
      </trkpt>
      <trkpt lat="44.69906" lon="4.90222">
        <ele>390.8</ele>
        <time>2014-05-01T09:21:15Z</time>
      </trkpt>
      <trkpt lat="44.69914" lon="4.90226">
        <ele>390.2</ele>
        <time>2014-05-01T09:21:16Z</time>
      </trkpt>
      <trkpt lat="44.69922" lon="4.9023">
        <ele>389.6</ele>
        <time>2014-05-01T09:21:17Z</time>
      </trkpt>
      <trkpt lat="44.69929" lon="4.90235">
        <ele>389.2</ele>
        <time>2014-05-01T09:21:18Z</time>
      </trkpt>
      <trkpt lat="44.69937" lon="4.90237">
        <ele>388.8</ele>
        <time>2014-05-01T09:21:19Z</time>
      </trkpt>
      <trkpt lat="44.69946" lon="4.90241">
        <ele>388.4</ele>
        <time>2014-05-01T09:21:20Z</time>
      </trkpt>
      <trkpt lat="44.69954" lon="4.90245">
        <ele>388</ele>
        <time>2014-05-01T09:21:21Z</time>
      </trkpt>
      <trkpt lat="44.6996" lon="4.90248">
        <ele>387.7</ele>
        <time>2014-05-01T09:21:22Z</time>
      </trkpt>
      <trkpt lat="44.69967" lon="4.90251">
        <ele>387.3</ele>
        <time>2014-05-01T09:21:23Z</time>
      </trkpt>
      <trkpt lat="44.69973" lon="4.90255">
        <ele>387</ele>
        <time>2014-05-01T09:21:24Z</time>
      </trkpt>
      <trkpt lat="44.6998" lon="4.90258">
        <ele>386.6</ele>
        <time>2014-05-01T09:21:25Z</time>
      </trkpt>
      <trkpt lat="44.69986" lon="4.90261">
        <ele>386.2</ele>
        <time>2014-05-01T09:21:26Z</time>
      </trkpt>
      <trkpt lat="44.69993" lon="4.90264">
        <ele>385.9</ele>
        <time>2014-05-01T09:21:27Z</time>
      </trkpt>
      <trkpt lat="44.69999" lon="4.90266">
        <ele>385.5</ele>
        <time>2014-05-01T09:21:28Z</time>
      </trkpt>
      <trkpt lat="44.70006" lon="4.90269">
        <ele>384.7</ele>
        <time>2014-05-01T09:21:29Z</time>
      </trkpt>
      <trkpt lat="44.70012" lon="4.90272">
        <ele>383.9</ele>
        <time>2014-05-01T09:21:30Z</time>
      </trkpt>
      <trkpt lat="44.70019" lon="4.90274">
        <ele>383.1</ele>
        <time>2014-05-01T09:21:31Z</time>
      </trkpt>
      <trkpt lat="44.70026" lon="4.90277">
        <ele>382.3</ele>
        <time>2014-05-01T09:21:32Z</time>
      </trkpt>
      <trkpt lat="44.70034" lon="4.90279">
        <ele>381.4</ele>
        <time>2014-05-01T09:21:33Z</time>
      </trkpt>
      <trkpt lat="44.70041" lon="4.90282">
        <ele>380.6</ele>
        <time>2014-05-01T09:21:34Z</time>
      </trkpt>
      <trkpt lat="44.70049" lon="4.90284">
        <ele>379.8</ele>
        <time>2014-05-01T09:21:35Z</time>
      </trkpt>
      <trkpt lat="44.70057" lon="4.90287">
        <ele>378.9</ele>
        <time>2014-05-01T09:21:36Z</time>
      </trkpt>
      <trkpt lat="44.70065" lon="4.90289">
        <ele>378.1</ele>
        <time>2014-05-01T09:21:37Z</time>
      </trkpt>
      <trkpt lat="44.70072" lon="4.90292">
        <ele>377.3</ele>
        <time>2014-05-01T09:21:38Z</time>
      </trkpt>
      <trkpt lat="44.70079" lon="4.90296">
        <ele>376.6</ele>
        <time>2014-05-01T09:21:39Z</time>
      </trkpt>
      <trkpt lat="44.70086" lon="4.90301">
        <ele>374.9</ele>
        <time>2014-05-01T09:21:40Z</time>
      </trkpt>
      <trkpt lat="44.70092" lon="4.90308">
        <ele>372</ele>
        <time>2014-05-01T09:21:41Z</time>
      </trkpt>
      <trkpt lat="44.70096" lon="4.90316">
        <ele>369.8</ele>
        <time>2014-05-01T09:21:42Z</time>
      </trkpt>
      <trkpt lat="44.70099" lon="4.90323">
        <ele>367.9</ele>
        <time>2014-05-01T09:21:43Z</time>
      </trkpt>
      <trkpt lat="44.70103" lon="4.9033">
        <ele>366</ele>
        <time>2014-05-01T09:21:44Z</time>
      </trkpt>
      <trkpt lat="44.70106" lon="4.90336">
        <ele>364.3</ele>
        <time>2014-05-01T09:21:45Z</time>
      </trkpt>
      <trkpt lat="44.7011" lon="4.90342">
        <ele>363</ele>
        <time>2014-05-01T09:21:46Z</time>
      </trkpt>
      <trkpt lat="44.70114" lon="4.9035">
        <ele>361.3</ele>
        <time>2014-05-01T09:21:48Z</time>
      </trkpt>
      <trkpt lat="44.7012" lon="4.90354">
        <ele>359.3</ele>
        <time>2014-05-01T09:21:50Z</time>
      </trkpt>
      <trkpt lat="44.70125" lon="4.90358">
        <ele>357.1</ele>
        <time>2014-05-01T09:21:52Z</time>
      </trkpt>
      <trkpt lat="44.70133" lon="4.90364">
        <ele>354.5</ele>
        <time>2014-05-01T09:21:54Z</time>
      </trkpt>
      <trkpt lat="44.70137" lon="4.90366">
        <ele>352.8</ele>
        <time>2014-05-01T09:21:55Z</time>
      </trkpt>
      <trkpt lat="44.70141" lon="4.9037">
        <ele>351.5</ele>
        <time>2014-05-01T09:21:56Z</time>
      </trkpt>
      <trkpt lat="44.70149" lon="4.9038">
        <ele>348.9</ele>
        <time>2014-05-01T09:21:58Z</time>
      </trkpt>
      <trkpt lat="44.70153" lon="4.90387">
        <ele>348</ele>
        <time>2014-05-01T09:21:59Z</time>
      </trkpt>
      <trkpt lat="44.70156" lon="4.90394">
        <ele>347.1</ele>
        <time>2014-05-01T09:22:00Z</time>
      </trkpt>
      <trkpt lat="44.7016" lon="4.90401">
        <ele>346.2</ele>
        <time>2014-05-01T09:22:01Z</time>
      </trkpt>
      <trkpt lat="44.70164" lon="4.90409">
        <ele>345.3</ele>
        <time>2014-05-01T09:22:02Z</time>
      </trkpt>
      <trkpt lat="44.70167" lon="4.90417">
        <ele>345</ele>
        <time>2014-05-01T09:22:03Z</time>
      </trkpt>
      <trkpt lat="44.70169" lon="4.90425">
        <ele>344.9</ele>
        <time>2014-05-01T09:22:04Z</time>
      </trkpt>
      <trkpt lat="44.70173" lon="4.90432">
        <ele>344.5</ele>
        <time>2014-05-01T09:22:05Z</time>
      </trkpt>
      <trkpt lat="44.70177" lon="4.90438">
        <ele>344.1</ele>
        <time>2014-05-01T09:22:06Z</time>
      </trkpt>
      <trkpt lat="44.70181" lon="4.90444">
        <ele>343.8</ele>
        <time>2014-05-01T09:22:07Z</time>
      </trkpt>
      <trkpt lat="44.70184" lon="4.9045">
        <ele>343.7</ele>
        <time>2014-05-01T09:22:08Z</time>
      </trkpt>
      <trkpt lat="44.70188" lon="4.90454">
        <ele>343.2</ele>
        <time>2014-05-01T09:22:10Z</time>
      </trkpt>
      <trkpt lat="44.70195" lon="4.90451">
        <ele>341.1</ele>
        <time>2014-05-01T09:22:12Z</time>
      </trkpt>
      <trkpt lat="44.70202" lon="4.90455">
        <ele>340.3</ele>
        <time>2014-05-01T09:22:14Z</time>
      </trkpt>
      <trkpt lat="44.70207" lon="4.90464">
        <ele>340.7</ele>
        <time>2014-05-01T09:22:16Z</time>
      </trkpt>
      <trkpt lat="44.7021" lon="4.90475">
        <ele>342.3</ele>
        <time>2014-05-01T09:22:18Z</time>
      </trkpt>
      <trkpt lat="44.70211" lon="4.90487">
        <ele>344.2</ele>
        <time>2014-05-01T09:22:20Z</time>
      </trkpt>
      <trkpt lat="44.70213" lon="4.90497">
        <ele>345.7</ele>
        <time>2014-05-01T09:22:22Z</time>
      </trkpt>
      <trkpt lat="44.70216" lon="4.90501">
        <ele>346.2</ele>
        <time>2014-05-01T09:22:24Z</time>
      </trkpt>
      <trkpt lat="44.7022" lon="4.90495">
        <ele>344.5</ele>
        <time>2014-05-01T09:22:28Z</time>
      </trkpt>
      <trkpt lat="44.70224" lon="4.90488">
        <ele>342.3</ele>
        <time>2014-05-01T09:22:30Z</time>
      </trkpt>
      <trkpt lat="44.70229" lon="4.90479">
        <ele>339.8</ele>
        <time>2014-05-01T09:22:32Z</time>
      </trkpt>
      <trkpt lat="44.70233" lon="4.90469">
        <ele>336.6</ele>
        <time>2014-05-01T09:22:34Z</time>
      </trkpt>
      <trkpt lat="44.70235" lon="4.90463">
        <ele>334.6</ele>
        <time>2014-05-01T09:22:35Z</time>
      </trkpt>
      <trkpt lat="44.70238" lon="4.90456">
        <ele>332.5</ele>
        <time>2014-05-01T09:22:36Z</time>
      </trkpt>
      <trkpt lat="44.7024" lon="4.9045">
        <ele>330.3</ele>
        <time>2014-05-01T09:22:37Z</time>
      </trkpt>
      <trkpt lat="44.70242" lon="4.90443">
        <ele>328.2</ele>
        <time>2014-05-01T09:22:38Z</time>
      </trkpt>
      <trkpt lat="44.70244" lon="4.90435">
        <ele>325.8</ele>
        <time>2014-05-01T09:22:39Z</time>
      </trkpt>
      <trkpt lat="44.70245" lon="4.90428">
        <ele>323.5</ele>
        <time>2014-05-01T09:22:40Z</time>
      </trkpt>
      <trkpt lat="44.70245" lon="4.9042">
        <ele>321.3</ele>
        <time>2014-05-01T09:22:41Z</time>
      </trkpt>
      <trkpt lat="44.70244" lon="4.90413">
        <ele>321</ele>
        <time>2014-05-01T09:22:42Z</time>
      </trkpt>
      <trkpt lat="44.70243" lon="4.90405">
        <ele>321.4</ele>
        <time>2014-05-01T09:22:43Z</time>
      </trkpt>
      <trkpt lat="44.70242" lon="4.90398">
        <ele>321.8</ele>
        <time>2014-05-01T09:22:44Z</time>
      </trkpt>
      <trkpt lat="44.70241" lon="4.9039">
        <ele>322.1</ele>
        <time>2014-05-01T09:22:45Z</time>
      </trkpt>
      <trkpt lat="44.70242" lon="4.90383">
        <ele>321.9</ele>
        <time>2014-05-01T09:22:46Z</time>
      </trkpt>
      <trkpt lat="44.70242" lon="4.90374">
        <ele>322.2</ele>
        <time>2014-05-01T09:22:47Z</time>
      </trkpt>
      <trkpt lat="44.70241" lon="4.90365">
        <ele>322.5</ele>
        <time>2014-05-01T09:22:48Z</time>
      </trkpt>
      <trkpt lat="44.70241" lon="4.90355">
        <ele>322.8</ele>
        <time>2014-05-01T09:22:49Z</time>
      </trkpt>
      <trkpt lat="44.7024" lon="4.90346">
        <ele>323</ele>
        <time>2014-05-01T09:22:50Z</time>
      </trkpt>
      <trkpt lat="44.7024" lon="4.90336">
        <ele>323.1</ele>
        <time>2014-05-01T09:22:51Z</time>
      </trkpt>
      <trkpt lat="44.70241" lon="4.90329">
        <ele>323.3</ele>
        <time>2014-05-01T09:22:52Z</time>
      </trkpt>
      <trkpt lat="44.70243" lon="4.90319">
        <ele>323.6</ele>
        <time>2014-05-01T09:22:53Z</time>
      </trkpt>
      <trkpt lat="44.70244" lon="4.90309">
        <ele>324.1</ele>
        <time>2014-05-01T09:22:54Z</time>
      </trkpt>
      <trkpt lat="44.70246" lon="4.90301">
        <ele>324.1</ele>
        <time>2014-05-01T09:22:55Z</time>
      </trkpt>
      <trkpt lat="44.70249" lon="4.90293">
        <ele>324.3</ele>
        <time>2014-05-01T09:22:56Z</time>
      </trkpt>
      <trkpt lat="44.70251" lon="4.90284">
        <ele>324.6</ele>
        <time>2014-05-01T09:22:57Z</time>
      </trkpt>
      <trkpt lat="44.70256" lon="4.90266">
        <ele>325.9</ele>
        <time>2014-05-01T09:22:59Z</time>
      </trkpt>
      <trkpt lat="44.70258" lon="4.90257">
        <ele>326.6</ele>
        <time>2014-05-01T09:23:00Z</time>
      </trkpt>
      <trkpt lat="44.70261" lon="4.90247">
        <ele>327.3</ele>
        <time>2014-05-01T09:23:01Z</time>
      </trkpt>
      <trkpt lat="44.70264" lon="4.90237">
        <ele>327.6</ele>
        <time>2014-05-01T09:23:02Z</time>
      </trkpt>
      <trkpt lat="44.70266" lon="4.90227">
        <ele>328</ele>
        <time>2014-05-01T09:23:03Z</time>
      </trkpt>
      <trkpt lat="44.70267" lon="4.90216">
        <ele>328.5</ele>
        <time>2014-05-01T09:23:04Z</time>
      </trkpt>
      <trkpt lat="44.70268" lon="4.90205">
        <ele>328.9</ele>
        <time>2014-05-01T09:23:05Z</time>
      </trkpt>
      <trkpt lat="44.70268" lon="4.90195">
        <ele>329.2</ele>
        <time>2014-05-01T09:23:06Z</time>
      </trkpt>
      <trkpt lat="44.70269" lon="4.90185">
        <ele>329.6</ele>
        <time>2014-05-01T09:23:07Z</time>
      </trkpt>
      <trkpt lat="44.70269" lon="4.90177">
        <ele>329.9</ele>
        <time>2014-05-01T09:23:08Z</time>
      </trkpt>
      <trkpt lat="44.70271" lon="4.90169">
        <ele>330.2</ele>
        <time>2014-05-01T09:23:09Z</time>
      </trkpt>
      <trkpt lat="44.70272" lon="4.90162">
        <ele>330.5</ele>
        <time>2014-05-01T09:23:10Z</time>
      </trkpt>
      <trkpt lat="44.70272" lon="4.90155">
        <ele>330.9</ele>
        <time>2014-05-01T09:23:11Z</time>
      </trkpt>
      <trkpt lat="44.70274" lon="4.90149">
        <ele>331.3</ele>
        <time>2014-05-01T09:23:12Z</time>
      </trkpt>
      <trkpt lat="44.70276" lon="4.90138">
        <ele>331.9</ele>
        <time>2014-05-01T09:23:14Z</time>
      </trkpt>
      <trkpt lat="44.70277" lon="4.90128">
        <ele>332.5</ele>
        <time>2014-05-01T09:23:16Z</time>
      </trkpt>
      <trkpt lat="44.70279" lon="4.90119">
        <ele>333.1</ele>
        <time>2014-05-01T09:23:18Z</time>
      </trkpt>
      <trkpt lat="44.70279" lon="4.90108">
        <ele>333.7</ele>
        <time>2014-05-01T09:23:20Z</time>
      </trkpt>
      <trkpt lat="44.7028" lon="4.90097">
        <ele>334.4</ele>
        <time>2014-05-01T09:23:22Z</time>
      </trkpt>
      <trkpt lat="44.70282" lon="4.90091">
        <ele>334.8</ele>
        <time>2014-05-01T09:23:23Z</time>
      </trkpt>
      <trkpt lat="44.70283" lon="4.90084">
        <ele>335.2</ele>
        <time>2014-05-01T09:23:24Z</time>
      </trkpt>
      <trkpt lat="44.70284" lon="4.90077">
        <ele>335.8</ele>
        <time>2014-05-01T09:23:25Z</time>
      </trkpt>
      <trkpt lat="44.70286" lon="4.9007">
        <ele>336.4</ele>
        <time>2014-05-01T09:23:26Z</time>
      </trkpt>
      <trkpt lat="44.70287" lon="4.90064">
        <ele>337</ele>
        <time>2014-05-01T09:23:27Z</time>
      </trkpt>
      <trkpt lat="44.70289" lon="4.90054">
        <ele>337.9</ele>
        <time>2014-05-01T09:23:29Z</time>
      </trkpt>
      <trkpt lat="44.70295" lon="4.90051">
        <ele>338.4</ele>
        <time>2014-05-01T09:23:32Z</time>
      </trkpt>
      <trkpt lat="44.70301" lon="4.9005">
        <ele>338.7</ele>
        <time>2014-05-01T09:23:35Z</time>
      </trkpt>
      <trkpt lat="44.70307" lon="4.90048">
        <ele>339</ele>
        <time>2014-05-01T09:23:38Z</time>
      </trkpt>
      <trkpt lat="44.70313" lon="4.90047">
        <ele>339.3</ele>
        <time>2014-05-01T09:23:41Z</time>
      </trkpt>
      <trkpt lat="44.70319" lon="4.90046">
        <ele>339.7</ele>
        <time>2014-05-01T09:23:44Z</time>
      </trkpt>
      <trkpt lat="44.70324" lon="4.90045">
        <ele>340</ele>
        <time>2014-05-01T09:23:47Z</time>
      </trkpt>
      <trkpt lat="44.7033" lon="4.90046">
        <ele>340</ele>
        <time>2014-05-01T09:23:50Z</time>
      </trkpt>
      <trkpt lat="44.70335" lon="4.90047">
        <ele>340.1</ele>
        <time>2014-05-01T09:23:53Z</time>
      </trkpt>
      <trkpt lat="44.7034" lon="4.90048">
        <ele>340.1</ele>
        <time>2014-05-01T09:23:56Z</time>
      </trkpt>
      <trkpt lat="44.70345" lon="4.90049">
        <ele>340.2</ele>
        <time>2014-05-01T09:23:59Z</time>
      </trkpt>
      <trkpt lat="44.70356" lon="4.90049">
        <ele>340.4</ele>
        <time>2014-05-01T09:24:05Z</time>
      </trkpt>
      <trkpt lat="44.70361" lon="4.90049">
        <ele>340.5</ele>
        <time>2014-05-01T09:24:08Z</time>
      </trkpt>
      <trkpt lat="44.70366" lon="4.90048">
        <ele>340.7</ele>
        <time>2014-05-01T09:24:11Z</time>
      </trkpt>
      <trkpt lat="44.70371" lon="4.90046">
        <ele>341</ele>
        <time>2014-05-01T09:24:14Z</time>
      </trkpt>
      <trkpt lat="44.70376" lon="4.90045">
        <ele>341.2</ele>
        <time>2014-05-01T09:24:17Z</time>
      </trkpt>
      <trkpt lat="44.70381" lon="4.90043">
        <ele>341.5</ele>
        <time>2014-05-01T09:24:20Z</time>
      </trkpt>
      <trkpt lat="44.70386" lon="4.90042">
        <ele>341.8</ele>
        <time>2014-05-01T09:24:23Z</time>
      </trkpt>
      <trkpt lat="44.70391" lon="4.90041">
        <ele>342</ele>
        <time>2014-05-01T09:24:26Z</time>
      </trkpt>
      <trkpt lat="44.70397" lon="4.9004">
        <ele>342.3</ele>
        <time>2014-05-01T09:24:29Z</time>
      </trkpt>
      <trkpt lat="44.70403" lon="4.90039">
        <ele>342.7</ele>
        <time>2014-05-01T09:24:32Z</time>
      </trkpt>
      <trkpt lat="44.70409" lon="4.90038">
        <ele>342.8</ele>
        <time>2014-05-01T09:24:35Z</time>
      </trkpt>
      <trkpt lat="44.70415" lon="4.90038">
        <ele>343</ele>
        <time>2014-05-01T09:24:38Z</time>
      </trkpt>
      <trkpt lat="44.70421" lon="4.90039">
        <ele>343</ele>
        <time>2014-05-01T09:24:41Z</time>
      </trkpt>
      <trkpt lat="44.70427" lon="4.90039">
        <ele>343</ele>
        <time>2014-05-01T09:24:44Z</time>
      </trkpt>
      <trkpt lat="44.70433" lon="4.90041">
        <ele>342.7</ele>
        <time>2014-05-01T09:24:47Z</time>
      </trkpt>
      <trkpt lat="44.70439" lon="4.90043">
        <ele>342.5</ele>
        <time>2014-05-01T09:24:50Z</time>
      </trkpt>
      <trkpt lat="44.70445" lon="4.90045">
        <ele>342.2</ele>
        <time>2014-05-01T09:24:53Z</time>
      </trkpt>
      <trkpt lat="44.70449" lon="4.90047">
        <ele>342.1</ele>
        <time>2014-05-01T09:24:55Z</time>
      </trkpt>
      <trkpt lat="44.70454" lon="4.90049">
        <ele>341.8</ele>
        <time>2014-05-01T09:24:57Z</time>
      </trkpt>
      <trkpt lat="44.70459" lon="4.90052">
        <ele>341.4</ele>
        <time>2014-05-01T09:24:59Z</time>
      </trkpt>
      <trkpt lat="44.70464" lon="4.90055">
        <ele>341.1</ele>
        <time>2014-05-01T09:25:01Z</time>
      </trkpt>
      <trkpt lat="44.70475" lon="4.90062">
        <ele>340.6</ele>
        <time>2014-05-01T09:25:05Z</time>
      </trkpt>
      <trkpt lat="44.70482" lon="4.90065">
        <ele>340.3</ele>
        <time>2014-05-01T09:25:07Z</time>
      </trkpt>
      <trkpt lat="44.70488" lon="4.90068">
        <ele>340.1</ele>
        <time>2014-05-01T09:25:09Z</time>
      </trkpt>
      <trkpt lat="44.70495" lon="4.90071">
        <ele>340</ele>
        <time>2014-05-01T09:25:11Z</time>
      </trkpt>
      <trkpt lat="44.70501" lon="4.90072">
        <ele>339.9</ele>
        <time>2014-05-01T09:25:13Z</time>
      </trkpt>
      <trkpt lat="44.70507" lon="4.90073">
        <ele>339.5</ele>
        <time>2014-05-01T09:25:15Z</time>
      </trkpt>
      <trkpt lat="44.70513" lon="4.90074">
        <ele>339</ele>
        <time>2014-05-01T09:25:17Z</time>
      </trkpt>
      <trkpt lat="44.70519" lon="4.90074">
        <ele>338.7</ele>
        <time>2014-05-01T09:25:19Z</time>
      </trkpt>
      <trkpt lat="44.70526" lon="4.90074">
        <ele>338.4</ele>
        <time>2014-05-01T09:25:21Z</time>
      </trkpt>
      <trkpt lat="44.70532" lon="4.90074">
        <ele>338</ele>
        <time>2014-05-01T09:25:23Z</time>
      </trkpt>
      <trkpt lat="44.70539" lon="4.90073">
        <ele>337.6</ele>
        <time>2014-05-01T09:25:25Z</time>
      </trkpt>
      <trkpt lat="44.70546" lon="4.90073">
        <ele>337.3</ele>
        <time>2014-05-01T09:25:27Z</time>
      </trkpt>
      <trkpt lat="44.70554" lon="4.90072">
        <ele>336.9</ele>
        <time>2014-05-01T09:25:29Z</time>
      </trkpt>
      <trkpt lat="44.70562" lon="4.90072">
        <ele>336.4</ele>
        <time>2014-05-01T09:25:31Z</time>
      </trkpt>
      <trkpt lat="44.70571" lon="4.90072">
        <ele>335.9</ele>
        <time>2014-05-01T09:25:33Z</time>
      </trkpt>
      <trkpt lat="44.70579" lon="4.90072">
        <ele>335.4</ele>
        <time>2014-05-01T09:25:35Z</time>
      </trkpt>
      <trkpt lat="44.70588" lon="4.90072">
        <ele>334.7</ele>
        <time>2014-05-01T09:25:37Z</time>
      </trkpt>
      <trkpt lat="44.70596" lon="4.90074">
        <ele>334</ele>
        <time>2014-05-01T09:25:39Z</time>
      </trkpt>
      <trkpt lat="44.70601" lon="4.90074">
        <ele>333.5</ele>
        <time>2014-05-01T09:25:40Z</time>
      </trkpt>
      <trkpt lat="44.70609" lon="4.90074">
        <ele>332.8</ele>
        <time>2014-05-01T09:25:42Z</time>
      </trkpt>
      <trkpt lat="44.70615" lon="4.90073">
        <ele>332.3</ele>
        <time>2014-05-01T09:25:44Z</time>
      </trkpt>
      <trkpt lat="44.70619" lon="4.90077">
        <ele>332</ele>
        <time>2014-05-01T09:25:47Z</time>
      </trkpt>
      <trkpt lat="44.70624" lon="4.90078">
        <ele>331.5</ele>
        <time>2014-05-01T09:27:33Z</time>
      </trkpt>
      <trkpt lat="44.70637" lon="4.90085">
        <ele>330.4</ele>
        <time>2014-05-01T09:27:38Z</time>
      </trkpt>
      <trkpt lat="44.70641" lon="4.90086">
        <ele>330</ele>
        <time>2014-05-01T09:27:39Z</time>
      </trkpt>
      <trkpt lat="44.70646" lon="4.90088">
        <ele>329.6</ele>
        <time>2014-05-01T09:27:40Z</time>
      </trkpt>
      <trkpt lat="44.70651" lon="4.90089">
        <ele>329.2</ele>
        <time>2014-05-01T09:27:41Z</time>
      </trkpt>
      <trkpt lat="44.70657" lon="4.90091">
        <ele>328.7</ele>
        <time>2014-05-01T09:27:42Z</time>
      </trkpt>
      <trkpt lat="44.70663" lon="4.90092">
        <ele>328.2</ele>
        <time>2014-05-01T09:27:43Z</time>
      </trkpt>
      <trkpt lat="44.70669" lon="4.90093">
        <ele>327.8</ele>
        <time>2014-05-01T09:27:44Z</time>
      </trkpt>
      <trkpt lat="44.70676" lon="4.90095">
        <ele>327.7</ele>
        <time>2014-05-01T09:27:45Z</time>
      </trkpt>
      <trkpt lat="44.70682" lon="4.90096">
        <ele>327.6</ele>
        <time>2014-05-01T09:27:46Z</time>
      </trkpt>
      <trkpt lat="44.70689" lon="4.90098">
        <ele>327.4</ele>
        <time>2014-05-01T09:27:47Z</time>
      </trkpt>
      <trkpt lat="44.70696" lon="4.90099">
        <ele>327.3</ele>
        <time>2014-05-01T09:27:48Z</time>
      </trkpt>
      <trkpt lat="44.70703" lon="4.901">
        <ele>327.2</ele>
        <time>2014-05-01T09:27:49Z</time>
      </trkpt>
      <trkpt lat="44.7071" lon="4.90101">
        <ele>327.1</ele>
        <time>2014-05-01T09:27:50Z</time>
      </trkpt>
      <trkpt lat="44.70717" lon="4.90102">
        <ele>327</ele>
        <time>2014-05-01T09:27:51Z</time>
      </trkpt>
      <trkpt lat="44.70724" lon="4.90104">
        <ele>326.9</ele>
        <time>2014-05-01T09:27:52Z</time>
      </trkpt>
      <trkpt lat="44.70731" lon="4.90106">
        <ele>326.8</ele>
        <time>2014-05-01T09:27:53Z</time>
      </trkpt>
      <trkpt lat="44.70738" lon="4.90107">
        <ele>326.7</ele>
        <time>2014-05-01T09:27:54Z</time>
      </trkpt>
      <trkpt lat="44.70745" lon="4.90109">
        <ele>326.7</ele>
        <time>2014-05-01T09:27:55Z</time>
      </trkpt>
      <trkpt lat="44.70751" lon="4.90111">
        <ele>326.6</ele>
        <time>2014-05-01T09:27:56Z</time>
      </trkpt>
      <trkpt lat="44.70758" lon="4.90112">
        <ele>326.6</ele>
        <time>2014-05-01T09:27:57Z</time>
      </trkpt>
      <trkpt lat="44.70764" lon="4.90114">
        <ele>326.5</ele>
        <time>2014-05-01T09:27:58Z</time>
      </trkpt>
      <trkpt lat="44.7077" lon="4.90115">
        <ele>326.5</ele>
        <time>2014-05-01T09:27:59Z</time>
      </trkpt>
      <trkpt lat="44.70776" lon="4.90116">
        <ele>326.5</ele>
        <time>2014-05-01T09:28:00Z</time>
      </trkpt>
      <trkpt lat="44.70782" lon="4.90118">
        <ele>326.4</ele>
        <time>2014-05-01T09:28:01Z</time>
      </trkpt>
      <trkpt lat="44.70788" lon="4.9012">
        <ele>326.5</ele>
        <time>2014-05-01T09:28:02Z</time>
      </trkpt>
      <trkpt lat="44.70794" lon="4.90122">
        <ele>326.5</ele>
        <time>2014-05-01T09:28:03Z</time>
      </trkpt>
      <trkpt lat="44.708" lon="4.90123">
        <ele>326.5</ele>
        <time>2014-05-01T09:28:04Z</time>
      </trkpt>
      <trkpt lat="44.70806" lon="4.90125">
        <ele>326.6</ele>
        <time>2014-05-01T09:28:05Z</time>
      </trkpt>
      <trkpt lat="44.70812" lon="4.90126">
        <ele>326.6</ele>
        <time>2014-05-01T09:28:06Z</time>
      </trkpt>
      <trkpt lat="44.70818" lon="4.90127">
        <ele>326.7</ele>
        <time>2014-05-01T09:28:07Z</time>
      </trkpt>
      <trkpt lat="44.70824" lon="4.90128">
        <ele>326.8</ele>
        <time>2014-05-01T09:28:08Z</time>
      </trkpt>
      <trkpt lat="44.7083" lon="4.90129">
        <ele>326.8</ele>
        <time>2014-05-01T09:28:09Z</time>
      </trkpt>
      <trkpt lat="44.70836" lon="4.9013">
        <ele>327.1</ele>
        <time>2014-05-01T09:28:10Z</time>
      </trkpt>
      <trkpt lat="44.70841" lon="4.90132">
        <ele>327.6</ele>
        <time>2014-05-01T09:28:11Z</time>
      </trkpt>
      <trkpt lat="44.70847" lon="4.90133">
        <ele>328.1</ele>
        <time>2014-05-01T09:28:12Z</time>
      </trkpt>
      <trkpt lat="44.70852" lon="4.90135">
        <ele>328.6</ele>
        <time>2014-05-01T09:28:13Z</time>
      </trkpt>
      <trkpt lat="44.70858" lon="4.90137">
        <ele>329.1</ele>
        <time>2014-05-01T09:28:14Z</time>
      </trkpt>
      <trkpt lat="44.70864" lon="4.90138">
        <ele>329.8</ele>
        <time>2014-05-01T09:28:15Z</time>
      </trkpt>
      <trkpt lat="44.70869" lon="4.9014">
        <ele>330.3</ele>
        <time>2014-05-01T09:28:16Z</time>
      </trkpt>
      <trkpt lat="44.70874" lon="4.90143">
        <ele>330.9</ele>
        <time>2014-05-01T09:28:17Z</time>
      </trkpt>
      <trkpt lat="44.70879" lon="4.90146">
        <ele>331.6</ele>
        <time>2014-05-01T09:28:18Z</time>
      </trkpt>
      <trkpt lat="44.70884" lon="4.90148">
        <ele>332.2</ele>
        <time>2014-05-01T09:28:19Z</time>
      </trkpt>
      <trkpt lat="44.70889" lon="4.9015">
        <ele>332.9</ele>
        <time>2014-05-01T09:28:20Z</time>
      </trkpt>
      <trkpt lat="44.70894" lon="4.90153">
        <ele>333.5</ele>
        <time>2014-05-01T09:28:21Z</time>
      </trkpt>
      <trkpt lat="44.70899" lon="4.90155">
        <ele>334</ele>
        <time>2014-05-01T09:28:22Z</time>
      </trkpt>
      <trkpt lat="44.70903" lon="4.90156">
        <ele>334.7</ele>
        <time>2014-05-01T09:28:23Z</time>
      </trkpt>
      <trkpt lat="44.70911" lon="4.90158">
        <ele>335.5</ele>
        <time>2014-05-01T09:28:25Z</time>
      </trkpt>
      <trkpt lat="44.70919" lon="4.90161">
        <ele>336.3</ele>
        <time>2014-05-01T09:28:27Z</time>
      </trkpt>
      <trkpt lat="44.70926" lon="4.90164">
        <ele>337</ele>
        <time>2014-05-01T09:28:29Z</time>
      </trkpt>
      <trkpt lat="44.70933" lon="4.90168">
        <ele>337.5</ele>
        <time>2014-05-01T09:28:31Z</time>
      </trkpt>
      <trkpt lat="44.70939" lon="4.90174">
        <ele>337.5</ele>
        <time>2014-05-01T09:28:33Z</time>
      </trkpt>
      <trkpt lat="44.70944" lon="4.9018">
        <ele>337.5</ele>
        <time>2014-05-01T09:28:35Z</time>
      </trkpt>
      <trkpt lat="44.70953" lon="4.9019">
        <ele>337.4</ele>
        <time>2014-05-01T09:28:39Z</time>
      </trkpt>
      <trkpt lat="44.70958" lon="4.90196">
        <ele>337.5</ele>
        <time>2014-05-01T09:28:41Z</time>
      </trkpt>
      <trkpt lat="44.70962" lon="4.90202">
        <ele>337.5</ele>
        <time>2014-05-01T09:28:43Z</time>
      </trkpt>
      <trkpt lat="44.70967" lon="4.90208">
        <ele>337.5</ele>
        <time>2014-05-01T09:28:45Z</time>
      </trkpt>
      <trkpt lat="44.70972" lon="4.90214">
        <ele>337.5</ele>
        <time>2014-05-01T09:28:47Z</time>
      </trkpt>
      <trkpt lat="44.70977" lon="4.9022">
        <ele>337.5</ele>
        <time>2014-05-01T09:28:49Z</time>
      </trkpt>
      <trkpt lat="44.70981" lon="4.90226">
        <ele>337.6</ele>
        <time>2014-05-01T09:28:51Z</time>
      </trkpt>
      <trkpt lat="44.70986" lon="4.90232">
        <ele>337.7</ele>
        <time>2014-05-01T09:28:53Z</time>
      </trkpt>
      <trkpt lat="44.7099" lon="4.90239">
        <ele>337.7</ele>
        <time>2014-05-01T09:28:55Z</time>
      </trkpt>
      <trkpt lat="44.70995" lon="4.90245">
        <ele>337.8</ele>
        <time>2014-05-01T09:28:57Z</time>
      </trkpt>
      <trkpt lat="44.71" lon="4.90251">
        <ele>337.9</ele>
        <time>2014-05-01T09:28:59Z</time>
      </trkpt>
      <trkpt lat="44.71006" lon="4.90256">
        <ele>337.6</ele>
        <time>2014-05-01T09:29:01Z</time>
      </trkpt>
      <trkpt lat="44.71012" lon="4.9026">
        <ele>337.1</ele>
        <time>2014-05-01T09:29:03Z</time>
      </trkpt>
      <trkpt lat="44.71018" lon="4.90264">
        <ele>336.8</ele>
        <time>2014-05-01T09:29:05Z</time>
      </trkpt>
      <trkpt lat="44.71023" lon="4.90268">
        <ele>336.5</ele>
        <time>2014-05-01T09:29:07Z</time>
      </trkpt>
      <trkpt lat="44.7103" lon="4.90272">
        <ele>336.1</ele>
        <time>2014-05-01T09:29:09Z</time>
      </trkpt>
      <trkpt lat="44.71038" lon="4.90275">
        <ele>335.7</ele>
        <time>2014-05-01T09:29:11Z</time>
      </trkpt>
      <trkpt lat="44.71045" lon="4.90277">
        <ele>335.3</ele>
        <time>2014-05-01T09:29:13Z</time>
      </trkpt>
      <trkpt lat="44.71053" lon="4.9028">
        <ele>335.2</ele>
        <time>2014-05-01T09:29:15Z</time>
      </trkpt>
      <trkpt lat="44.7106" lon="4.90281">
        <ele>335</ele>
        <time>2014-05-01T09:29:17Z</time>
      </trkpt>
      <trkpt lat="44.71068" lon="4.90282">
        <ele>334.8</ele>
        <time>2014-05-01T09:29:19Z</time>
      </trkpt>
      <trkpt lat="44.71076" lon="4.90283">
        <ele>334.6</ele>
        <time>2014-05-01T09:29:21Z</time>
      </trkpt>
      <trkpt lat="44.71085" lon="4.90283">
        <ele>334.3</ele>
        <time>2014-05-01T09:29:23Z</time>
      </trkpt>
      <trkpt lat="44.71089" lon="4.90284">
        <ele>333.7</ele>
        <time>2014-05-01T09:29:24Z</time>
      </trkpt>
      <trkpt lat="44.71094" lon="4.90284">
        <ele>333.3</ele>
        <time>2014-05-01T09:29:25Z</time>
      </trkpt>
      <trkpt lat="44.71098" lon="4.90284">
        <ele>332.8</ele>
        <time>2014-05-01T09:29:26Z</time>
      </trkpt>
      <trkpt lat="44.71108" lon="4.90284">
        <ele>331.8</ele>
        <time>2014-05-01T09:29:28Z</time>
      </trkpt>
      <trkpt lat="44.71112" lon="4.90284">
        <ele>331.4</ele>
        <time>2014-05-01T09:29:29Z</time>
      </trkpt>
      <trkpt lat="44.71117" lon="4.90284">
        <ele>330.9</ele>
        <time>2014-05-01T09:29:30Z</time>
      </trkpt>
      <trkpt lat="44.71121" lon="4.90283">
        <ele>330.5</ele>
        <time>2014-05-01T09:29:31Z</time>
      </trkpt>
      <trkpt lat="44.71126" lon="4.90283">
        <ele>330.1</ele>
        <time>2014-05-01T09:29:32Z</time>
      </trkpt>
      <trkpt lat="44.7113" lon="4.90282">
        <ele>329.7</ele>
        <time>2014-05-01T09:29:33Z</time>
      </trkpt>
      <trkpt lat="44.71135" lon="4.90282">
        <ele>329.2</ele>
        <time>2014-05-01T09:29:34Z</time>
      </trkpt>
      <trkpt lat="44.71144" lon="4.90281">
        <ele>328.3</ele>
        <time>2014-05-01T09:29:36Z</time>
      </trkpt>
      <trkpt lat="44.71148" lon="4.9028">
        <ele>327.9</ele>
        <time>2014-05-01T09:29:37Z</time>
      </trkpt>
      <trkpt lat="44.71161" lon="4.90275">
        <ele>326.7</ele>
        <time>2014-05-01T09:29:40Z</time>
      </trkpt>
      <trkpt lat="44.7117" lon="4.9027">
        <ele>325.9</ele>
        <time>2014-05-01T09:29:42Z</time>
      </trkpt>
      <trkpt lat="44.71177" lon="4.90266">
        <ele>325</ele>
        <time>2014-05-01T09:29:44Z</time>
      </trkpt>
      <trkpt lat="44.71182" lon="4.90264">
        <ele>324.5</ele>
        <time>2014-05-01T09:29:45Z</time>
      </trkpt>
      <trkpt lat="44.71186" lon="4.90263">
        <ele>324</ele>
        <time>2014-05-01T09:29:46Z</time>
      </trkpt>
      <trkpt lat="44.71192" lon="4.90261">
        <ele>323.3</ele>
        <time>2014-05-01T09:29:47Z</time>
      </trkpt>
      <trkpt lat="44.71197" lon="4.90259">
        <ele>322.6</ele>
        <time>2014-05-01T09:29:48Z</time>
      </trkpt>
      <trkpt lat="44.71202" lon="4.90258">
        <ele>322.1</ele>
        <time>2014-05-01T09:29:49Z</time>
      </trkpt>
      <trkpt lat="44.71206" lon="4.90257">
        <ele>321.5</ele>
        <time>2014-05-01T09:29:50Z</time>
      </trkpt>
      <trkpt lat="44.71214" lon="4.90255">
        <ele>320.5</ele>
        <time>2014-05-01T09:29:52Z</time>
      </trkpt>
      <trkpt lat="44.71222" lon="4.90253">
        <ele>319.6</ele>
        <time>2014-05-01T09:29:54Z</time>
      </trkpt>
      <trkpt lat="44.7123" lon="4.90251">
        <ele>318.6</ele>
        <time>2014-05-01T09:29:56Z</time>
      </trkpt>
      <trkpt lat="44.71235" lon="4.90251">
        <ele>317.9</ele>
        <time>2014-05-01T09:29:57Z</time>
      </trkpt>
      <trkpt lat="44.7124" lon="4.90251">
        <ele>317.2</ele>
        <time>2014-05-01T09:29:58Z</time>
      </trkpt>
      <trkpt lat="44.71246" lon="4.90251">
        <ele>316.4</ele>
        <time>2014-05-01T09:29:59Z</time>
      </trkpt>
      <trkpt lat="44.71252" lon="4.90251">
        <ele>315.9</ele>
        <time>2014-05-01T09:30:00Z</time>
      </trkpt>
      <trkpt lat="44.71258" lon="4.90249">
        <ele>315.7</ele>
        <time>2014-05-01T09:30:01Z</time>
      </trkpt>
      <trkpt lat="44.71264" lon="4.90246">
        <ele>315.5</ele>
        <time>2014-05-01T09:30:02Z</time>
      </trkpt>
      <trkpt lat="44.7127" lon="4.90241">
        <ele>315.3</ele>
        <time>2014-05-01T09:30:03Z</time>
      </trkpt>
      <trkpt lat="44.71276" lon="4.90236">
        <ele>315.2</ele>
        <time>2014-05-01T09:30:04Z</time>
      </trkpt>
      <trkpt lat="44.71281" lon="4.9023">
        <ele>315.2</ele>
        <time>2014-05-01T09:30:05Z</time>
      </trkpt>
      <trkpt lat="44.71287" lon="4.90224">
        <ele>315.2</ele>
        <time>2014-05-01T09:30:06Z</time>
      </trkpt>
      <trkpt lat="44.71294" lon="4.90219">
        <ele>315.2</ele>
        <time>2014-05-01T09:30:07Z</time>
      </trkpt>
      <trkpt lat="44.71301" lon="4.90214">
        <ele>315.3</ele>
        <time>2014-05-01T09:30:08Z</time>
      </trkpt>
      <trkpt lat="44.71308" lon="4.90208">
        <ele>315.5</ele>
        <time>2014-05-01T09:30:09Z</time>
      </trkpt>
      <trkpt lat="44.71315" lon="4.90202">
        <ele>315.8</ele>
        <time>2014-05-01T09:30:10Z</time>
      </trkpt>
      <trkpt lat="44.71321" lon="4.90196">
        <ele>316.1</ele>
        <time>2014-05-01T09:30:11Z</time>
      </trkpt>
      <trkpt lat="44.71329" lon="4.9019">
        <ele>316.5</ele>
        <time>2014-05-01T09:30:12Z</time>
      </trkpt>
      <trkpt lat="44.71336" lon="4.90186">
        <ele>316.6</ele>
        <time>2014-05-01T09:30:13Z</time>
      </trkpt>
      <trkpt lat="44.71343" lon="4.90184">
        <ele>316</ele>
        <time>2014-05-01T09:30:14Z</time>
      </trkpt>
      <trkpt lat="44.71351" lon="4.90182">
        <ele>315.3</ele>
        <time>2014-05-01T09:30:15Z</time>
      </trkpt>
      <trkpt lat="44.71359" lon="4.90182">
        <ele>314.6</ele>
        <time>2014-05-01T09:30:16Z</time>
      </trkpt>
      <trkpt lat="44.71366" lon="4.90182">
        <ele>313.9</ele>
        <time>2014-05-01T09:30:17Z</time>
      </trkpt>
      <trkpt lat="44.71373" lon="4.90182">
        <ele>313.2</ele>
        <time>2014-05-01T09:30:18Z</time>
      </trkpt>
      <trkpt lat="44.71379" lon="4.90181">
        <ele>312.5</ele>
        <time>2014-05-01T09:30:19Z</time>
      </trkpt>
      <trkpt lat="44.71385" lon="4.9018">
        <ele>312.1</ele>
        <time>2014-05-01T09:30:20Z</time>
      </trkpt>
      <trkpt lat="44.7139" lon="4.90179">
        <ele>311.6</ele>
        <time>2014-05-01T09:30:21Z</time>
      </trkpt>
      <trkpt lat="44.71396" lon="4.90177">
        <ele>311.2</ele>
        <time>2014-05-01T09:30:22Z</time>
      </trkpt>
      <trkpt lat="44.71401" lon="4.90177">
        <ele>310.7</ele>
        <time>2014-05-01T09:30:23Z</time>
      </trkpt>
      <trkpt lat="44.71406" lon="4.90178">
        <ele>310.1</ele>
        <time>2014-05-01T09:30:24Z</time>
      </trkpt>
      <trkpt lat="44.71412" lon="4.90179">
        <ele>309.5</ele>
        <time>2014-05-01T09:30:25Z</time>
      </trkpt>
      <trkpt lat="44.71418" lon="4.9018">
        <ele>308.7</ele>
        <time>2014-05-01T09:30:26Z</time>
      </trkpt>
      <trkpt lat="44.71424" lon="4.90182">
        <ele>307.8</ele>
        <time>2014-05-01T09:30:27Z</time>
      </trkpt>
      <trkpt lat="44.71429" lon="4.90184">
        <ele>306.7</ele>
        <time>2014-05-01T09:30:28Z</time>
      </trkpt>
      <trkpt lat="44.71435" lon="4.90186">
        <ele>305.8</ele>
        <time>2014-05-01T09:30:29Z</time>
      </trkpt>
      <trkpt lat="44.71439" lon="4.90187">
        <ele>305</ele>
        <time>2014-05-01T09:30:30Z</time>
      </trkpt>
      <trkpt lat="44.71447" lon="4.90191">
        <ele>303.5</ele>
        <time>2014-05-01T09:30:32Z</time>
      </trkpt>
      <trkpt lat="44.71454" lon="4.90197">
        <ele>302.1</ele>
        <time>2014-05-01T09:30:34Z</time>
      </trkpt>
      <trkpt lat="44.71458" lon="4.902">
        <ele>301.4</ele>
        <time>2014-05-01T09:30:35Z</time>
      </trkpt>
      <trkpt lat="44.71463" lon="4.90202">
        <ele>300.5</ele>
        <time>2014-05-01T09:30:36Z</time>
      </trkpt>
      <trkpt lat="44.71468" lon="4.90205">
        <ele>299.7</ele>
        <time>2014-05-01T09:30:37Z</time>
      </trkpt>
      <trkpt lat="44.71472" lon="4.90207">
        <ele>298.9</ele>
        <time>2014-05-01T09:30:38Z</time>
      </trkpt>
      <trkpt lat="44.71476" lon="4.90209">
        <ele>298.2</ele>
        <time>2014-05-01T09:30:39Z</time>
      </trkpt>
      <trkpt lat="44.71485" lon="4.90215">
        <ele>296.8</ele>
        <time>2014-05-01T09:30:41Z</time>
      </trkpt>
      <trkpt lat="44.71488" lon="4.9022">
        <ele>296</ele>
        <time>2014-05-01T09:30:42Z</time>
      </trkpt>
      <trkpt lat="44.71491" lon="4.90226">
        <ele>295.4</ele>
        <time>2014-05-01T09:30:43Z</time>
      </trkpt>
      <trkpt lat="44.71494" lon="4.90232">
        <ele>294.7</ele>
        <time>2014-05-01T09:30:44Z</time>
      </trkpt>
      <trkpt lat="44.71496" lon="4.90239">
        <ele>294</ele>
        <time>2014-05-01T09:30:45Z</time>
      </trkpt>
      <trkpt lat="44.71498" lon="4.90247">
        <ele>293.4</ele>
        <time>2014-05-01T09:30:46Z</time>
      </trkpt>
      <trkpt lat="44.71501" lon="4.90254">
        <ele>292.5</ele>
        <time>2014-05-01T09:30:47Z</time>
      </trkpt>
      <trkpt lat="44.71503" lon="4.90262">
        <ele>291.3</ele>
        <time>2014-05-01T09:30:48Z</time>
      </trkpt>
      <trkpt lat="44.71505" lon="4.9027">
        <ele>290.1</ele>
        <time>2014-05-01T09:30:49Z</time>
      </trkpt>
      <trkpt lat="44.71506" lon="4.90278">
        <ele>289</ele>
        <time>2014-05-01T09:30:50Z</time>
      </trkpt>
      <trkpt lat="44.71507" lon="4.90287">
        <ele>288</ele>
        <time>2014-05-01T09:30:51Z</time>
      </trkpt>
      <trkpt lat="44.71507" lon="4.90297">
        <ele>286.9</ele>
        <time>2014-05-01T09:30:52Z</time>
      </trkpt>
      <trkpt lat="44.71508" lon="4.90305">
        <ele>285.9</ele>
        <time>2014-05-01T09:30:53Z</time>
      </trkpt>
      <trkpt lat="44.71509" lon="4.90314">
        <ele>284.8</ele>
        <time>2014-05-01T09:30:54Z</time>
      </trkpt>
      <trkpt lat="44.71509" lon="4.90322">
        <ele>284</ele>
        <time>2014-05-01T09:30:55Z</time>
      </trkpt>
      <trkpt lat="44.71508" lon="4.90329">
        <ele>283.4</ele>
        <time>2014-05-01T09:30:56Z</time>
      </trkpt>
      <trkpt lat="44.71509" lon="4.9034">
        <ele>282.4</ele>
        <time>2014-05-01T09:30:58Z</time>
      </trkpt>
      <trkpt lat="44.71514" lon="4.90346">
        <ele>281.5</ele>
        <time>2014-05-01T09:31:00Z</time>
      </trkpt>
      <trkpt lat="44.71522" lon="4.90349">
        <ele>280.3</ele>
        <time>2014-05-01T09:31:02Z</time>
      </trkpt>
      <trkpt lat="44.71526" lon="4.90351">
        <ele>279.7</ele>
        <time>2014-05-01T09:31:03Z</time>
      </trkpt>
      <trkpt lat="44.71531" lon="4.90354">
        <ele>279</ele>
        <time>2014-05-01T09:31:04Z</time>
      </trkpt>
      <trkpt lat="44.71535" lon="4.90358">
        <ele>278.2</ele>
        <time>2014-05-01T09:31:05Z</time>
      </trkpt>
      <trkpt lat="44.7154" lon="4.90362">
        <ele>277.6</ele>
        <time>2014-05-01T09:31:06Z</time>
      </trkpt>
      <trkpt lat="44.71545" lon="4.90366">
        <ele>276.8</ele>
        <time>2014-05-01T09:31:07Z</time>
      </trkpt>
      <trkpt lat="44.7155" lon="4.90369">
        <ele>276.1</ele>
        <time>2014-05-01T09:31:08Z</time>
      </trkpt>
      <trkpt lat="44.71556" lon="4.90372">
        <ele>275.4</ele>
        <time>2014-05-01T09:31:09Z</time>
      </trkpt>
      <trkpt lat="44.71561" lon="4.90375">
        <ele>274.7</ele>
        <time>2014-05-01T09:31:10Z</time>
      </trkpt>
      <trkpt lat="44.71567" lon="4.90376">
        <ele>274</ele>
        <time>2014-05-01T09:31:11Z</time>
      </trkpt>
      <trkpt lat="44.71572" lon="4.90375">
        <ele>273.3</ele>
        <time>2014-05-01T09:31:12Z</time>
      </trkpt>
      <trkpt lat="44.71578" lon="4.90373">
        <ele>272.6</ele>
        <time>2014-05-01T09:31:13Z</time>
      </trkpt>
      <trkpt lat="44.71584" lon="4.90371">
        <ele>271.9</ele>
        <time>2014-05-01T09:31:14Z</time>
      </trkpt>
      <trkpt lat="44.71591" lon="4.90368">
        <ele>271</ele>
        <time>2014-05-01T09:31:15Z</time>
      </trkpt>
      <trkpt lat="44.71598" lon="4.90366">
        <ele>270.2</ele>
        <time>2014-05-01T09:31:16Z</time>
      </trkpt>
      <trkpt lat="44.71604" lon="4.90364">
        <ele>269.4</ele>
        <time>2014-05-01T09:31:17Z</time>
      </trkpt>
      <trkpt lat="44.7161" lon="4.90361">
        <ele>268.6</ele>
        <time>2014-05-01T09:31:18Z</time>
      </trkpt>
      <trkpt lat="44.71616" lon="4.90359">
        <ele>267.9</ele>
        <time>2014-05-01T09:31:19Z</time>
      </trkpt>
      <trkpt lat="44.71621" lon="4.90358">
        <ele>267.3</ele>
        <time>2014-05-01T09:31:20Z</time>
      </trkpt>
      <trkpt lat="44.71626" lon="4.90357">
        <ele>266.7</ele>
        <time>2014-05-01T09:31:21Z</time>
      </trkpt>
      <trkpt lat="44.7163" lon="4.90358">
        <ele>266.1</ele>
        <time>2014-05-01T09:31:22Z</time>
      </trkpt>
      <trkpt lat="44.71637" lon="4.90366">
        <ele>265.4</ele>
        <time>2014-05-01T09:31:24Z</time>
      </trkpt>
      <trkpt lat="44.71641" lon="4.90373">
        <ele>265.1</ele>
        <time>2014-05-01T09:31:25Z</time>
      </trkpt>
      <trkpt lat="44.71644" lon="4.90381">
        <ele>264.8</ele>
        <time>2014-05-01T09:31:26Z</time>
      </trkpt>
      <trkpt lat="44.71648" lon="4.90388">
        <ele>264.5</ele>
        <time>2014-05-01T09:31:27Z</time>
      </trkpt>
      <trkpt lat="44.71653" lon="4.90396">
        <ele>264.1</ele>
        <time>2014-05-01T09:31:28Z</time>
      </trkpt>
      <trkpt lat="44.71658" lon="4.90403">
        <ele>263.6</ele>
        <time>2014-05-01T09:31:29Z</time>
      </trkpt>
      <trkpt lat="44.71664" lon="4.90409">
        <ele>263</ele>
        <time>2014-05-01T09:31:30Z</time>
      </trkpt>
      <trkpt lat="44.7167" lon="4.90414">
        <ele>263</ele>
        <time>2014-05-01T09:31:31Z</time>
      </trkpt>
      <trkpt lat="44.71676" lon="4.90419">
        <ele>263.3</ele>
        <time>2014-05-01T09:31:32Z</time>
      </trkpt>
      <trkpt lat="44.71682" lon="4.90424">
        <ele>263.8</ele>
        <time>2014-05-01T09:31:33Z</time>
      </trkpt>
      <trkpt lat="44.71688" lon="4.90429">
        <ele>264.4</ele>
        <time>2014-05-01T09:31:34Z</time>
      </trkpt>
      <trkpt lat="44.71694" lon="4.90433">
        <ele>264.8</ele>
        <time>2014-05-01T09:31:35Z</time>
      </trkpt>
      <trkpt lat="44.717" lon="4.90437">
        <ele>265.3</ele>
        <time>2014-05-01T09:31:36Z</time>
      </trkpt>
      <trkpt lat="44.71706" lon="4.90441">
        <ele>265.8</ele>
        <time>2014-05-01T09:31:37Z</time>
      </trkpt>
      <trkpt lat="44.71712" lon="4.90445">
        <ele>266.4</ele>
        <time>2014-05-01T09:31:38Z</time>
      </trkpt>
      <trkpt lat="44.71717" lon="4.90449">
        <ele>266.9</ele>
        <time>2014-05-01T09:31:39Z</time>
      </trkpt>
      <trkpt lat="44.71722" lon="4.90453">
        <ele>267.6</ele>
        <time>2014-05-01T09:31:40Z</time>
      </trkpt>
      <trkpt lat="44.71728" lon="4.90458">
        <ele>268.2</ele>
        <time>2014-05-01T09:31:41Z</time>
      </trkpt>
      <trkpt lat="44.71738" lon="4.90468">
        <ele>269.7</ele>
        <time>2014-05-01T09:31:43Z</time>
      </trkpt>
      <trkpt lat="44.71743" lon="4.90473">
        <ele>270.5</ele>
        <time>2014-05-01T09:31:44Z</time>
      </trkpt>
      <trkpt lat="44.71748" lon="4.90478">
        <ele>271.3</ele>
        <time>2014-05-01T09:31:45Z</time>
      </trkpt>
      <trkpt lat="44.71754" lon="4.90483">
        <ele>272</ele>
        <time>2014-05-01T09:31:46Z</time>
      </trkpt>
      <trkpt lat="44.71759" lon="4.90487">
        <ele>272.7</ele>
        <time>2014-05-01T09:31:47Z</time>
      </trkpt>
      <trkpt lat="44.71764" lon="4.9049">
        <ele>273.5</ele>
        <time>2014-05-01T09:31:48Z</time>
      </trkpt>
      <trkpt lat="44.7177" lon="4.90493">
        <ele>274</ele>
        <time>2014-05-01T09:31:49Z</time>
      </trkpt>
      <trkpt lat="44.71775" lon="4.90495">
        <ele>274.6</ele>
        <time>2014-05-01T09:31:50Z</time>
      </trkpt>
      <trkpt lat="44.7178" lon="4.90498">
        <ele>275.1</ele>
        <time>2014-05-01T09:31:51Z</time>
      </trkpt>
      <trkpt lat="44.71784" lon="4.905">
        <ele>275.6</ele>
        <time>2014-05-01T09:31:52Z</time>
      </trkpt>
      <trkpt lat="44.71789" lon="4.90502">
        <ele>275.9</ele>
        <time>2014-05-01T09:31:53Z</time>
      </trkpt>
      <trkpt lat="44.71793" lon="4.90505">
        <ele>276.1</ele>
        <time>2014-05-01T09:31:54Z</time>
      </trkpt>
      <trkpt lat="44.71798" lon="4.90507">
        <ele>276.4</ele>
        <time>2014-05-01T09:31:55Z</time>
      </trkpt>
      <trkpt lat="44.71802" lon="4.9051">
        <ele>276.6</ele>
        <time>2014-05-01T09:31:56Z</time>
      </trkpt>
      <trkpt lat="44.71806" lon="4.90512">
        <ele>276.9</ele>
        <time>2014-05-01T09:31:57Z</time>
      </trkpt>
      <trkpt lat="44.71814" lon="4.90514">
        <ele>277.4</ele>
        <time>2014-05-01T09:31:59Z</time>
      </trkpt>
      <trkpt lat="44.71822" lon="4.90515">
        <ele>277.7</ele>
        <time>2014-05-01T09:32:01Z</time>
      </trkpt>
      <trkpt lat="44.7183" lon="4.90514">
        <ele>278.2</ele>
        <time>2014-05-01T09:32:03Z</time>
      </trkpt>
      <trkpt lat="44.71837" lon="4.90513">
        <ele>278.1</ele>
        <time>2014-05-01T09:32:05Z</time>
      </trkpt>
      <trkpt lat="44.71844" lon="4.90514">
        <ele>277.7</ele>
        <time>2014-05-01T09:32:07Z</time>
      </trkpt>
      <trkpt lat="44.71851" lon="4.90515">
        <ele>277.3</ele>
        <time>2014-05-01T09:32:09Z</time>
      </trkpt>
      <trkpt lat="44.71858" lon="4.90516">
        <ele>276.9</ele>
        <time>2014-05-01T09:32:11Z</time>
      </trkpt>
      <trkpt lat="44.71866" lon="4.90515">
        <ele>276.4</ele>
        <time>2014-05-01T09:32:13Z</time>
      </trkpt>
      <trkpt lat="44.71872" lon="4.90515">
        <ele>276</ele>
        <time>2014-05-01T09:32:15Z</time>
      </trkpt>
      <trkpt lat="44.71879" lon="4.90516">
        <ele>275.7</ele>
        <time>2014-05-01T09:32:17Z</time>
      </trkpt>
      <trkpt lat="44.71885" lon="4.90516">
        <ele>275.4</ele>
        <time>2014-05-01T09:32:19Z</time>
      </trkpt>
      <trkpt lat="44.7189" lon="4.90518">
        <ele>275.2</ele>
        <time>2014-05-01T09:32:21Z</time>
      </trkpt>
      <trkpt lat="44.71896" lon="4.90519">
        <ele>274.9</ele>
        <time>2014-05-01T09:32:23Z</time>
      </trkpt>
      <trkpt lat="44.71902" lon="4.90522">
        <ele>274.8</ele>
        <time>2014-05-01T09:32:25Z</time>
      </trkpt>
      <trkpt lat="44.71908" lon="4.90524">
        <ele>274.7</ele>
        <time>2014-05-01T09:32:27Z</time>
      </trkpt>
      <trkpt lat="44.71912" lon="4.90526">
        <ele>274.7</ele>
        <time>2014-05-01T09:32:29Z</time>
      </trkpt>
      <trkpt lat="44.71917" lon="4.90529">
        <ele>274.7</ele>
        <time>2014-05-01T09:32:31Z</time>
      </trkpt>
      <trkpt lat="44.71922" lon="4.90531">
        <ele>274.6</ele>
        <time>2014-05-01T09:32:33Z</time>
      </trkpt>
      <trkpt lat="44.71928" lon="4.90535">
        <ele>274.5</ele>
        <time>2014-05-01T09:32:35Z</time>
      </trkpt>
      <trkpt lat="44.71932" lon="4.90539">
        <ele>274.7</ele>
        <time>2014-05-01T09:32:37Z</time>
      </trkpt>
      <trkpt lat="44.71937" lon="4.90543">
        <ele>274.6</ele>
        <time>2014-05-01T09:32:39Z</time>
      </trkpt>
      <trkpt lat="44.71942" lon="4.90547">
        <ele>274.6</ele>
        <time>2014-05-01T09:32:41Z</time>
      </trkpt>
      <trkpt lat="44.71948" lon="4.90551">
        <ele>274.5</ele>
        <time>2014-05-01T09:32:43Z</time>
      </trkpt>
      <trkpt lat="44.7196" lon="4.90561">
        <ele>274.5</ele>
        <time>2014-05-01T09:32:47Z</time>
      </trkpt>
      <trkpt lat="44.71966" lon="4.90567">
        <ele>274.5</ele>
        <time>2014-05-01T09:32:49Z</time>
      </trkpt>
      <trkpt lat="44.71971" lon="4.90572">
        <ele>274.5</ele>
        <time>2014-05-01T09:32:51Z</time>
      </trkpt>
      <trkpt lat="44.71977" lon="4.90578">
        <ele>274.4</ele>
        <time>2014-05-01T09:32:53Z</time>
      </trkpt>
      <trkpt lat="44.71983" lon="4.90583">
        <ele>274.3</ele>
        <time>2014-05-01T09:32:55Z</time>
      </trkpt>
      <trkpt lat="44.71989" lon="4.90587">
        <ele>274.3</ele>
        <time>2014-05-01T09:32:57Z</time>
      </trkpt>
      <trkpt lat="44.71995" lon="4.90592">
        <ele>274.1</ele>
        <time>2014-05-01T09:32:59Z</time>
      </trkpt>
      <trkpt lat="44.72" lon="4.90598">
        <ele>274.4</ele>
        <time>2014-05-01T09:33:01Z</time>
      </trkpt>
      <trkpt lat="44.72006" lon="4.90603">
        <ele>274.4</ele>
        <time>2014-05-01T09:33:03Z</time>
      </trkpt>
      <trkpt lat="44.72012" lon="4.90608">
        <ele>274.6</ele>
        <time>2014-05-01T09:33:05Z</time>
      </trkpt>
      <trkpt lat="44.72018" lon="4.90614">
        <ele>274.9</ele>
        <time>2014-05-01T09:33:07Z</time>
      </trkpt>
      <trkpt lat="44.72023" lon="4.9062">
        <ele>275.1</ele>
        <time>2014-05-01T09:33:09Z</time>
      </trkpt>
      <trkpt lat="44.72028" lon="4.90625">
        <ele>275.6</ele>
        <time>2014-05-01T09:33:11Z</time>
      </trkpt>
      <trkpt lat="44.72034" lon="4.90631">
        <ele>276</ele>
        <time>2014-05-01T09:33:13Z</time>
      </trkpt>
      <trkpt lat="44.7204" lon="4.90637">
        <ele>276.6</ele>
        <time>2014-05-01T09:33:15Z</time>
      </trkpt>
      <trkpt lat="44.72046" lon="4.90642">
        <ele>277.1</ele>
        <time>2014-05-01T09:33:17Z</time>
      </trkpt>
      <trkpt lat="44.72051" lon="4.90647">
        <ele>277.6</ele>
        <time>2014-05-01T09:33:19Z</time>
      </trkpt>
      <trkpt lat="44.72057" lon="4.90653">
        <ele>278.2</ele>
        <time>2014-05-01T09:33:21Z</time>
      </trkpt>
      <trkpt lat="44.72062" lon="4.90658">
        <ele>278.9</ele>
        <time>2014-05-01T09:33:23Z</time>
      </trkpt>
      <trkpt lat="44.72069" lon="4.90663">
        <ele>279.6</ele>
        <time>2014-05-01T09:33:25Z</time>
      </trkpt>
      <trkpt lat="44.72076" lon="4.90668">
        <ele>280.1</ele>
        <time>2014-05-01T09:33:27Z</time>
      </trkpt>
      <trkpt lat="44.72084" lon="4.90671">
        <ele>279.9</ele>
        <time>2014-05-01T09:33:29Z</time>
      </trkpt>
      <trkpt lat="44.72089" lon="4.90672">
        <ele>279.8</ele>
        <time>2014-05-01T09:33:30Z</time>
      </trkpt>
      <trkpt lat="44.72093" lon="4.90673">
        <ele>279.7</ele>
        <time>2014-05-01T09:33:31Z</time>
      </trkpt>
      <trkpt lat="44.72098" lon="4.90674">
        <ele>279.6</ele>
        <time>2014-05-01T09:33:32Z</time>
      </trkpt>
      <trkpt lat="44.72103" lon="4.90675">
        <ele>279.4</ele>
        <time>2014-05-01T09:33:33Z</time>
      </trkpt>
      <trkpt lat="44.72108" lon="4.90676">
        <ele>279.3</ele>
        <time>2014-05-01T09:33:34Z</time>
      </trkpt>
      <trkpt lat="44.72113" lon="4.90676">
        <ele>279.2</ele>
        <time>2014-05-01T09:33:35Z</time>
      </trkpt>
      <trkpt lat="44.72119" lon="4.90677">
        <ele>279</ele>
        <time>2014-05-01T09:33:36Z</time>
      </trkpt>
      <trkpt lat="44.72125" lon="4.90676">
        <ele>278.9</ele>
        <time>2014-05-01T09:33:37Z</time>
      </trkpt>
      <trkpt lat="44.72131" lon="4.90676">
        <ele>278.7</ele>
        <time>2014-05-01T09:33:38Z</time>
      </trkpt>
      <trkpt lat="44.72138" lon="4.90675">
        <ele>278.6</ele>
        <time>2014-05-01T09:33:39Z</time>
      </trkpt>
      <trkpt lat="44.72144" lon="4.90675">
        <ele>278.4</ele>
        <time>2014-05-01T09:33:40Z</time>
      </trkpt>
      <trkpt lat="44.72151" lon="4.90675">
        <ele>278.3</ele>
        <time>2014-05-01T09:33:41Z</time>
      </trkpt>
      <trkpt lat="44.72157" lon="4.90675">
        <ele>278.1</ele>
        <time>2014-05-01T09:33:42Z</time>
      </trkpt>
      <trkpt lat="44.72164" lon="4.90676">
        <ele>278</ele>
        <time>2014-05-01T09:33:43Z</time>
      </trkpt>
      <trkpt lat="44.7217" lon="4.90676">
        <ele>277.5</ele>
        <time>2014-05-01T09:33:44Z</time>
      </trkpt>
      <trkpt lat="44.72177" lon="4.90677">
        <ele>276.6</ele>
        <time>2014-05-01T09:33:45Z</time>
      </trkpt>
      <trkpt lat="44.72192" lon="4.90679">
        <ele>274.8</ele>
        <time>2014-05-01T09:33:47Z</time>
      </trkpt>
      <trkpt lat="44.72199" lon="4.9068">
        <ele>273.9</ele>
        <time>2014-05-01T09:33:48Z</time>
      </trkpt>
      <trkpt lat="44.72207" lon="4.90681">
        <ele>273.1</ele>
        <time>2014-05-01T09:33:49Z</time>
      </trkpt>
      <trkpt lat="44.72214" lon="4.90683">
        <ele>272.3</ele>
        <time>2014-05-01T09:33:50Z</time>
      </trkpt>
      <trkpt lat="44.7222" lon="4.90684">
        <ele>271.6</ele>
        <time>2014-05-01T09:33:51Z</time>
      </trkpt>
      <trkpt lat="44.72227" lon="4.90685">
        <ele>270.9</ele>
        <time>2014-05-01T09:33:52Z</time>
      </trkpt>
      <trkpt lat="44.72234" lon="4.90686">
        <ele>270.1</ele>
        <time>2014-05-01T09:33:53Z</time>
      </trkpt>
      <trkpt lat="44.72241" lon="4.90687">
        <ele>269.4</ele>
        <time>2014-05-01T09:33:54Z</time>
      </trkpt>
      <trkpt lat="44.72247" lon="4.90688">
        <ele>268.8</ele>
        <time>2014-05-01T09:33:55Z</time>
      </trkpt>
      <trkpt lat="44.72254" lon="4.90689">
        <ele>268</ele>
        <time>2014-05-01T09:33:56Z</time>
      </trkpt>
      <trkpt lat="44.72261" lon="4.9069">
        <ele>267.1</ele>
        <time>2014-05-01T09:33:57Z</time>
      </trkpt>
      <trkpt lat="44.72268" lon="4.90693">
        <ele>266.3</ele>
        <time>2014-05-01T09:33:58Z</time>
      </trkpt>
      <trkpt lat="44.72274" lon="4.90697">
        <ele>265.6</ele>
        <time>2014-05-01T09:33:59Z</time>
      </trkpt>
      <trkpt lat="44.72281" lon="4.90702">
        <ele>265.1</ele>
        <time>2014-05-01T09:34:00Z</time>
      </trkpt>
      <trkpt lat="44.72287" lon="4.90708">
        <ele>264.6</ele>
        <time>2014-05-01T09:34:01Z</time>
      </trkpt>
      <trkpt lat="44.72293" lon="4.90714">
        <ele>264.3</ele>
        <time>2014-05-01T09:34:02Z</time>
      </trkpt>
      <trkpt lat="44.72298" lon="4.90721">
        <ele>264.2</ele>
        <time>2014-05-01T09:34:03Z</time>
      </trkpt>
      <trkpt lat="44.72302" lon="4.9073">
        <ele>264.3</ele>
        <time>2014-05-01T09:34:04Z</time>
      </trkpt>
      <trkpt lat="44.72305" lon="4.90739">
        <ele>264.8</ele>
        <time>2014-05-01T09:34:05Z</time>
      </trkpt>
      <trkpt lat="44.72306" lon="4.90746">
        <ele>265.2</ele>
        <time>2014-05-01T09:34:06Z</time>
      </trkpt>
      <trkpt lat="44.72308" lon="4.90753">
        <ele>265.3</ele>
        <time>2014-05-01T09:34:07Z</time>
      </trkpt>
      <trkpt lat="44.7231" lon="4.90759">
        <ele>264.7</ele>
        <time>2014-05-01T09:34:08Z</time>
      </trkpt>
      <trkpt lat="44.72317" lon="4.90767">
        <ele>263.6</ele>
        <time>2014-05-01T09:34:10Z</time>
      </trkpt>
      <trkpt lat="44.72322" lon="4.90769">
        <ele>262.9</ele>
        <time>2014-05-01T09:34:11Z</time>
      </trkpt>
      <trkpt lat="44.72328" lon="4.9077">
        <ele>262.2</ele>
        <time>2014-05-01T09:34:12Z</time>
      </trkpt>
      <trkpt lat="44.72334" lon="4.90771">
        <ele>261.5</ele>
        <time>2014-05-01T09:34:13Z</time>
      </trkpt>
      <trkpt lat="44.7234" lon="4.90773">
        <ele>260.7</ele>
        <time>2014-05-01T09:34:14Z</time>
      </trkpt>
      <trkpt lat="44.72348" lon="4.90774">
        <ele>259.8</ele>
        <time>2014-05-01T09:34:15Z</time>
      </trkpt>
      <trkpt lat="44.72355" lon="4.90775">
        <ele>259</ele>
        <time>2014-05-01T09:34:16Z</time>
      </trkpt>
      <trkpt lat="44.72363" lon="4.90776">
        <ele>258.1</ele>
        <time>2014-05-01T09:34:17Z</time>
      </trkpt>
      <trkpt lat="44.7237" lon="4.90777">
        <ele>257.2</ele>
        <time>2014-05-01T09:34:18Z</time>
      </trkpt>
      <trkpt lat="44.72378" lon="4.90778">
        <ele>256.3</ele>
        <time>2014-05-01T09:34:19Z</time>
      </trkpt>
      <trkpt lat="44.72386" lon="4.90779">
        <ele>255.4</ele>
        <time>2014-05-01T09:34:20Z</time>
      </trkpt>
      <trkpt lat="44.72394" lon="4.9078">
        <ele>254.5</ele>
        <time>2014-05-01T09:34:21Z</time>
      </trkpt>
      <trkpt lat="44.72402" lon="4.90781">
        <ele>253.6</ele>
        <time>2014-05-01T09:34:22Z</time>
      </trkpt>
      <trkpt lat="44.7241" lon="4.90782">
        <ele>252.8</ele>
        <time>2014-05-01T09:34:23Z</time>
      </trkpt>
      <trkpt lat="44.72418" lon="4.90784">
        <ele>251.9</ele>
        <time>2014-05-01T09:34:24Z</time>
      </trkpt>
      <trkpt lat="44.72426" lon="4.90785">
        <ele>251.2</ele>
        <time>2014-05-01T09:34:25Z</time>
      </trkpt>
      <trkpt lat="44.72434" lon="4.90786">
        <ele>250.6</ele>
        <time>2014-05-01T09:34:26Z</time>
      </trkpt>
      <trkpt lat="44.72443" lon="4.90786">
        <ele>249.9</ele>
        <time>2014-05-01T09:34:27Z</time>
      </trkpt>
      <trkpt lat="44.72451" lon="4.90786">
        <ele>249.2</ele>
        <time>2014-05-01T09:34:28Z</time>
      </trkpt>
      <trkpt lat="44.72459" lon="4.90786">
        <ele>248.6</ele>
        <time>2014-05-01T09:34:29Z</time>
      </trkpt>
      <trkpt lat="44.72467" lon="4.90787">
        <ele>248</ele>
        <time>2014-05-01T09:34:30Z</time>
      </trkpt>
      <trkpt lat="44.72474" lon="4.90787">
        <ele>247.4</ele>
        <time>2014-05-01T09:34:31Z</time>
      </trkpt>
      <trkpt lat="44.72482" lon="4.90787">
        <ele>246.7</ele>
        <time>2014-05-01T09:34:32Z</time>
      </trkpt>
      <trkpt lat="44.72491" lon="4.90788">
        <ele>246.1</ele>
        <time>2014-05-01T09:34:33Z</time>
      </trkpt>
      <trkpt lat="44.72499" lon="4.90789">
        <ele>245.4</ele>
        <time>2014-05-01T09:34:34Z</time>
      </trkpt>
      <trkpt lat="44.72507" lon="4.9079">
        <ele>244.9</ele>
        <time>2014-05-01T09:34:35Z</time>
      </trkpt>
      <trkpt lat="44.72515" lon="4.9079">
        <ele>244.3</ele>
        <time>2014-05-01T09:34:36Z</time>
      </trkpt>
      <trkpt lat="44.72523" lon="4.90791">
        <ele>243.6</ele>
        <time>2014-05-01T09:34:37Z</time>
      </trkpt>
      <trkpt lat="44.72532" lon="4.90792">
        <ele>243</ele>
        <time>2014-05-01T09:34:38Z</time>
      </trkpt>
      <trkpt lat="44.7254" lon="4.90793">
        <ele>242.4</ele>
        <time>2014-05-01T09:34:39Z</time>
      </trkpt>
      <trkpt lat="44.72548" lon="4.90793">
        <ele>241.8</ele>
        <time>2014-05-01T09:34:40Z</time>
      </trkpt>
      <trkpt lat="44.72555" lon="4.90793">
        <ele>241.2</ele>
        <time>2014-05-01T09:34:41Z</time>
      </trkpt>
      <trkpt lat="44.72562" lon="4.90794">
        <ele>240.7</ele>
        <time>2014-05-01T09:34:42Z</time>
      </trkpt>
      <trkpt lat="44.72568" lon="4.90794">
        <ele>240.3</ele>
        <time>2014-05-01T09:34:43Z</time>
      </trkpt>
      <trkpt lat="44.72575" lon="4.90795">
        <ele>239.7</ele>
        <time>2014-05-01T09:34:45Z</time>
      </trkpt>
      <trkpt lat="44.72581" lon="4.90794">
        <ele>239.2</ele>
        <time>2014-05-01T09:35:01Z</time>
      </trkpt>
      <trkpt lat="44.72593" lon="4.90793">
        <ele>238.2</ele>
        <time>2014-05-01T09:35:04Z</time>
      </trkpt>
      <trkpt lat="44.72598" lon="4.90792">
        <ele>237.7</ele>
        <time>2014-05-01T09:35:05Z</time>
      </trkpt>
      <trkpt lat="44.72604" lon="4.90791">
        <ele>237.3</ele>
        <time>2014-05-01T09:35:06Z</time>
      </trkpt>
      <trkpt lat="44.72609" lon="4.90791">
        <ele>236.8</ele>
        <time>2014-05-01T09:35:07Z</time>
      </trkpt>
      <trkpt lat="44.72615" lon="4.9079">
        <ele>236.3</ele>
        <time>2014-05-01T09:35:08Z</time>
      </trkpt>
      <trkpt lat="44.72622" lon="4.9079">
        <ele>235.7</ele>
        <time>2014-05-01T09:35:09Z</time>
      </trkpt>
      <trkpt lat="44.72628" lon="4.9079">
        <ele>235.2</ele>
        <time>2014-05-01T09:35:10Z</time>
      </trkpt>
      <trkpt lat="44.72635" lon="4.9079">
        <ele>234.6</ele>
        <time>2014-05-01T09:35:11Z</time>
      </trkpt>
      <trkpt lat="44.72642" lon="4.90789">
        <ele>234.1</ele>
        <time>2014-05-01T09:35:12Z</time>
      </trkpt>
      <trkpt lat="44.72649" lon="4.90789">
        <ele>233.5</ele>
        <time>2014-05-01T09:35:13Z</time>
      </trkpt>
      <trkpt lat="44.72655" lon="4.90788">
        <ele>233</ele>
        <time>2014-05-01T09:35:14Z</time>
      </trkpt>
      <trkpt lat="44.72662" lon="4.90787">
        <ele>232.4</ele>
        <time>2014-05-01T09:35:15Z</time>
      </trkpt>
      <trkpt lat="44.72668" lon="4.90786">
        <ele>232</ele>
        <time>2014-05-01T09:35:16Z</time>
      </trkpt>
      <trkpt lat="44.72675" lon="4.90785">
        <ele>231.8</ele>
        <time>2014-05-01T09:35:17Z</time>
      </trkpt>
      <trkpt lat="44.72682" lon="4.90784">
        <ele>231.6</ele>
        <time>2014-05-01T09:35:18Z</time>
      </trkpt>
      <trkpt lat="44.72689" lon="4.90783">
        <ele>231.4</ele>
        <time>2014-05-01T09:35:19Z</time>
      </trkpt>
      <trkpt lat="44.72696" lon="4.90783">
        <ele>231.2</ele>
        <time>2014-05-01T09:35:20Z</time>
      </trkpt>
      <trkpt lat="44.72702" lon="4.90783">
        <ele>231</ele>
        <time>2014-05-01T09:35:21Z</time>
      </trkpt>
      <trkpt lat="44.72709" lon="4.90783">
        <ele>230.8</ele>
        <time>2014-05-01T09:35:22Z</time>
      </trkpt>
      <trkpt lat="44.72717" lon="4.90783">
        <ele>230.6</ele>
        <time>2014-05-01T09:35:23Z</time>
      </trkpt>
      <trkpt lat="44.72725" lon="4.90783">
        <ele>230.3</ele>
        <time>2014-05-01T09:35:24Z</time>
      </trkpt>
      <trkpt lat="44.72733" lon="4.90783">
        <ele>230.1</ele>
        <time>2014-05-01T09:35:25Z</time>
      </trkpt>
      <trkpt lat="44.72742" lon="4.90783">
        <ele>229.9</ele>
        <time>2014-05-01T09:35:26Z</time>
      </trkpt>
      <trkpt lat="44.7275" lon="4.90783">
        <ele>229.6</ele>
        <time>2014-05-01T09:35:27Z</time>
      </trkpt>
      <trkpt lat="44.72759" lon="4.90783">
        <ele>229.6</ele>
        <time>2014-05-01T09:35:28Z</time>
      </trkpt>
      <trkpt lat="44.72767" lon="4.90783">
        <ele>229.6</ele>
        <time>2014-05-01T09:35:29Z</time>
      </trkpt>
      <trkpt lat="44.72776" lon="4.90784">
        <ele>229.5</ele>
        <time>2014-05-01T09:35:30Z</time>
      </trkpt>
      <trkpt lat="44.72785" lon="4.90785">
        <ele>229.5</ele>
        <time>2014-05-01T09:35:31Z</time>
      </trkpt>
      <trkpt lat="44.72793" lon="4.90785">
        <ele>229.4</ele>
        <time>2014-05-01T09:35:32Z</time>
      </trkpt>
      <trkpt lat="44.72801" lon="4.90786">
        <ele>229.4</ele>
        <time>2014-05-01T09:35:33Z</time>
      </trkpt>
      <trkpt lat="44.72808" lon="4.90787">
        <ele>229.3</ele>
        <time>2014-05-01T09:35:34Z</time>
      </trkpt>
      <trkpt lat="44.72814" lon="4.90788">
        <ele>229.3</ele>
        <time>2014-05-01T09:35:35Z</time>
      </trkpt>
      <trkpt lat="44.72821" lon="4.90791">
        <ele>229.1</ele>
        <time>2014-05-01T09:35:37Z</time>
      </trkpt>
      <trkpt lat="44.72827" lon="4.90795">
        <ele>228.9</ele>
        <time>2014-05-01T09:36:08Z</time>
      </trkpt>
      <trkpt lat="44.72843" lon="4.90802">
        <ele>228</ele>
        <time>2014-05-01T09:36:12Z</time>
      </trkpt>
      <trkpt lat="44.72851" lon="4.90803">
        <ele>227.5</ele>
        <time>2014-05-01T09:36:14Z</time>
      </trkpt>
      <trkpt lat="44.72859" lon="4.90802">
        <ele>227.1</ele>
        <time>2014-05-01T09:36:16Z</time>
      </trkpt>
      <trkpt lat="44.72867" lon="4.90799">
        <ele>226.8</ele>
        <time>2014-05-01T09:36:18Z</time>
      </trkpt>
      <trkpt lat="44.72875" lon="4.90796">
        <ele>226.6</ele>
        <time>2014-05-01T09:36:20Z</time>
      </trkpt>
      <trkpt lat="44.72883" lon="4.90791">
        <ele>226.4</ele>
        <time>2014-05-01T09:36:22Z</time>
      </trkpt>
      <trkpt lat="44.72887" lon="4.90789">
        <ele>226.3</ele>
        <time>2014-05-01T09:36:23Z</time>
      </trkpt>
      <trkpt lat="44.72895" lon="4.90784">
        <ele>226.1</ele>
        <time>2014-05-01T09:36:25Z</time>
      </trkpt>
      <trkpt lat="44.72903" lon="4.9078">
        <ele>226</ele>
        <time>2014-05-01T09:36:27Z</time>
      </trkpt>
      <trkpt lat="44.72908" lon="4.90777">
        <ele>225.8</ele>
        <time>2014-05-01T09:36:28Z</time>
      </trkpt>
      <trkpt lat="44.72912" lon="4.90775">
        <ele>225.8</ele>
        <time>2014-05-01T09:36:29Z</time>
      </trkpt>
      <trkpt lat="44.72917" lon="4.90773">
        <ele>225.7</ele>
        <time>2014-05-01T09:36:30Z</time>
      </trkpt>
      <trkpt lat="44.72921" lon="4.9077">
        <ele>225.6</ele>
        <time>2014-05-01T09:36:31Z</time>
      </trkpt>
      <trkpt lat="44.72926" lon="4.90767">
        <ele>225.6</ele>
        <time>2014-05-01T09:36:32Z</time>
      </trkpt>
      <trkpt lat="44.7293" lon="4.90764">
        <ele>225.6</ele>
        <time>2014-05-01T09:36:33Z</time>
      </trkpt>
      <trkpt lat="44.72935" lon="4.9076">
        <ele>225.7</ele>
        <time>2014-05-01T09:36:34Z</time>
      </trkpt>
      <trkpt lat="44.7294" lon="4.90757">
        <ele>225.7</ele>
        <time>2014-05-01T09:36:35Z</time>
      </trkpt>
      <trkpt lat="44.72944" lon="4.90753">
        <ele>225.8</ele>
        <time>2014-05-01T09:36:36Z</time>
      </trkpt>
      <trkpt lat="44.72949" lon="4.90749">
        <ele>225.8</ele>
        <time>2014-05-01T09:36:37Z</time>
      </trkpt>
      <trkpt lat="44.72954" lon="4.90746">
        <ele>225.6</ele>
        <time>2014-05-01T09:36:38Z</time>
      </trkpt>
      <trkpt lat="44.7296" lon="4.90743">
        <ele>225.3</ele>
        <time>2014-05-01T09:36:39Z</time>
      </trkpt>
      <trkpt lat="44.72965" lon="4.9074">
        <ele>225.1</ele>
        <time>2014-05-01T09:36:40Z</time>
      </trkpt>
      <trkpt lat="44.7297" lon="4.90738">
        <ele>224.8</ele>
        <time>2014-05-01T09:36:41Z</time>
      </trkpt>
      <trkpt lat="44.72976" lon="4.90736">
        <ele>224.6</ele>
        <time>2014-05-01T09:36:42Z</time>
      </trkpt>
      <trkpt lat="44.72982" lon="4.90735">
        <ele>224.3</ele>
        <time>2014-05-01T09:36:43Z</time>
      </trkpt>
      <trkpt lat="44.72987" lon="4.90734">
        <ele>224.1</ele>
        <time>2014-05-01T09:36:44Z</time>
      </trkpt>
      <trkpt lat="44.72992" lon="4.90734">
        <ele>223.9</ele>
        <time>2014-05-01T09:36:45Z</time>
      </trkpt>
      <trkpt lat="44.72998" lon="4.90733">
        <ele>223.7</ele>
        <time>2014-05-01T09:36:46Z</time>
      </trkpt>
      <trkpt lat="44.73002" lon="4.90732">
        <ele>223.5</ele>
        <time>2014-05-01T09:36:47Z</time>
      </trkpt>
      <trkpt lat="44.73008" lon="4.90732">
        <ele>223.2</ele>
        <time>2014-05-01T09:36:48Z</time>
      </trkpt>
      <trkpt lat="44.73014" lon="4.90732">
        <ele>222.9</ele>
        <time>2014-05-01T09:36:49Z</time>
      </trkpt>
      <trkpt lat="44.73019" lon="4.90733">
        <ele>222.7</ele>
        <time>2014-05-01T09:36:50Z</time>
      </trkpt>
      <trkpt lat="44.73025" lon="4.90734">
        <ele>222.5</ele>
        <time>2014-05-01T09:36:51Z</time>
      </trkpt>
      <trkpt lat="44.7303" lon="4.90736">
        <ele>222.3</ele>
        <time>2014-05-01T09:36:52Z</time>
      </trkpt>
      <trkpt lat="44.73036" lon="4.90736">
        <ele>222.1</ele>
        <time>2014-05-01T09:36:53Z</time>
      </trkpt>
      <trkpt lat="44.73041" lon="4.90735">
        <ele>221.8</ele>
        <time>2014-05-01T09:36:54Z</time>
      </trkpt>
      <trkpt lat="44.73048" lon="4.90734">
        <ele>221.4</ele>
        <time>2014-05-01T09:36:55Z</time>
      </trkpt>
      <trkpt lat="44.73054" lon="4.90733">
        <ele>221</ele>
        <time>2014-05-01T09:36:56Z</time>
      </trkpt>
      <trkpt lat="44.7306" lon="4.90731">
        <ele>220.7</ele>
        <time>2014-05-01T09:36:57Z</time>
      </trkpt>
      <trkpt lat="44.73067" lon="4.90729">
        <ele>220.2</ele>
        <time>2014-05-01T09:36:58Z</time>
      </trkpt>
      <trkpt lat="44.73073" lon="4.90727">
        <ele>219.8</ele>
        <time>2014-05-01T09:36:59Z</time>
      </trkpt>
      <trkpt lat="44.73079" lon="4.90725">
        <ele>219.4</ele>
        <time>2014-05-01T09:37:00Z</time>
      </trkpt>
      <trkpt lat="44.73085" lon="4.90723">
        <ele>218.9</ele>
        <time>2014-05-01T09:37:01Z</time>
      </trkpt>
      <trkpt lat="44.7309" lon="4.90722">
        <ele>218.4</ele>
        <time>2014-05-01T09:37:02Z</time>
      </trkpt>
      <trkpt lat="44.73097" lon="4.90722">
        <ele>218</ele>
        <time>2014-05-01T09:37:03Z</time>
      </trkpt>
      <trkpt lat="44.73103" lon="4.90723">
        <ele>217.7</ele>
        <time>2014-05-01T09:37:04Z</time>
      </trkpt>
      <trkpt lat="44.73109" lon="4.90723">
        <ele>217.3</ele>
        <time>2014-05-01T09:37:05Z</time>
      </trkpt>
      <trkpt lat="44.73116" lon="4.90724">
        <ele>216.9</ele>
        <time>2014-05-01T09:37:06Z</time>
      </trkpt>
      <trkpt lat="44.73124" lon="4.90725">
        <ele>216.5</ele>
        <time>2014-05-01T09:37:07Z</time>
      </trkpt>
      <trkpt lat="44.73132" lon="4.90727">
        <ele>216.1</ele>
        <time>2014-05-01T09:37:08Z</time>
      </trkpt>
      <trkpt lat="44.7314" lon="4.90728">
        <ele>215.6</ele>
        <time>2014-05-01T09:37:09Z</time>
      </trkpt>
      <trkpt lat="44.73149" lon="4.9073">
        <ele>215.2</ele>
        <time>2014-05-01T09:37:10Z</time>
      </trkpt>
      <trkpt lat="44.73163" lon="4.90732">
        <ele>214.4</ele>
        <time>2014-05-01T09:37:12Z</time>
      </trkpt>
      <trkpt lat="44.73169" lon="4.90732">
        <ele>214</ele>
        <time>2014-05-01T09:37:13Z</time>
      </trkpt>
      <trkpt lat="44.73175" lon="4.90733">
        <ele>213.6</ele>
        <time>2014-05-01T09:37:14Z</time>
      </trkpt>
      <trkpt lat="44.73181" lon="4.90735">
        <ele>213</ele>
        <time>2014-05-01T09:37:15Z</time>
      </trkpt>
      <trkpt lat="44.73188" lon="4.90736">
        <ele>212.3</ele>
        <time>2014-05-01T09:37:16Z</time>
      </trkpt>
      <trkpt lat="44.73196" lon="4.90738">
        <ele>211.7</ele>
        <time>2014-05-01T09:37:17Z</time>
      </trkpt>
      <trkpt lat="44.73203" lon="4.90739">
        <ele>211</ele>
        <time>2014-05-01T09:37:18Z</time>
      </trkpt>
      <trkpt lat="44.73211" lon="4.9074">
        <ele>210.3</ele>
        <time>2014-05-01T09:37:19Z</time>
      </trkpt>
      <trkpt lat="44.73218" lon="4.9074">
        <ele>209.5</ele>
        <time>2014-05-01T09:37:20Z</time>
      </trkpt>
      <trkpt lat="44.73226" lon="4.9074">
        <ele>208.7</ele>
        <time>2014-05-01T09:37:21Z</time>
      </trkpt>
      <trkpt lat="44.73234" lon="4.90739">
        <ele>207.7</ele>
        <time>2014-05-01T09:37:22Z</time>
      </trkpt>
      <trkpt lat="44.73241" lon="4.90737">
        <ele>206.9</ele>
        <time>2014-05-01T09:37:23Z</time>
      </trkpt>
      <trkpt lat="44.73248" lon="4.90733">
        <ele>205.7</ele>
        <time>2014-05-01T09:37:24Z</time>
      </trkpt>
      <trkpt lat="44.73253" lon="4.90728">
        <ele>204.8</ele>
        <time>2014-05-01T09:37:25Z</time>
      </trkpt>
      <trkpt lat="44.73259" lon="4.90725">
        <ele>203.9</ele>
        <time>2014-05-01T09:37:26Z</time>
      </trkpt>
      <trkpt lat="44.73265" lon="4.90722">
        <ele>203.1</ele>
        <time>2014-05-01T09:37:27Z</time>
      </trkpt>
      <trkpt lat="44.73272" lon="4.90721">
        <ele>202.4</ele>
        <time>2014-05-01T09:37:28Z</time>
      </trkpt>
      <trkpt lat="44.73279" lon="4.90721">
        <ele>201.7</ele>
        <time>2014-05-01T09:37:29Z</time>
      </trkpt>
      <trkpt lat="44.73285" lon="4.90723">
        <ele>201.2</ele>
        <time>2014-05-01T09:37:30Z</time>
      </trkpt>
      <trkpt lat="44.73291" lon="4.90725">
        <ele>200.7</ele>
        <time>2014-05-01T09:37:31Z</time>
      </trkpt>
      <trkpt lat="44.73299" lon="4.90726">
        <ele>200</ele>
        <time>2014-05-01T09:37:32Z</time>
      </trkpt>
      <trkpt lat="44.73306" lon="4.90727">
        <ele>199.4</ele>
        <time>2014-05-01T09:37:33Z</time>
      </trkpt>
      <trkpt lat="44.73312" lon="4.90728">
        <ele>198.8</ele>
        <time>2014-05-01T09:37:34Z</time>
      </trkpt>
      <trkpt lat="44.73318" lon="4.90727">
        <ele>198.1</ele>
        <time>2014-05-01T09:37:35Z</time>
      </trkpt>
      <trkpt lat="44.73326" lon="4.90726">
        <ele>197.3</ele>
        <time>2014-05-01T09:37:36Z</time>
      </trkpt>
      <trkpt lat="44.73334" lon="4.90725">
        <ele>196.4</ele>
        <time>2014-05-01T09:37:37Z</time>
      </trkpt>
      <trkpt lat="44.73342" lon="4.90724">
        <ele>195.7</ele>
        <time>2014-05-01T09:37:38Z</time>
      </trkpt>
      <trkpt lat="44.73349" lon="4.90725">
        <ele>195</ele>
        <time>2014-05-01T09:37:39Z</time>
      </trkpt>
      <trkpt lat="44.73357" lon="4.90727">
        <ele>194.4</ele>
        <time>2014-05-01T09:37:40Z</time>
      </trkpt>
      <trkpt lat="44.73365" lon="4.90731">
        <ele>193.9</ele>
        <time>2014-05-01T09:37:41Z</time>
      </trkpt>
      <trkpt lat="44.73373" lon="4.90735">
        <ele>193.3</ele>
        <time>2014-05-01T09:37:42Z</time>
      </trkpt>
      <trkpt lat="44.73381" lon="4.90738">
        <ele>192.7</ele>
        <time>2014-05-01T09:37:43Z</time>
      </trkpt>
      <trkpt lat="44.73389" lon="4.9074">
        <ele>192.1</ele>
        <time>2014-05-01T09:37:44Z</time>
      </trkpt>
      <trkpt lat="44.73398" lon="4.90743">
        <ele>191.4</ele>
        <time>2014-05-01T09:37:45Z</time>
      </trkpt>
      <trkpt lat="44.73406" lon="4.90744">
        <ele>190.7</ele>
        <time>2014-05-01T09:37:46Z</time>
      </trkpt>
      <trkpt lat="44.73413" lon="4.90746">
        <ele>190.1</ele>
        <time>2014-05-01T09:37:47Z</time>
      </trkpt>
      <trkpt lat="44.73421" lon="4.90747">
        <ele>189.5</ele>
        <time>2014-05-01T09:37:48Z</time>
      </trkpt>
      <trkpt lat="44.73429" lon="4.90747">
        <ele>188.8</ele>
        <time>2014-05-01T09:37:49Z</time>
      </trkpt>
      <trkpt lat="44.73437" lon="4.90748">
        <ele>188.2</ele>
        <time>2014-05-01T09:37:50Z</time>
      </trkpt>
      <trkpt lat="44.73446" lon="4.90748">
        <ele>187.4</ele>
        <time>2014-05-01T09:37:51Z</time>
      </trkpt>
      <trkpt lat="44.73455" lon="4.90748">
        <ele>186.7</ele>
        <time>2014-05-01T09:37:52Z</time>
      </trkpt>
      <trkpt lat="44.73463" lon="4.90747">
        <ele>186</ele>
        <time>2014-05-01T09:37:53Z</time>
      </trkpt>
      <trkpt lat="44.7347" lon="4.90747">
        <ele>185.4</ele>
        <time>2014-05-01T09:37:54Z</time>
      </trkpt>
      <trkpt lat="44.73477" lon="4.90748">
        <ele>184.8</ele>
        <time>2014-05-01T09:37:55Z</time>
      </trkpt>
      <trkpt lat="44.73484" lon="4.9075">
        <ele>184.3</ele>
        <time>2014-05-01T09:37:56Z</time>
      </trkpt>
      <trkpt lat="44.7349" lon="4.90753">
        <ele>183.7</ele>
        <time>2014-05-01T09:37:57Z</time>
      </trkpt>
      <trkpt lat="44.73496" lon="4.90756">
        <ele>183.1</ele>
        <time>2014-05-01T09:37:58Z</time>
      </trkpt>
      <trkpt lat="44.73502" lon="4.90759">
        <ele>182.4</ele>
        <time>2014-05-01T09:37:59Z</time>
      </trkpt>
      <trkpt lat="44.73509" lon="4.90763">
        <ele>181.6</ele>
        <time>2014-05-01T09:38:00Z</time>
      </trkpt>
      <trkpt lat="44.73516" lon="4.90767">
        <ele>180.8</ele>
        <time>2014-05-01T09:38:01Z</time>
      </trkpt>
      <trkpt lat="44.73523" lon="4.90771">
        <ele>180</ele>
        <time>2014-05-01T09:38:02Z</time>
      </trkpt>
      <trkpt lat="44.73531" lon="4.90775">
        <ele>179.1</ele>
        <time>2014-05-01T09:38:03Z</time>
      </trkpt>
      <trkpt lat="44.73539" lon="4.90779">
        <ele>178.3</ele>
        <time>2014-05-01T09:38:04Z</time>
      </trkpt>
      <trkpt lat="44.73546" lon="4.90782">
        <ele>177.5</ele>
        <time>2014-05-01T09:38:05Z</time>
      </trkpt>
      <trkpt lat="44.73551" lon="4.90786">
        <ele>177</ele>
        <time>2014-05-01T09:38:06Z</time>
      </trkpt>
      <trkpt lat="44.73558" lon="4.90791">
        <ele>176.3</ele>
        <time>2014-05-01T09:38:08Z</time>
      </trkpt>
      <trkpt lat="44.73562" lon="4.90795">
        <ele>175.9</ele>
        <time>2014-05-01T09:38:10Z</time>
      </trkpt>
      <trkpt lat="44.7356" lon="4.90802">
        <ele>176</ele>
        <time>2014-05-01T09:38:13Z</time>
      </trkpt>
      <trkpt lat="44.73552" lon="4.90813">
        <ele>176.5</ele>
        <time>2014-05-01T09:38:19Z</time>
      </trkpt>
      <trkpt lat="44.73547" lon="4.90817">
        <ele>176.8</ele>
        <time>2014-05-01T09:38:23Z</time>
      </trkpt>
      <trkpt lat="44.73542" lon="4.90821">
        <ele>177.2</ele>
        <time>2014-05-01T09:38:26Z</time>
      </trkpt>
      <trkpt lat="44.73538" lon="4.90824">
        <ele>177.4</ele>
        <time>2014-05-01T09:38:28Z</time>
      </trkpt>
      <trkpt lat="44.73533" lon="4.90828">
        <ele>177.7</ele>
        <time>2014-05-01T09:38:30Z</time>
      </trkpt>
      <trkpt lat="44.73527" lon="4.90833">
        <ele>178.1</ele>
        <time>2014-05-01T09:38:32Z</time>
      </trkpt>
      <trkpt lat="44.73522" lon="4.90837">
        <ele>178.2</ele>
        <time>2014-05-01T09:38:34Z</time>
      </trkpt>
      <trkpt lat="44.73516" lon="4.90843">
        <ele>178.2</ele>
        <time>2014-05-01T09:38:36Z</time>
      </trkpt>
      <trkpt lat="44.73509" lon="4.90849">
        <ele>178.3</ele>
        <time>2014-05-01T09:38:38Z</time>
      </trkpt>
      <trkpt lat="44.73502" lon="4.90855">
        <ele>178.2</ele>
        <time>2014-05-01T09:38:40Z</time>
      </trkpt>
      <trkpt lat="44.73496" lon="4.90863">
        <ele>178.2</ele>
        <time>2014-05-01T09:38:42Z</time>
      </trkpt>
      <trkpt lat="44.73489" lon="4.9087">
        <ele>178.2</ele>
        <time>2014-05-01T09:38:44Z</time>
      </trkpt>
      <trkpt lat="44.73482" lon="4.90877">
        <ele>178.2</ele>
        <time>2014-05-01T09:38:46Z</time>
      </trkpt>
      <trkpt lat="44.73475" lon="4.90884">
        <ele>178.2</ele>
        <time>2014-05-01T09:38:48Z</time>
      </trkpt>
      <trkpt lat="44.73468" lon="4.90892">
        <ele>178.3</ele>
        <time>2014-05-01T09:38:50Z</time>
      </trkpt>
      <trkpt lat="44.73464" lon="4.90896">
        <ele>178.3</ele>
        <time>2014-05-01T09:38:51Z</time>
      </trkpt>
      <trkpt lat="44.73461" lon="4.90901">
        <ele>178.3</ele>
        <time>2014-05-01T09:38:52Z</time>
      </trkpt>
      <trkpt lat="44.73457" lon="4.90905">
        <ele>178.3</ele>
        <time>2014-05-01T09:38:53Z</time>
      </trkpt>
      <trkpt lat="44.73453" lon="4.90909">
        <ele>178.4</ele>
        <time>2014-05-01T09:38:54Z</time>
      </trkpt>
      <trkpt lat="44.7345" lon="4.90914">
        <ele>178.4</ele>
        <time>2014-05-01T09:38:55Z</time>
      </trkpt>
      <trkpt lat="44.73446" lon="4.90919">
        <ele>178.4</ele>
        <time>2014-05-01T09:38:56Z</time>
      </trkpt>
      <trkpt lat="44.73442" lon="4.90923">
        <ele>178.3</ele>
        <time>2014-05-01T09:38:57Z</time>
      </trkpt>
      <trkpt lat="44.73439" lon="4.90928">
        <ele>178.4</ele>
        <time>2014-05-01T09:38:58Z</time>
      </trkpt>
      <trkpt lat="44.73435" lon="4.90932">
        <ele>178.3</ele>
        <time>2014-05-01T09:38:59Z</time>
      </trkpt>
      <trkpt lat="44.73431" lon="4.90937">
        <ele>178.2</ele>
        <time>2014-05-01T09:39:00Z</time>
      </trkpt>
      <trkpt lat="44.73427" lon="4.90942">
        <ele>178.1</ele>
        <time>2014-05-01T09:39:01Z</time>
      </trkpt>
      <trkpt lat="44.73423" lon="4.90947">
        <ele>178</ele>
        <time>2014-05-01T09:39:02Z</time>
      </trkpt>
      <trkpt lat="44.73419" lon="4.90952">
        <ele>178</ele>
        <time>2014-05-01T09:39:03Z</time>
      </trkpt>
      <trkpt lat="44.73415" lon="4.90957">
        <ele>177.8</ele>
        <time>2014-05-01T09:39:04Z</time>
      </trkpt>
      <trkpt lat="44.73411" lon="4.90962">
        <ele>177.6</ele>
        <time>2014-05-01T09:39:05Z</time>
      </trkpt>
      <trkpt lat="44.73407" lon="4.90967">
        <ele>177.5</ele>
        <time>2014-05-01T09:39:06Z</time>
      </trkpt>
      <trkpt lat="44.73403" lon="4.90971">
        <ele>177.3</ele>
        <time>2014-05-01T09:39:07Z</time>
      </trkpt>
      <trkpt lat="44.73399" lon="4.90976">
        <ele>177.3</ele>
        <time>2014-05-01T09:39:08Z</time>
      </trkpt>
      <trkpt lat="44.73395" lon="4.9098">
        <ele>177.1</ele>
        <time>2014-05-01T09:39:09Z</time>
      </trkpt>
      <trkpt lat="44.73391" lon="4.90985">
        <ele>177.1</ele>
        <time>2014-05-01T09:39:10Z</time>
      </trkpt>
      <trkpt lat="44.73387" lon="4.90989">
        <ele>177.1</ele>
        <time>2014-05-01T09:39:11Z</time>
      </trkpt>
      <trkpt lat="44.73382" lon="4.90993">
        <ele>177.1</ele>
        <time>2014-05-01T09:39:12Z</time>
      </trkpt>
      <trkpt lat="44.73378" lon="4.90997">
        <ele>177.1</ele>
        <time>2014-05-01T09:39:13Z</time>
      </trkpt>
      <trkpt lat="44.73371" lon="4.91004">
        <ele>177.2</ele>
        <time>2014-05-01T09:39:15Z</time>
      </trkpt>
      <trkpt lat="44.73363" lon="4.91012">
        <ele>177.4</ele>
        <time>2014-05-01T09:39:17Z</time>
      </trkpt>
      <trkpt lat="44.73359" lon="4.91017">
        <ele>177.5</ele>
        <time>2014-05-01T09:39:18Z</time>
      </trkpt>
      <trkpt lat="44.73355" lon="4.91022">
        <ele>177.5</ele>
        <time>2014-05-01T09:39:19Z</time>
      </trkpt>
      <trkpt lat="44.73351" lon="4.91028">
        <ele>177.5</ele>
        <time>2014-05-01T09:39:20Z</time>
      </trkpt>
      <trkpt lat="44.73347" lon="4.91034">
        <ele>177.5</ele>
        <time>2014-05-01T09:39:21Z</time>
      </trkpt>
      <trkpt lat="44.73343" lon="4.91039">
        <ele>177.5</ele>
        <time>2014-05-01T09:39:22Z</time>
      </trkpt>
      <trkpt lat="44.73339" lon="4.91045">
        <ele>177.5</ele>
        <time>2014-05-01T09:39:23Z</time>
      </trkpt>
      <trkpt lat="44.73334" lon="4.9105">
        <ele>177.6</ele>
        <time>2014-05-01T09:39:24Z</time>
      </trkpt>
      <trkpt lat="44.73329" lon="4.91054">
        <ele>177.7</ele>
        <time>2014-05-01T09:39:25Z</time>
      </trkpt>
      <trkpt lat="44.73325" lon="4.91059">
        <ele>177.7</ele>
        <time>2014-05-01T09:39:26Z</time>
      </trkpt>
      <trkpt lat="44.7332" lon="4.91064">
        <ele>177.7</ele>
        <time>2014-05-01T09:39:27Z</time>
      </trkpt>
      <trkpt lat="44.73315" lon="4.9107">
        <ele>177.7</ele>
        <time>2014-05-01T09:39:28Z</time>
      </trkpt>
      <trkpt lat="44.73312" lon="4.91076">
        <ele>177.5</ele>
        <time>2014-05-01T09:39:29Z</time>
      </trkpt>
      <trkpt lat="44.73309" lon="4.91083">
        <ele>177.2</ele>
        <time>2014-05-01T09:39:30Z</time>
      </trkpt>
      <trkpt lat="44.73307" lon="4.9109">
        <ele>177.3</ele>
        <time>2014-05-01T09:39:31Z</time>
      </trkpt>
      <trkpt lat="44.73305" lon="4.91097">
        <ele>177.3</ele>
        <time>2014-05-01T09:39:32Z</time>
      </trkpt>
      <trkpt lat="44.73304" lon="4.91105">
        <ele>177.4</ele>
        <time>2014-05-01T09:39:33Z</time>
      </trkpt>
      <trkpt lat="44.73303" lon="4.91113">
        <ele>177.4</ele>
        <time>2014-05-01T09:39:34Z</time>
      </trkpt>
      <trkpt lat="44.73302" lon="4.91121">
        <ele>177.5</ele>
        <time>2014-05-01T09:39:35Z</time>
      </trkpt>
      <trkpt lat="44.733" lon="4.91129">
        <ele>177.5</ele>
        <time>2014-05-01T09:39:36Z</time>
      </trkpt>
      <trkpt lat="44.73299" lon="4.91138">
        <ele>177.5</ele>
        <time>2014-05-01T09:39:37Z</time>
      </trkpt>
      <trkpt lat="44.73298" lon="4.91146">
        <ele>177.5</ele>
        <time>2014-05-01T09:39:38Z</time>
      </trkpt>
      <trkpt lat="44.73296" lon="4.91154">
        <ele>177.5</ele>
        <time>2014-05-01T09:39:39Z</time>
      </trkpt>
      <trkpt lat="44.73295" lon="4.91161">
        <ele>177.5</ele>
        <time>2014-05-01T09:39:40Z</time>
      </trkpt>
      <trkpt lat="44.73293" lon="4.91169">
        <ele>177.5</ele>
        <time>2014-05-01T09:39:41Z</time>
      </trkpt>
      <trkpt lat="44.73291" lon="4.91177">
        <ele>177.5</ele>
        <time>2014-05-01T09:39:42Z</time>
      </trkpt>
      <trkpt lat="44.7329" lon="4.91185">
        <ele>177.5</ele>
        <time>2014-05-01T09:39:43Z</time>
      </trkpt>
      <trkpt lat="44.73288" lon="4.91194">
        <ele>177.5</ele>
        <time>2014-05-01T09:39:44Z</time>
      </trkpt>
      <trkpt lat="44.73287" lon="4.91202">
        <ele>177.6</ele>
        <time>2014-05-01T09:39:45Z</time>
      </trkpt>
      <trkpt lat="44.73286" lon="4.9121">
        <ele>177.6</ele>
        <time>2014-05-01T09:39:46Z</time>
      </trkpt>
      <trkpt lat="44.73285" lon="4.91217">
        <ele>177.6</ele>
        <time>2014-05-01T09:39:47Z</time>
      </trkpt>
      <trkpt lat="44.73283" lon="4.91225">
        <ele>177.6</ele>
        <time>2014-05-01T09:39:48Z</time>
      </trkpt>
      <trkpt lat="44.73282" lon="4.91233">
        <ele>177.6</ele>
        <time>2014-05-01T09:39:49Z</time>
      </trkpt>
      <trkpt lat="44.73281" lon="4.9124">
        <ele>177.6</ele>
        <time>2014-05-01T09:39:50Z</time>
      </trkpt>
      <trkpt lat="44.7328" lon="4.91248">
        <ele>177.6</ele>
        <time>2014-05-01T09:39:51Z</time>
      </trkpt>
      <trkpt lat="44.73279" lon="4.91256">
        <ele>177.6</ele>
        <time>2014-05-01T09:39:52Z</time>
      </trkpt>
      <trkpt lat="44.73278" lon="4.91263">
        <ele>177.5</ele>
        <time>2014-05-01T09:39:53Z</time>
      </trkpt>
      <trkpt lat="44.73278" lon="4.91271">
        <ele>177.4</ele>
        <time>2014-05-01T09:39:54Z</time>
      </trkpt>
      <trkpt lat="44.73277" lon="4.91278">
        <ele>177.4</ele>
        <time>2014-05-01T09:39:55Z</time>
      </trkpt>
      <trkpt lat="44.73276" lon="4.91285">
        <ele>177.3</ele>
        <time>2014-05-01T09:39:56Z</time>
      </trkpt>
      <trkpt lat="44.73276" lon="4.91292">
        <ele>177.2</ele>
        <time>2014-05-01T09:39:57Z</time>
      </trkpt>
      <trkpt lat="44.73276" lon="4.91304">
        <ele>177.1</ele>
        <time>2014-05-01T09:39:59Z</time>
      </trkpt>
      <trkpt lat="44.73274" lon="4.91312">
        <ele>177.1</ele>
        <time>2014-05-01T09:40:01Z</time>
      </trkpt>
      <trkpt lat="44.73268" lon="4.91313">
        <ele>177.3</ele>
        <time>2014-05-01T09:40:05Z</time>
      </trkpt>
      <trkpt lat="44.73264" lon="4.91312">
        <ele>177.5</ele>
        <time>2014-05-01T09:40:07Z</time>
      </trkpt>
      <trkpt lat="44.73259" lon="4.9131">
        <ele>177.6</ele>
        <time>2014-05-01T09:40:09Z</time>
      </trkpt>
      <trkpt lat="44.73253" lon="4.91307">
        <ele>177.9</ele>
        <time>2014-05-01T09:40:12Z</time>
      </trkpt>
      <trkpt lat="44.73248" lon="4.91305">
        <ele>178.1</ele>
        <time>2014-05-01T09:40:14Z</time>
      </trkpt>
      <trkpt lat="44.73243" lon="4.91302">
        <ele>178.5</ele>
        <time>2014-05-01T09:40:16Z</time>
      </trkpt>
      <trkpt lat="44.73237" lon="4.913">
        <ele>179</ele>
        <time>2014-05-01T09:40:18Z</time>
      </trkpt>
      <trkpt lat="44.73225" lon="4.91296">
        <ele>179.9</ele>
        <time>2014-05-01T09:40:22Z</time>
      </trkpt>
      <trkpt lat="44.73219" lon="4.91295">
        <ele>180.4</ele>
        <time>2014-05-01T09:40:24Z</time>
      </trkpt>
      <trkpt lat="44.73214" lon="4.91294">
        <ele>180.8</ele>
        <time>2014-05-01T09:40:26Z</time>
      </trkpt>
      <trkpt lat="44.73209" lon="4.91293">
        <ele>181.2</ele>
        <time>2014-05-01T09:40:28Z</time>
      </trkpt>
      <trkpt lat="44.73204" lon="4.91292">
        <ele>181.6</ele>
        <time>2014-05-01T09:40:30Z</time>
      </trkpt>
      <trkpt lat="44.73199" lon="4.91291">
        <ele>182</ele>
        <time>2014-05-01T09:40:32Z</time>
      </trkpt>
      <trkpt lat="44.73193" lon="4.9129">
        <ele>182.4</ele>
        <time>2014-05-01T09:40:34Z</time>
      </trkpt>
      <trkpt lat="44.73188" lon="4.91289">
        <ele>182.9</ele>
        <time>2014-05-01T09:40:36Z</time>
      </trkpt>
      <trkpt lat="44.73182" lon="4.91288">
        <ele>183.3</ele>
        <time>2014-05-01T09:40:38Z</time>
      </trkpt>
      <trkpt lat="44.73176" lon="4.91287">
        <ele>183.8</ele>
        <time>2014-05-01T09:40:40Z</time>
      </trkpt>
      <trkpt lat="44.73171" lon="4.91286">
        <ele>184.2</ele>
        <time>2014-05-01T09:40:42Z</time>
      </trkpt>
      <trkpt lat="44.73166" lon="4.91285">
        <ele>184.6</ele>
        <time>2014-05-01T09:40:44Z</time>
      </trkpt>
      <trkpt lat="44.7316" lon="4.91285">
        <ele>185</ele>
        <time>2014-05-01T09:40:46Z</time>
      </trkpt>
      <trkpt lat="44.73156" lon="4.91284">
        <ele>185.3</ele>
        <time>2014-05-01T09:40:48Z</time>
      </trkpt>
      <trkpt lat="44.7315" lon="4.91283">
        <ele>185.6</ele>
        <time>2014-05-01T09:40:50Z</time>
      </trkpt>
      <trkpt lat="44.73145" lon="4.91283">
        <ele>186</ele>
        <time>2014-05-01T09:40:52Z</time>
      </trkpt>
      <trkpt lat="44.73139" lon="4.91283">
        <ele>186.3</ele>
        <time>2014-05-01T09:40:54Z</time>
      </trkpt>
      <trkpt lat="44.73134" lon="4.91283">
        <ele>186.6</ele>
        <time>2014-05-01T09:40:56Z</time>
      </trkpt>
      <trkpt lat="44.73128" lon="4.91283">
        <ele>187</ele>
        <time>2014-05-01T09:40:59Z</time>
      </trkpt>
      <trkpt lat="44.73123" lon="4.91284">
        <ele>187.3</ele>
        <time>2014-05-01T09:41:01Z</time>
      </trkpt>
      <trkpt lat="44.73118" lon="4.91284">
        <ele>187.7</ele>
        <time>2014-05-01T09:41:03Z</time>
      </trkpt>
      <trkpt lat="44.73113" lon="4.91284">
        <ele>188</ele>
        <time>2014-05-01T09:41:05Z</time>
      </trkpt>
      <trkpt lat="44.73108" lon="4.91284">
        <ele>188.3</ele>
        <time>2014-05-01T09:41:07Z</time>
      </trkpt>
      <trkpt lat="44.73103" lon="4.91283">
        <ele>188.6</ele>
        <time>2014-05-01T09:41:09Z</time>
      </trkpt>
      <trkpt lat="44.73098" lon="4.91282">
        <ele>188.9</ele>
        <time>2014-05-01T09:41:11Z</time>
      </trkpt>
      <trkpt lat="44.73093" lon="4.9128">
        <ele>189.2</ele>
        <time>2014-05-01T09:41:13Z</time>
      </trkpt>
      <trkpt lat="44.73087" lon="4.91278">
        <ele>189.4</ele>
        <time>2014-05-01T09:41:15Z</time>
      </trkpt>
      <trkpt lat="44.73082" lon="4.91276">
        <ele>189.7</ele>
        <time>2014-05-01T09:41:17Z</time>
      </trkpt>
      <trkpt lat="44.73077" lon="4.91275">
        <ele>190.1</ele>
        <time>2014-05-01T09:41:19Z</time>
      </trkpt>
      <trkpt lat="44.73073" lon="4.91272">
        <ele>190.5</ele>
        <time>2014-05-01T09:41:21Z</time>
      </trkpt>
      <trkpt lat="44.73063" lon="4.91267">
        <ele>191.2</ele>
        <time>2014-05-01T09:41:25Z</time>
      </trkpt>
      <trkpt lat="44.73058" lon="4.91265">
        <ele>191.5</ele>
        <time>2014-05-01T09:41:27Z</time>
      </trkpt>
      <trkpt lat="44.73054" lon="4.91264">
        <ele>191.9</ele>
        <time>2014-05-01T09:41:29Z</time>
      </trkpt>
      <trkpt lat="44.73049" lon="4.91262">
        <ele>192.2</ele>
        <time>2014-05-01T09:41:31Z</time>
      </trkpt>
      <trkpt lat="44.73044" lon="4.9126">
        <ele>192.6</ele>
        <time>2014-05-01T09:41:33Z</time>
      </trkpt>
      <trkpt lat="44.73038" lon="4.91258">
        <ele>193</ele>
        <time>2014-05-01T09:41:36Z</time>
      </trkpt>
      <trkpt lat="44.73032" lon="4.91256">
        <ele>193.5</ele>
        <time>2014-05-01T09:41:40Z</time>
      </trkpt>
      <trkpt lat="44.73026" lon="4.91258">
        <ele>194</ele>
        <time>2014-05-01T09:42:23Z</time>
      </trkpt>
      <trkpt lat="44.73024" lon="4.91275">
        <ele>194.7</ele>
        <time>2014-05-01T09:42:27Z</time>
      </trkpt>
      <trkpt lat="44.73024" lon="4.91287">
        <ele>195.2</ele>
        <time>2014-05-01T09:42:29Z</time>
      </trkpt>
      <trkpt lat="44.73024" lon="4.91299">
        <ele>195.5</ele>
        <time>2014-05-01T09:42:31Z</time>
      </trkpt>
      <trkpt lat="44.73024" lon="4.91306">
        <ele>195.8</ele>
        <time>2014-05-01T09:42:32Z</time>
      </trkpt>
      <trkpt lat="44.73023" lon="4.91312">
        <ele>196</ele>
        <time>2014-05-01T09:42:33Z</time>
      </trkpt>
      <trkpt lat="44.73023" lon="4.91319">
        <ele>196.3</ele>
        <time>2014-05-01T09:42:34Z</time>
      </trkpt>
      <trkpt lat="44.73022" lon="4.91325">
        <ele>196.6</ele>
        <time>2014-05-01T09:42:35Z</time>
      </trkpt>
      <trkpt lat="44.73022" lon="4.91332">
        <ele>196.8</ele>
        <time>2014-05-01T09:42:36Z</time>
      </trkpt>
      <trkpt lat="44.73022" lon="4.91339">
        <ele>196.5</ele>
        <time>2014-05-01T09:42:37Z</time>
      </trkpt>
      <trkpt lat="44.73023" lon="4.91346">
        <ele>196</ele>
        <time>2014-05-01T09:42:38Z</time>
      </trkpt>
      <trkpt lat="44.73023" lon="4.91352">
        <ele>195.6</ele>
        <time>2014-05-01T09:42:39Z</time>
      </trkpt>
      <trkpt lat="44.73023" lon="4.91363">
        <ele>195</ele>
        <time>2014-05-01T09:42:41Z</time>
      </trkpt>
      <trkpt lat="44.73022" lon="4.91375">
        <ele>194.3</ele>
        <time>2014-05-01T09:42:43Z</time>
      </trkpt>
      <trkpt lat="44.73021" lon="4.91381">
        <ele>193.9</ele>
        <time>2014-05-01T09:42:44Z</time>
      </trkpt>
      <trkpt lat="44.7302" lon="4.91392">
        <ele>193.2</ele>
        <time>2014-05-01T09:42:46Z</time>
      </trkpt>
      <trkpt lat="44.73021" lon="4.91402">
        <ele>192.5</ele>
        <time>2014-05-01T09:42:48Z</time>
      </trkpt>
      <trkpt lat="44.73023" lon="4.91414">
        <ele>191.5</ele>
        <time>2014-05-01T09:42:50Z</time>
      </trkpt>
      <trkpt lat="44.73024" lon="4.91421">
        <ele>190.8</ele>
        <time>2014-05-01T09:42:51Z</time>
      </trkpt>
      <trkpt lat="44.73024" lon="4.91428">
        <ele>189.7</ele>
        <time>2014-05-01T09:42:52Z</time>
      </trkpt>
      <trkpt lat="44.73024" lon="4.91436">
        <ele>188.7</ele>
        <time>2014-05-01T09:42:53Z</time>
      </trkpt>
      <trkpt lat="44.73024" lon="4.91444">
        <ele>187.7</ele>
        <time>2014-05-01T09:42:54Z</time>
      </trkpt>
      <trkpt lat="44.73024" lon="4.91454">
        <ele>186.5</ele>
        <time>2014-05-01T09:42:55Z</time>
      </trkpt>
      <trkpt lat="44.73025" lon="4.91463">
        <ele>185.3</ele>
        <time>2014-05-01T09:42:56Z</time>
      </trkpt>
      <trkpt lat="44.73026" lon="4.91472">
        <ele>184.1</ele>
        <time>2014-05-01T09:42:57Z</time>
      </trkpt>
      <trkpt lat="44.73025" lon="4.91479">
        <ele>183.3</ele>
        <time>2014-05-01T09:42:58Z</time>
      </trkpt>
      <trkpt lat="44.73024" lon="4.91486">
        <ele>182.3</ele>
        <time>2014-05-01T09:42:59Z</time>
      </trkpt>
      <trkpt lat="44.73023" lon="4.91495">
        <ele>181.1</ele>
        <time>2014-05-01T09:43:00Z</time>
      </trkpt>
      <trkpt lat="44.73021" lon="4.91503">
        <ele>180.3</ele>
        <time>2014-05-01T09:43:01Z</time>
      </trkpt>
      <trkpt lat="44.73019" lon="4.9151">
        <ele>179.9</ele>
        <time>2014-05-01T09:43:02Z</time>
      </trkpt>
      <trkpt lat="44.73019" lon="4.91518">
        <ele>179.4</ele>
        <time>2014-05-01T09:43:03Z</time>
      </trkpt>
      <trkpt lat="44.73019" lon="4.91525">
        <ele>178.9</ele>
        <time>2014-05-01T09:43:04Z</time>
      </trkpt>
      <trkpt lat="44.73019" lon="4.91532">
        <ele>178.5</ele>
        <time>2014-05-01T09:43:05Z</time>
      </trkpt>
      <trkpt lat="44.73019" lon="4.91543">
        <ele>177.8</ele>
        <time>2014-05-01T09:43:07Z</time>
      </trkpt>
      <trkpt lat="44.73019" lon="4.91552">
        <ele>177.1</ele>
        <time>2014-05-01T09:43:09Z</time>
      </trkpt>
      <trkpt lat="44.73022" lon="4.91563">
        <ele>176.3</ele>
        <time>2014-05-01T09:43:11Z</time>
      </trkpt>
      <trkpt lat="44.73024" lon="4.91569">
        <ele>175.8</ele>
        <time>2014-05-01T09:43:12Z</time>
      </trkpt>
      <trkpt lat="44.73027" lon="4.91576">
        <ele>175.2</ele>
        <time>2014-05-01T09:43:13Z</time>
      </trkpt>
      <trkpt lat="44.73029" lon="4.91582">
        <ele>174.7</ele>
        <time>2014-05-01T09:43:14Z</time>
      </trkpt>
      <trkpt lat="44.73031" lon="4.91589">
        <ele>174</ele>
        <time>2014-05-01T09:43:15Z</time>
      </trkpt>
      <trkpt lat="44.73033" lon="4.91596">
        <ele>173.3</ele>
        <time>2014-05-01T09:43:16Z</time>
      </trkpt>
      <trkpt lat="44.73036" lon="4.91602">
        <ele>172.6</ele>
        <time>2014-05-01T09:43:17Z</time>
      </trkpt>
      <trkpt lat="44.73037" lon="4.91609">
        <ele>172</ele>
        <time>2014-05-01T09:43:18Z</time>
      </trkpt>
      <trkpt lat="44.73037" lon="4.91616">
        <ele>171.3</ele>
        <time>2014-05-01T09:43:19Z</time>
      </trkpt>
      <trkpt lat="44.73036" lon="4.91623">
        <ele>170.7</ele>
        <time>2014-05-01T09:43:20Z</time>
      </trkpt>
      <trkpt lat="44.73035" lon="4.9163">
        <ele>170.1</ele>
        <time>2014-05-01T09:43:21Z</time>
      </trkpt>
      <trkpt lat="44.73033" lon="4.91638">
        <ele>169.4</ele>
        <time>2014-05-01T09:43:22Z</time>
      </trkpt>
      <trkpt lat="44.73031" lon="4.91646">
        <ele>168.8</ele>
        <time>2014-05-01T09:43:23Z</time>
      </trkpt>
      <trkpt lat="44.7303" lon="4.91654">
        <ele>168.1</ele>
        <time>2014-05-01T09:43:24Z</time>
      </trkpt>
      <trkpt lat="44.73029" lon="4.91662">
        <ele>167.4</ele>
        <time>2014-05-01T09:43:25Z</time>
      </trkpt>
      <trkpt lat="44.73028" lon="4.9168">
        <ele>165.8</ele>
        <time>2014-05-01T09:43:27Z</time>
      </trkpt>
      <trkpt lat="44.73028" lon="4.91687">
        <ele>165.2</ele>
        <time>2014-05-01T09:43:28Z</time>
      </trkpt>
      <trkpt lat="44.73028" lon="4.91698">
        <ele>164.1</ele>
        <time>2014-05-01T09:43:30Z</time>
      </trkpt>
      <trkpt lat="44.73028" lon="4.91706">
        <ele>163.5</ele>
        <time>2014-05-01T09:43:31Z</time>
      </trkpt>
      <trkpt lat="44.73027" lon="4.91714">
        <ele>162.7</ele>
        <time>2014-05-01T09:43:32Z</time>
      </trkpt>
      <trkpt lat="44.73026" lon="4.91723">
        <ele>161.9</ele>
        <time>2014-05-01T09:43:33Z</time>
      </trkpt>
      <trkpt lat="44.73026" lon="4.91733">
        <ele>161.1</ele>
        <time>2014-05-01T09:43:34Z</time>
      </trkpt>
      <trkpt lat="44.73024" lon="4.91745">
        <ele>160</ele>
        <time>2014-05-01T09:43:35Z</time>
      </trkpt>
      <trkpt lat="44.73023" lon="4.91757">
        <ele>159.3</ele>
        <time>2014-05-01T09:43:36Z</time>
      </trkpt>
      <trkpt lat="44.73023" lon="4.91771">
        <ele>159.1</ele>
        <time>2014-05-01T09:43:37Z</time>
      </trkpt>
      <trkpt lat="44.73024" lon="4.91783">
        <ele>158.9</ele>
        <time>2014-05-01T09:43:38Z</time>
      </trkpt>
      <trkpt lat="44.73026" lon="4.91796">
        <ele>158.7</ele>
        <time>2014-05-01T09:43:39Z</time>
      </trkpt>
      <trkpt lat="44.73028" lon="4.91808">
        <ele>158.4</ele>
        <time>2014-05-01T09:43:40Z</time>
      </trkpt>
      <trkpt lat="44.7303" lon="4.9182">
        <ele>158.2</ele>
        <time>2014-05-01T09:43:41Z</time>
      </trkpt>
      <trkpt lat="44.73032" lon="4.91831">
        <ele>157.9</ele>
        <time>2014-05-01T09:43:42Z</time>
      </trkpt>
      <trkpt lat="44.73034" lon="4.91843">
        <ele>157.6</ele>
        <time>2014-05-01T09:43:43Z</time>
      </trkpt>
      <trkpt lat="44.73035" lon="4.91856">
        <ele>157.3</ele>
        <time>2014-05-01T09:43:44Z</time>
      </trkpt>
      <trkpt lat="44.73037" lon="4.91868">
        <ele>157</ele>
        <time>2014-05-01T09:43:45Z</time>
      </trkpt>
      <trkpt lat="44.73039" lon="4.9188">
        <ele>156.7</ele>
        <time>2014-05-01T09:43:46Z</time>
      </trkpt>
      <trkpt lat="44.7304" lon="4.91893">
        <ele>156.5</ele>
        <time>2014-05-01T09:43:47Z</time>
      </trkpt>
      <trkpt lat="44.73041" lon="4.91904">
        <ele>156.2</ele>
        <time>2014-05-01T09:43:48Z</time>
      </trkpt>
      <trkpt lat="44.73042" lon="4.91913">
        <ele>156.1</ele>
        <time>2014-05-01T09:43:49Z</time>
      </trkpt>
      <trkpt lat="44.73044" lon="4.91922">
        <ele>155.9</ele>
        <time>2014-05-01T09:43:50Z</time>
      </trkpt>
      <trkpt lat="44.73047" lon="4.91931">
        <ele>155.7</ele>
        <time>2014-05-01T09:43:51Z</time>
      </trkpt>
      <trkpt lat="44.7305" lon="4.91939">
        <ele>155.6</ele>
        <time>2014-05-01T09:43:52Z</time>
      </trkpt>
      <trkpt lat="44.73053" lon="4.91946">
        <ele>155.5</ele>
        <time>2014-05-01T09:43:53Z</time>
      </trkpt>
      <trkpt lat="44.73057" lon="4.91953">
        <ele>155.4</ele>
        <time>2014-05-01T09:43:54Z</time>
      </trkpt>
      <trkpt lat="44.73061" lon="4.91959">
        <ele>155.3</ele>
        <time>2014-05-01T09:43:55Z</time>
      </trkpt>
      <trkpt lat="44.73065" lon="4.91965">
        <ele>155.2</ele>
        <time>2014-05-01T09:43:56Z</time>
      </trkpt>
      <trkpt lat="44.73068" lon="4.91971">
        <ele>155.1</ele>
        <time>2014-05-01T09:43:57Z</time>
      </trkpt>
      <trkpt lat="44.73071" lon="4.91977">
        <ele>155.1</ele>
        <time>2014-05-01T09:43:58Z</time>
      </trkpt>
      <trkpt lat="44.73073" lon="4.91983">
        <ele>155.1</ele>
        <time>2014-05-01T09:43:59Z</time>
      </trkpt>
      <trkpt lat="44.73075" lon="4.9199">
        <ele>155</ele>
        <time>2014-05-01T09:44:00Z</time>
      </trkpt>
      <trkpt lat="44.73077" lon="4.92">
        <ele>155</ele>
        <time>2014-05-01T09:44:02Z</time>
      </trkpt>
      <trkpt lat="44.7308" lon="4.92006">
        <ele>155.8</ele>
        <time>2014-05-01T09:44:06Z</time>
      </trkpt>
      <trkpt lat="44.73085" lon="4.92007">
        <ele>156</ele>
        <time>2014-05-01T09:44:10Z</time>
      </trkpt>
      <trkpt lat="44.7309" lon="4.92004">
        <ele>155.6</ele>
        <time>2014-05-01T09:44:20Z</time>
      </trkpt>
      <trkpt lat="44.73094" lon="4.92">
        <ele>155</ele>
        <time>2014-05-01T09:44:25Z</time>
      </trkpt>
      <trkpt lat="44.73098" lon="4.91996">
        <ele>155</ele>
        <time>2014-05-01T09:44:29Z</time>
      </trkpt>
      <trkpt lat="44.73106" lon="4.91988">
        <ele>155</ele>
        <time>2014-05-01T09:44:33Z</time>
      </trkpt>
      <trkpt lat="44.73109" lon="4.91983">
        <ele>155</ele>
        <time>2014-05-01T09:44:35Z</time>
      </trkpt>
      <trkpt lat="44.73114" lon="4.91976">
        <ele>155</ele>
        <time>2014-05-01T09:44:38Z</time>
      </trkpt>
      <trkpt lat="44.73117" lon="4.91971">
        <ele>155</ele>
        <time>2014-05-01T09:44:40Z</time>
      </trkpt>
      <trkpt lat="44.73121" lon="4.91966">
        <ele>155</ele>
        <time>2014-05-01T09:44:42Z</time>
      </trkpt>
      <trkpt lat="44.73125" lon="4.9196">
        <ele>155</ele>
        <time>2014-05-01T09:44:44Z</time>
      </trkpt>
      <trkpt lat="44.73129" lon="4.91955">
        <ele>155</ele>
        <time>2014-05-01T09:44:46Z</time>
      </trkpt>
      <trkpt lat="44.73134" lon="4.91949">
        <ele>155</ele>
        <time>2014-05-01T09:44:48Z</time>
      </trkpt>
      <trkpt lat="44.73139" lon="4.91944">
        <ele>155</ele>
        <time>2014-05-01T09:44:50Z</time>
      </trkpt>
      <trkpt lat="44.73144" lon="4.91938">
        <ele>155</ele>
        <time>2014-05-01T09:44:52Z</time>
      </trkpt>
      <trkpt lat="44.73149" lon="4.91932">
        <ele>155</ele>
        <time>2014-05-01T09:44:54Z</time>
      </trkpt>
      <trkpt lat="44.73154" lon="4.91927">
        <ele>155</ele>
        <time>2014-05-01T09:44:56Z</time>
      </trkpt>
      <trkpt lat="44.7316" lon="4.91923">
        <ele>155</ele>
        <time>2014-05-01T09:44:58Z</time>
      </trkpt>
      <trkpt lat="44.73167" lon="4.91922">
        <ele>155</ele>
        <time>2014-05-01T09:45:00Z</time>
      </trkpt>
      <trkpt lat="44.73175" lon="4.91923">
        <ele>154.9</ele>
        <time>2014-05-01T09:45:02Z</time>
      </trkpt>
      <trkpt lat="44.73181" lon="4.91926">
        <ele>154.8</ele>
        <time>2014-05-01T09:45:04Z</time>
      </trkpt>
      <trkpt lat="44.73188" lon="4.91931">
        <ele>154.7</ele>
        <time>2014-05-01T09:45:06Z</time>
      </trkpt>
      <trkpt lat="44.73196" lon="4.91936">
        <ele>154.7</ele>
        <time>2014-05-01T09:45:08Z</time>
      </trkpt>
      <trkpt lat="44.73203" lon="4.9194">
        <ele>154.6</ele>
        <time>2014-05-01T09:45:10Z</time>
      </trkpt>
      <trkpt lat="44.73211" lon="4.91944">
        <ele>154.5</ele>
        <time>2014-05-01T09:45:12Z</time>
      </trkpt>
      <trkpt lat="44.73219" lon="4.91947">
        <ele>154.4</ele>
        <time>2014-05-01T09:45:14Z</time>
      </trkpt>
      <trkpt lat="44.73227" lon="4.9195">
        <ele>154.3</ele>
        <time>2014-05-01T09:45:16Z</time>
      </trkpt>
      <trkpt lat="44.73235" lon="4.91953">
        <ele>154.2</ele>
        <time>2014-05-01T09:45:18Z</time>
      </trkpt>
      <trkpt lat="44.73244" lon="4.91956">
        <ele>154.1</ele>
        <time>2014-05-01T09:45:20Z</time>
      </trkpt>
      <trkpt lat="44.73248" lon="4.91957">
        <ele>154</ele>
        <time>2014-05-01T09:45:21Z</time>
      </trkpt>
      <trkpt lat="44.73257" lon="4.9196">
        <ele>153.8</ele>
        <time>2014-05-01T09:45:23Z</time>
      </trkpt>
      <trkpt lat="44.73261" lon="4.91962">
        <ele>153.6</ele>
        <time>2014-05-01T09:45:24Z</time>
      </trkpt>
      <trkpt lat="44.7327" lon="4.91964">
        <ele>153.3</ele>
        <time>2014-05-01T09:45:26Z</time>
      </trkpt>
      <trkpt lat="44.73275" lon="4.91966">
        <ele>153.1</ele>
        <time>2014-05-01T09:45:27Z</time>
      </trkpt>
      <trkpt lat="44.73284" lon="4.91967">
        <ele>152.8</ele>
        <time>2014-05-01T09:45:29Z</time>
      </trkpt>
      <trkpt lat="44.73292" lon="4.91968">
        <ele>152.5</ele>
        <time>2014-05-01T09:45:31Z</time>
      </trkpt>
      <trkpt lat="44.73306" lon="4.91966">
        <ele>152</ele>
        <time>2014-05-01T09:45:34Z</time>
      </trkpt>
      <trkpt lat="44.7331" lon="4.91966">
        <ele>151.8</ele>
        <time>2014-05-01T09:45:35Z</time>
      </trkpt>
      <trkpt lat="44.73315" lon="4.91965">
        <ele>151.7</ele>
        <time>2014-05-01T09:45:36Z</time>
      </trkpt>
      <trkpt lat="44.73319" lon="4.91965">
        <ele>151.5</ele>
        <time>2014-05-01T09:45:37Z</time>
      </trkpt>
      <trkpt lat="44.73328" lon="4.91964">
        <ele>151.2</ele>
        <time>2014-05-01T09:45:39Z</time>
      </trkpt>
      <trkpt lat="44.73337" lon="4.91965">
        <ele>151.1</ele>
        <time>2014-05-01T09:45:41Z</time>
      </trkpt>
      <trkpt lat="44.73345" lon="4.91968">
        <ele>151.3</ele>
        <time>2014-05-01T09:45:43Z</time>
      </trkpt>
      <trkpt lat="44.73351" lon="4.91973">
        <ele>151.4</ele>
        <time>2014-05-01T09:45:45Z</time>
      </trkpt>
      <trkpt lat="44.73357" lon="4.91974">
        <ele>151.6</ele>
        <time>2014-05-01T09:45:49Z</time>
      </trkpt>
      <trkpt lat="44.73363" lon="4.91972">
        <ele>151.7</ele>
        <time>2014-05-01T09:45:52Z</time>
      </trkpt>
      <trkpt lat="44.73369" lon="4.91971">
        <ele>151.8</ele>
        <time>2014-05-01T09:45:54Z</time>
      </trkpt>
      <trkpt lat="44.73377" lon="4.9197">
        <ele>152</ele>
        <time>2014-05-01T09:45:56Z</time>
      </trkpt>
      <trkpt lat="44.73381" lon="4.91971">
        <ele>152.1</ele>
        <time>2014-05-01T09:45:57Z</time>
      </trkpt>
      <trkpt lat="44.73386" lon="4.91971">
        <ele>152.2</ele>
        <time>2014-05-01T09:45:58Z</time>
      </trkpt>
      <trkpt lat="44.73395" lon="4.9197">
        <ele>152.4</ele>
        <time>2014-05-01T09:46:00Z</time>
      </trkpt>
      <trkpt lat="44.73403" lon="4.9197">
        <ele>152.6</ele>
        <time>2014-05-01T09:46:02Z</time>
      </trkpt>
      <trkpt lat="44.73412" lon="4.91968">
        <ele>152.7</ele>
        <time>2014-05-01T09:46:04Z</time>
      </trkpt>
      <trkpt lat="44.73421" lon="4.91966">
        <ele>152.8</ele>
        <time>2014-05-01T09:46:06Z</time>
      </trkpt>
      <trkpt lat="44.73425" lon="4.91964">
        <ele>152.9</ele>
        <time>2014-05-01T09:46:07Z</time>
      </trkpt>
      <trkpt lat="44.73429" lon="4.91962">
        <ele>153</ele>
        <time>2014-05-01T09:46:08Z</time>
      </trkpt>
      <trkpt lat="44.73437" lon="4.91957">
        <ele>153</ele>
        <time>2014-05-01T09:46:10Z</time>
      </trkpt>
      <trkpt lat="44.73444" lon="4.9195">
        <ele>153.1</ele>
        <time>2014-05-01T09:46:12Z</time>
      </trkpt>
      <trkpt lat="44.73451" lon="4.91943">
        <ele>153.2</ele>
        <time>2014-05-01T09:46:14Z</time>
      </trkpt>
      <trkpt lat="44.73457" lon="4.91934">
        <ele>153.3</ele>
        <time>2014-05-01T09:46:16Z</time>
      </trkpt>
      <trkpt lat="44.73461" lon="4.91929">
        <ele>153.3</ele>
        <time>2014-05-01T09:46:17Z</time>
      </trkpt>
      <trkpt lat="44.73466" lon="4.9192">
        <ele>153.4</ele>
        <time>2014-05-01T09:46:19Z</time>
      </trkpt>
      <trkpt lat="44.73469" lon="4.91915">
        <ele>153.4</ele>
        <time>2014-05-01T09:46:20Z</time>
      </trkpt>
      <trkpt lat="44.73474" lon="4.91905">
        <ele>153.3</ele>
        <time>2014-05-01T09:46:22Z</time>
      </trkpt>
      <trkpt lat="44.73479" lon="4.91895">
        <ele>153.1</ele>
        <time>2014-05-01T09:46:24Z</time>
      </trkpt>
      <trkpt lat="44.73483" lon="4.91884">
        <ele>152.7</ele>
        <time>2014-05-01T09:46:26Z</time>
      </trkpt>
      <trkpt lat="44.73487" lon="4.91872">
        <ele>152.3</ele>
        <time>2014-05-01T09:46:28Z</time>
      </trkpt>
      <trkpt lat="44.7349" lon="4.91861">
        <ele>152</ele>
        <time>2014-05-01T09:46:30Z</time>
      </trkpt>
      <trkpt lat="44.73494" lon="4.91851">
        <ele>151.6</ele>
        <time>2014-05-01T09:46:32Z</time>
      </trkpt>
      <trkpt lat="44.73497" lon="4.91841">
        <ele>151.3</ele>
        <time>2014-05-01T09:46:34Z</time>
      </trkpt>
      <trkpt lat="44.73503" lon="4.91845">
        <ele>151.5</ele>
        <time>2014-05-01T09:46:38Z</time>
      </trkpt>
      <trkpt lat="44.73501" lon="4.91855">
        <ele>152</ele>
        <time>2014-05-01T09:46:40Z</time>
      </trkpt>
      <trkpt lat="44.73498" lon="4.91864">
        <ele>152.4</ele>
        <time>2014-05-01T09:46:42Z</time>
      </trkpt>
      <trkpt lat="44.73501" lon="4.91873">
        <ele>152.9</ele>
        <time>2014-05-01T09:46:44Z</time>
      </trkpt>
      <trkpt lat="44.73508" lon="4.91881">
        <ele>153.2</ele>
        <time>2014-05-01T09:46:46Z</time>
      </trkpt>
      <trkpt lat="44.73511" lon="4.91885">
        <ele>153.4</ele>
        <time>2014-05-01T09:46:47Z</time>
      </trkpt>
      <trkpt lat="44.73515" lon="4.91889">
        <ele>153.6</ele>
        <time>2014-05-01T09:46:48Z</time>
      </trkpt>
      <trkpt lat="44.73519" lon="4.91894">
        <ele>153.8</ele>
        <time>2014-05-01T09:46:49Z</time>
      </trkpt>
      <trkpt lat="44.73523" lon="4.91898">
        <ele>154</ele>
        <time>2014-05-01T09:46:50Z</time>
      </trkpt>
      <trkpt lat="44.73526" lon="4.91902">
        <ele>154.3</ele>
        <time>2014-05-01T09:46:51Z</time>
      </trkpt>
      <trkpt lat="44.73534" lon="4.91905">
        <ele>154.4</ele>
        <time>2014-05-01T09:46:53Z</time>
      </trkpt>
      <trkpt lat="44.73542" lon="4.91905">
        <ele>154.4</ele>
        <time>2014-05-01T09:46:55Z</time>
      </trkpt>
      <trkpt lat="44.73547" lon="4.91907">
        <ele>154.4</ele>
        <time>2014-05-01T09:46:57Z</time>
      </trkpt>
      <trkpt lat="44.73552" lon="4.91908">
        <ele>154.5</ele>
        <time>2014-05-01T09:46:59Z</time>
      </trkpt>
      <trkpt lat="44.73557" lon="4.91908">
        <ele>154.5</ele>
        <time>2014-05-01T09:47:01Z</time>
      </trkpt>
      <trkpt lat="44.73561" lon="4.91906">
        <ele>154.3</ele>
        <time>2014-05-01T09:47:04Z</time>
      </trkpt>
      <trkpt lat="44.73565" lon="4.91901">
        <ele>154.1</ele>
        <time>2014-05-01T09:47:06Z</time>
      </trkpt>
      <trkpt lat="44.73573" lon="4.91895">
        <ele>153.7</ele>
        <time>2014-05-01T09:47:08Z</time>
      </trkpt>
      <trkpt lat="44.73577" lon="4.91887">
        <ele>153.2</ele>
        <time>2014-05-01T09:47:10Z</time>
      </trkpt>
      <trkpt lat="44.73582" lon="4.9188">
        <ele>152.8</ele>
        <time>2014-05-01T09:47:12Z</time>
      </trkpt>
      <trkpt lat="44.73587" lon="4.91873">
        <ele>152.2</ele>
        <time>2014-05-01T09:47:14Z</time>
      </trkpt>
      <trkpt lat="44.73591" lon="4.91865">
        <ele>151.6</ele>
        <time>2014-05-01T09:47:16Z</time>
      </trkpt>
      <trkpt lat="44.73595" lon="4.91857">
        <ele>151</ele>
        <time>2014-05-01T09:47:18Z</time>
      </trkpt>
      <trkpt lat="44.736" lon="4.91847">
        <ele>150.3</ele>
        <time>2014-05-01T09:47:20Z</time>
      </trkpt>
      <trkpt lat="44.73605" lon="4.91838">
        <ele>149.7</ele>
        <time>2014-05-01T09:47:22Z</time>
      </trkpt>
      <trkpt lat="44.7361" lon="4.9183">
        <ele>149.3</ele>
        <time>2014-05-01T09:47:24Z</time>
      </trkpt>
      <trkpt lat="44.73614" lon="4.91822">
        <ele>149.1</ele>
        <time>2014-05-01T09:47:26Z</time>
      </trkpt>
      <trkpt lat="44.7362" lon="4.91813">
        <ele>149</ele>
        <time>2014-05-01T09:47:28Z</time>
      </trkpt>
      <trkpt lat="44.73624" lon="4.91803">
        <ele>148.8</ele>
        <time>2014-05-01T09:47:30Z</time>
      </trkpt>
      <trkpt lat="44.73627" lon="4.91794">
        <ele>148.7</ele>
        <time>2014-05-01T09:47:32Z</time>
      </trkpt>
      <trkpt lat="44.73632" lon="4.91784">
        <ele>148.7</ele>
        <time>2014-05-01T09:47:34Z</time>
      </trkpt>
      <trkpt lat="44.73636" lon="4.91775">
        <ele>148.7</ele>
        <time>2014-05-01T09:47:36Z</time>
      </trkpt>
      <trkpt lat="44.73645" lon="4.91757">
        <ele>148.7</ele>
        <time>2014-05-01T09:47:40Z</time>
      </trkpt>
      <trkpt lat="44.7365" lon="4.91748">
        <ele>148.9</ele>
        <time>2014-05-01T09:47:42Z</time>
      </trkpt>
      <trkpt lat="44.73656" lon="4.9174">
        <ele>149.3</ele>
        <time>2014-05-01T09:47:44Z</time>
      </trkpt>
      <trkpt lat="44.73661" lon="4.91731">
        <ele>149.8</ele>
        <time>2014-05-01T09:47:46Z</time>
      </trkpt>
      <trkpt lat="44.73667" lon="4.91722">
        <ele>150.4</ele>
        <time>2014-05-01T09:47:48Z</time>
      </trkpt>
      <trkpt lat="44.73672" lon="4.91713">
        <ele>150.7</ele>
        <time>2014-05-01T09:47:50Z</time>
      </trkpt>
      <trkpt lat="44.73678" lon="4.91704">
        <ele>150.9</ele>
        <time>2014-05-01T09:47:52Z</time>
      </trkpt>
      <trkpt lat="44.73683" lon="4.91695">
        <ele>151.2</ele>
        <time>2014-05-01T09:47:54Z</time>
      </trkpt>
      <trkpt lat="44.73688" lon="4.91687">
        <ele>151.3</ele>
        <time>2014-05-01T09:47:56Z</time>
      </trkpt>
      <trkpt lat="44.73693" lon="4.9168">
        <ele>151.5</ele>
        <time>2014-05-01T09:47:58Z</time>
      </trkpt>
      <trkpt lat="44.73698" lon="4.91672">
        <ele>151.6</ele>
        <time>2014-05-01T09:48:00Z</time>
      </trkpt>
      <trkpt lat="44.73702" lon="4.91666">
        <ele>151.7</ele>
        <time>2014-05-01T09:48:02Z</time>
      </trkpt>
      <trkpt lat="44.73705" lon="4.91659">
        <ele>151.4</ele>
        <time>2014-05-01T09:48:05Z</time>
      </trkpt>
      <trkpt lat="44.73707" lon="4.91652">
        <ele>151.2</ele>
        <time>2014-05-01T09:48:09Z</time>
      </trkpt>
      <trkpt lat="44.73709" lon="4.91646">
        <ele>151</ele>
        <time>2014-05-01T09:48:37Z</time>
      </trkpt>
      <trkpt lat="44.7371" lon="4.91639">
        <ele>150.8</ele>
        <time>2014-05-01T09:48:41Z</time>
      </trkpt>
      <trkpt lat="44.7371" lon="4.91626">
        <ele>150.4</ele>
        <time>2014-05-01T09:48:51Z</time>
      </trkpt>
      <trkpt lat="44.73714" lon="4.9162">
        <ele>150.2</ele>
        <time>2014-05-01T09:48:54Z</time>
      </trkpt>
      <trkpt lat="44.73716" lon="4.91613">
        <ele>149.9</ele>
        <time>2014-05-01T09:48:57Z</time>
      </trkpt>
      <trkpt lat="44.73719" lon="4.91605">
        <ele>149.6</ele>
        <time>2014-05-01T09:49:00Z</time>
      </trkpt>
      <trkpt lat="44.73722" lon="4.91596">
        <ele>149.3</ele>
        <time>2014-05-01T09:49:03Z</time>
      </trkpt>
      <trkpt lat="44.73723" lon="4.91589">
        <ele>149.1</ele>
        <time>2014-05-01T09:49:06Z</time>
      </trkpt>
      <trkpt lat="44.73726" lon="4.91583">
        <ele>148.8</ele>
        <time>2014-05-01T09:49:09Z</time>
      </trkpt>
      <trkpt lat="44.73731" lon="4.91579">
        <ele>148.7</ele>
        <time>2014-05-01T09:49:12Z</time>
      </trkpt>
      <trkpt lat="44.73737" lon="4.91575">
        <ele>148.5</ele>
        <time>2014-05-01T09:49:15Z</time>
      </trkpt>
      <trkpt lat="44.73741" lon="4.91571">
        <ele>148.3</ele>
        <time>2014-05-01T09:49:17Z</time>
      </trkpt>
      <trkpt lat="44.73747" lon="4.91567">
        <ele>148.1</ele>
        <time>2014-05-01T09:49:19Z</time>
      </trkpt>
      <trkpt lat="44.73752" lon="4.91561">
        <ele>147.9</ele>
        <time>2014-05-01T09:49:21Z</time>
      </trkpt>
      <trkpt lat="44.73757" lon="4.91554">
        <ele>147.6</ele>
        <time>2014-05-01T09:49:23Z</time>
      </trkpt>
      <trkpt lat="44.73763" lon="4.91548">
        <ele>147.3</ele>
        <time>2014-05-01T09:49:25Z</time>
      </trkpt>
      <trkpt lat="44.73767" lon="4.91542">
        <ele>147.1</ele>
        <time>2014-05-01T09:49:27Z</time>
      </trkpt>
      <trkpt lat="44.73773" lon="4.91536">
        <ele>146.8</ele>
        <time>2014-05-01T09:49:29Z</time>
      </trkpt>
      <trkpt lat="44.73778" lon="4.9153">
        <ele>146.5</ele>
        <time>2014-05-01T09:49:31Z</time>
      </trkpt>
      <trkpt lat="44.73783" lon="4.91523">
        <ele>146.1</ele>
        <time>2014-05-01T09:49:33Z</time>
      </trkpt>
      <trkpt lat="44.73788" lon="4.91516">
        <ele>145.8</ele>
        <time>2014-05-01T09:49:35Z</time>
      </trkpt>
      <trkpt lat="44.73793" lon="4.91508">
        <ele>145.5</ele>
        <time>2014-05-01T09:49:37Z</time>
      </trkpt>
      <trkpt lat="44.73798" lon="4.915">
        <ele>145.1</ele>
        <time>2014-05-01T09:49:39Z</time>
      </trkpt>
      <trkpt lat="44.73802" lon="4.91493">
        <ele>145.2</ele>
        <time>2014-05-01T09:49:41Z</time>
      </trkpt>
      <trkpt lat="44.73806" lon="4.91485">
        <ele>145.2</ele>
        <time>2014-05-01T09:49:43Z</time>
      </trkpt>
      <trkpt lat="44.73814" lon="4.91467">
        <ele>145.4</ele>
        <time>2014-05-01T09:49:47Z</time>
      </trkpt>
      <trkpt lat="44.73817" lon="4.91459">
        <ele>145.6</ele>
        <time>2014-05-01T09:49:49Z</time>
      </trkpt>
      <trkpt lat="44.7382" lon="4.91451">
        <ele>145.7</ele>
        <time>2014-05-01T09:49:51Z</time>
      </trkpt>
      <trkpt lat="44.73823" lon="4.91444">
        <ele>145.7</ele>
        <time>2014-05-01T09:49:53Z</time>
      </trkpt>
      <trkpt lat="44.73826" lon="4.91437">
        <ele>145.8</ele>
        <time>2014-05-01T09:49:55Z</time>
      </trkpt>
      <trkpt lat="44.73829" lon="4.91432">
        <ele>145.7</ele>
        <time>2014-05-01T09:49:57Z</time>
      </trkpt>
      <trkpt lat="44.73835" lon="4.9143">
        <ele>145.5</ele>
        <time>2014-05-01T09:49:59Z</time>
      </trkpt>
      <trkpt lat="44.73843" lon="4.91428">
        <ele>145.3</ele>
        <time>2014-05-01T09:50:01Z</time>
      </trkpt>
      <trkpt lat="44.73851" lon="4.91426">
        <ele>145.1</ele>
        <time>2014-05-01T09:50:03Z</time>
      </trkpt>
      <trkpt lat="44.7386" lon="4.91423">
        <ele>144.9</ele>
        <time>2014-05-01T09:50:05Z</time>
      </trkpt>
      <trkpt lat="44.73868" lon="4.91419">
        <ele>144.7</ele>
        <time>2014-05-01T09:50:07Z</time>
      </trkpt>
      <trkpt lat="44.73877" lon="4.91414">
        <ele>144.6</ele>
        <time>2014-05-01T09:50:09Z</time>
      </trkpt>
      <trkpt lat="44.73881" lon="4.91412">
        <ele>144.6</ele>
        <time>2014-05-01T09:50:10Z</time>
      </trkpt>
      <trkpt lat="44.73885" lon="4.9141">
        <ele>144.6</ele>
        <time>2014-05-01T09:50:11Z</time>
      </trkpt>
      <trkpt lat="44.7389" lon="4.91407">
        <ele>144.5</ele>
        <time>2014-05-01T09:50:12Z</time>
      </trkpt>
      <trkpt lat="44.73894" lon="4.91405">
        <ele>144.5</ele>
        <time>2014-05-01T09:50:13Z</time>
      </trkpt>
      <trkpt lat="44.73902" lon="4.91401">
        <ele>144.5</ele>
        <time>2014-05-01T09:50:15Z</time>
      </trkpt>
      <trkpt lat="44.73909" lon="4.91396">
        <ele>144.6</ele>
        <time>2014-05-01T09:50:17Z</time>
      </trkpt>
      <trkpt lat="44.73913" lon="4.91393">
        <ele>144.6</ele>
        <time>2014-05-01T09:50:18Z</time>
      </trkpt>
      <trkpt lat="44.73917" lon="4.9139">
        <ele>144.6</ele>
        <time>2014-05-01T09:50:19Z</time>
      </trkpt>
      <trkpt lat="44.73921" lon="4.91386">
        <ele>144.8</ele>
        <time>2014-05-01T09:50:20Z</time>
      </trkpt>
      <trkpt lat="44.73926" lon="4.91383">
        <ele>144.9</ele>
        <time>2014-05-01T09:50:21Z</time>
      </trkpt>
      <trkpt lat="44.73931" lon="4.91379">
        <ele>144.9</ele>
        <time>2014-05-01T09:50:22Z</time>
      </trkpt>
      <trkpt lat="44.73938" lon="4.91375">
        <ele>145</ele>
        <time>2014-05-01T09:50:23Z</time>
      </trkpt>
      <trkpt lat="44.73943" lon="4.91372">
        <ele>145.1</ele>
        <time>2014-05-01T09:50:24Z</time>
      </trkpt>
      <trkpt lat="44.73949" lon="4.91369">
        <ele>145.1</ele>
        <time>2014-05-01T09:50:25Z</time>
      </trkpt>
      <trkpt lat="44.73955" lon="4.91367">
        <ele>145</ele>
        <time>2014-05-01T09:50:26Z</time>
      </trkpt>
      <trkpt lat="44.73961" lon="4.91364">
        <ele>145</ele>
        <time>2014-05-01T09:50:27Z</time>
      </trkpt>
      <trkpt lat="44.73968" lon="4.91362">
        <ele>144.9</ele>
        <time>2014-05-01T09:50:28Z</time>
      </trkpt>
      <trkpt lat="44.73974" lon="4.91361">
        <ele>144.7</ele>
        <time>2014-05-01T09:50:29Z</time>
      </trkpt>
      <trkpt lat="44.73981" lon="4.9136">
        <ele>144.6</ele>
        <time>2014-05-01T09:50:30Z</time>
      </trkpt>
      <trkpt lat="44.73989" lon="4.9136">
        <ele>144.4</ele>
        <time>2014-05-01T09:50:31Z</time>
      </trkpt>
      <trkpt lat="44.73996" lon="4.91361">
        <ele>144.1</ele>
        <time>2014-05-01T09:50:32Z</time>
      </trkpt>
      <trkpt lat="44.74004" lon="4.91363">
        <ele>143.8</ele>
        <time>2014-05-01T09:50:33Z</time>
      </trkpt>
      <trkpt lat="44.74012" lon="4.91365">
        <ele>143.5</ele>
        <time>2014-05-01T09:50:34Z</time>
      </trkpt>
      <trkpt lat="44.7402" lon="4.91367">
        <ele>143.2</ele>
        <time>2014-05-01T09:50:35Z</time>
      </trkpt>
      <trkpt lat="44.74028" lon="4.91369">
        <ele>143</ele>
        <time>2014-05-01T09:50:36Z</time>
      </trkpt>
      <trkpt lat="44.74036" lon="4.91369">
        <ele>142.7</ele>
        <time>2014-05-01T09:50:37Z</time>
      </trkpt>
      <trkpt lat="44.74044" lon="4.91369">
        <ele>142.5</ele>
        <time>2014-05-01T09:50:38Z</time>
      </trkpt>
      <trkpt lat="44.74052" lon="4.91368">
        <ele>142.3</ele>
        <time>2014-05-01T09:50:39Z</time>
      </trkpt>
      <trkpt lat="44.74059" lon="4.91366">
        <ele>142.1</ele>
        <time>2014-05-01T09:50:40Z</time>
      </trkpt>
      <trkpt lat="44.74066" lon="4.91362">
        <ele>141.9</ele>
        <time>2014-05-01T09:50:41Z</time>
      </trkpt>
      <trkpt lat="44.74073" lon="4.91359">
        <ele>141.6</ele>
        <time>2014-05-01T09:50:42Z</time>
      </trkpt>
      <trkpt lat="44.7408" lon="4.91354">
        <ele>141.4</ele>
        <time>2014-05-01T09:50:43Z</time>
      </trkpt>
      <trkpt lat="44.74086" lon="4.9135">
        <ele>141.1</ele>
        <time>2014-05-01T09:50:44Z</time>
      </trkpt>
      <trkpt lat="44.74091" lon="4.91345">
        <ele>141</ele>
        <time>2014-05-01T09:50:45Z</time>
      </trkpt>
      <trkpt lat="44.74103" lon="4.91337">
        <ele>140.8</ele>
        <time>2014-05-01T09:50:47Z</time>
      </trkpt>
      <trkpt lat="44.74109" lon="4.91334">
        <ele>140.7</ele>
        <time>2014-05-01T09:50:48Z</time>
      </trkpt>
      <trkpt lat="44.74115" lon="4.91332">
        <ele>140.6</ele>
        <time>2014-05-01T09:50:49Z</time>
      </trkpt>
      <trkpt lat="44.74121" lon="4.9133">
        <ele>140.6</ele>
        <time>2014-05-01T09:50:50Z</time>
      </trkpt>
      <trkpt lat="44.74127" lon="4.91329">
        <ele>140.5</ele>
        <time>2014-05-01T09:50:51Z</time>
      </trkpt>
      <trkpt lat="44.74134" lon="4.91329">
        <ele>140.4</ele>
        <time>2014-05-01T09:50:52Z</time>
      </trkpt>
      <trkpt lat="44.7414" lon="4.91328">
        <ele>140.4</ele>
        <time>2014-05-01T09:50:53Z</time>
      </trkpt>
      <trkpt lat="44.74147" lon="4.91328">
        <ele>140.3</ele>
        <time>2014-05-01T09:50:54Z</time>
      </trkpt>
      <trkpt lat="44.74153" lon="4.91327">
        <ele>140.2</ele>
        <time>2014-05-01T09:50:55Z</time>
      </trkpt>
      <trkpt lat="44.7416" lon="4.91326">
        <ele>140.1</ele>
        <time>2014-05-01T09:50:56Z</time>
      </trkpt>
      <trkpt lat="44.74166" lon="4.91325">
        <ele>140</ele>
        <time>2014-05-01T09:50:57Z</time>
      </trkpt>
      <trkpt lat="44.74172" lon="4.91324">
        <ele>139.9</ele>
        <time>2014-05-01T09:50:58Z</time>
      </trkpt>
      <trkpt lat="44.74179" lon="4.91322">
        <ele>139.8</ele>
        <time>2014-05-01T09:50:59Z</time>
      </trkpt>
      <trkpt lat="44.74185" lon="4.9132">
        <ele>139.6</ele>
        <time>2014-05-01T09:51:00Z</time>
      </trkpt>
      <trkpt lat="44.74191" lon="4.91317">
        <ele>139.5</ele>
        <time>2014-05-01T09:51:01Z</time>
      </trkpt>
      <trkpt lat="44.74196" lon="4.91313">
        <ele>139.5</ele>
        <time>2014-05-01T09:51:02Z</time>
      </trkpt>
      <trkpt lat="44.74202" lon="4.91309">
        <ele>139.4</ele>
        <time>2014-05-01T09:51:03Z</time>
      </trkpt>
      <trkpt lat="44.74207" lon="4.91305">
        <ele>139.4</ele>
        <time>2014-05-01T09:51:04Z</time>
      </trkpt>
      <trkpt lat="44.74212" lon="4.91301">
        <ele>139.4</ele>
        <time>2014-05-01T09:51:05Z</time>
      </trkpt>
      <trkpt lat="44.74217" lon="4.91296">
        <ele>139.3</ele>
        <time>2014-05-01T09:51:06Z</time>
      </trkpt>
      <trkpt lat="44.74222" lon="4.91291">
        <ele>139.4</ele>
        <time>2014-05-01T09:51:07Z</time>
      </trkpt>
      <trkpt lat="44.74227" lon="4.91287">
        <ele>139.4</ele>
        <time>2014-05-01T09:51:08Z</time>
      </trkpt>
      <trkpt lat="44.74232" lon="4.91283">
        <ele>139.4</ele>
        <time>2014-05-01T09:51:09Z</time>
      </trkpt>
      <trkpt lat="44.74237" lon="4.91279">
        <ele>139.4</ele>
        <time>2014-05-01T09:51:10Z</time>
      </trkpt>
      <trkpt lat="44.74241" lon="4.91275">
        <ele>139.5</ele>
        <time>2014-05-01T09:51:11Z</time>
      </trkpt>
      <trkpt lat="44.74244" lon="4.9127">
        <ele>139.6</ele>
        <time>2014-05-01T09:51:12Z</time>
      </trkpt>
      <trkpt lat="44.74251" lon="4.91269">
        <ele>139.5</ele>
        <time>2014-05-01T09:51:14Z</time>
      </trkpt>
      <trkpt lat="44.74252" lon="4.91277">
        <ele>139.3</ele>
        <time>2014-05-01T09:51:17Z</time>
      </trkpt>
      <trkpt lat="44.74249" lon="4.91284">
        <ele>139.2</ele>
        <time>2014-05-01T09:51:19Z</time>
      </trkpt>
      <trkpt lat="44.74245" lon="4.91293">
        <ele>139</ele>
        <time>2014-05-01T09:51:21Z</time>
      </trkpt>
      <trkpt lat="44.74241" lon="4.91304">
        <ele>138.9</ele>
        <time>2014-05-01T09:51:23Z</time>
      </trkpt>
      <trkpt lat="44.74237" lon="4.91314">
        <ele>138.7</ele>
        <time>2014-05-01T09:51:25Z</time>
      </trkpt>
      <trkpt lat="44.74233" lon="4.91325">
        <ele>138.6</ele>
        <time>2014-05-01T09:51:27Z</time>
      </trkpt>
      <trkpt lat="44.74231" lon="4.91331">
        <ele>138.5</ele>
        <time>2014-05-01T09:51:28Z</time>
      </trkpt>
      <trkpt lat="44.74229" lon="4.91337">
        <ele>138.5</ele>
        <time>2014-05-01T09:51:29Z</time>
      </trkpt>
      <trkpt lat="44.74226" lon="4.91343">
        <ele>138.6</ele>
        <time>2014-05-01T09:51:30Z</time>
      </trkpt>
      <trkpt lat="44.74223" lon="4.91354">
        <ele>138.7</ele>
        <time>2014-05-01T09:51:32Z</time>
      </trkpt>
      <trkpt lat="44.74219" lon="4.91365">
        <ele>138.8</ele>
        <time>2014-05-01T09:51:34Z</time>
      </trkpt>
      <trkpt lat="44.74214" lon="4.91375">
        <ele>138.9</ele>
        <time>2014-05-01T09:51:36Z</time>
      </trkpt>
      <trkpt lat="44.74209" lon="4.91385">
        <ele>139</ele>
        <time>2014-05-01T09:51:38Z</time>
      </trkpt>
      <trkpt lat="44.74205" lon="4.91396">
        <ele>139</ele>
        <time>2014-05-01T09:51:40Z</time>
      </trkpt>
      <trkpt lat="44.74201" lon="4.91406">
        <ele>139</ele>
        <time>2014-05-01T09:51:42Z</time>
      </trkpt>
      <trkpt lat="44.74197" lon="4.91417">
        <ele>139</ele>
        <time>2014-05-01T09:51:44Z</time>
      </trkpt>
      <trkpt lat="44.74194" lon="4.91422">
        <ele>139.2</ele>
        <time>2014-05-01T09:51:45Z</time>
      </trkpt>
      <trkpt lat="44.74192" lon="4.91428">
        <ele>139.5</ele>
        <time>2014-05-01T09:51:46Z</time>
      </trkpt>
      <trkpt lat="44.74189" lon="4.91435">
        <ele>139.8</ele>
        <time>2014-05-01T09:51:47Z</time>
      </trkpt>
      <trkpt lat="44.74185" lon="4.91447">
        <ele>140.2</ele>
        <time>2014-05-01T09:51:49Z</time>
      </trkpt>
      <trkpt lat="44.74183" lon="4.91454">
        <ele>140.5</ele>
        <time>2014-05-01T09:51:50Z</time>
      </trkpt>
      <trkpt lat="44.7418" lon="4.9146">
        <ele>140.7</ele>
        <time>2014-05-01T09:51:51Z</time>
      </trkpt>
      <trkpt lat="44.74179" lon="4.91466">
        <ele>140.9</ele>
        <time>2014-05-01T09:51:52Z</time>
      </trkpt>
      <trkpt lat="44.74174" lon="4.91476">
        <ele>141.3</ele>
        <time>2014-05-01T09:51:54Z</time>
      </trkpt>
      <trkpt lat="44.74172" lon="4.91482">
        <ele>141.4</ele>
        <time>2014-05-01T09:51:55Z</time>
      </trkpt>
      <trkpt lat="44.74165" lon="4.9149">
        <ele>141.6</ele>
        <time>2014-05-01T09:51:57Z</time>
      </trkpt>
      <trkpt lat="44.74161" lon="4.91493">
        <ele>141.8</ele>
        <time>2014-05-01T09:51:58Z</time>
      </trkpt>
      <trkpt lat="44.74157" lon="4.91496">
        <ele>141.9</ele>
        <time>2014-05-01T09:51:59Z</time>
      </trkpt>
      <trkpt lat="44.74153" lon="4.91498">
        <ele>142.1</ele>
        <time>2014-05-01T09:52:00Z</time>
      </trkpt>
      <trkpt lat="44.74148" lon="4.91501">
        <ele>142.2</ele>
        <time>2014-05-01T09:52:01Z</time>
      </trkpt>
      <trkpt lat="44.74144" lon="4.91504">
        <ele>142.3</ele>
        <time>2014-05-01T09:52:02Z</time>
      </trkpt>
      <trkpt lat="44.74139" lon="4.91506">
        <ele>142.3</ele>
        <time>2014-05-01T09:52:03Z</time>
      </trkpt>
      <trkpt lat="44.74135" lon="4.91509">
        <ele>142.3</ele>
        <time>2014-05-01T09:52:04Z</time>
      </trkpt>
      <trkpt lat="44.74131" lon="4.91512">
        <ele>142.4</ele>
        <time>2014-05-01T09:52:05Z</time>
      </trkpt>
      <trkpt lat="44.74128" lon="4.91517">
        <ele>142.4</ele>
        <time>2014-05-01T09:52:06Z</time>
      </trkpt>
      <trkpt lat="44.74125" lon="4.91522">
        <ele>142.4</ele>
        <time>2014-05-01T09:52:07Z</time>
      </trkpt>
      <trkpt lat="44.74123" lon="4.91529">
        <ele>142.3</ele>
        <time>2014-05-01T09:52:08Z</time>
      </trkpt>
      <trkpt lat="44.74123" lon="4.91535">
        <ele>142.3</ele>
        <time>2014-05-01T09:52:09Z</time>
      </trkpt>
      <trkpt lat="44.74124" lon="4.91542">
        <ele>142.3</ele>
        <time>2014-05-01T09:52:10Z</time>
      </trkpt>
      <trkpt lat="44.74125" lon="4.91549">
        <ele>142.2</ele>
        <time>2014-05-01T09:52:11Z</time>
      </trkpt>
      <trkpt lat="44.74128" lon="4.91556">
        <ele>142.2</ele>
        <time>2014-05-01T09:52:12Z</time>
      </trkpt>
      <trkpt lat="44.7413" lon="4.91563">
        <ele>142.1</ele>
        <time>2014-05-01T09:52:13Z</time>
      </trkpt>
      <trkpt lat="44.74132" lon="4.91573">
        <ele>142.1</ele>
        <time>2014-05-01T09:52:15Z</time>
      </trkpt>
      <trkpt lat="44.74133" lon="4.91581">
        <ele>142</ele>
        <time>2014-05-01T09:52:17Z</time>
      </trkpt>
      <trkpt lat="44.74134" lon="4.91589">
        <ele>142</ele>
        <time>2014-05-01T09:52:19Z</time>
      </trkpt>
      <trkpt lat="44.74135" lon="4.91597">
        <ele>141.9</ele>
        <time>2014-05-01T09:52:21Z</time>
      </trkpt>
      <trkpt lat="44.74136" lon="4.91604">
        <ele>141.8</ele>
        <time>2014-05-01T09:52:24Z</time>
      </trkpt>
      <trkpt lat="44.74137" lon="4.91613">
        <ele>141.8</ele>
        <time>2014-05-01T09:52:26Z</time>
      </trkpt>
      <trkpt lat="44.74142" lon="4.91616">
        <ele>141.7</ele>
        <time>2014-05-01T09:52:28Z</time>
      </trkpt>
      <trkpt lat="44.74148" lon="4.91616">
        <ele>141.7</ele>
        <time>2014-05-01T09:52:30Z</time>
      </trkpt>
      <trkpt lat="44.74155" lon="4.91616">
        <ele>141.7</ele>
        <time>2014-05-01T09:52:32Z</time>
      </trkpt>
      <trkpt lat="44.7416" lon="4.9162">
        <ele>141.6</ele>
        <time>2014-05-01T09:52:34Z</time>
      </trkpt>
      <trkpt lat="44.74162" lon="4.91628">
        <ele>141.5</ele>
        <time>2014-05-01T09:52:36Z</time>
      </trkpt>
      <trkpt lat="44.7416" lon="4.91637">
        <ele>141.4</ele>
        <time>2014-05-01T09:52:38Z</time>
      </trkpt>
      <trkpt lat="44.74157" lon="4.91647">
        <ele>141.3</ele>
        <time>2014-05-01T09:52:40Z</time>
      </trkpt>
      <trkpt lat="44.74154" lon="4.91657">
        <ele>141.3</ele>
        <time>2014-05-01T09:52:42Z</time>
      </trkpt>
      <trkpt lat="44.74152" lon="4.91668">
        <ele>141.2</ele>
        <time>2014-05-01T09:52:44Z</time>
      </trkpt>
      <trkpt lat="44.74149" lon="4.91679">
        <ele>141.1</ele>
        <time>2014-05-01T09:52:46Z</time>
      </trkpt>
      <trkpt lat="44.74146" lon="4.91691">
        <ele>141.1</ele>
        <time>2014-05-01T09:52:48Z</time>
      </trkpt>
      <trkpt lat="44.74143" lon="4.91702">
        <ele>141.1</ele>
        <time>2014-05-01T09:52:50Z</time>
      </trkpt>
      <trkpt lat="44.74138" lon="4.91726">
        <ele>141.1</ele>
        <time>2014-05-01T09:52:54Z</time>
      </trkpt>
      <trkpt lat="44.74135" lon="4.91737">
        <ele>141.2</ele>
        <time>2014-05-01T09:52:56Z</time>
      </trkpt>
      <trkpt lat="44.74132" lon="4.91749">
        <ele>141.2</ele>
        <time>2014-05-01T09:52:58Z</time>
      </trkpt>
      <trkpt lat="44.7413" lon="4.9176">
        <ele>141.1</ele>
        <time>2014-05-01T09:53:00Z</time>
      </trkpt>
      <trkpt lat="44.74127" lon="4.91771">
        <ele>140.9</ele>
        <time>2014-05-01T09:53:02Z</time>
      </trkpt>
      <trkpt lat="44.74125" lon="4.91782">
        <ele>140.8</ele>
        <time>2014-05-01T09:53:04Z</time>
      </trkpt>
      <trkpt lat="44.74123" lon="4.91792">
        <ele>140.6</ele>
        <time>2014-05-01T09:53:06Z</time>
      </trkpt>
      <trkpt lat="44.7412" lon="4.918">
        <ele>140.4</ele>
        <time>2014-05-01T09:53:08Z</time>
      </trkpt>
      <trkpt lat="44.74118" lon="4.91809">
        <ele>140.2</ele>
        <time>2014-05-01T09:53:10Z</time>
      </trkpt>
      <trkpt lat="44.74117" lon="4.91816">
        <ele>140</ele>
        <time>2014-05-01T09:53:12Z</time>
      </trkpt>
      <trkpt lat="44.74116" lon="4.91824">
        <ele>139.9</ele>
        <time>2014-05-01T09:53:14Z</time>
      </trkpt>
      <trkpt lat="44.74118" lon="4.9183">
        <ele>139.7</ele>
        <time>2014-05-01T09:53:17Z</time>
      </trkpt>
      <trkpt lat="44.74121" lon="4.91835">
        <ele>139.5</ele>
        <time>2014-05-01T09:53:21Z</time>
      </trkpt>
      <trkpt lat="44.74127" lon="4.91839">
        <ele>139.4</ele>
        <time>2014-05-01T09:53:24Z</time>
      </trkpt>
      <trkpt lat="44.74134" lon="4.91839">
        <ele>139.3</ele>
        <time>2014-05-01T09:53:26Z</time>
      </trkpt>
      <trkpt lat="44.74143" lon="4.91836">
        <ele>139.3</ele>
        <time>2014-05-01T09:53:28Z</time>
      </trkpt>
      <trkpt lat="44.74147" lon="4.91835">
        <ele>139.2</ele>
        <time>2014-05-01T09:53:29Z</time>
      </trkpt>
      <trkpt lat="44.74152" lon="4.91833">
        <ele>139.2</ele>
        <time>2014-05-01T09:53:30Z</time>
      </trkpt>
      <trkpt lat="44.74158" lon="4.91831">
        <ele>139.1</ele>
        <time>2014-05-01T09:53:31Z</time>
      </trkpt>
      <trkpt lat="44.74163" lon="4.91829">
        <ele>139.1</ele>
        <time>2014-05-01T09:53:32Z</time>
      </trkpt>
      <trkpt lat="44.74169" lon="4.91827">
        <ele>139.1</ele>
        <time>2014-05-01T09:53:33Z</time>
      </trkpt>
      <trkpt lat="44.74174" lon="4.91825">
        <ele>139.1</ele>
        <time>2014-05-01T09:53:34Z</time>
      </trkpt>
      <trkpt lat="44.7418" lon="4.91823">
        <ele>139.1</ele>
        <time>2014-05-01T09:53:35Z</time>
      </trkpt>
      <trkpt lat="44.74186" lon="4.91821">
        <ele>139.1</ele>
        <time>2014-05-01T09:53:36Z</time>
      </trkpt>
      <trkpt lat="44.74191" lon="4.91819">
        <ele>139.1</ele>
        <time>2014-05-01T09:53:37Z</time>
      </trkpt>
      <trkpt lat="44.74197" lon="4.91817">
        <ele>139.1</ele>
        <time>2014-05-01T09:53:38Z</time>
      </trkpt>
      <trkpt lat="44.74204" lon="4.91815">
        <ele>139.1</ele>
        <time>2014-05-01T09:53:39Z</time>
      </trkpt>
      <trkpt lat="44.7421" lon="4.91813">
        <ele>139.1</ele>
        <time>2014-05-01T09:53:40Z</time>
      </trkpt>
      <trkpt lat="44.74216" lon="4.91811">
        <ele>139.1</ele>
        <time>2014-05-01T09:53:41Z</time>
      </trkpt>
      <trkpt lat="44.74222" lon="4.91809">
        <ele>139.1</ele>
        <time>2014-05-01T09:53:42Z</time>
      </trkpt>
      <trkpt lat="44.74228" lon="4.91806">
        <ele>139.1</ele>
        <time>2014-05-01T09:53:43Z</time>
      </trkpt>
      <trkpt lat="44.74234" lon="4.91804">
        <ele>139.1</ele>
        <time>2014-05-01T09:53:44Z</time>
      </trkpt>
      <trkpt lat="44.74241" lon="4.91802">
        <ele>139</ele>
        <time>2014-05-01T09:53:45Z</time>
      </trkpt>
      <trkpt lat="44.74247" lon="4.918">
        <ele>139</ele>
        <time>2014-05-01T09:53:46Z</time>
      </trkpt>
      <trkpt lat="44.74253" lon="4.91798">
        <ele>139</ele>
        <time>2014-05-01T09:53:47Z</time>
      </trkpt>
      <trkpt lat="44.74259" lon="4.91796">
        <ele>138.9</ele>
        <time>2014-05-01T09:53:48Z</time>
      </trkpt>
      <trkpt lat="44.74265" lon="4.91794">
        <ele>138.8</ele>
        <time>2014-05-01T09:53:49Z</time>
      </trkpt>
      <trkpt lat="44.74271" lon="4.91791">
        <ele>138.7</ele>
        <time>2014-05-01T09:53:50Z</time>
      </trkpt>
      <trkpt lat="44.74277" lon="4.91789">
        <ele>138.7</ele>
        <time>2014-05-01T09:53:51Z</time>
      </trkpt>
      <trkpt lat="44.74283" lon="4.91787">
        <ele>138.6</ele>
        <time>2014-05-01T09:53:52Z</time>
      </trkpt>
      <trkpt lat="44.74295" lon="4.91784">
        <ele>138.3</ele>
        <time>2014-05-01T09:53:54Z</time>
      </trkpt>
      <trkpt lat="44.74301" lon="4.91782">
        <ele>138.2</ele>
        <time>2014-05-01T09:53:55Z</time>
      </trkpt>
      <trkpt lat="44.74307" lon="4.9178">
        <ele>138.1</ele>
        <time>2014-05-01T09:53:56Z</time>
      </trkpt>
      <trkpt lat="44.74313" lon="4.91779">
        <ele>138</ele>
        <time>2014-05-01T09:53:57Z</time>
      </trkpt>
      <trkpt lat="44.7432" lon="4.91777">
        <ele>137.9</ele>
        <time>2014-05-01T09:53:58Z</time>
      </trkpt>
      <trkpt lat="44.74326" lon="4.91776">
        <ele>137.7</ele>
        <time>2014-05-01T09:53:59Z</time>
      </trkpt>
      <trkpt lat="44.74333" lon="4.91775">
        <ele>137.6</ele>
        <time>2014-05-01T09:54:00Z</time>
      </trkpt>
      <trkpt lat="44.74339" lon="4.91774">
        <ele>137.7</ele>
        <time>2014-05-01T09:54:01Z</time>
      </trkpt>
      <trkpt lat="44.74346" lon="4.91773">
        <ele>137.8</ele>
        <time>2014-05-01T09:54:02Z</time>
      </trkpt>
      <trkpt lat="44.74352" lon="4.91773">
        <ele>138</ele>
        <time>2014-05-01T09:54:03Z</time>
      </trkpt>
      <trkpt lat="44.74358" lon="4.91772">
        <ele>138.1</ele>
        <time>2014-05-01T09:54:04Z</time>
      </trkpt>
      <trkpt lat="44.74365" lon="4.91772">
        <ele>138.3</ele>
        <time>2014-05-01T09:54:05Z</time>
      </trkpt>
      <trkpt lat="44.74371" lon="4.91772">
        <ele>138.4</ele>
        <time>2014-05-01T09:54:06Z</time>
      </trkpt>
      <trkpt lat="44.74378" lon="4.91771">
        <ele>138.6</ele>
        <time>2014-05-01T09:54:07Z</time>
      </trkpt>
      <trkpt lat="44.74384" lon="4.91771">
        <ele>138.7</ele>
        <time>2014-05-01T09:54:08Z</time>
      </trkpt>
      <trkpt lat="44.74391" lon="4.91771">
        <ele>138.9</ele>
        <time>2014-05-01T09:54:09Z</time>
      </trkpt>
      <trkpt lat="44.74397" lon="4.91772">
        <ele>139</ele>
        <time>2014-05-01T09:54:10Z</time>
      </trkpt>
      <trkpt lat="44.74404" lon="4.91772">
        <ele>139.2</ele>
        <time>2014-05-01T09:54:11Z</time>
      </trkpt>
      <trkpt lat="44.74411" lon="4.91773">
        <ele>139.4</ele>
        <time>2014-05-01T09:54:12Z</time>
      </trkpt>
      <trkpt lat="44.74418" lon="4.91774">
        <ele>139.6</ele>
        <time>2014-05-01T09:54:13Z</time>
      </trkpt>
      <trkpt lat="44.74425" lon="4.91775">
        <ele>139.6</ele>
        <time>2014-05-01T09:54:14Z</time>
      </trkpt>
      <trkpt lat="44.74431" lon="4.91776">
        <ele>139.6</ele>
        <time>2014-05-01T09:54:15Z</time>
      </trkpt>
      <trkpt lat="44.74438" lon="4.91777">
        <ele>139.7</ele>
        <time>2014-05-01T09:54:16Z</time>
      </trkpt>
      <trkpt lat="44.74444" lon="4.91779">
        <ele>139.7</ele>
        <time>2014-05-01T09:54:17Z</time>
      </trkpt>
      <trkpt lat="44.74451" lon="4.9178">
        <ele>139.7</ele>
        <time>2014-05-01T09:54:18Z</time>
      </trkpt>
      <trkpt lat="44.74457" lon="4.91782">
        <ele>139.8</ele>
        <time>2014-05-01T09:54:19Z</time>
      </trkpt>
      <trkpt lat="44.74463" lon="4.91784">
        <ele>139.8</ele>
        <time>2014-05-01T09:54:20Z</time>
      </trkpt>
      <trkpt lat="44.7447" lon="4.91785">
        <ele>139.8</ele>
        <time>2014-05-01T09:54:21Z</time>
      </trkpt>
      <trkpt lat="44.74476" lon="4.91787">
        <ele>139.9</ele>
        <time>2014-05-01T09:54:22Z</time>
      </trkpt>
      <trkpt lat="44.74482" lon="4.91789">
        <ele>139.9</ele>
        <time>2014-05-01T09:54:23Z</time>
      </trkpt>
      <trkpt lat="44.74488" lon="4.91792">
        <ele>140</ele>
        <time>2014-05-01T09:54:24Z</time>
      </trkpt>
      <trkpt lat="44.74494" lon="4.91795">
        <ele>140.1</ele>
        <time>2014-05-01T09:54:25Z</time>
      </trkpt>
      <trkpt lat="44.745" lon="4.91797">
        <ele>140.1</ele>
        <time>2014-05-01T09:54:26Z</time>
      </trkpt>
      <trkpt lat="44.74505" lon="4.918">
        <ele>140.2</ele>
        <time>2014-05-01T09:54:27Z</time>
      </trkpt>
      <trkpt lat="44.74511" lon="4.91803">
        <ele>140.2</ele>
        <time>2014-05-01T09:54:28Z</time>
      </trkpt>
      <trkpt lat="44.74517" lon="4.91806">
        <ele>140.2</ele>
        <time>2014-05-01T09:54:29Z</time>
      </trkpt>
      <trkpt lat="44.74522" lon="4.91809">
        <ele>140.2</ele>
        <time>2014-05-01T09:54:30Z</time>
      </trkpt>
      <trkpt lat="44.74528" lon="4.91811">
        <ele>140.2</ele>
        <time>2014-05-01T09:54:31Z</time>
      </trkpt>
      <trkpt lat="44.74534" lon="4.91814">
        <ele>140.2</ele>
        <time>2014-05-01T09:54:32Z</time>
      </trkpt>
      <trkpt lat="44.74539" lon="4.91817">
        <ele>140.2</ele>
        <time>2014-05-01T09:54:33Z</time>
      </trkpt>
      <trkpt lat="44.74544" lon="4.9182">
        <ele>140.2</ele>
        <time>2014-05-01T09:54:34Z</time>
      </trkpt>
      <trkpt lat="44.7455" lon="4.91823">
        <ele>140.2</ele>
        <time>2014-05-01T09:54:35Z</time>
      </trkpt>
      <trkpt lat="44.74555" lon="4.91825">
        <ele>140.2</ele>
        <time>2014-05-01T09:54:36Z</time>
      </trkpt>
      <trkpt lat="44.74561" lon="4.91828">
        <ele>140.2</ele>
        <time>2014-05-01T09:54:37Z</time>
      </trkpt>
      <trkpt lat="44.74567" lon="4.91831">
        <ele>140.2</ele>
        <time>2014-05-01T09:54:38Z</time>
      </trkpt>
      <trkpt lat="44.74572" lon="4.91834">
        <ele>140.1</ele>
        <time>2014-05-01T09:54:39Z</time>
      </trkpt>
      <trkpt lat="44.74577" lon="4.91837">
        <ele>140.2</ele>
        <time>2014-05-01T09:54:40Z</time>
      </trkpt>
      <trkpt lat="44.74583" lon="4.91839">
        <ele>140.2</ele>
        <time>2014-05-01T09:54:41Z</time>
      </trkpt>
      <trkpt lat="44.74588" lon="4.91842">
        <ele>140.3</ele>
        <time>2014-05-01T09:54:42Z</time>
      </trkpt>
      <trkpt lat="44.74593" lon="4.91845">
        <ele>140.4</ele>
        <time>2014-05-01T09:54:43Z</time>
      </trkpt>
      <trkpt lat="44.74598" lon="4.91847">
        <ele>140.5</ele>
        <time>2014-05-01T09:54:44Z</time>
      </trkpt>
      <trkpt lat="44.74603" lon="4.9185">
        <ele>140.6</ele>
        <time>2014-05-01T09:54:45Z</time>
      </trkpt>
      <trkpt lat="44.74609" lon="4.91852">
        <ele>140.6</ele>
        <time>2014-05-01T09:54:46Z</time>
      </trkpt>
      <trkpt lat="44.74614" lon="4.91855">
        <ele>140.7</ele>
        <time>2014-05-01T09:54:47Z</time>
      </trkpt>
      <trkpt lat="44.7462" lon="4.91858">
        <ele>140.7</ele>
        <time>2014-05-01T09:54:48Z</time>
      </trkpt>
      <trkpt lat="44.74625" lon="4.9186">
        <ele>140.7</ele>
        <time>2014-05-01T09:54:49Z</time>
      </trkpt>
      <trkpt lat="44.7463" lon="4.91863">
        <ele>140.6</ele>
        <time>2014-05-01T09:54:50Z</time>
      </trkpt>
      <trkpt lat="44.74636" lon="4.91865">
        <ele>140.6</ele>
        <time>2014-05-01T09:54:51Z</time>
      </trkpt>
      <trkpt lat="44.74641" lon="4.91868">
        <ele>140.5</ele>
        <time>2014-05-01T09:54:52Z</time>
      </trkpt>
      <trkpt lat="44.74646" lon="4.9187">
        <ele>140.4</ele>
        <time>2014-05-01T09:54:53Z</time>
      </trkpt>
      <trkpt lat="44.74652" lon="4.91872">
        <ele>140.3</ele>
        <time>2014-05-01T09:54:54Z</time>
      </trkpt>
      <trkpt lat="44.74662" lon="4.91877">
        <ele>140.1</ele>
        <time>2014-05-01T09:54:56Z</time>
      </trkpt>
      <trkpt lat="44.74667" lon="4.91879">
        <ele>139.9</ele>
        <time>2014-05-01T09:54:57Z</time>
      </trkpt>
      <trkpt lat="44.74671" lon="4.91882">
        <ele>139.9</ele>
        <time>2014-05-01T09:54:58Z</time>
      </trkpt>
      <trkpt lat="44.74676" lon="4.91884">
        <ele>139.9</ele>
        <time>2014-05-01T09:54:59Z</time>
      </trkpt>
      <trkpt lat="44.74681" lon="4.91886">
        <ele>139.9</ele>
        <time>2014-05-01T09:55:00Z</time>
      </trkpt>
      <trkpt lat="44.74686" lon="4.91888">
        <ele>139.9</ele>
        <time>2014-05-01T09:55:01Z</time>
      </trkpt>
      <trkpt lat="44.74691" lon="4.9189">
        <ele>139.9</ele>
        <time>2014-05-01T09:55:02Z</time>
      </trkpt>
      <trkpt lat="44.74695" lon="4.91892">
        <ele>140</ele>
        <time>2014-05-01T09:55:03Z</time>
      </trkpt>
      <trkpt lat="44.747" lon="4.91894">
        <ele>140</ele>
        <time>2014-05-01T09:55:04Z</time>
      </trkpt>
      <trkpt lat="44.74705" lon="4.91896">
        <ele>140.1</ele>
        <time>2014-05-01T09:55:05Z</time>
      </trkpt>
      <trkpt lat="44.7471" lon="4.91898">
        <ele>140.1</ele>
        <time>2014-05-01T09:55:06Z</time>
      </trkpt>
      <trkpt lat="44.74715" lon="4.91901">
        <ele>140.2</ele>
        <time>2014-05-01T09:55:07Z</time>
      </trkpt>
      <trkpt lat="44.7472" lon="4.91903">
        <ele>140.3</ele>
        <time>2014-05-01T09:55:08Z</time>
      </trkpt>
      <trkpt lat="44.74724" lon="4.91905">
        <ele>140.4</ele>
        <time>2014-05-01T09:55:09Z</time>
      </trkpt>
      <trkpt lat="44.74728" lon="4.91908">
        <ele>140.5</ele>
        <time>2014-05-01T09:55:10Z</time>
      </trkpt>
      <trkpt lat="44.74733" lon="4.9191">
        <ele>140.6</ele>
        <time>2014-05-01T09:55:11Z</time>
      </trkpt>
      <trkpt lat="44.74737" lon="4.91912">
        <ele>140.7</ele>
        <time>2014-05-01T09:55:12Z</time>
      </trkpt>
      <trkpt lat="44.74745" lon="4.91916">
        <ele>140.9</ele>
        <time>2014-05-01T09:55:14Z</time>
      </trkpt>
      <trkpt lat="44.74754" lon="4.9192">
        <ele>141</ele>
        <time>2014-05-01T09:55:16Z</time>
      </trkpt>
      <trkpt lat="44.74762" lon="4.91924">
        <ele>140.9</ele>
        <time>2014-05-01T09:55:18Z</time>
      </trkpt>
      <trkpt lat="44.7477" lon="4.91928">
        <ele>140.8</ele>
        <time>2014-05-01T09:55:20Z</time>
      </trkpt>
      <trkpt lat="44.74778" lon="4.91932">
        <ele>140.7</ele>
        <time>2014-05-01T09:55:22Z</time>
      </trkpt>
      <trkpt lat="44.74786" lon="4.91936">
        <ele>140.7</ele>
        <time>2014-05-01T09:55:24Z</time>
      </trkpt>
      <trkpt lat="44.7479" lon="4.91938">
        <ele>140.6</ele>
        <time>2014-05-01T09:55:25Z</time>
      </trkpt>
      <trkpt lat="44.74799" lon="4.91942">
        <ele>140.6</ele>
        <time>2014-05-01T09:55:27Z</time>
      </trkpt>
      <trkpt lat="44.74803" lon="4.91944">
        <ele>140.6</ele>
        <time>2014-05-01T09:55:28Z</time>
      </trkpt>
      <trkpt lat="44.74808" lon="4.91946">
        <ele>140.5</ele>
        <time>2014-05-01T09:55:29Z</time>
      </trkpt>
      <trkpt lat="44.74812" lon="4.91949">
        <ele>140.5</ele>
        <time>2014-05-01T09:55:30Z</time>
      </trkpt>
      <trkpt lat="44.74817" lon="4.91951">
        <ele>140.5</ele>
        <time>2014-05-01T09:55:31Z</time>
      </trkpt>
      <trkpt lat="44.74822" lon="4.91954">
        <ele>140.5</ele>
        <time>2014-05-01T09:55:32Z</time>
      </trkpt>
      <trkpt lat="44.74827" lon="4.91957">
        <ele>140.5</ele>
        <time>2014-05-01T09:55:33Z</time>
      </trkpt>
      <trkpt lat="44.74832" lon="4.9196">
        <ele>140.5</ele>
        <time>2014-05-01T09:55:34Z</time>
      </trkpt>
      <trkpt lat="44.74838" lon="4.91962">
        <ele>140.4</ele>
        <time>2014-05-01T09:55:35Z</time>
      </trkpt>
      <trkpt lat="44.74843" lon="4.91965">
        <ele>140.2</ele>
        <time>2014-05-01T09:55:36Z</time>
      </trkpt>
      <trkpt lat="44.74848" lon="4.91968">
        <ele>140.1</ele>
        <time>2014-05-01T09:55:37Z</time>
      </trkpt>
      <trkpt lat="44.74853" lon="4.91971">
        <ele>140</ele>
        <time>2014-05-01T09:55:38Z</time>
      </trkpt>
      <trkpt lat="44.74857" lon="4.91974">
        <ele>139.8</ele>
        <time>2014-05-01T09:55:39Z</time>
      </trkpt>
      <trkpt lat="44.74862" lon="4.91977">
        <ele>139.7</ele>
        <time>2014-05-01T09:55:40Z</time>
      </trkpt>
      <trkpt lat="44.74866" lon="4.9198">
        <ele>139.6</ele>
        <time>2014-05-01T09:55:41Z</time>
      </trkpt>
      <trkpt lat="44.74871" lon="4.91982">
        <ele>139.4</ele>
        <time>2014-05-01T09:55:42Z</time>
      </trkpt>
      <trkpt lat="44.74876" lon="4.91984">
        <ele>139.2</ele>
        <time>2014-05-01T09:55:43Z</time>
      </trkpt>
      <trkpt lat="44.74881" lon="4.91985">
        <ele>139.1</ele>
        <time>2014-05-01T09:55:44Z</time>
      </trkpt>
      <trkpt lat="44.74886" lon="4.91987">
        <ele>138.9</ele>
        <time>2014-05-01T09:55:45Z</time>
      </trkpt>
      <trkpt lat="44.74891" lon="4.91988">
        <ele>138.8</ele>
        <time>2014-05-01T09:55:46Z</time>
      </trkpt>
      <trkpt lat="44.74895" lon="4.91989">
        <ele>138.6</ele>
        <time>2014-05-01T09:55:47Z</time>
      </trkpt>
      <trkpt lat="44.749" lon="4.9199">
        <ele>138.5</ele>
        <time>2014-05-01T09:55:48Z</time>
      </trkpt>
      <trkpt lat="44.74905" lon="4.91992">
        <ele>138.3</ele>
        <time>2014-05-01T09:55:49Z</time>
      </trkpt>
      <trkpt lat="44.7491" lon="4.91993">
        <ele>138.2</ele>
        <time>2014-05-01T09:55:50Z</time>
      </trkpt>
      <trkpt lat="44.74914" lon="4.91994">
        <ele>138</ele>
        <time>2014-05-01T09:55:51Z</time>
      </trkpt>
      <trkpt lat="44.74919" lon="4.91995">
        <ele>137.9</ele>
        <time>2014-05-01T09:55:52Z</time>
      </trkpt>
      <trkpt lat="44.74923" lon="4.91996">
        <ele>137.9</ele>
        <time>2014-05-01T09:55:53Z</time>
      </trkpt>
      <trkpt lat="44.74928" lon="4.91997">
        <ele>138</ele>
        <time>2014-05-01T09:55:54Z</time>
      </trkpt>
      <trkpt lat="44.74933" lon="4.91998">
        <ele>138</ele>
        <time>2014-05-01T09:55:55Z</time>
      </trkpt>
      <trkpt lat="44.74938" lon="4.91999">
        <ele>138</ele>
        <time>2014-05-01T09:55:56Z</time>
      </trkpt>
      <trkpt lat="44.74948" lon="4.92001">
        <ele>138</ele>
        <time>2014-05-01T09:55:58Z</time>
      </trkpt>
      <trkpt lat="44.74953" lon="4.92003">
        <ele>138</ele>
        <time>2014-05-01T09:55:59Z</time>
      </trkpt>
      <trkpt lat="44.74958" lon="4.92004">
        <ele>138</ele>
        <time>2014-05-01T09:56:00Z</time>
      </trkpt>
      <trkpt lat="44.74964" lon="4.92005">
        <ele>138</ele>
        <time>2014-05-01T09:56:01Z</time>
      </trkpt>
      <trkpt lat="44.74969" lon="4.92006">
        <ele>138</ele>
        <time>2014-05-01T09:56:02Z</time>
      </trkpt>
      <trkpt lat="44.74974" lon="4.92007">
        <ele>137.9</ele>
        <time>2014-05-01T09:56:03Z</time>
      </trkpt>
      <trkpt lat="44.7498" lon="4.92008">
        <ele>137.9</ele>
        <time>2014-05-01T09:56:04Z</time>
      </trkpt>
      <trkpt lat="44.74985" lon="4.92009">
        <ele>137.9</ele>
        <time>2014-05-01T09:56:05Z</time>
      </trkpt>
      <trkpt lat="44.7499" lon="4.9201">
        <ele>137.9</ele>
        <time>2014-05-01T09:56:06Z</time>
      </trkpt>
      <trkpt lat="44.74995" lon="4.92012">
        <ele>137.9</ele>
        <time>2014-05-01T09:56:07Z</time>
      </trkpt>
      <trkpt lat="44.75001" lon="4.92013">
        <ele>137.9</ele>
        <time>2014-05-01T09:56:08Z</time>
      </trkpt>
      <trkpt lat="44.75006" lon="4.92014">
        <ele>137.9</ele>
        <time>2014-05-01T09:56:09Z</time>
      </trkpt>
      <trkpt lat="44.75011" lon="4.92015">
        <ele>138</ele>
        <time>2014-05-01T09:56:10Z</time>
      </trkpt>
      <trkpt lat="44.75016" lon="4.92016">
        <ele>138</ele>
        <time>2014-05-01T09:56:11Z</time>
      </trkpt>
      <trkpt lat="44.75021" lon="4.92017">
        <ele>138.1</ele>
        <time>2014-05-01T09:56:12Z</time>
      </trkpt>
      <trkpt lat="44.75026" lon="4.92018">
        <ele>138.1</ele>
        <time>2014-05-01T09:56:13Z</time>
      </trkpt>
      <trkpt lat="44.75031" lon="4.92018">
        <ele>138.2</ele>
        <time>2014-05-01T09:56:14Z</time>
      </trkpt>
      <trkpt lat="44.75036" lon="4.92019">
        <ele>138.2</ele>
        <time>2014-05-01T09:56:15Z</time>
      </trkpt>
      <trkpt lat="44.75041" lon="4.9202">
        <ele>138.3</ele>
        <time>2014-05-01T09:56:16Z</time>
      </trkpt>
      <trkpt lat="44.75046" lon="4.92021">
        <ele>138.3</ele>
        <time>2014-05-01T09:56:17Z</time>
      </trkpt>
      <trkpt lat="44.75052" lon="4.92022">
        <ele>138.4</ele>
        <time>2014-05-01T09:56:18Z</time>
      </trkpt>
      <trkpt lat="44.75057" lon="4.92023">
        <ele>138.4</ele>
        <time>2014-05-01T09:56:19Z</time>
      </trkpt>
      <trkpt lat="44.75062" lon="4.92024">
        <ele>138.5</ele>
        <time>2014-05-01T09:56:20Z</time>
      </trkpt>
      <trkpt lat="44.75067" lon="4.92025">
        <ele>138.5</ele>
        <time>2014-05-01T09:56:21Z</time>
      </trkpt>
      <trkpt lat="44.75072" lon="4.92025">
        <ele>138.6</ele>
        <time>2014-05-01T09:56:22Z</time>
      </trkpt>
      <trkpt lat="44.75077" lon="4.92027">
        <ele>138.6</ele>
        <time>2014-05-01T09:56:23Z</time>
      </trkpt>
      <trkpt lat="44.75082" lon="4.92027">
        <ele>138.7</ele>
        <time>2014-05-01T09:56:24Z</time>
      </trkpt>
      <trkpt lat="44.75088" lon="4.92028">
        <ele>138.7</ele>
        <time>2014-05-01T09:56:25Z</time>
      </trkpt>
      <trkpt lat="44.75093" lon="4.9203">
        <ele>138.7</ele>
        <time>2014-05-01T09:56:26Z</time>
      </trkpt>
      <trkpt lat="44.75098" lon="4.92031">
        <ele>138.7</ele>
        <time>2014-05-01T09:56:27Z</time>
      </trkpt>
      <trkpt lat="44.75103" lon="4.92032">
        <ele>138.7</ele>
        <time>2014-05-01T09:56:28Z</time>
      </trkpt>
      <trkpt lat="44.75108" lon="4.92032">
        <ele>138.7</ele>
        <time>2014-05-01T09:56:29Z</time>
      </trkpt>
      <trkpt lat="44.75113" lon="4.92033">
        <ele>138.7</ele>
        <time>2014-05-01T09:56:30Z</time>
      </trkpt>
      <trkpt lat="44.75117" lon="4.92034">
        <ele>138.7</ele>
        <time>2014-05-01T09:56:31Z</time>
      </trkpt>
      <trkpt lat="44.75122" lon="4.92035">
        <ele>138.7</ele>
        <time>2014-05-01T09:56:32Z</time>
      </trkpt>
      <trkpt lat="44.75127" lon="4.92036">
        <ele>138.7</ele>
        <time>2014-05-01T09:56:33Z</time>
      </trkpt>
      <trkpt lat="44.75132" lon="4.92037">
        <ele>138.7</ele>
        <time>2014-05-01T09:56:34Z</time>
      </trkpt>
      <trkpt lat="44.75137" lon="4.92037">
        <ele>138.8</ele>
        <time>2014-05-01T09:56:35Z</time>
      </trkpt>
      <trkpt lat="44.75141" lon="4.92038">
        <ele>138.8</ele>
        <time>2014-05-01T09:56:36Z</time>
      </trkpt>
      <trkpt lat="44.75146" lon="4.92038">
        <ele>138.8</ele>
        <time>2014-05-01T09:56:37Z</time>
      </trkpt>
      <trkpt lat="44.75151" lon="4.92039">
        <ele>138.9</ele>
        <time>2014-05-01T09:56:38Z</time>
      </trkpt>
      <trkpt lat="44.75156" lon="4.9204">
        <ele>138.9</ele>
        <time>2014-05-01T09:56:39Z</time>
      </trkpt>
      <trkpt lat="44.7516" lon="4.92041">
        <ele>138.9</ele>
        <time>2014-05-01T09:56:40Z</time>
      </trkpt>
      <trkpt lat="44.75165" lon="4.92042">
        <ele>139</ele>
        <time>2014-05-01T09:56:41Z</time>
      </trkpt>
      <trkpt lat="44.7517" lon="4.92042">
        <ele>138.9</ele>
        <time>2014-05-01T09:56:42Z</time>
      </trkpt>
      <trkpt lat="44.75175" lon="4.92043">
        <ele>138.9</ele>
        <time>2014-05-01T09:56:43Z</time>
      </trkpt>
      <trkpt lat="44.75179" lon="4.92044">
        <ele>138.8</ele>
        <time>2014-05-01T09:56:44Z</time>
      </trkpt>
      <trkpt lat="44.75184" lon="4.92045">
        <ele>138.7</ele>
        <time>2014-05-01T09:56:45Z</time>
      </trkpt>
      <trkpt lat="44.75189" lon="4.92045">
        <ele>138.7</ele>
        <time>2014-05-01T09:56:46Z</time>
      </trkpt>
      <trkpt lat="44.75193" lon="4.92046">
        <ele>138.6</ele>
        <time>2014-05-01T09:56:47Z</time>
      </trkpt>
      <trkpt lat="44.75198" lon="4.92047">
        <ele>138.5</ele>
        <time>2014-05-01T09:56:48Z</time>
      </trkpt>
      <trkpt lat="44.75203" lon="4.92048">
        <ele>138.4</ele>
        <time>2014-05-01T09:56:49Z</time>
      </trkpt>
      <trkpt lat="44.75208" lon="4.92049">
        <ele>138.4</ele>
        <time>2014-05-01T09:56:50Z</time>
      </trkpt>
      <trkpt lat="44.75212" lon="4.9205">
        <ele>138.3</ele>
        <time>2014-05-01T09:56:51Z</time>
      </trkpt>
      <trkpt lat="44.75217" lon="4.9205">
        <ele>138.2</ele>
        <time>2014-05-01T09:56:52Z</time>
      </trkpt>
      <trkpt lat="44.75222" lon="4.92051">
        <ele>138.2</ele>
        <time>2014-05-01T09:56:53Z</time>
      </trkpt>
      <trkpt lat="44.75227" lon="4.92052">
        <ele>138.1</ele>
        <time>2014-05-01T09:56:54Z</time>
      </trkpt>
      <trkpt lat="44.75231" lon="4.92052">
        <ele>138</ele>
        <time>2014-05-01T09:56:55Z</time>
      </trkpt>
      <trkpt lat="44.75236" lon="4.92053">
        <ele>137.9</ele>
        <time>2014-05-01T09:56:56Z</time>
      </trkpt>
      <trkpt lat="44.75241" lon="4.92054">
        <ele>137.8</ele>
        <time>2014-05-01T09:56:57Z</time>
      </trkpt>
      <trkpt lat="44.75246" lon="4.92054">
        <ele>137.7</ele>
        <time>2014-05-01T09:56:58Z</time>
      </trkpt>
      <trkpt lat="44.75256" lon="4.92055">
        <ele>137.7</ele>
        <time>2014-05-01T09:57:00Z</time>
      </trkpt>
      <trkpt lat="44.75261" lon="4.92056">
        <ele>137.8</ele>
        <time>2014-05-01T09:57:01Z</time>
      </trkpt>
      <trkpt lat="44.75266" lon="4.92056">
        <ele>137.9</ele>
        <time>2014-05-01T09:57:02Z</time>
      </trkpt>
      <trkpt lat="44.75271" lon="4.92056">
        <ele>137.9</ele>
        <time>2014-05-01T09:57:03Z</time>
      </trkpt>
      <trkpt lat="44.75275" lon="4.92057">
        <ele>138</ele>
        <time>2014-05-01T09:57:04Z</time>
      </trkpt>
      <trkpt lat="44.7528" lon="4.92058">
        <ele>138.1</ele>
        <time>2014-05-01T09:57:05Z</time>
      </trkpt>
      <trkpt lat="44.75285" lon="4.92058">
        <ele>138.1</ele>
        <time>2014-05-01T09:57:06Z</time>
      </trkpt>
      <trkpt lat="44.7529" lon="4.92059">
        <ele>138.2</ele>
        <time>2014-05-01T09:57:07Z</time>
      </trkpt>
      <trkpt lat="44.75295" lon="4.9206">
        <ele>138.3</ele>
        <time>2014-05-01T09:57:08Z</time>
      </trkpt>
      <trkpt lat="44.753" lon="4.9206">
        <ele>138.3</ele>
        <time>2014-05-01T09:57:09Z</time>
      </trkpt>
      <trkpt lat="44.75305" lon="4.92061">
        <ele>138.4</ele>
        <time>2014-05-01T09:57:10Z</time>
      </trkpt>
      <trkpt lat="44.7531" lon="4.92062">
        <ele>138.5</ele>
        <time>2014-05-01T09:57:11Z</time>
      </trkpt>
      <trkpt lat="44.75315" lon="4.92062">
        <ele>138.5</ele>
        <time>2014-05-01T09:57:12Z</time>
      </trkpt>
      <trkpt lat="44.7532" lon="4.92063">
        <ele>138.6</ele>
        <time>2014-05-01T09:57:13Z</time>
      </trkpt>
      <trkpt lat="44.75325" lon="4.92064">
        <ele>138.6</ele>
        <time>2014-05-01T09:57:14Z</time>
      </trkpt>
      <trkpt lat="44.75329" lon="4.92064">
        <ele>138.7</ele>
        <time>2014-05-01T09:57:15Z</time>
      </trkpt>
      <trkpt lat="44.75334" lon="4.92065">
        <ele>138.8</ele>
        <time>2014-05-01T09:57:16Z</time>
      </trkpt>
      <trkpt lat="44.75339" lon="4.92065">
        <ele>138.8</ele>
        <time>2014-05-01T09:57:17Z</time>
      </trkpt>
      <trkpt lat="44.75344" lon="4.92065">
        <ele>138.8</ele>
        <time>2014-05-01T09:57:18Z</time>
      </trkpt>
      <trkpt lat="44.75349" lon="4.92066">
        <ele>138.8</ele>
        <time>2014-05-01T09:57:19Z</time>
      </trkpt>
      <trkpt lat="44.75354" lon="4.92066">
        <ele>138.8</ele>
        <time>2014-05-01T09:57:20Z</time>
      </trkpt>
      <trkpt lat="44.75359" lon="4.92066">
        <ele>138.9</ele>
        <time>2014-05-01T09:57:21Z</time>
      </trkpt>
      <trkpt lat="44.75363" lon="4.92067">
        <ele>138.9</ele>
        <time>2014-05-01T09:57:22Z</time>
      </trkpt>
      <trkpt lat="44.75368" lon="4.92067">
        <ele>138.9</ele>
        <time>2014-05-01T09:57:23Z</time>
      </trkpt>
      <trkpt lat="44.75373" lon="4.92068">
        <ele>138.9</ele>
        <time>2014-05-01T09:57:24Z</time>
      </trkpt>
      <trkpt lat="44.75378" lon="4.92068">
        <ele>138.9</ele>
        <time>2014-05-01T09:57:25Z</time>
      </trkpt>
      <trkpt lat="44.75383" lon="4.92068">
        <ele>138.9</ele>
        <time>2014-05-01T09:57:26Z</time>
      </trkpt>
      <trkpt lat="44.75388" lon="4.92068">
        <ele>138.9</ele>
        <time>2014-05-01T09:57:27Z</time>
      </trkpt>
      <trkpt lat="44.75393" lon="4.92068">
        <ele>138.9</ele>
        <time>2014-05-01T09:57:28Z</time>
      </trkpt>
      <trkpt lat="44.75398" lon="4.92068">
        <ele>139</ele>
        <time>2014-05-01T09:57:29Z</time>
      </trkpt>
      <trkpt lat="44.75403" lon="4.92068">
        <ele>139</ele>
        <time>2014-05-01T09:57:30Z</time>
      </trkpt>
      <trkpt lat="44.75408" lon="4.92067">
        <ele>139</ele>
        <time>2014-05-01T09:57:31Z</time>
      </trkpt>
      <trkpt lat="44.75413" lon="4.92066">
        <ele>139</ele>
        <time>2014-05-01T09:57:32Z</time>
      </trkpt>
      <trkpt lat="44.75418" lon="4.92065">
        <ele>139</ele>
        <time>2014-05-01T09:57:33Z</time>
      </trkpt>
      <trkpt lat="44.75423" lon="4.92064">
        <ele>139</ele>
        <time>2014-05-01T09:57:34Z</time>
      </trkpt>
      <trkpt lat="44.75428" lon="4.92063">
        <ele>139</ele>
        <time>2014-05-01T09:57:35Z</time>
      </trkpt>
      <trkpt lat="44.75433" lon="4.92062">
        <ele>139.1</ele>
        <time>2014-05-01T09:57:36Z</time>
      </trkpt>
      <trkpt lat="44.75438" lon="4.92061">
        <ele>139.1</ele>
        <time>2014-05-01T09:57:37Z</time>
      </trkpt>
      <trkpt lat="44.75443" lon="4.92059">
        <ele>139.1</ele>
        <time>2014-05-01T09:57:38Z</time>
      </trkpt>
      <trkpt lat="44.75448" lon="4.92058">
        <ele>139.1</ele>
        <time>2014-05-01T09:57:39Z</time>
      </trkpt>
      <trkpt lat="44.75453" lon="4.92057">
        <ele>139.1</ele>
        <time>2014-05-01T09:57:40Z</time>
      </trkpt>
      <trkpt lat="44.75458" lon="4.92055">
        <ele>139.2</ele>
        <time>2014-05-01T09:57:41Z</time>
      </trkpt>
      <trkpt lat="44.75463" lon="4.92054">
        <ele>139.2</ele>
        <time>2014-05-01T09:57:42Z</time>
      </trkpt>
      <trkpt lat="44.75468" lon="4.92053">
        <ele>139.2</ele>
        <time>2014-05-01T09:57:43Z</time>
      </trkpt>
      <trkpt lat="44.75473" lon="4.92052">
        <ele>139.3</ele>
        <time>2014-05-01T09:57:44Z</time>
      </trkpt>
      <trkpt lat="44.75478" lon="4.92051">
        <ele>139.3</ele>
        <time>2014-05-01T09:57:45Z</time>
      </trkpt>
      <trkpt lat="44.75483" lon="4.92049">
        <ele>139.3</ele>
        <time>2014-05-01T09:57:46Z</time>
      </trkpt>
      <trkpt lat="44.75488" lon="4.92048">
        <ele>139.4</ele>
        <time>2014-05-01T09:57:47Z</time>
      </trkpt>
      <trkpt lat="44.75493" lon="4.92047">
        <ele>139.4</ele>
        <time>2014-05-01T09:57:48Z</time>
      </trkpt>
      <trkpt lat="44.75498" lon="4.92046">
        <ele>139.4</ele>
        <time>2014-05-01T09:57:49Z</time>
      </trkpt>
      <trkpt lat="44.75503" lon="4.92045">
        <ele>139.4</ele>
        <time>2014-05-01T09:57:50Z</time>
      </trkpt>
      <trkpt lat="44.75508" lon="4.92044">
        <ele>139.3</ele>
        <time>2014-05-01T09:57:51Z</time>
      </trkpt>
      <trkpt lat="44.75513" lon="4.92043">
        <ele>139.3</ele>
        <time>2014-05-01T09:57:52Z</time>
      </trkpt>
      <trkpt lat="44.75517" lon="4.92042">
        <ele>139.2</ele>
        <time>2014-05-01T09:57:53Z</time>
      </trkpt>
      <trkpt lat="44.75522" lon="4.92041">
        <ele>139.1</ele>
        <time>2014-05-01T09:57:54Z</time>
      </trkpt>
      <trkpt lat="44.75527" lon="4.9204">
        <ele>139</ele>
        <time>2014-05-01T09:57:55Z</time>
      </trkpt>
      <trkpt lat="44.75532" lon="4.92038">
        <ele>139</ele>
        <time>2014-05-01T09:57:56Z</time>
      </trkpt>
      <trkpt lat="44.75537" lon="4.92037">
        <ele>138.9</ele>
        <time>2014-05-01T09:57:57Z</time>
      </trkpt>
      <trkpt lat="44.75541" lon="4.92037">
        <ele>138.8</ele>
        <time>2014-05-01T09:57:58Z</time>
      </trkpt>
      <trkpt lat="44.75546" lon="4.92036">
        <ele>138.7</ele>
        <time>2014-05-01T09:57:59Z</time>
      </trkpt>
      <trkpt lat="44.75551" lon="4.92035">
        <ele>138.6</ele>
        <time>2014-05-01T09:58:00Z</time>
      </trkpt>
      <trkpt lat="44.75561" lon="4.92033">
        <ele>138.4</ele>
        <time>2014-05-01T09:58:02Z</time>
      </trkpt>
      <trkpt lat="44.75567" lon="4.92033">
        <ele>138.3</ele>
        <time>2014-05-01T09:58:03Z</time>
      </trkpt>
      <trkpt lat="44.75572" lon="4.92032">
        <ele>138.2</ele>
        <time>2014-05-01T09:58:04Z</time>
      </trkpt>
      <trkpt lat="44.75577" lon="4.92031">
        <ele>138.1</ele>
        <time>2014-05-01T09:58:05Z</time>
      </trkpt>
      <trkpt lat="44.75582" lon="4.9203">
        <ele>138</ele>
        <time>2014-05-01T09:58:06Z</time>
      </trkpt>
      <trkpt lat="44.75587" lon="4.92029">
        <ele>138</ele>
        <time>2014-05-01T09:58:07Z</time>
      </trkpt>
      <trkpt lat="44.75592" lon="4.92028">
        <ele>137.9</ele>
        <time>2014-05-01T09:58:08Z</time>
      </trkpt>
      <trkpt lat="44.75597" lon="4.92027">
        <ele>137.8</ele>
        <time>2014-05-01T09:58:09Z</time>
      </trkpt>
      <trkpt lat="44.75602" lon="4.92027">
        <ele>137.8</ele>
        <time>2014-05-01T09:58:10Z</time>
      </trkpt>
      <trkpt lat="44.75608" lon="4.92026">
        <ele>137.7</ele>
        <time>2014-05-01T09:58:11Z</time>
      </trkpt>
      <trkpt lat="44.75613" lon="4.92025">
        <ele>137.6</ele>
        <time>2014-05-01T09:58:12Z</time>
      </trkpt>
      <trkpt lat="44.75618" lon="4.92024">
        <ele>137.6</ele>
        <time>2014-05-01T09:58:13Z</time>
      </trkpt>
      <trkpt lat="44.75623" lon="4.92023">
        <ele>137.5</ele>
        <time>2014-05-01T09:58:14Z</time>
      </trkpt>
      <trkpt lat="44.75628" lon="4.92023">
        <ele>137.5</ele>
        <time>2014-05-01T09:58:15Z</time>
      </trkpt>
      <trkpt lat="44.75633" lon="4.92022">
        <ele>137.4</ele>
        <time>2014-05-01T09:58:16Z</time>
      </trkpt>
      <trkpt lat="44.75638" lon="4.92022">
        <ele>137.3</ele>
        <time>2014-05-01T09:58:17Z</time>
      </trkpt>
      <trkpt lat="44.75643" lon="4.92022">
        <ele>137.3</ele>
        <time>2014-05-01T09:58:18Z</time>
      </trkpt>
      <trkpt lat="44.75649" lon="4.92021">
        <ele>137.2</ele>
        <time>2014-05-01T09:58:19Z</time>
      </trkpt>
      <trkpt lat="44.75654" lon="4.92021">
        <ele>137.1</ele>
        <time>2014-05-01T09:58:20Z</time>
      </trkpt>
      <trkpt lat="44.7566" lon="4.9202">
        <ele>137.1</ele>
        <time>2014-05-01T09:58:21Z</time>
      </trkpt>
      <trkpt lat="44.75666" lon="4.9202">
        <ele>137</ele>
        <time>2014-05-01T09:58:22Z</time>
      </trkpt>
      <trkpt lat="44.75671" lon="4.9202">
        <ele>137.1</ele>
        <time>2014-05-01T09:58:23Z</time>
      </trkpt>
      <trkpt lat="44.75677" lon="4.92019">
        <ele>137.1</ele>
        <time>2014-05-01T09:58:24Z</time>
      </trkpt>
      <trkpt lat="44.75682" lon="4.92019">
        <ele>137.2</ele>
        <time>2014-05-01T09:58:25Z</time>
      </trkpt>
      <trkpt lat="44.75688" lon="4.92018">
        <ele>137.3</ele>
        <time>2014-05-01T09:58:26Z</time>
      </trkpt>
      <trkpt lat="44.75693" lon="4.92018">
        <ele>137.4</ele>
        <time>2014-05-01T09:58:27Z</time>
      </trkpt>
      <trkpt lat="44.75699" lon="4.92017">
        <ele>137.5</ele>
        <time>2014-05-01T09:58:28Z</time>
      </trkpt>
      <trkpt lat="44.75704" lon="4.92017">
        <ele>137.5</ele>
        <time>2014-05-01T09:58:29Z</time>
      </trkpt>
      <trkpt lat="44.75709" lon="4.92017">
        <ele>137.6</ele>
        <time>2014-05-01T09:58:30Z</time>
      </trkpt>
      <trkpt lat="44.75715" lon="4.92016">
        <ele>137.7</ele>
        <time>2014-05-01T09:58:31Z</time>
      </trkpt>
      <trkpt lat="44.7572" lon="4.92016">
        <ele>137.8</ele>
        <time>2014-05-01T09:58:32Z</time>
      </trkpt>
      <trkpt lat="44.75725" lon="4.92015">
        <ele>137.8</ele>
        <time>2014-05-01T09:58:33Z</time>
      </trkpt>
      <trkpt lat="44.75731" lon="4.92015">
        <ele>137.9</ele>
        <time>2014-05-01T09:58:34Z</time>
      </trkpt>
      <trkpt lat="44.75736" lon="4.92015">
        <ele>138</ele>
        <time>2014-05-01T09:58:35Z</time>
      </trkpt>
      <trkpt lat="44.75741" lon="4.92015">
        <ele>138.1</ele>
        <time>2014-05-01T09:58:36Z</time>
      </trkpt>
      <trkpt lat="44.75747" lon="4.92015">
        <ele>138.1</ele>
        <time>2014-05-01T09:58:37Z</time>
      </trkpt>
      <trkpt lat="44.75752" lon="4.92015">
        <ele>138.2</ele>
        <time>2014-05-01T09:58:38Z</time>
      </trkpt>
      <trkpt lat="44.75758" lon="4.92015">
        <ele>138.2</ele>
        <time>2014-05-01T09:58:39Z</time>
      </trkpt>
      <trkpt lat="44.75763" lon="4.92014">
        <ele>138.1</ele>
        <time>2014-05-01T09:58:40Z</time>
      </trkpt>
      <trkpt lat="44.75768" lon="4.92014">
        <ele>138.1</ele>
        <time>2014-05-01T09:58:41Z</time>
      </trkpt>
      <trkpt lat="44.75773" lon="4.92013">
        <ele>138.1</ele>
        <time>2014-05-01T09:58:42Z</time>
      </trkpt>
      <trkpt lat="44.75778" lon="4.92013">
        <ele>138.1</ele>
        <time>2014-05-01T09:58:43Z</time>
      </trkpt>
      <trkpt lat="44.75784" lon="4.92012">
        <ele>138.1</ele>
        <time>2014-05-01T09:58:44Z</time>
      </trkpt>
      <trkpt lat="44.75789" lon="4.92012">
        <ele>138.1</ele>
        <time>2014-05-01T09:58:45Z</time>
      </trkpt>
      <trkpt lat="44.75794" lon="4.92012">
        <ele>138.1</ele>
        <time>2014-05-01T09:58:46Z</time>
      </trkpt>
      <trkpt lat="44.75799" lon="4.92012">
        <ele>138.1</ele>
        <time>2014-05-01T09:58:47Z</time>
      </trkpt>
      <trkpt lat="44.75805" lon="4.92012">
        <ele>138</ele>
        <time>2014-05-01T09:58:48Z</time>
      </trkpt>
      <trkpt lat="44.7581" lon="4.92011">
        <ele>138</ele>
        <time>2014-05-01T09:58:49Z</time>
      </trkpt>
      <trkpt lat="44.75816" lon="4.92011">
        <ele>138</ele>
        <time>2014-05-01T09:58:50Z</time>
      </trkpt>
      <trkpt lat="44.75822" lon="4.9201">
        <ele>138</ele>
        <time>2014-05-01T09:58:51Z</time>
      </trkpt>
      <trkpt lat="44.75827" lon="4.92009">
        <ele>138</ele>
        <time>2014-05-01T09:58:52Z</time>
      </trkpt>
      <trkpt lat="44.75833" lon="4.92009">
        <ele>138</ele>
        <time>2014-05-01T09:58:53Z</time>
      </trkpt>
      <trkpt lat="44.75838" lon="4.92008">
        <ele>138</ele>
        <time>2014-05-01T09:58:54Z</time>
      </trkpt>
      <trkpt lat="44.75844" lon="4.92008">
        <ele>138</ele>
        <time>2014-05-01T09:58:55Z</time>
      </trkpt>
      <trkpt lat="44.75849" lon="4.92008">
        <ele>138</ele>
        <time>2014-05-01T09:58:56Z</time>
      </trkpt>
      <trkpt lat="44.75855" lon="4.92008">
        <ele>138</ele>
        <time>2014-05-01T09:58:57Z</time>
      </trkpt>
      <trkpt lat="44.75861" lon="4.92008">
        <ele>138</ele>
        <time>2014-05-01T09:58:58Z</time>
      </trkpt>
      <trkpt lat="44.75867" lon="4.92008">
        <ele>138</ele>
        <time>2014-05-01T09:58:59Z</time>
      </trkpt>
      <trkpt lat="44.75872" lon="4.92008">
        <ele>138</ele>
        <time>2014-05-01T09:59:00Z</time>
      </trkpt>
      <trkpt lat="44.75878" lon="4.92008">
        <ele>138</ele>
        <time>2014-05-01T09:59:01Z</time>
      </trkpt>
      <trkpt lat="44.75884" lon="4.92007">
        <ele>138</ele>
        <time>2014-05-01T09:59:02Z</time>
      </trkpt>
      <trkpt lat="44.75895" lon="4.92006">
        <ele>138</ele>
        <time>2014-05-01T09:59:04Z</time>
      </trkpt>
      <trkpt lat="44.759" lon="4.92006">
        <ele>138</ele>
        <time>2014-05-01T09:59:05Z</time>
      </trkpt>
      <trkpt lat="44.75906" lon="4.92005">
        <ele>138</ele>
        <time>2014-05-01T09:59:06Z</time>
      </trkpt>
      <trkpt lat="44.75912" lon="4.92005">
        <ele>138</ele>
        <time>2014-05-01T09:59:07Z</time>
      </trkpt>
      <trkpt lat="44.75917" lon="4.92005">
        <ele>138</ele>
        <time>2014-05-01T09:59:08Z</time>
      </trkpt>
      <trkpt lat="44.75923" lon="4.92004">
        <ele>138.2</ele>
        <time>2014-05-01T09:59:09Z</time>
      </trkpt>
      <trkpt lat="44.75928" lon="4.92004">
        <ele>138.4</ele>
        <time>2014-05-01T09:59:10Z</time>
      </trkpt>
      <trkpt lat="44.75934" lon="4.92002">
        <ele>138.6</ele>
        <time>2014-05-01T09:59:11Z</time>
      </trkpt>
      <trkpt lat="44.75939" lon="4.92001">
        <ele>138.8</ele>
        <time>2014-05-01T09:59:12Z</time>
      </trkpt>
      <trkpt lat="44.75945" lon="4.92">
        <ele>139</ele>
        <time>2014-05-01T09:59:13Z</time>
      </trkpt>
      <trkpt lat="44.75951" lon="4.91998">
        <ele>139.2</ele>
        <time>2014-05-01T09:59:14Z</time>
      </trkpt>
      <trkpt lat="44.75956" lon="4.91997">
        <ele>139.4</ele>
        <time>2014-05-01T09:59:15Z</time>
      </trkpt>
      <trkpt lat="44.75961" lon="4.91995">
        <ele>139.5</ele>
        <time>2014-05-01T09:59:16Z</time>
      </trkpt>
      <trkpt lat="44.75967" lon="4.91993">
        <ele>139.7</ele>
        <time>2014-05-01T09:59:17Z</time>
      </trkpt>
      <trkpt lat="44.75972" lon="4.91992">
        <ele>139.8</ele>
        <time>2014-05-01T09:59:18Z</time>
      </trkpt>
      <trkpt lat="44.75978" lon="4.9199">
        <ele>139.9</ele>
        <time>2014-05-01T09:59:19Z</time>
      </trkpt>
      <trkpt lat="44.75983" lon="4.91989">
        <ele>140.1</ele>
        <time>2014-05-01T09:59:20Z</time>
      </trkpt>
      <trkpt lat="44.75989" lon="4.91987">
        <ele>140.2</ele>
        <time>2014-05-01T09:59:21Z</time>
      </trkpt>
      <trkpt lat="44.75994" lon="4.91985">
        <ele>140.3</ele>
        <time>2014-05-01T09:59:22Z</time>
      </trkpt>
      <trkpt lat="44.76" lon="4.91984">
        <ele>140.4</ele>
        <time>2014-05-01T09:59:23Z</time>
      </trkpt>
      <trkpt lat="44.76005" lon="4.91982">
        <ele>140.3</ele>
        <time>2014-05-01T09:59:24Z</time>
      </trkpt>
      <trkpt lat="44.76011" lon="4.91981">
        <ele>140.1</ele>
        <time>2014-05-01T09:59:25Z</time>
      </trkpt>
      <trkpt lat="44.76017" lon="4.9198">
        <ele>140</ele>
        <time>2014-05-01T09:59:26Z</time>
      </trkpt>
      <trkpt lat="44.76022" lon="4.91978">
        <ele>139.9</ele>
        <time>2014-05-01T09:59:27Z</time>
      </trkpt>
      <trkpt lat="44.76028" lon="4.91977">
        <ele>139.8</ele>
        <time>2014-05-01T09:59:28Z</time>
      </trkpt>
      <trkpt lat="44.76033" lon="4.91975">
        <ele>139.7</ele>
        <time>2014-05-01T09:59:29Z</time>
      </trkpt>
      <trkpt lat="44.76038" lon="4.91974">
        <ele>139.6</ele>
        <time>2014-05-01T09:59:30Z</time>
      </trkpt>
      <trkpt lat="44.76043" lon="4.91973">
        <ele>139.5</ele>
        <time>2014-05-01T09:59:31Z</time>
      </trkpt>
      <trkpt lat="44.76048" lon="4.91971">
        <ele>139.4</ele>
        <time>2014-05-01T09:59:32Z</time>
      </trkpt>
      <trkpt lat="44.76054" lon="4.9197">
        <ele>139.3</ele>
        <time>2014-05-01T09:59:33Z</time>
      </trkpt>
      <trkpt lat="44.76059" lon="4.91969">
        <ele>139.3</ele>
        <time>2014-05-01T09:59:34Z</time>
      </trkpt>
      <trkpt lat="44.76065" lon="4.91967">
        <ele>139.2</ele>
        <time>2014-05-01T09:59:35Z</time>
      </trkpt>
      <trkpt lat="44.7607" lon="4.91966">
        <ele>139.1</ele>
        <time>2014-05-01T09:59:36Z</time>
      </trkpt>
      <trkpt lat="44.76075" lon="4.91965">
        <ele>139.1</ele>
        <time>2014-05-01T09:59:37Z</time>
      </trkpt>
      <trkpt lat="44.7608" lon="4.91964">
        <ele>139</ele>
        <time>2014-05-01T09:59:38Z</time>
      </trkpt>
      <trkpt lat="44.76085" lon="4.91962">
        <ele>139</ele>
        <time>2014-05-01T09:59:39Z</time>
      </trkpt>
      <trkpt lat="44.7609" lon="4.91961">
        <ele>139.1</ele>
        <time>2014-05-01T09:59:40Z</time>
      </trkpt>
      <trkpt lat="44.76095" lon="4.91959">
        <ele>139.2</ele>
        <time>2014-05-01T09:59:41Z</time>
      </trkpt>
      <trkpt lat="44.761" lon="4.91958">
        <ele>139.3</ele>
        <time>2014-05-01T09:59:42Z</time>
      </trkpt>
      <trkpt lat="44.76105" lon="4.91956">
        <ele>139.4</ele>
        <time>2014-05-01T09:59:43Z</time>
      </trkpt>
      <trkpt lat="44.7611" lon="4.91954">
        <ele>139.5</ele>
        <time>2014-05-01T09:59:44Z</time>
      </trkpt>
      <trkpt lat="44.76115" lon="4.91951">
        <ele>139.6</ele>
        <time>2014-05-01T09:59:45Z</time>
      </trkpt>
      <trkpt lat="44.76119" lon="4.91948">
        <ele>139.7</ele>
        <time>2014-05-01T09:59:46Z</time>
      </trkpt>
      <trkpt lat="44.76124" lon="4.91944">
        <ele>139.8</ele>
        <time>2014-05-01T09:59:47Z</time>
      </trkpt>
      <trkpt lat="44.76128" lon="4.9194">
        <ele>139.9</ele>
        <time>2014-05-01T09:59:48Z</time>
      </trkpt>
      <trkpt lat="44.76133" lon="4.91938">
        <ele>140</ele>
        <time>2014-05-01T09:59:49Z</time>
      </trkpt>
      <trkpt lat="44.76138" lon="4.91938">
        <ele>140.1</ele>
        <time>2014-05-01T09:59:50Z</time>
      </trkpt>
      <trkpt lat="44.76143" lon="4.91938">
        <ele>140.3</ele>
        <time>2014-05-01T09:59:51Z</time>
      </trkpt>
      <trkpt lat="44.76148" lon="4.91938">
        <ele>140.4</ele>
        <time>2014-05-01T09:59:52Z</time>
      </trkpt>
      <trkpt lat="44.76153" lon="4.91937">
        <ele>140.5</ele>
        <time>2014-05-01T09:59:53Z</time>
      </trkpt>
      <trkpt lat="44.76158" lon="4.91936">
        <ele>140.6</ele>
        <time>2014-05-01T09:59:54Z</time>
      </trkpt>
      <trkpt lat="44.76164" lon="4.91935">
        <ele>140.7</ele>
        <time>2014-05-01T09:59:55Z</time>
      </trkpt>
      <trkpt lat="44.76168" lon="4.91934">
        <ele>141</ele>
        <time>2014-05-01T09:59:56Z</time>
      </trkpt>
      <trkpt lat="44.76173" lon="4.91933">
        <ele>141.6</ele>
        <time>2014-05-01T09:59:57Z</time>
      </trkpt>
      <trkpt lat="44.76178" lon="4.91932">
        <ele>142.2</ele>
        <time>2014-05-01T09:59:58Z</time>
      </trkpt>
      <trkpt lat="44.76186" lon="4.91929">
        <ele>143.3</ele>
        <time>2014-05-01T10:00:00Z</time>
      </trkpt>
      <trkpt lat="44.76193" lon="4.91927">
        <ele>144.3</ele>
        <time>2014-05-01T10:00:02Z</time>
      </trkpt>
      <trkpt lat="44.762" lon="4.91926">
        <ele>145.2</ele>
        <time>2014-05-01T10:00:04Z</time>
      </trkpt>
      <trkpt lat="44.76211" lon="4.91939">
        <ele>146.3</ele>
        <time>2014-05-01T10:00:08Z</time>
      </trkpt>
      <trkpt lat="44.76214" lon="4.91947">
        <ele>146.5</ele>
        <time>2014-05-01T10:00:10Z</time>
      </trkpt>
      <trkpt lat="44.76214" lon="4.91958">
        <ele>146.2</ele>
        <time>2014-05-01T10:00:12Z</time>
      </trkpt>
      <trkpt lat="44.76214" lon="4.91969">
        <ele>145.9</ele>
        <time>2014-05-01T10:00:14Z</time>
      </trkpt>
      <trkpt lat="44.76213" lon="4.91982">
        <ele>145.5</ele>
        <time>2014-05-01T10:00:16Z</time>
      </trkpt>
      <trkpt lat="44.76213" lon="4.91988">
        <ele>145.3</ele>
        <time>2014-05-01T10:00:17Z</time>
      </trkpt>
      <trkpt lat="44.76212" lon="4.91995">
        <ele>145.1</ele>
        <time>2014-05-01T10:00:18Z</time>
      </trkpt>
      <trkpt lat="44.76212" lon="4.92002">
        <ele>144.9</ele>
        <time>2014-05-01T10:00:19Z</time>
      </trkpt>
      <trkpt lat="44.76211" lon="4.92009">
        <ele>144.7</ele>
        <time>2014-05-01T10:00:20Z</time>
      </trkpt>
      <trkpt lat="44.76211" lon="4.92015">
        <ele>144.5</ele>
        <time>2014-05-01T10:00:21Z</time>
      </trkpt>
      <trkpt lat="44.76211" lon="4.92022">
        <ele>144.3</ele>
        <time>2014-05-01T10:00:22Z</time>
      </trkpt>
      <trkpt lat="44.7621" lon="4.92029">
        <ele>144.1</ele>
        <time>2014-05-01T10:00:23Z</time>
      </trkpt>
      <trkpt lat="44.7621" lon="4.92036">
        <ele>144</ele>
        <time>2014-05-01T10:00:24Z</time>
      </trkpt>
      <trkpt lat="44.76209" lon="4.92043">
        <ele>143.8</ele>
        <time>2014-05-01T10:00:25Z</time>
      </trkpt>
      <trkpt lat="44.76209" lon="4.9205">
        <ele>143.7</ele>
        <time>2014-05-01T10:00:26Z</time>
      </trkpt>
      <trkpt lat="44.76209" lon="4.92057">
        <ele>143.6</ele>
        <time>2014-05-01T10:00:27Z</time>
      </trkpt>
      <trkpt lat="44.76209" lon="4.92063">
        <ele>143.5</ele>
        <time>2014-05-01T10:00:28Z</time>
      </trkpt>
      <trkpt lat="44.76209" lon="4.9207">
        <ele>143.3</ele>
        <time>2014-05-01T10:00:29Z</time>
      </trkpt>
      <trkpt lat="44.76209" lon="4.92077">
        <ele>143.2</ele>
        <time>2014-05-01T10:00:30Z</time>
      </trkpt>
      <trkpt lat="44.76209" lon="4.92084">
        <ele>143</ele>
        <time>2014-05-01T10:00:31Z</time>
      </trkpt>
      <trkpt lat="44.76209" lon="4.9209">
        <ele>143.2</ele>
        <time>2014-05-01T10:00:32Z</time>
      </trkpt>
      <trkpt lat="44.76209" lon="4.92097">
        <ele>143.3</ele>
        <time>2014-05-01T10:00:33Z</time>
      </trkpt>
      <trkpt lat="44.76209" lon="4.92104">
        <ele>143.5</ele>
        <time>2014-05-01T10:00:34Z</time>
      </trkpt>
      <trkpt lat="44.76209" lon="4.9211">
        <ele>143.7</ele>
        <time>2014-05-01T10:00:35Z</time>
      </trkpt>
      <trkpt lat="44.7621" lon="4.92117">
        <ele>143.9</ele>
        <time>2014-05-01T10:00:36Z</time>
      </trkpt>
      <trkpt lat="44.76216" lon="4.92126">
        <ele>144.7</ele>
        <time>2014-05-01T10:00:38Z</time>
      </trkpt>
      <trkpt lat="44.76225" lon="4.92127">
        <ele>145.4</ele>
        <time>2014-05-01T10:00:40Z</time>
      </trkpt>
      <trkpt lat="44.76233" lon="4.92125">
        <ele>146.1</ele>
        <time>2014-05-01T10:00:42Z</time>
      </trkpt>
      <trkpt lat="44.76241" lon="4.92124">
        <ele>146.7</ele>
        <time>2014-05-01T10:00:44Z</time>
      </trkpt>
      <trkpt lat="44.76248" lon="4.92122">
        <ele>147.2</ele>
        <time>2014-05-01T10:00:46Z</time>
      </trkpt>
      <trkpt lat="44.76256" lon="4.92121">
        <ele>149.1</ele>
        <time>2014-05-01T10:00:48Z</time>
      </trkpt>
      <trkpt lat="44.76264" lon="4.9212">
        <ele>151.4</ele>
        <time>2014-05-01T10:00:50Z</time>
      </trkpt>
      <trkpt lat="44.76272" lon="4.92119">
        <ele>153.6</ele>
        <time>2014-05-01T10:00:52Z</time>
      </trkpt>
      <trkpt lat="44.7628" lon="4.92118">
        <ele>155.7</ele>
        <time>2014-05-01T10:00:54Z</time>
      </trkpt>
      <trkpt lat="44.76284" lon="4.92113">
        <ele>156.9</ele>
        <time>2014-05-01T10:00:56Z</time>
      </trkpt>
      <trkpt lat="44.76285" lon="4.92105">
        <ele>156.8</ele>
        <time>2014-05-01T10:00:58Z</time>
      </trkpt>
      <trkpt lat="44.76284" lon="4.92096">
        <ele>156.5</ele>
        <time>2014-05-01T10:01:00Z</time>
      </trkpt>
      <trkpt lat="44.76284" lon="4.92087">
        <ele>156.2</ele>
        <time>2014-05-01T10:01:02Z</time>
      </trkpt>
      <trkpt lat="44.76284" lon="4.92079">
        <ele>156.4</ele>
        <time>2014-05-01T10:01:04Z</time>
      </trkpt>
      <trkpt lat="44.76285" lon="4.92072">
        <ele>157</ele>
        <time>2014-05-01T10:01:06Z</time>
      </trkpt>
      <trkpt lat="44.76286" lon="4.92062">
        <ele>158</ele>
        <time>2014-05-01T10:01:34Z</time>
      </trkpt>
    </trkseg>
  </trk>
</gpx>